<?xml version="1.0" encoding="UTF-8" standalone="no" ?>
<gpx xmlns="http://www.topografix.com/GPX/1/1" xmlns:xsi="http://www.w3.org/2001/XMLSchema-instance" xsi:schemaLocation="http://www.topografix.com/GPX/1/1 http://www.topografix.com/GPX/1/1/gpx.xsd" version="1.1" creator="VisuGPX - https://www.visugpx.com">
  <metadata>
    <name>Col de la Chaudière par Saou puis pas de Lausens</name>
    <desc><![CDATA[Très beau circuit qui évite la route passante de Crest-Die]]></desc>
  </metadata>
  <trk>
    <name><![CDATA[Crest col de la Chaudière]]></name>
    <trkseg>
      <trkpt lat="44.72069" lon="5.02568">
        <ele>196.7</ele>
        <time>2024-05-17T08:59:44Z</time>
      </trkpt>
      <trkpt lat="44.72069" lon="5.02568">
        <ele>196.7</ele>
        <time>2024-05-17T08:59:45Z</time>
      </trkpt>
      <trkpt lat="44.72064" lon="5.0257">
        <ele>196.8</ele>
        <time>2024-05-17T08:59:46Z</time>
      </trkpt>
      <trkpt lat="44.72063" lon="5.0257">
        <ele>196.9</ele>
        <time>2024-05-17T08:59:47Z</time>
      </trkpt>
      <trkpt lat="44.72059" lon="5.02573">
        <ele>197</ele>
        <time>2024-05-17T08:59:48Z</time>
      </trkpt>
      <trkpt lat="44.72057" lon="5.02574">
        <ele>197.1</ele>
        <time>2024-05-17T08:59:49Z</time>
      </trkpt>
      <trkpt lat="44.72051" lon="5.02575">
        <ele>197.2</ele>
        <time>2024-05-17T08:59:50Z</time>
      </trkpt>
      <trkpt lat="44.7205" lon="5.02576">
        <ele>197.3</ele>
        <time>2024-05-17T08:59:51Z</time>
      </trkpt>
      <trkpt lat="44.72046" lon="5.02577">
        <ele>197.4</ele>
        <time>2024-05-17T08:59:52Z</time>
      </trkpt>
      <trkpt lat="44.72043" lon="5.02578">
        <ele>197.5</ele>
        <time>2024-05-17T08:59:53Z</time>
      </trkpt>
      <trkpt lat="44.72037" lon="5.02579">
        <ele>197.6</ele>
        <time>2024-05-17T08:59:54Z</time>
      </trkpt>
      <trkpt lat="44.72036" lon="5.02579">
        <ele>197.6</ele>
        <time>2024-05-17T08:59:55Z</time>
      </trkpt>
      <trkpt lat="44.72032" lon="5.02577">
        <ele>197.7</ele>
        <time>2024-05-17T08:59:56Z</time>
      </trkpt>
      <trkpt lat="44.7203" lon="5.02575">
        <ele>197.8</ele>
        <time>2024-05-17T08:59:57Z</time>
      </trkpt>
      <trkpt lat="44.72027" lon="5.02572">
        <ele>197.9</ele>
        <time>2024-05-17T08:59:58Z</time>
      </trkpt>
      <trkpt lat="44.72025" lon="5.02569">
        <ele>198</ele>
        <time>2024-05-17T08:59:59Z</time>
      </trkpt>
      <trkpt lat="44.72024" lon="5.02566">
        <ele>198.1</ele>
        <time>2024-05-17T09:00:00Z</time>
      </trkpt>
      <trkpt lat="44.72023" lon="5.02561">
        <ele>198.2</ele>
        <time>2024-05-17T09:00:01Z</time>
      </trkpt>
      <trkpt lat="44.72022" lon="5.02554">
        <ele>198.4</ele>
        <time>2024-05-17T09:00:02Z</time>
      </trkpt>
      <trkpt lat="44.72022" lon="5.02551">
        <ele>198.4</ele>
        <time>2024-05-17T09:00:03Z</time>
      </trkpt>
      <trkpt lat="44.72023" lon="5.02543">
        <ele>198.5</ele>
        <time>2024-05-17T09:00:04Z</time>
      </trkpt>
      <trkpt lat="44.72023" lon="5.0254">
        <ele>198.6</ele>
        <time>2024-05-17T09:00:05Z</time>
      </trkpt>
      <trkpt lat="44.72023" lon="5.02535">
        <ele>198.7</ele>
        <time>2024-05-17T09:00:06Z</time>
      </trkpt>
      <trkpt lat="44.72024" lon="5.0253">
        <ele>198.8</ele>
        <time>2024-05-17T09:00:07Z</time>
      </trkpt>
      <trkpt lat="44.72024" lon="5.02523">
        <ele>198.9</ele>
        <time>2024-05-17T09:00:08Z</time>
      </trkpt>
      <trkpt lat="44.72024" lon="5.02521">
        <ele>199</ele>
        <time>2024-05-17T09:00:09Z</time>
      </trkpt>
      <trkpt lat="44.72024" lon="5.02516">
        <ele>199.1</ele>
        <time>2024-05-17T09:00:10Z</time>
      </trkpt>
      <trkpt lat="44.72024" lon="5.0251">
        <ele>199.2</ele>
        <time>2024-05-17T09:00:11Z</time>
      </trkpt>
      <trkpt lat="44.72025" lon="5.02505">
        <ele>199.4</ele>
        <time>2024-05-17T09:00:12Z</time>
      </trkpt>
      <trkpt lat="44.72025" lon="5.025">
        <ele>199.5</ele>
        <time>2024-05-17T09:00:13Z</time>
      </trkpt>
      <trkpt lat="44.72026" lon="5.02495">
        <ele>199.6</ele>
        <time>2024-05-17T09:00:14Z</time>
      </trkpt>
      <trkpt lat="44.72026" lon="5.0249">
        <ele>199.8</ele>
        <time>2024-05-17T09:00:15Z</time>
      </trkpt>
      <trkpt lat="44.72027" lon="5.02485">
        <ele>199.9</ele>
        <time>2024-05-17T09:00:16Z</time>
      </trkpt>
      <trkpt lat="44.72027" lon="5.0248">
        <ele>200</ele>
        <time>2024-05-17T09:00:17Z</time>
      </trkpt>
      <trkpt lat="44.72027" lon="5.02475">
        <ele>200.2</ele>
        <time>2024-05-17T09:00:18Z</time>
      </trkpt>
      <trkpt lat="44.72028" lon="5.0247">
        <ele>200.3</ele>
        <time>2024-05-17T09:00:19Z</time>
      </trkpt>
      <trkpt lat="44.72029" lon="5.02462">
        <ele>200.5</ele>
        <time>2024-05-17T09:00:20Z</time>
      </trkpt>
      <trkpt lat="44.72029" lon="5.02459">
        <ele>200.6</ele>
        <time>2024-05-17T09:00:21Z</time>
      </trkpt>
      <trkpt lat="44.72029" lon="5.02454">
        <ele>200.7</ele>
        <time>2024-05-17T09:00:22Z</time>
      </trkpt>
      <trkpt lat="44.7203" lon="5.02449">
        <ele>200.9</ele>
        <time>2024-05-17T09:00:23Z</time>
      </trkpt>
      <trkpt lat="44.7203" lon="5.02444">
        <ele>201</ele>
        <time>2024-05-17T09:00:24Z</time>
      </trkpt>
      <trkpt lat="44.7203" lon="5.02439">
        <ele>201.2</ele>
        <time>2024-05-17T09:00:25Z</time>
      </trkpt>
      <trkpt lat="44.72031" lon="5.02434">
        <ele>201.4</ele>
        <time>2024-05-17T09:00:26Z</time>
      </trkpt>
      <trkpt lat="44.72031" lon="5.02428">
        <ele>201.6</ele>
        <time>2024-05-17T09:00:27Z</time>
      </trkpt>
      <trkpt lat="44.72031" lon="5.02421">
        <ele>201.8</ele>
        <time>2024-05-17T09:00:28Z</time>
      </trkpt>
      <trkpt lat="44.72032" lon="5.02418">
        <ele>201.9</ele>
        <time>2024-05-17T09:00:29Z</time>
      </trkpt>
      <trkpt lat="44.72032" lon="5.02411">
        <ele>202.1</ele>
        <time>2024-05-17T09:00:30Z</time>
      </trkpt>
      <trkpt lat="44.72032" lon="5.02409">
        <ele>202.2</ele>
        <time>2024-05-17T09:00:31Z</time>
      </trkpt>
      <trkpt lat="44.72033" lon="5.02402">
        <ele>202.4</ele>
        <time>2024-05-17T09:00:32Z</time>
      </trkpt>
      <trkpt lat="44.72034" lon="5.024">
        <ele>202.5</ele>
        <time>2024-05-17T09:00:33Z</time>
      </trkpt>
      <trkpt lat="44.72035" lon="5.02393">
        <ele>202.7</ele>
        <time>2024-05-17T09:00:34Z</time>
      </trkpt>
      <trkpt lat="44.72035" lon="5.02391">
        <ele>202.7</ele>
        <time>2024-05-17T09:00:35Z</time>
      </trkpt>
      <trkpt lat="44.72036" lon="5.02386">
        <ele>202.8</ele>
        <time>2024-05-17T09:00:36Z</time>
      </trkpt>
      <trkpt lat="44.72036" lon="5.02382">
        <ele>203</ele>
        <time>2024-05-17T09:00:37Z</time>
      </trkpt>
      <trkpt lat="44.72037" lon="5.02378">
        <ele>203.1</ele>
        <time>2024-05-17T09:00:38Z</time>
      </trkpt>
      <trkpt lat="44.72038" lon="5.02373">
        <ele>203.2</ele>
        <time>2024-05-17T09:00:39Z</time>
      </trkpt>
      <trkpt lat="44.72039" lon="5.02368">
        <ele>203.3</ele>
        <time>2024-05-17T09:00:40Z</time>
      </trkpt>
      <trkpt lat="44.7204" lon="5.02364">
        <ele>203.4</ele>
        <time>2024-05-17T09:00:41Z</time>
      </trkpt>
      <trkpt lat="44.7204" lon="5.0236">
        <ele>203.5</ele>
        <time>2024-05-17T09:00:42Z</time>
      </trkpt>
      <trkpt lat="44.72041" lon="5.02355">
        <ele>203.7</ele>
        <time>2024-05-17T09:00:43Z</time>
      </trkpt>
      <trkpt lat="44.72043" lon="5.02348">
        <ele>203.8</ele>
        <time>2024-05-17T09:00:44Z</time>
      </trkpt>
      <trkpt lat="44.72044" lon="5.02345">
        <ele>203.9</ele>
        <time>2024-05-17T09:00:45Z</time>
      </trkpt>
      <trkpt lat="44.72045" lon="5.02339">
        <ele>204.1</ele>
        <time>2024-05-17T09:00:46Z</time>
      </trkpt>
      <trkpt lat="44.72046" lon="5.02337">
        <ele>204.1</ele>
        <time>2024-05-17T09:00:47Z</time>
      </trkpt>
      <trkpt lat="44.72047" lon="5.02332">
        <ele>204.3</ele>
        <time>2024-05-17T09:00:48Z</time>
      </trkpt>
      <trkpt lat="44.72048" lon="5.02327">
        <ele>204.4</ele>
        <time>2024-05-17T09:00:49Z</time>
      </trkpt>
      <trkpt lat="44.7205" lon="5.0232">
        <ele>204.6</ele>
        <time>2024-05-17T09:00:50Z</time>
      </trkpt>
      <trkpt lat="44.72051" lon="5.02318">
        <ele>204.7</ele>
        <time>2024-05-17T09:00:51Z</time>
      </trkpt>
      <trkpt lat="44.72053" lon="5.02311">
        <ele>204.9</ele>
        <time>2024-05-17T09:00:52Z</time>
      </trkpt>
      <trkpt lat="44.72053" lon="5.02309">
        <ele>204.9</ele>
        <time>2024-05-17T09:00:53Z</time>
      </trkpt>
      <trkpt lat="44.72056" lon="5.02303">
        <ele>205.1</ele>
        <time>2024-05-17T09:00:54Z</time>
      </trkpt>
      <trkpt lat="44.72057" lon="5.02301">
        <ele>205.2</ele>
        <time>2024-05-17T09:00:55Z</time>
      </trkpt>
      <trkpt lat="44.72059" lon="5.02297">
        <ele>205.3</ele>
        <time>2024-05-17T09:00:56Z</time>
      </trkpt>
      <trkpt lat="44.72061" lon="5.02291">
        <ele>205.5</ele>
        <time>2024-05-17T09:00:57Z</time>
      </trkpt>
      <trkpt lat="44.72062" lon="5.02289">
        <ele>205.6</ele>
        <time>2024-05-17T09:00:58Z</time>
      </trkpt>
      <trkpt lat="44.72064" lon="5.02285">
        <ele>205.7</ele>
        <time>2024-05-17T09:00:59Z</time>
      </trkpt>
      <trkpt lat="44.72066" lon="5.0228">
        <ele>205.9</ele>
        <time>2024-05-17T09:01:00Z</time>
      </trkpt>
      <trkpt lat="44.72068" lon="5.02277">
        <ele>206</ele>
        <time>2024-05-17T09:01:01Z</time>
      </trkpt>
      <trkpt lat="44.7207" lon="5.02273">
        <ele>206.1</ele>
        <time>2024-05-17T09:01:02Z</time>
      </trkpt>
      <trkpt lat="44.72073" lon="5.02268">
        <ele>206.3</ele>
        <time>2024-05-17T09:01:03Z</time>
      </trkpt>
      <trkpt lat="44.72074" lon="5.02266">
        <ele>206.4</ele>
        <time>2024-05-17T09:01:04Z</time>
      </trkpt>
      <trkpt lat="44.72076" lon="5.02263">
        <ele>206.5</ele>
        <time>2024-05-17T09:01:05Z</time>
      </trkpt>
      <trkpt lat="44.72079" lon="5.02259">
        <ele>206.6</ele>
        <time>2024-05-17T09:01:06Z</time>
      </trkpt>
      <trkpt lat="44.72081" lon="5.02256">
        <ele>206.7</ele>
        <time>2024-05-17T09:01:07Z</time>
      </trkpt>
      <trkpt lat="44.72083" lon="5.02252">
        <ele>206.9</ele>
        <time>2024-05-17T09:01:08Z</time>
      </trkpt>
      <trkpt lat="44.72085" lon="5.02249">
        <ele>207</ele>
        <time>2024-05-17T09:01:09Z</time>
      </trkpt>
      <trkpt lat="44.72088" lon="5.02246">
        <ele>207.1</ele>
        <time>2024-05-17T09:01:10Z</time>
      </trkpt>
      <trkpt lat="44.72091" lon="5.02241">
        <ele>207.3</ele>
        <time>2024-05-17T09:01:11Z</time>
      </trkpt>
      <trkpt lat="44.72093" lon="5.02239">
        <ele>207.4</ele>
        <time>2024-05-17T09:01:12Z</time>
      </trkpt>
      <trkpt lat="44.72095" lon="5.02236">
        <ele>207.5</ele>
        <time>2024-05-17T09:01:13Z</time>
      </trkpt>
      <trkpt lat="44.72098" lon="5.02233">
        <ele>207.7</ele>
        <time>2024-05-17T09:01:14Z</time>
      </trkpt>
      <trkpt lat="44.72102" lon="5.02229">
        <ele>207.9</ele>
        <time>2024-05-17T09:01:15Z</time>
      </trkpt>
      <trkpt lat="44.72103" lon="5.02227">
        <ele>208</ele>
        <time>2024-05-17T09:01:16Z</time>
      </trkpt>
      <trkpt lat="44.72107" lon="5.02223">
        <ele>208.2</ele>
        <time>2024-05-17T09:01:17Z</time>
      </trkpt>
      <trkpt lat="44.72108" lon="5.02222">
        <ele>208.3</ele>
        <time>2024-05-17T09:01:18Z</time>
      </trkpt>
      <trkpt lat="44.72112" lon="5.02217">
        <ele>208.5</ele>
        <time>2024-05-17T09:01:19Z</time>
      </trkpt>
      <trkpt lat="44.72114" lon="5.02216">
        <ele>208.5</ele>
        <time>2024-05-17T09:01:20Z</time>
      </trkpt>
      <trkpt lat="44.72116" lon="5.02213">
        <ele>208.7</ele>
        <time>2024-05-17T09:01:21Z</time>
      </trkpt>
      <trkpt lat="44.72118" lon="5.0221">
        <ele>208.8</ele>
        <time>2024-05-17T09:01:22Z</time>
      </trkpt>
      <trkpt lat="44.72121" lon="5.02207">
        <ele>209</ele>
        <time>2024-05-17T09:01:23Z</time>
      </trkpt>
      <trkpt lat="44.72123" lon="5.02204">
        <ele>209.1</ele>
        <time>2024-05-17T09:01:24Z</time>
      </trkpt>
      <trkpt lat="44.72126" lon="5.02201">
        <ele>209.2</ele>
        <time>2024-05-17T09:01:25Z</time>
      </trkpt>
      <trkpt lat="44.72129" lon="5.02198">
        <ele>209.4</ele>
        <time>2024-05-17T09:01:26Z</time>
      </trkpt>
      <trkpt lat="44.72131" lon="5.02195">
        <ele>209.5</ele>
        <time>2024-05-17T09:01:27Z</time>
      </trkpt>
      <trkpt lat="44.72134" lon="5.02192">
        <ele>209.6</ele>
        <time>2024-05-17T09:01:28Z</time>
      </trkpt>
      <trkpt lat="44.72138" lon="5.02187">
        <ele>209.8</ele>
        <time>2024-05-17T09:01:29Z</time>
      </trkpt>
      <trkpt lat="44.72139" lon="5.02185">
        <ele>209.9</ele>
        <time>2024-05-17T09:01:30Z</time>
      </trkpt>
      <trkpt lat="44.72143" lon="5.0218">
        <ele>210.1</ele>
        <time>2024-05-17T09:01:31Z</time>
      </trkpt>
      <trkpt lat="44.72144" lon="5.02179">
        <ele>210.1</ele>
        <time>2024-05-17T09:01:32Z</time>
      </trkpt>
      <trkpt lat="44.72147" lon="5.02176">
        <ele>210.2</ele>
        <time>2024-05-17T09:01:33Z</time>
      </trkpt>
      <trkpt lat="44.72151" lon="5.02172">
        <ele>210.4</ele>
        <time>2024-05-17T09:01:34Z</time>
      </trkpt>
      <trkpt lat="44.72152" lon="5.0217">
        <ele>210.4</ele>
        <time>2024-05-17T09:01:35Z</time>
      </trkpt>
      <trkpt lat="44.72156" lon="5.02165">
        <ele>210.6</ele>
        <time>2024-05-17T09:01:36Z</time>
      </trkpt>
      <trkpt lat="44.72158" lon="5.02164">
        <ele>210.6</ele>
        <time>2024-05-17T09:01:37Z</time>
      </trkpt>
      <trkpt lat="44.72161" lon="5.02161">
        <ele>210.7</ele>
        <time>2024-05-17T09:01:38Z</time>
      </trkpt>
      <trkpt lat="44.72165" lon="5.02156">
        <ele>210.9</ele>
        <time>2024-05-17T09:01:39Z</time>
      </trkpt>
      <trkpt lat="44.72167" lon="5.02155">
        <ele>211</ele>
        <time>2024-05-17T09:01:40Z</time>
      </trkpt>
      <trkpt lat="44.72171" lon="5.0215">
        <ele>211.1</ele>
        <time>2024-05-17T09:01:41Z</time>
      </trkpt>
      <trkpt lat="44.72173" lon="5.02149">
        <ele>211.2</ele>
        <time>2024-05-17T09:01:42Z</time>
      </trkpt>
      <trkpt lat="44.72177" lon="5.02144">
        <ele>211.4</ele>
        <time>2024-05-17T09:01:43Z</time>
      </trkpt>
      <trkpt lat="44.72179" lon="5.02142">
        <ele>211.4</ele>
        <time>2024-05-17T09:01:44Z</time>
      </trkpt>
      <trkpt lat="44.72183" lon="5.02138">
        <ele>211.6</ele>
        <time>2024-05-17T09:01:45Z</time>
      </trkpt>
      <trkpt lat="44.72185" lon="5.02136">
        <ele>211.6</ele>
        <time>2024-05-17T09:01:46Z</time>
      </trkpt>
      <trkpt lat="44.72188" lon="5.02133">
        <ele>211.7</ele>
        <time>2024-05-17T09:01:47Z</time>
      </trkpt>
      <trkpt lat="44.72191" lon="5.02129">
        <ele>211.8</ele>
        <time>2024-05-17T09:01:48Z</time>
      </trkpt>
      <trkpt lat="44.72194" lon="5.02126">
        <ele>211.9</ele>
        <time>2024-05-17T09:01:49Z</time>
      </trkpt>
      <trkpt lat="44.72197" lon="5.02123">
        <ele>212</ele>
        <time>2024-05-17T09:01:50Z</time>
      </trkpt>
      <trkpt lat="44.722" lon="5.0212">
        <ele>212</ele>
        <time>2024-05-17T09:01:51Z</time>
      </trkpt>
      <trkpt lat="44.72203" lon="5.02116">
        <ele>212.1</ele>
        <time>2024-05-17T09:01:52Z</time>
      </trkpt>
      <trkpt lat="44.72208" lon="5.02111">
        <ele>212.2</ele>
        <time>2024-05-17T09:01:53Z</time>
      </trkpt>
      <trkpt lat="44.7221" lon="5.0211">
        <ele>212.2</ele>
        <time>2024-05-17T09:01:54Z</time>
      </trkpt>
      <trkpt lat="44.72214" lon="5.02104">
        <ele>212.3</ele>
        <time>2024-05-17T09:01:55Z</time>
      </trkpt>
      <trkpt lat="44.72216" lon="5.02102">
        <ele>212.3</ele>
        <time>2024-05-17T09:01:56Z</time>
      </trkpt>
      <trkpt lat="44.72221" lon="5.02097">
        <ele>212.4</ele>
        <time>2024-05-17T09:01:57Z</time>
      </trkpt>
      <trkpt lat="44.72223" lon="5.02095">
        <ele>212.4</ele>
        <time>2024-05-17T09:01:58Z</time>
      </trkpt>
      <trkpt lat="44.72228" lon="5.0209">
        <ele>212.4</ele>
        <time>2024-05-17T09:01:59Z</time>
      </trkpt>
      <trkpt lat="44.72229" lon="5.02088">
        <ele>212.4</ele>
        <time>2024-05-17T09:02:00Z</time>
      </trkpt>
      <trkpt lat="44.72234" lon="5.02082">
        <ele>212.5</ele>
        <time>2024-05-17T09:02:01Z</time>
      </trkpt>
      <trkpt lat="44.72236" lon="5.0208">
        <ele>212.5</ele>
        <time>2024-05-17T09:02:02Z</time>
      </trkpt>
      <trkpt lat="44.72239" lon="5.02076">
        <ele>212.5</ele>
        <time>2024-05-17T09:02:03Z</time>
      </trkpt>
      <trkpt lat="44.72242" lon="5.02072">
        <ele>212.5</ele>
        <time>2024-05-17T09:02:04Z</time>
      </trkpt>
      <trkpt lat="44.72246" lon="5.02067">
        <ele>212.5</ele>
        <time>2024-05-17T09:02:05Z</time>
      </trkpt>
      <trkpt lat="44.72249" lon="5.02063">
        <ele>212.5</ele>
        <time>2024-05-17T09:02:06Z</time>
      </trkpt>
      <trkpt lat="44.72253" lon="5.02059">
        <ele>212.5</ele>
        <time>2024-05-17T09:02:07Z</time>
      </trkpt>
      <trkpt lat="44.72256" lon="5.02054">
        <ele>212.5</ele>
        <time>2024-05-17T09:02:08Z</time>
      </trkpt>
      <trkpt lat="44.72259" lon="5.0205">
        <ele>212.4</ele>
        <time>2024-05-17T09:02:09Z</time>
      </trkpt>
      <trkpt lat="44.72262" lon="5.02045">
        <ele>212.4</ele>
        <time>2024-05-17T09:02:10Z</time>
      </trkpt>
      <trkpt lat="44.72267" lon="5.02037">
        <ele>212.3</ele>
        <time>2024-05-17T09:02:11Z</time>
      </trkpt>
      <trkpt lat="44.72269" lon="5.02034">
        <ele>212.3</ele>
        <time>2024-05-17T09:02:12Z</time>
      </trkpt>
      <trkpt lat="44.72273" lon="5.02026">
        <ele>212.2</ele>
        <time>2024-05-17T09:02:13Z</time>
      </trkpt>
      <trkpt lat="44.72275" lon="5.02023">
        <ele>212.2</ele>
        <time>2024-05-17T09:02:14Z</time>
      </trkpt>
      <trkpt lat="44.72278" lon="5.02017">
        <ele>212.1</ele>
        <time>2024-05-17T09:02:15Z</time>
      </trkpt>
      <trkpt lat="44.7228" lon="5.0201">
        <ele>212</ele>
        <time>2024-05-17T09:02:16Z</time>
      </trkpt>
      <trkpt lat="44.72283" lon="5.02003">
        <ele>211.9</ele>
        <time>2024-05-17T09:02:17Z</time>
      </trkpt>
      <trkpt lat="44.72286" lon="5.01996">
        <ele>211.8</ele>
        <time>2024-05-17T09:02:18Z</time>
      </trkpt>
      <trkpt lat="44.72289" lon="5.01988">
        <ele>211.7</ele>
        <time>2024-05-17T09:02:19Z</time>
      </trkpt>
      <trkpt lat="44.72291" lon="5.01981">
        <ele>211.6</ele>
        <time>2024-05-17T09:02:20Z</time>
      </trkpt>
      <trkpt lat="44.72294" lon="5.01973">
        <ele>211.4</ele>
        <time>2024-05-17T09:02:21Z</time>
      </trkpt>
      <trkpt lat="44.72297" lon="5.01961">
        <ele>211.2</ele>
        <time>2024-05-17T09:02:22Z</time>
      </trkpt>
      <trkpt lat="44.72298" lon="5.01957">
        <ele>211.1</ele>
        <time>2024-05-17T09:02:23Z</time>
      </trkpt>
      <trkpt lat="44.72301" lon="5.01948">
        <ele>210.9</ele>
        <time>2024-05-17T09:02:24Z</time>
      </trkpt>
      <trkpt lat="44.72302" lon="5.01939">
        <ele>210.6</ele>
        <time>2024-05-17T09:02:25Z</time>
      </trkpt>
      <trkpt lat="44.72305" lon="5.01926">
        <ele>210.2</ele>
        <time>2024-05-17T09:02:26Z</time>
      </trkpt>
      <trkpt lat="44.72305" lon="5.01921">
        <ele>210.1</ele>
        <time>2024-05-17T09:02:27Z</time>
      </trkpt>
      <trkpt lat="44.72307" lon="5.01907">
        <ele>209.6</ele>
        <time>2024-05-17T09:02:28Z</time>
      </trkpt>
      <trkpt lat="44.72307" lon="5.01902">
        <ele>209.5</ele>
        <time>2024-05-17T09:02:29Z</time>
      </trkpt>
      <trkpt lat="44.72308" lon="5.01892">
        <ele>209.2</ele>
        <time>2024-05-17T09:02:30Z</time>
      </trkpt>
      <trkpt lat="44.72308" lon="5.01883">
        <ele>208.9</ele>
        <time>2024-05-17T09:02:31Z</time>
      </trkpt>
      <trkpt lat="44.72308" lon="5.01873">
        <ele>208.6</ele>
        <time>2024-05-17T09:02:32Z</time>
      </trkpt>
      <trkpt lat="44.72308" lon="5.01863">
        <ele>208.2</ele>
        <time>2024-05-17T09:02:33Z</time>
      </trkpt>
      <trkpt lat="44.72308" lon="5.01852">
        <ele>207.8</ele>
        <time>2024-05-17T09:02:34Z</time>
      </trkpt>
      <trkpt lat="44.72307" lon="5.01842">
        <ele>207.4</ele>
        <time>2024-05-17T09:02:35Z</time>
      </trkpt>
      <trkpt lat="44.72305" lon="5.01826">
        <ele>206.8</ele>
        <time>2024-05-17T09:02:36Z</time>
      </trkpt>
      <trkpt lat="44.72304" lon="5.01821">
        <ele>206.6</ele>
        <time>2024-05-17T09:02:37Z</time>
      </trkpt>
      <trkpt lat="44.723" lon="5.01805">
        <ele>205.9</ele>
        <time>2024-05-17T09:02:38Z</time>
      </trkpt>
      <trkpt lat="44.72299" lon="5.018">
        <ele>205.6</ele>
        <time>2024-05-17T09:02:39Z</time>
      </trkpt>
      <trkpt lat="44.72294" lon="5.01784">
        <ele>204.8</ele>
        <time>2024-05-17T09:02:40Z</time>
      </trkpt>
      <trkpt lat="44.72292" lon="5.01778">
        <ele>204.5</ele>
        <time>2024-05-17T09:02:41Z</time>
      </trkpt>
      <trkpt lat="44.72287" lon="5.01761">
        <ele>203.6</ele>
        <time>2024-05-17T09:02:42Z</time>
      </trkpt>
      <trkpt lat="44.72285" lon="5.01756">
        <ele>203.3</ele>
        <time>2024-05-17T09:02:43Z</time>
      </trkpt>
      <trkpt lat="44.72279" lon="5.01739">
        <ele>202.5</ele>
        <time>2024-05-17T09:02:44Z</time>
      </trkpt>
      <trkpt lat="44.72277" lon="5.01733">
        <ele>202.2</ele>
        <time>2024-05-17T09:02:45Z</time>
      </trkpt>
      <trkpt lat="44.72273" lon="5.01721">
        <ele>201.7</ele>
        <time>2024-05-17T09:02:46Z</time>
      </trkpt>
      <trkpt lat="44.72268" lon="5.01709">
        <ele>201.1</ele>
        <time>2024-05-17T09:02:47Z</time>
      </trkpt>
      <trkpt lat="44.72263" lon="5.01697">
        <ele>200.5</ele>
        <time>2024-05-17T09:02:48Z</time>
      </trkpt>
      <trkpt lat="44.72256" lon="5.01679">
        <ele>199.6</ele>
        <time>2024-05-17T09:02:49Z</time>
      </trkpt>
      <trkpt lat="44.72254" lon="5.01673">
        <ele>199.3</ele>
        <time>2024-05-17T09:02:50Z</time>
      </trkpt>
      <trkpt lat="44.72249" lon="5.01661">
        <ele>198.9</ele>
        <time>2024-05-17T09:02:51Z</time>
      </trkpt>
      <trkpt lat="44.72244" lon="5.01649">
        <ele>198.4</ele>
        <time>2024-05-17T09:02:52Z</time>
      </trkpt>
      <trkpt lat="44.72237" lon="5.01631">
        <ele>197.9</ele>
        <time>2024-05-17T09:02:53Z</time>
      </trkpt>
      <trkpt lat="44.72235" lon="5.01624">
        <ele>197.7</ele>
        <time>2024-05-17T09:02:54Z</time>
      </trkpt>
      <trkpt lat="44.72228" lon="5.01607">
        <ele>197.5</ele>
        <time>2024-05-17T09:02:55Z</time>
      </trkpt>
      <trkpt lat="44.72226" lon="5.01601">
        <ele>197.4</ele>
        <time>2024-05-17T09:02:56Z</time>
      </trkpt>
      <trkpt lat="44.72222" lon="5.01589">
        <ele>197.3</ele>
        <time>2024-05-17T09:02:57Z</time>
      </trkpt>
      <trkpt lat="44.72217" lon="5.01579">
        <ele>197.3</ele>
        <time>2024-05-17T09:02:58Z</time>
      </trkpt>
      <trkpt lat="44.72209" lon="5.01564">
        <ele>197.9</ele>
        <time>2024-05-17T09:02:59Z</time>
      </trkpt>
      <trkpt lat="44.72207" lon="5.0156">
        <ele>198</ele>
        <time>2024-05-17T09:03:00Z</time>
      </trkpt>
      <trkpt lat="44.72202" lon="5.01551">
        <ele>198.3</ele>
        <time>2024-05-17T09:03:01Z</time>
      </trkpt>
      <trkpt lat="44.72195" lon="5.0154">
        <ele>198.6</ele>
        <time>2024-05-17T09:03:02Z</time>
      </trkpt>
      <trkpt lat="44.72193" lon="5.01536">
        <ele>198.7</ele>
        <time>2024-05-17T09:03:03Z</time>
      </trkpt>
      <trkpt lat="44.72187" lon="5.01526">
        <ele>199</ele>
        <time>2024-05-17T09:03:04Z</time>
      </trkpt>
      <trkpt lat="44.72185" lon="5.01523">
        <ele>199.1</ele>
        <time>2024-05-17T09:03:05Z</time>
      </trkpt>
      <trkpt lat="44.7218" lon="5.01516">
        <ele>199.4</ele>
        <time>2024-05-17T09:03:06Z</time>
      </trkpt>
      <trkpt lat="44.72176" lon="5.0151">
        <ele>199.6</ele>
        <time>2024-05-17T09:03:07Z</time>
      </trkpt>
      <trkpt lat="44.72171" lon="5.01502">
        <ele>200</ele>
        <time>2024-05-17T09:03:08Z</time>
      </trkpt>
      <trkpt lat="44.72169" lon="5.015">
        <ele>200.1</ele>
        <time>2024-05-17T09:03:09Z</time>
      </trkpt>
      <trkpt lat="44.72163" lon="5.01492">
        <ele>200.4</ele>
        <time>2024-05-17T09:03:10Z</time>
      </trkpt>
      <trkpt lat="44.72161" lon="5.01489">
        <ele>200.5</ele>
        <time>2024-05-17T09:03:11Z</time>
      </trkpt>
      <trkpt lat="44.72158" lon="5.01483">
        <ele>200.8</ele>
        <time>2024-05-17T09:03:12Z</time>
      </trkpt>
      <trkpt lat="44.72154" lon="5.01478">
        <ele>201</ele>
        <time>2024-05-17T09:03:13Z</time>
      </trkpt>
      <trkpt lat="44.72151" lon="5.01473">
        <ele>201.1</ele>
        <time>2024-05-17T09:03:14Z</time>
      </trkpt>
      <trkpt lat="44.72147" lon="5.01467">
        <ele>201.3</ele>
        <time>2024-05-17T09:03:15Z</time>
      </trkpt>
      <trkpt lat="44.72143" lon="5.01462">
        <ele>201.5</ele>
        <time>2024-05-17T09:03:16Z</time>
      </trkpt>
      <trkpt lat="44.72139" lon="5.01458">
        <ele>201.7</ele>
        <time>2024-05-17T09:03:17Z</time>
      </trkpt>
      <trkpt lat="44.72134" lon="5.0145">
        <ele>201.9</ele>
        <time>2024-05-17T09:03:18Z</time>
      </trkpt>
      <trkpt lat="44.72132" lon="5.01448">
        <ele>202</ele>
        <time>2024-05-17T09:03:19Z</time>
      </trkpt>
      <trkpt lat="44.72127" lon="5.01441">
        <ele>202.3</ele>
        <time>2024-05-17T09:03:20Z</time>
      </trkpt>
      <trkpt lat="44.72125" lon="5.01438">
        <ele>202.4</ele>
        <time>2024-05-17T09:03:21Z</time>
      </trkpt>
      <trkpt lat="44.72121" lon="5.01434">
        <ele>202.6</ele>
        <time>2024-05-17T09:03:22Z</time>
      </trkpt>
      <trkpt lat="44.72116" lon="5.01427">
        <ele>202.8</ele>
        <time>2024-05-17T09:03:23Z</time>
      </trkpt>
      <trkpt lat="44.72114" lon="5.01425">
        <ele>202.9</ele>
        <time>2024-05-17T09:03:24Z</time>
      </trkpt>
      <trkpt lat="44.72108" lon="5.01418">
        <ele>203.1</ele>
        <time>2024-05-17T09:03:25Z</time>
      </trkpt>
      <trkpt lat="44.72106" lon="5.01416">
        <ele>203.2</ele>
        <time>2024-05-17T09:03:26Z</time>
      </trkpt>
      <trkpt lat="44.721" lon="5.01409">
        <ele>203.4</ele>
        <time>2024-05-17T09:03:27Z</time>
      </trkpt>
      <trkpt lat="44.72098" lon="5.01407">
        <ele>203.5</ele>
        <time>2024-05-17T09:03:28Z</time>
      </trkpt>
      <trkpt lat="44.72095" lon="5.01402">
        <ele>203.7</ele>
        <time>2024-05-17T09:03:29Z</time>
      </trkpt>
      <trkpt lat="44.72091" lon="5.01398">
        <ele>203.8</ele>
        <time>2024-05-17T09:03:30Z</time>
      </trkpt>
      <trkpt lat="44.72087" lon="5.01394">
        <ele>203.9</ele>
        <time>2024-05-17T09:03:31Z</time>
      </trkpt>
      <trkpt lat="44.72084" lon="5.0139">
        <ele>204.1</ele>
        <time>2024-05-17T09:03:32Z</time>
      </trkpt>
      <trkpt lat="44.72081" lon="5.01386">
        <ele>204.2</ele>
        <time>2024-05-17T09:03:33Z</time>
      </trkpt>
      <trkpt lat="44.72077" lon="5.01382">
        <ele>204.3</ele>
        <time>2024-05-17T09:03:34Z</time>
      </trkpt>
      <trkpt lat="44.72073" lon="5.01377">
        <ele>204.5</ele>
        <time>2024-05-17T09:03:35Z</time>
      </trkpt>
      <trkpt lat="44.72071" lon="5.01375">
        <ele>204.6</ele>
        <time>2024-05-17T09:03:36Z</time>
      </trkpt>
      <trkpt lat="44.72066" lon="5.01369">
        <ele>204.8</ele>
        <time>2024-05-17T09:03:37Z</time>
      </trkpt>
      <trkpt lat="44.72065" lon="5.01367">
        <ele>204.8</ele>
        <time>2024-05-17T09:03:38Z</time>
      </trkpt>
      <trkpt lat="44.7206" lon="5.01361">
        <ele>204.9</ele>
        <time>2024-05-17T09:03:39Z</time>
      </trkpt>
      <trkpt lat="44.72059" lon="5.01359">
        <ele>205</ele>
        <time>2024-05-17T09:03:40Z</time>
      </trkpt>
      <trkpt lat="44.72054" lon="5.01353">
        <ele>205.1</ele>
        <time>2024-05-17T09:03:41Z</time>
      </trkpt>
      <trkpt lat="44.72052" lon="5.01351">
        <ele>205.1</ele>
        <time>2024-05-17T09:03:42Z</time>
      </trkpt>
      <trkpt lat="44.72049" lon="5.01347">
        <ele>205.2</ele>
        <time>2024-05-17T09:03:43Z</time>
      </trkpt>
      <trkpt lat="44.72045" lon="5.01343">
        <ele>205.3</ele>
        <time>2024-05-17T09:03:44Z</time>
      </trkpt>
      <trkpt lat="44.72042" lon="5.01339">
        <ele>205.4</ele>
        <time>2024-05-17T09:03:45Z</time>
      </trkpt>
      <trkpt lat="44.72039" lon="5.01335">
        <ele>205.5</ele>
        <time>2024-05-17T09:03:46Z</time>
      </trkpt>
      <trkpt lat="44.72034" lon="5.01329">
        <ele>205.6</ele>
        <time>2024-05-17T09:03:47Z</time>
      </trkpt>
      <trkpt lat="44.72032" lon="5.01327">
        <ele>205.7</ele>
        <time>2024-05-17T09:03:48Z</time>
      </trkpt>
      <trkpt lat="44.72029" lon="5.01323">
        <ele>205.8</ele>
        <time>2024-05-17T09:03:49Z</time>
      </trkpt>
      <trkpt lat="44.72025" lon="5.01319">
        <ele>205.9</ele>
        <time>2024-05-17T09:03:50Z</time>
      </trkpt>
      <trkpt lat="44.72022" lon="5.01315">
        <ele>205.9</ele>
        <time>2024-05-17T09:03:51Z</time>
      </trkpt>
      <trkpt lat="44.72019" lon="5.01311">
        <ele>206</ele>
        <time>2024-05-17T09:03:52Z</time>
      </trkpt>
      <trkpt lat="44.72014" lon="5.01305">
        <ele>206.2</ele>
        <time>2024-05-17T09:03:53Z</time>
      </trkpt>
      <trkpt lat="44.72012" lon="5.01303">
        <ele>206.2</ele>
        <time>2024-05-17T09:03:54Z</time>
      </trkpt>
      <trkpt lat="44.72009" lon="5.01299">
        <ele>206.3</ele>
        <time>2024-05-17T09:03:55Z</time>
      </trkpt>
      <trkpt lat="44.72006" lon="5.01295">
        <ele>206.4</ele>
        <time>2024-05-17T09:03:56Z</time>
      </trkpt>
      <trkpt lat="44.72002" lon="5.01292">
        <ele>206.5</ele>
        <time>2024-05-17T09:03:57Z</time>
      </trkpt>
      <trkpt lat="44.71999" lon="5.01288">
        <ele>206.6</ele>
        <time>2024-05-17T09:03:58Z</time>
      </trkpt>
      <trkpt lat="44.71996" lon="5.01284">
        <ele>206.7</ele>
        <time>2024-05-17T09:03:59Z</time>
      </trkpt>
      <trkpt lat="44.71993" lon="5.01281">
        <ele>206.8</ele>
        <time>2024-05-17T09:04:00Z</time>
      </trkpt>
      <trkpt lat="44.71987" lon="5.01276">
        <ele>207</ele>
        <time>2024-05-17T09:04:01Z</time>
      </trkpt>
      <trkpt lat="44.71986" lon="5.01274">
        <ele>207</ele>
        <time>2024-05-17T09:04:02Z</time>
      </trkpt>
      <trkpt lat="44.71981" lon="5.0127">
        <ele>207.2</ele>
        <time>2024-05-17T09:04:03Z</time>
      </trkpt>
      <trkpt lat="44.71979" lon="5.01268">
        <ele>207.2</ele>
        <time>2024-05-17T09:04:04Z</time>
      </trkpt>
      <trkpt lat="44.71974" lon="5.01263">
        <ele>207.4</ele>
        <time>2024-05-17T09:04:05Z</time>
      </trkpt>
      <trkpt lat="44.71972" lon="5.01261">
        <ele>207.4</ele>
        <time>2024-05-17T09:04:06Z</time>
      </trkpt>
      <trkpt lat="44.71967" lon="5.01256">
        <ele>207.6</ele>
        <time>2024-05-17T09:04:07Z</time>
      </trkpt>
      <trkpt lat="44.71965" lon="5.01255">
        <ele>207.6</ele>
        <time>2024-05-17T09:04:08Z</time>
      </trkpt>
      <trkpt lat="44.71961" lon="5.01251">
        <ele>207.7</ele>
        <time>2024-05-17T09:04:09Z</time>
      </trkpt>
      <trkpt lat="44.71957" lon="5.01248">
        <ele>207.9</ele>
        <time>2024-05-17T09:04:10Z</time>
      </trkpt>
      <trkpt lat="44.71953" lon="5.01244">
        <ele>208</ele>
        <time>2024-05-17T09:04:11Z</time>
      </trkpt>
      <trkpt lat="44.7195" lon="5.01241">
        <ele>208.1</ele>
        <time>2024-05-17T09:04:12Z</time>
      </trkpt>
      <trkpt lat="44.71946" lon="5.01238">
        <ele>208.2</ele>
        <time>2024-05-17T09:04:13Z</time>
      </trkpt>
      <trkpt lat="44.71942" lon="5.01235">
        <ele>208.3</ele>
        <time>2024-05-17T09:04:14Z</time>
      </trkpt>
      <trkpt lat="44.71939" lon="5.01231">
        <ele>208.4</ele>
        <time>2024-05-17T09:04:15Z</time>
      </trkpt>
      <trkpt lat="44.71935" lon="5.01228">
        <ele>208.5</ele>
        <time>2024-05-17T09:04:16Z</time>
      </trkpt>
      <trkpt lat="44.71931" lon="5.01224">
        <ele>208.6</ele>
        <time>2024-05-17T09:04:17Z</time>
      </trkpt>
      <trkpt lat="44.71927" lon="5.01221">
        <ele>208.7</ele>
        <time>2024-05-17T09:04:18Z</time>
      </trkpt>
      <trkpt lat="44.71922" lon="5.01216">
        <ele>208.9</ele>
        <time>2024-05-17T09:04:19Z</time>
      </trkpt>
      <trkpt lat="44.7192" lon="5.01214">
        <ele>208.9</ele>
        <time>2024-05-17T09:04:20Z</time>
      </trkpt>
      <trkpt lat="44.71914" lon="5.01209">
        <ele>209.1</ele>
        <time>2024-05-17T09:04:21Z</time>
      </trkpt>
      <trkpt lat="44.71912" lon="5.01207">
        <ele>209.1</ele>
        <time>2024-05-17T09:04:22Z</time>
      </trkpt>
      <trkpt lat="44.71907" lon="5.01202">
        <ele>209.3</ele>
        <time>2024-05-17T09:04:23Z</time>
      </trkpt>
      <trkpt lat="44.71905" lon="5.01201">
        <ele>209.3</ele>
        <time>2024-05-17T09:04:24Z</time>
      </trkpt>
      <trkpt lat="44.71901" lon="5.01197">
        <ele>209.4</ele>
        <time>2024-05-17T09:04:25Z</time>
      </trkpt>
      <trkpt lat="44.71898" lon="5.01194">
        <ele>209.5</ele>
        <time>2024-05-17T09:04:26Z</time>
      </trkpt>
      <trkpt lat="44.71894" lon="5.0119">
        <ele>209.6</ele>
        <time>2024-05-17T09:04:27Z</time>
      </trkpt>
      <trkpt lat="44.71889" lon="5.01185">
        <ele>209.8</ele>
        <time>2024-05-17T09:04:28Z</time>
      </trkpt>
      <trkpt lat="44.71887" lon="5.01183">
        <ele>209.8</ele>
        <time>2024-05-17T09:04:29Z</time>
      </trkpt>
      <trkpt lat="44.71881" lon="5.01178">
        <ele>210</ele>
        <time>2024-05-17T09:04:30Z</time>
      </trkpt>
      <trkpt lat="44.71879" lon="5.01176">
        <ele>210</ele>
        <time>2024-05-17T09:04:31Z</time>
      </trkpt>
      <trkpt lat="44.71874" lon="5.01171">
        <ele>210.1</ele>
        <time>2024-05-17T09:04:32Z</time>
      </trkpt>
      <trkpt lat="44.71872" lon="5.01169">
        <ele>210.2</ele>
        <time>2024-05-17T09:04:33Z</time>
      </trkpt>
      <trkpt lat="44.71869" lon="5.01166">
        <ele>210.3</ele>
        <time>2024-05-17T09:04:34Z</time>
      </trkpt>
      <trkpt lat="44.71865" lon="5.01162">
        <ele>210.4</ele>
        <time>2024-05-17T09:04:35Z</time>
      </trkpt>
      <trkpt lat="44.71859" lon="5.01157">
        <ele>210.5</ele>
        <time>2024-05-17T09:04:36Z</time>
      </trkpt>
      <trkpt lat="44.71858" lon="5.01155">
        <ele>210.5</ele>
        <time>2024-05-17T09:04:37Z</time>
      </trkpt>
      <trkpt lat="44.71854" lon="5.01152">
        <ele>210.6</ele>
        <time>2024-05-17T09:04:38Z</time>
      </trkpt>
      <trkpt lat="44.7185" lon="5.01149">
        <ele>210.7</ele>
        <time>2024-05-17T09:04:39Z</time>
      </trkpt>
      <trkpt lat="44.71847" lon="5.01145">
        <ele>210.8</ele>
        <time>2024-05-17T09:04:40Z</time>
      </trkpt>
      <trkpt lat="44.71843" lon="5.01143">
        <ele>210.9</ele>
        <time>2024-05-17T09:04:41Z</time>
      </trkpt>
      <trkpt lat="44.71837" lon="5.01139">
        <ele>211</ele>
        <time>2024-05-17T09:04:42Z</time>
      </trkpt>
      <trkpt lat="44.71836" lon="5.01138">
        <ele>211</ele>
        <time>2024-05-17T09:04:43Z</time>
      </trkpt>
      <trkpt lat="44.7183" lon="5.01134">
        <ele>211.1</ele>
        <time>2024-05-17T09:04:44Z</time>
      </trkpt>
      <trkpt lat="44.71828" lon="5.01133">
        <ele>211.2</ele>
        <time>2024-05-17T09:04:45Z</time>
      </trkpt>
      <trkpt lat="44.71824" lon="5.0113">
        <ele>211.2</ele>
        <time>2024-05-17T09:04:46Z</time>
      </trkpt>
      <trkpt lat="44.7182" lon="5.01128">
        <ele>211.3</ele>
        <time>2024-05-17T09:04:47Z</time>
      </trkpt>
      <trkpt lat="44.71814" lon="5.01124">
        <ele>211.4</ele>
        <time>2024-05-17T09:04:48Z</time>
      </trkpt>
      <trkpt lat="44.71812" lon="5.01123">
        <ele>211.4</ele>
        <time>2024-05-17T09:04:49Z</time>
      </trkpt>
      <trkpt lat="44.71806" lon="5.01118">
        <ele>211.6</ele>
        <time>2024-05-17T09:04:50Z</time>
      </trkpt>
      <trkpt lat="44.71803" lon="5.01117">
        <ele>211.6</ele>
        <time>2024-05-17T09:04:51Z</time>
      </trkpt>
      <trkpt lat="44.71797" lon="5.01112">
        <ele>211.7</ele>
        <time>2024-05-17T09:04:52Z</time>
      </trkpt>
      <trkpt lat="44.71795" lon="5.01111">
        <ele>211.8</ele>
        <time>2024-05-17T09:04:53Z</time>
      </trkpt>
      <trkpt lat="44.71791" lon="5.01108">
        <ele>211.8</ele>
        <time>2024-05-17T09:04:54Z</time>
      </trkpt>
      <trkpt lat="44.71787" lon="5.01106">
        <ele>211.9</ele>
        <time>2024-05-17T09:04:55Z</time>
      </trkpt>
      <trkpt lat="44.71782" lon="5.01103">
        <ele>211.9</ele>
        <time>2024-05-17T09:04:56Z</time>
      </trkpt>
      <trkpt lat="44.71778" lon="5.01101">
        <ele>212</ele>
        <time>2024-05-17T09:04:57Z</time>
      </trkpt>
      <trkpt lat="44.71774" lon="5.01098">
        <ele>212.1</ele>
        <time>2024-05-17T09:04:58Z</time>
      </trkpt>
      <trkpt lat="44.7177" lon="5.01095">
        <ele>212.1</ele>
        <time>2024-05-17T09:04:59Z</time>
      </trkpt>
      <trkpt lat="44.71765" lon="5.01093">
        <ele>212.2</ele>
        <time>2024-05-17T09:05:00Z</time>
      </trkpt>
      <trkpt lat="44.71761" lon="5.0109">
        <ele>212.2</ele>
        <time>2024-05-17T09:05:01Z</time>
      </trkpt>
      <trkpt lat="44.71754" lon="5.01085">
        <ele>212.3</ele>
        <time>2024-05-17T09:05:02Z</time>
      </trkpt>
      <trkpt lat="44.71752" lon="5.01084">
        <ele>212.4</ele>
        <time>2024-05-17T09:05:03Z</time>
      </trkpt>
      <trkpt lat="44.71747" lon="5.01082">
        <ele>212.4</ele>
        <time>2024-05-17T09:05:04Z</time>
      </trkpt>
      <trkpt lat="44.7174" lon="5.01078">
        <ele>212.5</ele>
        <time>2024-05-17T09:05:05Z</time>
      </trkpt>
      <trkpt lat="44.71738" lon="5.01076">
        <ele>212.5</ele>
        <time>2024-05-17T09:05:06Z</time>
      </trkpt>
      <trkpt lat="44.71734" lon="5.01073">
        <ele>212.5</ele>
        <time>2024-05-17T09:05:07Z</time>
      </trkpt>
      <trkpt lat="44.71729" lon="5.01071">
        <ele>212.6</ele>
        <time>2024-05-17T09:05:08Z</time>
      </trkpt>
      <trkpt lat="44.71725" lon="5.01068">
        <ele>212.6</ele>
        <time>2024-05-17T09:05:09Z</time>
      </trkpt>
      <trkpt lat="44.7172" lon="5.01065">
        <ele>212.7</ele>
        <time>2024-05-17T09:05:10Z</time>
      </trkpt>
      <trkpt lat="44.71715" lon="5.01062">
        <ele>212.7</ele>
        <time>2024-05-17T09:05:11Z</time>
      </trkpt>
      <trkpt lat="44.71711" lon="5.01059">
        <ele>212.7</ele>
        <time>2024-05-17T09:05:12Z</time>
      </trkpt>
      <trkpt lat="44.71704" lon="5.01054">
        <ele>212.8</ele>
        <time>2024-05-17T09:05:13Z</time>
      </trkpt>
      <trkpt lat="44.71702" lon="5.01052">
        <ele>212.8</ele>
        <time>2024-05-17T09:05:14Z</time>
      </trkpt>
      <trkpt lat="44.71697" lon="5.01049">
        <ele>212.9</ele>
        <time>2024-05-17T09:05:15Z</time>
      </trkpt>
      <trkpt lat="44.71692" lon="5.01046">
        <ele>212.9</ele>
        <time>2024-05-17T09:05:16Z</time>
      </trkpt>
      <trkpt lat="44.71688" lon="5.01043">
        <ele>213</ele>
        <time>2024-05-17T09:05:17Z</time>
      </trkpt>
      <trkpt lat="44.71684" lon="5.01039">
        <ele>213</ele>
        <time>2024-05-17T09:05:18Z</time>
      </trkpt>
      <trkpt lat="44.71677" lon="5.01034">
        <ele>213.1</ele>
        <time>2024-05-17T09:05:19Z</time>
      </trkpt>
      <trkpt lat="44.71674" lon="5.01033">
        <ele>213.1</ele>
        <time>2024-05-17T09:05:20Z</time>
      </trkpt>
      <trkpt lat="44.7167" lon="5.0103">
        <ele>213.2</ele>
        <time>2024-05-17T09:05:21Z</time>
      </trkpt>
      <trkpt lat="44.71665" lon="5.01026">
        <ele>213.2</ele>
        <time>2024-05-17T09:05:22Z</time>
      </trkpt>
      <trkpt lat="44.7166" lon="5.01023">
        <ele>213.2</ele>
        <time>2024-05-17T09:05:23Z</time>
      </trkpt>
      <trkpt lat="44.71656" lon="5.01019">
        <ele>213.3</ele>
        <time>2024-05-17T09:05:24Z</time>
      </trkpt>
      <trkpt lat="44.71651" lon="5.01016">
        <ele>213.3</ele>
        <time>2024-05-17T09:05:25Z</time>
      </trkpt>
      <trkpt lat="44.71647" lon="5.01012">
        <ele>213.4</ele>
        <time>2024-05-17T09:05:26Z</time>
      </trkpt>
      <trkpt lat="44.71641" lon="5.01006">
        <ele>213.4</ele>
        <time>2024-05-17T09:05:27Z</time>
      </trkpt>
      <trkpt lat="44.71638" lon="5.01005">
        <ele>213.4</ele>
        <time>2024-05-17T09:05:28Z</time>
      </trkpt>
      <trkpt lat="44.71632" lon="5.00999">
        <ele>213.5</ele>
        <time>2024-05-17T09:05:29Z</time>
      </trkpt>
      <trkpt lat="44.7163" lon="5.00997">
        <ele>213.5</ele>
        <time>2024-05-17T09:05:30Z</time>
      </trkpt>
      <trkpt lat="44.71624" lon="5.00991">
        <ele>213.5</ele>
        <time>2024-05-17T09:05:31Z</time>
      </trkpt>
      <trkpt lat="44.71622" lon="5.00989">
        <ele>213.6</ele>
        <time>2024-05-17T09:05:32Z</time>
      </trkpt>
      <trkpt lat="44.71616" lon="5.00983">
        <ele>213.6</ele>
        <time>2024-05-17T09:05:33Z</time>
      </trkpt>
      <trkpt lat="44.71614" lon="5.00981">
        <ele>213.6</ele>
        <time>2024-05-17T09:05:34Z</time>
      </trkpt>
      <trkpt lat="44.71608" lon="5.00975">
        <ele>213.7</ele>
        <time>2024-05-17T09:05:35Z</time>
      </trkpt>
      <trkpt lat="44.71606" lon="5.00973">
        <ele>213.7</ele>
        <time>2024-05-17T09:05:36Z</time>
      </trkpt>
      <trkpt lat="44.71602" lon="5.00969">
        <ele>213.7</ele>
        <time>2024-05-17T09:05:37Z</time>
      </trkpt>
      <trkpt lat="44.71598" lon="5.00964">
        <ele>213.8</ele>
        <time>2024-05-17T09:05:38Z</time>
      </trkpt>
      <trkpt lat="44.71594" lon="5.0096">
        <ele>213.8</ele>
        <time>2024-05-17T09:05:39Z</time>
      </trkpt>
      <trkpt lat="44.7159" lon="5.00956">
        <ele>213.9</ele>
        <time>2024-05-17T09:05:40Z</time>
      </trkpt>
      <trkpt lat="44.71585" lon="5.00953">
        <ele>213.9</ele>
        <time>2024-05-17T09:05:41Z</time>
      </trkpt>
      <trkpt lat="44.71581" lon="5.0095">
        <ele>214</ele>
        <time>2024-05-17T09:05:42Z</time>
      </trkpt>
      <trkpt lat="44.71577" lon="5.00946">
        <ele>214</ele>
        <time>2024-05-17T09:05:43Z</time>
      </trkpt>
      <trkpt lat="44.71571" lon="5.00939">
        <ele>214.1</ele>
        <time>2024-05-17T09:05:44Z</time>
      </trkpt>
      <trkpt lat="44.71568" lon="5.00937">
        <ele>214.1</ele>
        <time>2024-05-17T09:05:45Z</time>
      </trkpt>
      <trkpt lat="44.71564" lon="5.00933">
        <ele>214.2</ele>
        <time>2024-05-17T09:05:46Z</time>
      </trkpt>
      <trkpt lat="44.71558" lon="5.00926">
        <ele>214.3</ele>
        <time>2024-05-17T09:05:47Z</time>
      </trkpt>
      <trkpt lat="44.71556" lon="5.00924">
        <ele>214.3</ele>
        <time>2024-05-17T09:05:48Z</time>
      </trkpt>
      <trkpt lat="44.7155" lon="5.00917">
        <ele>214.4</ele>
        <time>2024-05-17T09:05:49Z</time>
      </trkpt>
      <trkpt lat="44.71548" lon="5.00915">
        <ele>214.4</ele>
        <time>2024-05-17T09:05:50Z</time>
      </trkpt>
      <trkpt lat="44.71544" lon="5.0091">
        <ele>214.5</ele>
        <time>2024-05-17T09:05:51Z</time>
      </trkpt>
      <trkpt lat="44.71539" lon="5.00906">
        <ele>214.5</ele>
        <time>2024-05-17T09:05:52Z</time>
      </trkpt>
      <trkpt lat="44.71535" lon="5.00902">
        <ele>214.6</ele>
        <time>2024-05-17T09:05:53Z</time>
      </trkpt>
      <trkpt lat="44.71531" lon="5.00898">
        <ele>214.6</ele>
        <time>2024-05-17T09:05:54Z</time>
      </trkpt>
      <trkpt lat="44.71527" lon="5.00894">
        <ele>214.6</ele>
        <time>2024-05-17T09:05:55Z</time>
      </trkpt>
      <trkpt lat="44.7152" lon="5.00888">
        <ele>214.7</ele>
        <time>2024-05-17T09:05:56Z</time>
      </trkpt>
      <trkpt lat="44.71518" lon="5.00886">
        <ele>214.7</ele>
        <time>2024-05-17T09:05:57Z</time>
      </trkpt>
      <trkpt lat="44.71512" lon="5.00879">
        <ele>214.7</ele>
        <time>2024-05-17T09:05:58Z</time>
      </trkpt>
      <trkpt lat="44.7151" lon="5.00877">
        <ele>214.7</ele>
        <time>2024-05-17T09:05:59Z</time>
      </trkpt>
      <trkpt lat="44.71506" lon="5.00873">
        <ele>214.7</ele>
        <time>2024-05-17T09:06:00Z</time>
      </trkpt>
      <trkpt lat="44.71502" lon="5.00869">
        <ele>214.8</ele>
        <time>2024-05-17T09:06:01Z</time>
      </trkpt>
      <trkpt lat="44.71495" lon="5.00862">
        <ele>214.8</ele>
        <time>2024-05-17T09:06:02Z</time>
      </trkpt>
      <trkpt lat="44.71493" lon="5.0086">
        <ele>214.9</ele>
        <time>2024-05-17T09:06:03Z</time>
      </trkpt>
      <trkpt lat="44.71489" lon="5.00856">
        <ele>214.9</ele>
        <time>2024-05-17T09:06:04Z</time>
      </trkpt>
      <trkpt lat="44.71485" lon="5.00851">
        <ele>214.9</ele>
        <time>2024-05-17T09:06:05Z</time>
      </trkpt>
      <trkpt lat="44.7148" lon="5.00847">
        <ele>215</ele>
        <time>2024-05-17T09:06:06Z</time>
      </trkpt>
      <trkpt lat="44.71476" lon="5.00843">
        <ele>215</ele>
        <time>2024-05-17T09:06:07Z</time>
      </trkpt>
      <trkpt lat="44.71472" lon="5.00839">
        <ele>215.1</ele>
        <time>2024-05-17T09:06:08Z</time>
      </trkpt>
      <trkpt lat="44.71467" lon="5.00835">
        <ele>215.1</ele>
        <time>2024-05-17T09:06:09Z</time>
      </trkpt>
      <trkpt lat="44.7146" lon="5.0083">
        <ele>215.2</ele>
        <time>2024-05-17T09:06:10Z</time>
      </trkpt>
      <trkpt lat="44.71458" lon="5.00828">
        <ele>215.2</ele>
        <time>2024-05-17T09:06:11Z</time>
      </trkpt>
      <trkpt lat="44.71451" lon="5.00823">
        <ele>215.3</ele>
        <time>2024-05-17T09:06:12Z</time>
      </trkpt>
      <trkpt lat="44.71449" lon="5.00821">
        <ele>215.3</ele>
        <time>2024-05-17T09:06:13Z</time>
      </trkpt>
      <trkpt lat="44.71443" lon="5.00815">
        <ele>215.4</ele>
        <time>2024-05-17T09:06:14Z</time>
      </trkpt>
      <trkpt lat="44.71441" lon="5.00814">
        <ele>215.4</ele>
        <time>2024-05-17T09:06:15Z</time>
      </trkpt>
      <trkpt lat="44.71434" lon="5.00809">
        <ele>215.5</ele>
        <time>2024-05-17T09:06:16Z</time>
      </trkpt>
      <trkpt lat="44.71432" lon="5.00808">
        <ele>215.6</ele>
        <time>2024-05-17T09:06:17Z</time>
      </trkpt>
      <trkpt lat="44.71425" lon="5.00804">
        <ele>215.6</ele>
        <time>2024-05-17T09:06:18Z</time>
      </trkpt>
      <trkpt lat="44.71422" lon="5.00803">
        <ele>215.7</ele>
        <time>2024-05-17T09:06:19Z</time>
      </trkpt>
      <trkpt lat="44.71418" lon="5.008">
        <ele>215.7</ele>
        <time>2024-05-17T09:06:20Z</time>
      </trkpt>
      <trkpt lat="44.71413" lon="5.00798">
        <ele>215.8</ele>
        <time>2024-05-17T09:06:21Z</time>
      </trkpt>
      <trkpt lat="44.71408" lon="5.00795">
        <ele>215.9</ele>
        <time>2024-05-17T09:06:22Z</time>
      </trkpt>
      <trkpt lat="44.71404" lon="5.00793">
        <ele>215.9</ele>
        <time>2024-05-17T09:06:23Z</time>
      </trkpt>
      <trkpt lat="44.71399" lon="5.00791">
        <ele>216</ele>
        <time>2024-05-17T09:06:24Z</time>
      </trkpt>
      <trkpt lat="44.71394" lon="5.00788">
        <ele>216</ele>
        <time>2024-05-17T09:06:25Z</time>
      </trkpt>
      <trkpt lat="44.71389" lon="5.00786">
        <ele>216.1</ele>
        <time>2024-05-17T09:06:26Z</time>
      </trkpt>
      <trkpt lat="44.71384" lon="5.00783">
        <ele>216.1</ele>
        <time>2024-05-17T09:06:27Z</time>
      </trkpt>
      <trkpt lat="44.71377" lon="5.0078">
        <ele>216.2</ele>
        <time>2024-05-17T09:06:28Z</time>
      </trkpt>
      <trkpt lat="44.71375" lon="5.00778">
        <ele>216.2</ele>
        <time>2024-05-17T09:06:29Z</time>
      </trkpt>
      <trkpt lat="44.71368" lon="5.00775">
        <ele>216.3</ele>
        <time>2024-05-17T09:06:30Z</time>
      </trkpt>
      <trkpt lat="44.71365" lon="5.00774">
        <ele>216.3</ele>
        <time>2024-05-17T09:06:31Z</time>
      </trkpt>
      <trkpt lat="44.7136" lon="5.00771">
        <ele>216.3</ele>
        <time>2024-05-17T09:06:32Z</time>
      </trkpt>
      <trkpt lat="44.71356" lon="5.00768">
        <ele>216.4</ele>
        <time>2024-05-17T09:06:33Z</time>
      </trkpt>
      <trkpt lat="44.71349" lon="5.00765">
        <ele>216.5</ele>
        <time>2024-05-17T09:06:34Z</time>
      </trkpt>
      <trkpt lat="44.71346" lon="5.00763">
        <ele>216.5</ele>
        <time>2024-05-17T09:06:35Z</time>
      </trkpt>
      <trkpt lat="44.71339" lon="5.0076">
        <ele>216.6</ele>
        <time>2024-05-17T09:06:36Z</time>
      </trkpt>
      <trkpt lat="44.71337" lon="5.00758">
        <ele>216.6</ele>
        <time>2024-05-17T09:06:37Z</time>
      </trkpt>
      <trkpt lat="44.71332" lon="5.00756">
        <ele>216.7</ele>
        <time>2024-05-17T09:06:38Z</time>
      </trkpt>
      <trkpt lat="44.71325" lon="5.00752">
        <ele>216.9</ele>
        <time>2024-05-17T09:06:39Z</time>
      </trkpt>
      <trkpt lat="44.71323" lon="5.00751">
        <ele>216.9</ele>
        <time>2024-05-17T09:06:40Z</time>
      </trkpt>
      <trkpt lat="44.71316" lon="5.00747">
        <ele>217</ele>
        <time>2024-05-17T09:06:41Z</time>
      </trkpt>
      <trkpt lat="44.71314" lon="5.00746">
        <ele>217.1</ele>
        <time>2024-05-17T09:06:42Z</time>
      </trkpt>
      <trkpt lat="44.71309" lon="5.00743">
        <ele>217.2</ele>
        <time>2024-05-17T09:06:43Z</time>
      </trkpt>
      <trkpt lat="44.71305" lon="5.00741">
        <ele>217.2</ele>
        <time>2024-05-17T09:06:44Z</time>
      </trkpt>
      <trkpt lat="44.713" lon="5.00739">
        <ele>217.3</ele>
        <time>2024-05-17T09:06:45Z</time>
      </trkpt>
      <trkpt lat="44.71295" lon="5.00737">
        <ele>217.4</ele>
        <time>2024-05-17T09:06:46Z</time>
      </trkpt>
      <trkpt lat="44.71291" lon="5.00735">
        <ele>217.4</ele>
        <time>2024-05-17T09:06:47Z</time>
      </trkpt>
      <trkpt lat="44.71286" lon="5.00733">
        <ele>217.5</ele>
        <time>2024-05-17T09:06:48Z</time>
      </trkpt>
      <trkpt lat="44.71282" lon="5.0073">
        <ele>217.5</ele>
        <time>2024-05-17T09:06:49Z</time>
      </trkpt>
      <trkpt lat="44.71277" lon="5.00728">
        <ele>217.6</ele>
        <time>2024-05-17T09:06:50Z</time>
      </trkpt>
      <trkpt lat="44.71272" lon="5.00726">
        <ele>217.6</ele>
        <time>2024-05-17T09:06:51Z</time>
      </trkpt>
      <trkpt lat="44.71268" lon="5.00723">
        <ele>217.7</ele>
        <time>2024-05-17T09:06:52Z</time>
      </trkpt>
      <trkpt lat="44.71261" lon="5.00719">
        <ele>217.8</ele>
        <time>2024-05-17T09:06:53Z</time>
      </trkpt>
      <trkpt lat="44.71259" lon="5.00718">
        <ele>217.9</ele>
        <time>2024-05-17T09:06:54Z</time>
      </trkpt>
      <trkpt lat="44.71252" lon="5.00715">
        <ele>218</ele>
        <time>2024-05-17T09:06:55Z</time>
      </trkpt>
      <trkpt lat="44.7125" lon="5.00713">
        <ele>218.1</ele>
        <time>2024-05-17T09:06:56Z</time>
      </trkpt>
      <trkpt lat="44.71243" lon="5.0071">
        <ele>218.2</ele>
        <time>2024-05-17T09:06:57Z</time>
      </trkpt>
      <trkpt lat="44.7124" lon="5.00709">
        <ele>218.3</ele>
        <time>2024-05-17T09:06:58Z</time>
      </trkpt>
      <trkpt lat="44.71233" lon="5.00706">
        <ele>218.3</ele>
        <time>2024-05-17T09:06:59Z</time>
      </trkpt>
      <trkpt lat="44.71231" lon="5.00705">
        <ele>218.3</ele>
        <time>2024-05-17T09:07:00Z</time>
      </trkpt>
      <trkpt lat="44.71224" lon="5.00701">
        <ele>218.4</ele>
        <time>2024-05-17T09:07:01Z</time>
      </trkpt>
      <trkpt lat="44.71222" lon="5.007">
        <ele>218.4</ele>
        <time>2024-05-17T09:07:02Z</time>
      </trkpt>
      <trkpt lat="44.71217" lon="5.00697">
        <ele>218.4</ele>
        <time>2024-05-17T09:07:03Z</time>
      </trkpt>
      <trkpt lat="44.71213" lon="5.00695">
        <ele>218.5</ele>
        <time>2024-05-17T09:07:04Z</time>
      </trkpt>
      <trkpt lat="44.71208" lon="5.00693">
        <ele>218.5</ele>
        <time>2024-05-17T09:07:05Z</time>
      </trkpt>
      <trkpt lat="44.71204" lon="5.0069">
        <ele>218.6</ele>
        <time>2024-05-17T09:07:06Z</time>
      </trkpt>
      <trkpt lat="44.71199" lon="5.00688">
        <ele>218.6</ele>
        <time>2024-05-17T09:07:07Z</time>
      </trkpt>
      <trkpt lat="44.71194" lon="5.00686">
        <ele>218.7</ele>
        <time>2024-05-17T09:07:08Z</time>
      </trkpt>
      <trkpt lat="44.71189" lon="5.00685">
        <ele>218.8</ele>
        <time>2024-05-17T09:07:09Z</time>
      </trkpt>
      <trkpt lat="44.71185" lon="5.00683">
        <ele>218.8</ele>
        <time>2024-05-17T09:07:10Z</time>
      </trkpt>
      <trkpt lat="44.71177" lon="5.00681">
        <ele>219</ele>
        <time>2024-05-17T09:07:11Z</time>
      </trkpt>
      <trkpt lat="44.71175" lon="5.00681">
        <ele>219</ele>
        <time>2024-05-17T09:07:12Z</time>
      </trkpt>
      <trkpt lat="44.71168" lon="5.00679">
        <ele>219.2</ele>
        <time>2024-05-17T09:07:13Z</time>
      </trkpt>
      <trkpt lat="44.71166" lon="5.00679">
        <ele>219.2</ele>
        <time>2024-05-17T09:07:14Z</time>
      </trkpt>
      <trkpt lat="44.71161" lon="5.00678">
        <ele>219.3</ele>
        <time>2024-05-17T09:07:15Z</time>
      </trkpt>
      <trkpt lat="44.71156" lon="5.00678">
        <ele>219.4</ele>
        <time>2024-05-17T09:07:16Z</time>
      </trkpt>
      <trkpt lat="44.71151" lon="5.00678">
        <ele>219.5</ele>
        <time>2024-05-17T09:07:17Z</time>
      </trkpt>
      <trkpt lat="44.71147" lon="5.00678">
        <ele>219.5</ele>
        <time>2024-05-17T09:07:18Z</time>
      </trkpt>
      <trkpt lat="44.71142" lon="5.00677">
        <ele>219.6</ele>
        <time>2024-05-17T09:07:19Z</time>
      </trkpt>
      <trkpt lat="44.71137" lon="5.00678">
        <ele>219.8</ele>
        <time>2024-05-17T09:07:20Z</time>
      </trkpt>
      <trkpt lat="44.71131" lon="5.00678">
        <ele>219.9</ele>
        <time>2024-05-17T09:07:21Z</time>
      </trkpt>
      <trkpt lat="44.71128" lon="5.00678">
        <ele>220</ele>
        <time>2024-05-17T09:07:22Z</time>
      </trkpt>
      <trkpt lat="44.71124" lon="5.00678">
        <ele>220.1</ele>
        <time>2024-05-17T09:07:23Z</time>
      </trkpt>
      <trkpt lat="44.71119" lon="5.00678">
        <ele>220.2</ele>
        <time>2024-05-17T09:07:24Z</time>
      </trkpt>
      <trkpt lat="44.71112" lon="5.00679">
        <ele>220.4</ele>
        <time>2024-05-17T09:07:25Z</time>
      </trkpt>
      <trkpt lat="44.7111" lon="5.00679">
        <ele>220.5</ele>
        <time>2024-05-17T09:07:26Z</time>
      </trkpt>
      <trkpt lat="44.71103" lon="5.00679">
        <ele>220.7</ele>
        <time>2024-05-17T09:07:27Z</time>
      </trkpt>
      <trkpt lat="44.71101" lon="5.0068">
        <ele>220.8</ele>
        <time>2024-05-17T09:07:28Z</time>
      </trkpt>
      <trkpt lat="44.71095" lon="5.00681">
        <ele>221</ele>
        <time>2024-05-17T09:07:29Z</time>
      </trkpt>
      <trkpt lat="44.71093" lon="5.00681">
        <ele>221</ele>
        <time>2024-05-17T09:07:30Z</time>
      </trkpt>
      <trkpt lat="44.71089" lon="5.00681">
        <ele>221.2</ele>
        <time>2024-05-17T09:07:31Z</time>
      </trkpt>
      <trkpt lat="44.71085" lon="5.00682">
        <ele>221.3</ele>
        <time>2024-05-17T09:07:32Z</time>
      </trkpt>
      <trkpt lat="44.7108" lon="5.00682">
        <ele>221.4</ele>
        <time>2024-05-17T09:07:33Z</time>
      </trkpt>
      <trkpt lat="44.71076" lon="5.00683">
        <ele>221.5</ele>
        <time>2024-05-17T09:07:34Z</time>
      </trkpt>
      <trkpt lat="44.71072" lon="5.00683">
        <ele>221.6</ele>
        <time>2024-05-17T09:07:35Z</time>
      </trkpt>
      <trkpt lat="44.71068" lon="5.00683">
        <ele>221.8</ele>
        <time>2024-05-17T09:07:36Z</time>
      </trkpt>
      <trkpt lat="44.71062" lon="5.00684">
        <ele>221.9</ele>
        <time>2024-05-17T09:07:37Z</time>
      </trkpt>
      <trkpt lat="44.7106" lon="5.00684">
        <ele>222</ele>
        <time>2024-05-17T09:07:38Z</time>
      </trkpt>
      <trkpt lat="44.71054" lon="5.00685">
        <ele>222.1</ele>
        <time>2024-05-17T09:07:39Z</time>
      </trkpt>
      <trkpt lat="44.71052" lon="5.00685">
        <ele>222.2</ele>
        <time>2024-05-17T09:07:40Z</time>
      </trkpt>
      <trkpt lat="44.71045" lon="5.00686">
        <ele>222.3</ele>
        <time>2024-05-17T09:07:41Z</time>
      </trkpt>
      <trkpt lat="44.71043" lon="5.00686">
        <ele>222.4</ele>
        <time>2024-05-17T09:07:42Z</time>
      </trkpt>
      <trkpt lat="44.71037" lon="5.00686">
        <ele>222.5</ele>
        <time>2024-05-17T09:07:43Z</time>
      </trkpt>
      <trkpt lat="44.71035" lon="5.00687">
        <ele>222.6</ele>
        <time>2024-05-17T09:07:44Z</time>
      </trkpt>
      <trkpt lat="44.71031" lon="5.00687">
        <ele>222.7</ele>
        <time>2024-05-17T09:07:45Z</time>
      </trkpt>
      <trkpt lat="44.71027" lon="5.00687">
        <ele>222.8</ele>
        <time>2024-05-17T09:07:46Z</time>
      </trkpt>
      <trkpt lat="44.71022" lon="5.00688">
        <ele>222.9</ele>
        <time>2024-05-17T09:07:47Z</time>
      </trkpt>
      <trkpt lat="44.71018" lon="5.00688">
        <ele>223</ele>
        <time>2024-05-17T09:07:48Z</time>
      </trkpt>
      <trkpt lat="44.71014" lon="5.00689">
        <ele>223.1</ele>
        <time>2024-05-17T09:07:49Z</time>
      </trkpt>
      <trkpt lat="44.7101" lon="5.00689">
        <ele>223.2</ele>
        <time>2024-05-17T09:07:50Z</time>
      </trkpt>
      <trkpt lat="44.71006" lon="5.0069">
        <ele>223.3</ele>
        <time>2024-05-17T09:07:51Z</time>
      </trkpt>
      <trkpt lat="44.71002" lon="5.0069">
        <ele>223.5</ele>
        <time>2024-05-17T09:07:52Z</time>
      </trkpt>
      <trkpt lat="44.70998" lon="5.00691">
        <ele>223.6</ele>
        <time>2024-05-17T09:07:53Z</time>
      </trkpt>
      <trkpt lat="44.70992" lon="5.00692">
        <ele>223.8</ele>
        <time>2024-05-17T09:07:54Z</time>
      </trkpt>
      <trkpt lat="44.7099" lon="5.00692">
        <ele>223.9</ele>
        <time>2024-05-17T09:07:55Z</time>
      </trkpt>
      <trkpt lat="44.70986" lon="5.00692">
        <ele>224</ele>
        <time>2024-05-17T09:07:56Z</time>
      </trkpt>
      <trkpt lat="44.70979" lon="5.00693">
        <ele>224.2</ele>
        <time>2024-05-17T09:07:57Z</time>
      </trkpt>
      <trkpt lat="44.70977" lon="5.00693">
        <ele>224.2</ele>
        <time>2024-05-17T09:07:58Z</time>
      </trkpt>
      <trkpt lat="44.70971" lon="5.00693">
        <ele>224.4</ele>
        <time>2024-05-17T09:07:59Z</time>
      </trkpt>
      <trkpt lat="44.70969" lon="5.00693">
        <ele>224.5</ele>
        <time>2024-05-17T09:08:00Z</time>
      </trkpt>
      <trkpt lat="44.70963" lon="5.00694">
        <ele>224.7</ele>
        <time>2024-05-17T09:08:01Z</time>
      </trkpt>
      <trkpt lat="44.70962" lon="5.00694">
        <ele>224.7</ele>
        <time>2024-05-17T09:08:02Z</time>
      </trkpt>
      <trkpt lat="44.70958" lon="5.00694">
        <ele>224.9</ele>
        <time>2024-05-17T09:08:03Z</time>
      </trkpt>
      <trkpt lat="44.70951" lon="5.00694">
        <ele>225.1</ele>
        <time>2024-05-17T09:08:04Z</time>
      </trkpt>
      <trkpt lat="44.70949" lon="5.00694">
        <ele>225.1</ele>
        <time>2024-05-17T09:08:05Z</time>
      </trkpt>
      <trkpt lat="44.70945" lon="5.00694">
        <ele>225.3</ele>
        <time>2024-05-17T09:08:06Z</time>
      </trkpt>
      <trkpt lat="44.70942" lon="5.00693">
        <ele>225.4</ele>
        <time>2024-05-17T09:08:07Z</time>
      </trkpt>
      <trkpt lat="44.70935" lon="5.00692">
        <ele>225.6</ele>
        <time>2024-05-17T09:08:08Z</time>
      </trkpt>
      <trkpt lat="44.70933" lon="5.00692">
        <ele>225.6</ele>
        <time>2024-05-17T09:08:09Z</time>
      </trkpt>
      <trkpt lat="44.70927" lon="5.00691">
        <ele>225.8</ele>
        <time>2024-05-17T09:08:10Z</time>
      </trkpt>
      <trkpt lat="44.70925" lon="5.0069">
        <ele>225.9</ele>
        <time>2024-05-17T09:08:11Z</time>
      </trkpt>
      <trkpt lat="44.70921" lon="5.00689">
        <ele>226</ele>
        <time>2024-05-17T09:08:12Z</time>
      </trkpt>
      <trkpt lat="44.70917" lon="5.00688">
        <ele>226.1</ele>
        <time>2024-05-17T09:08:13Z</time>
      </trkpt>
      <trkpt lat="44.70913" lon="5.00687">
        <ele>226.2</ele>
        <time>2024-05-17T09:08:14Z</time>
      </trkpt>
      <trkpt lat="44.70909" lon="5.00686">
        <ele>226.3</ele>
        <time>2024-05-17T09:08:15Z</time>
      </trkpt>
      <trkpt lat="44.70905" lon="5.00685">
        <ele>226.4</ele>
        <time>2024-05-17T09:08:16Z</time>
      </trkpt>
      <trkpt lat="44.70901" lon="5.00684">
        <ele>226.4</ele>
        <time>2024-05-17T09:08:17Z</time>
      </trkpt>
      <trkpt lat="44.70895" lon="5.00682">
        <ele>226.6</ele>
        <time>2024-05-17T09:08:18Z</time>
      </trkpt>
      <trkpt lat="44.70893" lon="5.00681">
        <ele>226.6</ele>
        <time>2024-05-17T09:08:19Z</time>
      </trkpt>
      <trkpt lat="44.70888" lon="5.00679">
        <ele>226.8</ele>
        <time>2024-05-17T09:08:20Z</time>
      </trkpt>
      <trkpt lat="44.70886" lon="5.00678">
        <ele>226.8</ele>
        <time>2024-05-17T09:08:21Z</time>
      </trkpt>
      <trkpt lat="44.7088" lon="5.00676">
        <ele>227</ele>
        <time>2024-05-17T09:08:22Z</time>
      </trkpt>
      <trkpt lat="44.70878" lon="5.00675">
        <ele>227.1</ele>
        <time>2024-05-17T09:08:23Z</time>
      </trkpt>
      <trkpt lat="44.70871" lon="5.00672">
        <ele>227.2</ele>
        <time>2024-05-17T09:08:24Z</time>
      </trkpt>
      <trkpt lat="44.70869" lon="5.00672">
        <ele>227.2</ele>
        <time>2024-05-17T09:08:25Z</time>
      </trkpt>
      <trkpt lat="44.70863" lon="5.0067">
        <ele>227.4</ele>
        <time>2024-05-17T09:08:26Z</time>
      </trkpt>
      <trkpt lat="44.70861" lon="5.00669">
        <ele>227.4</ele>
        <time>2024-05-17T09:08:27Z</time>
      </trkpt>
      <trkpt lat="44.70857" lon="5.00668">
        <ele>227.5</ele>
        <time>2024-05-17T09:08:28Z</time>
      </trkpt>
      <trkpt lat="44.70853" lon="5.00666">
        <ele>227.6</ele>
        <time>2024-05-17T09:08:29Z</time>
      </trkpt>
      <trkpt lat="44.70846" lon="5.00664">
        <ele>227.7</ele>
        <time>2024-05-17T09:08:30Z</time>
      </trkpt>
      <trkpt lat="44.70844" lon="5.00663">
        <ele>227.8</ele>
        <time>2024-05-17T09:08:31Z</time>
      </trkpt>
      <trkpt lat="44.7084" lon="5.00661">
        <ele>227.9</ele>
        <time>2024-05-17T09:08:32Z</time>
      </trkpt>
      <trkpt lat="44.70836" lon="5.0066">
        <ele>228</ele>
        <time>2024-05-17T09:08:33Z</time>
      </trkpt>
      <trkpt lat="44.70832" lon="5.00659">
        <ele>228.1</ele>
        <time>2024-05-17T09:08:34Z</time>
      </trkpt>
      <trkpt lat="44.70827" lon="5.00657">
        <ele>228.2</ele>
        <time>2024-05-17T09:08:35Z</time>
      </trkpt>
      <trkpt lat="44.70821" lon="5.00655">
        <ele>228.3</ele>
        <time>2024-05-17T09:08:36Z</time>
      </trkpt>
      <trkpt lat="44.70819" lon="5.00654">
        <ele>228.4</ele>
        <time>2024-05-17T09:08:37Z</time>
      </trkpt>
      <trkpt lat="44.70813" lon="5.00651">
        <ele>228.5</ele>
        <time>2024-05-17T09:08:38Z</time>
      </trkpt>
      <trkpt lat="44.70811" lon="5.0065">
        <ele>228.5</ele>
        <time>2024-05-17T09:08:39Z</time>
      </trkpt>
      <trkpt lat="44.70807" lon="5.00648">
        <ele>228.6</ele>
        <time>2024-05-17T09:08:40Z</time>
      </trkpt>
      <trkpt lat="44.708" lon="5.00646">
        <ele>228.7</ele>
        <time>2024-05-17T09:08:41Z</time>
      </trkpt>
      <trkpt lat="44.70798" lon="5.00645">
        <ele>228.7</ele>
        <time>2024-05-17T09:08:42Z</time>
      </trkpt>
      <trkpt lat="44.70791" lon="5.00642">
        <ele>228.9</ele>
        <time>2024-05-17T09:08:43Z</time>
      </trkpt>
      <trkpt lat="44.70789" lon="5.00641">
        <ele>228.9</ele>
        <time>2024-05-17T09:08:44Z</time>
      </trkpt>
      <trkpt lat="44.70785" lon="5.0064">
        <ele>229</ele>
        <time>2024-05-17T09:08:45Z</time>
      </trkpt>
      <trkpt lat="44.70778" lon="5.00637">
        <ele>229.1</ele>
        <time>2024-05-17T09:08:46Z</time>
      </trkpt>
      <trkpt lat="44.70775" lon="5.00636">
        <ele>229.1</ele>
        <time>2024-05-17T09:08:47Z</time>
      </trkpt>
      <trkpt lat="44.70771" lon="5.00634">
        <ele>229.2</ele>
        <time>2024-05-17T09:08:48Z</time>
      </trkpt>
      <trkpt lat="44.70766" lon="5.00633">
        <ele>229.3</ele>
        <time>2024-05-17T09:08:49Z</time>
      </trkpt>
      <trkpt lat="44.70759" lon="5.0063">
        <ele>229.4</ele>
        <time>2024-05-17T09:08:50Z</time>
      </trkpt>
      <trkpt lat="44.70757" lon="5.00629">
        <ele>229.5</ele>
        <time>2024-05-17T09:08:51Z</time>
      </trkpt>
      <trkpt lat="44.70749" lon="5.00626">
        <ele>229.6</ele>
        <time>2024-05-17T09:08:52Z</time>
      </trkpt>
      <trkpt lat="44.70747" lon="5.00624">
        <ele>229.7</ele>
        <time>2024-05-17T09:08:53Z</time>
      </trkpt>
      <trkpt lat="44.70742" lon="5.00622">
        <ele>229.7</ele>
        <time>2024-05-17T09:08:54Z</time>
      </trkpt>
      <trkpt lat="44.70737" lon="5.0062">
        <ele>229.7</ele>
        <time>2024-05-17T09:08:55Z</time>
      </trkpt>
      <trkpt lat="44.70732" lon="5.00618">
        <ele>229.7</ele>
        <time>2024-05-17T09:08:56Z</time>
      </trkpt>
      <trkpt lat="44.70727" lon="5.00616">
        <ele>229.8</ele>
        <time>2024-05-17T09:08:57Z</time>
      </trkpt>
      <trkpt lat="44.70722" lon="5.00614">
        <ele>229.8</ele>
        <time>2024-05-17T09:08:58Z</time>
      </trkpt>
      <trkpt lat="44.70717" lon="5.00612">
        <ele>229.8</ele>
        <time>2024-05-17T09:08:59Z</time>
      </trkpt>
      <trkpt lat="44.70709" lon="5.00609">
        <ele>229.8</ele>
        <time>2024-05-17T09:09:00Z</time>
      </trkpt>
      <trkpt lat="44.70706" lon="5.00608">
        <ele>229.8</ele>
        <time>2024-05-17T09:09:01Z</time>
      </trkpt>
      <trkpt lat="44.70698" lon="5.00605">
        <ele>229.9</ele>
        <time>2024-05-17T09:09:02Z</time>
      </trkpt>
      <trkpt lat="44.70695" lon="5.00605">
        <ele>229.9</ele>
        <time>2024-05-17T09:09:03Z</time>
      </trkpt>
      <trkpt lat="44.70687" lon="5.00603">
        <ele>229.9</ele>
        <time>2024-05-17T09:09:04Z</time>
      </trkpt>
      <trkpt lat="44.70684" lon="5.00602">
        <ele>229.9</ele>
        <time>2024-05-17T09:09:05Z</time>
      </trkpt>
      <trkpt lat="44.70676" lon="5.00601">
        <ele>229.9</ele>
        <time>2024-05-17T09:09:06Z</time>
      </trkpt>
      <trkpt lat="44.70673" lon="5.00601">
        <ele>230</ele>
        <time>2024-05-17T09:09:07Z</time>
      </trkpt>
      <trkpt lat="44.70668" lon="5.006">
        <ele>230</ele>
        <time>2024-05-17T09:09:08Z</time>
      </trkpt>
      <trkpt lat="44.70662" lon="5.006">
        <ele>230.1</ele>
        <time>2024-05-17T09:09:09Z</time>
      </trkpt>
      <trkpt lat="44.70657" lon="5.006">
        <ele>230.2</ele>
        <time>2024-05-17T09:09:10Z</time>
      </trkpt>
      <trkpt lat="44.70652" lon="5.006">
        <ele>230.2</ele>
        <time>2024-05-17T09:09:11Z</time>
      </trkpt>
      <trkpt lat="44.70646" lon="5.006">
        <ele>230.3</ele>
        <time>2024-05-17T09:09:12Z</time>
      </trkpt>
      <trkpt lat="44.70641" lon="5.00601">
        <ele>230.5</ele>
        <time>2024-05-17T09:09:13Z</time>
      </trkpt>
      <trkpt lat="44.70636" lon="5.00601">
        <ele>230.6</ele>
        <time>2024-05-17T09:09:14Z</time>
      </trkpt>
      <trkpt lat="44.7063" lon="5.00601">
        <ele>230.7</ele>
        <time>2024-05-17T09:09:15Z</time>
      </trkpt>
      <trkpt lat="44.70625" lon="5.00602">
        <ele>230.8</ele>
        <time>2024-05-17T09:09:16Z</time>
      </trkpt>
      <trkpt lat="44.7062" lon="5.00602">
        <ele>230.9</ele>
        <time>2024-05-17T09:09:17Z</time>
      </trkpt>
      <trkpt lat="44.70615" lon="5.00602">
        <ele>231</ele>
        <time>2024-05-17T09:09:18Z</time>
      </trkpt>
      <trkpt lat="44.7061" lon="5.00602">
        <ele>231.1</ele>
        <time>2024-05-17T09:09:19Z</time>
      </trkpt>
      <trkpt lat="44.70603" lon="5.00603">
        <ele>231.3</ele>
        <time>2024-05-17T09:09:20Z</time>
      </trkpt>
      <trkpt lat="44.70601" lon="5.00603">
        <ele>231.3</ele>
        <time>2024-05-17T09:09:21Z</time>
      </trkpt>
      <trkpt lat="44.70596" lon="5.00603">
        <ele>231.5</ele>
        <time>2024-05-17T09:09:22Z</time>
      </trkpt>
      <trkpt lat="44.70589" lon="5.00603">
        <ele>231.6</ele>
        <time>2024-05-17T09:09:23Z</time>
      </trkpt>
      <trkpt lat="44.70586" lon="5.00603">
        <ele>231.7</ele>
        <time>2024-05-17T09:09:24Z</time>
      </trkpt>
      <trkpt lat="44.70579" lon="5.00604">
        <ele>231.8</ele>
        <time>2024-05-17T09:09:25Z</time>
      </trkpt>
      <trkpt lat="44.70577" lon="5.00604">
        <ele>231.8</ele>
        <time>2024-05-17T09:09:26Z</time>
      </trkpt>
      <trkpt lat="44.70572" lon="5.00604">
        <ele>231.9</ele>
        <time>2024-05-17T09:09:27Z</time>
      </trkpt>
      <trkpt lat="44.70565" lon="5.00605">
        <ele>232</ele>
        <time>2024-05-17T09:09:28Z</time>
      </trkpt>
      <trkpt lat="44.70563" lon="5.00605">
        <ele>232.1</ele>
        <time>2024-05-17T09:09:29Z</time>
      </trkpt>
      <trkpt lat="44.70556" lon="5.00605">
        <ele>232.2</ele>
        <time>2024-05-17T09:09:30Z</time>
      </trkpt>
      <trkpt lat="44.70554" lon="5.00606">
        <ele>232.2</ele>
        <time>2024-05-17T09:09:31Z</time>
      </trkpt>
      <trkpt lat="44.70547" lon="5.00607">
        <ele>232.4</ele>
        <time>2024-05-17T09:09:32Z</time>
      </trkpt>
      <trkpt lat="44.70544" lon="5.00607">
        <ele>232.4</ele>
        <time>2024-05-17T09:09:33Z</time>
      </trkpt>
      <trkpt lat="44.70537" lon="5.00609">
        <ele>232.6</ele>
        <time>2024-05-17T09:09:34Z</time>
      </trkpt>
      <trkpt lat="44.70535" lon="5.0061">
        <ele>232.6</ele>
        <time>2024-05-17T09:09:35Z</time>
      </trkpt>
      <trkpt lat="44.70528" lon="5.00612">
        <ele>232.8</ele>
        <time>2024-05-17T09:09:36Z</time>
      </trkpt>
      <trkpt lat="44.70526" lon="5.00613">
        <ele>232.8</ele>
        <time>2024-05-17T09:09:37Z</time>
      </trkpt>
      <trkpt lat="44.70521" lon="5.00614">
        <ele>232.9</ele>
        <time>2024-05-17T09:09:38Z</time>
      </trkpt>
      <trkpt lat="44.70517" lon="5.00617">
        <ele>232.9</ele>
        <time>2024-05-17T09:09:39Z</time>
      </trkpt>
      <trkpt lat="44.70513" lon="5.0062">
        <ele>233</ele>
        <time>2024-05-17T09:09:40Z</time>
      </trkpt>
      <trkpt lat="44.70508" lon="5.00623">
        <ele>233</ele>
        <time>2024-05-17T09:09:41Z</time>
      </trkpt>
      <trkpt lat="44.70501" lon="5.00627">
        <ele>233.1</ele>
        <time>2024-05-17T09:09:42Z</time>
      </trkpt>
      <trkpt lat="44.70499" lon="5.00629">
        <ele>233.1</ele>
        <time>2024-05-17T09:09:43Z</time>
      </trkpt>
      <trkpt lat="44.70492" lon="5.00634">
        <ele>233.1</ele>
        <time>2024-05-17T09:09:44Z</time>
      </trkpt>
      <trkpt lat="44.7049" lon="5.00636">
        <ele>233.1</ele>
        <time>2024-05-17T09:09:45Z</time>
      </trkpt>
      <trkpt lat="44.70483" lon="5.00641">
        <ele>233.2</ele>
        <time>2024-05-17T09:09:46Z</time>
      </trkpt>
      <trkpt lat="44.70481" lon="5.00643">
        <ele>233.2</ele>
        <time>2024-05-17T09:09:47Z</time>
      </trkpt>
      <trkpt lat="44.70474" lon="5.00648">
        <ele>233.3</ele>
        <time>2024-05-17T09:09:48Z</time>
      </trkpt>
      <trkpt lat="44.70471" lon="5.0065">
        <ele>233.3</ele>
        <time>2024-05-17T09:09:49Z</time>
      </trkpt>
      <trkpt lat="44.70464" lon="5.00655">
        <ele>233.4</ele>
        <time>2024-05-17T09:09:50Z</time>
      </trkpt>
      <trkpt lat="44.70461" lon="5.00657">
        <ele>233.4</ele>
        <time>2024-05-17T09:09:51Z</time>
      </trkpt>
      <trkpt lat="44.70454" lon="5.00662">
        <ele>233.5</ele>
        <time>2024-05-17T09:09:52Z</time>
      </trkpt>
      <trkpt lat="44.70451" lon="5.00664">
        <ele>233.5</ele>
        <time>2024-05-17T09:09:53Z</time>
      </trkpt>
      <trkpt lat="44.70446" lon="5.00669">
        <ele>233.5</ele>
        <time>2024-05-17T09:09:54Z</time>
      </trkpt>
      <trkpt lat="44.70442" lon="5.00672">
        <ele>233.5</ele>
        <time>2024-05-17T09:09:55Z</time>
      </trkpt>
      <trkpt lat="44.70437" lon="5.00676">
        <ele>233.6</ele>
        <time>2024-05-17T09:09:56Z</time>
      </trkpt>
      <trkpt lat="44.70432" lon="5.00679">
        <ele>233.6</ele>
        <time>2024-05-17T09:09:57Z</time>
      </trkpt>
      <trkpt lat="44.70427" lon="5.00683">
        <ele>233.6</ele>
        <time>2024-05-17T09:09:58Z</time>
      </trkpt>
      <trkpt lat="44.70422" lon="5.00687">
        <ele>233.6</ele>
        <time>2024-05-17T09:09:59Z</time>
      </trkpt>
      <trkpt lat="44.70417" lon="5.0069">
        <ele>233.6</ele>
        <time>2024-05-17T09:10:00Z</time>
      </trkpt>
      <trkpt lat="44.70412" lon="5.00693">
        <ele>233.6</ele>
        <time>2024-05-17T09:10:01Z</time>
      </trkpt>
      <trkpt lat="44.70405" lon="5.00699">
        <ele>233.6</ele>
        <time>2024-05-17T09:10:02Z</time>
      </trkpt>
      <trkpt lat="44.70403" lon="5.007">
        <ele>233.6</ele>
        <time>2024-05-17T09:10:03Z</time>
      </trkpt>
      <trkpt lat="44.70395" lon="5.00706">
        <ele>233.7</ele>
        <time>2024-05-17T09:10:04Z</time>
      </trkpt>
      <trkpt lat="44.70393" lon="5.00708">
        <ele>233.7</ele>
        <time>2024-05-17T09:10:05Z</time>
      </trkpt>
      <trkpt lat="44.70386" lon="5.00713">
        <ele>233.7</ele>
        <time>2024-05-17T09:10:06Z</time>
      </trkpt>
      <trkpt lat="44.70383" lon="5.00715">
        <ele>233.7</ele>
        <time>2024-05-17T09:10:07Z</time>
      </trkpt>
      <trkpt lat="44.70376" lon="5.0072">
        <ele>233.8</ele>
        <time>2024-05-17T09:10:08Z</time>
      </trkpt>
      <trkpt lat="44.70374" lon="5.00722">
        <ele>233.8</ele>
        <time>2024-05-17T09:10:09Z</time>
      </trkpt>
      <trkpt lat="44.70367" lon="5.00727">
        <ele>233.8</ele>
        <time>2024-05-17T09:10:10Z</time>
      </trkpt>
      <trkpt lat="44.70364" lon="5.00729">
        <ele>233.8</ele>
        <time>2024-05-17T09:10:11Z</time>
      </trkpt>
      <trkpt lat="44.70359" lon="5.00732">
        <ele>233.8</ele>
        <time>2024-05-17T09:10:12Z</time>
      </trkpt>
      <trkpt lat="44.70352" lon="5.00737">
        <ele>233.8</ele>
        <time>2024-05-17T09:10:13Z</time>
      </trkpt>
      <trkpt lat="44.7035" lon="5.00739">
        <ele>233.8</ele>
        <time>2024-05-17T09:10:14Z</time>
      </trkpt>
      <trkpt lat="44.70342" lon="5.00744">
        <ele>233.9</ele>
        <time>2024-05-17T09:10:15Z</time>
      </trkpt>
      <trkpt lat="44.7034" lon="5.00746">
        <ele>233.9</ele>
        <time>2024-05-17T09:10:16Z</time>
      </trkpt>
      <trkpt lat="44.70335" lon="5.00749">
        <ele>233.9</ele>
        <time>2024-05-17T09:10:17Z</time>
      </trkpt>
      <trkpt lat="44.7033" lon="5.00752">
        <ele>234</ele>
        <time>2024-05-17T09:10:18Z</time>
      </trkpt>
      <trkpt lat="44.70323" lon="5.00757">
        <ele>234</ele>
        <time>2024-05-17T09:10:19Z</time>
      </trkpt>
      <trkpt lat="44.70321" lon="5.00759">
        <ele>234.1</ele>
        <time>2024-05-17T09:10:20Z</time>
      </trkpt>
      <trkpt lat="44.70316" lon="5.00762">
        <ele>234.1</ele>
        <time>2024-05-17T09:10:21Z</time>
      </trkpt>
      <trkpt lat="44.70312" lon="5.00765">
        <ele>234.1</ele>
        <time>2024-05-17T09:10:22Z</time>
      </trkpt>
      <trkpt lat="44.70307" lon="5.00769">
        <ele>234.2</ele>
        <time>2024-05-17T09:10:23Z</time>
      </trkpt>
      <trkpt lat="44.70302" lon="5.00772">
        <ele>234.2</ele>
        <time>2024-05-17T09:10:24Z</time>
      </trkpt>
      <trkpt lat="44.70295" lon="5.00777">
        <ele>234.2</ele>
        <time>2024-05-17T09:10:25Z</time>
      </trkpt>
      <trkpt lat="44.70292" lon="5.00779">
        <ele>234.2</ele>
        <time>2024-05-17T09:10:26Z</time>
      </trkpt>
      <trkpt lat="44.70285" lon="5.00785">
        <ele>234.3</ele>
        <time>2024-05-17T09:10:27Z</time>
      </trkpt>
      <trkpt lat="44.70283" lon="5.00787">
        <ele>234.3</ele>
        <time>2024-05-17T09:10:28Z</time>
      </trkpt>
      <trkpt lat="44.70276" lon="5.00792">
        <ele>234.4</ele>
        <time>2024-05-17T09:10:29Z</time>
      </trkpt>
      <trkpt lat="44.70274" lon="5.00794">
        <ele>234.4</ele>
        <time>2024-05-17T09:10:30Z</time>
      </trkpt>
      <trkpt lat="44.70267" lon="5.00799">
        <ele>234.5</ele>
        <time>2024-05-17T09:10:31Z</time>
      </trkpt>
      <trkpt lat="44.70264" lon="5.00801">
        <ele>234.5</ele>
        <time>2024-05-17T09:10:32Z</time>
      </trkpt>
      <trkpt lat="44.70257" lon="5.00806">
        <ele>234.6</ele>
        <time>2024-05-17T09:10:33Z</time>
      </trkpt>
      <trkpt lat="44.70255" lon="5.00808">
        <ele>234.6</ele>
        <time>2024-05-17T09:10:34Z</time>
      </trkpt>
      <trkpt lat="44.70248" lon="5.00814">
        <ele>234.7</ele>
        <time>2024-05-17T09:10:35Z</time>
      </trkpt>
      <trkpt lat="44.70245" lon="5.00815">
        <ele>234.7</ele>
        <time>2024-05-17T09:10:36Z</time>
      </trkpt>
      <trkpt lat="44.70241" lon="5.00819">
        <ele>234.7</ele>
        <time>2024-05-17T09:10:37Z</time>
      </trkpt>
      <trkpt lat="44.70236" lon="5.00824">
        <ele>234.7</ele>
        <time>2024-05-17T09:10:38Z</time>
      </trkpt>
      <trkpt lat="44.70232" lon="5.00828">
        <ele>234.8</ele>
        <time>2024-05-17T09:10:39Z</time>
      </trkpt>
      <trkpt lat="44.70228" lon="5.00832">
        <ele>234.8</ele>
        <time>2024-05-17T09:10:40Z</time>
      </trkpt>
      <trkpt lat="44.70221" lon="5.00839">
        <ele>234.9</ele>
        <time>2024-05-17T09:10:41Z</time>
      </trkpt>
      <trkpt lat="44.70219" lon="5.00842">
        <ele>234.9</ele>
        <time>2024-05-17T09:10:42Z</time>
      </trkpt>
      <trkpt lat="44.70215" lon="5.00847">
        <ele>234.9</ele>
        <time>2024-05-17T09:10:43Z</time>
      </trkpt>
      <trkpt lat="44.70211" lon="5.00852">
        <ele>234.9</ele>
        <time>2024-05-17T09:10:44Z</time>
      </trkpt>
      <trkpt lat="44.70206" lon="5.00861">
        <ele>235</ele>
        <time>2024-05-17T09:10:45Z</time>
      </trkpt>
      <trkpt lat="44.70204" lon="5.00864">
        <ele>235</ele>
        <time>2024-05-17T09:10:46Z</time>
      </trkpt>
      <trkpt lat="44.702" lon="5.00869">
        <ele>235</ele>
        <time>2024-05-17T09:10:47Z</time>
      </trkpt>
      <trkpt lat="44.70197" lon="5.00875">
        <ele>235.1</ele>
        <time>2024-05-17T09:10:48Z</time>
      </trkpt>
      <trkpt lat="44.70193" lon="5.00881">
        <ele>235.1</ele>
        <time>2024-05-17T09:10:49Z</time>
      </trkpt>
      <trkpt lat="44.70187" lon="5.00889">
        <ele>235.1</ele>
        <time>2024-05-17T09:10:50Z</time>
      </trkpt>
      <trkpt lat="44.70185" lon="5.00892">
        <ele>235.1</ele>
        <time>2024-05-17T09:10:51Z</time>
      </trkpt>
      <trkpt lat="44.70178" lon="5.009">
        <ele>235.1</ele>
        <time>2024-05-17T09:10:52Z</time>
      </trkpt>
      <trkpt lat="44.70176" lon="5.00902">
        <ele>235.1</ele>
        <time>2024-05-17T09:10:53Z</time>
      </trkpt>
      <trkpt lat="44.70171" lon="5.00907">
        <ele>235.1</ele>
        <time>2024-05-17T09:10:54Z</time>
      </trkpt>
      <trkpt lat="44.70162" lon="5.00912">
        <ele>235.2</ele>
        <time>2024-05-17T09:10:55Z</time>
      </trkpt>
      <trkpt lat="44.70159" lon="5.00913">
        <ele>235.2</ele>
        <time>2024-05-17T09:10:56Z</time>
      </trkpt>
      <trkpt lat="44.7015" lon="5.00915">
        <ele>235.3</ele>
        <time>2024-05-17T09:10:57Z</time>
      </trkpt>
      <trkpt lat="44.70147" lon="5.00915">
        <ele>235.3</ele>
        <time>2024-05-17T09:10:58Z</time>
      </trkpt>
      <trkpt lat="44.70138" lon="5.00913">
        <ele>235.5</ele>
        <time>2024-05-17T09:10:59Z</time>
      </trkpt>
      <trkpt lat="44.70135" lon="5.00911">
        <ele>235.5</ele>
        <time>2024-05-17T09:11:00Z</time>
      </trkpt>
      <trkpt lat="44.70127" lon="5.00906">
        <ele>235.6</ele>
        <time>2024-05-17T09:11:01Z</time>
      </trkpt>
      <trkpt lat="44.70125" lon="5.00903">
        <ele>235.7</ele>
        <time>2024-05-17T09:11:02Z</time>
      </trkpt>
      <trkpt lat="44.70121" lon="5.00899">
        <ele>235.8</ele>
        <time>2024-05-17T09:11:03Z</time>
      </trkpt>
      <trkpt lat="44.70117" lon="5.00893">
        <ele>235.9</ele>
        <time>2024-05-17T09:11:04Z</time>
      </trkpt>
      <trkpt lat="44.70113" lon="5.00888">
        <ele>236</ele>
        <time>2024-05-17T09:11:05Z</time>
      </trkpt>
      <trkpt lat="44.7011" lon="5.00881">
        <ele>236.1</ele>
        <time>2024-05-17T09:11:06Z</time>
      </trkpt>
      <trkpt lat="44.70107" lon="5.00875">
        <ele>236.3</ele>
        <time>2024-05-17T09:11:07Z</time>
      </trkpt>
      <trkpt lat="44.70104" lon="5.00868">
        <ele>236.4</ele>
        <time>2024-05-17T09:11:08Z</time>
      </trkpt>
      <trkpt lat="44.70101" lon="5.00859">
        <ele>236.7</ele>
        <time>2024-05-17T09:11:09Z</time>
      </trkpt>
      <trkpt lat="44.70099" lon="5.00856">
        <ele>236.8</ele>
        <time>2024-05-17T09:11:10Z</time>
      </trkpt>
      <trkpt lat="44.70097" lon="5.00848">
        <ele>237</ele>
        <time>2024-05-17T09:11:11Z</time>
      </trkpt>
      <trkpt lat="44.70096" lon="5.00845">
        <ele>237.1</ele>
        <time>2024-05-17T09:11:12Z</time>
      </trkpt>
      <trkpt lat="44.70093" lon="5.00838">
        <ele>237.3</ele>
        <time>2024-05-17T09:11:13Z</time>
      </trkpt>
      <trkpt lat="44.70092" lon="5.00835">
        <ele>237.4</ele>
        <time>2024-05-17T09:11:14Z</time>
      </trkpt>
      <trkpt lat="44.7009" lon="5.00827">
        <ele>237.7</ele>
        <time>2024-05-17T09:11:15Z</time>
      </trkpt>
      <trkpt lat="44.70089" lon="5.00825">
        <ele>237.8</ele>
        <time>2024-05-17T09:11:16Z</time>
      </trkpt>
      <trkpt lat="44.70086" lon="5.00817">
        <ele>238</ele>
        <time>2024-05-17T09:11:17Z</time>
      </trkpt>
      <trkpt lat="44.70086" lon="5.00815">
        <ele>238.1</ele>
        <time>2024-05-17T09:11:18Z</time>
      </trkpt>
      <trkpt lat="44.70085" lon="5.0081">
        <ele>238.2</ele>
        <time>2024-05-17T09:11:19Z</time>
      </trkpt>
      <trkpt lat="44.70083" lon="5.00805">
        <ele>238.3</ele>
        <time>2024-05-17T09:11:20Z</time>
      </trkpt>
      <trkpt lat="44.70082" lon="5.008">
        <ele>238.5</ele>
        <time>2024-05-17T09:11:21Z</time>
      </trkpt>
      <trkpt lat="44.70081" lon="5.00794">
        <ele>238.6</ele>
        <time>2024-05-17T09:11:22Z</time>
      </trkpt>
      <trkpt lat="44.70079" lon="5.00789">
        <ele>238.8</ele>
        <time>2024-05-17T09:11:23Z</time>
      </trkpt>
      <trkpt lat="44.70078" lon="5.00784">
        <ele>238.9</ele>
        <time>2024-05-17T09:11:24Z</time>
      </trkpt>
      <trkpt lat="44.70077" lon="5.00779">
        <ele>239.1</ele>
        <time>2024-05-17T09:11:25Z</time>
      </trkpt>
      <trkpt lat="44.70075" lon="5.00774">
        <ele>239.2</ele>
        <time>2024-05-17T09:11:26Z</time>
      </trkpt>
      <trkpt lat="44.70074" lon="5.00769">
        <ele>239.4</ele>
        <time>2024-05-17T09:11:27Z</time>
      </trkpt>
      <trkpt lat="44.70071" lon="5.00762">
        <ele>239.6</ele>
        <time>2024-05-17T09:11:28Z</time>
      </trkpt>
      <trkpt lat="44.7007" lon="5.00759">
        <ele>239.7</ele>
        <time>2024-05-17T09:11:29Z</time>
      </trkpt>
      <trkpt lat="44.70069" lon="5.00754">
        <ele>239.8</ele>
        <time>2024-05-17T09:11:30Z</time>
      </trkpt>
      <trkpt lat="44.70067" lon="5.00746">
        <ele>240.1</ele>
        <time>2024-05-17T09:11:31Z</time>
      </trkpt>
      <trkpt lat="44.70066" lon="5.00743">
        <ele>240.2</ele>
        <time>2024-05-17T09:11:32Z</time>
      </trkpt>
      <trkpt lat="44.70063" lon="5.00735">
        <ele>240.4</ele>
        <time>2024-05-17T09:11:33Z</time>
      </trkpt>
      <trkpt lat="44.70062" lon="5.00733">
        <ele>240.5</ele>
        <time>2024-05-17T09:11:34Z</time>
      </trkpt>
      <trkpt lat="44.7006" lon="5.00727">
        <ele>240.7</ele>
        <time>2024-05-17T09:11:35Z</time>
      </trkpt>
      <trkpt lat="44.70059" lon="5.00724">
        <ele>240.8</ele>
        <time>2024-05-17T09:11:36Z</time>
      </trkpt>
      <trkpt lat="44.70057" lon="5.0072">
        <ele>240.9</ele>
        <time>2024-05-17T09:11:37Z</time>
      </trkpt>
      <trkpt lat="44.70054" lon="5.00713">
        <ele>241.2</ele>
        <time>2024-05-17T09:11:38Z</time>
      </trkpt>
      <trkpt lat="44.70053" lon="5.00711">
        <ele>241.3</ele>
        <time>2024-05-17T09:11:39Z</time>
      </trkpt>
      <trkpt lat="44.70051" lon="5.00708">
        <ele>241.4</ele>
        <time>2024-05-17T09:11:40Z</time>
      </trkpt>
      <trkpt lat="44.70049" lon="5.00704">
        <ele>241.5</ele>
        <time>2024-05-17T09:11:41Z</time>
      </trkpt>
      <trkpt lat="44.70047" lon="5.007">
        <ele>241.7</ele>
        <time>2024-05-17T09:11:42Z</time>
      </trkpt>
      <trkpt lat="44.70045" lon="5.00696">
        <ele>241.8</ele>
        <time>2024-05-17T09:11:43Z</time>
      </trkpt>
      <trkpt lat="44.70042" lon="5.0069">
        <ele>242.1</ele>
        <time>2024-05-17T09:11:44Z</time>
      </trkpt>
      <trkpt lat="44.70041" lon="5.00688">
        <ele>242.1</ele>
        <time>2024-05-17T09:11:45Z</time>
      </trkpt>
      <trkpt lat="44.70039" lon="5.00684">
        <ele>242.3</ele>
        <time>2024-05-17T09:11:46Z</time>
      </trkpt>
      <trkpt lat="44.70037" lon="5.0068">
        <ele>242.5</ele>
        <time>2024-05-17T09:11:47Z</time>
      </trkpt>
      <trkpt lat="44.70035" lon="5.00676">
        <ele>242.6</ele>
        <time>2024-05-17T09:11:48Z</time>
      </trkpt>
      <trkpt lat="44.70032" lon="5.00672">
        <ele>242.8</ele>
        <time>2024-05-17T09:11:49Z</time>
      </trkpt>
      <trkpt lat="44.7003" lon="5.00668">
        <ele>243</ele>
        <time>2024-05-17T09:11:50Z</time>
      </trkpt>
      <trkpt lat="44.70028" lon="5.00664">
        <ele>243.1</ele>
        <time>2024-05-17T09:11:51Z</time>
      </trkpt>
      <trkpt lat="44.70025" lon="5.00658">
        <ele>243.4</ele>
        <time>2024-05-17T09:11:52Z</time>
      </trkpt>
      <trkpt lat="44.70024" lon="5.00656">
        <ele>243.4</ele>
        <time>2024-05-17T09:11:53Z</time>
      </trkpt>
      <trkpt lat="44.70021" lon="5.00649">
        <ele>243.7</ele>
        <time>2024-05-17T09:11:54Z</time>
      </trkpt>
      <trkpt lat="44.70019" lon="5.00647">
        <ele>243.7</ele>
        <time>2024-05-17T09:11:55Z</time>
      </trkpt>
      <trkpt lat="44.70016" lon="5.0064">
        <ele>244</ele>
        <time>2024-05-17T09:11:56Z</time>
      </trkpt>
      <trkpt lat="44.70015" lon="5.00638">
        <ele>244</ele>
        <time>2024-05-17T09:11:57Z</time>
      </trkpt>
      <trkpt lat="44.70011" lon="5.00632">
        <ele>244.3</ele>
        <time>2024-05-17T09:11:58Z</time>
      </trkpt>
      <trkpt lat="44.7001" lon="5.00629">
        <ele>244.4</ele>
        <time>2024-05-17T09:11:59Z</time>
      </trkpt>
      <trkpt lat="44.70007" lon="5.00622">
        <ele>244.7</ele>
        <time>2024-05-17T09:12:00Z</time>
      </trkpt>
      <trkpt lat="44.70005" lon="5.0062">
        <ele>244.8</ele>
        <time>2024-05-17T09:12:01Z</time>
      </trkpt>
      <trkpt lat="44.70003" lon="5.00615">
        <ele>244.9</ele>
        <time>2024-05-17T09:12:02Z</time>
      </trkpt>
      <trkpt lat="44.70001" lon="5.00611">
        <ele>245.1</ele>
        <time>2024-05-17T09:12:03Z</time>
      </trkpt>
      <trkpt lat="44.69999" lon="5.00607">
        <ele>245.2</ele>
        <time>2024-05-17T09:12:04Z</time>
      </trkpt>
      <trkpt lat="44.69996" lon="5.00603">
        <ele>245.4</ele>
        <time>2024-05-17T09:12:05Z</time>
      </trkpt>
      <trkpt lat="44.69994" lon="5.00598">
        <ele>245.6</ele>
        <time>2024-05-17T09:12:06Z</time>
      </trkpt>
      <trkpt lat="44.69992" lon="5.00594">
        <ele>245.7</ele>
        <time>2024-05-17T09:12:07Z</time>
      </trkpt>
      <trkpt lat="44.6999" lon="5.0059">
        <ele>245.9</ele>
        <time>2024-05-17T09:12:08Z</time>
      </trkpt>
      <trkpt lat="44.69988" lon="5.00586">
        <ele>246</ele>
        <time>2024-05-17T09:12:09Z</time>
      </trkpt>
      <trkpt lat="44.69987" lon="5.00581">
        <ele>246.1</ele>
        <time>2024-05-17T09:12:10Z</time>
      </trkpt>
      <trkpt lat="44.69985" lon="5.00578">
        <ele>246.2</ele>
        <time>2024-05-17T09:12:11Z</time>
      </trkpt>
      <trkpt lat="44.69982" lon="5.00574">
        <ele>246.3</ele>
        <time>2024-05-17T09:12:12Z</time>
      </trkpt>
      <trkpt lat="44.6998" lon="5.00571">
        <ele>246.4</ele>
        <time>2024-05-17T09:12:13Z</time>
      </trkpt>
      <trkpt lat="44.69976" lon="5.00566">
        <ele>246.6</ele>
        <time>2024-05-17T09:12:14Z</time>
      </trkpt>
      <trkpt lat="44.69975" lon="5.00564">
        <ele>246.7</ele>
        <time>2024-05-17T09:12:15Z</time>
      </trkpt>
      <trkpt lat="44.69972" lon="5.00561">
        <ele>246.8</ele>
        <time>2024-05-17T09:12:16Z</time>
      </trkpt>
      <trkpt lat="44.69968" lon="5.00555">
        <ele>246.9</ele>
        <time>2024-05-17T09:12:17Z</time>
      </trkpt>
      <trkpt lat="44.69967" lon="5.00553">
        <ele>247</ele>
        <time>2024-05-17T09:12:18Z</time>
      </trkpt>
      <trkpt lat="44.69963" lon="5.00548">
        <ele>247.1</ele>
        <time>2024-05-17T09:12:19Z</time>
      </trkpt>
      <trkpt lat="44.69961" lon="5.00546">
        <ele>247.2</ele>
        <time>2024-05-17T09:12:20Z</time>
      </trkpt>
      <trkpt lat="44.69959" lon="5.00542">
        <ele>247.3</ele>
        <time>2024-05-17T09:12:21Z</time>
      </trkpt>
      <trkpt lat="44.69956" lon="5.00539">
        <ele>247.3</ele>
        <time>2024-05-17T09:12:22Z</time>
      </trkpt>
      <trkpt lat="44.69952" lon="5.00533">
        <ele>247.5</ele>
        <time>2024-05-17T09:12:23Z</time>
      </trkpt>
      <trkpt lat="44.6995" lon="5.00531">
        <ele>247.5</ele>
        <time>2024-05-17T09:12:24Z</time>
      </trkpt>
      <trkpt lat="44.69947" lon="5.00528">
        <ele>247.6</ele>
        <time>2024-05-17T09:12:25Z</time>
      </trkpt>
      <trkpt lat="44.69944" lon="5.00524">
        <ele>247.7</ele>
        <time>2024-05-17T09:12:26Z</time>
      </trkpt>
      <trkpt lat="44.69939" lon="5.00518">
        <ele>247.9</ele>
        <time>2024-05-17T09:12:27Z</time>
      </trkpt>
      <trkpt lat="44.69937" lon="5.00516">
        <ele>247.9</ele>
        <time>2024-05-17T09:12:28Z</time>
      </trkpt>
      <trkpt lat="44.69934" lon="5.00513">
        <ele>248</ele>
        <time>2024-05-17T09:12:29Z</time>
      </trkpt>
      <trkpt lat="44.6993" lon="5.00509">
        <ele>248.1</ele>
        <time>2024-05-17T09:12:30Z</time>
      </trkpt>
      <trkpt lat="44.69927" lon="5.00506">
        <ele>248.2</ele>
        <time>2024-05-17T09:12:31Z</time>
      </trkpt>
      <trkpt lat="44.69923" lon="5.00503">
        <ele>248.3</ele>
        <time>2024-05-17T09:12:32Z</time>
      </trkpt>
      <trkpt lat="44.6992" lon="5.00501">
        <ele>248.4</ele>
        <time>2024-05-17T09:12:33Z</time>
      </trkpt>
      <trkpt lat="44.69914" lon="5.00496">
        <ele>248.5</ele>
        <time>2024-05-17T09:12:34Z</time>
      </trkpt>
      <trkpt lat="44.69912" lon="5.00495">
        <ele>248.5</ele>
        <time>2024-05-17T09:12:35Z</time>
      </trkpt>
      <trkpt lat="44.69907" lon="5.00491">
        <ele>248.7</ele>
        <time>2024-05-17T09:12:36Z</time>
      </trkpt>
      <trkpt lat="44.69905" lon="5.0049">
        <ele>248.7</ele>
        <time>2024-05-17T09:12:37Z</time>
      </trkpt>
      <trkpt lat="44.699" lon="5.00486">
        <ele>248.8</ele>
        <time>2024-05-17T09:12:38Z</time>
      </trkpt>
      <trkpt lat="44.69898" lon="5.00485">
        <ele>248.9</ele>
        <time>2024-05-17T09:12:39Z</time>
      </trkpt>
      <trkpt lat="44.69892" lon="5.00482">
        <ele>249</ele>
        <time>2024-05-17T09:12:40Z</time>
      </trkpt>
      <trkpt lat="44.6989" lon="5.00481">
        <ele>249.1</ele>
        <time>2024-05-17T09:12:41Z</time>
      </trkpt>
      <trkpt lat="44.69884" lon="5.00478">
        <ele>249.2</ele>
        <time>2024-05-17T09:12:42Z</time>
      </trkpt>
      <trkpt lat="44.69882" lon="5.00477">
        <ele>249.2</ele>
        <time>2024-05-17T09:12:43Z</time>
      </trkpt>
      <trkpt lat="44.69876" lon="5.00474">
        <ele>249.3</ele>
        <time>2024-05-17T09:12:44Z</time>
      </trkpt>
      <trkpt lat="44.69874" lon="5.00473">
        <ele>249.3</ele>
        <time>2024-05-17T09:12:45Z</time>
      </trkpt>
      <trkpt lat="44.6987" lon="5.00472">
        <ele>249.4</ele>
        <time>2024-05-17T09:12:46Z</time>
      </trkpt>
      <trkpt lat="44.69865" lon="5.0047">
        <ele>249.5</ele>
        <time>2024-05-17T09:12:47Z</time>
      </trkpt>
      <trkpt lat="44.6986" lon="5.00469">
        <ele>249.5</ele>
        <time>2024-05-17T09:12:48Z</time>
      </trkpt>
      <trkpt lat="44.69856" lon="5.00467">
        <ele>249.6</ele>
        <time>2024-05-17T09:12:49Z</time>
      </trkpt>
      <trkpt lat="44.69851" lon="5.00466">
        <ele>249.6</ele>
        <time>2024-05-17T09:12:50Z</time>
      </trkpt>
      <trkpt lat="44.69844" lon="5.00464">
        <ele>249.7</ele>
        <time>2024-05-17T09:12:51Z</time>
      </trkpt>
      <trkpt lat="44.69842" lon="5.00464">
        <ele>249.7</ele>
        <time>2024-05-17T09:12:52Z</time>
      </trkpt>
      <trkpt lat="44.69835" lon="5.00462">
        <ele>249.8</ele>
        <time>2024-05-17T09:12:53Z</time>
      </trkpt>
      <trkpt lat="44.69833" lon="5.00461">
        <ele>249.8</ele>
        <time>2024-05-17T09:12:54Z</time>
      </trkpt>
      <trkpt lat="44.69829" lon="5.0046">
        <ele>249.8</ele>
        <time>2024-05-17T09:12:55Z</time>
      </trkpt>
      <trkpt lat="44.69822" lon="5.00458">
        <ele>249.9</ele>
        <time>2024-05-17T09:12:56Z</time>
      </trkpt>
      <trkpt lat="44.69819" lon="5.00457">
        <ele>249.9</ele>
        <time>2024-05-17T09:12:57Z</time>
      </trkpt>
      <trkpt lat="44.69812" lon="5.00456">
        <ele>249.9</ele>
        <time>2024-05-17T09:12:58Z</time>
      </trkpt>
      <trkpt lat="44.6981" lon="5.00455">
        <ele>249.9</ele>
        <time>2024-05-17T09:12:59Z</time>
      </trkpt>
      <trkpt lat="44.69803" lon="5.00453">
        <ele>249.9</ele>
        <time>2024-05-17T09:13:00Z</time>
      </trkpt>
      <trkpt lat="44.698" lon="5.00453">
        <ele>250</ele>
        <time>2024-05-17T09:13:01Z</time>
      </trkpt>
      <trkpt lat="44.69795" lon="5.00452">
        <ele>250</ele>
        <time>2024-05-17T09:13:02Z</time>
      </trkpt>
      <trkpt lat="44.69787" lon="5.00451">
        <ele>250</ele>
        <time>2024-05-17T09:13:03Z</time>
      </trkpt>
      <trkpt lat="44.69785" lon="5.00451">
        <ele>250</ele>
        <time>2024-05-17T09:13:04Z</time>
      </trkpt>
      <trkpt lat="44.69777" lon="5.0045">
        <ele>250</ele>
        <time>2024-05-17T09:13:05Z</time>
      </trkpt>
      <trkpt lat="44.69774" lon="5.00449">
        <ele>250</ele>
        <time>2024-05-17T09:13:06Z</time>
      </trkpt>
      <trkpt lat="44.69769" lon="5.00448">
        <ele>250</ele>
        <time>2024-05-17T09:13:07Z</time>
      </trkpt>
      <trkpt lat="44.69764" lon="5.00447">
        <ele>250</ele>
        <time>2024-05-17T09:13:08Z</time>
      </trkpt>
      <trkpt lat="44.69756" lon="5.00446">
        <ele>250</ele>
        <time>2024-05-17T09:13:09Z</time>
      </trkpt>
      <trkpt lat="44.69753" lon="5.00446">
        <ele>250</ele>
        <time>2024-05-17T09:13:10Z</time>
      </trkpt>
      <trkpt lat="44.69748" lon="5.00445">
        <ele>250</ele>
        <time>2024-05-17T09:13:11Z</time>
      </trkpt>
      <trkpt lat="44.69743" lon="5.00444">
        <ele>250</ele>
        <time>2024-05-17T09:13:12Z</time>
      </trkpt>
      <trkpt lat="44.69737" lon="5.00443">
        <ele>250</ele>
        <time>2024-05-17T09:13:13Z</time>
      </trkpt>
      <trkpt lat="44.69732" lon="5.00442">
        <ele>250</ele>
        <time>2024-05-17T09:13:14Z</time>
      </trkpt>
      <trkpt lat="44.69726" lon="5.00441">
        <ele>250</ele>
        <time>2024-05-17T09:13:15Z</time>
      </trkpt>
      <trkpt lat="44.6972" lon="5.0044">
        <ele>249.9</ele>
        <time>2024-05-17T09:13:16Z</time>
      </trkpt>
      <trkpt lat="44.69712" lon="5.00438">
        <ele>249.9</ele>
        <time>2024-05-17T09:13:17Z</time>
      </trkpt>
      <trkpt lat="44.6971" lon="5.00438">
        <ele>249.9</ele>
        <time>2024-05-17T09:13:18Z</time>
      </trkpt>
      <trkpt lat="44.69701" lon="5.00436">
        <ele>249.9</ele>
        <time>2024-05-17T09:13:19Z</time>
      </trkpt>
      <trkpt lat="44.69699" lon="5.00436">
        <ele>249.9</ele>
        <time>2024-05-17T09:13:20Z</time>
      </trkpt>
      <trkpt lat="44.6969" lon="5.00433">
        <ele>249.9</ele>
        <time>2024-05-17T09:13:21Z</time>
      </trkpt>
      <trkpt lat="44.69687" lon="5.00433">
        <ele>249.8</ele>
        <time>2024-05-17T09:13:22Z</time>
      </trkpt>
      <trkpt lat="44.69679" lon="5.00431">
        <ele>249.8</ele>
        <time>2024-05-17T09:13:23Z</time>
      </trkpt>
      <trkpt lat="44.69676" lon="5.0043">
        <ele>249.8</ele>
        <time>2024-05-17T09:13:24Z</time>
      </trkpt>
      <trkpt lat="44.69667" lon="5.00429">
        <ele>249.7</ele>
        <time>2024-05-17T09:13:25Z</time>
      </trkpt>
      <trkpt lat="44.69664" lon="5.00428">
        <ele>249.6</ele>
        <time>2024-05-17T09:13:26Z</time>
      </trkpt>
      <trkpt lat="44.69655" lon="5.00427">
        <ele>249.5</ele>
        <time>2024-05-17T09:13:27Z</time>
      </trkpt>
      <trkpt lat="44.69652" lon="5.00426">
        <ele>249.4</ele>
        <time>2024-05-17T09:13:28Z</time>
      </trkpt>
      <trkpt lat="44.69646" lon="5.00426">
        <ele>249.3</ele>
        <time>2024-05-17T09:13:29Z</time>
      </trkpt>
      <trkpt lat="44.6964" lon="5.00425">
        <ele>249.1</ele>
        <time>2024-05-17T09:13:30Z</time>
      </trkpt>
      <trkpt lat="44.69634" lon="5.00424">
        <ele>248.9</ele>
        <time>2024-05-17T09:13:31Z</time>
      </trkpt>
      <trkpt lat="44.69627" lon="5.00424">
        <ele>248.6</ele>
        <time>2024-05-17T09:13:32Z</time>
      </trkpt>
      <trkpt lat="44.6962" lon="5.00425">
        <ele>248.3</ele>
        <time>2024-05-17T09:13:33Z</time>
      </trkpt>
      <trkpt lat="44.69613" lon="5.00425">
        <ele>248</ele>
        <time>2024-05-17T09:13:34Z</time>
      </trkpt>
      <trkpt lat="44.69602" lon="5.00426">
        <ele>247.6</ele>
        <time>2024-05-17T09:13:35Z</time>
      </trkpt>
      <trkpt lat="44.69598" lon="5.00426">
        <ele>247.4</ele>
        <time>2024-05-17T09:13:36Z</time>
      </trkpt>
      <trkpt lat="44.6959" lon="5.00428">
        <ele>247.1</ele>
        <time>2024-05-17T09:13:37Z</time>
      </trkpt>
      <trkpt lat="44.69582" lon="5.00429">
        <ele>246.8</ele>
        <time>2024-05-17T09:13:38Z</time>
      </trkpt>
      <trkpt lat="44.69573" lon="5.0043">
        <ele>246.5</ele>
        <time>2024-05-17T09:13:39Z</time>
      </trkpt>
      <trkpt lat="44.69565" lon="5.00432">
        <ele>246.2</ele>
        <time>2024-05-17T09:13:40Z</time>
      </trkpt>
      <trkpt lat="44.69552" lon="5.00435">
        <ele>245.9</ele>
        <time>2024-05-17T09:13:41Z</time>
      </trkpt>
      <trkpt lat="44.69548" lon="5.00436">
        <ele>245.8</ele>
        <time>2024-05-17T09:13:42Z</time>
      </trkpt>
      <trkpt lat="44.69535" lon="5.00439">
        <ele>245.6</ele>
        <time>2024-05-17T09:13:43Z</time>
      </trkpt>
      <trkpt lat="44.69531" lon="5.0044">
        <ele>245.6</ele>
        <time>2024-05-17T09:13:44Z</time>
      </trkpt>
      <trkpt lat="44.69523" lon="5.00442">
        <ele>245.6</ele>
        <time>2024-05-17T09:13:45Z</time>
      </trkpt>
      <trkpt lat="44.69511" lon="5.00445">
        <ele>245.8</ele>
        <time>2024-05-17T09:13:46Z</time>
      </trkpt>
      <trkpt lat="44.69507" lon="5.00446">
        <ele>245.9</ele>
        <time>2024-05-17T09:13:47Z</time>
      </trkpt>
      <trkpt lat="44.69499" lon="5.00448">
        <ele>246.1</ele>
        <time>2024-05-17T09:13:48Z</time>
      </trkpt>
      <trkpt lat="44.69492" lon="5.00451">
        <ele>246.2</ele>
        <time>2024-05-17T09:13:49Z</time>
      </trkpt>
      <trkpt lat="44.69485" lon="5.00453">
        <ele>246.4</ele>
        <time>2024-05-17T09:13:50Z</time>
      </trkpt>
      <trkpt lat="44.69478" lon="5.00455">
        <ele>246.6</ele>
        <time>2024-05-17T09:13:51Z</time>
      </trkpt>
      <trkpt lat="44.69471" lon="5.00457">
        <ele>246.7</ele>
        <time>2024-05-17T09:13:52Z</time>
      </trkpt>
      <trkpt lat="44.69464" lon="5.0046">
        <ele>246.9</ele>
        <time>2024-05-17T09:13:53Z</time>
      </trkpt>
      <trkpt lat="44.69455" lon="5.00463">
        <ele>247.2</ele>
        <time>2024-05-17T09:13:54Z</time>
      </trkpt>
      <trkpt lat="44.69452" lon="5.00464">
        <ele>247.2</ele>
        <time>2024-05-17T09:13:55Z</time>
      </trkpt>
      <trkpt lat="44.69446" lon="5.00466">
        <ele>247.4</ele>
        <time>2024-05-17T09:13:56Z</time>
      </trkpt>
      <trkpt lat="44.6944" lon="5.00468">
        <ele>247.5</ele>
        <time>2024-05-17T09:13:57Z</time>
      </trkpt>
      <trkpt lat="44.69434" lon="5.0047">
        <ele>247.7</ele>
        <time>2024-05-17T09:13:58Z</time>
      </trkpt>
      <trkpt lat="44.69429" lon="5.00471">
        <ele>247.8</ele>
        <time>2024-05-17T09:13:59Z</time>
      </trkpt>
      <trkpt lat="44.69421" lon="5.00474">
        <ele>248</ele>
        <time>2024-05-17T09:14:00Z</time>
      </trkpt>
      <trkpt lat="44.69419" lon="5.00475">
        <ele>248.1</ele>
        <time>2024-05-17T09:14:01Z</time>
      </trkpt>
      <trkpt lat="44.69411" lon="5.00478">
        <ele>248.3</ele>
        <time>2024-05-17T09:14:02Z</time>
      </trkpt>
      <trkpt lat="44.69409" lon="5.00479">
        <ele>248.4</ele>
        <time>2024-05-17T09:14:03Z</time>
      </trkpt>
      <trkpt lat="44.69401" lon="5.00481">
        <ele>248.6</ele>
        <time>2024-05-17T09:14:04Z</time>
      </trkpt>
      <trkpt lat="44.69399" lon="5.00482">
        <ele>248.6</ele>
        <time>2024-05-17T09:14:05Z</time>
      </trkpt>
      <trkpt lat="44.69394" lon="5.00484">
        <ele>248.8</ele>
        <time>2024-05-17T09:14:06Z</time>
      </trkpt>
      <trkpt lat="44.69389" lon="5.00487">
        <ele>248.9</ele>
        <time>2024-05-17T09:14:07Z</time>
      </trkpt>
      <trkpt lat="44.69382" lon="5.0049">
        <ele>249.1</ele>
        <time>2024-05-17T09:14:08Z</time>
      </trkpt>
      <trkpt lat="44.6938" lon="5.00491">
        <ele>249.1</ele>
        <time>2024-05-17T09:14:09Z</time>
      </trkpt>
      <trkpt lat="44.69375" lon="5.00493">
        <ele>249.3</ele>
        <time>2024-05-17T09:14:10Z</time>
      </trkpt>
      <trkpt lat="44.6937" lon="5.00495">
        <ele>249.4</ele>
        <time>2024-05-17T09:14:11Z</time>
      </trkpt>
      <trkpt lat="44.69366" lon="5.00498">
        <ele>249.5</ele>
        <time>2024-05-17T09:14:12Z</time>
      </trkpt>
      <trkpt lat="44.69361" lon="5.005">
        <ele>249.6</ele>
        <time>2024-05-17T09:14:13Z</time>
      </trkpt>
      <trkpt lat="44.69356" lon="5.00503">
        <ele>249.7</ele>
        <time>2024-05-17T09:14:14Z</time>
      </trkpt>
      <trkpt lat="44.69351" lon="5.00506">
        <ele>249.9</ele>
        <time>2024-05-17T09:14:15Z</time>
      </trkpt>
      <trkpt lat="44.69347" lon="5.00509">
        <ele>250</ele>
        <time>2024-05-17T09:14:16Z</time>
      </trkpt>
      <trkpt lat="44.69342" lon="5.00512">
        <ele>250.2</ele>
        <time>2024-05-17T09:14:17Z</time>
      </trkpt>
      <trkpt lat="44.69337" lon="5.00515">
        <ele>250.3</ele>
        <time>2024-05-17T09:14:18Z</time>
      </trkpt>
      <trkpt lat="44.69333" lon="5.00519">
        <ele>250.4</ele>
        <time>2024-05-17T09:14:19Z</time>
      </trkpt>
      <trkpt lat="44.69325" lon="5.00523">
        <ele>250.5</ele>
        <time>2024-05-17T09:14:20Z</time>
      </trkpt>
      <trkpt lat="44.69323" lon="5.00525">
        <ele>250.5</ele>
        <time>2024-05-17T09:14:21Z</time>
      </trkpt>
      <trkpt lat="44.69318" lon="5.00529">
        <ele>250.5</ele>
        <time>2024-05-17T09:14:22Z</time>
      </trkpt>
      <trkpt lat="44.69311" lon="5.00535">
        <ele>250.6</ele>
        <time>2024-05-17T09:14:23Z</time>
      </trkpt>
      <trkpt lat="44.69309" lon="5.00537">
        <ele>250.6</ele>
        <time>2024-05-17T09:14:24Z</time>
      </trkpt>
      <trkpt lat="44.69301" lon="5.00543">
        <ele>250.6</ele>
        <time>2024-05-17T09:14:25Z</time>
      </trkpt>
      <trkpt lat="44.69299" lon="5.00546">
        <ele>250.6</ele>
        <time>2024-05-17T09:14:26Z</time>
      </trkpt>
      <trkpt lat="44.69291" lon="5.00552">
        <ele>250.6</ele>
        <time>2024-05-17T09:14:27Z</time>
      </trkpt>
      <trkpt lat="44.69289" lon="5.00555">
        <ele>250.6</ele>
        <time>2024-05-17T09:14:28Z</time>
      </trkpt>
      <trkpt lat="44.69283" lon="5.00559">
        <ele>250.6</ele>
        <time>2024-05-17T09:14:29Z</time>
      </trkpt>
      <trkpt lat="44.69275" lon="5.00566">
        <ele>250.6</ele>
        <time>2024-05-17T09:14:30Z</time>
      </trkpt>
      <trkpt lat="44.69272" lon="5.00568">
        <ele>250.6</ele>
        <time>2024-05-17T09:14:31Z</time>
      </trkpt>
      <trkpt lat="44.69267" lon="5.00573">
        <ele>250.6</ele>
        <time>2024-05-17T09:14:32Z</time>
      </trkpt>
      <trkpt lat="44.69262" lon="5.00578">
        <ele>250.6</ele>
        <time>2024-05-17T09:14:33Z</time>
      </trkpt>
      <trkpt lat="44.69253" lon="5.00585">
        <ele>250.6</ele>
        <time>2024-05-17T09:14:34Z</time>
      </trkpt>
      <trkpt lat="44.6925" lon="5.00587">
        <ele>250.6</ele>
        <time>2024-05-17T09:14:35Z</time>
      </trkpt>
      <trkpt lat="44.69242" lon="5.00594">
        <ele>250.6</ele>
        <time>2024-05-17T09:14:36Z</time>
      </trkpt>
      <trkpt lat="44.69239" lon="5.00597">
        <ele>250.6</ele>
        <time>2024-05-17T09:14:37Z</time>
      </trkpt>
      <trkpt lat="44.69234" lon="5.00602">
        <ele>250.6</ele>
        <time>2024-05-17T09:14:38Z</time>
      </trkpt>
      <trkpt lat="44.69228" lon="5.00606">
        <ele>250.6</ele>
        <time>2024-05-17T09:14:39Z</time>
      </trkpt>
      <trkpt lat="44.69223" lon="5.00611">
        <ele>250.6</ele>
        <time>2024-05-17T09:14:40Z</time>
      </trkpt>
      <trkpt lat="44.69217" lon="5.00615">
        <ele>250.6</ele>
        <time>2024-05-17T09:14:41Z</time>
      </trkpt>
      <trkpt lat="44.69211" lon="5.00619">
        <ele>250.6</ele>
        <time>2024-05-17T09:14:42Z</time>
      </trkpt>
      <trkpt lat="44.69205" lon="5.00622">
        <ele>250.6</ele>
        <time>2024-05-17T09:14:43Z</time>
      </trkpt>
      <trkpt lat="44.69196" lon="5.00627">
        <ele>250.7</ele>
        <time>2024-05-17T09:14:44Z</time>
      </trkpt>
      <trkpt lat="44.69193" lon="5.00628">
        <ele>250.7</ele>
        <time>2024-05-17T09:14:45Z</time>
      </trkpt>
      <trkpt lat="44.69183" lon="5.00632">
        <ele>250.7</ele>
        <time>2024-05-17T09:14:46Z</time>
      </trkpt>
      <trkpt lat="44.69179" lon="5.00633">
        <ele>250.7</ele>
        <time>2024-05-17T09:14:47Z</time>
      </trkpt>
      <trkpt lat="44.6917" lon="5.00635">
        <ele>250.8</ele>
        <time>2024-05-17T09:14:48Z</time>
      </trkpt>
      <trkpt lat="44.69167" lon="5.00635">
        <ele>250.8</ele>
        <time>2024-05-17T09:14:49Z</time>
      </trkpt>
      <trkpt lat="44.69157" lon="5.00637">
        <ele>250.8</ele>
        <time>2024-05-17T09:14:50Z</time>
      </trkpt>
      <trkpt lat="44.69154" lon="5.00637">
        <ele>250.8</ele>
        <time>2024-05-17T09:14:51Z</time>
      </trkpt>
      <trkpt lat="44.69144" lon="5.00638">
        <ele>250.9</ele>
        <time>2024-05-17T09:14:52Z</time>
      </trkpt>
      <trkpt lat="44.69141" lon="5.00638">
        <ele>250.9</ele>
        <time>2024-05-17T09:14:53Z</time>
      </trkpt>
      <trkpt lat="44.69135" lon="5.00639">
        <ele>251</ele>
        <time>2024-05-17T09:14:54Z</time>
      </trkpt>
      <trkpt lat="44.69129" lon="5.00639">
        <ele>251.1</ele>
        <time>2024-05-17T09:14:55Z</time>
      </trkpt>
      <trkpt lat="44.69123" lon="5.0064">
        <ele>251.1</ele>
        <time>2024-05-17T09:14:56Z</time>
      </trkpt>
      <trkpt lat="44.69117" lon="5.00641">
        <ele>251.2</ele>
        <time>2024-05-17T09:14:57Z</time>
      </trkpt>
      <trkpt lat="44.69111" lon="5.00641">
        <ele>251.2</ele>
        <time>2024-05-17T09:14:58Z</time>
      </trkpt>
      <trkpt lat="44.69105" lon="5.00643">
        <ele>251.3</ele>
        <time>2024-05-17T09:14:59Z</time>
      </trkpt>
      <trkpt lat="44.691" lon="5.00644">
        <ele>251.3</ele>
        <time>2024-05-17T09:15:00Z</time>
      </trkpt>
      <trkpt lat="44.69094" lon="5.00645">
        <ele>251.3</ele>
        <time>2024-05-17T09:15:01Z</time>
      </trkpt>
      <trkpt lat="44.69086" lon="5.00647">
        <ele>251.4</ele>
        <time>2024-05-17T09:15:02Z</time>
      </trkpt>
      <trkpt lat="44.69083" lon="5.00648">
        <ele>251.4</ele>
        <time>2024-05-17T09:15:03Z</time>
      </trkpt>
      <trkpt lat="44.69075" lon="5.0065">
        <ele>251.4</ele>
        <time>2024-05-17T09:15:04Z</time>
      </trkpt>
      <trkpt lat="44.69072" lon="5.00652">
        <ele>251.4</ele>
        <time>2024-05-17T09:15:05Z</time>
      </trkpt>
      <trkpt lat="44.69063" lon="5.00655">
        <ele>251.4</ele>
        <time>2024-05-17T09:15:06Z</time>
      </trkpt>
      <trkpt lat="44.69061" lon="5.00656">
        <ele>251.4</ele>
        <time>2024-05-17T09:15:07Z</time>
      </trkpt>
      <trkpt lat="44.69052" lon="5.0066">
        <ele>251.5</ele>
        <time>2024-05-17T09:15:08Z</time>
      </trkpt>
      <trkpt lat="44.69049" lon="5.00662">
        <ele>251.5</ele>
        <time>2024-05-17T09:15:09Z</time>
      </trkpt>
      <trkpt lat="44.69043" lon="5.00664">
        <ele>251.5</ele>
        <time>2024-05-17T09:15:10Z</time>
      </trkpt>
      <trkpt lat="44.69035" lon="5.00668">
        <ele>251.5</ele>
        <time>2024-05-17T09:15:11Z</time>
      </trkpt>
      <trkpt lat="44.69032" lon="5.0067">
        <ele>251.5</ele>
        <time>2024-05-17T09:15:12Z</time>
      </trkpt>
      <trkpt lat="44.69023" lon="5.00674">
        <ele>251.5</ele>
        <time>2024-05-17T09:15:13Z</time>
      </trkpt>
      <trkpt lat="44.69021" lon="5.00675">
        <ele>251.6</ele>
        <time>2024-05-17T09:15:14Z</time>
      </trkpt>
      <trkpt lat="44.69015" lon="5.00678">
        <ele>251.6</ele>
        <time>2024-05-17T09:15:15Z</time>
      </trkpt>
      <trkpt lat="44.69009" lon="5.0068">
        <ele>251.7</ele>
        <time>2024-05-17T09:15:16Z</time>
      </trkpt>
      <trkpt lat="44.69003" lon="5.00682">
        <ele>251.8</ele>
        <time>2024-05-17T09:15:17Z</time>
      </trkpt>
      <trkpt lat="44.68997" lon="5.00683">
        <ele>251.8</ele>
        <time>2024-05-17T09:15:18Z</time>
      </trkpt>
      <trkpt lat="44.68988" lon="5.00684">
        <ele>251.9</ele>
        <time>2024-05-17T09:15:19Z</time>
      </trkpt>
      <trkpt lat="44.68985" lon="5.00684">
        <ele>251.9</ele>
        <time>2024-05-17T09:15:20Z</time>
      </trkpt>
      <trkpt lat="44.68979" lon="5.00685">
        <ele>251.9</ele>
        <time>2024-05-17T09:15:21Z</time>
      </trkpt>
      <trkpt lat="44.68973" lon="5.00685">
        <ele>251.9</ele>
        <time>2024-05-17T09:15:22Z</time>
      </trkpt>
      <trkpt lat="44.68967" lon="5.00684">
        <ele>251.9</ele>
        <time>2024-05-17T09:15:23Z</time>
      </trkpt>
      <trkpt lat="44.68961" lon="5.00683">
        <ele>251.9</ele>
        <time>2024-05-17T09:15:24Z</time>
      </trkpt>
      <trkpt lat="44.68955" lon="5.00681">
        <ele>251.9</ele>
        <time>2024-05-17T09:15:25Z</time>
      </trkpt>
      <trkpt lat="44.6895" lon="5.0068">
        <ele>251.9</ele>
        <time>2024-05-17T09:15:26Z</time>
      </trkpt>
      <trkpt lat="44.68941" lon="5.00677">
        <ele>251.9</ele>
        <time>2024-05-17T09:15:27Z</time>
      </trkpt>
      <trkpt lat="44.68939" lon="5.00676">
        <ele>251.9</ele>
        <time>2024-05-17T09:15:28Z</time>
      </trkpt>
      <trkpt lat="44.6893" lon="5.00673">
        <ele>251.9</ele>
        <time>2024-05-17T09:15:29Z</time>
      </trkpt>
      <trkpt lat="44.68928" lon="5.00672">
        <ele>251.9</ele>
        <time>2024-05-17T09:15:30Z</time>
      </trkpt>
      <trkpt lat="44.68919" lon="5.00669">
        <ele>252</ele>
        <time>2024-05-17T09:15:31Z</time>
      </trkpt>
      <trkpt lat="44.68916" lon="5.00668">
        <ele>252</ele>
        <time>2024-05-17T09:15:32Z</time>
      </trkpt>
      <trkpt lat="44.68908" lon="5.00665">
        <ele>252</ele>
        <time>2024-05-17T09:15:33Z</time>
      </trkpt>
      <trkpt lat="44.68905" lon="5.00664">
        <ele>252.1</ele>
        <time>2024-05-17T09:15:34Z</time>
      </trkpt>
      <trkpt lat="44.68896" lon="5.00662">
        <ele>252.1</ele>
        <time>2024-05-17T09:15:35Z</time>
      </trkpt>
      <trkpt lat="44.68894" lon="5.00661">
        <ele>252.1</ele>
        <time>2024-05-17T09:15:36Z</time>
      </trkpt>
      <trkpt lat="44.68888" lon="5.00659">
        <ele>252.2</ele>
        <time>2024-05-17T09:15:37Z</time>
      </trkpt>
      <trkpt lat="44.68882" lon="5.00658">
        <ele>252.2</ele>
        <time>2024-05-17T09:15:38Z</time>
      </trkpt>
      <trkpt lat="44.68874" lon="5.00656">
        <ele>252.3</ele>
        <time>2024-05-17T09:15:39Z</time>
      </trkpt>
      <trkpt lat="44.68871" lon="5.00656">
        <ele>252.3</ele>
        <time>2024-05-17T09:15:40Z</time>
      </trkpt>
      <trkpt lat="44.68866" lon="5.00655">
        <ele>252.4</ele>
        <time>2024-05-17T09:15:41Z</time>
      </trkpt>
      <trkpt lat="44.6886" lon="5.00655">
        <ele>252.4</ele>
        <time>2024-05-17T09:15:42Z</time>
      </trkpt>
      <trkpt lat="44.68854" lon="5.00655">
        <ele>252.4</ele>
        <time>2024-05-17T09:15:43Z</time>
      </trkpt>
      <trkpt lat="44.68849" lon="5.00656">
        <ele>252.5</ele>
        <time>2024-05-17T09:15:44Z</time>
      </trkpt>
      <trkpt lat="44.6884" lon="5.00659">
        <ele>252.5</ele>
        <time>2024-05-17T09:15:45Z</time>
      </trkpt>
      <trkpt lat="44.68837" lon="5.00659">
        <ele>252.5</ele>
        <time>2024-05-17T09:15:46Z</time>
      </trkpt>
      <trkpt lat="44.68832" lon="5.00661">
        <ele>252.6</ele>
        <time>2024-05-17T09:15:47Z</time>
      </trkpt>
      <trkpt lat="44.68824" lon="5.00664">
        <ele>252.6</ele>
        <time>2024-05-17T09:15:48Z</time>
      </trkpt>
      <trkpt lat="44.68821" lon="5.00665">
        <ele>252.7</ele>
        <time>2024-05-17T09:15:49Z</time>
      </trkpt>
      <trkpt lat="44.68813" lon="5.00668">
        <ele>252.7</ele>
        <time>2024-05-17T09:15:50Z</time>
      </trkpt>
      <trkpt lat="44.6881" lon="5.0067">
        <ele>252.8</ele>
        <time>2024-05-17T09:15:51Z</time>
      </trkpt>
      <trkpt lat="44.68802" lon="5.00674">
        <ele>252.8</ele>
        <time>2024-05-17T09:15:52Z</time>
      </trkpt>
      <trkpt lat="44.688" lon="5.00676">
        <ele>252.9</ele>
        <time>2024-05-17T09:15:53Z</time>
      </trkpt>
      <trkpt lat="44.68794" lon="5.00679">
        <ele>252.9</ele>
        <time>2024-05-17T09:15:54Z</time>
      </trkpt>
      <trkpt lat="44.68787" lon="5.00686">
        <ele>252.9</ele>
        <time>2024-05-17T09:15:55Z</time>
      </trkpt>
      <trkpt lat="44.68785" lon="5.00688">
        <ele>252.9</ele>
        <time>2024-05-17T09:15:56Z</time>
      </trkpt>
      <trkpt lat="44.68778" lon="5.00695">
        <ele>252.9</ele>
        <time>2024-05-17T09:15:57Z</time>
      </trkpt>
      <trkpt lat="44.68776" lon="5.00698">
        <ele>253</ele>
        <time>2024-05-17T09:15:58Z</time>
      </trkpt>
      <trkpt lat="44.68771" lon="5.00704">
        <ele>253</ele>
        <time>2024-05-17T09:15:59Z</time>
      </trkpt>
      <trkpt lat="44.68767" lon="5.00709">
        <ele>253</ele>
        <time>2024-05-17T09:16:00Z</time>
      </trkpt>
      <trkpt lat="44.68763" lon="5.00715">
        <ele>253</ele>
        <time>2024-05-17T09:16:01Z</time>
      </trkpt>
      <trkpt lat="44.68757" lon="5.00725">
        <ele>253.1</ele>
        <time>2024-05-17T09:16:02Z</time>
      </trkpt>
      <trkpt lat="44.68755" lon="5.00728">
        <ele>253.2</ele>
        <time>2024-05-17T09:16:03Z</time>
      </trkpt>
      <trkpt lat="44.68752" lon="5.00734">
        <ele>253.3</ele>
        <time>2024-05-17T09:16:04Z</time>
      </trkpt>
      <trkpt lat="44.68748" lon="5.00741">
        <ele>253.4</ele>
        <time>2024-05-17T09:16:05Z</time>
      </trkpt>
      <trkpt lat="44.68744" lon="5.00747">
        <ele>253.5</ele>
        <time>2024-05-17T09:16:06Z</time>
      </trkpt>
      <trkpt lat="44.68741" lon="5.00754">
        <ele>253.5</ele>
        <time>2024-05-17T09:16:07Z</time>
      </trkpt>
      <trkpt lat="44.68735" lon="5.00763">
        <ele>253.7</ele>
        <time>2024-05-17T09:16:08Z</time>
      </trkpt>
      <trkpt lat="44.68734" lon="5.00766">
        <ele>253.7</ele>
        <time>2024-05-17T09:16:09Z</time>
      </trkpt>
      <trkpt lat="44.68728" lon="5.00775">
        <ele>253.8</ele>
        <time>2024-05-17T09:16:10Z</time>
      </trkpt>
      <trkpt lat="44.68727" lon="5.00778">
        <ele>253.8</ele>
        <time>2024-05-17T09:16:11Z</time>
      </trkpt>
      <trkpt lat="44.68722" lon="5.00787">
        <ele>253.9</ele>
        <time>2024-05-17T09:16:12Z</time>
      </trkpt>
      <trkpt lat="44.6872" lon="5.0079">
        <ele>253.9</ele>
        <time>2024-05-17T09:16:13Z</time>
      </trkpt>
      <trkpt lat="44.68715" lon="5.00799">
        <ele>254</ele>
        <time>2024-05-17T09:16:14Z</time>
      </trkpt>
      <trkpt lat="44.68714" lon="5.00801">
        <ele>254</ele>
        <time>2024-05-17T09:16:15Z</time>
      </trkpt>
      <trkpt lat="44.68708" lon="5.0081">
        <ele>254.1</ele>
        <time>2024-05-17T09:16:16Z</time>
      </trkpt>
      <trkpt lat="44.68707" lon="5.00813">
        <ele>254.1</ele>
        <time>2024-05-17T09:16:17Z</time>
      </trkpt>
      <trkpt lat="44.68703" lon="5.00818">
        <ele>254.2</ele>
        <time>2024-05-17T09:16:18Z</time>
      </trkpt>
      <trkpt lat="44.68701" lon="5.00824">
        <ele>254.2</ele>
        <time>2024-05-17T09:16:19Z</time>
      </trkpt>
      <trkpt lat="44.68697" lon="5.00829">
        <ele>254.3</ele>
        <time>2024-05-17T09:16:20Z</time>
      </trkpt>
      <trkpt lat="44.68694" lon="5.00834">
        <ele>254.3</ele>
        <time>2024-05-17T09:16:21Z</time>
      </trkpt>
      <trkpt lat="44.68691" lon="5.0084">
        <ele>254.4</ele>
        <time>2024-05-17T09:16:22Z</time>
      </trkpt>
      <trkpt lat="44.68688" lon="5.00845">
        <ele>254.4</ele>
        <time>2024-05-17T09:16:23Z</time>
      </trkpt>
      <trkpt lat="44.68685" lon="5.0085">
        <ele>254.5</ele>
        <time>2024-05-17T09:16:24Z</time>
      </trkpt>
      <trkpt lat="44.6868" lon="5.00859">
        <ele>254.6</ele>
        <time>2024-05-17T09:16:25Z</time>
      </trkpt>
      <trkpt lat="44.68679" lon="5.00862">
        <ele>254.6</ele>
        <time>2024-05-17T09:16:26Z</time>
      </trkpt>
      <trkpt lat="44.68674" lon="5.0087">
        <ele>254.6</ele>
        <time>2024-05-17T09:16:27Z</time>
      </trkpt>
      <trkpt lat="44.68672" lon="5.00873">
        <ele>254.7</ele>
        <time>2024-05-17T09:16:28Z</time>
      </trkpt>
      <trkpt lat="44.68669" lon="5.00878">
        <ele>254.7</ele>
        <time>2024-05-17T09:16:29Z</time>
      </trkpt>
      <trkpt lat="44.68664" lon="5.00886">
        <ele>254.8</ele>
        <time>2024-05-17T09:16:30Z</time>
      </trkpt>
      <trkpt lat="44.68663" lon="5.00889">
        <ele>254.8</ele>
        <time>2024-05-17T09:16:31Z</time>
      </trkpt>
      <trkpt lat="44.68658" lon="5.00898">
        <ele>254.9</ele>
        <time>2024-05-17T09:16:32Z</time>
      </trkpt>
      <trkpt lat="44.68656" lon="5.009">
        <ele>254.9</ele>
        <time>2024-05-17T09:16:33Z</time>
      </trkpt>
      <trkpt lat="44.68651" lon="5.00909">
        <ele>255</ele>
        <time>2024-05-17T09:16:34Z</time>
      </trkpt>
      <trkpt lat="44.6865" lon="5.00912">
        <ele>255</ele>
        <time>2024-05-17T09:16:35Z</time>
      </trkpt>
      <trkpt lat="44.68647" lon="5.00917">
        <ele>255.1</ele>
        <time>2024-05-17T09:16:36Z</time>
      </trkpt>
      <trkpt lat="44.68642" lon="5.00926">
        <ele>255.2</ele>
        <time>2024-05-17T09:16:37Z</time>
      </trkpt>
      <trkpt lat="44.6864" lon="5.00928">
        <ele>255.3</ele>
        <time>2024-05-17T09:16:38Z</time>
      </trkpt>
      <trkpt lat="44.68636" lon="5.00936">
        <ele>255.4</ele>
        <time>2024-05-17T09:16:39Z</time>
      </trkpt>
      <trkpt lat="44.68634" lon="5.00939">
        <ele>255.5</ele>
        <time>2024-05-17T09:16:40Z</time>
      </trkpt>
      <trkpt lat="44.6863" lon="5.00947">
        <ele>255.6</ele>
        <time>2024-05-17T09:16:41Z</time>
      </trkpt>
      <trkpt lat="44.68629" lon="5.00949">
        <ele>255.6</ele>
        <time>2024-05-17T09:16:42Z</time>
      </trkpt>
      <trkpt lat="44.68624" lon="5.00957">
        <ele>255.8</ele>
        <time>2024-05-17T09:16:43Z</time>
      </trkpt>
      <trkpt lat="44.68623" lon="5.0096">
        <ele>255.8</ele>
        <time>2024-05-17T09:16:44Z</time>
      </trkpt>
      <trkpt lat="44.6862" lon="5.00965">
        <ele>255.9</ele>
        <time>2024-05-17T09:16:45Z</time>
      </trkpt>
      <trkpt lat="44.68617" lon="5.0097">
        <ele>256</ele>
        <time>2024-05-17T09:16:46Z</time>
      </trkpt>
      <trkpt lat="44.68614" lon="5.00975">
        <ele>256.1</ele>
        <time>2024-05-17T09:16:47Z</time>
      </trkpt>
      <trkpt lat="44.68611" lon="5.00981">
        <ele>256.2</ele>
        <time>2024-05-17T09:16:48Z</time>
      </trkpt>
      <trkpt lat="44.68608" lon="5.00986">
        <ele>256.3</ele>
        <time>2024-05-17T09:16:49Z</time>
      </trkpt>
      <trkpt lat="44.68605" lon="5.00991">
        <ele>256.4</ele>
        <time>2024-05-17T09:16:50Z</time>
      </trkpt>
      <trkpt lat="44.68603" lon="5.00996">
        <ele>256.6</ele>
        <time>2024-05-17T09:16:51Z</time>
      </trkpt>
      <trkpt lat="44.686" lon="5.01001">
        <ele>256.7</ele>
        <time>2024-05-17T09:16:52Z</time>
      </trkpt>
      <trkpt lat="44.68597" lon="5.01006">
        <ele>256.8</ele>
        <time>2024-05-17T09:16:53Z</time>
      </trkpt>
      <trkpt lat="44.68594" lon="5.01011">
        <ele>257</ele>
        <time>2024-05-17T09:16:54Z</time>
      </trkpt>
      <trkpt lat="44.6859" lon="5.01018">
        <ele>257.2</ele>
        <time>2024-05-17T09:16:55Z</time>
      </trkpt>
      <trkpt lat="44.68588" lon="5.01021">
        <ele>257.3</ele>
        <time>2024-05-17T09:16:56Z</time>
      </trkpt>
      <trkpt lat="44.68584" lon="5.01028">
        <ele>257.5</ele>
        <time>2024-05-17T09:16:57Z</time>
      </trkpt>
      <trkpt lat="44.68582" lon="5.0103">
        <ele>257.5</ele>
        <time>2024-05-17T09:16:58Z</time>
      </trkpt>
      <trkpt lat="44.68578" lon="5.01037">
        <ele>257.7</ele>
        <time>2024-05-17T09:16:59Z</time>
      </trkpt>
      <trkpt lat="44.68576" lon="5.0104">
        <ele>257.8</ele>
        <time>2024-05-17T09:17:00Z</time>
      </trkpt>
      <trkpt lat="44.68573" lon="5.01045">
        <ele>257.9</ele>
        <time>2024-05-17T09:17:01Z</time>
      </trkpt>
      <trkpt lat="44.68571" lon="5.0105">
        <ele>258.1</ele>
        <time>2024-05-17T09:17:02Z</time>
      </trkpt>
      <trkpt lat="44.68568" lon="5.01055">
        <ele>258.2</ele>
        <time>2024-05-17T09:17:03Z</time>
      </trkpt>
      <trkpt lat="44.68565" lon="5.01059">
        <ele>258.3</ele>
        <time>2024-05-17T09:17:04Z</time>
      </trkpt>
      <trkpt lat="44.68563" lon="5.01064">
        <ele>258.5</ele>
        <time>2024-05-17T09:17:05Z</time>
      </trkpt>
      <trkpt lat="44.6856" lon="5.01068">
        <ele>258.6</ele>
        <time>2024-05-17T09:17:06Z</time>
      </trkpt>
      <trkpt lat="44.68557" lon="5.01073">
        <ele>258.7</ele>
        <time>2024-05-17T09:17:07Z</time>
      </trkpt>
      <trkpt lat="44.68554" lon="5.01078">
        <ele>258.8</ele>
        <time>2024-05-17T09:17:08Z</time>
      </trkpt>
      <trkpt lat="44.6855" lon="5.01085">
        <ele>259</ele>
        <time>2024-05-17T09:17:09Z</time>
      </trkpt>
      <trkpt lat="44.68548" lon="5.01087">
        <ele>259</ele>
        <time>2024-05-17T09:17:10Z</time>
      </trkpt>
      <trkpt lat="44.68544" lon="5.01094">
        <ele>259.2</ele>
        <time>2024-05-17T09:17:11Z</time>
      </trkpt>
      <trkpt lat="44.68543" lon="5.01096">
        <ele>259.2</ele>
        <time>2024-05-17T09:17:12Z</time>
      </trkpt>
      <trkpt lat="44.6854" lon="5.01101">
        <ele>259.4</ele>
        <time>2024-05-17T09:17:13Z</time>
      </trkpt>
      <trkpt lat="44.68536" lon="5.01108">
        <ele>259.6</ele>
        <time>2024-05-17T09:17:14Z</time>
      </trkpt>
      <trkpt lat="44.68535" lon="5.01111">
        <ele>259.6</ele>
        <time>2024-05-17T09:17:15Z</time>
      </trkpt>
      <trkpt lat="44.68531" lon="5.01118">
        <ele>259.9</ele>
        <time>2024-05-17T09:17:16Z</time>
      </trkpt>
      <trkpt lat="44.68529" lon="5.0112">
        <ele>259.9</ele>
        <time>2024-05-17T09:17:17Z</time>
      </trkpt>
      <trkpt lat="44.68526" lon="5.01125">
        <ele>260.1</ele>
        <time>2024-05-17T09:17:18Z</time>
      </trkpt>
      <trkpt lat="44.68522" lon="5.01132">
        <ele>260.3</ele>
        <time>2024-05-17T09:17:19Z</time>
      </trkpt>
      <trkpt lat="44.68521" lon="5.01134">
        <ele>260.3</ele>
        <time>2024-05-17T09:17:20Z</time>
      </trkpt>
      <trkpt lat="44.68519" lon="5.01139">
        <ele>260.5</ele>
        <time>2024-05-17T09:17:21Z</time>
      </trkpt>
      <trkpt lat="44.68516" lon="5.01143">
        <ele>260.6</ele>
        <time>2024-05-17T09:17:22Z</time>
      </trkpt>
      <trkpt lat="44.68512" lon="5.01149">
        <ele>260.8</ele>
        <time>2024-05-17T09:17:23Z</time>
      </trkpt>
      <trkpt lat="44.6851" lon="5.01152">
        <ele>260.8</ele>
        <time>2024-05-17T09:17:24Z</time>
      </trkpt>
      <trkpt lat="44.68506" lon="5.01158">
        <ele>261</ele>
        <time>2024-05-17T09:17:25Z</time>
      </trkpt>
      <trkpt lat="44.68504" lon="5.0116">
        <ele>261</ele>
        <time>2024-05-17T09:17:26Z</time>
      </trkpt>
      <trkpt lat="44.68499" lon="5.01166">
        <ele>261.2</ele>
        <time>2024-05-17T09:17:27Z</time>
      </trkpt>
      <trkpt lat="44.68497" lon="5.01168">
        <ele>261.2</ele>
        <time>2024-05-17T09:17:28Z</time>
      </trkpt>
      <trkpt lat="44.68494" lon="5.01172">
        <ele>261.4</ele>
        <time>2024-05-17T09:17:29Z</time>
      </trkpt>
      <trkpt lat="44.6849" lon="5.01176">
        <ele>261.5</ele>
        <time>2024-05-17T09:17:30Z</time>
      </trkpt>
      <trkpt lat="44.68486" lon="5.01179">
        <ele>261.6</ele>
        <time>2024-05-17T09:17:31Z</time>
      </trkpt>
      <trkpt lat="44.68483" lon="5.01182">
        <ele>261.7</ele>
        <time>2024-05-17T09:17:32Z</time>
      </trkpt>
      <trkpt lat="44.68477" lon="5.01187">
        <ele>261.9</ele>
        <time>2024-05-17T09:17:33Z</time>
      </trkpt>
      <trkpt lat="44.68475" lon="5.01188">
        <ele>262</ele>
        <time>2024-05-17T09:17:34Z</time>
      </trkpt>
      <trkpt lat="44.6847" lon="5.01192">
        <ele>262.2</ele>
        <time>2024-05-17T09:17:35Z</time>
      </trkpt>
      <trkpt lat="44.68468" lon="5.01193">
        <ele>262.2</ele>
        <time>2024-05-17T09:17:36Z</time>
      </trkpt>
      <trkpt lat="44.68463" lon="5.01196">
        <ele>262.4</ele>
        <time>2024-05-17T09:17:37Z</time>
      </trkpt>
      <trkpt lat="44.68461" lon="5.01197">
        <ele>262.5</ele>
        <time>2024-05-17T09:17:38Z</time>
      </trkpt>
      <trkpt lat="44.68456" lon="5.012">
        <ele>262.7</ele>
        <time>2024-05-17T09:17:39Z</time>
      </trkpt>
      <trkpt lat="44.68454" lon="5.01201">
        <ele>262.7</ele>
        <time>2024-05-17T09:17:40Z</time>
      </trkpt>
      <trkpt lat="44.68448" lon="5.01205">
        <ele>262.9</ele>
        <time>2024-05-17T09:17:41Z</time>
      </trkpt>
      <trkpt lat="44.68447" lon="5.01206">
        <ele>263</ele>
        <time>2024-05-17T09:17:42Z</time>
      </trkpt>
      <trkpt lat="44.68441" lon="5.01209">
        <ele>263.2</ele>
        <time>2024-05-17T09:17:43Z</time>
      </trkpt>
      <trkpt lat="44.68439" lon="5.01211">
        <ele>263.3</ele>
        <time>2024-05-17T09:17:44Z</time>
      </trkpt>
      <trkpt lat="44.68435" lon="5.01212">
        <ele>263.4</ele>
        <time>2024-05-17T09:17:45Z</time>
      </trkpt>
      <trkpt lat="44.68431" lon="5.01214">
        <ele>263.6</ele>
        <time>2024-05-17T09:17:46Z</time>
      </trkpt>
      <trkpt lat="44.68427" lon="5.01217">
        <ele>263.7</ele>
        <time>2024-05-17T09:17:47Z</time>
      </trkpt>
      <trkpt lat="44.68423" lon="5.01219">
        <ele>263.8</ele>
        <time>2024-05-17T09:17:48Z</time>
      </trkpt>
      <trkpt lat="44.68419" lon="5.0122">
        <ele>264</ele>
        <time>2024-05-17T09:17:49Z</time>
      </trkpt>
      <trkpt lat="44.68415" lon="5.01222">
        <ele>264.1</ele>
        <time>2024-05-17T09:17:50Z</time>
      </trkpt>
      <trkpt lat="44.68412" lon="5.01224">
        <ele>264.2</ele>
        <time>2024-05-17T09:17:51Z</time>
      </trkpt>
      <trkpt lat="44.68408" lon="5.01226">
        <ele>264.4</ele>
        <time>2024-05-17T09:17:52Z</time>
      </trkpt>
      <trkpt lat="44.68405" lon="5.01228">
        <ele>264.5</ele>
        <time>2024-05-17T09:17:53Z</time>
      </trkpt>
      <trkpt lat="44.68401" lon="5.0123">
        <ele>264.7</ele>
        <time>2024-05-17T09:17:54Z</time>
      </trkpt>
      <trkpt lat="44.68396" lon="5.01233">
        <ele>264.8</ele>
        <time>2024-05-17T09:17:55Z</time>
      </trkpt>
      <trkpt lat="44.68394" lon="5.01234">
        <ele>264.9</ele>
        <time>2024-05-17T09:17:56Z</time>
      </trkpt>
      <trkpt lat="44.6839" lon="5.01236">
        <ele>265</ele>
        <time>2024-05-17T09:17:57Z</time>
      </trkpt>
      <trkpt lat="44.68387" lon="5.01238">
        <ele>265.2</ele>
        <time>2024-05-17T09:17:58Z</time>
      </trkpt>
      <trkpt lat="44.68381" lon="5.01241">
        <ele>265.4</ele>
        <time>2024-05-17T09:17:59Z</time>
      </trkpt>
      <trkpt lat="44.6838" lon="5.01242">
        <ele>265.4</ele>
        <time>2024-05-17T09:18:00Z</time>
      </trkpt>
      <trkpt lat="44.68376" lon="5.01244">
        <ele>265.6</ele>
        <time>2024-05-17T09:18:01Z</time>
      </trkpt>
      <trkpt lat="44.68371" lon="5.01247">
        <ele>265.7</ele>
        <time>2024-05-17T09:18:02Z</time>
      </trkpt>
      <trkpt lat="44.68369" lon="5.01248">
        <ele>265.8</ele>
        <time>2024-05-17T09:18:03Z</time>
      </trkpt>
      <trkpt lat="44.68363" lon="5.0125">
        <ele>266</ele>
        <time>2024-05-17T09:18:04Z</time>
      </trkpt>
      <trkpt lat="44.68361" lon="5.01251">
        <ele>266.1</ele>
        <time>2024-05-17T09:18:05Z</time>
      </trkpt>
      <trkpt lat="44.68356" lon="5.01254">
        <ele>266.3</ele>
        <time>2024-05-17T09:18:06Z</time>
      </trkpt>
      <trkpt lat="44.68354" lon="5.01256">
        <ele>266.3</ele>
        <time>2024-05-17T09:18:07Z</time>
      </trkpt>
      <trkpt lat="44.6835" lon="5.01258">
        <ele>266.5</ele>
        <time>2024-05-17T09:18:08Z</time>
      </trkpt>
      <trkpt lat="44.68346" lon="5.0126">
        <ele>266.6</ele>
        <time>2024-05-17T09:18:09Z</time>
      </trkpt>
      <trkpt lat="44.6834" lon="5.01264">
        <ele>266.8</ele>
        <time>2024-05-17T09:18:10Z</time>
      </trkpt>
      <trkpt lat="44.68338" lon="5.01265">
        <ele>266.9</ele>
        <time>2024-05-17T09:18:11Z</time>
      </trkpt>
      <trkpt lat="44.68334" lon="5.01267">
        <ele>267</ele>
        <time>2024-05-17T09:18:12Z</time>
      </trkpt>
      <trkpt lat="44.6833" lon="5.01269">
        <ele>267.2</ele>
        <time>2024-05-17T09:18:13Z</time>
      </trkpt>
      <trkpt lat="44.68327" lon="5.01271">
        <ele>267.3</ele>
        <time>2024-05-17T09:18:14Z</time>
      </trkpt>
      <trkpt lat="44.68323" lon="5.01273">
        <ele>267.5</ele>
        <time>2024-05-17T09:18:15Z</time>
      </trkpt>
      <trkpt lat="44.68317" lon="5.01275">
        <ele>267.7</ele>
        <time>2024-05-17T09:18:16Z</time>
      </trkpt>
      <trkpt lat="44.68315" lon="5.01276">
        <ele>267.7</ele>
        <time>2024-05-17T09:18:17Z</time>
      </trkpt>
      <trkpt lat="44.6831" lon="5.01279">
        <ele>267.9</ele>
        <time>2024-05-17T09:18:18Z</time>
      </trkpt>
      <trkpt lat="44.68308" lon="5.01281">
        <ele>268</ele>
        <time>2024-05-17T09:18:19Z</time>
      </trkpt>
      <trkpt lat="44.68302" lon="5.01284">
        <ele>268.1</ele>
        <time>2024-05-17T09:18:20Z</time>
      </trkpt>
      <trkpt lat="44.68301" lon="5.01285">
        <ele>268.2</ele>
        <time>2024-05-17T09:18:21Z</time>
      </trkpt>
      <trkpt lat="44.68295" lon="5.01288">
        <ele>268.3</ele>
        <time>2024-05-17T09:18:22Z</time>
      </trkpt>
      <trkpt lat="44.68293" lon="5.01289">
        <ele>268.4</ele>
        <time>2024-05-17T09:18:23Z</time>
      </trkpt>
      <trkpt lat="44.68287" lon="5.01292">
        <ele>268.6</ele>
        <time>2024-05-17T09:18:24Z</time>
      </trkpt>
      <trkpt lat="44.68285" lon="5.01293">
        <ele>268.6</ele>
        <time>2024-05-17T09:18:25Z</time>
      </trkpt>
      <trkpt lat="44.68278" lon="5.01297">
        <ele>268.8</ele>
        <time>2024-05-17T09:18:26Z</time>
      </trkpt>
      <trkpt lat="44.68276" lon="5.01298">
        <ele>268.9</ele>
        <time>2024-05-17T09:18:27Z</time>
      </trkpt>
      <trkpt lat="44.68272" lon="5.013">
        <ele>269</ele>
        <time>2024-05-17T09:18:28Z</time>
      </trkpt>
      <trkpt lat="44.68268" lon="5.01302">
        <ele>269.2</ele>
        <time>2024-05-17T09:18:29Z</time>
      </trkpt>
      <trkpt lat="44.68263" lon="5.01304">
        <ele>269.3</ele>
        <time>2024-05-17T09:18:30Z</time>
      </trkpt>
      <trkpt lat="44.68259" lon="5.01305">
        <ele>269.5</ele>
        <time>2024-05-17T09:18:31Z</time>
      </trkpt>
      <trkpt lat="44.68255" lon="5.01306">
        <ele>269.5</ele>
        <time>2024-05-17T09:18:32Z</time>
      </trkpt>
      <trkpt lat="44.68251" lon="5.01307">
        <ele>269.6</ele>
        <time>2024-05-17T09:18:33Z</time>
      </trkpt>
      <trkpt lat="44.68246" lon="5.01308">
        <ele>269.7</ele>
        <time>2024-05-17T09:18:34Z</time>
      </trkpt>
      <trkpt lat="44.68241" lon="5.01309">
        <ele>269.9</ele>
        <time>2024-05-17T09:18:35Z</time>
      </trkpt>
      <trkpt lat="44.68239" lon="5.01309">
        <ele>269.9</ele>
        <time>2024-05-17T09:18:36Z</time>
      </trkpt>
      <trkpt lat="44.68233" lon="5.01309">
        <ele>270.1</ele>
        <time>2024-05-17T09:18:37Z</time>
      </trkpt>
      <trkpt lat="44.68231" lon="5.0131">
        <ele>270.1</ele>
        <time>2024-05-17T09:18:38Z</time>
      </trkpt>
      <trkpt lat="44.68227" lon="5.0131">
        <ele>270.3</ele>
        <time>2024-05-17T09:18:39Z</time>
      </trkpt>
      <trkpt lat="44.68221" lon="5.01311">
        <ele>270.4</ele>
        <time>2024-05-17T09:18:40Z</time>
      </trkpt>
      <trkpt lat="44.68219" lon="5.01312">
        <ele>270.5</ele>
        <time>2024-05-17T09:18:41Z</time>
      </trkpt>
      <trkpt lat="44.68213" lon="5.01312">
        <ele>270.7</ele>
        <time>2024-05-17T09:18:42Z</time>
      </trkpt>
      <trkpt lat="44.68211" lon="5.01312">
        <ele>270.8</ele>
        <time>2024-05-17T09:18:43Z</time>
      </trkpt>
      <trkpt lat="44.68207" lon="5.01312">
        <ele>270.9</ele>
        <time>2024-05-17T09:18:44Z</time>
      </trkpt>
      <trkpt lat="44.68201" lon="5.01311">
        <ele>271.1</ele>
        <time>2024-05-17T09:18:45Z</time>
      </trkpt>
      <trkpt lat="44.68199" lon="5.01311">
        <ele>271.1</ele>
        <time>2024-05-17T09:18:46Z</time>
      </trkpt>
      <trkpt lat="44.68195" lon="5.01311">
        <ele>271.3</ele>
        <time>2024-05-17T09:18:47Z</time>
      </trkpt>
      <trkpt lat="44.6819" lon="5.01311">
        <ele>271.4</ele>
        <time>2024-05-17T09:18:48Z</time>
      </trkpt>
      <trkpt lat="44.68184" lon="5.01312">
        <ele>271.6</ele>
        <time>2024-05-17T09:18:49Z</time>
      </trkpt>
      <trkpt lat="44.68182" lon="5.01312">
        <ele>271.7</ele>
        <time>2024-05-17T09:18:50Z</time>
      </trkpt>
      <trkpt lat="44.68175" lon="5.01312">
        <ele>271.9</ele>
        <time>2024-05-17T09:18:51Z</time>
      </trkpt>
      <trkpt lat="44.68173" lon="5.01312">
        <ele>272</ele>
        <time>2024-05-17T09:18:52Z</time>
      </trkpt>
      <trkpt lat="44.68167" lon="5.01312">
        <ele>272.2</ele>
        <time>2024-05-17T09:18:53Z</time>
      </trkpt>
      <trkpt lat="44.68164" lon="5.01312">
        <ele>272.3</ele>
        <time>2024-05-17T09:18:54Z</time>
      </trkpt>
      <trkpt lat="44.6816" lon="5.01312">
        <ele>272.5</ele>
        <time>2024-05-17T09:18:55Z</time>
      </trkpt>
      <trkpt lat="44.68156" lon="5.01312">
        <ele>272.6</ele>
        <time>2024-05-17T09:18:56Z</time>
      </trkpt>
      <trkpt lat="44.68151" lon="5.01313">
        <ele>272.8</ele>
        <time>2024-05-17T09:18:57Z</time>
      </trkpt>
      <trkpt lat="44.68147" lon="5.01313">
        <ele>272.9</ele>
        <time>2024-05-17T09:18:58Z</time>
      </trkpt>
      <trkpt lat="44.68143" lon="5.01313">
        <ele>273.1</ele>
        <time>2024-05-17T09:18:59Z</time>
      </trkpt>
      <trkpt lat="44.68139" lon="5.01313">
        <ele>273.2</ele>
        <time>2024-05-17T09:19:00Z</time>
      </trkpt>
      <trkpt lat="44.68134" lon="5.01312">
        <ele>273.4</ele>
        <time>2024-05-17T09:19:01Z</time>
      </trkpt>
      <trkpt lat="44.68132" lon="5.01312">
        <ele>273.5</ele>
        <time>2024-05-17T09:19:02Z</time>
      </trkpt>
      <trkpt lat="44.68125" lon="5.01312">
        <ele>273.8</ele>
        <time>2024-05-17T09:19:03Z</time>
      </trkpt>
      <trkpt lat="44.68123" lon="5.01312">
        <ele>273.9</ele>
        <time>2024-05-17T09:19:04Z</time>
      </trkpt>
      <trkpt lat="44.68117" lon="5.01312">
        <ele>274.1</ele>
        <time>2024-05-17T09:19:05Z</time>
      </trkpt>
      <trkpt lat="44.68115" lon="5.01312">
        <ele>274.2</ele>
        <time>2024-05-17T09:19:06Z</time>
      </trkpt>
      <trkpt lat="44.68109" lon="5.0131">
        <ele>274.4</ele>
        <time>2024-05-17T09:19:07Z</time>
      </trkpt>
      <trkpt lat="44.68107" lon="5.0131">
        <ele>274.4</ele>
        <time>2024-05-17T09:19:08Z</time>
      </trkpt>
      <trkpt lat="44.68102" lon="5.01308">
        <ele>274.7</ele>
        <time>2024-05-17T09:19:09Z</time>
      </trkpt>
      <trkpt lat="44.681" lon="5.01307">
        <ele>274.7</ele>
        <time>2024-05-17T09:19:10Z</time>
      </trkpt>
      <trkpt lat="44.68096" lon="5.01305">
        <ele>274.9</ele>
        <time>2024-05-17T09:19:11Z</time>
      </trkpt>
      <trkpt lat="44.68092" lon="5.01304">
        <ele>275</ele>
        <time>2024-05-17T09:19:12Z</time>
      </trkpt>
      <trkpt lat="44.68089" lon="5.01303">
        <ele>275.1</ele>
        <time>2024-05-17T09:19:13Z</time>
      </trkpt>
      <trkpt lat="44.68085" lon="5.01301">
        <ele>275.3</ele>
        <time>2024-05-17T09:19:14Z</time>
      </trkpt>
      <trkpt lat="44.6808" lon="5.01298">
        <ele>275.5</ele>
        <time>2024-05-17T09:19:15Z</time>
      </trkpt>
      <trkpt lat="44.68078" lon="5.01296">
        <ele>275.6</ele>
        <time>2024-05-17T09:19:16Z</time>
      </trkpt>
      <trkpt lat="44.68074" lon="5.01294">
        <ele>275.7</ele>
        <time>2024-05-17T09:19:17Z</time>
      </trkpt>
      <trkpt lat="44.68071" lon="5.01291">
        <ele>275.8</ele>
        <time>2024-05-17T09:19:18Z</time>
      </trkpt>
      <trkpt lat="44.68067" lon="5.01286">
        <ele>276</ele>
        <time>2024-05-17T09:19:19Z</time>
      </trkpt>
      <trkpt lat="44.68066" lon="5.01284">
        <ele>276.1</ele>
        <time>2024-05-17T09:19:20Z</time>
      </trkpt>
      <trkpt lat="44.68062" lon="5.01278">
        <ele>276.3</ele>
        <time>2024-05-17T09:19:21Z</time>
      </trkpt>
      <trkpt lat="44.6806" lon="5.01276">
        <ele>276.3</ele>
        <time>2024-05-17T09:19:22Z</time>
      </trkpt>
      <trkpt lat="44.68057" lon="5.01273">
        <ele>276.5</ele>
        <time>2024-05-17T09:19:23Z</time>
      </trkpt>
      <trkpt lat="44.68052" lon="5.01268">
        <ele>276.7</ele>
        <time>2024-05-17T09:19:24Z</time>
      </trkpt>
      <trkpt lat="44.6805" lon="5.01266">
        <ele>276.7</ele>
        <time>2024-05-17T09:19:25Z</time>
      </trkpt>
      <trkpt lat="44.68045" lon="5.01262">
        <ele>277</ele>
        <time>2024-05-17T09:19:26Z</time>
      </trkpt>
      <trkpt lat="44.68043" lon="5.0126">
        <ele>277</ele>
        <time>2024-05-17T09:19:27Z</time>
      </trkpt>
      <trkpt lat="44.68039" lon="5.01258">
        <ele>277.2</ele>
        <time>2024-05-17T09:19:28Z</time>
      </trkpt>
      <trkpt lat="44.68032" lon="5.01255">
        <ele>277.4</ele>
        <time>2024-05-17T09:19:29Z</time>
      </trkpt>
      <trkpt lat="44.6803" lon="5.01253">
        <ele>277.5</ele>
        <time>2024-05-17T09:19:30Z</time>
      </trkpt>
      <trkpt lat="44.68024" lon="5.01251">
        <ele>277.7</ele>
        <time>2024-05-17T09:19:31Z</time>
      </trkpt>
      <trkpt lat="44.68022" lon="5.0125">
        <ele>277.8</ele>
        <time>2024-05-17T09:19:32Z</time>
      </trkpt>
      <trkpt lat="44.68016" lon="5.01249">
        <ele>278</ele>
        <time>2024-05-17T09:19:33Z</time>
      </trkpt>
      <trkpt lat="44.68014" lon="5.01248">
        <ele>278</ele>
        <time>2024-05-17T09:19:34Z</time>
      </trkpt>
      <trkpt lat="44.6801" lon="5.01248">
        <ele>278.2</ele>
        <time>2024-05-17T09:19:35Z</time>
      </trkpt>
      <trkpt lat="44.68005" lon="5.01248">
        <ele>278.3</ele>
        <time>2024-05-17T09:19:36Z</time>
      </trkpt>
      <trkpt lat="44.67998" lon="5.01248">
        <ele>278.5</ele>
        <time>2024-05-17T09:19:37Z</time>
      </trkpt>
      <trkpt lat="44.67996" lon="5.01248">
        <ele>278.5</ele>
        <time>2024-05-17T09:19:38Z</time>
      </trkpt>
      <trkpt lat="44.67992" lon="5.01248">
        <ele>278.6</ele>
        <time>2024-05-17T09:19:39Z</time>
      </trkpt>
      <trkpt lat="44.67987" lon="5.01248">
        <ele>278.8</ele>
        <time>2024-05-17T09:19:40Z</time>
      </trkpt>
      <trkpt lat="44.67983" lon="5.01248">
        <ele>278.8</ele>
        <time>2024-05-17T09:19:41Z</time>
      </trkpt>
      <trkpt lat="44.67979" lon="5.01249">
        <ele>278.9</ele>
        <time>2024-05-17T09:19:42Z</time>
      </trkpt>
      <trkpt lat="44.67974" lon="5.01249">
        <ele>279</ele>
        <time>2024-05-17T09:19:43Z</time>
      </trkpt>
      <trkpt lat="44.6797" lon="5.0125">
        <ele>279.1</ele>
        <time>2024-05-17T09:19:44Z</time>
      </trkpt>
      <trkpt lat="44.67965" lon="5.01251">
        <ele>279.1</ele>
        <time>2024-05-17T09:19:45Z</time>
      </trkpt>
      <trkpt lat="44.67958" lon="5.01253">
        <ele>279.2</ele>
        <time>2024-05-17T09:19:46Z</time>
      </trkpt>
      <trkpt lat="44.67956" lon="5.01254">
        <ele>279.2</ele>
        <time>2024-05-17T09:19:47Z</time>
      </trkpt>
      <trkpt lat="44.67949" lon="5.01258">
        <ele>279.3</ele>
        <time>2024-05-17T09:19:48Z</time>
      </trkpt>
      <trkpt lat="44.67946" lon="5.01259">
        <ele>279.3</ele>
        <time>2024-05-17T09:19:49Z</time>
      </trkpt>
      <trkpt lat="44.67939" lon="5.01264">
        <ele>279.4</ele>
        <time>2024-05-17T09:19:50Z</time>
      </trkpt>
      <trkpt lat="44.67937" lon="5.01266">
        <ele>279.4</ele>
        <time>2024-05-17T09:19:51Z</time>
      </trkpt>
      <trkpt lat="44.6793" lon="5.01272">
        <ele>279.4</ele>
        <time>2024-05-17T09:19:52Z</time>
      </trkpt>
      <trkpt lat="44.67928" lon="5.01274">
        <ele>279.5</ele>
        <time>2024-05-17T09:19:53Z</time>
      </trkpt>
      <trkpt lat="44.67924" lon="5.01279">
        <ele>279.5</ele>
        <time>2024-05-17T09:19:54Z</time>
      </trkpt>
      <trkpt lat="44.6792" lon="5.01285">
        <ele>279.5</ele>
        <time>2024-05-17T09:19:55Z</time>
      </trkpt>
      <trkpt lat="44.67917" lon="5.01291">
        <ele>279.5</ele>
        <time>2024-05-17T09:19:56Z</time>
      </trkpt>
      <trkpt lat="44.67914" lon="5.01297">
        <ele>279.6</ele>
        <time>2024-05-17T09:19:57Z</time>
      </trkpt>
      <trkpt lat="44.6791" lon="5.01303">
        <ele>279.6</ele>
        <time>2024-05-17T09:19:58Z</time>
      </trkpt>
      <trkpt lat="44.67907" lon="5.01309">
        <ele>279.5</ele>
        <time>2024-05-17T09:19:59Z</time>
      </trkpt>
      <trkpt lat="44.67904" lon="5.01316">
        <ele>279.5</ele>
        <time>2024-05-17T09:20:00Z</time>
      </trkpt>
      <trkpt lat="44.679" lon="5.01323">
        <ele>279.5</ele>
        <time>2024-05-17T09:20:01Z</time>
      </trkpt>
      <trkpt lat="44.67896" lon="5.01333">
        <ele>279.5</ele>
        <time>2024-05-17T09:20:02Z</time>
      </trkpt>
      <trkpt lat="44.67894" lon="5.01337">
        <ele>279.5</ele>
        <time>2024-05-17T09:20:03Z</time>
      </trkpt>
      <trkpt lat="44.67891" lon="5.01344">
        <ele>279.4</ele>
        <time>2024-05-17T09:20:04Z</time>
      </trkpt>
      <trkpt lat="44.67886" lon="5.01355">
        <ele>279.4</ele>
        <time>2024-05-17T09:20:05Z</time>
      </trkpt>
      <trkpt lat="44.67884" lon="5.01358">
        <ele>279.4</ele>
        <time>2024-05-17T09:20:06Z</time>
      </trkpt>
      <trkpt lat="44.67879" lon="5.01369">
        <ele>279.5</ele>
        <time>2024-05-17T09:20:07Z</time>
      </trkpt>
      <trkpt lat="44.67878" lon="5.01372">
        <ele>279.5</ele>
        <time>2024-05-17T09:20:08Z</time>
      </trkpt>
      <trkpt lat="44.67873" lon="5.01383">
        <ele>279.5</ele>
        <time>2024-05-17T09:20:09Z</time>
      </trkpt>
      <trkpt lat="44.67871" lon="5.01386">
        <ele>279.5</ele>
        <time>2024-05-17T09:20:10Z</time>
      </trkpt>
      <trkpt lat="44.67868" lon="5.01393">
        <ele>279.5</ele>
        <time>2024-05-17T09:20:11Z</time>
      </trkpt>
      <trkpt lat="44.67862" lon="5.01402">
        <ele>279.5</ele>
        <time>2024-05-17T09:20:12Z</time>
      </trkpt>
      <trkpt lat="44.67861" lon="5.01405">
        <ele>279.5</ele>
        <time>2024-05-17T09:20:13Z</time>
      </trkpt>
      <trkpt lat="44.67857" lon="5.01412">
        <ele>279.5</ele>
        <time>2024-05-17T09:20:14Z</time>
      </trkpt>
      <trkpt lat="44.67853" lon="5.01418">
        <ele>279.5</ele>
        <time>2024-05-17T09:20:15Z</time>
      </trkpt>
      <trkpt lat="44.67846" lon="5.01426">
        <ele>279.5</ele>
        <time>2024-05-17T09:20:16Z</time>
      </trkpt>
      <trkpt lat="44.67844" lon="5.01428">
        <ele>279.4</ele>
        <time>2024-05-17T09:20:17Z</time>
      </trkpt>
      <trkpt lat="44.67837" lon="5.01436">
        <ele>279.4</ele>
        <time>2024-05-17T09:20:18Z</time>
      </trkpt>
      <trkpt lat="44.67834" lon="5.01438">
        <ele>279.4</ele>
        <time>2024-05-17T09:20:19Z</time>
      </trkpt>
      <trkpt lat="44.67829" lon="5.01443">
        <ele>279.4</ele>
        <time>2024-05-17T09:20:20Z</time>
      </trkpt>
      <trkpt lat="44.67824" lon="5.01446">
        <ele>279.4</ele>
        <time>2024-05-17T09:20:21Z</time>
      </trkpt>
      <trkpt lat="44.67818" lon="5.0145">
        <ele>279.4</ele>
        <time>2024-05-17T09:20:22Z</time>
      </trkpt>
      <trkpt lat="44.67813" lon="5.01454">
        <ele>279.4</ele>
        <time>2024-05-17T09:20:23Z</time>
      </trkpt>
      <trkpt lat="44.67808" lon="5.01457">
        <ele>279.5</ele>
        <time>2024-05-17T09:20:24Z</time>
      </trkpt>
      <trkpt lat="44.67802" lon="5.0146">
        <ele>279.5</ele>
        <time>2024-05-17T09:20:25Z</time>
      </trkpt>
      <trkpt lat="44.67795" lon="5.01465">
        <ele>279.6</ele>
        <time>2024-05-17T09:20:26Z</time>
      </trkpt>
      <trkpt lat="44.67793" lon="5.01466">
        <ele>279.6</ele>
        <time>2024-05-17T09:20:27Z</time>
      </trkpt>
      <trkpt lat="44.67785" lon="5.01471">
        <ele>279.7</ele>
        <time>2024-05-17T09:20:28Z</time>
      </trkpt>
      <trkpt lat="44.67783" lon="5.01472">
        <ele>279.7</ele>
        <time>2024-05-17T09:20:29Z</time>
      </trkpt>
      <trkpt lat="44.67775" lon="5.01476">
        <ele>279.8</ele>
        <time>2024-05-17T09:20:30Z</time>
      </trkpt>
      <trkpt lat="44.67773" lon="5.01478">
        <ele>279.8</ele>
        <time>2024-05-17T09:20:31Z</time>
      </trkpt>
      <trkpt lat="44.67764" lon="5.01482">
        <ele>279.8</ele>
        <time>2024-05-17T09:20:32Z</time>
      </trkpt>
      <trkpt lat="44.67762" lon="5.01483">
        <ele>279.8</ele>
        <time>2024-05-17T09:20:33Z</time>
      </trkpt>
      <trkpt lat="44.67753" lon="5.01487">
        <ele>279.8</ele>
        <time>2024-05-17T09:20:34Z</time>
      </trkpt>
      <trkpt lat="44.6775" lon="5.01488">
        <ele>279.8</ele>
        <time>2024-05-17T09:20:35Z</time>
      </trkpt>
      <trkpt lat="44.67744" lon="5.0149">
        <ele>279.8</ele>
        <time>2024-05-17T09:20:36Z</time>
      </trkpt>
      <trkpt lat="44.67738" lon="5.01491">
        <ele>279.8</ele>
        <time>2024-05-17T09:20:37Z</time>
      </trkpt>
      <trkpt lat="44.67732" lon="5.0149">
        <ele>279.8</ele>
        <time>2024-05-17T09:20:38Z</time>
      </trkpt>
      <trkpt lat="44.67726" lon="5.01489">
        <ele>279.7</ele>
        <time>2024-05-17T09:20:39Z</time>
      </trkpt>
      <trkpt lat="44.6772" lon="5.01487">
        <ele>279.7</ele>
        <time>2024-05-17T09:20:40Z</time>
      </trkpt>
      <trkpt lat="44.67714" lon="5.01485">
        <ele>279.7</ele>
        <time>2024-05-17T09:20:41Z</time>
      </trkpt>
      <trkpt lat="44.67708" lon="5.01483">
        <ele>279.8</ele>
        <time>2024-05-17T09:20:42Z</time>
      </trkpt>
      <trkpt lat="44.67703" lon="5.01481">
        <ele>279.8</ele>
        <time>2024-05-17T09:20:43Z</time>
      </trkpt>
      <trkpt lat="44.67694" lon="5.01478">
        <ele>279.9</ele>
        <time>2024-05-17T09:20:44Z</time>
      </trkpt>
      <trkpt lat="44.67691" lon="5.01478">
        <ele>280</ele>
        <time>2024-05-17T09:20:45Z</time>
      </trkpt>
      <trkpt lat="44.67683" lon="5.01475">
        <ele>280.2</ele>
        <time>2024-05-17T09:20:46Z</time>
      </trkpt>
      <trkpt lat="44.6768" lon="5.01474">
        <ele>280.3</ele>
        <time>2024-05-17T09:20:47Z</time>
      </trkpt>
      <trkpt lat="44.67675" lon="5.01473">
        <ele>280.4</ele>
        <time>2024-05-17T09:20:48Z</time>
      </trkpt>
      <trkpt lat="44.67667" lon="5.01472">
        <ele>280.7</ele>
        <time>2024-05-17T09:20:49Z</time>
      </trkpt>
      <trkpt lat="44.67664" lon="5.01472">
        <ele>280.8</ele>
        <time>2024-05-17T09:20:50Z</time>
      </trkpt>
      <trkpt lat="44.67656" lon="5.01472">
        <ele>281.1</ele>
        <time>2024-05-17T09:20:51Z</time>
      </trkpt>
      <trkpt lat="44.67653" lon="5.01472">
        <ele>281.2</ele>
        <time>2024-05-17T09:20:52Z</time>
      </trkpt>
      <trkpt lat="44.67645" lon="5.01473">
        <ele>281.5</ele>
        <time>2024-05-17T09:20:53Z</time>
      </trkpt>
      <trkpt lat="44.67643" lon="5.01474">
        <ele>281.7</ele>
        <time>2024-05-17T09:20:54Z</time>
      </trkpt>
      <trkpt lat="44.67637" lon="5.01475">
        <ele>281.9</ele>
        <time>2024-05-17T09:20:55Z</time>
      </trkpt>
      <trkpt lat="44.67629" lon="5.01478">
        <ele>282.3</ele>
        <time>2024-05-17T09:20:56Z</time>
      </trkpt>
      <trkpt lat="44.67627" lon="5.01479">
        <ele>282.4</ele>
        <time>2024-05-17T09:20:57Z</time>
      </trkpt>
      <trkpt lat="44.67622" lon="5.01481">
        <ele>282.6</ele>
        <time>2024-05-17T09:20:58Z</time>
      </trkpt>
      <trkpt lat="44.67616" lon="5.01484">
        <ele>282.9</ele>
        <time>2024-05-17T09:20:59Z</time>
      </trkpt>
      <trkpt lat="44.67609" lon="5.01488">
        <ele>283.2</ele>
        <time>2024-05-17T09:21:00Z</time>
      </trkpt>
      <trkpt lat="44.67607" lon="5.01489">
        <ele>283.3</ele>
        <time>2024-05-17T09:21:01Z</time>
      </trkpt>
      <trkpt lat="44.676" lon="5.01493">
        <ele>283.6</ele>
        <time>2024-05-17T09:21:02Z</time>
      </trkpt>
      <trkpt lat="44.67598" lon="5.01495">
        <ele>283.7</ele>
        <time>2024-05-17T09:21:03Z</time>
      </trkpt>
      <trkpt lat="44.67594" lon="5.01498">
        <ele>283.9</ele>
        <time>2024-05-17T09:21:04Z</time>
      </trkpt>
      <trkpt lat="44.67589" lon="5.01501">
        <ele>284.1</ele>
        <time>2024-05-17T09:21:05Z</time>
      </trkpt>
      <trkpt lat="44.67585" lon="5.01504">
        <ele>284.3</ele>
        <time>2024-05-17T09:21:06Z</time>
      </trkpt>
      <trkpt lat="44.67581" lon="5.01507">
        <ele>284.5</ele>
        <time>2024-05-17T09:21:07Z</time>
      </trkpt>
      <trkpt lat="44.67575" lon="5.01511">
        <ele>284.8</ele>
        <time>2024-05-17T09:21:08Z</time>
      </trkpt>
      <trkpt lat="44.67573" lon="5.01512">
        <ele>284.9</ele>
        <time>2024-05-17T09:21:09Z</time>
      </trkpt>
      <trkpt lat="44.67567" lon="5.01516">
        <ele>285.2</ele>
        <time>2024-05-17T09:21:10Z</time>
      </trkpt>
      <trkpt lat="44.67564" lon="5.01518">
        <ele>285.3</ele>
        <time>2024-05-17T09:21:11Z</time>
      </trkpt>
      <trkpt lat="44.67558" lon="5.01522">
        <ele>285.6</ele>
        <time>2024-05-17T09:21:12Z</time>
      </trkpt>
      <trkpt lat="44.67556" lon="5.01524">
        <ele>285.7</ele>
        <time>2024-05-17T09:21:13Z</time>
      </trkpt>
      <trkpt lat="44.6755" lon="5.01528">
        <ele>286</ele>
        <time>2024-05-17T09:21:14Z</time>
      </trkpt>
      <trkpt lat="44.67548" lon="5.0153">
        <ele>286.1</ele>
        <time>2024-05-17T09:21:15Z</time>
      </trkpt>
      <trkpt lat="44.67544" lon="5.01533">
        <ele>286.3</ele>
        <time>2024-05-17T09:21:16Z</time>
      </trkpt>
      <trkpt lat="44.6754" lon="5.01535">
        <ele>286.5</ele>
        <time>2024-05-17T09:21:17Z</time>
      </trkpt>
      <trkpt lat="44.67534" lon="5.0154">
        <ele>286.8</ele>
        <time>2024-05-17T09:21:18Z</time>
      </trkpt>
      <trkpt lat="44.67532" lon="5.01541">
        <ele>286.9</ele>
        <time>2024-05-17T09:21:19Z</time>
      </trkpt>
      <trkpt lat="44.67528" lon="5.01544">
        <ele>287.1</ele>
        <time>2024-05-17T09:21:20Z</time>
      </trkpt>
      <trkpt lat="44.67524" lon="5.01547">
        <ele>287.3</ele>
        <time>2024-05-17T09:21:21Z</time>
      </trkpt>
      <trkpt lat="44.67521" lon="5.0155">
        <ele>287.5</ele>
        <time>2024-05-17T09:21:22Z</time>
      </trkpt>
      <trkpt lat="44.67517" lon="5.01552">
        <ele>287.6</ele>
        <time>2024-05-17T09:21:23Z</time>
      </trkpt>
      <trkpt lat="44.67513" lon="5.01555">
        <ele>287.8</ele>
        <time>2024-05-17T09:21:24Z</time>
      </trkpt>
      <trkpt lat="44.67509" lon="5.01558">
        <ele>288</ele>
        <time>2024-05-17T09:21:25Z</time>
      </trkpt>
      <trkpt lat="44.67505" lon="5.0156">
        <ele>288.2</ele>
        <time>2024-05-17T09:21:26Z</time>
      </trkpt>
      <trkpt lat="44.67501" lon="5.01563">
        <ele>288.4</ele>
        <time>2024-05-17T09:21:27Z</time>
      </trkpt>
      <trkpt lat="44.67495" lon="5.01567">
        <ele>288.7</ele>
        <time>2024-05-17T09:21:28Z</time>
      </trkpt>
      <trkpt lat="44.67493" lon="5.01569">
        <ele>288.8</ele>
        <time>2024-05-17T09:21:29Z</time>
      </trkpt>
      <trkpt lat="44.67487" lon="5.01573">
        <ele>289.1</ele>
        <time>2024-05-17T09:21:30Z</time>
      </trkpt>
      <trkpt lat="44.67485" lon="5.01574">
        <ele>289.2</ele>
        <time>2024-05-17T09:21:31Z</time>
      </trkpt>
      <trkpt lat="44.6748" lon="5.01578">
        <ele>289.5</ele>
        <time>2024-05-17T09:21:32Z</time>
      </trkpt>
      <trkpt lat="44.67478" lon="5.0158">
        <ele>289.6</ele>
        <time>2024-05-17T09:21:33Z</time>
      </trkpt>
      <trkpt lat="44.67472" lon="5.01583">
        <ele>289.9</ele>
        <time>2024-05-17T09:21:34Z</time>
      </trkpt>
      <trkpt lat="44.67471" lon="5.01584">
        <ele>290</ele>
        <time>2024-05-17T09:21:35Z</time>
      </trkpt>
      <trkpt lat="44.67465" lon="5.01587">
        <ele>290.2</ele>
        <time>2024-05-17T09:21:36Z</time>
      </trkpt>
      <trkpt lat="44.67464" lon="5.01588">
        <ele>290.3</ele>
        <time>2024-05-17T09:21:37Z</time>
      </trkpt>
      <trkpt lat="44.6746" lon="5.0159">
        <ele>290.5</ele>
        <time>2024-05-17T09:21:38Z</time>
      </trkpt>
      <trkpt lat="44.67455" lon="5.01593">
        <ele>290.7</ele>
        <time>2024-05-17T09:21:39Z</time>
      </trkpt>
      <trkpt lat="44.67453" lon="5.01594">
        <ele>290.8</ele>
        <time>2024-05-17T09:21:40Z</time>
      </trkpt>
      <trkpt lat="44.67446" lon="5.01597">
        <ele>291.1</ele>
        <time>2024-05-17T09:21:41Z</time>
      </trkpt>
      <trkpt lat="44.67444" lon="5.01597">
        <ele>291.2</ele>
        <time>2024-05-17T09:21:42Z</time>
      </trkpt>
      <trkpt lat="44.67438" lon="5.01599">
        <ele>291.4</ele>
        <time>2024-05-17T09:21:43Z</time>
      </trkpt>
      <trkpt lat="44.67436" lon="5.01599">
        <ele>291.5</ele>
        <time>2024-05-17T09:21:44Z</time>
      </trkpt>
      <trkpt lat="44.6743" lon="5.01601">
        <ele>291.8</ele>
        <time>2024-05-17T09:21:45Z</time>
      </trkpt>
      <trkpt lat="44.67428" lon="5.01601">
        <ele>291.9</ele>
        <time>2024-05-17T09:21:46Z</time>
      </trkpt>
      <trkpt lat="44.67423" lon="5.01602">
        <ele>292.1</ele>
        <time>2024-05-17T09:21:47Z</time>
      </trkpt>
      <trkpt lat="44.67419" lon="5.01603">
        <ele>292.3</ele>
        <time>2024-05-17T09:21:48Z</time>
      </trkpt>
      <trkpt lat="44.67415" lon="5.01603">
        <ele>292.5</ele>
        <time>2024-05-17T09:21:49Z</time>
      </trkpt>
      <trkpt lat="44.67411" lon="5.01603">
        <ele>292.6</ele>
        <time>2024-05-17T09:21:50Z</time>
      </trkpt>
      <trkpt lat="44.67405" lon="5.01603">
        <ele>292.9</ele>
        <time>2024-05-17T09:21:51Z</time>
      </trkpt>
      <trkpt lat="44.67403" lon="5.01602">
        <ele>293</ele>
        <time>2024-05-17T09:21:52Z</time>
      </trkpt>
      <trkpt lat="44.67397" lon="5.01602">
        <ele>293.3</ele>
        <time>2024-05-17T09:21:53Z</time>
      </trkpt>
      <trkpt lat="44.67395" lon="5.01601">
        <ele>293.4</ele>
        <time>2024-05-17T09:21:54Z</time>
      </trkpt>
      <trkpt lat="44.6739" lon="5.016">
        <ele>293.6</ele>
        <time>2024-05-17T09:21:55Z</time>
      </trkpt>
      <trkpt lat="44.67388" lon="5.016">
        <ele>293.7</ele>
        <time>2024-05-17T09:21:56Z</time>
      </trkpt>
      <trkpt lat="44.67382" lon="5.01599">
        <ele>294</ele>
        <time>2024-05-17T09:21:57Z</time>
      </trkpt>
      <trkpt lat="44.67381" lon="5.01599">
        <ele>294</ele>
        <time>2024-05-17T09:21:58Z</time>
      </trkpt>
      <trkpt lat="44.67375" lon="5.01599">
        <ele>294.3</ele>
        <time>2024-05-17T09:21:59Z</time>
      </trkpt>
      <trkpt lat="44.67373" lon="5.01599">
        <ele>294.4</ele>
        <time>2024-05-17T09:22:00Z</time>
      </trkpt>
      <trkpt lat="44.67368" lon="5.01599">
        <ele>294.6</ele>
        <time>2024-05-17T09:22:01Z</time>
      </trkpt>
      <trkpt lat="44.67364" lon="5.01599">
        <ele>294.7</ele>
        <time>2024-05-17T09:22:02Z</time>
      </trkpt>
      <trkpt lat="44.6736" lon="5.01599">
        <ele>294.9</ele>
        <time>2024-05-17T09:22:03Z</time>
      </trkpt>
      <trkpt lat="44.67356" lon="5.01599">
        <ele>295</ele>
        <time>2024-05-17T09:22:04Z</time>
      </trkpt>
      <trkpt lat="44.67352" lon="5.01598">
        <ele>295.2</ele>
        <time>2024-05-17T09:22:05Z</time>
      </trkpt>
      <trkpt lat="44.67348" lon="5.01598">
        <ele>295.4</ele>
        <time>2024-05-17T09:22:06Z</time>
      </trkpt>
      <trkpt lat="44.67344" lon="5.01597">
        <ele>295.6</ele>
        <time>2024-05-17T09:22:07Z</time>
      </trkpt>
      <trkpt lat="44.6734" lon="5.01596">
        <ele>295.7</ele>
        <time>2024-05-17T09:22:08Z</time>
      </trkpt>
      <trkpt lat="44.67336" lon="5.01595">
        <ele>295.9</ele>
        <time>2024-05-17T09:22:09Z</time>
      </trkpt>
      <trkpt lat="44.67332" lon="5.01593">
        <ele>296.1</ele>
        <time>2024-05-17T09:22:10Z</time>
      </trkpt>
      <trkpt lat="44.67327" lon="5.01591">
        <ele>296.4</ele>
        <time>2024-05-17T09:22:11Z</time>
      </trkpt>
      <trkpt lat="44.67325" lon="5.01591">
        <ele>296.5</ele>
        <time>2024-05-17T09:22:12Z</time>
      </trkpt>
      <trkpt lat="44.67321" lon="5.01589">
        <ele>296.7</ele>
        <time>2024-05-17T09:22:13Z</time>
      </trkpt>
      <trkpt lat="44.67317" lon="5.01588">
        <ele>296.9</ele>
        <time>2024-05-17T09:22:14Z</time>
      </trkpt>
      <trkpt lat="44.67313" lon="5.01586">
        <ele>297.1</ele>
        <time>2024-05-17T09:22:15Z</time>
      </trkpt>
      <trkpt lat="44.67308" lon="5.01582">
        <ele>297.3</ele>
        <time>2024-05-17T09:22:16Z</time>
      </trkpt>
      <trkpt lat="44.67307" lon="5.01581">
        <ele>297.4</ele>
        <time>2024-05-17T09:22:17Z</time>
      </trkpt>
      <trkpt lat="44.67302" lon="5.01577">
        <ele>297.7</ele>
        <time>2024-05-17T09:22:18Z</time>
      </trkpt>
      <trkpt lat="44.673" lon="5.01576">
        <ele>297.7</ele>
        <time>2024-05-17T09:22:19Z</time>
      </trkpt>
      <trkpt lat="44.67297" lon="5.01573">
        <ele>297.9</ele>
        <time>2024-05-17T09:22:20Z</time>
      </trkpt>
      <trkpt lat="44.67292" lon="5.01568">
        <ele>298.2</ele>
        <time>2024-05-17T09:22:21Z</time>
      </trkpt>
      <trkpt lat="44.67291" lon="5.01566">
        <ele>298.3</ele>
        <time>2024-05-17T09:22:22Z</time>
      </trkpt>
      <trkpt lat="44.67286" lon="5.01562">
        <ele>298.6</ele>
        <time>2024-05-17T09:22:23Z</time>
      </trkpt>
      <trkpt lat="44.67284" lon="5.01561">
        <ele>298.6</ele>
        <time>2024-05-17T09:22:24Z</time>
      </trkpt>
      <trkpt lat="44.67279" lon="5.01556">
        <ele>298.9</ele>
        <time>2024-05-17T09:22:25Z</time>
      </trkpt>
      <trkpt lat="44.67277" lon="5.01555">
        <ele>299</ele>
        <time>2024-05-17T09:22:26Z</time>
      </trkpt>
      <trkpt lat="44.67273" lon="5.01551">
        <ele>299.2</ele>
        <time>2024-05-17T09:22:27Z</time>
      </trkpt>
      <trkpt lat="44.67271" lon="5.01549">
        <ele>299.3</ele>
        <time>2024-05-17T09:22:28Z</time>
      </trkpt>
      <trkpt lat="44.67268" lon="5.01547">
        <ele>299.4</ele>
        <time>2024-05-17T09:22:29Z</time>
      </trkpt>
      <trkpt lat="44.67264" lon="5.01544">
        <ele>299.6</ele>
        <time>2024-05-17T09:22:30Z</time>
      </trkpt>
      <trkpt lat="44.67261" lon="5.01541">
        <ele>299.7</ele>
        <time>2024-05-17T09:22:31Z</time>
      </trkpt>
      <trkpt lat="44.67257" lon="5.01538">
        <ele>299.9</ele>
        <time>2024-05-17T09:22:32Z</time>
      </trkpt>
      <trkpt lat="44.67254" lon="5.01535">
        <ele>300.1</ele>
        <time>2024-05-17T09:22:33Z</time>
      </trkpt>
      <trkpt lat="44.67251" lon="5.01532">
        <ele>300.3</ele>
        <time>2024-05-17T09:22:34Z</time>
      </trkpt>
      <trkpt lat="44.67246" lon="5.01527">
        <ele>300.5</ele>
        <time>2024-05-17T09:22:35Z</time>
      </trkpt>
      <trkpt lat="44.67244" lon="5.01526">
        <ele>300.6</ele>
        <time>2024-05-17T09:22:36Z</time>
      </trkpt>
      <trkpt lat="44.67239" lon="5.01521">
        <ele>300.8</ele>
        <time>2024-05-17T09:22:37Z</time>
      </trkpt>
      <trkpt lat="44.67238" lon="5.0152">
        <ele>300.9</ele>
        <time>2024-05-17T09:22:38Z</time>
      </trkpt>
      <trkpt lat="44.67233" lon="5.01515">
        <ele>301.2</ele>
        <time>2024-05-17T09:22:39Z</time>
      </trkpt>
      <trkpt lat="44.67231" lon="5.01514">
        <ele>301.2</ele>
        <time>2024-05-17T09:22:40Z</time>
      </trkpt>
      <trkpt lat="44.67226" lon="5.01509">
        <ele>301.5</ele>
        <time>2024-05-17T09:22:41Z</time>
      </trkpt>
      <trkpt lat="44.67224" lon="5.01508">
        <ele>301.6</ele>
        <time>2024-05-17T09:22:42Z</time>
      </trkpt>
      <trkpt lat="44.67219" lon="5.01504">
        <ele>301.8</ele>
        <time>2024-05-17T09:22:43Z</time>
      </trkpt>
      <trkpt lat="44.67218" lon="5.01502">
        <ele>301.9</ele>
        <time>2024-05-17T09:22:44Z</time>
      </trkpt>
      <trkpt lat="44.67214" lon="5.015">
        <ele>302</ele>
        <time>2024-05-17T09:22:45Z</time>
      </trkpt>
      <trkpt lat="44.67211" lon="5.01497">
        <ele>302.2</ele>
        <time>2024-05-17T09:22:46Z</time>
      </trkpt>
      <trkpt lat="44.67208" lon="5.01494">
        <ele>302.4</ele>
        <time>2024-05-17T09:22:47Z</time>
      </trkpt>
      <trkpt lat="44.67205" lon="5.01491">
        <ele>302.5</ele>
        <time>2024-05-17T09:22:48Z</time>
      </trkpt>
      <trkpt lat="44.672" lon="5.01488">
        <ele>302.7</ele>
        <time>2024-05-17T09:22:49Z</time>
      </trkpt>
      <trkpt lat="44.67198" lon="5.01487">
        <ele>302.8</ele>
        <time>2024-05-17T09:22:50Z</time>
      </trkpt>
      <trkpt lat="44.67195" lon="5.01484">
        <ele>303</ele>
        <time>2024-05-17T09:22:51Z</time>
      </trkpt>
      <trkpt lat="44.67191" lon="5.01482">
        <ele>303.1</ele>
        <time>2024-05-17T09:22:52Z</time>
      </trkpt>
      <trkpt lat="44.67186" lon="5.01479">
        <ele>303.4</ele>
        <time>2024-05-17T09:22:53Z</time>
      </trkpt>
      <trkpt lat="44.67185" lon="5.01478">
        <ele>303.5</ele>
        <time>2024-05-17T09:22:54Z</time>
      </trkpt>
      <trkpt lat="44.67182" lon="5.01475">
        <ele>303.6</ele>
        <time>2024-05-17T09:22:55Z</time>
      </trkpt>
      <trkpt lat="44.67177" lon="5.01471">
        <ele>303.8</ele>
        <time>2024-05-17T09:22:56Z</time>
      </trkpt>
      <trkpt lat="44.67176" lon="5.0147">
        <ele>303.9</ele>
        <time>2024-05-17T09:22:57Z</time>
      </trkpt>
      <trkpt lat="44.67171" lon="5.01465">
        <ele>304.2</ele>
        <time>2024-05-17T09:22:58Z</time>
      </trkpt>
      <trkpt lat="44.67169" lon="5.01463">
        <ele>304.2</ele>
        <time>2024-05-17T09:22:59Z</time>
      </trkpt>
      <trkpt lat="44.67164" lon="5.01459">
        <ele>304.5</ele>
        <time>2024-05-17T09:23:00Z</time>
      </trkpt>
      <trkpt lat="44.67163" lon="5.01458">
        <ele>304.5</ele>
        <time>2024-05-17T09:23:01Z</time>
      </trkpt>
      <trkpt lat="44.67159" lon="5.01455">
        <ele>304.7</ele>
        <time>2024-05-17T09:23:02Z</time>
      </trkpt>
      <trkpt lat="44.67155" lon="5.0145">
        <ele>304.9</ele>
        <time>2024-05-17T09:23:03Z</time>
      </trkpt>
      <trkpt lat="44.67153" lon="5.01449">
        <ele>305</ele>
        <time>2024-05-17T09:23:04Z</time>
      </trkpt>
      <trkpt lat="44.6715" lon="5.01446">
        <ele>305.2</ele>
        <time>2024-05-17T09:23:05Z</time>
      </trkpt>
      <trkpt lat="44.67146" lon="5.01444">
        <ele>305.3</ele>
        <time>2024-05-17T09:23:06Z</time>
      </trkpt>
      <trkpt lat="44.67141" lon="5.01439">
        <ele>305.5</ele>
        <time>2024-05-17T09:23:07Z</time>
      </trkpt>
      <trkpt lat="44.6714" lon="5.01438">
        <ele>305.6</ele>
        <time>2024-05-17T09:23:08Z</time>
      </trkpt>
      <trkpt lat="44.67134" lon="5.01434">
        <ele>305.9</ele>
        <time>2024-05-17T09:23:09Z</time>
      </trkpt>
      <trkpt lat="44.67133" lon="5.01432">
        <ele>306</ele>
        <time>2024-05-17T09:23:10Z</time>
      </trkpt>
      <trkpt lat="44.67129" lon="5.01429">
        <ele>306.1</ele>
        <time>2024-05-17T09:23:11Z</time>
      </trkpt>
      <trkpt lat="44.67126" lon="5.01426">
        <ele>306.3</ele>
        <time>2024-05-17T09:23:12Z</time>
      </trkpt>
      <trkpt lat="44.67122" lon="5.01422">
        <ele>306.5</ele>
        <time>2024-05-17T09:23:13Z</time>
      </trkpt>
      <trkpt lat="44.67119" lon="5.01419">
        <ele>306.7</ele>
        <time>2024-05-17T09:23:14Z</time>
      </trkpt>
      <trkpt lat="44.67116" lon="5.01416">
        <ele>306.8</ele>
        <time>2024-05-17T09:23:15Z</time>
      </trkpt>
      <trkpt lat="44.67112" lon="5.01413">
        <ele>307</ele>
        <time>2024-05-17T09:23:16Z</time>
      </trkpt>
      <trkpt lat="44.67107" lon="5.01408">
        <ele>307.3</ele>
        <time>2024-05-17T09:23:17Z</time>
      </trkpt>
      <trkpt lat="44.67106" lon="5.01407">
        <ele>307.4</ele>
        <time>2024-05-17T09:23:18Z</time>
      </trkpt>
      <trkpt lat="44.67101" lon="5.01402">
        <ele>307.6</ele>
        <time>2024-05-17T09:23:19Z</time>
      </trkpt>
      <trkpt lat="44.67099" lon="5.01401">
        <ele>307.7</ele>
        <time>2024-05-17T09:23:20Z</time>
      </trkpt>
      <trkpt lat="44.67094" lon="5.01396">
        <ele>308</ele>
        <time>2024-05-17T09:23:21Z</time>
      </trkpt>
      <trkpt lat="44.67092" lon="5.01394">
        <ele>308.1</ele>
        <time>2024-05-17T09:23:22Z</time>
      </trkpt>
      <trkpt lat="44.67088" lon="5.0139">
        <ele>308.3</ele>
        <time>2024-05-17T09:23:23Z</time>
      </trkpt>
      <trkpt lat="44.67086" lon="5.01388">
        <ele>308.4</ele>
        <time>2024-05-17T09:23:24Z</time>
      </trkpt>
      <trkpt lat="44.67082" lon="5.01383">
        <ele>308.6</ele>
        <time>2024-05-17T09:23:25Z</time>
      </trkpt>
      <trkpt lat="44.6708" lon="5.01381">
        <ele>308.7</ele>
        <time>2024-05-17T09:23:26Z</time>
      </trkpt>
      <trkpt lat="44.67076" lon="5.01376">
        <ele>309</ele>
        <time>2024-05-17T09:23:27Z</time>
      </trkpt>
      <trkpt lat="44.67075" lon="5.01375">
        <ele>309</ele>
        <time>2024-05-17T09:23:28Z</time>
      </trkpt>
      <trkpt lat="44.67072" lon="5.01371">
        <ele>309.2</ele>
        <time>2024-05-17T09:23:29Z</time>
      </trkpt>
      <trkpt lat="44.67068" lon="5.01368">
        <ele>309.4</ele>
        <time>2024-05-17T09:23:30Z</time>
      </trkpt>
      <trkpt lat="44.67065" lon="5.01365">
        <ele>309.5</ele>
        <time>2024-05-17T09:23:31Z</time>
      </trkpt>
      <trkpt lat="44.67062" lon="5.01362">
        <ele>309.7</ele>
        <time>2024-05-17T09:23:32Z</time>
      </trkpt>
      <trkpt lat="44.67059" lon="5.01359">
        <ele>309.9</ele>
        <time>2024-05-17T09:23:33Z</time>
      </trkpt>
      <trkpt lat="44.67056" lon="5.01355">
        <ele>310</ele>
        <time>2024-05-17T09:23:34Z</time>
      </trkpt>
      <trkpt lat="44.67052" lon="5.0135">
        <ele>310.3</ele>
        <time>2024-05-17T09:23:35Z</time>
      </trkpt>
      <trkpt lat="44.67051" lon="5.01349">
        <ele>310.4</ele>
        <time>2024-05-17T09:23:36Z</time>
      </trkpt>
      <trkpt lat="44.67046" lon="5.01343">
        <ele>310.6</ele>
        <time>2024-05-17T09:23:37Z</time>
      </trkpt>
      <trkpt lat="44.67045" lon="5.01342">
        <ele>310.7</ele>
        <time>2024-05-17T09:23:38Z</time>
      </trkpt>
      <trkpt lat="44.67042" lon="5.01338">
        <ele>310.9</ele>
        <time>2024-05-17T09:23:39Z</time>
      </trkpt>
      <trkpt lat="44.67037" lon="5.01332">
        <ele>311.1</ele>
        <time>2024-05-17T09:23:40Z</time>
      </trkpt>
      <trkpt lat="44.67036" lon="5.0133">
        <ele>311.2</ele>
        <time>2024-05-17T09:23:41Z</time>
      </trkpt>
      <trkpt lat="44.67031" lon="5.01325">
        <ele>311.5</ele>
        <time>2024-05-17T09:23:42Z</time>
      </trkpt>
      <trkpt lat="44.6703" lon="5.01323">
        <ele>311.6</ele>
        <time>2024-05-17T09:23:43Z</time>
      </trkpt>
      <trkpt lat="44.67027" lon="5.0132">
        <ele>311.8</ele>
        <time>2024-05-17T09:23:44Z</time>
      </trkpt>
      <trkpt lat="44.67022" lon="5.01316">
        <ele>312</ele>
        <time>2024-05-17T09:23:45Z</time>
      </trkpt>
      <trkpt lat="44.6702" lon="5.01315">
        <ele>312.1</ele>
        <time>2024-05-17T09:23:46Z</time>
      </trkpt>
      <trkpt lat="44.67015" lon="5.0131">
        <ele>312.4</ele>
        <time>2024-05-17T09:23:47Z</time>
      </trkpt>
      <trkpt lat="44.67014" lon="5.01309">
        <ele>312.5</ele>
        <time>2024-05-17T09:23:48Z</time>
      </trkpt>
      <trkpt lat="44.6701" lon="5.01303">
        <ele>312.7</ele>
        <time>2024-05-17T09:23:49Z</time>
      </trkpt>
      <trkpt lat="44.67009" lon="5.01301">
        <ele>312.8</ele>
        <time>2024-05-17T09:23:50Z</time>
      </trkpt>
      <trkpt lat="44.67006" lon="5.01298">
        <ele>312.9</ele>
        <time>2024-05-17T09:23:51Z</time>
      </trkpt>
      <trkpt lat="44.67003" lon="5.01294">
        <ele>313.1</ele>
        <time>2024-05-17T09:23:52Z</time>
      </trkpt>
      <trkpt lat="44.66999" lon="5.01289">
        <ele>313.3</ele>
        <time>2024-05-17T09:23:53Z</time>
      </trkpt>
      <trkpt lat="44.66998" lon="5.01287">
        <ele>313.4</ele>
        <time>2024-05-17T09:23:54Z</time>
      </trkpt>
      <trkpt lat="44.66995" lon="5.01283">
        <ele>313.6</ele>
        <time>2024-05-17T09:23:55Z</time>
      </trkpt>
      <trkpt lat="44.66993" lon="5.01279">
        <ele>313.7</ele>
        <time>2024-05-17T09:23:56Z</time>
      </trkpt>
      <trkpt lat="44.6699" lon="5.01275">
        <ele>313.9</ele>
        <time>2024-05-17T09:23:57Z</time>
      </trkpt>
      <trkpt lat="44.66987" lon="5.01271">
        <ele>314</ele>
        <time>2024-05-17T09:23:58Z</time>
      </trkpt>
      <trkpt lat="44.66985" lon="5.01267">
        <ele>314.2</ele>
        <time>2024-05-17T09:23:59Z</time>
      </trkpt>
      <trkpt lat="44.66982" lon="5.01263">
        <ele>314.3</ele>
        <time>2024-05-17T09:24:00Z</time>
      </trkpt>
      <trkpt lat="44.66979" lon="5.01256">
        <ele>314.6</ele>
        <time>2024-05-17T09:24:01Z</time>
      </trkpt>
      <trkpt lat="44.66977" lon="5.01254">
        <ele>314.7</ele>
        <time>2024-05-17T09:24:02Z</time>
      </trkpt>
      <trkpt lat="44.66974" lon="5.01247">
        <ele>314.9</ele>
        <time>2024-05-17T09:24:03Z</time>
      </trkpt>
      <trkpt lat="44.66973" lon="5.01245">
        <ele>315</ele>
        <time>2024-05-17T09:24:04Z</time>
      </trkpt>
      <trkpt lat="44.66971" lon="5.01238">
        <ele>315.2</ele>
        <time>2024-05-17T09:24:05Z</time>
      </trkpt>
      <trkpt lat="44.6697" lon="5.01236">
        <ele>315.3</ele>
        <time>2024-05-17T09:24:06Z</time>
      </trkpt>
      <trkpt lat="44.66966" lon="5.01231">
        <ele>315.4</ele>
        <time>2024-05-17T09:24:07Z</time>
      </trkpt>
      <trkpt lat="44.66965" lon="5.0123">
        <ele>315.5</ele>
        <time>2024-05-17T09:24:08Z</time>
      </trkpt>
      <trkpt lat="44.66961" lon="5.0123">
        <ele>315.6</ele>
        <time>2024-05-17T09:24:09Z</time>
      </trkpt>
      <trkpt lat="44.66958" lon="5.01231">
        <ele>315.7</ele>
        <time>2024-05-17T09:24:10Z</time>
      </trkpt>
      <trkpt lat="44.66954" lon="5.01232">
        <ele>315.8</ele>
        <time>2024-05-17T09:24:11Z</time>
      </trkpt>
      <trkpt lat="44.6695" lon="5.01233">
        <ele>315.9</ele>
        <time>2024-05-17T09:24:12Z</time>
      </trkpt>
      <trkpt lat="44.66946" lon="5.01233">
        <ele>316</ele>
        <time>2024-05-17T09:24:13Z</time>
      </trkpt>
      <trkpt lat="44.66942" lon="5.01235">
        <ele>316.2</ele>
        <time>2024-05-17T09:24:14Z</time>
      </trkpt>
      <trkpt lat="44.66938" lon="5.01236">
        <ele>316.3</ele>
        <time>2024-05-17T09:24:15Z</time>
      </trkpt>
      <trkpt lat="44.66934" lon="5.01237">
        <ele>316.4</ele>
        <time>2024-05-17T09:24:16Z</time>
      </trkpt>
      <trkpt lat="44.6693" lon="5.01239">
        <ele>316.6</ele>
        <time>2024-05-17T09:24:17Z</time>
      </trkpt>
      <trkpt lat="44.66927" lon="5.01241">
        <ele>316.8</ele>
        <time>2024-05-17T09:24:18Z</time>
      </trkpt>
      <trkpt lat="44.66922" lon="5.01246">
        <ele>317</ele>
        <time>2024-05-17T09:24:19Z</time>
      </trkpt>
      <trkpt lat="44.66921" lon="5.01247">
        <ele>317.1</ele>
        <time>2024-05-17T09:24:20Z</time>
      </trkpt>
      <trkpt lat="44.66918" lon="5.01251">
        <ele>317.3</ele>
        <time>2024-05-17T09:24:21Z</time>
      </trkpt>
      <trkpt lat="44.66913" lon="5.01254">
        <ele>317.3</ele>
        <time>2024-05-17T09:24:22Z</time>
      </trkpt>
      <trkpt lat="44.66911" lon="5.01255">
        <ele>317.3</ele>
        <time>2024-05-17T09:24:23Z</time>
      </trkpt>
      <trkpt lat="44.66909" lon="5.01257">
        <ele>317.4</ele>
        <time>2024-05-17T09:24:24Z</time>
      </trkpt>
      <trkpt lat="44.66907" lon="5.01258">
        <ele>317.5</ele>
        <time>2024-05-17T09:24:25Z</time>
      </trkpt>
      <trkpt lat="44.66907" lon="5.01258">
        <ele>317.5</ele>
        <time>2024-05-17T09:24:26Z</time>
      </trkpt>
      <trkpt lat="44.66907" lon="5.01258">
        <ele>317.5</ele>
        <time>2024-05-17T09:24:27Z</time>
      </trkpt>
      <trkpt lat="44.66907" lon="5.01258">
        <ele>317.5</ele>
        <time>2024-05-17T09:24:28Z</time>
      </trkpt>
      <trkpt lat="44.66904" lon="5.01256">
        <ele>317.7</ele>
        <time>2024-05-17T09:26:49Z</time>
      </trkpt>
      <trkpt lat="44.66902" lon="5.01255">
        <ele>317.7</ele>
        <time>2024-05-17T09:26:50Z</time>
      </trkpt>
      <trkpt lat="44.66899" lon="5.01253">
        <ele>317.8</ele>
        <time>2024-05-17T09:26:51Z</time>
      </trkpt>
      <trkpt lat="44.66898" lon="5.01252">
        <ele>317.9</ele>
        <time>2024-05-17T09:26:52Z</time>
      </trkpt>
      <trkpt lat="44.66895" lon="5.01253">
        <ele>318</ele>
        <time>2024-05-17T09:26:53Z</time>
      </trkpt>
      <trkpt lat="44.66893" lon="5.01254">
        <ele>318.1</ele>
        <time>2024-05-17T09:26:54Z</time>
      </trkpt>
      <trkpt lat="44.66891" lon="5.01255">
        <ele>318.2</ele>
        <time>2024-05-17T09:26:55Z</time>
      </trkpt>
      <trkpt lat="44.66887" lon="5.01256">
        <ele>318.3</ele>
        <time>2024-05-17T09:26:56Z</time>
      </trkpt>
      <trkpt lat="44.66884" lon="5.01257">
        <ele>318.5</ele>
        <time>2024-05-17T09:26:57Z</time>
      </trkpt>
      <trkpt lat="44.66881" lon="5.01258">
        <ele>318.6</ele>
        <time>2024-05-17T09:26:58Z</time>
      </trkpt>
      <trkpt lat="44.66876" lon="5.0126">
        <ele>318.8</ele>
        <time>2024-05-17T09:26:59Z</time>
      </trkpt>
      <trkpt lat="44.66875" lon="5.01261">
        <ele>318.9</ele>
        <time>2024-05-17T09:27:00Z</time>
      </trkpt>
      <trkpt lat="44.66869" lon="5.01263">
        <ele>319.1</ele>
        <time>2024-05-17T09:27:01Z</time>
      </trkpt>
      <trkpt lat="44.66868" lon="5.01264">
        <ele>319.1</ele>
        <time>2024-05-17T09:27:02Z</time>
      </trkpt>
      <trkpt lat="44.66864" lon="5.01265">
        <ele>319.3</ele>
        <time>2024-05-17T09:27:03Z</time>
      </trkpt>
      <trkpt lat="44.66861" lon="5.01266">
        <ele>319.4</ele>
        <time>2024-05-17T09:27:04Z</time>
      </trkpt>
      <trkpt lat="44.66858" lon="5.01267">
        <ele>319.6</ele>
        <time>2024-05-17T09:27:05Z</time>
      </trkpt>
      <trkpt lat="44.66855" lon="5.01269">
        <ele>319.7</ele>
        <time>2024-05-17T09:27:06Z</time>
      </trkpt>
      <trkpt lat="44.66851" lon="5.0127">
        <ele>319.8</ele>
        <time>2024-05-17T09:27:07Z</time>
      </trkpt>
      <trkpt lat="44.66848" lon="5.01271">
        <ele>320</ele>
        <time>2024-05-17T09:27:08Z</time>
      </trkpt>
      <trkpt lat="44.66845" lon="5.01272">
        <ele>320.1</ele>
        <time>2024-05-17T09:27:09Z</time>
      </trkpt>
      <trkpt lat="44.66841" lon="5.01274">
        <ele>320.3</ele>
        <time>2024-05-17T09:27:10Z</time>
      </trkpt>
      <trkpt lat="44.66838" lon="5.01275">
        <ele>320.5</ele>
        <time>2024-05-17T09:27:11Z</time>
      </trkpt>
      <trkpt lat="44.66835" lon="5.01276">
        <ele>320.6</ele>
        <time>2024-05-17T09:27:12Z</time>
      </trkpt>
      <trkpt lat="44.66832" lon="5.01278">
        <ele>320.7</ele>
        <time>2024-05-17T09:27:13Z</time>
      </trkpt>
      <trkpt lat="44.66827" lon="5.0128">
        <ele>321</ele>
        <time>2024-05-17T09:27:14Z</time>
      </trkpt>
      <trkpt lat="44.66826" lon="5.0128">
        <ele>321</ele>
        <time>2024-05-17T09:27:15Z</time>
      </trkpt>
      <trkpt lat="44.66823" lon="5.01281">
        <ele>321.2</ele>
        <time>2024-05-17T09:27:16Z</time>
      </trkpt>
      <trkpt lat="44.66819" lon="5.01283">
        <ele>321.3</ele>
        <time>2024-05-17T09:27:17Z</time>
      </trkpt>
      <trkpt lat="44.66815" lon="5.01285">
        <ele>321.6</ele>
        <time>2024-05-17T09:27:18Z</time>
      </trkpt>
      <trkpt lat="44.66813" lon="5.01285">
        <ele>321.6</ele>
        <time>2024-05-17T09:27:19Z</time>
      </trkpt>
      <trkpt lat="44.6681" lon="5.01287">
        <ele>321.8</ele>
        <time>2024-05-17T09:27:20Z</time>
      </trkpt>
      <trkpt lat="44.66805" lon="5.01288">
        <ele>322</ele>
        <time>2024-05-17T09:27:21Z</time>
      </trkpt>
      <trkpt lat="44.66803" lon="5.01289">
        <ele>322.1</ele>
        <time>2024-05-17T09:27:22Z</time>
      </trkpt>
      <trkpt lat="44.66798" lon="5.01291">
        <ele>322.3</ele>
        <time>2024-05-17T09:27:23Z</time>
      </trkpt>
      <trkpt lat="44.66797" lon="5.01292">
        <ele>322.4</ele>
        <time>2024-05-17T09:27:24Z</time>
      </trkpt>
      <trkpt lat="44.66791" lon="5.01294">
        <ele>322.7</ele>
        <time>2024-05-17T09:27:25Z</time>
      </trkpt>
      <trkpt lat="44.66789" lon="5.01295">
        <ele>322.7</ele>
        <time>2024-05-17T09:27:26Z</time>
      </trkpt>
      <trkpt lat="44.66786" lon="5.01296">
        <ele>322.9</ele>
        <time>2024-05-17T09:27:27Z</time>
      </trkpt>
      <trkpt lat="44.66781" lon="5.01298">
        <ele>323.2</ele>
        <time>2024-05-17T09:27:28Z</time>
      </trkpt>
      <trkpt lat="44.66779" lon="5.01299">
        <ele>323.2</ele>
        <time>2024-05-17T09:27:29Z</time>
      </trkpt>
      <trkpt lat="44.66774" lon="5.01302">
        <ele>323.5</ele>
        <time>2024-05-17T09:27:30Z</time>
      </trkpt>
      <trkpt lat="44.66773" lon="5.01303">
        <ele>323.6</ele>
        <time>2024-05-17T09:27:31Z</time>
      </trkpt>
      <trkpt lat="44.66768" lon="5.01306">
        <ele>323.8</ele>
        <time>2024-05-17T09:27:32Z</time>
      </trkpt>
      <trkpt lat="44.66766" lon="5.01307">
        <ele>323.9</ele>
        <time>2024-05-17T09:27:33Z</time>
      </trkpt>
      <trkpt lat="44.66761" lon="5.0131">
        <ele>324.1</ele>
        <time>2024-05-17T09:27:34Z</time>
      </trkpt>
      <trkpt lat="44.6676" lon="5.01311">
        <ele>324.2</ele>
        <time>2024-05-17T09:27:35Z</time>
      </trkpt>
      <trkpt lat="44.66757" lon="5.01313">
        <ele>324.3</ele>
        <time>2024-05-17T09:27:36Z</time>
      </trkpt>
      <trkpt lat="44.66754" lon="5.01316">
        <ele>324.5</ele>
        <time>2024-05-17T09:27:37Z</time>
      </trkpt>
      <trkpt lat="44.66751" lon="5.01319">
        <ele>324.6</ele>
        <time>2024-05-17T09:27:38Z</time>
      </trkpt>
      <trkpt lat="44.66748" lon="5.01323">
        <ele>324.8</ele>
        <time>2024-05-17T09:27:39Z</time>
      </trkpt>
      <trkpt lat="44.66745" lon="5.01326">
        <ele>325</ele>
        <time>2024-05-17T09:27:40Z</time>
      </trkpt>
      <trkpt lat="44.66743" lon="5.0133">
        <ele>325.1</ele>
        <time>2024-05-17T09:27:41Z</time>
      </trkpt>
      <trkpt lat="44.66739" lon="5.01335">
        <ele>325.3</ele>
        <time>2024-05-17T09:27:42Z</time>
      </trkpt>
      <trkpt lat="44.66737" lon="5.01337">
        <ele>325.4</ele>
        <time>2024-05-17T09:27:43Z</time>
      </trkpt>
      <trkpt lat="44.66733" lon="5.01343">
        <ele>325.7</ele>
        <time>2024-05-17T09:27:44Z</time>
      </trkpt>
      <trkpt lat="44.66732" lon="5.01345">
        <ele>325.7</ele>
        <time>2024-05-17T09:27:45Z</time>
      </trkpt>
      <trkpt lat="44.66728" lon="5.01352">
        <ele>326</ele>
        <time>2024-05-17T09:27:46Z</time>
      </trkpt>
      <trkpt lat="44.66727" lon="5.01354">
        <ele>326.1</ele>
        <time>2024-05-17T09:27:47Z</time>
      </trkpt>
      <trkpt lat="44.66723" lon="5.0136">
        <ele>326.3</ele>
        <time>2024-05-17T09:27:48Z</time>
      </trkpt>
      <trkpt lat="44.66722" lon="5.01363">
        <ele>326.4</ele>
        <time>2024-05-17T09:27:49Z</time>
      </trkpt>
      <trkpt lat="44.66718" lon="5.01369">
        <ele>326.6</ele>
        <time>2024-05-17T09:27:50Z</time>
      </trkpt>
      <trkpt lat="44.66717" lon="5.01372">
        <ele>326.7</ele>
        <time>2024-05-17T09:27:51Z</time>
      </trkpt>
      <trkpt lat="44.66714" lon="5.01376">
        <ele>326.9</ele>
        <time>2024-05-17T09:27:52Z</time>
      </trkpt>
      <trkpt lat="44.66712" lon="5.01381">
        <ele>327</ele>
        <time>2024-05-17T09:27:53Z</time>
      </trkpt>
      <trkpt lat="44.6671" lon="5.01385">
        <ele>327.2</ele>
        <time>2024-05-17T09:27:54Z</time>
      </trkpt>
      <trkpt lat="44.66707" lon="5.01389">
        <ele>327.3</ele>
        <time>2024-05-17T09:27:55Z</time>
      </trkpt>
      <trkpt lat="44.66705" lon="5.01394">
        <ele>327.5</ele>
        <time>2024-05-17T09:27:56Z</time>
      </trkpt>
      <trkpt lat="44.66702" lon="5.01398">
        <ele>327.6</ele>
        <time>2024-05-17T09:27:57Z</time>
      </trkpt>
      <trkpt lat="44.66699" lon="5.01404">
        <ele>327.9</ele>
        <time>2024-05-17T09:27:58Z</time>
      </trkpt>
      <trkpt lat="44.66698" lon="5.01406">
        <ele>327.9</ele>
        <time>2024-05-17T09:27:59Z</time>
      </trkpt>
      <trkpt lat="44.66694" lon="5.01412">
        <ele>328.1</ele>
        <time>2024-05-17T09:28:00Z</time>
      </trkpt>
      <trkpt lat="44.66693" lon="5.01414">
        <ele>328.2</ele>
        <time>2024-05-17T09:28:01Z</time>
      </trkpt>
      <trkpt lat="44.6669" lon="5.01421">
        <ele>328.4</ele>
        <time>2024-05-17T09:28:02Z</time>
      </trkpt>
      <trkpt lat="44.66688" lon="5.01423">
        <ele>328.5</ele>
        <time>2024-05-17T09:28:03Z</time>
      </trkpt>
      <trkpt lat="44.66686" lon="5.01427">
        <ele>328.6</ele>
        <time>2024-05-17T09:28:04Z</time>
      </trkpt>
      <trkpt lat="44.66682" lon="5.01434">
        <ele>328.8</ele>
        <time>2024-05-17T09:28:05Z</time>
      </trkpt>
      <trkpt lat="44.66681" lon="5.01436">
        <ele>328.9</ele>
        <time>2024-05-17T09:28:06Z</time>
      </trkpt>
      <trkpt lat="44.66678" lon="5.01442">
        <ele>329.1</ele>
        <time>2024-05-17T09:28:07Z</time>
      </trkpt>
      <trkpt lat="44.66677" lon="5.01444">
        <ele>329.2</ele>
        <time>2024-05-17T09:28:08Z</time>
      </trkpt>
      <trkpt lat="44.66674" lon="5.01448">
        <ele>329.3</ele>
        <time>2024-05-17T09:28:09Z</time>
      </trkpt>
      <trkpt lat="44.66671" lon="5.01454">
        <ele>329.6</ele>
        <time>2024-05-17T09:28:10Z</time>
      </trkpt>
      <trkpt lat="44.6667" lon="5.01456">
        <ele>329.6</ele>
        <time>2024-05-17T09:28:11Z</time>
      </trkpt>
      <trkpt lat="44.66666" lon="5.01462">
        <ele>329.9</ele>
        <time>2024-05-17T09:28:12Z</time>
      </trkpt>
      <trkpt lat="44.66665" lon="5.01464">
        <ele>329.9</ele>
        <time>2024-05-17T09:28:13Z</time>
      </trkpt>
      <trkpt lat="44.66661" lon="5.0147">
        <ele>330.2</ele>
        <time>2024-05-17T09:28:14Z</time>
      </trkpt>
      <trkpt lat="44.6666" lon="5.01473">
        <ele>330.2</ele>
        <time>2024-05-17T09:28:15Z</time>
      </trkpt>
      <trkpt lat="44.66656" lon="5.01479">
        <ele>330.5</ele>
        <time>2024-05-17T09:28:16Z</time>
      </trkpt>
      <trkpt lat="44.66655" lon="5.01481">
        <ele>330.5</ele>
        <time>2024-05-17T09:28:17Z</time>
      </trkpt>
      <trkpt lat="44.66651" lon="5.01487">
        <ele>330.8</ele>
        <time>2024-05-17T09:28:18Z</time>
      </trkpt>
      <trkpt lat="44.6665" lon="5.01489">
        <ele>330.9</ele>
        <time>2024-05-17T09:28:19Z</time>
      </trkpt>
      <trkpt lat="44.66647" lon="5.01493">
        <ele>331</ele>
        <time>2024-05-17T09:28:20Z</time>
      </trkpt>
      <trkpt lat="44.66645" lon="5.01496">
        <ele>331.2</ele>
        <time>2024-05-17T09:28:21Z</time>
      </trkpt>
      <trkpt lat="44.66642" lon="5.015">
        <ele>331.3</ele>
        <time>2024-05-17T09:28:22Z</time>
      </trkpt>
      <trkpt lat="44.66639" lon="5.01504">
        <ele>331.5</ele>
        <time>2024-05-17T09:28:23Z</time>
      </trkpt>
      <trkpt lat="44.66635" lon="5.01509">
        <ele>331.7</ele>
        <time>2024-05-17T09:28:24Z</time>
      </trkpt>
      <trkpt lat="44.66634" lon="5.01511">
        <ele>331.8</ele>
        <time>2024-05-17T09:28:25Z</time>
      </trkpt>
      <trkpt lat="44.66629" lon="5.01515">
        <ele>332</ele>
        <time>2024-05-17T09:28:26Z</time>
      </trkpt>
      <trkpt lat="44.66628" lon="5.01517">
        <ele>332.1</ele>
        <time>2024-05-17T09:28:27Z</time>
      </trkpt>
      <trkpt lat="44.66624" lon="5.01522">
        <ele>332.3</ele>
        <time>2024-05-17T09:28:28Z</time>
      </trkpt>
      <trkpt lat="44.66622" lon="5.01523">
        <ele>332.3</ele>
        <time>2024-05-17T09:28:29Z</time>
      </trkpt>
      <trkpt lat="44.66618" lon="5.01527">
        <ele>332.5</ele>
        <time>2024-05-17T09:28:30Z</time>
      </trkpt>
      <trkpt lat="44.66617" lon="5.01529">
        <ele>332.6</ele>
        <time>2024-05-17T09:28:31Z</time>
      </trkpt>
      <trkpt lat="44.66612" lon="5.01533">
        <ele>332.8</ele>
        <time>2024-05-17T09:28:32Z</time>
      </trkpt>
      <trkpt lat="44.66611" lon="5.01535">
        <ele>332.9</ele>
        <time>2024-05-17T09:28:33Z</time>
      </trkpt>
      <trkpt lat="44.66608" lon="5.01537">
        <ele>333</ele>
        <time>2024-05-17T09:28:34Z</time>
      </trkpt>
      <trkpt lat="44.66604" lon="5.0154">
        <ele>333.1</ele>
        <time>2024-05-17T09:28:35Z</time>
      </trkpt>
      <trkpt lat="44.66601" lon="5.01543">
        <ele>333.2</ele>
        <time>2024-05-17T09:28:36Z</time>
      </trkpt>
      <trkpt lat="44.66598" lon="5.01546">
        <ele>333.4</ele>
        <time>2024-05-17T09:28:37Z</time>
      </trkpt>
      <trkpt lat="44.66595" lon="5.01549">
        <ele>333.5</ele>
        <time>2024-05-17T09:28:38Z</time>
      </trkpt>
      <trkpt lat="44.66592" lon="5.01552">
        <ele>333.6</ele>
        <time>2024-05-17T09:28:39Z</time>
      </trkpt>
      <trkpt lat="44.66589" lon="5.01555">
        <ele>333.7</ele>
        <time>2024-05-17T09:28:40Z</time>
      </trkpt>
      <trkpt lat="44.66586" lon="5.01558">
        <ele>333.9</ele>
        <time>2024-05-17T09:28:41Z</time>
      </trkpt>
      <trkpt lat="44.66581" lon="5.01563">
        <ele>334</ele>
        <time>2024-05-17T09:28:42Z</time>
      </trkpt>
      <trkpt lat="44.6658" lon="5.01564">
        <ele>334.1</ele>
        <time>2024-05-17T09:28:43Z</time>
      </trkpt>
      <trkpt lat="44.66575" lon="5.01569">
        <ele>334.2</ele>
        <time>2024-05-17T09:28:44Z</time>
      </trkpt>
      <trkpt lat="44.66573" lon="5.0157">
        <ele>334.3</ele>
        <time>2024-05-17T09:28:45Z</time>
      </trkpt>
      <trkpt lat="44.6657" lon="5.01573">
        <ele>334.4</ele>
        <time>2024-05-17T09:28:46Z</time>
      </trkpt>
      <trkpt lat="44.66565" lon="5.01578">
        <ele>334.6</ele>
        <time>2024-05-17T09:28:47Z</time>
      </trkpt>
      <trkpt lat="44.66564" lon="5.0158">
        <ele>334.6</ele>
        <time>2024-05-17T09:28:48Z</time>
      </trkpt>
      <trkpt lat="44.66559" lon="5.01585">
        <ele>334.8</ele>
        <time>2024-05-17T09:28:49Z</time>
      </trkpt>
      <trkpt lat="44.66558" lon="5.01587">
        <ele>334.8</ele>
        <time>2024-05-17T09:28:50Z</time>
      </trkpt>
      <trkpt lat="44.66554" lon="5.0159">
        <ele>334.9</ele>
        <time>2024-05-17T09:28:51Z</time>
      </trkpt>
      <trkpt lat="44.66549" lon="5.01594">
        <ele>335</ele>
        <time>2024-05-17T09:28:52Z</time>
      </trkpt>
      <trkpt lat="44.66548" lon="5.01595">
        <ele>335.1</ele>
        <time>2024-05-17T09:28:53Z</time>
      </trkpt>
      <trkpt lat="44.66542" lon="5.01599">
        <ele>335.2</ele>
        <time>2024-05-17T09:28:54Z</time>
      </trkpt>
      <trkpt lat="44.66541" lon="5.01601">
        <ele>335.3</ele>
        <time>2024-05-17T09:28:55Z</time>
      </trkpt>
      <trkpt lat="44.66535" lon="5.01605">
        <ele>335.4</ele>
        <time>2024-05-17T09:28:56Z</time>
      </trkpt>
      <trkpt lat="44.66534" lon="5.01607">
        <ele>335.5</ele>
        <time>2024-05-17T09:28:57Z</time>
      </trkpt>
      <trkpt lat="44.66529" lon="5.01612">
        <ele>335.5</ele>
        <time>2024-05-17T09:28:58Z</time>
      </trkpt>
      <trkpt lat="44.66527" lon="5.01613">
        <ele>335.5</ele>
        <time>2024-05-17T09:28:59Z</time>
      </trkpt>
      <trkpt lat="44.66522" lon="5.01618">
        <ele>335.5</ele>
        <time>2024-05-17T09:29:00Z</time>
      </trkpt>
      <trkpt lat="44.6652" lon="5.0162">
        <ele>335.5</ele>
        <time>2024-05-17T09:29:01Z</time>
      </trkpt>
      <trkpt lat="44.66517" lon="5.01624">
        <ele>335.6</ele>
        <time>2024-05-17T09:29:02Z</time>
      </trkpt>
      <trkpt lat="44.66514" lon="5.01627">
        <ele>335.7</ele>
        <time>2024-05-17T09:29:03Z</time>
      </trkpt>
      <trkpt lat="44.6651" lon="5.0163">
        <ele>335.8</ele>
        <time>2024-05-17T09:29:04Z</time>
      </trkpt>
      <trkpt lat="44.66507" lon="5.01633">
        <ele>335.9</ele>
        <time>2024-05-17T09:29:05Z</time>
      </trkpt>
      <trkpt lat="44.66503" lon="5.01637">
        <ele>336</ele>
        <time>2024-05-17T09:29:06Z</time>
      </trkpt>
      <trkpt lat="44.665" lon="5.0164">
        <ele>336.1</ele>
        <time>2024-05-17T09:29:07Z</time>
      </trkpt>
      <trkpt lat="44.66496" lon="5.01644">
        <ele>336.3</ele>
        <time>2024-05-17T09:29:08Z</time>
      </trkpt>
      <trkpt lat="44.66494" lon="5.01646">
        <ele>336.4</ele>
        <time>2024-05-17T09:29:09Z</time>
      </trkpt>
      <trkpt lat="44.66489" lon="5.0165">
        <ele>336.5</ele>
        <time>2024-05-17T09:29:10Z</time>
      </trkpt>
      <trkpt lat="44.66488" lon="5.01652">
        <ele>336.6</ele>
        <time>2024-05-17T09:29:11Z</time>
      </trkpt>
      <trkpt lat="44.66485" lon="5.01655">
        <ele>336.7</ele>
        <time>2024-05-17T09:29:12Z</time>
      </trkpt>
      <trkpt lat="44.66482" lon="5.01657">
        <ele>336.9</ele>
        <time>2024-05-17T09:29:13Z</time>
      </trkpt>
      <trkpt lat="44.66477" lon="5.01661">
        <ele>337.1</ele>
        <time>2024-05-17T09:29:14Z</time>
      </trkpt>
      <trkpt lat="44.66475" lon="5.01662">
        <ele>337.1</ele>
        <time>2024-05-17T09:29:15Z</time>
      </trkpt>
      <trkpt lat="44.66472" lon="5.01665">
        <ele>337.3</ele>
        <time>2024-05-17T09:29:16Z</time>
      </trkpt>
      <trkpt lat="44.66469" lon="5.01668">
        <ele>337.4</ele>
        <time>2024-05-17T09:29:17Z</time>
      </trkpt>
      <trkpt lat="44.66466" lon="5.01671">
        <ele>337.6</ele>
        <time>2024-05-17T09:29:18Z</time>
      </trkpt>
      <trkpt lat="44.66463" lon="5.01673">
        <ele>337.8</ele>
        <time>2024-05-17T09:29:19Z</time>
      </trkpt>
      <trkpt lat="44.6646" lon="5.01676">
        <ele>337.9</ele>
        <time>2024-05-17T09:29:20Z</time>
      </trkpt>
      <trkpt lat="44.66457" lon="5.01679">
        <ele>338.1</ele>
        <time>2024-05-17T09:29:21Z</time>
      </trkpt>
      <trkpt lat="44.66454" lon="5.01682">
        <ele>338.3</ele>
        <time>2024-05-17T09:29:22Z</time>
      </trkpt>
      <trkpt lat="44.66451" lon="5.01685">
        <ele>338.4</ele>
        <time>2024-05-17T09:29:23Z</time>
      </trkpt>
      <trkpt lat="44.66447" lon="5.01689">
        <ele>338.7</ele>
        <time>2024-05-17T09:29:24Z</time>
      </trkpt>
      <trkpt lat="44.66446" lon="5.01691">
        <ele>338.7</ele>
        <time>2024-05-17T09:29:25Z</time>
      </trkpt>
      <trkpt lat="44.66441" lon="5.01694">
        <ele>338.9</ele>
        <time>2024-05-17T09:29:26Z</time>
      </trkpt>
      <trkpt lat="44.6644" lon="5.01696">
        <ele>339</ele>
        <time>2024-05-17T09:29:27Z</time>
      </trkpt>
      <trkpt lat="44.66437" lon="5.01698">
        <ele>339.2</ele>
        <time>2024-05-17T09:29:28Z</time>
      </trkpt>
      <trkpt lat="44.66432" lon="5.01703">
        <ele>339.4</ele>
        <time>2024-05-17T09:29:29Z</time>
      </trkpt>
      <trkpt lat="44.66431" lon="5.01704">
        <ele>339.5</ele>
        <time>2024-05-17T09:29:30Z</time>
      </trkpt>
      <trkpt lat="44.66428" lon="5.01707">
        <ele>339.6</ele>
        <time>2024-05-17T09:29:31Z</time>
      </trkpt>
      <trkpt lat="44.66425" lon="5.0171">
        <ele>339.8</ele>
        <time>2024-05-17T09:29:32Z</time>
      </trkpt>
      <trkpt lat="44.6642" lon="5.01714">
        <ele>340</ele>
        <time>2024-05-17T09:29:33Z</time>
      </trkpt>
      <trkpt lat="44.66419" lon="5.01715">
        <ele>340.1</ele>
        <time>2024-05-17T09:29:34Z</time>
      </trkpt>
      <trkpt lat="44.66416" lon="5.01718">
        <ele>340.2</ele>
        <time>2024-05-17T09:29:35Z</time>
      </trkpt>
      <trkpt lat="44.66411" lon="5.01723">
        <ele>340.5</ele>
        <time>2024-05-17T09:29:36Z</time>
      </trkpt>
      <trkpt lat="44.6641" lon="5.01724">
        <ele>340.5</ele>
        <time>2024-05-17T09:29:37Z</time>
      </trkpt>
      <trkpt lat="44.66406" lon="5.01728">
        <ele>340.8</ele>
        <time>2024-05-17T09:29:38Z</time>
      </trkpt>
      <trkpt lat="44.66404" lon="5.01729">
        <ele>340.8</ele>
        <time>2024-05-17T09:29:39Z</time>
      </trkpt>
      <trkpt lat="44.664" lon="5.01733">
        <ele>341.1</ele>
        <time>2024-05-17T09:29:40Z</time>
      </trkpt>
      <trkpt lat="44.66399" lon="5.01734">
        <ele>341.1</ele>
        <time>2024-05-17T09:29:41Z</time>
      </trkpt>
      <trkpt lat="44.66394" lon="5.01739">
        <ele>341.4</ele>
        <time>2024-05-17T09:29:42Z</time>
      </trkpt>
      <trkpt lat="44.66393" lon="5.0174">
        <ele>341.4</ele>
        <time>2024-05-17T09:29:43Z</time>
      </trkpt>
      <trkpt lat="44.6639" lon="5.01743">
        <ele>341.6</ele>
        <time>2024-05-17T09:29:44Z</time>
      </trkpt>
      <trkpt lat="44.66387" lon="5.01745">
        <ele>341.7</ele>
        <time>2024-05-17T09:29:45Z</time>
      </trkpt>
      <trkpt lat="44.66384" lon="5.01748">
        <ele>341.9</ele>
        <time>2024-05-17T09:29:46Z</time>
      </trkpt>
      <trkpt lat="44.66381" lon="5.01751">
        <ele>342.1</ele>
        <time>2024-05-17T09:29:47Z</time>
      </trkpt>
      <trkpt lat="44.66378" lon="5.01753">
        <ele>342.2</ele>
        <time>2024-05-17T09:29:48Z</time>
      </trkpt>
      <trkpt lat="44.66375" lon="5.01756">
        <ele>342.4</ele>
        <time>2024-05-17T09:29:49Z</time>
      </trkpt>
      <trkpt lat="44.66372" lon="5.01759">
        <ele>342.5</ele>
        <time>2024-05-17T09:29:50Z</time>
      </trkpt>
      <trkpt lat="44.66369" lon="5.01761">
        <ele>342.7</ele>
        <time>2024-05-17T09:29:51Z</time>
      </trkpt>
      <trkpt lat="44.66365" lon="5.01766">
        <ele>342.9</ele>
        <time>2024-05-17T09:29:52Z</time>
      </trkpt>
      <trkpt lat="44.66363" lon="5.01767">
        <ele>343</ele>
        <time>2024-05-17T09:29:53Z</time>
      </trkpt>
      <trkpt lat="44.66359" lon="5.01772">
        <ele>343.3</ele>
        <time>2024-05-17T09:29:54Z</time>
      </trkpt>
      <trkpt lat="44.66357" lon="5.01773">
        <ele>343.4</ele>
        <time>2024-05-17T09:29:55Z</time>
      </trkpt>
      <trkpt lat="44.66353" lon="5.01777">
        <ele>343.6</ele>
        <time>2024-05-17T09:29:56Z</time>
      </trkpt>
      <trkpt lat="44.66351" lon="5.01779">
        <ele>343.7</ele>
        <time>2024-05-17T09:29:57Z</time>
      </trkpt>
      <trkpt lat="44.66347" lon="5.01783">
        <ele>343.9</ele>
        <time>2024-05-17T09:29:58Z</time>
      </trkpt>
      <trkpt lat="44.66346" lon="5.01784">
        <ele>344</ele>
        <time>2024-05-17T09:29:59Z</time>
      </trkpt>
      <trkpt lat="44.66343" lon="5.01786">
        <ele>344.2</ele>
        <time>2024-05-17T09:30:00Z</time>
      </trkpt>
      <trkpt lat="44.6634" lon="5.01789">
        <ele>344.4</ele>
        <time>2024-05-17T09:30:01Z</time>
      </trkpt>
      <trkpt lat="44.66337" lon="5.01792">
        <ele>344.5</ele>
        <time>2024-05-17T09:30:02Z</time>
      </trkpt>
      <trkpt lat="44.66334" lon="5.01795">
        <ele>344.7</ele>
        <time>2024-05-17T09:30:03Z</time>
      </trkpt>
      <trkpt lat="44.6633" lon="5.01799">
        <ele>345</ele>
        <time>2024-05-17T09:30:04Z</time>
      </trkpt>
      <trkpt lat="44.66328" lon="5.018">
        <ele>345.1</ele>
        <time>2024-05-17T09:30:05Z</time>
      </trkpt>
      <trkpt lat="44.66326" lon="5.01803">
        <ele>345.3</ele>
        <time>2024-05-17T09:30:06Z</time>
      </trkpt>
      <trkpt lat="44.66323" lon="5.01806">
        <ele>345.5</ele>
        <time>2024-05-17T09:30:07Z</time>
      </trkpt>
      <trkpt lat="44.66318" lon="5.01809">
        <ele>345.8</ele>
        <time>2024-05-17T09:30:08Z</time>
      </trkpt>
      <trkpt lat="44.66317" lon="5.01811">
        <ele>345.8</ele>
        <time>2024-05-17T09:30:09Z</time>
      </trkpt>
      <trkpt lat="44.66312" lon="5.01814">
        <ele>346.1</ele>
        <time>2024-05-17T09:30:10Z</time>
      </trkpt>
      <trkpt lat="44.66311" lon="5.01816">
        <ele>346.2</ele>
        <time>2024-05-17T09:30:11Z</time>
      </trkpt>
      <trkpt lat="44.66308" lon="5.01818">
        <ele>346.4</ele>
        <time>2024-05-17T09:30:12Z</time>
      </trkpt>
      <trkpt lat="44.66304" lon="5.01822">
        <ele>346.6</ele>
        <time>2024-05-17T09:30:13Z</time>
      </trkpt>
      <trkpt lat="44.66303" lon="5.01823">
        <ele>346.7</ele>
        <time>2024-05-17T09:30:14Z</time>
      </trkpt>
      <trkpt lat="44.66298" lon="5.01827">
        <ele>347</ele>
        <time>2024-05-17T09:30:15Z</time>
      </trkpt>
      <trkpt lat="44.66297" lon="5.01828">
        <ele>347.1</ele>
        <time>2024-05-17T09:30:16Z</time>
      </trkpt>
      <trkpt lat="44.66294" lon="5.01831">
        <ele>347.2</ele>
        <time>2024-05-17T09:30:17Z</time>
      </trkpt>
      <trkpt lat="44.6629" lon="5.01835">
        <ele>347.5</ele>
        <time>2024-05-17T09:30:18Z</time>
      </trkpt>
      <trkpt lat="44.66289" lon="5.01836">
        <ele>347.6</ele>
        <time>2024-05-17T09:30:19Z</time>
      </trkpt>
      <trkpt lat="44.66285" lon="5.0184">
        <ele>347.8</ele>
        <time>2024-05-17T09:30:20Z</time>
      </trkpt>
      <trkpt lat="44.66283" lon="5.01842">
        <ele>347.9</ele>
        <time>2024-05-17T09:30:21Z</time>
      </trkpt>
      <trkpt lat="44.66279" lon="5.01845">
        <ele>348.1</ele>
        <time>2024-05-17T09:30:22Z</time>
      </trkpt>
      <trkpt lat="44.66278" lon="5.01846">
        <ele>348.2</ele>
        <time>2024-05-17T09:30:23Z</time>
      </trkpt>
      <trkpt lat="44.66273" lon="5.0185">
        <ele>348.4</ele>
        <time>2024-05-17T09:30:24Z</time>
      </trkpt>
      <trkpt lat="44.66272" lon="5.01852">
        <ele>348.5</ele>
        <time>2024-05-17T09:30:25Z</time>
      </trkpt>
      <trkpt lat="44.66268" lon="5.01856">
        <ele>348.7</ele>
        <time>2024-05-17T09:30:26Z</time>
      </trkpt>
      <trkpt lat="44.66266" lon="5.01857">
        <ele>348.8</ele>
        <time>2024-05-17T09:30:27Z</time>
      </trkpt>
      <trkpt lat="44.66264" lon="5.0186">
        <ele>349</ele>
        <time>2024-05-17T09:30:28Z</time>
      </trkpt>
      <trkpt lat="44.66261" lon="5.01862">
        <ele>349.1</ele>
        <time>2024-05-17T09:30:29Z</time>
      </trkpt>
      <trkpt lat="44.66258" lon="5.01865">
        <ele>349.3</ele>
        <time>2024-05-17T09:30:30Z</time>
      </trkpt>
      <trkpt lat="44.66255" lon="5.01868">
        <ele>349.4</ele>
        <time>2024-05-17T09:30:31Z</time>
      </trkpt>
      <trkpt lat="44.66251" lon="5.01872">
        <ele>349.7</ele>
        <time>2024-05-17T09:30:32Z</time>
      </trkpt>
      <trkpt lat="44.66249" lon="5.01873">
        <ele>349.8</ele>
        <time>2024-05-17T09:30:33Z</time>
      </trkpt>
      <trkpt lat="44.66246" lon="5.01876">
        <ele>349.9</ele>
        <time>2024-05-17T09:30:34Z</time>
      </trkpt>
      <trkpt lat="44.66244" lon="5.01879">
        <ele>350.1</ele>
        <time>2024-05-17T09:30:35Z</time>
      </trkpt>
      <trkpt lat="44.6624" lon="5.01883">
        <ele>350.3</ele>
        <time>2024-05-17T09:30:36Z</time>
      </trkpt>
      <trkpt lat="44.66238" lon="5.01884">
        <ele>350.4</ele>
        <time>2024-05-17T09:30:37Z</time>
      </trkpt>
      <trkpt lat="44.66234" lon="5.01888">
        <ele>350.7</ele>
        <time>2024-05-17T09:30:38Z</time>
      </trkpt>
      <trkpt lat="44.66233" lon="5.01889">
        <ele>350.7</ele>
        <time>2024-05-17T09:30:39Z</time>
      </trkpt>
      <trkpt lat="44.66229" lon="5.01893">
        <ele>351</ele>
        <time>2024-05-17T09:30:40Z</time>
      </trkpt>
      <trkpt lat="44.66227" lon="5.01895">
        <ele>351.1</ele>
        <time>2024-05-17T09:30:41Z</time>
      </trkpt>
      <trkpt lat="44.66224" lon="5.01897">
        <ele>351.3</ele>
        <time>2024-05-17T09:30:42Z</time>
      </trkpt>
      <trkpt lat="44.66221" lon="5.019">
        <ele>351.4</ele>
        <time>2024-05-17T09:30:43Z</time>
      </trkpt>
      <trkpt lat="44.66219" lon="5.01902">
        <ele>351.6</ele>
        <time>2024-05-17T09:30:44Z</time>
      </trkpt>
      <trkpt lat="44.66216" lon="5.01904">
        <ele>351.7</ele>
        <time>2024-05-17T09:30:45Z</time>
      </trkpt>
      <trkpt lat="44.66212" lon="5.01908">
        <ele>352</ele>
        <time>2024-05-17T09:30:46Z</time>
      </trkpt>
      <trkpt lat="44.6621" lon="5.01909">
        <ele>352.1</ele>
        <time>2024-05-17T09:30:47Z</time>
      </trkpt>
      <trkpt lat="44.66207" lon="5.01912">
        <ele>352.2</ele>
        <time>2024-05-17T09:30:48Z</time>
      </trkpt>
      <trkpt lat="44.66205" lon="5.01914">
        <ele>352.4</ele>
        <time>2024-05-17T09:30:49Z</time>
      </trkpt>
      <trkpt lat="44.66202" lon="5.01917">
        <ele>352.5</ele>
        <time>2024-05-17T09:30:50Z</time>
      </trkpt>
      <trkpt lat="44.66199" lon="5.01919">
        <ele>352.7</ele>
        <time>2024-05-17T09:30:51Z</time>
      </trkpt>
      <trkpt lat="44.66196" lon="5.01923">
        <ele>352.9</ele>
        <time>2024-05-17T09:30:52Z</time>
      </trkpt>
      <trkpt lat="44.66194" lon="5.01925">
        <ele>353</ele>
        <time>2024-05-17T09:30:53Z</time>
      </trkpt>
      <trkpt lat="44.66192" lon="5.01927">
        <ele>353.1</ele>
        <time>2024-05-17T09:30:54Z</time>
      </trkpt>
      <trkpt lat="44.66188" lon="5.01931">
        <ele>353.4</ele>
        <time>2024-05-17T09:30:55Z</time>
      </trkpt>
      <trkpt lat="44.66186" lon="5.01932">
        <ele>353.4</ele>
        <time>2024-05-17T09:30:56Z</time>
      </trkpt>
      <trkpt lat="44.66182" lon="5.01936">
        <ele>353.7</ele>
        <time>2024-05-17T09:30:57Z</time>
      </trkpt>
      <trkpt lat="44.66181" lon="5.01938">
        <ele>353.8</ele>
        <time>2024-05-17T09:30:58Z</time>
      </trkpt>
      <trkpt lat="44.66177" lon="5.01941">
        <ele>354</ele>
        <time>2024-05-17T09:30:59Z</time>
      </trkpt>
      <trkpt lat="44.66175" lon="5.01942">
        <ele>354.1</ele>
        <time>2024-05-17T09:31:00Z</time>
      </trkpt>
      <trkpt lat="44.66173" lon="5.01945">
        <ele>354.2</ele>
        <time>2024-05-17T09:31:01Z</time>
      </trkpt>
      <trkpt lat="44.66169" lon="5.01948">
        <ele>354.5</ele>
        <time>2024-05-17T09:31:02Z</time>
      </trkpt>
      <trkpt lat="44.66168" lon="5.0195">
        <ele>354.5</ele>
        <time>2024-05-17T09:31:03Z</time>
      </trkpt>
      <trkpt lat="44.66165" lon="5.01952">
        <ele>354.7</ele>
        <time>2024-05-17T09:31:04Z</time>
      </trkpt>
      <trkpt lat="44.66161" lon="5.01956">
        <ele>354.9</ele>
        <time>2024-05-17T09:31:05Z</time>
      </trkpt>
      <trkpt lat="44.6616" lon="5.01957">
        <ele>355</ele>
        <time>2024-05-17T09:31:06Z</time>
      </trkpt>
      <trkpt lat="44.66156" lon="5.01961">
        <ele>355.2</ele>
        <time>2024-05-17T09:31:07Z</time>
      </trkpt>
      <trkpt lat="44.66155" lon="5.01962">
        <ele>355.3</ele>
        <time>2024-05-17T09:31:08Z</time>
      </trkpt>
      <trkpt lat="44.66152" lon="5.01964">
        <ele>355.4</ele>
        <time>2024-05-17T09:31:09Z</time>
      </trkpt>
      <trkpt lat="44.6615" lon="5.01967">
        <ele>355.6</ele>
        <time>2024-05-17T09:31:10Z</time>
      </trkpt>
      <trkpt lat="44.66147" lon="5.01969">
        <ele>355.7</ele>
        <time>2024-05-17T09:31:11Z</time>
      </trkpt>
      <trkpt lat="44.66144" lon="5.01972">
        <ele>355.9</ele>
        <time>2024-05-17T09:31:12Z</time>
      </trkpt>
      <trkpt lat="44.66142" lon="5.01974">
        <ele>355.9</ele>
        <time>2024-05-17T09:31:13Z</time>
      </trkpt>
      <trkpt lat="44.66139" lon="5.01977">
        <ele>355.9</ele>
        <time>2024-05-17T09:31:14Z</time>
      </trkpt>
      <trkpt lat="44.66137" lon="5.01979">
        <ele>356.1</ele>
        <time>2024-05-17T09:31:15Z</time>
      </trkpt>
      <trkpt lat="44.66134" lon="5.01982">
        <ele>356.2</ele>
        <time>2024-05-17T09:31:16Z</time>
      </trkpt>
      <trkpt lat="44.6613" lon="5.01986">
        <ele>356.5</ele>
        <time>2024-05-17T09:31:17Z</time>
      </trkpt>
      <trkpt lat="44.66129" lon="5.01987">
        <ele>356.5</ele>
        <time>2024-05-17T09:31:18Z</time>
      </trkpt>
      <trkpt lat="44.66125" lon="5.01991">
        <ele>356.8</ele>
        <time>2024-05-17T09:31:19Z</time>
      </trkpt>
      <trkpt lat="44.66124" lon="5.01992">
        <ele>356.9</ele>
        <time>2024-05-17T09:31:20Z</time>
      </trkpt>
      <trkpt lat="44.6612" lon="5.01996">
        <ele>357.1</ele>
        <time>2024-05-17T09:31:21Z</time>
      </trkpt>
      <trkpt lat="44.66118" lon="5.01997">
        <ele>357.2</ele>
        <time>2024-05-17T09:31:22Z</time>
      </trkpt>
      <trkpt lat="44.66116" lon="5.02">
        <ele>357.4</ele>
        <time>2024-05-17T09:31:23Z</time>
      </trkpt>
      <trkpt lat="44.66113" lon="5.02002">
        <ele>357.5</ele>
        <time>2024-05-17T09:31:24Z</time>
      </trkpt>
      <trkpt lat="44.6611" lon="5.02005">
        <ele>357.7</ele>
        <time>2024-05-17T09:31:25Z</time>
      </trkpt>
      <trkpt lat="44.66107" lon="5.02008">
        <ele>357.8</ele>
        <time>2024-05-17T09:31:26Z</time>
      </trkpt>
      <trkpt lat="44.66104" lon="5.0201">
        <ele>358</ele>
        <time>2024-05-17T09:31:27Z</time>
      </trkpt>
      <trkpt lat="44.66101" lon="5.02013">
        <ele>358.2</ele>
        <time>2024-05-17T09:31:28Z</time>
      </trkpt>
      <trkpt lat="44.66098" lon="5.02016">
        <ele>358.3</ele>
        <time>2024-05-17T09:31:29Z</time>
      </trkpt>
      <trkpt lat="44.66095" lon="5.02018">
        <ele>358.5</ele>
        <time>2024-05-17T09:31:30Z</time>
      </trkpt>
      <trkpt lat="44.66092" lon="5.02021">
        <ele>358.6</ele>
        <time>2024-05-17T09:31:31Z</time>
      </trkpt>
      <trkpt lat="44.66089" lon="5.02024">
        <ele>358.7</ele>
        <time>2024-05-17T09:31:32Z</time>
      </trkpt>
      <trkpt lat="44.66085" lon="5.02028">
        <ele>358.9</ele>
        <time>2024-05-17T09:31:33Z</time>
      </trkpt>
      <trkpt lat="44.66083" lon="5.0203">
        <ele>359</ele>
        <time>2024-05-17T09:31:34Z</time>
      </trkpt>
      <trkpt lat="44.6608" lon="5.02033">
        <ele>359.1</ele>
        <time>2024-05-17T09:31:35Z</time>
      </trkpt>
      <trkpt lat="44.66075" lon="5.02037">
        <ele>359.4</ele>
        <time>2024-05-17T09:31:36Z</time>
      </trkpt>
      <trkpt lat="44.66074" lon="5.02038">
        <ele>359.4</ele>
        <time>2024-05-17T09:31:37Z</time>
      </trkpt>
      <trkpt lat="44.66069" lon="5.02042">
        <ele>359.6</ele>
        <time>2024-05-17T09:31:38Z</time>
      </trkpt>
      <trkpt lat="44.66067" lon="5.02044">
        <ele>359.7</ele>
        <time>2024-05-17T09:31:39Z</time>
      </trkpt>
      <trkpt lat="44.66062" lon="5.02047">
        <ele>359.9</ele>
        <time>2024-05-17T09:31:40Z</time>
      </trkpt>
      <trkpt lat="44.66061" lon="5.02049">
        <ele>359.9</ele>
        <time>2024-05-17T09:31:41Z</time>
      </trkpt>
      <trkpt lat="44.66055" lon="5.02053">
        <ele>360.1</ele>
        <time>2024-05-17T09:31:42Z</time>
      </trkpt>
      <trkpt lat="44.66054" lon="5.02054">
        <ele>360.2</ele>
        <time>2024-05-17T09:31:43Z</time>
      </trkpt>
      <trkpt lat="44.66048" lon="5.02058">
        <ele>360.4</ele>
        <time>2024-05-17T09:31:44Z</time>
      </trkpt>
      <trkpt lat="44.66047" lon="5.0206">
        <ele>360.5</ele>
        <time>2024-05-17T09:31:45Z</time>
      </trkpt>
      <trkpt lat="44.66041" lon="5.02064">
        <ele>360.7</ele>
        <time>2024-05-17T09:31:46Z</time>
      </trkpt>
      <trkpt lat="44.66039" lon="5.02065">
        <ele>360.7</ele>
        <time>2024-05-17T09:31:47Z</time>
      </trkpt>
      <trkpt lat="44.66034" lon="5.02069">
        <ele>360.9</ele>
        <time>2024-05-17T09:31:48Z</time>
      </trkpt>
      <trkpt lat="44.66032" lon="5.0207">
        <ele>361</ele>
        <time>2024-05-17T09:31:49Z</time>
      </trkpt>
      <trkpt lat="44.66027" lon="5.02074">
        <ele>361.2</ele>
        <time>2024-05-17T09:31:50Z</time>
      </trkpt>
      <trkpt lat="44.66025" lon="5.02075">
        <ele>361.3</ele>
        <time>2024-05-17T09:31:51Z</time>
      </trkpt>
      <trkpt lat="44.66022" lon="5.02078">
        <ele>361.4</ele>
        <time>2024-05-17T09:31:52Z</time>
      </trkpt>
      <trkpt lat="44.66018" lon="5.0208">
        <ele>361.5</ele>
        <time>2024-05-17T09:31:53Z</time>
      </trkpt>
      <trkpt lat="44.66015" lon="5.02082">
        <ele>361.7</ele>
        <time>2024-05-17T09:31:54Z</time>
      </trkpt>
      <trkpt lat="44.66011" lon="5.02084">
        <ele>361.8</ele>
        <time>2024-05-17T09:31:55Z</time>
      </trkpt>
      <trkpt lat="44.66008" lon="5.02085">
        <ele>361.9</ele>
        <time>2024-05-17T09:31:56Z</time>
      </trkpt>
      <trkpt lat="44.66004" lon="5.02087">
        <ele>362.1</ele>
        <time>2024-05-17T09:31:57Z</time>
      </trkpt>
      <trkpt lat="44.65999" lon="5.02089">
        <ele>362.3</ele>
        <time>2024-05-17T09:31:58Z</time>
      </trkpt>
      <trkpt lat="44.65997" lon="5.02089">
        <ele>362.3</ele>
        <time>2024-05-17T09:31:59Z</time>
      </trkpt>
      <trkpt lat="44.65992" lon="5.02091">
        <ele>362.5</ele>
        <time>2024-05-17T09:32:00Z</time>
      </trkpt>
      <trkpt lat="44.6599" lon="5.02092">
        <ele>362.6</ele>
        <time>2024-05-17T09:32:01Z</time>
      </trkpt>
      <trkpt lat="44.65985" lon="5.02093">
        <ele>362.8</ele>
        <time>2024-05-17T09:32:02Z</time>
      </trkpt>
      <trkpt lat="44.65983" lon="5.02093">
        <ele>362.8</ele>
        <time>2024-05-17T09:32:03Z</time>
      </trkpt>
      <trkpt lat="44.65978" lon="5.02094">
        <ele>363</ele>
        <time>2024-05-17T09:32:04Z</time>
      </trkpt>
      <trkpt lat="44.65976" lon="5.02094">
        <ele>363.1</ele>
        <time>2024-05-17T09:32:05Z</time>
      </trkpt>
      <trkpt lat="44.65972" lon="5.02094">
        <ele>363.2</ele>
        <time>2024-05-17T09:32:06Z</time>
      </trkpt>
      <trkpt lat="44.65968" lon="5.02094">
        <ele>363.4</ele>
        <time>2024-05-17T09:32:07Z</time>
      </trkpt>
      <trkpt lat="44.65965" lon="5.02093">
        <ele>363.5</ele>
        <time>2024-05-17T09:32:08Z</time>
      </trkpt>
      <trkpt lat="44.65961" lon="5.02093">
        <ele>363.7</ele>
        <time>2024-05-17T09:32:09Z</time>
      </trkpt>
      <trkpt lat="44.65958" lon="5.02092">
        <ele>363.8</ele>
        <time>2024-05-17T09:32:10Z</time>
      </trkpt>
      <trkpt lat="44.65954" lon="5.02091">
        <ele>364</ele>
        <time>2024-05-17T09:32:11Z</time>
      </trkpt>
      <trkpt lat="44.65951" lon="5.0209">
        <ele>364.1</ele>
        <time>2024-05-17T09:32:12Z</time>
      </trkpt>
      <trkpt lat="44.65947" lon="5.02089">
        <ele>364.3</ele>
        <time>2024-05-17T09:32:13Z</time>
      </trkpt>
      <trkpt lat="44.65943" lon="5.02088">
        <ele>364.4</ele>
        <time>2024-05-17T09:32:14Z</time>
      </trkpt>
      <trkpt lat="44.6594" lon="5.02087">
        <ele>364.6</ele>
        <time>2024-05-17T09:32:15Z</time>
      </trkpt>
      <trkpt lat="44.65934" lon="5.02085">
        <ele>364.8</ele>
        <time>2024-05-17T09:32:16Z</time>
      </trkpt>
      <trkpt lat="44.65932" lon="5.02085">
        <ele>364.9</ele>
        <time>2024-05-17T09:32:17Z</time>
      </trkpt>
      <trkpt lat="44.65929" lon="5.02084">
        <ele>365</ele>
        <time>2024-05-17T09:32:18Z</time>
      </trkpt>
      <trkpt lat="44.65925" lon="5.02082">
        <ele>365.2</ele>
        <time>2024-05-17T09:32:19Z</time>
      </trkpt>
      <trkpt lat="44.65921" lon="5.0208">
        <ele>365.3</ele>
        <time>2024-05-17T09:32:20Z</time>
      </trkpt>
      <trkpt lat="44.65916" lon="5.02077">
        <ele>365.6</ele>
        <time>2024-05-17T09:32:21Z</time>
      </trkpt>
      <trkpt lat="44.65914" lon="5.02076">
        <ele>365.6</ele>
        <time>2024-05-17T09:32:22Z</time>
      </trkpt>
      <trkpt lat="44.65909" lon="5.02073">
        <ele>365.8</ele>
        <time>2024-05-17T09:32:23Z</time>
      </trkpt>
      <trkpt lat="44.65907" lon="5.02071">
        <ele>365.9</ele>
        <time>2024-05-17T09:32:24Z</time>
      </trkpt>
      <trkpt lat="44.65904" lon="5.02069">
        <ele>366.1</ele>
        <time>2024-05-17T09:32:25Z</time>
      </trkpt>
      <trkpt lat="44.65898" lon="5.02065">
        <ele>366.3</ele>
        <time>2024-05-17T09:32:26Z</time>
      </trkpt>
      <trkpt lat="44.65897" lon="5.02064">
        <ele>366.3</ele>
        <time>2024-05-17T09:32:27Z</time>
      </trkpt>
      <trkpt lat="44.65892" lon="5.02059">
        <ele>366.5</ele>
        <time>2024-05-17T09:32:28Z</time>
      </trkpt>
      <trkpt lat="44.6589" lon="5.02058">
        <ele>366.6</ele>
        <time>2024-05-17T09:32:29Z</time>
      </trkpt>
      <trkpt lat="44.65886" lon="5.02053">
        <ele>366.8</ele>
        <time>2024-05-17T09:32:30Z</time>
      </trkpt>
      <trkpt lat="44.65885" lon="5.02051">
        <ele>366.8</ele>
        <time>2024-05-17T09:32:31Z</time>
      </trkpt>
      <trkpt lat="44.65881" lon="5.02046">
        <ele>367</ele>
        <time>2024-05-17T09:32:32Z</time>
      </trkpt>
      <trkpt lat="44.65879" lon="5.02045">
        <ele>367.1</ele>
        <time>2024-05-17T09:32:33Z</time>
      </trkpt>
      <trkpt lat="44.65876" lon="5.02041">
        <ele>367.2</ele>
        <time>2024-05-17T09:32:34Z</time>
      </trkpt>
      <trkpt lat="44.65874" lon="5.02037">
        <ele>367.3</ele>
        <time>2024-05-17T09:32:35Z</time>
      </trkpt>
      <trkpt lat="44.65871" lon="5.02033">
        <ele>367.5</ele>
        <time>2024-05-17T09:32:36Z</time>
      </trkpt>
      <trkpt lat="44.65869" lon="5.02029">
        <ele>367.6</ele>
        <time>2024-05-17T09:32:37Z</time>
      </trkpt>
      <trkpt lat="44.65865" lon="5.02023">
        <ele>367.8</ele>
        <time>2024-05-17T09:32:38Z</time>
      </trkpt>
      <trkpt lat="44.65864" lon="5.0202">
        <ele>367.8</ele>
        <time>2024-05-17T09:32:39Z</time>
      </trkpt>
      <trkpt lat="44.65862" lon="5.02016">
        <ele>367.9</ele>
        <time>2024-05-17T09:32:40Z</time>
      </trkpt>
      <trkpt lat="44.65859" lon="5.02011">
        <ele>368.1</ele>
        <time>2024-05-17T09:32:41Z</time>
      </trkpt>
      <trkpt lat="44.65857" lon="5.02006">
        <ele>368.2</ele>
        <time>2024-05-17T09:32:42Z</time>
      </trkpt>
      <trkpt lat="44.65855" lon="5.02001">
        <ele>368.3</ele>
        <time>2024-05-17T09:32:43Z</time>
      </trkpt>
      <trkpt lat="44.65852" lon="5.01993">
        <ele>368.5</ele>
        <time>2024-05-17T09:32:44Z</time>
      </trkpt>
      <trkpt lat="44.65851" lon="5.0199">
        <ele>368.5</ele>
        <time>2024-05-17T09:32:45Z</time>
      </trkpt>
      <trkpt lat="44.65849" lon="5.01982">
        <ele>368.7</ele>
        <time>2024-05-17T09:32:46Z</time>
      </trkpt>
      <trkpt lat="44.65848" lon="5.01979">
        <ele>368.7</ele>
        <time>2024-05-17T09:32:47Z</time>
      </trkpt>
      <trkpt lat="44.65846" lon="5.01971">
        <ele>368.9</ele>
        <time>2024-05-17T09:32:48Z</time>
      </trkpt>
      <trkpt lat="44.65846" lon="5.01968">
        <ele>369</ele>
        <time>2024-05-17T09:32:49Z</time>
      </trkpt>
      <trkpt lat="44.65845" lon="5.01962">
        <ele>369.1</ele>
        <time>2024-05-17T09:32:50Z</time>
      </trkpt>
      <trkpt lat="44.65844" lon="5.01957">
        <ele>369.2</ele>
        <time>2024-05-17T09:32:51Z</time>
      </trkpt>
      <trkpt lat="44.65844" lon="5.01948">
        <ele>369.4</ele>
        <time>2024-05-17T09:32:52Z</time>
      </trkpt>
      <trkpt lat="44.65843" lon="5.01945">
        <ele>369.4</ele>
        <time>2024-05-17T09:32:53Z</time>
      </trkpt>
      <trkpt lat="44.65843" lon="5.01936">
        <ele>369.6</ele>
        <time>2024-05-17T09:32:54Z</time>
      </trkpt>
      <trkpt lat="44.65843" lon="5.01934">
        <ele>369.6</ele>
        <time>2024-05-17T09:32:55Z</time>
      </trkpt>
      <trkpt lat="44.65843" lon="5.01925">
        <ele>369.8</ele>
        <time>2024-05-17T09:32:56Z</time>
      </trkpt>
      <trkpt lat="44.65843" lon="5.01923">
        <ele>369.9</ele>
        <time>2024-05-17T09:32:57Z</time>
      </trkpt>
      <trkpt lat="44.65843" lon="5.01917">
        <ele>370</ele>
        <time>2024-05-17T09:32:58Z</time>
      </trkpt>
      <trkpt lat="44.65843" lon="5.01912">
        <ele>370.1</ele>
        <time>2024-05-17T09:32:59Z</time>
      </trkpt>
      <trkpt lat="44.65843" lon="5.01906">
        <ele>370.2</ele>
        <time>2024-05-17T09:33:00Z</time>
      </trkpt>
      <trkpt lat="44.65843" lon="5.01901">
        <ele>370.3</ele>
        <time>2024-05-17T09:33:01Z</time>
      </trkpt>
      <trkpt lat="44.65844" lon="5.01893">
        <ele>370.4</ele>
        <time>2024-05-17T09:33:02Z</time>
      </trkpt>
      <trkpt lat="44.65844" lon="5.01891">
        <ele>370.5</ele>
        <time>2024-05-17T09:33:03Z</time>
      </trkpt>
      <trkpt lat="44.65844" lon="5.01882">
        <ele>370.7</ele>
        <time>2024-05-17T09:33:04Z</time>
      </trkpt>
      <trkpt lat="44.65844" lon="5.0188">
        <ele>370.7</ele>
        <time>2024-05-17T09:33:05Z</time>
      </trkpt>
      <trkpt lat="44.65843" lon="5.01871">
        <ele>370.9</ele>
        <time>2024-05-17T09:33:06Z</time>
      </trkpt>
      <trkpt lat="44.65843" lon="5.01868">
        <ele>371</ele>
        <time>2024-05-17T09:33:07Z</time>
      </trkpt>
      <trkpt lat="44.65843" lon="5.01861">
        <ele>371.2</ele>
        <time>2024-05-17T09:33:08Z</time>
      </trkpt>
      <trkpt lat="44.65843" lon="5.01858">
        <ele>371.3</ele>
        <time>2024-05-17T09:33:09Z</time>
      </trkpt>
      <trkpt lat="44.65842" lon="5.01851">
        <ele>371.4</ele>
        <time>2024-05-17T09:33:10Z</time>
      </trkpt>
      <trkpt lat="44.65842" lon="5.01848">
        <ele>371.5</ele>
        <time>2024-05-17T09:33:11Z</time>
      </trkpt>
      <trkpt lat="44.65841" lon="5.0184">
        <ele>371.7</ele>
        <time>2024-05-17T09:33:12Z</time>
      </trkpt>
      <trkpt lat="44.6584" lon="5.01837">
        <ele>371.8</ele>
        <time>2024-05-17T09:33:13Z</time>
      </trkpt>
      <trkpt lat="44.65839" lon="5.01832">
        <ele>371.9</ele>
        <time>2024-05-17T09:33:14Z</time>
      </trkpt>
      <trkpt lat="44.65838" lon="5.01827">
        <ele>372</ele>
        <time>2024-05-17T09:33:15Z</time>
      </trkpt>
      <trkpt lat="44.65837" lon="5.01822">
        <ele>372.1</ele>
        <time>2024-05-17T09:33:16Z</time>
      </trkpt>
      <trkpt lat="44.65836" lon="5.01818">
        <ele>372.2</ele>
        <time>2024-05-17T09:33:17Z</time>
      </trkpt>
      <trkpt lat="44.65834" lon="5.01813">
        <ele>372.4</ele>
        <time>2024-05-17T09:33:18Z</time>
      </trkpt>
      <trkpt lat="44.65833" lon="5.01807">
        <ele>372.5</ele>
        <time>2024-05-17T09:33:19Z</time>
      </trkpt>
      <trkpt lat="44.65832" lon="5.01802">
        <ele>372.6</ele>
        <time>2024-05-17T09:33:20Z</time>
      </trkpt>
      <trkpt lat="44.6583" lon="5.01794">
        <ele>372.7</ele>
        <time>2024-05-17T09:33:21Z</time>
      </trkpt>
      <trkpt lat="44.6583" lon="5.01792">
        <ele>372.7</ele>
        <time>2024-05-17T09:33:22Z</time>
      </trkpt>
      <trkpt lat="44.65829" lon="5.01786">
        <ele>372.8</ele>
        <time>2024-05-17T09:33:23Z</time>
      </trkpt>
      <trkpt lat="44.65828" lon="5.01781">
        <ele>372.9</ele>
        <time>2024-05-17T09:33:24Z</time>
      </trkpt>
      <trkpt lat="44.65825" lon="5.01772">
        <ele>373.1</ele>
        <time>2024-05-17T09:33:25Z</time>
      </trkpt>
      <trkpt lat="44.65824" lon="5.01769">
        <ele>373.2</ele>
        <time>2024-05-17T09:33:26Z</time>
      </trkpt>
      <trkpt lat="44.65822" lon="5.0176">
        <ele>373.3</ele>
        <time>2024-05-17T09:33:27Z</time>
      </trkpt>
      <trkpt lat="44.65821" lon="5.01758">
        <ele>373.4</ele>
        <time>2024-05-17T09:33:28Z</time>
      </trkpt>
      <trkpt lat="44.65819" lon="5.01749">
        <ele>373.6</ele>
        <time>2024-05-17T09:33:29Z</time>
      </trkpt>
      <trkpt lat="44.65818" lon="5.01746">
        <ele>373.6</ele>
        <time>2024-05-17T09:33:30Z</time>
      </trkpt>
      <trkpt lat="44.65817" lon="5.01741">
        <ele>373.7</ele>
        <time>2024-05-17T09:33:31Z</time>
      </trkpt>
      <trkpt lat="44.65815" lon="5.01735">
        <ele>373.8</ele>
        <time>2024-05-17T09:33:32Z</time>
      </trkpt>
      <trkpt lat="44.65814" lon="5.01731">
        <ele>373.9</ele>
        <time>2024-05-17T09:33:33Z</time>
      </trkpt>
      <trkpt lat="44.65812" lon="5.01725">
        <ele>374</ele>
        <time>2024-05-17T09:33:34Z</time>
      </trkpt>
      <trkpt lat="44.6581" lon="5.01719">
        <ele>374.1</ele>
        <time>2024-05-17T09:33:35Z</time>
      </trkpt>
      <trkpt lat="44.65808" lon="5.01711">
        <ele>374.2</ele>
        <time>2024-05-17T09:33:36Z</time>
      </trkpt>
      <trkpt lat="44.65807" lon="5.01708">
        <ele>374.3</ele>
        <time>2024-05-17T09:33:37Z</time>
      </trkpt>
      <trkpt lat="44.65803" lon="5.017">
        <ele>374.4</ele>
        <time>2024-05-17T09:33:38Z</time>
      </trkpt>
      <trkpt lat="44.65802" lon="5.01697">
        <ele>374.4</ele>
        <time>2024-05-17T09:33:39Z</time>
      </trkpt>
      <trkpt lat="44.658" lon="5.0169">
        <ele>374.5</ele>
        <time>2024-05-17T09:33:40Z</time>
      </trkpt>
      <trkpt lat="44.65797" lon="5.01685">
        <ele>374.6</ele>
        <time>2024-05-17T09:33:41Z</time>
      </trkpt>
      <trkpt lat="44.65794" lon="5.0168">
        <ele>374.8</ele>
        <time>2024-05-17T09:33:42Z</time>
      </trkpt>
      <trkpt lat="44.65791" lon="5.01674">
        <ele>374.9</ele>
        <time>2024-05-17T09:33:43Z</time>
      </trkpt>
      <trkpt lat="44.65788" lon="5.01668">
        <ele>375</ele>
        <time>2024-05-17T09:33:44Z</time>
      </trkpt>
      <trkpt lat="44.65784" lon="5.0166">
        <ele>375.2</ele>
        <time>2024-05-17T09:33:45Z</time>
      </trkpt>
      <trkpt lat="44.65783" lon="5.01657">
        <ele>375.3</ele>
        <time>2024-05-17T09:33:46Z</time>
      </trkpt>
      <trkpt lat="44.6578" lon="5.01652">
        <ele>375.4</ele>
        <time>2024-05-17T09:33:47Z</time>
      </trkpt>
      <trkpt lat="44.65776" lon="5.01647">
        <ele>375.5</ele>
        <time>2024-05-17T09:33:48Z</time>
      </trkpt>
      <trkpt lat="44.65771" lon="5.0164">
        <ele>375.7</ele>
        <time>2024-05-17T09:33:49Z</time>
      </trkpt>
      <trkpt lat="44.65769" lon="5.01637">
        <ele>375.7</ele>
        <time>2024-05-17T09:33:50Z</time>
      </trkpt>
      <trkpt lat="44.65762" lon="5.01631">
        <ele>375.9</ele>
        <time>2024-05-17T09:33:51Z</time>
      </trkpt>
      <trkpt lat="44.6576" lon="5.0163">
        <ele>376</ele>
        <time>2024-05-17T09:33:52Z</time>
      </trkpt>
      <trkpt lat="44.65754" lon="5.01628">
        <ele>376.1</ele>
        <time>2024-05-17T09:33:53Z</time>
      </trkpt>
      <trkpt lat="44.6575" lon="5.01625">
        <ele>376.3</ele>
        <time>2024-05-17T09:33:54Z</time>
      </trkpt>
      <trkpt lat="44.65742" lon="5.01622">
        <ele>376.5</ele>
        <time>2024-05-17T09:33:55Z</time>
      </trkpt>
      <trkpt lat="44.6574" lon="5.01621">
        <ele>376.6</ele>
        <time>2024-05-17T09:33:56Z</time>
      </trkpt>
      <trkpt lat="44.65733" lon="5.01618">
        <ele>376.8</ele>
        <time>2024-05-17T09:33:57Z</time>
      </trkpt>
      <trkpt lat="44.65731" lon="5.01617">
        <ele>376.9</ele>
        <time>2024-05-17T09:33:58Z</time>
      </trkpt>
      <trkpt lat="44.65726" lon="5.01616">
        <ele>377.1</ele>
        <time>2024-05-17T09:33:59Z</time>
      </trkpt>
      <trkpt lat="44.65721" lon="5.01615">
        <ele>377.3</ele>
        <time>2024-05-17T09:34:00Z</time>
      </trkpt>
      <trkpt lat="44.65714" lon="5.01614">
        <ele>377.5</ele>
        <time>2024-05-17T09:34:01Z</time>
      </trkpt>
      <trkpt lat="44.65711" lon="5.01614">
        <ele>377.6</ele>
        <time>2024-05-17T09:34:02Z</time>
      </trkpt>
      <trkpt lat="44.65704" lon="5.01614">
        <ele>377.8</ele>
        <time>2024-05-17T09:34:03Z</time>
      </trkpt>
      <trkpt lat="44.65702" lon="5.01614">
        <ele>377.9</ele>
        <time>2024-05-17T09:34:04Z</time>
      </trkpt>
      <trkpt lat="44.65695" lon="5.01614">
        <ele>378.1</ele>
        <time>2024-05-17T09:34:05Z</time>
      </trkpt>
      <trkpt lat="44.65693" lon="5.01614">
        <ele>378.2</ele>
        <time>2024-05-17T09:34:06Z</time>
      </trkpt>
      <trkpt lat="44.65688" lon="5.01615">
        <ele>378.3</ele>
        <time>2024-05-17T09:34:07Z</time>
      </trkpt>
      <trkpt lat="44.65683" lon="5.01616">
        <ele>378.5</ele>
        <time>2024-05-17T09:34:08Z</time>
      </trkpt>
      <trkpt lat="44.65677" lon="5.01617">
        <ele>378.7</ele>
        <time>2024-05-17T09:34:09Z</time>
      </trkpt>
      <trkpt lat="44.65675" lon="5.01618">
        <ele>378.8</ele>
        <time>2024-05-17T09:34:10Z</time>
      </trkpt>
      <trkpt lat="44.65669" lon="5.01619">
        <ele>379</ele>
        <time>2024-05-17T09:34:11Z</time>
      </trkpt>
      <trkpt lat="44.65667" lon="5.01619">
        <ele>379.1</ele>
        <time>2024-05-17T09:34:12Z</time>
      </trkpt>
      <trkpt lat="44.65661" lon="5.01618">
        <ele>379.3</ele>
        <time>2024-05-17T09:34:13Z</time>
      </trkpt>
      <trkpt lat="44.6566" lon="5.01618">
        <ele>379.3</ele>
        <time>2024-05-17T09:34:14Z</time>
      </trkpt>
      <trkpt lat="44.65655" lon="5.01617">
        <ele>379.5</ele>
        <time>2024-05-17T09:34:15Z</time>
      </trkpt>
      <trkpt lat="44.65651" lon="5.01617">
        <ele>379.6</ele>
        <time>2024-05-17T09:34:16Z</time>
      </trkpt>
      <trkpt lat="44.65646" lon="5.01616">
        <ele>379.7</ele>
        <time>2024-05-17T09:34:17Z</time>
      </trkpt>
      <trkpt lat="44.65643" lon="5.01617">
        <ele>379.8</ele>
        <time>2024-05-17T09:34:18Z</time>
      </trkpt>
      <trkpt lat="44.65637" lon="5.01616">
        <ele>380</ele>
        <time>2024-05-17T09:34:19Z</time>
      </trkpt>
      <trkpt lat="44.65634" lon="5.01616">
        <ele>380</ele>
        <time>2024-05-17T09:34:20Z</time>
      </trkpt>
      <trkpt lat="44.65629" lon="5.01615">
        <ele>380.2</ele>
        <time>2024-05-17T09:34:21Z</time>
      </trkpt>
      <trkpt lat="44.65624" lon="5.01615">
        <ele>380.3</ele>
        <time>2024-05-17T09:34:22Z</time>
      </trkpt>
      <trkpt lat="44.65617" lon="5.01615">
        <ele>380.5</ele>
        <time>2024-05-17T09:34:23Z</time>
      </trkpt>
      <trkpt lat="44.65614" lon="5.01615">
        <ele>380.6</ele>
        <time>2024-05-17T09:34:24Z</time>
      </trkpt>
      <trkpt lat="44.65609" lon="5.01616">
        <ele>380.8</ele>
        <time>2024-05-17T09:34:25Z</time>
      </trkpt>
      <trkpt lat="44.65602" lon="5.01616">
        <ele>381</ele>
        <time>2024-05-17T09:34:26Z</time>
      </trkpt>
      <trkpt lat="44.65599" lon="5.01616">
        <ele>381</ele>
        <time>2024-05-17T09:34:27Z</time>
      </trkpt>
      <trkpt lat="44.65593" lon="5.01617">
        <ele>381.2</ele>
        <time>2024-05-17T09:34:28Z</time>
      </trkpt>
      <trkpt lat="44.65591" lon="5.01618">
        <ele>381.3</ele>
        <time>2024-05-17T09:34:29Z</time>
      </trkpt>
      <trkpt lat="44.65584" lon="5.01619">
        <ele>381.5</ele>
        <time>2024-05-17T09:34:30Z</time>
      </trkpt>
      <trkpt lat="44.65581" lon="5.0162">
        <ele>381.6</ele>
        <time>2024-05-17T09:34:31Z</time>
      </trkpt>
      <trkpt lat="44.65577" lon="5.01621">
        <ele>381.7</ele>
        <time>2024-05-17T09:34:32Z</time>
      </trkpt>
      <trkpt lat="44.6557" lon="5.01624">
        <ele>381.9</ele>
        <time>2024-05-17T09:34:33Z</time>
      </trkpt>
      <trkpt lat="44.65568" lon="5.01624">
        <ele>381.9</ele>
        <time>2024-05-17T09:34:34Z</time>
      </trkpt>
      <trkpt lat="44.65561" lon="5.01627">
        <ele>382.1</ele>
        <time>2024-05-17T09:34:35Z</time>
      </trkpt>
      <trkpt lat="44.65559" lon="5.01628">
        <ele>382.2</ele>
        <time>2024-05-17T09:34:36Z</time>
      </trkpt>
      <trkpt lat="44.65553" lon="5.01631">
        <ele>382.4</ele>
        <time>2024-05-17T09:34:37Z</time>
      </trkpt>
      <trkpt lat="44.65551" lon="5.01632">
        <ele>382.4</ele>
        <time>2024-05-17T09:34:38Z</time>
      </trkpt>
      <trkpt lat="44.65545" lon="5.01635">
        <ele>382.6</ele>
        <time>2024-05-17T09:34:39Z</time>
      </trkpt>
      <trkpt lat="44.65543" lon="5.01636">
        <ele>382.7</ele>
        <time>2024-05-17T09:34:40Z</time>
      </trkpt>
      <trkpt lat="44.65537" lon="5.01641">
        <ele>382.9</ele>
        <time>2024-05-17T09:34:41Z</time>
      </trkpt>
      <trkpt lat="44.65535" lon="5.01642">
        <ele>382.9</ele>
        <time>2024-05-17T09:34:42Z</time>
      </trkpt>
      <trkpt lat="44.65531" lon="5.01645">
        <ele>383.1</ele>
        <time>2024-05-17T09:34:43Z</time>
      </trkpt>
      <trkpt lat="44.65528" lon="5.01648">
        <ele>383.2</ele>
        <time>2024-05-17T09:34:44Z</time>
      </trkpt>
      <trkpt lat="44.65524" lon="5.01652">
        <ele>383.4</ele>
        <time>2024-05-17T09:34:45Z</time>
      </trkpt>
      <trkpt lat="44.65521" lon="5.01655">
        <ele>383.5</ele>
        <time>2024-05-17T09:34:46Z</time>
      </trkpt>
      <trkpt lat="44.65517" lon="5.01659">
        <ele>383.6</ele>
        <time>2024-05-17T09:34:47Z</time>
      </trkpt>
      <trkpt lat="44.65514" lon="5.01663">
        <ele>383.7</ele>
        <time>2024-05-17T09:34:48Z</time>
      </trkpt>
      <trkpt lat="44.65511" lon="5.01666">
        <ele>383.8</ele>
        <time>2024-05-17T09:34:49Z</time>
      </trkpt>
      <trkpt lat="44.65505" lon="5.01672">
        <ele>384</ele>
        <time>2024-05-17T09:34:50Z</time>
      </trkpt>
      <trkpt lat="44.65503" lon="5.01674">
        <ele>384.1</ele>
        <time>2024-05-17T09:34:51Z</time>
      </trkpt>
      <trkpt lat="44.65498" lon="5.01678">
        <ele>384.2</ele>
        <time>2024-05-17T09:34:52Z</time>
      </trkpt>
      <trkpt lat="44.65497" lon="5.0168">
        <ele>384.3</ele>
        <time>2024-05-17T09:34:53Z</time>
      </trkpt>
      <trkpt lat="44.65492" lon="5.01686">
        <ele>384.4</ele>
        <time>2024-05-17T09:34:54Z</time>
      </trkpt>
      <trkpt lat="44.6549" lon="5.01687">
        <ele>384.5</ele>
        <time>2024-05-17T09:34:55Z</time>
      </trkpt>
      <trkpt lat="44.65484" lon="5.01692">
        <ele>384.7</ele>
        <time>2024-05-17T09:34:56Z</time>
      </trkpt>
      <trkpt lat="44.65482" lon="5.01694">
        <ele>384.7</ele>
        <time>2024-05-17T09:34:57Z</time>
      </trkpt>
      <trkpt lat="44.65478" lon="5.01697">
        <ele>384.8</ele>
        <time>2024-05-17T09:34:58Z</time>
      </trkpt>
      <trkpt lat="44.65475" lon="5.01701">
        <ele>385</ele>
        <time>2024-05-17T09:34:59Z</time>
      </trkpt>
      <trkpt lat="44.65471" lon="5.01705">
        <ele>385.1</ele>
        <time>2024-05-17T09:35:00Z</time>
      </trkpt>
      <trkpt lat="44.65468" lon="5.01708">
        <ele>385.2</ele>
        <time>2024-05-17T09:35:01Z</time>
      </trkpt>
      <trkpt lat="44.65464" lon="5.01712">
        <ele>385.4</ele>
        <time>2024-05-17T09:35:02Z</time>
      </trkpt>
      <trkpt lat="44.6546" lon="5.01715">
        <ele>385.5</ele>
        <time>2024-05-17T09:35:03Z</time>
      </trkpt>
      <trkpt lat="44.65455" lon="5.0172">
        <ele>385.7</ele>
        <time>2024-05-17T09:35:04Z</time>
      </trkpt>
      <trkpt lat="44.65453" lon="5.01722">
        <ele>385.8</ele>
        <time>2024-05-17T09:35:05Z</time>
      </trkpt>
      <trkpt lat="44.65448" lon="5.01728">
        <ele>386.1</ele>
        <time>2024-05-17T09:35:06Z</time>
      </trkpt>
      <trkpt lat="44.65446" lon="5.01731">
        <ele>386.2</ele>
        <time>2024-05-17T09:35:07Z</time>
      </trkpt>
      <trkpt lat="44.65442" lon="5.01735">
        <ele>386.3</ele>
        <time>2024-05-17T09:35:08Z</time>
      </trkpt>
      <trkpt lat="44.65436" lon="5.01741">
        <ele>386.6</ele>
        <time>2024-05-17T09:35:09Z</time>
      </trkpt>
      <trkpt lat="44.65435" lon="5.01743">
        <ele>386.7</ele>
        <time>2024-05-17T09:35:10Z</time>
      </trkpt>
      <trkpt lat="44.65429" lon="5.01749">
        <ele>387</ele>
        <time>2024-05-17T09:35:11Z</time>
      </trkpt>
      <trkpt lat="44.65427" lon="5.01751">
        <ele>387</ele>
        <time>2024-05-17T09:35:12Z</time>
      </trkpt>
      <trkpt lat="44.65422" lon="5.01757">
        <ele>387.3</ele>
        <time>2024-05-17T09:35:13Z</time>
      </trkpt>
      <trkpt lat="44.6542" lon="5.01759">
        <ele>387.4</ele>
        <time>2024-05-17T09:35:14Z</time>
      </trkpt>
      <trkpt lat="44.65417" lon="5.01763">
        <ele>387.6</ele>
        <time>2024-05-17T09:35:15Z</time>
      </trkpt>
      <trkpt lat="44.65412" lon="5.01769">
        <ele>387.8</ele>
        <time>2024-05-17T09:35:16Z</time>
      </trkpt>
      <trkpt lat="44.6541" lon="5.01771">
        <ele>387.9</ele>
        <time>2024-05-17T09:35:17Z</time>
      </trkpt>
      <trkpt lat="44.65406" lon="5.01774">
        <ele>388</ele>
        <time>2024-05-17T09:35:18Z</time>
      </trkpt>
      <trkpt lat="44.65402" lon="5.01778">
        <ele>388.2</ele>
        <time>2024-05-17T09:35:19Z</time>
      </trkpt>
      <trkpt lat="44.65399" lon="5.01781">
        <ele>388.4</ele>
        <time>2024-05-17T09:35:20Z</time>
      </trkpt>
      <trkpt lat="44.65396" lon="5.01786">
        <ele>388.5</ele>
        <time>2024-05-17T09:35:21Z</time>
      </trkpt>
      <trkpt lat="44.65391" lon="5.01792">
        <ele>388.7</ele>
        <time>2024-05-17T09:35:22Z</time>
      </trkpt>
      <trkpt lat="44.6539" lon="5.01794">
        <ele>388.8</ele>
        <time>2024-05-17T09:35:23Z</time>
      </trkpt>
      <trkpt lat="44.65385" lon="5.018">
        <ele>389.1</ele>
        <time>2024-05-17T09:35:24Z</time>
      </trkpt>
      <trkpt lat="44.65384" lon="5.01802">
        <ele>389.2</ele>
        <time>2024-05-17T09:35:25Z</time>
      </trkpt>
      <trkpt lat="44.65381" lon="5.01805">
        <ele>389.3</ele>
        <time>2024-05-17T09:35:26Z</time>
      </trkpt>
      <trkpt lat="44.65379" lon="5.01809">
        <ele>389.5</ele>
        <time>2024-05-17T09:35:27Z</time>
      </trkpt>
      <trkpt lat="44.65376" lon="5.01812">
        <ele>389.6</ele>
        <time>2024-05-17T09:35:28Z</time>
      </trkpt>
      <trkpt lat="44.65374" lon="5.01816">
        <ele>389.8</ele>
        <time>2024-05-17T09:35:29Z</time>
      </trkpt>
      <trkpt lat="44.65371" lon="5.0182">
        <ele>389.9</ele>
        <time>2024-05-17T09:35:30Z</time>
      </trkpt>
      <trkpt lat="44.65368" lon="5.01824">
        <ele>390.1</ele>
        <time>2024-05-17T09:35:31Z</time>
      </trkpt>
      <trkpt lat="44.65366" lon="5.01828">
        <ele>390.3</ele>
        <time>2024-05-17T09:35:32Z</time>
      </trkpt>
      <trkpt lat="44.65363" lon="5.01831">
        <ele>390.4</ele>
        <time>2024-05-17T09:35:33Z</time>
      </trkpt>
      <trkpt lat="44.65359" lon="5.01837">
        <ele>390.7</ele>
        <time>2024-05-17T09:35:34Z</time>
      </trkpt>
      <trkpt lat="44.65357" lon="5.01838">
        <ele>390.8</ele>
        <time>2024-05-17T09:35:35Z</time>
      </trkpt>
      <trkpt lat="44.65353" lon="5.01843">
        <ele>391.1</ele>
        <time>2024-05-17T09:35:36Z</time>
      </trkpt>
      <trkpt lat="44.65352" lon="5.01845">
        <ele>391.2</ele>
        <time>2024-05-17T09:35:37Z</time>
      </trkpt>
      <trkpt lat="44.65348" lon="5.0185">
        <ele>391.4</ele>
        <time>2024-05-17T09:35:38Z</time>
      </trkpt>
      <trkpt lat="44.65347" lon="5.01852">
        <ele>391.5</ele>
        <time>2024-05-17T09:35:39Z</time>
      </trkpt>
      <trkpt lat="44.65344" lon="5.01855">
        <ele>391.7</ele>
        <time>2024-05-17T09:35:40Z</time>
      </trkpt>
      <trkpt lat="44.65342" lon="5.01859">
        <ele>391.9</ele>
        <time>2024-05-17T09:35:41Z</time>
      </trkpt>
      <trkpt lat="44.65338" lon="5.01864">
        <ele>392.1</ele>
        <time>2024-05-17T09:35:42Z</time>
      </trkpt>
      <trkpt lat="44.65336" lon="5.01866">
        <ele>392.2</ele>
        <time>2024-05-17T09:35:43Z</time>
      </trkpt>
      <trkpt lat="44.65334" lon="5.0187">
        <ele>392.4</ele>
        <time>2024-05-17T09:35:44Z</time>
      </trkpt>
      <trkpt lat="44.65331" lon="5.01873">
        <ele>392.6</ele>
        <time>2024-05-17T09:35:45Z</time>
      </trkpt>
      <trkpt lat="44.65329" lon="5.01877">
        <ele>392.7</ele>
        <time>2024-05-17T09:35:46Z</time>
      </trkpt>
      <trkpt lat="44.65327" lon="5.01881">
        <ele>392.9</ele>
        <time>2024-05-17T09:35:47Z</time>
      </trkpt>
      <trkpt lat="44.65323" lon="5.01886">
        <ele>393.1</ele>
        <time>2024-05-17T09:35:48Z</time>
      </trkpt>
      <trkpt lat="44.65321" lon="5.01888">
        <ele>393.2</ele>
        <time>2024-05-17T09:35:49Z</time>
      </trkpt>
      <trkpt lat="44.65317" lon="5.01893">
        <ele>393.5</ele>
        <time>2024-05-17T09:35:50Z</time>
      </trkpt>
      <trkpt lat="44.65316" lon="5.01894">
        <ele>393.5</ele>
        <time>2024-05-17T09:35:51Z</time>
      </trkpt>
      <trkpt lat="44.65313" lon="5.01898">
        <ele>393.7</ele>
        <time>2024-05-17T09:35:52Z</time>
      </trkpt>
      <trkpt lat="44.65309" lon="5.01903">
        <ele>394</ele>
        <time>2024-05-17T09:35:53Z</time>
      </trkpt>
      <trkpt lat="44.65308" lon="5.01905">
        <ele>394</ele>
        <time>2024-05-17T09:35:54Z</time>
      </trkpt>
      <trkpt lat="44.65304" lon="5.0191">
        <ele>394.3</ele>
        <time>2024-05-17T09:35:55Z</time>
      </trkpt>
      <trkpt lat="44.65303" lon="5.01911">
        <ele>394.4</ele>
        <time>2024-05-17T09:35:56Z</time>
      </trkpt>
      <trkpt lat="44.653" lon="5.01915">
        <ele>394.6</ele>
        <time>2024-05-17T09:35:57Z</time>
      </trkpt>
      <trkpt lat="44.65298" lon="5.01919">
        <ele>394.7</ele>
        <time>2024-05-17T09:35:58Z</time>
      </trkpt>
      <trkpt lat="44.65296" lon="5.01923">
        <ele>394.9</ele>
        <time>2024-05-17T09:35:59Z</time>
      </trkpt>
      <trkpt lat="44.65294" lon="5.01928">
        <ele>395.1</ele>
        <time>2024-05-17T09:36:00Z</time>
      </trkpt>
      <trkpt lat="44.65292" lon="5.01934">
        <ele>395.3</ele>
        <time>2024-05-17T09:36:01Z</time>
      </trkpt>
      <trkpt lat="44.65292" lon="5.01936">
        <ele>395.4</ele>
        <time>2024-05-17T09:36:02Z</time>
      </trkpt>
      <trkpt lat="44.6529" lon="5.01944">
        <ele>395.7</ele>
        <time>2024-05-17T09:36:03Z</time>
      </trkpt>
      <trkpt lat="44.6529" lon="5.01946">
        <ele>395.7</ele>
        <time>2024-05-17T09:36:04Z</time>
      </trkpt>
      <trkpt lat="44.65289" lon="5.01954">
        <ele>396</ele>
        <time>2024-05-17T09:36:05Z</time>
      </trkpt>
      <trkpt lat="44.65288" lon="5.01957">
        <ele>396.1</ele>
        <time>2024-05-17T09:36:06Z</time>
      </trkpt>
      <trkpt lat="44.65287" lon="5.01965">
        <ele>396.3</ele>
        <time>2024-05-17T09:36:07Z</time>
      </trkpt>
      <trkpt lat="44.65287" lon="5.01968">
        <ele>396.4</ele>
        <time>2024-05-17T09:36:08Z</time>
      </trkpt>
      <trkpt lat="44.65286" lon="5.01974">
        <ele>396.6</ele>
        <time>2024-05-17T09:36:09Z</time>
      </trkpt>
      <trkpt lat="44.65286" lon="5.0198">
        <ele>396.7</ele>
        <time>2024-05-17T09:36:10Z</time>
      </trkpt>
      <trkpt lat="44.65286" lon="5.01986">
        <ele>396.9</ele>
        <time>2024-05-17T09:36:11Z</time>
      </trkpt>
      <trkpt lat="44.65286" lon="5.01991">
        <ele>397</ele>
        <time>2024-05-17T09:36:12Z</time>
      </trkpt>
      <trkpt lat="44.65287" lon="5.01997">
        <ele>397.2</ele>
        <time>2024-05-17T09:36:13Z</time>
      </trkpt>
      <trkpt lat="44.65287" lon="5.02003">
        <ele>397.3</ele>
        <time>2024-05-17T09:36:14Z</time>
      </trkpt>
      <trkpt lat="44.65288" lon="5.02009">
        <ele>397.4</ele>
        <time>2024-05-17T09:36:15Z</time>
      </trkpt>
      <trkpt lat="44.65289" lon="5.02015">
        <ele>397.6</ele>
        <time>2024-05-17T09:36:16Z</time>
      </trkpt>
      <trkpt lat="44.6529" lon="5.02024">
        <ele>397.7</ele>
        <time>2024-05-17T09:36:17Z</time>
      </trkpt>
      <trkpt lat="44.6529" lon="5.02027">
        <ele>397.8</ele>
        <time>2024-05-17T09:36:18Z</time>
      </trkpt>
      <trkpt lat="44.65291" lon="5.02037">
        <ele>398</ele>
        <time>2024-05-17T09:36:19Z</time>
      </trkpt>
      <trkpt lat="44.65291" lon="5.0204">
        <ele>398</ele>
        <time>2024-05-17T09:36:20Z</time>
      </trkpt>
      <trkpt lat="44.65292" lon="5.02049">
        <ele>398.2</ele>
        <time>2024-05-17T09:36:21Z</time>
      </trkpt>
      <trkpt lat="44.65293" lon="5.02052">
        <ele>398.3</ele>
        <time>2024-05-17T09:36:22Z</time>
      </trkpt>
      <trkpt lat="44.65293" lon="5.02059">
        <ele>398.3</ele>
        <time>2024-05-17T09:36:23Z</time>
      </trkpt>
      <trkpt lat="44.65294" lon="5.02065">
        <ele>398.4</ele>
        <time>2024-05-17T09:36:24Z</time>
      </trkpt>
      <trkpt lat="44.65294" lon="5.02071">
        <ele>398.5</ele>
        <time>2024-05-17T09:36:25Z</time>
      </trkpt>
      <trkpt lat="44.65294" lon="5.02078">
        <ele>398.6</ele>
        <time>2024-05-17T09:36:26Z</time>
      </trkpt>
      <trkpt lat="44.65294" lon="5.02084">
        <ele>398.7</ele>
        <time>2024-05-17T09:36:27Z</time>
      </trkpt>
      <trkpt lat="44.65294" lon="5.0209">
        <ele>398.8</ele>
        <time>2024-05-17T09:36:28Z</time>
      </trkpt>
      <trkpt lat="44.65294" lon="5.02097">
        <ele>398.9</ele>
        <time>2024-05-17T09:36:29Z</time>
      </trkpt>
      <trkpt lat="44.65294" lon="5.02103">
        <ele>399</ele>
        <time>2024-05-17T09:36:30Z</time>
      </trkpt>
      <trkpt lat="44.65292" lon="5.02113">
        <ele>399.1</ele>
        <time>2024-05-17T09:36:31Z</time>
      </trkpt>
      <trkpt lat="44.65292" lon="5.02116">
        <ele>399.1</ele>
        <time>2024-05-17T09:36:32Z</time>
      </trkpt>
      <trkpt lat="44.65289" lon="5.02125">
        <ele>399.3</ele>
        <time>2024-05-17T09:36:33Z</time>
      </trkpt>
      <trkpt lat="44.65288" lon="5.02128">
        <ele>399.3</ele>
        <time>2024-05-17T09:36:34Z</time>
      </trkpt>
      <trkpt lat="44.65286" lon="5.02133">
        <ele>399.4</ele>
        <time>2024-05-17T09:36:35Z</time>
      </trkpt>
      <trkpt lat="44.65282" lon="5.02141">
        <ele>399.5</ele>
        <time>2024-05-17T09:36:36Z</time>
      </trkpt>
      <trkpt lat="44.65281" lon="5.02144">
        <ele>399.5</ele>
        <time>2024-05-17T09:36:37Z</time>
      </trkpt>
      <trkpt lat="44.65278" lon="5.02149">
        <ele>399.6</ele>
        <time>2024-05-17T09:36:38Z</time>
      </trkpt>
      <trkpt lat="44.65275" lon="5.02154">
        <ele>399.7</ele>
        <time>2024-05-17T09:36:39Z</time>
      </trkpt>
      <trkpt lat="44.65269" lon="5.0216">
        <ele>399.9</ele>
        <time>2024-05-17T09:36:40Z</time>
      </trkpt>
      <trkpt lat="44.65267" lon="5.02162">
        <ele>400</ele>
        <time>2024-05-17T09:36:41Z</time>
      </trkpt>
      <trkpt lat="44.65263" lon="5.02166">
        <ele>400.1</ele>
        <time>2024-05-17T09:36:42Z</time>
      </trkpt>
      <trkpt lat="44.65257" lon="5.0217">
        <ele>400.3</ele>
        <time>2024-05-17T09:36:43Z</time>
      </trkpt>
      <trkpt lat="44.65255" lon="5.02172">
        <ele>400.4</ele>
        <time>2024-05-17T09:36:44Z</time>
      </trkpt>
      <trkpt lat="44.65248" lon="5.02175">
        <ele>400.6</ele>
        <time>2024-05-17T09:36:45Z</time>
      </trkpt>
      <trkpt lat="44.65246" lon="5.02176">
        <ele>400.7</ele>
        <time>2024-05-17T09:36:46Z</time>
      </trkpt>
      <trkpt lat="44.6524" lon="5.0218">
        <ele>400.9</ele>
        <time>2024-05-17T09:36:47Z</time>
      </trkpt>
      <trkpt lat="44.65238" lon="5.02181">
        <ele>400.9</ele>
        <time>2024-05-17T09:36:48Z</time>
      </trkpt>
      <trkpt lat="44.65231" lon="5.02184">
        <ele>401.2</ele>
        <time>2024-05-17T09:36:49Z</time>
      </trkpt>
      <trkpt lat="44.65228" lon="5.02185">
        <ele>401.2</ele>
        <time>2024-05-17T09:36:50Z</time>
      </trkpt>
      <trkpt lat="44.65224" lon="5.02188">
        <ele>401.4</ele>
        <time>2024-05-17T09:36:51Z</time>
      </trkpt>
      <trkpt lat="44.65219" lon="5.0219">
        <ele>401.5</ele>
        <time>2024-05-17T09:36:52Z</time>
      </trkpt>
      <trkpt lat="44.65215" lon="5.02193">
        <ele>401.7</ele>
        <time>2024-05-17T09:36:53Z</time>
      </trkpt>
      <trkpt lat="44.65211" lon="5.02195">
        <ele>401.8</ele>
        <time>2024-05-17T09:36:54Z</time>
      </trkpt>
      <trkpt lat="44.65207" lon="5.02198">
        <ele>401.9</ele>
        <time>2024-05-17T09:36:55Z</time>
      </trkpt>
      <trkpt lat="44.65202" lon="5.022">
        <ele>402</ele>
        <time>2024-05-17T09:36:56Z</time>
      </trkpt>
      <trkpt lat="44.65195" lon="5.02204">
        <ele>402.2</ele>
        <time>2024-05-17T09:36:57Z</time>
      </trkpt>
      <trkpt lat="44.65193" lon="5.02205">
        <ele>402.3</ele>
        <time>2024-05-17T09:36:58Z</time>
      </trkpt>
      <trkpt lat="44.65189" lon="5.02207">
        <ele>402.5</ele>
        <time>2024-05-17T09:36:59Z</time>
      </trkpt>
      <trkpt lat="44.65185" lon="5.0221">
        <ele>402.6</ele>
        <time>2024-05-17T09:37:00Z</time>
      </trkpt>
      <trkpt lat="44.6518" lon="5.02212">
        <ele>402.8</ele>
        <time>2024-05-17T09:37:01Z</time>
      </trkpt>
      <trkpt lat="44.65176" lon="5.02215">
        <ele>402.9</ele>
        <time>2024-05-17T09:37:02Z</time>
      </trkpt>
      <trkpt lat="44.6517" lon="5.02221">
        <ele>403.2</ele>
        <time>2024-05-17T09:37:03Z</time>
      </trkpt>
      <trkpt lat="44.65168" lon="5.02223">
        <ele>403.3</ele>
        <time>2024-05-17T09:37:04Z</time>
      </trkpt>
      <trkpt lat="44.65165" lon="5.02227">
        <ele>403.4</ele>
        <time>2024-05-17T09:37:05Z</time>
      </trkpt>
      <trkpt lat="44.65162" lon="5.02232">
        <ele>403.6</ele>
        <time>2024-05-17T09:37:06Z</time>
      </trkpt>
      <trkpt lat="44.65159" lon="5.02236">
        <ele>403.8</ele>
        <time>2024-05-17T09:37:07Z</time>
      </trkpt>
      <trkpt lat="44.65157" lon="5.02241">
        <ele>403.9</ele>
        <time>2024-05-17T09:37:08Z</time>
      </trkpt>
      <trkpt lat="44.65154" lon="5.02247">
        <ele>404.1</ele>
        <time>2024-05-17T09:37:09Z</time>
      </trkpt>
      <trkpt lat="44.65152" lon="5.02252">
        <ele>404.2</ele>
        <time>2024-05-17T09:37:10Z</time>
      </trkpt>
      <trkpt lat="44.65149" lon="5.02257">
        <ele>404.4</ele>
        <time>2024-05-17T09:37:11Z</time>
      </trkpt>
      <trkpt lat="44.65147" lon="5.02263">
        <ele>404.5</ele>
        <time>2024-05-17T09:37:12Z</time>
      </trkpt>
      <trkpt lat="44.65144" lon="5.02268">
        <ele>404.7</ele>
        <time>2024-05-17T09:37:13Z</time>
      </trkpt>
      <trkpt lat="44.65142" lon="5.02273">
        <ele>404.8</ele>
        <time>2024-05-17T09:37:14Z</time>
      </trkpt>
      <trkpt lat="44.65138" lon="5.02281">
        <ele>405.1</ele>
        <time>2024-05-17T09:37:15Z</time>
      </trkpt>
      <trkpt lat="44.65137" lon="5.02284">
        <ele>405.1</ele>
        <time>2024-05-17T09:37:16Z</time>
      </trkpt>
      <trkpt lat="44.65133" lon="5.02291">
        <ele>405.4</ele>
        <time>2024-05-17T09:37:17Z</time>
      </trkpt>
      <trkpt lat="44.65131" lon="5.02294">
        <ele>405.4</ele>
        <time>2024-05-17T09:37:18Z</time>
      </trkpt>
      <trkpt lat="44.65127" lon="5.02301">
        <ele>405.7</ele>
        <time>2024-05-17T09:37:19Z</time>
      </trkpt>
      <trkpt lat="44.65126" lon="5.02303">
        <ele>405.7</ele>
        <time>2024-05-17T09:37:20Z</time>
      </trkpt>
      <trkpt lat="44.65122" lon="5.02309">
        <ele>406</ele>
        <time>2024-05-17T09:37:21Z</time>
      </trkpt>
      <trkpt lat="44.6512" lon="5.02312">
        <ele>406</ele>
        <time>2024-05-17T09:37:22Z</time>
      </trkpt>
      <trkpt lat="44.65116" lon="5.02318">
        <ele>406.3</ele>
        <time>2024-05-17T09:37:23Z</time>
      </trkpt>
      <trkpt lat="44.65115" lon="5.0232">
        <ele>406.3</ele>
        <time>2024-05-17T09:37:24Z</time>
      </trkpt>
      <trkpt lat="44.65112" lon="5.02323">
        <ele>406.5</ele>
        <time>2024-05-17T09:37:25Z</time>
      </trkpt>
      <trkpt lat="44.65106" lon="5.02329">
        <ele>406.7</ele>
        <time>2024-05-17T09:37:26Z</time>
      </trkpt>
      <trkpt lat="44.65105" lon="5.02331">
        <ele>406.8</ele>
        <time>2024-05-17T09:37:27Z</time>
      </trkpt>
      <trkpt lat="44.651" lon="5.02336">
        <ele>407</ele>
        <time>2024-05-17T09:37:28Z</time>
      </trkpt>
      <trkpt lat="44.65099" lon="5.02337">
        <ele>407</ele>
        <time>2024-05-17T09:37:29Z</time>
      </trkpt>
      <trkpt lat="44.65095" lon="5.02342">
        <ele>407.3</ele>
        <time>2024-05-17T09:37:30Z</time>
      </trkpt>
      <trkpt lat="44.65094" lon="5.02344">
        <ele>407.3</ele>
        <time>2024-05-17T09:37:31Z</time>
      </trkpt>
      <trkpt lat="44.6509" lon="5.02349">
        <ele>407.5</ele>
        <time>2024-05-17T09:37:32Z</time>
      </trkpt>
      <trkpt lat="44.65088" lon="5.02351">
        <ele>407.6</ele>
        <time>2024-05-17T09:37:33Z</time>
      </trkpt>
      <trkpt lat="44.65085" lon="5.02354">
        <ele>407.7</ele>
        <time>2024-05-17T09:37:34Z</time>
      </trkpt>
      <trkpt lat="44.65082" lon="5.02358">
        <ele>407.8</ele>
        <time>2024-05-17T09:37:35Z</time>
      </trkpt>
      <trkpt lat="44.65079" lon="5.02361">
        <ele>407.9</ele>
        <time>2024-05-17T09:37:36Z</time>
      </trkpt>
      <trkpt lat="44.65076" lon="5.02364">
        <ele>407.9</ele>
        <time>2024-05-17T09:37:37Z</time>
      </trkpt>
      <trkpt lat="44.65072" lon="5.02367">
        <ele>408</ele>
        <time>2024-05-17T09:37:38Z</time>
      </trkpt>
      <trkpt lat="44.65069" lon="5.02371">
        <ele>408</ele>
        <time>2024-05-17T09:37:39Z</time>
      </trkpt>
      <trkpt lat="44.65066" lon="5.02375">
        <ele>408.1</ele>
        <time>2024-05-17T09:37:40Z</time>
      </trkpt>
      <trkpt lat="44.65062" lon="5.02379">
        <ele>408.1</ele>
        <time>2024-05-17T09:37:41Z</time>
      </trkpt>
      <trkpt lat="44.65059" lon="5.02384">
        <ele>408.1</ele>
        <time>2024-05-17T09:37:42Z</time>
      </trkpt>
      <trkpt lat="44.65056" lon="5.02389">
        <ele>408.1</ele>
        <time>2024-05-17T09:37:43Z</time>
      </trkpt>
      <trkpt lat="44.65054" lon="5.02393">
        <ele>408</ele>
        <time>2024-05-17T09:37:44Z</time>
      </trkpt>
      <trkpt lat="44.65052" lon="5.02399">
        <ele>408</ele>
        <time>2024-05-17T09:37:45Z</time>
      </trkpt>
      <trkpt lat="44.65049" lon="5.02405">
        <ele>407.9</ele>
        <time>2024-05-17T09:37:46Z</time>
      </trkpt>
      <trkpt lat="44.65047" lon="5.02411">
        <ele>407.9</ele>
        <time>2024-05-17T09:37:47Z</time>
      </trkpt>
      <trkpt lat="44.65046" lon="5.02418">
        <ele>407.8</ele>
        <time>2024-05-17T09:37:48Z</time>
      </trkpt>
      <trkpt lat="44.65044" lon="5.02426">
        <ele>407.7</ele>
        <time>2024-05-17T09:37:49Z</time>
      </trkpt>
      <trkpt lat="44.65043" lon="5.02433">
        <ele>407.7</ele>
        <time>2024-05-17T09:37:50Z</time>
      </trkpt>
      <trkpt lat="44.65042" lon="5.02441">
        <ele>407.5</ele>
        <time>2024-05-17T09:37:51Z</time>
      </trkpt>
      <trkpt lat="44.65041" lon="5.0245">
        <ele>407.4</ele>
        <time>2024-05-17T09:37:52Z</time>
      </trkpt>
      <trkpt lat="44.65039" lon="5.02462">
        <ele>407.2</ele>
        <time>2024-05-17T09:37:53Z</time>
      </trkpt>
      <trkpt lat="44.65039" lon="5.02467">
        <ele>407.2</ele>
        <time>2024-05-17T09:37:54Z</time>
      </trkpt>
      <trkpt lat="44.65038" lon="5.02475">
        <ele>407</ele>
        <time>2024-05-17T09:37:55Z</time>
      </trkpt>
      <trkpt lat="44.65037" lon="5.02484">
        <ele>406.9</ele>
        <time>2024-05-17T09:37:56Z</time>
      </trkpt>
      <trkpt lat="44.65036" lon="5.02498">
        <ele>406.6</ele>
        <time>2024-05-17T09:37:57Z</time>
      </trkpt>
      <trkpt lat="44.65035" lon="5.02503">
        <ele>406.5</ele>
        <time>2024-05-17T09:37:58Z</time>
      </trkpt>
      <trkpt lat="44.65035" lon="5.02512">
        <ele>406.3</ele>
        <time>2024-05-17T09:37:59Z</time>
      </trkpt>
      <trkpt lat="44.65036" lon="5.02527">
        <ele>406</ele>
        <time>2024-05-17T09:38:00Z</time>
      </trkpt>
      <trkpt lat="44.65037" lon="5.02533">
        <ele>405.9</ele>
        <time>2024-05-17T09:38:01Z</time>
      </trkpt>
      <trkpt lat="44.65039" lon="5.02548">
        <ele>405.6</ele>
        <time>2024-05-17T09:38:02Z</time>
      </trkpt>
      <trkpt lat="44.6504" lon="5.02553">
        <ele>405.4</ele>
        <time>2024-05-17T09:38:03Z</time>
      </trkpt>
      <trkpt lat="44.65042" lon="5.02563">
        <ele>405.2</ele>
        <time>2024-05-17T09:38:04Z</time>
      </trkpt>
      <trkpt lat="44.65047" lon="5.02577">
        <ele>404.8</ele>
        <time>2024-05-17T09:38:05Z</time>
      </trkpt>
      <trkpt lat="44.65049" lon="5.02582">
        <ele>404.7</ele>
        <time>2024-05-17T09:38:06Z</time>
      </trkpt>
      <trkpt lat="44.65055" lon="5.02596">
        <ele>404.3</ele>
        <time>2024-05-17T09:38:07Z</time>
      </trkpt>
      <trkpt lat="44.65057" lon="5.02601">
        <ele>404.2</ele>
        <time>2024-05-17T09:38:08Z</time>
      </trkpt>
      <trkpt lat="44.65065" lon="5.02614">
        <ele>403.8</ele>
        <time>2024-05-17T09:38:09Z</time>
      </trkpt>
      <trkpt lat="44.65067" lon="5.02618">
        <ele>403.7</ele>
        <time>2024-05-17T09:38:10Z</time>
      </trkpt>
      <trkpt lat="44.65076" lon="5.0263">
        <ele>403.4</ele>
        <time>2024-05-17T09:38:11Z</time>
      </trkpt>
      <trkpt lat="44.6508" lon="5.02633">
        <ele>403.2</ele>
        <time>2024-05-17T09:38:12Z</time>
      </trkpt>
      <trkpt lat="44.65089" lon="5.02644">
        <ele>402.9</ele>
        <time>2024-05-17T09:38:13Z</time>
      </trkpt>
      <trkpt lat="44.65093" lon="5.02647">
        <ele>402.8</ele>
        <time>2024-05-17T09:38:14Z</time>
      </trkpt>
      <trkpt lat="44.65102" lon="5.02658">
        <ele>402.4</ele>
        <time>2024-05-17T09:38:15Z</time>
      </trkpt>
      <trkpt lat="44.65105" lon="5.02661">
        <ele>402.3</ele>
        <time>2024-05-17T09:38:16Z</time>
      </trkpt>
      <trkpt lat="44.65112" lon="5.02669">
        <ele>402.1</ele>
        <time>2024-05-17T09:38:17Z</time>
      </trkpt>
      <trkpt lat="44.65117" lon="5.02678">
        <ele>401.8</ele>
        <time>2024-05-17T09:38:18Z</time>
      </trkpt>
      <trkpt lat="44.65122" lon="5.02687">
        <ele>401.6</ele>
        <time>2024-05-17T09:38:19Z</time>
      </trkpt>
      <trkpt lat="44.65126" lon="5.02698">
        <ele>401.4</ele>
        <time>2024-05-17T09:38:20Z</time>
      </trkpt>
      <trkpt lat="44.6513" lon="5.02708">
        <ele>401.2</ele>
        <time>2024-05-17T09:38:21Z</time>
      </trkpt>
      <trkpt lat="44.65132" lon="5.02719">
        <ele>401</ele>
        <time>2024-05-17T09:38:22Z</time>
      </trkpt>
      <trkpt lat="44.65134" lon="5.0273">
        <ele>400.9</ele>
        <time>2024-05-17T09:38:23Z</time>
      </trkpt>
      <trkpt lat="44.65136" lon="5.02741">
        <ele>400.7</ele>
        <time>2024-05-17T09:38:24Z</time>
      </trkpt>
      <trkpt lat="44.65138" lon="5.02752">
        <ele>400.6</ele>
        <time>2024-05-17T09:38:25Z</time>
      </trkpt>
      <trkpt lat="44.6514" lon="5.02763">
        <ele>400.4</ele>
        <time>2024-05-17T09:38:26Z</time>
      </trkpt>
      <trkpt lat="44.65144" lon="5.02779">
        <ele>400.1</ele>
        <time>2024-05-17T09:38:27Z</time>
      </trkpt>
      <trkpt lat="44.65146" lon="5.02784">
        <ele>400.1</ele>
        <time>2024-05-17T09:38:28Z</time>
      </trkpt>
      <trkpt lat="44.65152" lon="5.028">
        <ele>399.9</ele>
        <time>2024-05-17T09:38:29Z</time>
      </trkpt>
      <trkpt lat="44.65155" lon="5.02804">
        <ele>399.9</ele>
        <time>2024-05-17T09:38:30Z</time>
      </trkpt>
      <trkpt lat="44.65159" lon="5.02814">
        <ele>399.9</ele>
        <time>2024-05-17T09:38:31Z</time>
      </trkpt>
      <trkpt lat="44.65164" lon="5.02824">
        <ele>399.9</ele>
        <time>2024-05-17T09:38:32Z</time>
      </trkpt>
      <trkpt lat="44.65169" lon="5.02834">
        <ele>399.9</ele>
        <time>2024-05-17T09:38:33Z</time>
      </trkpt>
      <trkpt lat="44.65174" lon="5.02844">
        <ele>399.7</ele>
        <time>2024-05-17T09:38:34Z</time>
      </trkpt>
      <trkpt lat="44.65179" lon="5.02854">
        <ele>399.4</ele>
        <time>2024-05-17T09:38:35Z</time>
      </trkpt>
      <trkpt lat="44.65184" lon="5.02864">
        <ele>399.2</ele>
        <time>2024-05-17T09:38:36Z</time>
      </trkpt>
      <trkpt lat="44.65191" lon="5.02879">
        <ele>398.9</ele>
        <time>2024-05-17T09:38:37Z</time>
      </trkpt>
      <trkpt lat="44.65194" lon="5.02883">
        <ele>398.8</ele>
        <time>2024-05-17T09:38:38Z</time>
      </trkpt>
      <trkpt lat="44.65203" lon="5.02896">
        <ele>398.6</ele>
        <time>2024-05-17T09:38:39Z</time>
      </trkpt>
      <trkpt lat="44.65206" lon="5.029">
        <ele>398.5</ele>
        <time>2024-05-17T09:38:40Z</time>
      </trkpt>
      <trkpt lat="44.65212" lon="5.02908">
        <ele>398.4</ele>
        <time>2024-05-17T09:38:41Z</time>
      </trkpt>
      <trkpt lat="44.65222" lon="5.02919">
        <ele>398.2</ele>
        <time>2024-05-17T09:38:42Z</time>
      </trkpt>
      <trkpt lat="44.65225" lon="5.02923">
        <ele>398.1</ele>
        <time>2024-05-17T09:38:43Z</time>
      </trkpt>
      <trkpt lat="44.65231" lon="5.0293">
        <ele>398</ele>
        <time>2024-05-17T09:38:44Z</time>
      </trkpt>
      <trkpt lat="44.65241" lon="5.02941">
        <ele>397.8</ele>
        <time>2024-05-17T09:38:45Z</time>
      </trkpt>
      <trkpt lat="44.65244" lon="5.02944">
        <ele>397.8</ele>
        <time>2024-05-17T09:38:46Z</time>
      </trkpt>
      <trkpt lat="44.65254" lon="5.02955">
        <ele>397.6</ele>
        <time>2024-05-17T09:38:47Z</time>
      </trkpt>
      <trkpt lat="44.65257" lon="5.02958">
        <ele>397.5</ele>
        <time>2024-05-17T09:38:48Z</time>
      </trkpt>
      <trkpt lat="44.65267" lon="5.02969">
        <ele>397.3</ele>
        <time>2024-05-17T09:38:49Z</time>
      </trkpt>
      <trkpt lat="44.6527" lon="5.02973">
        <ele>397.2</ele>
        <time>2024-05-17T09:38:50Z</time>
      </trkpt>
      <trkpt lat="44.65279" lon="5.02984">
        <ele>397</ele>
        <time>2024-05-17T09:38:51Z</time>
      </trkpt>
      <trkpt lat="44.65281" lon="5.02988">
        <ele>396.9</ele>
        <time>2024-05-17T09:38:52Z</time>
      </trkpt>
      <trkpt lat="44.65288" lon="5.03002">
        <ele>396.6</ele>
        <time>2024-05-17T09:38:53Z</time>
      </trkpt>
      <trkpt lat="44.6529" lon="5.03007">
        <ele>396.5</ele>
        <time>2024-05-17T09:38:54Z</time>
      </trkpt>
      <trkpt lat="44.65294" lon="5.03022">
        <ele>396.1</ele>
        <time>2024-05-17T09:38:55Z</time>
      </trkpt>
      <trkpt lat="44.65295" lon="5.03027">
        <ele>396</ele>
        <time>2024-05-17T09:38:56Z</time>
      </trkpt>
      <trkpt lat="44.65297" lon="5.03044">
        <ele>395.7</ele>
        <time>2024-05-17T09:38:57Z</time>
      </trkpt>
      <trkpt lat="44.65297" lon="5.03049">
        <ele>395.7</ele>
        <time>2024-05-17T09:38:58Z</time>
      </trkpt>
      <trkpt lat="44.65298" lon="5.0306">
        <ele>395.5</ele>
        <time>2024-05-17T09:38:59Z</time>
      </trkpt>
      <trkpt lat="44.65297" lon="5.03071">
        <ele>395.2</ele>
        <time>2024-05-17T09:39:00Z</time>
      </trkpt>
      <trkpt lat="44.65297" lon="5.03082">
        <ele>395</ele>
        <time>2024-05-17T09:39:01Z</time>
      </trkpt>
      <trkpt lat="44.65296" lon="5.03093">
        <ele>394.8</ele>
        <time>2024-05-17T09:39:02Z</time>
      </trkpt>
      <trkpt lat="44.65296" lon="5.03104">
        <ele>394.6</ele>
        <time>2024-05-17T09:39:03Z</time>
      </trkpt>
      <trkpt lat="44.65294" lon="5.03116">
        <ele>394.4</ele>
        <time>2024-05-17T09:39:04Z</time>
      </trkpt>
      <trkpt lat="44.65291" lon="5.03132">
        <ele>394.1</ele>
        <time>2024-05-17T09:39:05Z</time>
      </trkpt>
      <trkpt lat="44.6529" lon="5.03138">
        <ele>394.1</ele>
        <time>2024-05-17T09:39:06Z</time>
      </trkpt>
      <trkpt lat="44.65286" lon="5.03153">
        <ele>393.8</ele>
        <time>2024-05-17T09:39:07Z</time>
      </trkpt>
      <trkpt lat="44.65284" lon="5.03158">
        <ele>393.7</ele>
        <time>2024-05-17T09:39:08Z</time>
      </trkpt>
      <trkpt lat="44.65281" lon="5.03169">
        <ele>393.6</ele>
        <time>2024-05-17T09:39:09Z</time>
      </trkpt>
      <trkpt lat="44.65277" lon="5.03178">
        <ele>393.4</ele>
        <time>2024-05-17T09:39:10Z</time>
      </trkpt>
      <trkpt lat="44.65272" lon="5.03187">
        <ele>393.2</ele>
        <time>2024-05-17T09:39:11Z</time>
      </trkpt>
      <trkpt lat="44.65267" lon="5.03195">
        <ele>393</ele>
        <time>2024-05-17T09:39:12Z</time>
      </trkpt>
      <trkpt lat="44.65261" lon="5.03204">
        <ele>392.8</ele>
        <time>2024-05-17T09:39:13Z</time>
      </trkpt>
      <trkpt lat="44.65256" lon="5.03212">
        <ele>392.6</ele>
        <time>2024-05-17T09:39:14Z</time>
      </trkpt>
      <trkpt lat="44.6525" lon="5.0322">
        <ele>392.3</ele>
        <time>2024-05-17T09:39:15Z</time>
      </trkpt>
      <trkpt lat="44.65244" lon="5.03228">
        <ele>392.1</ele>
        <time>2024-05-17T09:39:16Z</time>
      </trkpt>
      <trkpt lat="44.65239" lon="5.03236">
        <ele>391.8</ele>
        <time>2024-05-17T09:39:17Z</time>
      </trkpt>
      <trkpt lat="44.6523" lon="5.03249">
        <ele>391.6</ele>
        <time>2024-05-17T09:39:18Z</time>
      </trkpt>
      <trkpt lat="44.65227" lon="5.03253">
        <ele>391.5</ele>
        <time>2024-05-17T09:39:19Z</time>
      </trkpt>
      <trkpt lat="44.65221" lon="5.03261">
        <ele>391.4</ele>
        <time>2024-05-17T09:39:20Z</time>
      </trkpt>
      <trkpt lat="44.65214" lon="5.03269">
        <ele>391.2</ele>
        <time>2024-05-17T09:39:21Z</time>
      </trkpt>
      <trkpt lat="44.65204" lon="5.03279">
        <ele>391.1</ele>
        <time>2024-05-17T09:39:22Z</time>
      </trkpt>
      <trkpt lat="44.65201" lon="5.03282">
        <ele>391</ele>
        <time>2024-05-17T09:39:23Z</time>
      </trkpt>
      <trkpt lat="44.6519" lon="5.03289">
        <ele>390.7</ele>
        <time>2024-05-17T09:39:24Z</time>
      </trkpt>
      <trkpt lat="44.65186" lon="5.03291">
        <ele>390.6</ele>
        <time>2024-05-17T09:39:25Z</time>
      </trkpt>
      <trkpt lat="44.65178" lon="5.03295">
        <ele>390.4</ele>
        <time>2024-05-17T09:39:26Z</time>
      </trkpt>
      <trkpt lat="44.65166" lon="5.033">
        <ele>390</ele>
        <time>2024-05-17T09:39:27Z</time>
      </trkpt>
      <trkpt lat="44.65162" lon="5.03301">
        <ele>389.9</ele>
        <time>2024-05-17T09:39:28Z</time>
      </trkpt>
      <trkpt lat="44.6515" lon="5.03306">
        <ele>389.5</ele>
        <time>2024-05-17T09:39:29Z</time>
      </trkpt>
      <trkpt lat="44.65146" lon="5.03307">
        <ele>389.3</ele>
        <time>2024-05-17T09:39:30Z</time>
      </trkpt>
      <trkpt lat="44.65133" lon="5.03312">
        <ele>388.8</ele>
        <time>2024-05-17T09:39:31Z</time>
      </trkpt>
      <trkpt lat="44.65129" lon="5.03314">
        <ele>388.6</ele>
        <time>2024-05-17T09:39:32Z</time>
      </trkpt>
      <trkpt lat="44.65121" lon="5.03317">
        <ele>388.3</ele>
        <time>2024-05-17T09:39:33Z</time>
      </trkpt>
      <trkpt lat="44.65108" lon="5.03322">
        <ele>387.9</ele>
        <time>2024-05-17T09:39:34Z</time>
      </trkpt>
      <trkpt lat="44.65104" lon="5.03323">
        <ele>387.7</ele>
        <time>2024-05-17T09:39:35Z</time>
      </trkpt>
      <trkpt lat="44.65091" lon="5.03329">
        <ele>387.3</ele>
        <time>2024-05-17T09:39:36Z</time>
      </trkpt>
      <trkpt lat="44.65087" lon="5.0333">
        <ele>387.2</ele>
        <time>2024-05-17T09:39:37Z</time>
      </trkpt>
      <trkpt lat="44.65075" lon="5.03337">
        <ele>386.8</ele>
        <time>2024-05-17T09:39:38Z</time>
      </trkpt>
      <trkpt lat="44.65071" lon="5.03339">
        <ele>386.6</ele>
        <time>2024-05-17T09:39:39Z</time>
      </trkpt>
      <trkpt lat="44.65059" lon="5.03348">
        <ele>386.2</ele>
        <time>2024-05-17T09:39:40Z</time>
      </trkpt>
      <trkpt lat="44.65055" lon="5.03351">
        <ele>386</ele>
        <time>2024-05-17T09:39:41Z</time>
      </trkpt>
      <trkpt lat="44.65048" lon="5.03357">
        <ele>385.7</ele>
        <time>2024-05-17T09:39:42Z</time>
      </trkpt>
      <trkpt lat="44.6504" lon="5.03363">
        <ele>385.4</ele>
        <time>2024-05-17T09:39:43Z</time>
      </trkpt>
      <trkpt lat="44.65033" lon="5.0337">
        <ele>385.1</ele>
        <time>2024-05-17T09:39:44Z</time>
      </trkpt>
      <trkpt lat="44.65025" lon="5.03377">
        <ele>384.9</ele>
        <time>2024-05-17T09:39:45Z</time>
      </trkpt>
      <trkpt lat="44.65014" lon="5.03388">
        <ele>384.5</ele>
        <time>2024-05-17T09:39:46Z</time>
      </trkpt>
      <trkpt lat="44.6501" lon="5.03392">
        <ele>384.4</ele>
        <time>2024-05-17T09:39:47Z</time>
      </trkpt>
      <trkpt lat="44.65003" lon="5.03399">
        <ele>384.2</ele>
        <time>2024-05-17T09:39:48Z</time>
      </trkpt>
      <trkpt lat="44.64995" lon="5.03406">
        <ele>384</ele>
        <time>2024-05-17T09:39:49Z</time>
      </trkpt>
      <trkpt lat="44.64987" lon="5.03413">
        <ele>383.8</ele>
        <time>2024-05-17T09:39:50Z</time>
      </trkpt>
      <trkpt lat="44.6498" lon="5.0342">
        <ele>383.5</ele>
        <time>2024-05-17T09:39:51Z</time>
      </trkpt>
      <trkpt lat="44.64972" lon="5.03427">
        <ele>383.3</ele>
        <time>2024-05-17T09:39:52Z</time>
      </trkpt>
      <trkpt lat="44.64965" lon="5.03434">
        <ele>383.2</ele>
        <time>2024-05-17T09:39:53Z</time>
      </trkpt>
      <trkpt lat="44.64957" lon="5.03442">
        <ele>383</ele>
        <time>2024-05-17T09:39:54Z</time>
      </trkpt>
      <trkpt lat="44.6495" lon="5.0345">
        <ele>382.8</ele>
        <time>2024-05-17T09:39:55Z</time>
      </trkpt>
      <trkpt lat="44.64944" lon="5.03458">
        <ele>382.6</ele>
        <time>2024-05-17T09:39:56Z</time>
      </trkpt>
      <trkpt lat="44.64938" lon="5.03466">
        <ele>382.4</ele>
        <time>2024-05-17T09:39:57Z</time>
      </trkpt>
      <trkpt lat="44.64932" lon="5.03475">
        <ele>382.2</ele>
        <time>2024-05-17T09:39:58Z</time>
      </trkpt>
      <trkpt lat="44.64926" lon="5.03484">
        <ele>382</ele>
        <time>2024-05-17T09:39:59Z</time>
      </trkpt>
      <trkpt lat="44.6492" lon="5.03493">
        <ele>381.7</ele>
        <time>2024-05-17T09:40:00Z</time>
      </trkpt>
      <trkpt lat="44.64912" lon="5.03507">
        <ele>381.3</ele>
        <time>2024-05-17T09:40:01Z</time>
      </trkpt>
      <trkpt lat="44.64909" lon="5.03512">
        <ele>381.2</ele>
        <time>2024-05-17T09:40:02Z</time>
      </trkpt>
      <trkpt lat="44.64901" lon="5.03526">
        <ele>380.8</ele>
        <time>2024-05-17T09:40:03Z</time>
      </trkpt>
      <trkpt lat="44.64898" lon="5.03531">
        <ele>380.7</ele>
        <time>2024-05-17T09:40:04Z</time>
      </trkpt>
      <trkpt lat="44.6489" lon="5.03546">
        <ele>380.3</ele>
        <time>2024-05-17T09:40:05Z</time>
      </trkpt>
      <trkpt lat="44.64887" lon="5.03551">
        <ele>380.2</ele>
        <time>2024-05-17T09:40:06Z</time>
      </trkpt>
      <trkpt lat="44.64879" lon="5.03566">
        <ele>379.8</ele>
        <time>2024-05-17T09:40:07Z</time>
      </trkpt>
      <trkpt lat="44.64877" lon="5.03571">
        <ele>379.7</ele>
        <time>2024-05-17T09:40:08Z</time>
      </trkpt>
      <trkpt lat="44.64871" lon="5.03581">
        <ele>379.4</ele>
        <time>2024-05-17T09:40:09Z</time>
      </trkpt>
      <trkpt lat="44.64863" lon="5.03596">
        <ele>379.1</ele>
        <time>2024-05-17T09:40:10Z</time>
      </trkpt>
      <trkpt lat="44.6486" lon="5.03601">
        <ele>378.9</ele>
        <time>2024-05-17T09:40:11Z</time>
      </trkpt>
      <trkpt lat="44.64852" lon="5.03615">
        <ele>378.6</ele>
        <time>2024-05-17T09:40:12Z</time>
      </trkpt>
      <trkpt lat="44.6485" lon="5.0362">
        <ele>378.5</ele>
        <time>2024-05-17T09:40:13Z</time>
      </trkpt>
      <trkpt lat="44.64844" lon="5.0363">
        <ele>378.2</ele>
        <time>2024-05-17T09:40:14Z</time>
      </trkpt>
      <trkpt lat="44.64836" lon="5.03643">
        <ele>377.9</ele>
        <time>2024-05-17T09:40:15Z</time>
      </trkpt>
      <trkpt lat="44.64833" lon="5.03647">
        <ele>377.8</ele>
        <time>2024-05-17T09:40:16Z</time>
      </trkpt>
      <trkpt lat="44.64823" lon="5.0366">
        <ele>377.4</ele>
        <time>2024-05-17T09:40:17Z</time>
      </trkpt>
      <trkpt lat="44.6482" lon="5.03664">
        <ele>377.3</ele>
        <time>2024-05-17T09:40:18Z</time>
      </trkpt>
      <trkpt lat="44.64809" lon="5.03675">
        <ele>377</ele>
        <time>2024-05-17T09:40:19Z</time>
      </trkpt>
      <trkpt lat="44.64806" lon="5.03678">
        <ele>376.9</ele>
        <time>2024-05-17T09:40:20Z</time>
      </trkpt>
      <trkpt lat="44.64795" lon="5.03688">
        <ele>376.7</ele>
        <time>2024-05-17T09:40:21Z</time>
      </trkpt>
      <trkpt lat="44.64791" lon="5.03691">
        <ele>376.6</ele>
        <time>2024-05-17T09:40:22Z</time>
      </trkpt>
      <trkpt lat="44.64781" lon="5.037">
        <ele>376.4</ele>
        <time>2024-05-17T09:40:23Z</time>
      </trkpt>
      <trkpt lat="44.64777" lon="5.03704">
        <ele>376.3</ele>
        <time>2024-05-17T09:40:24Z</time>
      </trkpt>
      <trkpt lat="44.6477" lon="5.0371">
        <ele>376.2</ele>
        <time>2024-05-17T09:40:25Z</time>
      </trkpt>
      <trkpt lat="44.64763" lon="5.03716">
        <ele>376</ele>
        <time>2024-05-17T09:40:26Z</time>
      </trkpt>
      <trkpt lat="44.64756" lon="5.03722">
        <ele>375.9</ele>
        <time>2024-05-17T09:40:27Z</time>
      </trkpt>
      <trkpt lat="44.64748" lon="5.03728">
        <ele>375.8</ele>
        <time>2024-05-17T09:40:28Z</time>
      </trkpt>
      <trkpt lat="44.64741" lon="5.03735">
        <ele>375.6</ele>
        <time>2024-05-17T09:40:29Z</time>
      </trkpt>
      <trkpt lat="44.64734" lon="5.03741">
        <ele>375.5</ele>
        <time>2024-05-17T09:40:30Z</time>
      </trkpt>
      <trkpt lat="44.64727" lon="5.03747">
        <ele>375.2</ele>
        <time>2024-05-17T09:40:31Z</time>
      </trkpt>
      <trkpt lat="44.6472" lon="5.03752">
        <ele>375</ele>
        <time>2024-05-17T09:40:32Z</time>
      </trkpt>
      <trkpt lat="44.64712" lon="5.03758">
        <ele>374.7</ele>
        <time>2024-05-17T09:40:33Z</time>
      </trkpt>
      <trkpt lat="44.64705" lon="5.03763">
        <ele>374.4</ele>
        <time>2024-05-17T09:40:34Z</time>
      </trkpt>
      <trkpt lat="44.64697" lon="5.03768">
        <ele>374</ele>
        <time>2024-05-17T09:40:35Z</time>
      </trkpt>
      <trkpt lat="44.64689" lon="5.03773">
        <ele>373.7</ele>
        <time>2024-05-17T09:40:36Z</time>
      </trkpt>
      <trkpt lat="44.64681" lon="5.03779">
        <ele>373.2</ele>
        <time>2024-05-17T09:40:37Z</time>
      </trkpt>
      <trkpt lat="44.64673" lon="5.03784">
        <ele>372.8</ele>
        <time>2024-05-17T09:40:38Z</time>
      </trkpt>
      <trkpt lat="44.64665" lon="5.03789">
        <ele>372.4</ele>
        <time>2024-05-17T09:40:39Z</time>
      </trkpt>
      <trkpt lat="44.64656" lon="5.03795">
        <ele>372</ele>
        <time>2024-05-17T09:40:40Z</time>
      </trkpt>
      <trkpt lat="44.64648" lon="5.038">
        <ele>371.5</ele>
        <time>2024-05-17T09:40:41Z</time>
      </trkpt>
      <trkpt lat="44.64639" lon="5.03805">
        <ele>371.1</ele>
        <time>2024-05-17T09:40:42Z</time>
      </trkpt>
      <trkpt lat="44.6463" lon="5.03811">
        <ele>370.6</ele>
        <time>2024-05-17T09:40:43Z</time>
      </trkpt>
      <trkpt lat="44.64621" lon="5.03817">
        <ele>370.1</ele>
        <time>2024-05-17T09:40:44Z</time>
      </trkpt>
      <trkpt lat="44.64613" lon="5.03824">
        <ele>369.6</ele>
        <time>2024-05-17T09:40:45Z</time>
      </trkpt>
      <trkpt lat="44.64605" lon="5.03832">
        <ele>369.1</ele>
        <time>2024-05-17T09:40:46Z</time>
      </trkpt>
      <trkpt lat="44.64599" lon="5.03843">
        <ele>368.5</ele>
        <time>2024-05-17T09:40:47Z</time>
      </trkpt>
      <trkpt lat="44.64592" lon="5.03862">
        <ele>367.6</ele>
        <time>2024-05-17T09:40:48Z</time>
      </trkpt>
      <trkpt lat="44.6459" lon="5.03868">
        <ele>367.3</ele>
        <time>2024-05-17T09:40:49Z</time>
      </trkpt>
      <trkpt lat="44.64587" lon="5.03882">
        <ele>366.8</ele>
        <time>2024-05-17T09:40:50Z</time>
      </trkpt>
      <trkpt lat="44.64586" lon="5.03903">
        <ele>366</ele>
        <time>2024-05-17T09:40:51Z</time>
      </trkpt>
      <trkpt lat="44.64587" lon="5.0391">
        <ele>365.7</ele>
        <time>2024-05-17T09:40:52Z</time>
      </trkpt>
      <trkpt lat="44.64591" lon="5.03931">
        <ele>364.8</ele>
        <time>2024-05-17T09:40:53Z</time>
      </trkpt>
      <trkpt lat="44.64593" lon="5.03938">
        <ele>364.5</ele>
        <time>2024-05-17T09:40:54Z</time>
      </trkpt>
      <trkpt lat="44.646" lon="5.03958">
        <ele>363.7</ele>
        <time>2024-05-17T09:40:55Z</time>
      </trkpt>
      <trkpt lat="44.64603" lon="5.03964">
        <ele>363.4</ele>
        <time>2024-05-17T09:40:56Z</time>
      </trkpt>
      <trkpt lat="44.64609" lon="5.03976">
        <ele>362.8</ele>
        <time>2024-05-17T09:40:57Z</time>
      </trkpt>
      <trkpt lat="44.64618" lon="5.03995">
        <ele>362</ele>
        <time>2024-05-17T09:40:58Z</time>
      </trkpt>
      <trkpt lat="44.64621" lon="5.04001">
        <ele>361.8</ele>
        <time>2024-05-17T09:40:59Z</time>
      </trkpt>
      <trkpt lat="44.6463" lon="5.0402">
        <ele>361</ele>
        <time>2024-05-17T09:41:00Z</time>
      </trkpt>
      <trkpt lat="44.64633" lon="5.04026">
        <ele>360.7</ele>
        <time>2024-05-17T09:41:01Z</time>
      </trkpt>
      <trkpt lat="44.64642" lon="5.04044">
        <ele>360</ele>
        <time>2024-05-17T09:41:02Z</time>
      </trkpt>
      <trkpt lat="44.64644" lon="5.0405">
        <ele>359.8</ele>
        <time>2024-05-17T09:41:03Z</time>
      </trkpt>
      <trkpt lat="44.6465" lon="5.04062">
        <ele>359.3</ele>
        <time>2024-05-17T09:41:04Z</time>
      </trkpt>
      <trkpt lat="44.64656" lon="5.04073">
        <ele>358.8</ele>
        <time>2024-05-17T09:41:05Z</time>
      </trkpt>
      <trkpt lat="44.64661" lon="5.04085">
        <ele>358.3</ele>
        <time>2024-05-17T09:41:06Z</time>
      </trkpt>
      <trkpt lat="44.64665" lon="5.04098">
        <ele>357.7</ele>
        <time>2024-05-17T09:41:07Z</time>
      </trkpt>
      <trkpt lat="44.64669" lon="5.04111">
        <ele>357.3</ele>
        <time>2024-05-17T09:41:08Z</time>
      </trkpt>
      <trkpt lat="44.64671" lon="5.04124">
        <ele>356.8</ele>
        <time>2024-05-17T09:41:09Z</time>
      </trkpt>
      <trkpt lat="44.64672" lon="5.04138">
        <ele>356.4</ele>
        <time>2024-05-17T09:41:10Z</time>
      </trkpt>
      <trkpt lat="44.64672" lon="5.04152">
        <ele>356</ele>
        <time>2024-05-17T09:41:11Z</time>
      </trkpt>
      <trkpt lat="44.6467" lon="5.04166">
        <ele>355.5</ele>
        <time>2024-05-17T09:41:12Z</time>
      </trkpt>
      <trkpt lat="44.64668" lon="5.0418">
        <ele>355.1</ele>
        <time>2024-05-17T09:41:13Z</time>
      </trkpt>
      <trkpt lat="44.64665" lon="5.04193">
        <ele>354.7</ele>
        <time>2024-05-17T09:41:14Z</time>
      </trkpt>
      <trkpt lat="44.64661" lon="5.04205">
        <ele>354.3</ele>
        <time>2024-05-17T09:41:15Z</time>
      </trkpt>
      <trkpt lat="44.64658" lon="5.04218">
        <ele>353.9</ele>
        <time>2024-05-17T09:41:16Z</time>
      </trkpt>
      <trkpt lat="44.64654" lon="5.0423">
        <ele>353.5</ele>
        <time>2024-05-17T09:41:17Z</time>
      </trkpt>
      <trkpt lat="44.64649" lon="5.04242">
        <ele>353.1</ele>
        <time>2024-05-17T09:41:18Z</time>
      </trkpt>
      <trkpt lat="44.64645" lon="5.04255">
        <ele>352.7</ele>
        <time>2024-05-17T09:41:19Z</time>
      </trkpt>
      <trkpt lat="44.64641" lon="5.04267">
        <ele>352.3</ele>
        <time>2024-05-17T09:41:20Z</time>
      </trkpt>
      <trkpt lat="44.64638" lon="5.0428">
        <ele>352</ele>
        <time>2024-05-17T09:41:21Z</time>
      </trkpt>
      <trkpt lat="44.64635" lon="5.04292">
        <ele>351.6</ele>
        <time>2024-05-17T09:41:22Z</time>
      </trkpt>
      <trkpt lat="44.64632" lon="5.04305">
        <ele>351.2</ele>
        <time>2024-05-17T09:41:23Z</time>
      </trkpt>
      <trkpt lat="44.64629" lon="5.04318">
        <ele>350.8</ele>
        <time>2024-05-17T09:41:24Z</time>
      </trkpt>
      <trkpt lat="44.64627" lon="5.04331">
        <ele>350.4</ele>
        <time>2024-05-17T09:41:25Z</time>
      </trkpt>
      <trkpt lat="44.64622" lon="5.0435">
        <ele>349.9</ele>
        <time>2024-05-17T09:41:26Z</time>
      </trkpt>
      <trkpt lat="44.64621" lon="5.04356">
        <ele>349.7</ele>
        <time>2024-05-17T09:41:27Z</time>
      </trkpt>
      <trkpt lat="44.64618" lon="5.04369">
        <ele>349.4</ele>
        <time>2024-05-17T09:41:28Z</time>
      </trkpt>
      <trkpt lat="44.64616" lon="5.04382">
        <ele>349.1</ele>
        <time>2024-05-17T09:41:29Z</time>
      </trkpt>
      <trkpt lat="44.64612" lon="5.04401">
        <ele>348.5</ele>
        <time>2024-05-17T09:41:30Z</time>
      </trkpt>
      <trkpt lat="44.6461" lon="5.04407">
        <ele>348.4</ele>
        <time>2024-05-17T09:41:31Z</time>
      </trkpt>
      <trkpt lat="44.64606" lon="5.04426">
        <ele>347.8</ele>
        <time>2024-05-17T09:41:32Z</time>
      </trkpt>
      <trkpt lat="44.64605" lon="5.04432">
        <ele>347.7</ele>
        <time>2024-05-17T09:41:33Z</time>
      </trkpt>
      <trkpt lat="44.64603" lon="5.04445">
        <ele>347.4</ele>
        <time>2024-05-17T09:41:34Z</time>
      </trkpt>
      <trkpt lat="44.64599" lon="5.04465">
        <ele>346.9</ele>
        <time>2024-05-17T09:41:35Z</time>
      </trkpt>
      <trkpt lat="44.64598" lon="5.04471">
        <ele>346.8</ele>
        <time>2024-05-17T09:41:36Z</time>
      </trkpt>
      <trkpt lat="44.64594" lon="5.04491">
        <ele>346.5</ele>
        <time>2024-05-17T09:41:37Z</time>
      </trkpt>
      <trkpt lat="44.64593" lon="5.04497">
        <ele>346.4</ele>
        <time>2024-05-17T09:41:38Z</time>
      </trkpt>
      <trkpt lat="44.6459" lon="5.04516">
        <ele>346.2</ele>
        <time>2024-05-17T09:41:39Z</time>
      </trkpt>
      <trkpt lat="44.64589" lon="5.04523">
        <ele>346.2</ele>
        <time>2024-05-17T09:41:40Z</time>
      </trkpt>
      <trkpt lat="44.64587" lon="5.04535">
        <ele>346.1</ele>
        <time>2024-05-17T09:41:41Z</time>
      </trkpt>
      <trkpt lat="44.64585" lon="5.04554">
        <ele>346.1</ele>
        <time>2024-05-17T09:41:42Z</time>
      </trkpt>
      <trkpt lat="44.64585" lon="5.0456">
        <ele>346</ele>
        <time>2024-05-17T09:41:43Z</time>
      </trkpt>
      <trkpt lat="44.64583" lon="5.04579">
        <ele>346</ele>
        <time>2024-05-17T09:41:44Z</time>
      </trkpt>
      <trkpt lat="44.64582" lon="5.04585">
        <ele>346</ele>
        <time>2024-05-17T09:41:45Z</time>
      </trkpt>
      <trkpt lat="44.6458" lon="5.04602">
        <ele>345.9</ele>
        <time>2024-05-17T09:41:46Z</time>
      </trkpt>
      <trkpt lat="44.64579" lon="5.04608">
        <ele>345.9</ele>
        <time>2024-05-17T09:41:47Z</time>
      </trkpt>
      <trkpt lat="44.64575" lon="5.04624">
        <ele>345.8</ele>
        <time>2024-05-17T09:41:48Z</time>
      </trkpt>
      <trkpt lat="44.64573" lon="5.0463">
        <ele>345.7</ele>
        <time>2024-05-17T09:41:49Z</time>
      </trkpt>
      <trkpt lat="44.6457" lon="5.04641">
        <ele>345.6</ele>
        <time>2024-05-17T09:41:50Z</time>
      </trkpt>
      <trkpt lat="44.64566" lon="5.0465">
        <ele>345.5</ele>
        <time>2024-05-17T09:41:51Z</time>
      </trkpt>
      <trkpt lat="44.64561" lon="5.04659">
        <ele>345.3</ele>
        <time>2024-05-17T09:41:52Z</time>
      </trkpt>
      <trkpt lat="44.64557" lon="5.04669">
        <ele>345.1</ele>
        <time>2024-05-17T09:41:53Z</time>
      </trkpt>
      <trkpt lat="44.64554" lon="5.04679">
        <ele>344.8</ele>
        <time>2024-05-17T09:41:54Z</time>
      </trkpt>
      <trkpt lat="44.6455" lon="5.04689">
        <ele>344.6</ele>
        <time>2024-05-17T09:41:55Z</time>
      </trkpt>
      <trkpt lat="44.64545" lon="5.04705">
        <ele>344.2</ele>
        <time>2024-05-17T09:41:56Z</time>
      </trkpt>
      <trkpt lat="44.64543" lon="5.0471">
        <ele>344.1</ele>
        <time>2024-05-17T09:41:57Z</time>
      </trkpt>
      <trkpt lat="44.6454" lon="5.04721">
        <ele>343.8</ele>
        <time>2024-05-17T09:41:58Z</time>
      </trkpt>
      <trkpt lat="44.64536" lon="5.04733">
        <ele>343.5</ele>
        <time>2024-05-17T09:41:59Z</time>
      </trkpt>
      <trkpt lat="44.64533" lon="5.04744">
        <ele>343.3</ele>
        <time>2024-05-17T09:42:00Z</time>
      </trkpt>
      <trkpt lat="44.64529" lon="5.04755">
        <ele>343</ele>
        <time>2024-05-17T09:42:01Z</time>
      </trkpt>
      <trkpt lat="44.64526" lon="5.04766">
        <ele>342.7</ele>
        <time>2024-05-17T09:42:02Z</time>
      </trkpt>
      <trkpt lat="44.64522" lon="5.04778">
        <ele>342.4</ele>
        <time>2024-05-17T09:42:03Z</time>
      </trkpt>
      <trkpt lat="44.64517" lon="5.04789">
        <ele>342</ele>
        <time>2024-05-17T09:42:04Z</time>
      </trkpt>
      <trkpt lat="44.64513" lon="5.04801">
        <ele>341.6</ele>
        <time>2024-05-17T09:42:05Z</time>
      </trkpt>
      <trkpt lat="44.64507" lon="5.04812">
        <ele>341.2</ele>
        <time>2024-05-17T09:42:06Z</time>
      </trkpt>
      <trkpt lat="44.64501" lon="5.04822">
        <ele>340.8</ele>
        <time>2024-05-17T09:42:07Z</time>
      </trkpt>
      <trkpt lat="44.64494" lon="5.04831">
        <ele>340.3</ele>
        <time>2024-05-17T09:42:08Z</time>
      </trkpt>
      <trkpt lat="44.64483" lon="5.04844">
        <ele>339.6</ele>
        <time>2024-05-17T09:42:09Z</time>
      </trkpt>
      <trkpt lat="44.6448" lon="5.04848">
        <ele>339.4</ele>
        <time>2024-05-17T09:42:10Z</time>
      </trkpt>
      <trkpt lat="44.64472" lon="5.04856">
        <ele>339</ele>
        <time>2024-05-17T09:42:11Z</time>
      </trkpt>
      <trkpt lat="44.64464" lon="5.04863">
        <ele>338.6</ele>
        <time>2024-05-17T09:42:12Z</time>
      </trkpt>
      <trkpt lat="44.64456" lon="5.04871">
        <ele>338.2</ele>
        <time>2024-05-17T09:42:13Z</time>
      </trkpt>
      <trkpt lat="44.64447" lon="5.04878">
        <ele>337.8</ele>
        <time>2024-05-17T09:42:14Z</time>
      </trkpt>
      <trkpt lat="44.64435" lon="5.04889">
        <ele>337.2</ele>
        <time>2024-05-17T09:42:15Z</time>
      </trkpt>
      <trkpt lat="44.64431" lon="5.04892">
        <ele>337</ele>
        <time>2024-05-17T09:42:16Z</time>
      </trkpt>
      <trkpt lat="44.64423" lon="5.049">
        <ele>336.6</ele>
        <time>2024-05-17T09:42:17Z</time>
      </trkpt>
      <trkpt lat="44.64411" lon="5.04911">
        <ele>336</ele>
        <time>2024-05-17T09:42:18Z</time>
      </trkpt>
      <trkpt lat="44.64407" lon="5.04915">
        <ele>335.8</ele>
        <time>2024-05-17T09:42:19Z</time>
      </trkpt>
      <trkpt lat="44.64395" lon="5.04926">
        <ele>335.3</ele>
        <time>2024-05-17T09:42:20Z</time>
      </trkpt>
      <trkpt lat="44.64391" lon="5.0493">
        <ele>335.1</ele>
        <time>2024-05-17T09:42:21Z</time>
      </trkpt>
      <trkpt lat="44.64379" lon="5.04943">
        <ele>334.6</ele>
        <time>2024-05-17T09:42:22Z</time>
      </trkpt>
      <trkpt lat="44.64375" lon="5.04947">
        <ele>334.4</ele>
        <time>2024-05-17T09:42:23Z</time>
      </trkpt>
      <trkpt lat="44.64368" lon="5.04956">
        <ele>334.1</ele>
        <time>2024-05-17T09:42:24Z</time>
      </trkpt>
      <trkpt lat="44.64358" lon="5.04972">
        <ele>333.5</ele>
        <time>2024-05-17T09:42:25Z</time>
      </trkpt>
      <trkpt lat="44.64355" lon="5.04978">
        <ele>333.3</ele>
        <time>2024-05-17T09:42:26Z</time>
      </trkpt>
      <trkpt lat="44.64348" lon="5.04996">
        <ele>332.7</ele>
        <time>2024-05-17T09:42:27Z</time>
      </trkpt>
      <trkpt lat="44.64347" lon="5.05003">
        <ele>332.5</ele>
        <time>2024-05-17T09:42:28Z</time>
      </trkpt>
      <trkpt lat="44.64344" lon="5.05024">
        <ele>332</ele>
        <time>2024-05-17T09:42:29Z</time>
      </trkpt>
      <trkpt lat="44.64344" lon="5.05031">
        <ele>331.8</ele>
        <time>2024-05-17T09:42:30Z</time>
      </trkpt>
      <trkpt lat="44.64346" lon="5.05053">
        <ele>331.4</ele>
        <time>2024-05-17T09:42:31Z</time>
      </trkpt>
      <trkpt lat="44.64346" lon="5.0506">
        <ele>331.3</ele>
        <time>2024-05-17T09:42:32Z</time>
      </trkpt>
      <trkpt lat="44.64348" lon="5.05074">
        <ele>331</ele>
        <time>2024-05-17T09:42:33Z</time>
      </trkpt>
      <trkpt lat="44.64349" lon="5.05087">
        <ele>330.8</ele>
        <time>2024-05-17T09:42:34Z</time>
      </trkpt>
      <trkpt lat="44.6435" lon="5.05101">
        <ele>330.6</ele>
        <time>2024-05-17T09:42:35Z</time>
      </trkpt>
      <trkpt lat="44.64351" lon="5.05115">
        <ele>330.4</ele>
        <time>2024-05-17T09:42:36Z</time>
      </trkpt>
      <trkpt lat="44.64353" lon="5.05128">
        <ele>330.2</ele>
        <time>2024-05-17T09:42:37Z</time>
      </trkpt>
      <trkpt lat="44.64354" lon="5.05141">
        <ele>330</ele>
        <time>2024-05-17T09:42:38Z</time>
      </trkpt>
      <trkpt lat="44.64356" lon="5.05154">
        <ele>329.9</ele>
        <time>2024-05-17T09:42:39Z</time>
      </trkpt>
      <trkpt lat="44.64357" lon="5.05166">
        <ele>329.7</ele>
        <time>2024-05-17T09:42:40Z</time>
      </trkpt>
      <trkpt lat="44.64358" lon="5.05179">
        <ele>329.6</ele>
        <time>2024-05-17T09:42:41Z</time>
      </trkpt>
      <trkpt lat="44.64359" lon="5.05191">
        <ele>329.4</ele>
        <time>2024-05-17T09:42:42Z</time>
      </trkpt>
      <trkpt lat="44.6436" lon="5.05203">
        <ele>329.3</ele>
        <time>2024-05-17T09:42:43Z</time>
      </trkpt>
      <trkpt lat="44.64361" lon="5.05214">
        <ele>329.2</ele>
        <time>2024-05-17T09:42:44Z</time>
      </trkpt>
      <trkpt lat="44.64362" lon="5.05226">
        <ele>329.1</ele>
        <time>2024-05-17T09:42:45Z</time>
      </trkpt>
      <trkpt lat="44.64362" lon="5.05238">
        <ele>329.1</ele>
        <time>2024-05-17T09:42:46Z</time>
      </trkpt>
      <trkpt lat="44.64363" lon="5.05249">
        <ele>329.2</ele>
        <time>2024-05-17T09:42:47Z</time>
      </trkpt>
      <trkpt lat="44.64364" lon="5.0526">
        <ele>329.2</ele>
        <time>2024-05-17T09:42:48Z</time>
      </trkpt>
      <trkpt lat="44.64364" lon="5.05271">
        <ele>329.2</ele>
        <time>2024-05-17T09:42:49Z</time>
      </trkpt>
      <trkpt lat="44.64365" lon="5.05282">
        <ele>329.2</ele>
        <time>2024-05-17T09:42:50Z</time>
      </trkpt>
      <trkpt lat="44.64367" lon="5.05297">
        <ele>329.1</ele>
        <time>2024-05-17T09:42:51Z</time>
      </trkpt>
      <trkpt lat="44.64367" lon="5.05303">
        <ele>329</ele>
        <time>2024-05-17T09:42:52Z</time>
      </trkpt>
      <trkpt lat="44.6437" lon="5.05318">
        <ele>328.8</ele>
        <time>2024-05-17T09:42:53Z</time>
      </trkpt>
      <trkpt lat="44.64371" lon="5.05323">
        <ele>328.7</ele>
        <time>2024-05-17T09:42:54Z</time>
      </trkpt>
      <trkpt lat="44.64376" lon="5.05338">
        <ele>328.6</ele>
        <time>2024-05-17T09:42:55Z</time>
      </trkpt>
      <trkpt lat="44.64377" lon="5.05343">
        <ele>328.5</ele>
        <time>2024-05-17T09:42:56Z</time>
      </trkpt>
      <trkpt lat="44.64382" lon="5.05358">
        <ele>328.4</ele>
        <time>2024-05-17T09:42:57Z</time>
      </trkpt>
      <trkpt lat="44.64384" lon="5.05363">
        <ele>328.4</ele>
        <time>2024-05-17T09:42:58Z</time>
      </trkpt>
      <trkpt lat="44.64387" lon="5.05373">
        <ele>328.3</ele>
        <time>2024-05-17T09:42:59Z</time>
      </trkpt>
      <trkpt lat="44.64391" lon="5.05383">
        <ele>328.3</ele>
        <time>2024-05-17T09:43:00Z</time>
      </trkpt>
      <trkpt lat="44.64395" lon="5.05392">
        <ele>328.3</ele>
        <time>2024-05-17T09:43:01Z</time>
      </trkpt>
      <trkpt lat="44.64398" lon="5.05402">
        <ele>328.3</ele>
        <time>2024-05-17T09:43:02Z</time>
      </trkpt>
      <trkpt lat="44.64402" lon="5.05411">
        <ele>328.3</ele>
        <time>2024-05-17T09:43:03Z</time>
      </trkpt>
      <trkpt lat="44.64405" lon="5.05421">
        <ele>328.3</ele>
        <time>2024-05-17T09:43:04Z</time>
      </trkpt>
      <trkpt lat="44.6441" lon="5.05434">
        <ele>328.3</ele>
        <time>2024-05-17T09:43:05Z</time>
      </trkpt>
      <trkpt lat="44.64412" lon="5.05438">
        <ele>328.3</ele>
        <time>2024-05-17T09:43:06Z</time>
      </trkpt>
      <trkpt lat="44.64418" lon="5.0545">
        <ele>328.3</ele>
        <time>2024-05-17T09:43:07Z</time>
      </trkpt>
      <trkpt lat="44.64419" lon="5.05454">
        <ele>328.4</ele>
        <time>2024-05-17T09:43:08Z</time>
      </trkpt>
      <trkpt lat="44.64424" lon="5.05464">
        <ele>328.4</ele>
        <time>2024-05-17T09:43:09Z</time>
      </trkpt>
      <trkpt lat="44.64425" lon="5.05467">
        <ele>328.4</ele>
        <time>2024-05-17T09:43:10Z</time>
      </trkpt>
      <trkpt lat="44.64426" lon="5.0547">
        <ele>328.4</ele>
        <time>2024-05-17T09:43:11Z</time>
      </trkpt>
      <trkpt lat="44.64426" lon="5.05471">
        <ele>328.4</ele>
        <time>2024-05-17T09:43:12Z</time>
      </trkpt>
      <trkpt lat="44.64426" lon="5.05471">
        <ele>328.4</ele>
        <time>2024-05-17T09:43:13Z</time>
      </trkpt>
      <trkpt lat="44.64425" lon="5.05477">
        <ele>328.5</ele>
        <time>2024-05-17T09:43:57Z</time>
      </trkpt>
      <trkpt lat="44.64425" lon="5.0548">
        <ele>328.5</ele>
        <time>2024-05-17T09:43:58Z</time>
      </trkpt>
      <trkpt lat="44.64427" lon="5.05485">
        <ele>328.5</ele>
        <time>2024-05-17T09:43:59Z</time>
      </trkpt>
      <trkpt lat="44.64427" lon="5.05486">
        <ele>328.5</ele>
        <time>2024-05-17T09:44:00Z</time>
      </trkpt>
      <trkpt lat="44.64429" lon="5.05489">
        <ele>328.5</ele>
        <time>2024-05-17T09:44:01Z</time>
      </trkpt>
      <trkpt lat="44.6443" lon="5.05493">
        <ele>328.5</ele>
        <time>2024-05-17T09:44:02Z</time>
      </trkpt>
      <trkpt lat="44.64431" lon="5.05497">
        <ele>328.6</ele>
        <time>2024-05-17T09:44:03Z</time>
      </trkpt>
      <trkpt lat="44.64432" lon="5.05501">
        <ele>328.6</ele>
        <time>2024-05-17T09:44:04Z</time>
      </trkpt>
      <trkpt lat="44.64434" lon="5.05506">
        <ele>328.6</ele>
        <time>2024-05-17T09:44:05Z</time>
      </trkpt>
      <trkpt lat="44.64436" lon="5.0551">
        <ele>328.6</ele>
        <time>2024-05-17T09:44:06Z</time>
      </trkpt>
      <trkpt lat="44.64437" lon="5.05515">
        <ele>328.7</ele>
        <time>2024-05-17T09:44:07Z</time>
      </trkpt>
      <trkpt lat="44.64439" lon="5.05521">
        <ele>328.7</ele>
        <time>2024-05-17T09:44:08Z</time>
      </trkpt>
      <trkpt lat="44.64441" lon="5.05526">
        <ele>328.8</ele>
        <time>2024-05-17T09:44:09Z</time>
      </trkpt>
      <trkpt lat="44.64443" lon="5.05532">
        <ele>328.8</ele>
        <time>2024-05-17T09:44:10Z</time>
      </trkpt>
      <trkpt lat="44.64445" lon="5.05538">
        <ele>328.9</ele>
        <time>2024-05-17T09:44:11Z</time>
      </trkpt>
      <trkpt lat="44.64448" lon="5.05544">
        <ele>328.9</ele>
        <time>2024-05-17T09:44:12Z</time>
      </trkpt>
      <trkpt lat="44.64449" lon="5.05551">
        <ele>329</ele>
        <time>2024-05-17T09:44:13Z</time>
      </trkpt>
      <trkpt lat="44.64452" lon="5.05561">
        <ele>329</ele>
        <time>2024-05-17T09:44:14Z</time>
      </trkpt>
      <trkpt lat="44.64453" lon="5.05565">
        <ele>329</ele>
        <time>2024-05-17T09:44:15Z</time>
      </trkpt>
      <trkpt lat="44.64455" lon="5.05572">
        <ele>329</ele>
        <time>2024-05-17T09:44:16Z</time>
      </trkpt>
      <trkpt lat="44.64458" lon="5.05583">
        <ele>329</ele>
        <time>2024-05-17T09:44:17Z</time>
      </trkpt>
      <trkpt lat="44.64459" lon="5.05587">
        <ele>329</ele>
        <time>2024-05-17T09:44:18Z</time>
      </trkpt>
      <trkpt lat="44.64462" lon="5.05594">
        <ele>329</ele>
        <time>2024-05-17T09:44:19Z</time>
      </trkpt>
      <trkpt lat="44.64465" lon="5.05606">
        <ele>329</ele>
        <time>2024-05-17T09:44:20Z</time>
      </trkpt>
      <trkpt lat="44.64466" lon="5.0561">
        <ele>329</ele>
        <time>2024-05-17T09:44:21Z</time>
      </trkpt>
      <trkpt lat="44.64468" lon="5.05618">
        <ele>329</ele>
        <time>2024-05-17T09:44:22Z</time>
      </trkpt>
      <trkpt lat="44.64469" lon="5.05626">
        <ele>329</ele>
        <time>2024-05-17T09:44:23Z</time>
      </trkpt>
      <trkpt lat="44.64472" lon="5.05639">
        <ele>329</ele>
        <time>2024-05-17T09:44:24Z</time>
      </trkpt>
      <trkpt lat="44.64472" lon="5.05643">
        <ele>329</ele>
        <time>2024-05-17T09:44:25Z</time>
      </trkpt>
      <trkpt lat="44.64473" lon="5.05655">
        <ele>329</ele>
        <time>2024-05-17T09:44:26Z</time>
      </trkpt>
      <trkpt lat="44.64473" lon="5.05659">
        <ele>329</ele>
        <time>2024-05-17T09:44:27Z</time>
      </trkpt>
      <trkpt lat="44.64472" lon="5.05667">
        <ele>329</ele>
        <time>2024-05-17T09:44:28Z</time>
      </trkpt>
      <trkpt lat="44.64465" lon="5.05675">
        <ele>328.6</ele>
        <time>2024-05-17T09:44:29Z</time>
      </trkpt>
      <trkpt lat="44.64463" lon="5.05676">
        <ele>328.5</ele>
        <time>2024-05-17T09:44:30Z</time>
      </trkpt>
      <trkpt lat="44.64455" lon="5.0568">
        <ele>328.3</ele>
        <time>2024-05-17T09:44:31Z</time>
      </trkpt>
      <trkpt lat="44.64452" lon="5.05681">
        <ele>328.2</ele>
        <time>2024-05-17T09:44:32Z</time>
      </trkpt>
      <trkpt lat="44.64444" lon="5.05684">
        <ele>328</ele>
        <time>2024-05-17T09:44:33Z</time>
      </trkpt>
      <trkpt lat="44.64441" lon="5.05685">
        <ele>327.9</ele>
        <time>2024-05-17T09:44:34Z</time>
      </trkpt>
      <trkpt lat="44.64434" lon="5.05687">
        <ele>327.6</ele>
        <time>2024-05-17T09:44:35Z</time>
      </trkpt>
      <trkpt lat="44.64432" lon="5.05688">
        <ele>327.5</ele>
        <time>2024-05-17T09:44:36Z</time>
      </trkpt>
      <trkpt lat="44.64427" lon="5.05689">
        <ele>327.4</ele>
        <time>2024-05-17T09:44:37Z</time>
      </trkpt>
      <trkpt lat="44.64424" lon="5.05689">
        <ele>327.3</ele>
        <time>2024-05-17T09:44:38Z</time>
      </trkpt>
      <trkpt lat="44.64422" lon="5.0569">
        <ele>327.2</ele>
        <time>2024-05-17T09:44:39Z</time>
      </trkpt>
      <trkpt lat="44.64419" lon="5.05691">
        <ele>327.1</ele>
        <time>2024-05-17T09:45:24Z</time>
      </trkpt>
      <trkpt lat="44.64417" lon="5.05691">
        <ele>327</ele>
        <time>2024-05-17T09:45:25Z</time>
      </trkpt>
      <trkpt lat="44.64413" lon="5.05692">
        <ele>326.9</ele>
        <time>2024-05-17T09:45:26Z</time>
      </trkpt>
      <trkpt lat="44.64409" lon="5.05694">
        <ele>326.7</ele>
        <time>2024-05-17T09:45:27Z</time>
      </trkpt>
      <trkpt lat="44.64404" lon="5.05695">
        <ele>326.5</ele>
        <time>2024-05-17T09:45:28Z</time>
      </trkpt>
      <trkpt lat="44.64399" lon="5.05697">
        <ele>326.3</ele>
        <time>2024-05-17T09:45:29Z</time>
      </trkpt>
      <trkpt lat="44.64395" lon="5.057">
        <ele>326.1</ele>
        <time>2024-05-17T09:45:30Z</time>
      </trkpt>
      <trkpt lat="44.64386" lon="5.05702">
        <ele>325.7</ele>
        <time>2024-05-17T09:45:31Z</time>
      </trkpt>
      <trkpt lat="44.64383" lon="5.05702">
        <ele>325.6</ele>
        <time>2024-05-17T09:45:32Z</time>
      </trkpt>
      <trkpt lat="44.64378" lon="5.05704">
        <ele>325.4</ele>
        <time>2024-05-17T09:45:33Z</time>
      </trkpt>
      <trkpt lat="44.64371" lon="5.05705">
        <ele>325.2</ele>
        <time>2024-05-17T09:45:34Z</time>
      </trkpt>
      <trkpt lat="44.64365" lon="5.05707">
        <ele>325</ele>
        <time>2024-05-17T09:45:35Z</time>
      </trkpt>
      <trkpt lat="44.64358" lon="5.05708">
        <ele>324.7</ele>
        <time>2024-05-17T09:45:36Z</time>
      </trkpt>
      <trkpt lat="44.64348" lon="5.05711">
        <ele>324.4</ele>
        <time>2024-05-17T09:45:37Z</time>
      </trkpt>
      <trkpt lat="44.64345" lon="5.05712">
        <ele>324.3</ele>
        <time>2024-05-17T09:45:38Z</time>
      </trkpt>
      <trkpt lat="44.64335" lon="5.05715">
        <ele>324.1</ele>
        <time>2024-05-17T09:45:39Z</time>
      </trkpt>
      <trkpt lat="44.64331" lon="5.05717">
        <ele>324</ele>
        <time>2024-05-17T09:45:40Z</time>
      </trkpt>
      <trkpt lat="44.64324" lon="5.05719">
        <ele>323.9</ele>
        <time>2024-05-17T09:45:41Z</time>
      </trkpt>
      <trkpt lat="44.64314" lon="5.05723">
        <ele>323.6</ele>
        <time>2024-05-17T09:45:42Z</time>
      </trkpt>
      <trkpt lat="44.64311" lon="5.05724">
        <ele>323.6</ele>
        <time>2024-05-17T09:45:43Z</time>
      </trkpt>
      <trkpt lat="44.64301" lon="5.05729">
        <ele>323.4</ele>
        <time>2024-05-17T09:45:44Z</time>
      </trkpt>
      <trkpt lat="44.64297" lon="5.05731">
        <ele>323.3</ele>
        <time>2024-05-17T09:45:45Z</time>
      </trkpt>
      <trkpt lat="44.64288" lon="5.05737">
        <ele>323.2</ele>
        <time>2024-05-17T09:45:46Z</time>
      </trkpt>
      <trkpt lat="44.64285" lon="5.05739">
        <ele>323.1</ele>
        <time>2024-05-17T09:45:47Z</time>
      </trkpt>
      <trkpt lat="44.64278" lon="5.05743">
        <ele>323</ele>
        <time>2024-05-17T09:45:48Z</time>
      </trkpt>
      <trkpt lat="44.64269" lon="5.05751">
        <ele>322.9</ele>
        <time>2024-05-17T09:45:49Z</time>
      </trkpt>
      <trkpt lat="44.64266" lon="5.05754">
        <ele>322.9</ele>
        <time>2024-05-17T09:45:50Z</time>
      </trkpt>
      <trkpt lat="44.64257" lon="5.05762">
        <ele>322.8</ele>
        <time>2024-05-17T09:45:51Z</time>
      </trkpt>
      <trkpt lat="44.64255" lon="5.05765">
        <ele>322.7</ele>
        <time>2024-05-17T09:45:52Z</time>
      </trkpt>
      <trkpt lat="44.64246" lon="5.05775">
        <ele>322.6</ele>
        <time>2024-05-17T09:45:53Z</time>
      </trkpt>
      <trkpt lat="44.64243" lon="5.05778">
        <ele>322.6</ele>
        <time>2024-05-17T09:45:54Z</time>
      </trkpt>
      <trkpt lat="44.64236" lon="5.05788">
        <ele>322.5</ele>
        <time>2024-05-17T09:45:55Z</time>
      </trkpt>
      <trkpt lat="44.64233" lon="5.05792">
        <ele>322.4</ele>
        <time>2024-05-17T09:45:56Z</time>
      </trkpt>
      <trkpt lat="44.64228" lon="5.05799">
        <ele>322.3</ele>
        <time>2024-05-17T09:45:57Z</time>
      </trkpt>
      <trkpt lat="44.64224" lon="5.05806">
        <ele>322.2</ele>
        <time>2024-05-17T09:45:58Z</time>
      </trkpt>
      <trkpt lat="44.6422" lon="5.05814">
        <ele>322.1</ele>
        <time>2024-05-17T09:45:59Z</time>
      </trkpt>
      <trkpt lat="44.64217" lon="5.05819">
        <ele>322.1</ele>
        <time>2024-05-17T09:46:00Z</time>
      </trkpt>
      <trkpt lat="44.64218" lon="5.05824">
        <ele>322</ele>
        <time>2024-05-17T09:46:01Z</time>
      </trkpt>
      <trkpt lat="44.64219" lon="5.05828">
        <ele>322</ele>
        <time>2024-05-17T09:46:02Z</time>
      </trkpt>
      <trkpt lat="44.6422" lon="5.05831">
        <ele>322</ele>
        <time>2024-05-17T09:46:03Z</time>
      </trkpt>
      <trkpt lat="44.64219" lon="5.05832">
        <ele>322</ele>
        <time>2024-05-17T09:46:04Z</time>
      </trkpt>
      <trkpt lat="44.64219" lon="5.05833">
        <ele>322</ele>
        <time>2024-05-17T09:46:05Z</time>
      </trkpt>
      <trkpt lat="44.64219" lon="5.05833">
        <ele>322</ele>
        <time>2024-05-17T09:46:06Z</time>
      </trkpt>
      <trkpt lat="44.64216" lon="5.05834">
        <ele>321.9</ele>
        <time>2024-05-17T09:46:37Z</time>
      </trkpt>
      <trkpt lat="44.64213" lon="5.05834">
        <ele>321.9</ele>
        <time>2024-05-17T09:46:38Z</time>
      </trkpt>
      <trkpt lat="44.64211" lon="5.05835">
        <ele>321.9</ele>
        <time>2024-05-17T09:46:39Z</time>
      </trkpt>
      <trkpt lat="44.6421" lon="5.05838">
        <ele>321.9</ele>
        <time>2024-05-17T09:46:40Z</time>
      </trkpt>
      <trkpt lat="44.64208" lon="5.0584">
        <ele>321.9</ele>
        <time>2024-05-17T09:46:41Z</time>
      </trkpt>
      <trkpt lat="44.64206" lon="5.05844">
        <ele>321.9</ele>
        <time>2024-05-17T09:46:42Z</time>
      </trkpt>
      <trkpt lat="44.64204" lon="5.05849">
        <ele>321.8</ele>
        <time>2024-05-17T09:46:43Z</time>
      </trkpt>
      <trkpt lat="44.64202" lon="5.05853">
        <ele>321.8</ele>
        <time>2024-05-17T09:46:44Z</time>
      </trkpt>
      <trkpt lat="44.64199" lon="5.05862">
        <ele>321.8</ele>
        <time>2024-05-17T09:46:45Z</time>
      </trkpt>
      <trkpt lat="44.64198" lon="5.05865">
        <ele>321.7</ele>
        <time>2024-05-17T09:46:46Z</time>
      </trkpt>
      <trkpt lat="44.64195" lon="5.05875">
        <ele>321.7</ele>
        <time>2024-05-17T09:46:47Z</time>
      </trkpt>
      <trkpt lat="44.64194" lon="5.05879">
        <ele>321.7</ele>
        <time>2024-05-17T09:46:48Z</time>
      </trkpt>
      <trkpt lat="44.64192" lon="5.05886">
        <ele>321.7</ele>
        <time>2024-05-17T09:46:49Z</time>
      </trkpt>
      <trkpt lat="44.64188" lon="5.05897">
        <ele>321.6</ele>
        <time>2024-05-17T09:46:50Z</time>
      </trkpt>
      <trkpt lat="44.64187" lon="5.05901">
        <ele>321.6</ele>
        <time>2024-05-17T09:46:51Z</time>
      </trkpt>
      <trkpt lat="44.64183" lon="5.05913">
        <ele>321.6</ele>
        <time>2024-05-17T09:46:52Z</time>
      </trkpt>
      <trkpt lat="44.64182" lon="5.05917">
        <ele>321.6</ele>
        <time>2024-05-17T09:46:53Z</time>
      </trkpt>
      <trkpt lat="44.64179" lon="5.05929">
        <ele>321.6</ele>
        <time>2024-05-17T09:46:54Z</time>
      </trkpt>
      <trkpt lat="44.64177" lon="5.05933">
        <ele>321.6</ele>
        <time>2024-05-17T09:46:55Z</time>
      </trkpt>
      <trkpt lat="44.64175" lon="5.05941">
        <ele>321.6</ele>
        <time>2024-05-17T09:46:56Z</time>
      </trkpt>
      <trkpt lat="44.64172" lon="5.05953">
        <ele>321.6</ele>
        <time>2024-05-17T09:46:57Z</time>
      </trkpt>
      <trkpt lat="44.64171" lon="5.05957">
        <ele>321.6</ele>
        <time>2024-05-17T09:46:58Z</time>
      </trkpt>
      <trkpt lat="44.64167" lon="5.05969">
        <ele>321.7</ele>
        <time>2024-05-17T09:46:59Z</time>
      </trkpt>
      <trkpt lat="44.64166" lon="5.05973">
        <ele>321.8</ele>
        <time>2024-05-17T09:47:00Z</time>
      </trkpt>
      <trkpt lat="44.64164" lon="5.05985">
        <ele>321.9</ele>
        <time>2024-05-17T09:47:01Z</time>
      </trkpt>
      <trkpt lat="44.64163" lon="5.05988">
        <ele>321.9</ele>
        <time>2024-05-17T09:47:02Z</time>
      </trkpt>
      <trkpt lat="44.6416" lon="5.05999">
        <ele>322.1</ele>
        <time>2024-05-17T09:47:03Z</time>
      </trkpt>
      <trkpt lat="44.64159" lon="5.06003">
        <ele>322.1</ele>
        <time>2024-05-17T09:47:04Z</time>
      </trkpt>
      <trkpt lat="44.64158" lon="5.0601">
        <ele>322.2</ele>
        <time>2024-05-17T09:47:05Z</time>
      </trkpt>
      <trkpt lat="44.64156" lon="5.06016">
        <ele>322.3</ele>
        <time>2024-05-17T09:47:06Z</time>
      </trkpt>
      <trkpt lat="44.64154" lon="5.06022">
        <ele>322.5</ele>
        <time>2024-05-17T09:47:07Z</time>
      </trkpt>
      <trkpt lat="44.64152" lon="5.06028">
        <ele>322.7</ele>
        <time>2024-05-17T09:47:08Z</time>
      </trkpt>
      <trkpt lat="44.6415" lon="5.06033">
        <ele>322.8</ele>
        <time>2024-05-17T09:47:09Z</time>
      </trkpt>
      <trkpt lat="44.64148" lon="5.06039">
        <ele>323</ele>
        <time>2024-05-17T09:47:10Z</time>
      </trkpt>
      <trkpt lat="44.64145" lon="5.06044">
        <ele>323.2</ele>
        <time>2024-05-17T09:47:11Z</time>
      </trkpt>
      <trkpt lat="44.64143" lon="5.06049">
        <ele>323.4</ele>
        <time>2024-05-17T09:47:12Z</time>
      </trkpt>
      <trkpt lat="44.64141" lon="5.06053">
        <ele>323.5</ele>
        <time>2024-05-17T09:47:13Z</time>
      </trkpt>
      <trkpt lat="44.64139" lon="5.06058">
        <ele>323.7</ele>
        <time>2024-05-17T09:47:14Z</time>
      </trkpt>
      <trkpt lat="44.64136" lon="5.06062">
        <ele>323.8</ele>
        <time>2024-05-17T09:47:15Z</time>
      </trkpt>
      <trkpt lat="44.64133" lon="5.06066">
        <ele>323.9</ele>
        <time>2024-05-17T09:47:16Z</time>
      </trkpt>
      <trkpt lat="44.6413" lon="5.06069">
        <ele>324</ele>
        <time>2024-05-17T09:47:17Z</time>
      </trkpt>
      <trkpt lat="44.64127" lon="5.06071">
        <ele>324.1</ele>
        <time>2024-05-17T09:47:18Z</time>
      </trkpt>
      <trkpt lat="44.64123" lon="5.06073">
        <ele>324.1</ele>
        <time>2024-05-17T09:47:19Z</time>
      </trkpt>
      <trkpt lat="44.64119" lon="5.06074">
        <ele>324.1</ele>
        <time>2024-05-17T09:47:20Z</time>
      </trkpt>
      <trkpt lat="44.64115" lon="5.06072">
        <ele>324</ele>
        <time>2024-05-17T09:47:21Z</time>
      </trkpt>
      <trkpt lat="44.64111" lon="5.06069">
        <ele>323.9</ele>
        <time>2024-05-17T09:47:22Z</time>
      </trkpt>
      <trkpt lat="44.64106" lon="5.06066">
        <ele>323.8</ele>
        <time>2024-05-17T09:47:23Z</time>
      </trkpt>
      <trkpt lat="44.64102" lon="5.06062">
        <ele>323.7</ele>
        <time>2024-05-17T09:47:24Z</time>
      </trkpt>
      <trkpt lat="44.64097" lon="5.06058">
        <ele>323.6</ele>
        <time>2024-05-17T09:47:25Z</time>
      </trkpt>
      <trkpt lat="44.64089" lon="5.06051">
        <ele>323.3</ele>
        <time>2024-05-17T09:47:26Z</time>
      </trkpt>
      <trkpt lat="44.64087" lon="5.06049">
        <ele>323.3</ele>
        <time>2024-05-17T09:47:27Z</time>
      </trkpt>
      <trkpt lat="44.64079" lon="5.06042">
        <ele>323</ele>
        <time>2024-05-17T09:47:28Z</time>
      </trkpt>
      <trkpt lat="44.64077" lon="5.0604">
        <ele>322.9</ele>
        <time>2024-05-17T09:47:29Z</time>
      </trkpt>
      <trkpt lat="44.64069" lon="5.06033">
        <ele>322.7</ele>
        <time>2024-05-17T09:47:30Z</time>
      </trkpt>
      <trkpt lat="44.64066" lon="5.06031">
        <ele>322.6</ele>
        <time>2024-05-17T09:47:31Z</time>
      </trkpt>
      <trkpt lat="44.64058" lon="5.06025">
        <ele>322.4</ele>
        <time>2024-05-17T09:47:32Z</time>
      </trkpt>
      <trkpt lat="44.64055" lon="5.06023">
        <ele>322.3</ele>
        <time>2024-05-17T09:47:33Z</time>
      </trkpt>
      <trkpt lat="44.64045" lon="5.06017">
        <ele>322</ele>
        <time>2024-05-17T09:47:34Z</time>
      </trkpt>
      <trkpt lat="44.64042" lon="5.06015">
        <ele>321.9</ele>
        <time>2024-05-17T09:47:35Z</time>
      </trkpt>
      <trkpt lat="44.64032" lon="5.06011">
        <ele>321.6</ele>
        <time>2024-05-17T09:47:36Z</time>
      </trkpt>
      <trkpt lat="44.64029" lon="5.0601">
        <ele>321.5</ele>
        <time>2024-05-17T09:47:37Z</time>
      </trkpt>
      <trkpt lat="44.64022" lon="5.06009">
        <ele>321.3</ele>
        <time>2024-05-17T09:47:38Z</time>
      </trkpt>
      <trkpt lat="44.6401" lon="5.06008">
        <ele>321</ele>
        <time>2024-05-17T09:47:39Z</time>
      </trkpt>
      <trkpt lat="44.64007" lon="5.06008">
        <ele>320.9</ele>
        <time>2024-05-17T09:47:40Z</time>
      </trkpt>
      <trkpt lat="44.63996" lon="5.06009">
        <ele>320.6</ele>
        <time>2024-05-17T09:47:41Z</time>
      </trkpt>
      <trkpt lat="44.63992" lon="5.06009">
        <ele>320.5</ele>
        <time>2024-05-17T09:47:42Z</time>
      </trkpt>
      <trkpt lat="44.63982" lon="5.06012">
        <ele>320.2</ele>
        <time>2024-05-17T09:47:43Z</time>
      </trkpt>
      <trkpt lat="44.63978" lon="5.06014">
        <ele>320.2</ele>
        <time>2024-05-17T09:47:44Z</time>
      </trkpt>
      <trkpt lat="44.63968" lon="5.06019">
        <ele>319.9</ele>
        <time>2024-05-17T09:47:45Z</time>
      </trkpt>
      <trkpt lat="44.63965" lon="5.06021">
        <ele>319.8</ele>
        <time>2024-05-17T09:47:46Z</time>
      </trkpt>
      <trkpt lat="44.63958" lon="5.06025">
        <ele>319.7</ele>
        <time>2024-05-17T09:47:47Z</time>
      </trkpt>
      <trkpt lat="44.63953" lon="5.06029">
        <ele>319.5</ele>
        <time>2024-05-17T09:47:48Z</time>
      </trkpt>
      <trkpt lat="44.63947" lon="5.06035">
        <ele>319.4</ele>
        <time>2024-05-17T09:47:49Z</time>
      </trkpt>
      <trkpt lat="44.63941" lon="5.0604">
        <ele>319.2</ele>
        <time>2024-05-17T09:47:50Z</time>
      </trkpt>
      <trkpt lat="44.63936" lon="5.06047">
        <ele>319.1</ele>
        <time>2024-05-17T09:47:51Z</time>
      </trkpt>
      <trkpt lat="44.63931" lon="5.06054">
        <ele>318.9</ele>
        <time>2024-05-17T09:47:52Z</time>
      </trkpt>
      <trkpt lat="44.63925" lon="5.06061">
        <ele>318.6</ele>
        <time>2024-05-17T09:47:53Z</time>
      </trkpt>
      <trkpt lat="44.63921" lon="5.06068">
        <ele>318.4</ele>
        <time>2024-05-17T09:47:54Z</time>
      </trkpt>
      <trkpt lat="44.63916" lon="5.06076">
        <ele>318.2</ele>
        <time>2024-05-17T09:47:55Z</time>
      </trkpt>
      <trkpt lat="44.63911" lon="5.06084">
        <ele>318</ele>
        <time>2024-05-17T09:47:56Z</time>
      </trkpt>
      <trkpt lat="44.63905" lon="5.06093">
        <ele>317.8</ele>
        <time>2024-05-17T09:47:57Z</time>
      </trkpt>
      <trkpt lat="44.639" lon="5.06101">
        <ele>317.6</ele>
        <time>2024-05-17T09:47:58Z</time>
      </trkpt>
      <trkpt lat="44.63895" lon="5.06109">
        <ele>317.4</ele>
        <time>2024-05-17T09:47:59Z</time>
      </trkpt>
      <trkpt lat="44.6389" lon="5.06118">
        <ele>317.2</ele>
        <time>2024-05-17T09:48:00Z</time>
      </trkpt>
      <trkpt lat="44.63885" lon="5.06126">
        <ele>317.1</ele>
        <time>2024-05-17T09:48:01Z</time>
      </trkpt>
      <trkpt lat="44.6388" lon="5.06135">
        <ele>317</ele>
        <time>2024-05-17T09:48:02Z</time>
      </trkpt>
      <trkpt lat="44.63874" lon="5.06143">
        <ele>316.9</ele>
        <time>2024-05-17T09:48:03Z</time>
      </trkpt>
      <trkpt lat="44.63869" lon="5.06152">
        <ele>316.7</ele>
        <time>2024-05-17T09:48:04Z</time>
      </trkpt>
      <trkpt lat="44.63864" lon="5.0616">
        <ele>316.6</ele>
        <time>2024-05-17T09:48:05Z</time>
      </trkpt>
      <trkpt lat="44.63859" lon="5.06168">
        <ele>316.5</ele>
        <time>2024-05-17T09:48:06Z</time>
      </trkpt>
      <trkpt lat="44.63854" lon="5.06176">
        <ele>316.4</ele>
        <time>2024-05-17T09:48:07Z</time>
      </trkpt>
      <trkpt lat="44.63849" lon="5.06184">
        <ele>316.3</ele>
        <time>2024-05-17T09:48:08Z</time>
      </trkpt>
      <trkpt lat="44.63844" lon="5.06192">
        <ele>316.2</ele>
        <time>2024-05-17T09:48:09Z</time>
      </trkpt>
      <trkpt lat="44.6384" lon="5.062">
        <ele>316.1</ele>
        <time>2024-05-17T09:48:10Z</time>
      </trkpt>
      <trkpt lat="44.63835" lon="5.06207">
        <ele>316.1</ele>
        <time>2024-05-17T09:48:11Z</time>
      </trkpt>
      <trkpt lat="44.63827" lon="5.06219">
        <ele>316</ele>
        <time>2024-05-17T09:48:12Z</time>
      </trkpt>
      <trkpt lat="44.63825" lon="5.06222">
        <ele>315.9</ele>
        <time>2024-05-17T09:48:13Z</time>
      </trkpt>
      <trkpt lat="44.6382" lon="5.0623">
        <ele>315.9</ele>
        <time>2024-05-17T09:48:14Z</time>
      </trkpt>
      <trkpt lat="44.63813" lon="5.06241">
        <ele>315.8</ele>
        <time>2024-05-17T09:48:15Z</time>
      </trkpt>
      <trkpt lat="44.63811" lon="5.06244">
        <ele>315.8</ele>
        <time>2024-05-17T09:48:16Z</time>
      </trkpt>
      <trkpt lat="44.63804" lon="5.06256">
        <ele>315.8</ele>
        <time>2024-05-17T09:48:17Z</time>
      </trkpt>
      <trkpt lat="44.63801" lon="5.06259">
        <ele>315.8</ele>
        <time>2024-05-17T09:48:18Z</time>
      </trkpt>
      <trkpt lat="44.63794" lon="5.0627">
        <ele>315.8</ele>
        <time>2024-05-17T09:48:19Z</time>
      </trkpt>
      <trkpt lat="44.63792" lon="5.06274">
        <ele>315.8</ele>
        <time>2024-05-17T09:48:20Z</time>
      </trkpt>
      <trkpt lat="44.63787" lon="5.06281">
        <ele>315.8</ele>
        <time>2024-05-17T09:48:21Z</time>
      </trkpt>
      <trkpt lat="44.63781" lon="5.06292">
        <ele>315.8</ele>
        <time>2024-05-17T09:48:22Z</time>
      </trkpt>
      <trkpt lat="44.63778" lon="5.06296">
        <ele>315.9</ele>
        <time>2024-05-17T09:48:23Z</time>
      </trkpt>
      <trkpt lat="44.63772" lon="5.06307">
        <ele>315.9</ele>
        <time>2024-05-17T09:48:24Z</time>
      </trkpt>
      <trkpt lat="44.63769" lon="5.0631">
        <ele>316</ele>
        <time>2024-05-17T09:48:25Z</time>
      </trkpt>
      <trkpt lat="44.63763" lon="5.06321">
        <ele>316.1</ele>
        <time>2024-05-17T09:48:26Z</time>
      </trkpt>
      <trkpt lat="44.6376" lon="5.06324">
        <ele>316.1</ele>
        <time>2024-05-17T09:48:27Z</time>
      </trkpt>
      <trkpt lat="44.63754" lon="5.06335">
        <ele>316.2</ele>
        <time>2024-05-17T09:48:28Z</time>
      </trkpt>
      <trkpt lat="44.63752" lon="5.06338">
        <ele>316.3</ele>
        <time>2024-05-17T09:48:29Z</time>
      </trkpt>
      <trkpt lat="44.63747" lon="5.06345">
        <ele>316.4</ele>
        <time>2024-05-17T09:48:30Z</time>
      </trkpt>
      <trkpt lat="44.63743" lon="5.06352">
        <ele>316.5</ele>
        <time>2024-05-17T09:48:31Z</time>
      </trkpt>
      <trkpt lat="44.63739" lon="5.06359">
        <ele>316.6</ele>
        <time>2024-05-17T09:48:32Z</time>
      </trkpt>
      <trkpt lat="44.63735" lon="5.06365">
        <ele>316.7</ele>
        <time>2024-05-17T09:48:33Z</time>
      </trkpt>
      <trkpt lat="44.63731" lon="5.06372">
        <ele>316.8</ele>
        <time>2024-05-17T09:48:34Z</time>
      </trkpt>
      <trkpt lat="44.63728" lon="5.06379">
        <ele>316.9</ele>
        <time>2024-05-17T09:48:35Z</time>
      </trkpt>
      <trkpt lat="44.63724" lon="5.06386">
        <ele>317</ele>
        <time>2024-05-17T09:48:36Z</time>
      </trkpt>
      <trkpt lat="44.63721" lon="5.06393">
        <ele>317.1</ele>
        <time>2024-05-17T09:48:37Z</time>
      </trkpt>
      <trkpt lat="44.63718" lon="5.064">
        <ele>317.2</ele>
        <time>2024-05-17T09:48:38Z</time>
      </trkpt>
      <trkpt lat="44.63714" lon="5.06407">
        <ele>317.2</ele>
        <time>2024-05-17T09:48:39Z</time>
      </trkpt>
      <trkpt lat="44.63711" lon="5.06415">
        <ele>317.3</ele>
        <time>2024-05-17T09:48:40Z</time>
      </trkpt>
      <trkpt lat="44.63707" lon="5.06426">
        <ele>317.4</ele>
        <time>2024-05-17T09:48:41Z</time>
      </trkpt>
      <trkpt lat="44.63706" lon="5.0643">
        <ele>317.4</ele>
        <time>2024-05-17T09:48:42Z</time>
      </trkpt>
      <trkpt lat="44.63703" lon="5.06438">
        <ele>317.5</ele>
        <time>2024-05-17T09:48:43Z</time>
      </trkpt>
      <trkpt lat="44.637" lon="5.06446">
        <ele>317.6</ele>
        <time>2024-05-17T09:48:44Z</time>
      </trkpt>
      <trkpt lat="44.63697" lon="5.06453">
        <ele>317.6</ele>
        <time>2024-05-17T09:48:45Z</time>
      </trkpt>
      <trkpt lat="44.63695" lon="5.06461">
        <ele>317.7</ele>
        <time>2024-05-17T09:48:46Z</time>
      </trkpt>
      <trkpt lat="44.63692" lon="5.06469">
        <ele>317.7</ele>
        <time>2024-05-17T09:48:47Z</time>
      </trkpt>
      <trkpt lat="44.63689" lon="5.06477">
        <ele>317.8</ele>
        <time>2024-05-17T09:48:48Z</time>
      </trkpt>
      <trkpt lat="44.63686" lon="5.06485">
        <ele>317.9</ele>
        <time>2024-05-17T09:48:49Z</time>
      </trkpt>
      <trkpt lat="44.63683" lon="5.06493">
        <ele>317.9</ele>
        <time>2024-05-17T09:48:50Z</time>
      </trkpt>
      <trkpt lat="44.63681" lon="5.06501">
        <ele>317.9</ele>
        <time>2024-05-17T09:48:51Z</time>
      </trkpt>
      <trkpt lat="44.63678" lon="5.06508">
        <ele>318</ele>
        <time>2024-05-17T09:48:52Z</time>
      </trkpt>
      <trkpt lat="44.63675" lon="5.06516">
        <ele>318</ele>
        <time>2024-05-17T09:48:53Z</time>
      </trkpt>
      <trkpt lat="44.63672" lon="5.06524">
        <ele>317.9</ele>
        <time>2024-05-17T09:48:54Z</time>
      </trkpt>
      <trkpt lat="44.6367" lon="5.06532">
        <ele>317.9</ele>
        <time>2024-05-17T09:48:55Z</time>
      </trkpt>
      <trkpt lat="44.63665" lon="5.06544">
        <ele>317.9</ele>
        <time>2024-05-17T09:48:56Z</time>
      </trkpt>
      <trkpt lat="44.63664" lon="5.06548">
        <ele>317.9</ele>
        <time>2024-05-17T09:48:57Z</time>
      </trkpt>
      <trkpt lat="44.63661" lon="5.06556">
        <ele>317.7</ele>
        <time>2024-05-17T09:48:58Z</time>
      </trkpt>
      <trkpt lat="44.63657" lon="5.06569">
        <ele>317.6</ele>
        <time>2024-05-17T09:48:59Z</time>
      </trkpt>
      <trkpt lat="44.63655" lon="5.06574">
        <ele>317.5</ele>
        <time>2024-05-17T09:49:00Z</time>
      </trkpt>
      <trkpt lat="44.63652" lon="5.06583">
        <ele>317.3</ele>
        <time>2024-05-17T09:49:01Z</time>
      </trkpt>
      <trkpt lat="44.63649" lon="5.06592">
        <ele>317.2</ele>
        <time>2024-05-17T09:49:02Z</time>
      </trkpt>
      <trkpt lat="44.63644" lon="5.06606">
        <ele>317</ele>
        <time>2024-05-17T09:49:03Z</time>
      </trkpt>
      <trkpt lat="44.63642" lon="5.0661">
        <ele>316.9</ele>
        <time>2024-05-17T09:49:04Z</time>
      </trkpt>
      <trkpt lat="44.63639" lon="5.0662">
        <ele>316.8</ele>
        <time>2024-05-17T09:49:05Z</time>
      </trkpt>
      <trkpt lat="44.63634" lon="5.06634">
        <ele>316.7</ele>
        <time>2024-05-17T09:49:06Z</time>
      </trkpt>
      <trkpt lat="44.63632" lon="5.06639">
        <ele>316.6</ele>
        <time>2024-05-17T09:49:07Z</time>
      </trkpt>
      <trkpt lat="44.63627" lon="5.06653">
        <ele>316.4</ele>
        <time>2024-05-17T09:49:08Z</time>
      </trkpt>
      <trkpt lat="44.63626" lon="5.06658">
        <ele>316.4</ele>
        <time>2024-05-17T09:49:09Z</time>
      </trkpt>
      <trkpt lat="44.63621" lon="5.06672">
        <ele>316.2</ele>
        <time>2024-05-17T09:49:10Z</time>
      </trkpt>
      <trkpt lat="44.63619" lon="5.06677">
        <ele>316.1</ele>
        <time>2024-05-17T09:49:11Z</time>
      </trkpt>
      <trkpt lat="44.63614" lon="5.06691">
        <ele>315.9</ele>
        <time>2024-05-17T09:49:12Z</time>
      </trkpt>
      <trkpt lat="44.63612" lon="5.06696">
        <ele>315.9</ele>
        <time>2024-05-17T09:49:13Z</time>
      </trkpt>
      <trkpt lat="44.63607" lon="5.06711">
        <ele>315.7</ele>
        <time>2024-05-17T09:49:14Z</time>
      </trkpt>
      <trkpt lat="44.63605" lon="5.06716">
        <ele>315.7</ele>
        <time>2024-05-17T09:49:15Z</time>
      </trkpt>
      <trkpt lat="44.63602" lon="5.06725">
        <ele>315.7</ele>
        <time>2024-05-17T09:49:16Z</time>
      </trkpt>
      <trkpt lat="44.63598" lon="5.06735">
        <ele>315.6</ele>
        <time>2024-05-17T09:49:17Z</time>
      </trkpt>
      <trkpt lat="44.63595" lon="5.06744">
        <ele>315.6</ele>
        <time>2024-05-17T09:49:18Z</time>
      </trkpt>
      <trkpt lat="44.63591" lon="5.06754">
        <ele>315.5</ele>
        <time>2024-05-17T09:49:19Z</time>
      </trkpt>
      <trkpt lat="44.63588" lon="5.06763">
        <ele>315.5</ele>
        <time>2024-05-17T09:49:20Z</time>
      </trkpt>
      <trkpt lat="44.63585" lon="5.06772">
        <ele>315.5</ele>
        <time>2024-05-17T09:49:21Z</time>
      </trkpt>
      <trkpt lat="44.63582" lon="5.06782">
        <ele>315.5</ele>
        <time>2024-05-17T09:49:22Z</time>
      </trkpt>
      <trkpt lat="44.63578" lon="5.06791">
        <ele>315.5</ele>
        <time>2024-05-17T09:49:23Z</time>
      </trkpt>
      <trkpt lat="44.63575" lon="5.068">
        <ele>315.5</ele>
        <time>2024-05-17T09:49:24Z</time>
      </trkpt>
      <trkpt lat="44.63572" lon="5.06809">
        <ele>315.5</ele>
        <time>2024-05-17T09:49:25Z</time>
      </trkpt>
      <trkpt lat="44.63568" lon="5.06818">
        <ele>315.6</ele>
        <time>2024-05-17T09:49:26Z</time>
      </trkpt>
      <trkpt lat="44.63565" lon="5.06826">
        <ele>315.6</ele>
        <time>2024-05-17T09:49:27Z</time>
      </trkpt>
      <trkpt lat="44.63562" lon="5.06835">
        <ele>315.6</ele>
        <time>2024-05-17T09:49:28Z</time>
      </trkpt>
      <trkpt lat="44.63559" lon="5.06844">
        <ele>315.6</ele>
        <time>2024-05-17T09:49:29Z</time>
      </trkpt>
      <trkpt lat="44.63556" lon="5.06853">
        <ele>315.7</ele>
        <time>2024-05-17T09:49:30Z</time>
      </trkpt>
      <trkpt lat="44.63553" lon="5.06862">
        <ele>315.7</ele>
        <time>2024-05-17T09:49:31Z</time>
      </trkpt>
      <trkpt lat="44.6355" lon="5.0687">
        <ele>315.7</ele>
        <time>2024-05-17T09:49:32Z</time>
      </trkpt>
      <trkpt lat="44.63547" lon="5.06879">
        <ele>315.8</ele>
        <time>2024-05-17T09:49:33Z</time>
      </trkpt>
      <trkpt lat="44.63544" lon="5.06888">
        <ele>315.9</ele>
        <time>2024-05-17T09:49:34Z</time>
      </trkpt>
      <trkpt lat="44.63541" lon="5.06896">
        <ele>316</ele>
        <time>2024-05-17T09:49:35Z</time>
      </trkpt>
      <trkpt lat="44.63538" lon="5.06905">
        <ele>316.1</ele>
        <time>2024-05-17T09:49:36Z</time>
      </trkpt>
      <trkpt lat="44.63535" lon="5.06913">
        <ele>316.2</ele>
        <time>2024-05-17T09:49:37Z</time>
      </trkpt>
      <trkpt lat="44.63532" lon="5.06921">
        <ele>316.4</ele>
        <time>2024-05-17T09:49:38Z</time>
      </trkpt>
      <trkpt lat="44.63528" lon="5.06933">
        <ele>316.5</ele>
        <time>2024-05-17T09:49:39Z</time>
      </trkpt>
      <trkpt lat="44.63526" lon="5.06937">
        <ele>316.6</ele>
        <time>2024-05-17T09:49:40Z</time>
      </trkpt>
      <trkpt lat="44.63524" lon="5.06945">
        <ele>316.7</ele>
        <time>2024-05-17T09:49:41Z</time>
      </trkpt>
      <trkpt lat="44.6352" lon="5.06956">
        <ele>316.9</ele>
        <time>2024-05-17T09:49:42Z</time>
      </trkpt>
      <trkpt lat="44.63518" lon="5.0696">
        <ele>316.9</ele>
        <time>2024-05-17T09:49:43Z</time>
      </trkpt>
      <trkpt lat="44.63514" lon="5.06971">
        <ele>317.1</ele>
        <time>2024-05-17T09:49:44Z</time>
      </trkpt>
      <trkpt lat="44.63513" lon="5.06975">
        <ele>317.2</ele>
        <time>2024-05-17T09:49:45Z</time>
      </trkpt>
      <trkpt lat="44.63509" lon="5.06985">
        <ele>317.3</ele>
        <time>2024-05-17T09:49:46Z</time>
      </trkpt>
      <trkpt lat="44.63508" lon="5.06989">
        <ele>317.4</ele>
        <time>2024-05-17T09:49:47Z</time>
      </trkpt>
      <trkpt lat="44.63505" lon="5.06996">
        <ele>317.5</ele>
        <time>2024-05-17T09:49:48Z</time>
      </trkpt>
      <trkpt lat="44.63502" lon="5.07006">
        <ele>317.7</ele>
        <time>2024-05-17T09:49:49Z</time>
      </trkpt>
      <trkpt lat="44.63501" lon="5.0701">
        <ele>317.7</ele>
        <time>2024-05-17T09:49:50Z</time>
      </trkpt>
      <trkpt lat="44.63497" lon="5.0702">
        <ele>317.9</ele>
        <time>2024-05-17T09:49:51Z</time>
      </trkpt>
      <trkpt lat="44.63496" lon="5.07024">
        <ele>317.9</ele>
        <time>2024-05-17T09:49:52Z</time>
      </trkpt>
      <trkpt lat="44.63493" lon="5.07034">
        <ele>318.1</ele>
        <time>2024-05-17T09:49:53Z</time>
      </trkpt>
      <trkpt lat="44.63491" lon="5.07037">
        <ele>318.1</ele>
        <time>2024-05-17T09:49:54Z</time>
      </trkpt>
      <trkpt lat="44.63489" lon="5.07044">
        <ele>318.2</ele>
        <time>2024-05-17T09:49:55Z</time>
      </trkpt>
      <trkpt lat="44.63486" lon="5.07051">
        <ele>318.3</ele>
        <time>2024-05-17T09:49:56Z</time>
      </trkpt>
      <trkpt lat="44.63484" lon="5.07058">
        <ele>318.3</ele>
        <time>2024-05-17T09:49:57Z</time>
      </trkpt>
      <trkpt lat="44.63481" lon="5.07065">
        <ele>318.4</ele>
        <time>2024-05-17T09:49:58Z</time>
      </trkpt>
      <trkpt lat="44.63479" lon="5.07073">
        <ele>318.4</ele>
        <time>2024-05-17T09:49:59Z</time>
      </trkpt>
      <trkpt lat="44.63476" lon="5.0708">
        <ele>318.5</ele>
        <time>2024-05-17T09:50:00Z</time>
      </trkpt>
      <trkpt lat="44.63474" lon="5.07087">
        <ele>318.5</ele>
        <time>2024-05-17T09:50:01Z</time>
      </trkpt>
      <trkpt lat="44.63471" lon="5.07094">
        <ele>318.5</ele>
        <time>2024-05-17T09:50:02Z</time>
      </trkpt>
      <trkpt lat="44.63469" lon="5.07101">
        <ele>318.5</ele>
        <time>2024-05-17T09:50:03Z</time>
      </trkpt>
      <trkpt lat="44.63466" lon="5.07108">
        <ele>318.5</ele>
        <time>2024-05-17T09:50:04Z</time>
      </trkpt>
      <trkpt lat="44.63464" lon="5.07115">
        <ele>318.5</ele>
        <time>2024-05-17T09:50:05Z</time>
      </trkpt>
      <trkpt lat="44.63461" lon="5.07123">
        <ele>318.5</ele>
        <time>2024-05-17T09:50:06Z</time>
      </trkpt>
      <trkpt lat="44.63459" lon="5.0713">
        <ele>318.5</ele>
        <time>2024-05-17T09:50:07Z</time>
      </trkpt>
      <trkpt lat="44.63456" lon="5.07138">
        <ele>318.4</ele>
        <time>2024-05-17T09:50:08Z</time>
      </trkpt>
      <trkpt lat="44.63453" lon="5.07145">
        <ele>318.4</ele>
        <time>2024-05-17T09:50:09Z</time>
      </trkpt>
      <trkpt lat="44.63451" lon="5.07153">
        <ele>318.3</ele>
        <time>2024-05-17T09:50:10Z</time>
      </trkpt>
      <trkpt lat="44.63448" lon="5.0716">
        <ele>318.3</ele>
        <time>2024-05-17T09:50:11Z</time>
      </trkpt>
      <trkpt lat="44.63446" lon="5.07168">
        <ele>318.2</ele>
        <time>2024-05-17T09:50:12Z</time>
      </trkpt>
      <trkpt lat="44.63443" lon="5.07175">
        <ele>318.2</ele>
        <time>2024-05-17T09:50:13Z</time>
      </trkpt>
      <trkpt lat="44.6344" lon="5.07182">
        <ele>318.2</ele>
        <time>2024-05-17T09:50:14Z</time>
      </trkpt>
      <trkpt lat="44.63438" lon="5.0719">
        <ele>318.2</ele>
        <time>2024-05-17T09:50:15Z</time>
      </trkpt>
      <trkpt lat="44.63435" lon="5.07197">
        <ele>318.2</ele>
        <time>2024-05-17T09:50:16Z</time>
      </trkpt>
      <trkpt lat="44.63433" lon="5.07205">
        <ele>318.1</ele>
        <time>2024-05-17T09:50:17Z</time>
      </trkpt>
      <trkpt lat="44.6343" lon="5.07213">
        <ele>318.1</ele>
        <time>2024-05-17T09:50:18Z</time>
      </trkpt>
      <trkpt lat="44.63427" lon="5.07221">
        <ele>318.1</ele>
        <time>2024-05-17T09:50:19Z</time>
      </trkpt>
      <trkpt lat="44.63424" lon="5.07228">
        <ele>318.1</ele>
        <time>2024-05-17T09:50:20Z</time>
      </trkpt>
      <trkpt lat="44.6342" lon="5.0724">
        <ele>318</ele>
        <time>2024-05-17T09:50:21Z</time>
      </trkpt>
      <trkpt lat="44.63418" lon="5.07244">
        <ele>318</ele>
        <time>2024-05-17T09:50:22Z</time>
      </trkpt>
      <trkpt lat="44.63414" lon="5.07255">
        <ele>318</ele>
        <time>2024-05-17T09:50:23Z</time>
      </trkpt>
      <trkpt lat="44.63413" lon="5.07259">
        <ele>318</ele>
        <time>2024-05-17T09:50:24Z</time>
      </trkpt>
      <trkpt lat="44.63411" lon="5.07267">
        <ele>318</ele>
        <time>2024-05-17T09:50:25Z</time>
      </trkpt>
      <trkpt lat="44.63407" lon="5.07279">
        <ele>318</ele>
        <time>2024-05-17T09:50:26Z</time>
      </trkpt>
      <trkpt lat="44.63405" lon="5.07282">
        <ele>318</ele>
        <time>2024-05-17T09:50:27Z</time>
      </trkpt>
      <trkpt lat="44.63401" lon="5.07294">
        <ele>318</ele>
        <time>2024-05-17T09:50:28Z</time>
      </trkpt>
      <trkpt lat="44.634" lon="5.07298">
        <ele>318</ele>
        <time>2024-05-17T09:50:29Z</time>
      </trkpt>
      <trkpt lat="44.63396" lon="5.07309">
        <ele>318</ele>
        <time>2024-05-17T09:50:30Z</time>
      </trkpt>
      <trkpt lat="44.63395" lon="5.07313">
        <ele>318</ele>
        <time>2024-05-17T09:50:31Z</time>
      </trkpt>
      <trkpt lat="44.63391" lon="5.07324">
        <ele>318.1</ele>
        <time>2024-05-17T09:50:32Z</time>
      </trkpt>
      <trkpt lat="44.6339" lon="5.07328">
        <ele>318.1</ele>
        <time>2024-05-17T09:50:33Z</time>
      </trkpt>
      <trkpt lat="44.63386" lon="5.07339">
        <ele>318.2</ele>
        <time>2024-05-17T09:50:34Z</time>
      </trkpt>
      <trkpt lat="44.63385" lon="5.07342">
        <ele>318.2</ele>
        <time>2024-05-17T09:50:35Z</time>
      </trkpt>
      <trkpt lat="44.63381" lon="5.07353">
        <ele>318.4</ele>
        <time>2024-05-17T09:50:36Z</time>
      </trkpt>
      <trkpt lat="44.6338" lon="5.07356">
        <ele>318.4</ele>
        <time>2024-05-17T09:50:37Z</time>
      </trkpt>
      <trkpt lat="44.63376" lon="5.07366">
        <ele>318.6</ele>
        <time>2024-05-17T09:50:38Z</time>
      </trkpt>
      <trkpt lat="44.63375" lon="5.0737">
        <ele>318.7</ele>
        <time>2024-05-17T09:50:39Z</time>
      </trkpt>
      <trkpt lat="44.63373" lon="5.07376">
        <ele>318.8</ele>
        <time>2024-05-17T09:50:40Z</time>
      </trkpt>
      <trkpt lat="44.63371" lon="5.07383">
        <ele>318.9</ele>
        <time>2024-05-17T09:50:41Z</time>
      </trkpt>
      <trkpt lat="44.63369" lon="5.07389">
        <ele>319</ele>
        <time>2024-05-17T09:50:42Z</time>
      </trkpt>
      <trkpt lat="44.63367" lon="5.07395">
        <ele>319.1</ele>
        <time>2024-05-17T09:50:43Z</time>
      </trkpt>
      <trkpt lat="44.63365" lon="5.07401">
        <ele>319.3</ele>
        <time>2024-05-17T09:50:44Z</time>
      </trkpt>
      <trkpt lat="44.63362" lon="5.07407">
        <ele>319.4</ele>
        <time>2024-05-17T09:50:45Z</time>
      </trkpt>
      <trkpt lat="44.6336" lon="5.07413">
        <ele>319.5</ele>
        <time>2024-05-17T09:50:46Z</time>
      </trkpt>
      <trkpt lat="44.63358" lon="5.07419">
        <ele>319.7</ele>
        <time>2024-05-17T09:50:47Z</time>
      </trkpt>
      <trkpt lat="44.63356" lon="5.07425">
        <ele>319.8</ele>
        <time>2024-05-17T09:50:48Z</time>
      </trkpt>
      <trkpt lat="44.63354" lon="5.0743">
        <ele>320</ele>
        <time>2024-05-17T09:50:49Z</time>
      </trkpt>
      <trkpt lat="44.63352" lon="5.07436">
        <ele>320.1</ele>
        <time>2024-05-17T09:50:50Z</time>
      </trkpt>
      <trkpt lat="44.63351" lon="5.07441">
        <ele>320.3</ele>
        <time>2024-05-17T09:50:51Z</time>
      </trkpt>
      <trkpt lat="44.63349" lon="5.07447">
        <ele>320.4</ele>
        <time>2024-05-17T09:50:52Z</time>
      </trkpt>
      <trkpt lat="44.63347" lon="5.07452">
        <ele>320.6</ele>
        <time>2024-05-17T09:50:53Z</time>
      </trkpt>
      <trkpt lat="44.63345" lon="5.07458">
        <ele>320.8</ele>
        <time>2024-05-17T09:50:54Z</time>
      </trkpt>
      <trkpt lat="44.63343" lon="5.07464">
        <ele>320.9</ele>
        <time>2024-05-17T09:50:55Z</time>
      </trkpt>
      <trkpt lat="44.63341" lon="5.07469">
        <ele>321.1</ele>
        <time>2024-05-17T09:50:56Z</time>
      </trkpt>
      <trkpt lat="44.63339" lon="5.07474">
        <ele>321.3</ele>
        <time>2024-05-17T09:50:57Z</time>
      </trkpt>
      <trkpt lat="44.63337" lon="5.0748">
        <ele>321.5</ele>
        <time>2024-05-17T09:50:58Z</time>
      </trkpt>
      <trkpt lat="44.63335" lon="5.07486">
        <ele>321.7</ele>
        <time>2024-05-17T09:50:59Z</time>
      </trkpt>
      <trkpt lat="44.63333" lon="5.07491">
        <ele>321.8</ele>
        <time>2024-05-17T09:51:00Z</time>
      </trkpt>
      <trkpt lat="44.63332" lon="5.07496">
        <ele>322</ele>
        <time>2024-05-17T09:51:01Z</time>
      </trkpt>
      <trkpt lat="44.6333" lon="5.07502">
        <ele>322.1</ele>
        <time>2024-05-17T09:51:02Z</time>
      </trkpt>
      <trkpt lat="44.63328" lon="5.07508">
        <ele>322.3</ele>
        <time>2024-05-17T09:51:03Z</time>
      </trkpt>
      <trkpt lat="44.63325" lon="5.07516">
        <ele>322.5</ele>
        <time>2024-05-17T09:51:04Z</time>
      </trkpt>
      <trkpt lat="44.63324" lon="5.07519">
        <ele>322.6</ele>
        <time>2024-05-17T09:51:05Z</time>
      </trkpt>
      <trkpt lat="44.63321" lon="5.07527">
        <ele>322.8</ele>
        <time>2024-05-17T09:51:06Z</time>
      </trkpt>
      <trkpt lat="44.63321" lon="5.0753">
        <ele>322.9</ele>
        <time>2024-05-17T09:51:07Z</time>
      </trkpt>
      <trkpt lat="44.63319" lon="5.07535">
        <ele>323</ele>
        <time>2024-05-17T09:51:08Z</time>
      </trkpt>
      <trkpt lat="44.63316" lon="5.07544">
        <ele>323.2</ele>
        <time>2024-05-17T09:51:09Z</time>
      </trkpt>
      <trkpt lat="44.63315" lon="5.07547">
        <ele>323.3</ele>
        <time>2024-05-17T09:51:10Z</time>
      </trkpt>
      <trkpt lat="44.63312" lon="5.07554">
        <ele>323.5</ele>
        <time>2024-05-17T09:51:11Z</time>
      </trkpt>
      <trkpt lat="44.63311" lon="5.07557">
        <ele>323.6</ele>
        <time>2024-05-17T09:51:12Z</time>
      </trkpt>
      <trkpt lat="44.63309" lon="5.07562">
        <ele>323.8</ele>
        <time>2024-05-17T09:51:13Z</time>
      </trkpt>
      <trkpt lat="44.63306" lon="5.0757">
        <ele>324</ele>
        <time>2024-05-17T09:51:14Z</time>
      </trkpt>
      <trkpt lat="44.63305" lon="5.07573">
        <ele>324</ele>
        <time>2024-05-17T09:51:15Z</time>
      </trkpt>
      <trkpt lat="44.63303" lon="5.07579">
        <ele>324.1</ele>
        <time>2024-05-17T09:51:16Z</time>
      </trkpt>
      <trkpt lat="44.63301" lon="5.07584">
        <ele>324.3</ele>
        <time>2024-05-17T09:51:17Z</time>
      </trkpt>
      <trkpt lat="44.63299" lon="5.0759">
        <ele>324.4</ele>
        <time>2024-05-17T09:51:18Z</time>
      </trkpt>
      <trkpt lat="44.63297" lon="5.07595">
        <ele>324.5</ele>
        <time>2024-05-17T09:51:19Z</time>
      </trkpt>
      <trkpt lat="44.63293" lon="5.07604">
        <ele>324.7</ele>
        <time>2024-05-17T09:51:20Z</time>
      </trkpt>
      <trkpt lat="44.63292" lon="5.07606">
        <ele>324.8</ele>
        <time>2024-05-17T09:51:21Z</time>
      </trkpt>
      <trkpt lat="44.63289" lon="5.07615">
        <ele>324.9</ele>
        <time>2024-05-17T09:51:22Z</time>
      </trkpt>
      <trkpt lat="44.63288" lon="5.07617">
        <ele>325</ele>
        <time>2024-05-17T09:51:23Z</time>
      </trkpt>
      <trkpt lat="44.63285" lon="5.07623">
        <ele>325.1</ele>
        <time>2024-05-17T09:51:24Z</time>
      </trkpt>
      <trkpt lat="44.63283" lon="5.07628">
        <ele>325.2</ele>
        <time>2024-05-17T09:51:25Z</time>
      </trkpt>
      <trkpt lat="44.63281" lon="5.07634">
        <ele>325.3</ele>
        <time>2024-05-17T09:51:26Z</time>
      </trkpt>
      <trkpt lat="44.63279" lon="5.07639">
        <ele>325.4</ele>
        <time>2024-05-17T09:51:27Z</time>
      </trkpt>
      <trkpt lat="44.63277" lon="5.07644">
        <ele>325.5</ele>
        <time>2024-05-17T09:51:28Z</time>
      </trkpt>
      <trkpt lat="44.63275" lon="5.0765">
        <ele>325.6</ele>
        <time>2024-05-17T09:51:29Z</time>
      </trkpt>
      <trkpt lat="44.63272" lon="5.07658">
        <ele>325.8</ele>
        <time>2024-05-17T09:51:30Z</time>
      </trkpt>
      <trkpt lat="44.63271" lon="5.07661">
        <ele>325.8</ele>
        <time>2024-05-17T09:51:31Z</time>
      </trkpt>
      <trkpt lat="44.63269" lon="5.07667">
        <ele>325.9</ele>
        <time>2024-05-17T09:51:32Z</time>
      </trkpt>
      <trkpt lat="44.63267" lon="5.07672">
        <ele>326</ele>
        <time>2024-05-17T09:51:33Z</time>
      </trkpt>
      <trkpt lat="44.63265" lon="5.07678">
        <ele>326.1</ele>
        <time>2024-05-17T09:51:34Z</time>
      </trkpt>
      <trkpt lat="44.63263" lon="5.07684">
        <ele>326.1</ele>
        <time>2024-05-17T09:51:35Z</time>
      </trkpt>
      <trkpt lat="44.63262" lon="5.0769">
        <ele>326.2</ele>
        <time>2024-05-17T09:51:36Z</time>
      </trkpt>
      <trkpt lat="44.6326" lon="5.07695">
        <ele>326.3</ele>
        <time>2024-05-17T09:51:37Z</time>
      </trkpt>
      <trkpt lat="44.63258" lon="5.07701">
        <ele>326.4</ele>
        <time>2024-05-17T09:51:38Z</time>
      </trkpt>
      <trkpt lat="44.63256" lon="5.07708">
        <ele>326.4</ele>
        <time>2024-05-17T09:51:39Z</time>
      </trkpt>
      <trkpt lat="44.63254" lon="5.07714">
        <ele>326.5</ele>
        <time>2024-05-17T09:51:40Z</time>
      </trkpt>
      <trkpt lat="44.63252" lon="5.07721">
        <ele>326.6</ele>
        <time>2024-05-17T09:51:41Z</time>
      </trkpt>
      <trkpt lat="44.6325" lon="5.07728">
        <ele>326.6</ele>
        <time>2024-05-17T09:51:42Z</time>
      </trkpt>
      <trkpt lat="44.63248" lon="5.07734">
        <ele>326.6</ele>
        <time>2024-05-17T09:51:43Z</time>
      </trkpt>
      <trkpt lat="44.63246" lon="5.07741">
        <ele>326.6</ele>
        <time>2024-05-17T09:51:44Z</time>
      </trkpt>
      <trkpt lat="44.63244" lon="5.07748">
        <ele>326.6</ele>
        <time>2024-05-17T09:51:45Z</time>
      </trkpt>
      <trkpt lat="44.63243" lon="5.07754">
        <ele>326.7</ele>
        <time>2024-05-17T09:51:46Z</time>
      </trkpt>
      <trkpt lat="44.63241" lon="5.07762">
        <ele>326.7</ele>
        <time>2024-05-17T09:51:47Z</time>
      </trkpt>
      <trkpt lat="44.63239" lon="5.07773">
        <ele>326.7</ele>
        <time>2024-05-17T09:51:48Z</time>
      </trkpt>
      <trkpt lat="44.63239" lon="5.07776">
        <ele>326.7</ele>
        <time>2024-05-17T09:51:49Z</time>
      </trkpt>
      <trkpt lat="44.63237" lon="5.07788">
        <ele>326.6</ele>
        <time>2024-05-17T09:51:50Z</time>
      </trkpt>
      <trkpt lat="44.63237" lon="5.07792">
        <ele>326.6</ele>
        <time>2024-05-17T09:51:51Z</time>
      </trkpt>
      <trkpt lat="44.63237" lon="5.07804">
        <ele>326.6</ele>
        <time>2024-05-17T09:51:52Z</time>
      </trkpt>
      <trkpt lat="44.63236" lon="5.07808">
        <ele>326.6</ele>
        <time>2024-05-17T09:51:53Z</time>
      </trkpt>
      <trkpt lat="44.63236" lon="5.0782">
        <ele>326.6</ele>
        <time>2024-05-17T09:51:54Z</time>
      </trkpt>
      <trkpt lat="44.63236" lon="5.07823">
        <ele>326.5</ele>
        <time>2024-05-17T09:51:55Z</time>
      </trkpt>
      <trkpt lat="44.63235" lon="5.07836">
        <ele>326.5</ele>
        <time>2024-05-17T09:51:56Z</time>
      </trkpt>
      <trkpt lat="44.63235" lon="5.0784">
        <ele>326.5</ele>
        <time>2024-05-17T09:51:57Z</time>
      </trkpt>
      <trkpt lat="44.63235" lon="5.07848">
        <ele>326.5</ele>
        <time>2024-05-17T09:51:58Z</time>
      </trkpt>
      <trkpt lat="44.63235" lon="5.0786">
        <ele>326.5</ele>
        <time>2024-05-17T09:51:59Z</time>
      </trkpt>
      <trkpt lat="44.63234" lon="5.07864">
        <ele>326.5</ele>
        <time>2024-05-17T09:52:00Z</time>
      </trkpt>
      <trkpt lat="44.63234" lon="5.07872">
        <ele>326.4</ele>
        <time>2024-05-17T09:52:01Z</time>
      </trkpt>
      <trkpt lat="44.63234" lon="5.07881">
        <ele>326.4</ele>
        <time>2024-05-17T09:52:02Z</time>
      </trkpt>
      <trkpt lat="44.63233" lon="5.07889">
        <ele>326.4</ele>
        <time>2024-05-17T09:52:03Z</time>
      </trkpt>
      <trkpt lat="44.63233" lon="5.07902">
        <ele>326.3</ele>
        <time>2024-05-17T09:52:04Z</time>
      </trkpt>
      <trkpt lat="44.63233" lon="5.07907">
        <ele>326.3</ele>
        <time>2024-05-17T09:52:05Z</time>
      </trkpt>
      <trkpt lat="44.63233" lon="5.07915">
        <ele>326.3</ele>
        <time>2024-05-17T09:52:06Z</time>
      </trkpt>
      <trkpt lat="44.63232" lon="5.07924">
        <ele>326.3</ele>
        <time>2024-05-17T09:52:07Z</time>
      </trkpt>
      <trkpt lat="44.63232" lon="5.07932">
        <ele>326.3</ele>
        <time>2024-05-17T09:52:08Z</time>
      </trkpt>
      <trkpt lat="44.63232" lon="5.0794">
        <ele>326.3</ele>
        <time>2024-05-17T09:52:09Z</time>
      </trkpt>
      <trkpt lat="44.63231" lon="5.07949">
        <ele>326.3</ele>
        <time>2024-05-17T09:52:10Z</time>
      </trkpt>
      <trkpt lat="44.63231" lon="5.07957">
        <ele>326.3</ele>
        <time>2024-05-17T09:52:11Z</time>
      </trkpt>
      <trkpt lat="44.63231" lon="5.07965">
        <ele>326.4</ele>
        <time>2024-05-17T09:52:12Z</time>
      </trkpt>
      <trkpt lat="44.63231" lon="5.07973">
        <ele>326.4</ele>
        <time>2024-05-17T09:52:13Z</time>
      </trkpt>
      <trkpt lat="44.6323" lon="5.07981">
        <ele>326.4</ele>
        <time>2024-05-17T09:52:14Z</time>
      </trkpt>
      <trkpt lat="44.6323" lon="5.07989">
        <ele>326.5</ele>
        <time>2024-05-17T09:52:15Z</time>
      </trkpt>
      <trkpt lat="44.6323" lon="5.07997">
        <ele>326.6</ele>
        <time>2024-05-17T09:52:16Z</time>
      </trkpt>
      <trkpt lat="44.6323" lon="5.08004">
        <ele>326.6</ele>
        <time>2024-05-17T09:52:17Z</time>
      </trkpt>
      <trkpt lat="44.63229" lon="5.08012">
        <ele>326.7</ele>
        <time>2024-05-17T09:52:18Z</time>
      </trkpt>
      <trkpt lat="44.63229" lon="5.08019">
        <ele>326.8</ele>
        <time>2024-05-17T09:52:19Z</time>
      </trkpt>
      <trkpt lat="44.63228" lon="5.08027">
        <ele>326.9</ele>
        <time>2024-05-17T09:52:20Z</time>
      </trkpt>
      <trkpt lat="44.63228" lon="5.08034">
        <ele>326.9</ele>
        <time>2024-05-17T09:52:21Z</time>
      </trkpt>
      <trkpt lat="44.63228" lon="5.08042">
        <ele>327</ele>
        <time>2024-05-17T09:52:22Z</time>
      </trkpt>
      <trkpt lat="44.63227" lon="5.08049">
        <ele>327.1</ele>
        <time>2024-05-17T09:52:23Z</time>
      </trkpt>
      <trkpt lat="44.63227" lon="5.08057">
        <ele>327.2</ele>
        <time>2024-05-17T09:52:24Z</time>
      </trkpt>
      <trkpt lat="44.63227" lon="5.08064">
        <ele>327.3</ele>
        <time>2024-05-17T09:52:25Z</time>
      </trkpt>
      <trkpt lat="44.63226" lon="5.08072">
        <ele>327.4</ele>
        <time>2024-05-17T09:52:26Z</time>
      </trkpt>
      <trkpt lat="44.63226" lon="5.08079">
        <ele>327.5</ele>
        <time>2024-05-17T09:52:27Z</time>
      </trkpt>
      <trkpt lat="44.63225" lon="5.08086">
        <ele>327.6</ele>
        <time>2024-05-17T09:52:28Z</time>
      </trkpt>
      <trkpt lat="44.63224" lon="5.08092">
        <ele>327.7</ele>
        <time>2024-05-17T09:52:29Z</time>
      </trkpt>
      <trkpt lat="44.63222" lon="5.08103">
        <ele>327.9</ele>
        <time>2024-05-17T09:52:30Z</time>
      </trkpt>
      <trkpt lat="44.63222" lon="5.08107">
        <ele>327.9</ele>
        <time>2024-05-17T09:52:31Z</time>
      </trkpt>
      <trkpt lat="44.63219" lon="5.08117">
        <ele>328.1</ele>
        <time>2024-05-17T09:52:32Z</time>
      </trkpt>
      <trkpt lat="44.63218" lon="5.0812">
        <ele>328.1</ele>
        <time>2024-05-17T09:52:33Z</time>
      </trkpt>
      <trkpt lat="44.63217" lon="5.08127">
        <ele>328.2</ele>
        <time>2024-05-17T09:52:34Z</time>
      </trkpt>
      <trkpt lat="44.63214" lon="5.08137">
        <ele>328.3</ele>
        <time>2024-05-17T09:52:35Z</time>
      </trkpt>
      <trkpt lat="44.63214" lon="5.0814">
        <ele>328.3</ele>
        <time>2024-05-17T09:52:36Z</time>
      </trkpt>
      <trkpt lat="44.63211" lon="5.08149">
        <ele>328.4</ele>
        <time>2024-05-17T09:52:37Z</time>
      </trkpt>
      <trkpt lat="44.6321" lon="5.08153">
        <ele>328.4</ele>
        <time>2024-05-17T09:52:38Z</time>
      </trkpt>
      <trkpt lat="44.63208" lon="5.08159">
        <ele>328.6</ele>
        <time>2024-05-17T09:52:39Z</time>
      </trkpt>
      <trkpt lat="44.63206" lon="5.08168">
        <ele>328.7</ele>
        <time>2024-05-17T09:52:40Z</time>
      </trkpt>
      <trkpt lat="44.63205" lon="5.08171">
        <ele>328.8</ele>
        <time>2024-05-17T09:52:41Z</time>
      </trkpt>
      <trkpt lat="44.63203" lon="5.08179">
        <ele>328.9</ele>
        <time>2024-05-17T09:52:42Z</time>
      </trkpt>
      <trkpt lat="44.63202" lon="5.08182">
        <ele>329</ele>
        <time>2024-05-17T09:52:43Z</time>
      </trkpt>
      <trkpt lat="44.63199" lon="5.0819">
        <ele>329.1</ele>
        <time>2024-05-17T09:52:44Z</time>
      </trkpt>
      <trkpt lat="44.63198" lon="5.08193">
        <ele>329.2</ele>
        <time>2024-05-17T09:52:45Z</time>
      </trkpt>
      <trkpt lat="44.63196" lon="5.08199">
        <ele>329.3</ele>
        <time>2024-05-17T09:52:46Z</time>
      </trkpt>
      <trkpt lat="44.63194" lon="5.08207">
        <ele>329.4</ele>
        <time>2024-05-17T09:52:47Z</time>
      </trkpt>
      <trkpt lat="44.63193" lon="5.0821">
        <ele>329.5</ele>
        <time>2024-05-17T09:52:48Z</time>
      </trkpt>
      <trkpt lat="44.63191" lon="5.08216">
        <ele>329.6</ele>
        <time>2024-05-17T09:52:49Z</time>
      </trkpt>
      <trkpt lat="44.6319" lon="5.08222">
        <ele>329.7</ele>
        <time>2024-05-17T09:52:50Z</time>
      </trkpt>
      <trkpt lat="44.63188" lon="5.08227">
        <ele>329.9</ele>
        <time>2024-05-17T09:52:51Z</time>
      </trkpt>
      <trkpt lat="44.63186" lon="5.08233">
        <ele>330</ele>
        <time>2024-05-17T09:52:52Z</time>
      </trkpt>
      <trkpt lat="44.63183" lon="5.08239">
        <ele>330.1</ele>
        <time>2024-05-17T09:52:53Z</time>
      </trkpt>
      <trkpt lat="44.63181" lon="5.08246">
        <ele>330.2</ele>
        <time>2024-05-17T09:52:54Z</time>
      </trkpt>
      <trkpt lat="44.63179" lon="5.08252">
        <ele>330.4</ele>
        <time>2024-05-17T09:52:55Z</time>
      </trkpt>
      <trkpt lat="44.63177" lon="5.08258">
        <ele>330.5</ele>
        <time>2024-05-17T09:52:56Z</time>
      </trkpt>
      <trkpt lat="44.63175" lon="5.08264">
        <ele>330.6</ele>
        <time>2024-05-17T09:52:57Z</time>
      </trkpt>
      <trkpt lat="44.63173" lon="5.08269">
        <ele>330.7</ele>
        <time>2024-05-17T09:52:58Z</time>
      </trkpt>
      <trkpt lat="44.63171" lon="5.08275">
        <ele>330.8</ele>
        <time>2024-05-17T09:52:59Z</time>
      </trkpt>
      <trkpt lat="44.63169" lon="5.08281">
        <ele>330.9</ele>
        <time>2024-05-17T09:53:00Z</time>
      </trkpt>
      <trkpt lat="44.63167" lon="5.08287">
        <ele>331</ele>
        <time>2024-05-17T09:53:01Z</time>
      </trkpt>
      <trkpt lat="44.63165" lon="5.08292">
        <ele>331.1</ele>
        <time>2024-05-17T09:53:02Z</time>
      </trkpt>
      <trkpt lat="44.63162" lon="5.08301">
        <ele>331.3</ele>
        <time>2024-05-17T09:53:03Z</time>
      </trkpt>
      <trkpt lat="44.63161" lon="5.08304">
        <ele>331.3</ele>
        <time>2024-05-17T09:53:04Z</time>
      </trkpt>
      <trkpt lat="44.63159" lon="5.0831">
        <ele>331.4</ele>
        <time>2024-05-17T09:53:05Z</time>
      </trkpt>
      <trkpt lat="44.63158" lon="5.08316">
        <ele>331.5</ele>
        <time>2024-05-17T09:53:06Z</time>
      </trkpt>
      <trkpt lat="44.63156" lon="5.08322">
        <ele>331.6</ele>
        <time>2024-05-17T09:53:07Z</time>
      </trkpt>
      <trkpt lat="44.63155" lon="5.08328">
        <ele>331.6</ele>
        <time>2024-05-17T09:53:08Z</time>
      </trkpt>
      <trkpt lat="44.63154" lon="5.08335">
        <ele>331.7</ele>
        <time>2024-05-17T09:53:09Z</time>
      </trkpt>
      <trkpt lat="44.63152" lon="5.08341">
        <ele>331.7</ele>
        <time>2024-05-17T09:53:10Z</time>
      </trkpt>
      <trkpt lat="44.63151" lon="5.08348">
        <ele>331.8</ele>
        <time>2024-05-17T09:53:11Z</time>
      </trkpt>
      <trkpt lat="44.6315" lon="5.08355">
        <ele>331.9</ele>
        <time>2024-05-17T09:53:12Z</time>
      </trkpt>
      <trkpt lat="44.63148" lon="5.08365">
        <ele>332</ele>
        <time>2024-05-17T09:53:13Z</time>
      </trkpt>
      <trkpt lat="44.63147" lon="5.08369">
        <ele>332</ele>
        <time>2024-05-17T09:53:14Z</time>
      </trkpt>
      <trkpt lat="44.63145" lon="5.0838">
        <ele>332.1</ele>
        <time>2024-05-17T09:53:15Z</time>
      </trkpt>
      <trkpt lat="44.63145" lon="5.08383">
        <ele>332.1</ele>
        <time>2024-05-17T09:53:16Z</time>
      </trkpt>
      <trkpt lat="44.63143" lon="5.0839">
        <ele>332.1</ele>
        <time>2024-05-17T09:53:17Z</time>
      </trkpt>
      <trkpt lat="44.63142" lon="5.084">
        <ele>332.1</ele>
        <time>2024-05-17T09:53:18Z</time>
      </trkpt>
      <trkpt lat="44.63141" lon="5.08404">
        <ele>332.2</ele>
        <time>2024-05-17T09:53:19Z</time>
      </trkpt>
      <trkpt lat="44.6314" lon="5.08415">
        <ele>332.2</ele>
        <time>2024-05-17T09:53:20Z</time>
      </trkpt>
      <trkpt lat="44.63139" lon="5.08418">
        <ele>332.2</ele>
        <time>2024-05-17T09:53:21Z</time>
      </trkpt>
      <trkpt lat="44.63137" lon="5.08429">
        <ele>332.2</ele>
        <time>2024-05-17T09:53:22Z</time>
      </trkpt>
      <trkpt lat="44.63136" lon="5.08432">
        <ele>332.3</ele>
        <time>2024-05-17T09:53:23Z</time>
      </trkpt>
      <trkpt lat="44.63135" lon="5.0844">
        <ele>332.3</ele>
        <time>2024-05-17T09:53:24Z</time>
      </trkpt>
      <trkpt lat="44.63133" lon="5.0845">
        <ele>332.3</ele>
        <time>2024-05-17T09:53:25Z</time>
      </trkpt>
      <trkpt lat="44.63132" lon="5.08454">
        <ele>332.4</ele>
        <time>2024-05-17T09:53:26Z</time>
      </trkpt>
      <trkpt lat="44.6313" lon="5.08465">
        <ele>332.4</ele>
        <time>2024-05-17T09:53:27Z</time>
      </trkpt>
      <trkpt lat="44.63129" lon="5.08468">
        <ele>332.5</ele>
        <time>2024-05-17T09:53:28Z</time>
      </trkpt>
      <trkpt lat="44.63128" lon="5.08476">
        <ele>332.5</ele>
        <time>2024-05-17T09:53:29Z</time>
      </trkpt>
      <trkpt lat="44.63125" lon="5.08487">
        <ele>332.6</ele>
        <time>2024-05-17T09:53:30Z</time>
      </trkpt>
      <trkpt lat="44.63124" lon="5.08491">
        <ele>332.7</ele>
        <time>2024-05-17T09:53:31Z</time>
      </trkpt>
      <trkpt lat="44.63123" lon="5.08498">
        <ele>332.8</ele>
        <time>2024-05-17T09:53:32Z</time>
      </trkpt>
      <trkpt lat="44.63121" lon="5.08505">
        <ele>332.8</ele>
        <time>2024-05-17T09:53:33Z</time>
      </trkpt>
      <trkpt lat="44.6312" lon="5.08512">
        <ele>332.9</ele>
        <time>2024-05-17T09:53:34Z</time>
      </trkpt>
      <trkpt lat="44.63119" lon="5.08519">
        <ele>333</ele>
        <time>2024-05-17T09:53:35Z</time>
      </trkpt>
      <trkpt lat="44.63117" lon="5.08526">
        <ele>333.1</ele>
        <time>2024-05-17T09:53:36Z</time>
      </trkpt>
      <trkpt lat="44.63116" lon="5.08533">
        <ele>333.1</ele>
        <time>2024-05-17T09:53:37Z</time>
      </trkpt>
      <trkpt lat="44.63115" lon="5.08539">
        <ele>333.2</ele>
        <time>2024-05-17T09:53:38Z</time>
      </trkpt>
      <trkpt lat="44.63114" lon="5.08546">
        <ele>333.3</ele>
        <time>2024-05-17T09:53:39Z</time>
      </trkpt>
      <trkpt lat="44.63113" lon="5.08553">
        <ele>333.3</ele>
        <time>2024-05-17T09:53:40Z</time>
      </trkpt>
      <trkpt lat="44.63111" lon="5.0856">
        <ele>333.4</ele>
        <time>2024-05-17T09:53:41Z</time>
      </trkpt>
      <trkpt lat="44.6311" lon="5.08568">
        <ele>333.5</ele>
        <time>2024-05-17T09:53:42Z</time>
      </trkpt>
      <trkpt lat="44.63108" lon="5.08575">
        <ele>333.6</ele>
        <time>2024-05-17T09:53:43Z</time>
      </trkpt>
      <trkpt lat="44.63107" lon="5.08582">
        <ele>333.6</ele>
        <time>2024-05-17T09:53:44Z</time>
      </trkpt>
      <trkpt lat="44.63106" lon="5.08588">
        <ele>333.7</ele>
        <time>2024-05-17T09:53:45Z</time>
      </trkpt>
      <trkpt lat="44.63104" lon="5.08595">
        <ele>333.8</ele>
        <time>2024-05-17T09:53:46Z</time>
      </trkpt>
      <trkpt lat="44.63103" lon="5.08601">
        <ele>333.9</ele>
        <time>2024-05-17T09:53:47Z</time>
      </trkpt>
      <trkpt lat="44.63101" lon="5.08608">
        <ele>334</ele>
        <time>2024-05-17T09:53:48Z</time>
      </trkpt>
      <trkpt lat="44.631" lon="5.08615">
        <ele>334.1</ele>
        <time>2024-05-17T09:53:49Z</time>
      </trkpt>
      <trkpt lat="44.63099" lon="5.08621">
        <ele>334.1</ele>
        <time>2024-05-17T09:53:50Z</time>
      </trkpt>
      <trkpt lat="44.63098" lon="5.08628">
        <ele>334.2</ele>
        <time>2024-05-17T09:53:51Z</time>
      </trkpt>
      <trkpt lat="44.63097" lon="5.08634">
        <ele>334.3</ele>
        <time>2024-05-17T09:53:52Z</time>
      </trkpt>
      <trkpt lat="44.63096" lon="5.08641">
        <ele>334.4</ele>
        <time>2024-05-17T09:53:53Z</time>
      </trkpt>
      <trkpt lat="44.63095" lon="5.08647">
        <ele>334.5</ele>
        <time>2024-05-17T09:53:54Z</time>
      </trkpt>
      <trkpt lat="44.63094" lon="5.08657">
        <ele>334.6</ele>
        <time>2024-05-17T09:53:55Z</time>
      </trkpt>
      <trkpt lat="44.63094" lon="5.0866">
        <ele>334.7</ele>
        <time>2024-05-17T09:53:56Z</time>
      </trkpt>
      <trkpt lat="44.63092" lon="5.0867">
        <ele>334.8</ele>
        <time>2024-05-17T09:53:57Z</time>
      </trkpt>
      <trkpt lat="44.63091" lon="5.08674">
        <ele>334.8</ele>
        <time>2024-05-17T09:53:58Z</time>
      </trkpt>
      <trkpt lat="44.6309" lon="5.0868">
        <ele>334.9</ele>
        <time>2024-05-17T09:53:59Z</time>
      </trkpt>
      <trkpt lat="44.63089" lon="5.08687">
        <ele>335</ele>
        <time>2024-05-17T09:54:00Z</time>
      </trkpt>
      <trkpt lat="44.63088" lon="5.08694">
        <ele>335.2</ele>
        <time>2024-05-17T09:54:01Z</time>
      </trkpt>
      <trkpt lat="44.63086" lon="5.087">
        <ele>335.3</ele>
        <time>2024-05-17T09:54:02Z</time>
      </trkpt>
      <trkpt lat="44.63084" lon="5.0871">
        <ele>335.5</ele>
        <time>2024-05-17T09:54:03Z</time>
      </trkpt>
      <trkpt lat="44.63083" lon="5.08714">
        <ele>335.5</ele>
        <time>2024-05-17T09:54:04Z</time>
      </trkpt>
      <trkpt lat="44.63082" lon="5.0872">
        <ele>335.6</ele>
        <time>2024-05-17T09:54:05Z</time>
      </trkpt>
      <trkpt lat="44.63079" lon="5.0873">
        <ele>335.8</ele>
        <time>2024-05-17T09:54:06Z</time>
      </trkpt>
      <trkpt lat="44.63079" lon="5.08733">
        <ele>335.8</ele>
        <time>2024-05-17T09:54:07Z</time>
      </trkpt>
      <trkpt lat="44.63077" lon="5.08743">
        <ele>336</ele>
        <time>2024-05-17T09:54:08Z</time>
      </trkpt>
      <trkpt lat="44.63076" lon="5.08746">
        <ele>336</ele>
        <time>2024-05-17T09:54:09Z</time>
      </trkpt>
      <trkpt lat="44.63074" lon="5.08756">
        <ele>336.2</ele>
        <time>2024-05-17T09:54:10Z</time>
      </trkpt>
      <trkpt lat="44.63074" lon="5.08759">
        <ele>336.2</ele>
        <time>2024-05-17T09:54:11Z</time>
      </trkpt>
      <trkpt lat="44.63073" lon="5.08766">
        <ele>336.3</ele>
        <time>2024-05-17T09:54:12Z</time>
      </trkpt>
      <trkpt lat="44.63071" lon="5.08775">
        <ele>336.4</ele>
        <time>2024-05-17T09:54:13Z</time>
      </trkpt>
      <trkpt lat="44.6307" lon="5.08779">
        <ele>336.5</ele>
        <time>2024-05-17T09:54:14Z</time>
      </trkpt>
      <trkpt lat="44.63069" lon="5.08785">
        <ele>336.6</ele>
        <time>2024-05-17T09:54:15Z</time>
      </trkpt>
      <trkpt lat="44.63067" lon="5.08792">
        <ele>336.6</ele>
        <time>2024-05-17T09:54:16Z</time>
      </trkpt>
      <trkpt lat="44.63066" lon="5.08798">
        <ele>336.7</ele>
        <time>2024-05-17T09:54:17Z</time>
      </trkpt>
      <trkpt lat="44.63065" lon="5.08805">
        <ele>336.8</ele>
        <time>2024-05-17T09:54:18Z</time>
      </trkpt>
      <trkpt lat="44.63064" lon="5.08812">
        <ele>336.9</ele>
        <time>2024-05-17T09:54:19Z</time>
      </trkpt>
      <trkpt lat="44.63062" lon="5.08818">
        <ele>337</ele>
        <time>2024-05-17T09:54:20Z</time>
      </trkpt>
      <trkpt lat="44.63061" lon="5.08825">
        <ele>337.1</ele>
        <time>2024-05-17T09:54:21Z</time>
      </trkpt>
      <trkpt lat="44.6306" lon="5.08832">
        <ele>337.2</ele>
        <time>2024-05-17T09:54:22Z</time>
      </trkpt>
      <trkpt lat="44.63059" lon="5.08839">
        <ele>337.4</ele>
        <time>2024-05-17T09:54:23Z</time>
      </trkpt>
      <trkpt lat="44.63058" lon="5.08846">
        <ele>337.5</ele>
        <time>2024-05-17T09:54:24Z</time>
      </trkpt>
      <trkpt lat="44.63057" lon="5.08853">
        <ele>337.7</ele>
        <time>2024-05-17T09:54:25Z</time>
      </trkpt>
      <trkpt lat="44.63055" lon="5.0886">
        <ele>337.7</ele>
        <time>2024-05-17T09:54:26Z</time>
      </trkpt>
      <trkpt lat="44.63054" lon="5.08867">
        <ele>337.8</ele>
        <time>2024-05-17T09:54:27Z</time>
      </trkpt>
      <trkpt lat="44.63052" lon="5.08874">
        <ele>337.9</ele>
        <time>2024-05-17T09:54:28Z</time>
      </trkpt>
      <trkpt lat="44.63051" lon="5.08881">
        <ele>338</ele>
        <time>2024-05-17T09:54:29Z</time>
      </trkpt>
      <trkpt lat="44.63049" lon="5.08888">
        <ele>338.1</ele>
        <time>2024-05-17T09:54:30Z</time>
      </trkpt>
      <trkpt lat="44.63047" lon="5.08894">
        <ele>338.2</ele>
        <time>2024-05-17T09:54:31Z</time>
      </trkpt>
      <trkpt lat="44.63045" lon="5.08901">
        <ele>338.3</ele>
        <time>2024-05-17T09:54:32Z</time>
      </trkpt>
      <trkpt lat="44.63042" lon="5.08908">
        <ele>338.4</ele>
        <time>2024-05-17T09:54:33Z</time>
      </trkpt>
      <trkpt lat="44.6304" lon="5.08914">
        <ele>338.5</ele>
        <time>2024-05-17T09:54:34Z</time>
      </trkpt>
      <trkpt lat="44.63037" lon="5.08921">
        <ele>338.6</ele>
        <time>2024-05-17T09:54:35Z</time>
      </trkpt>
      <trkpt lat="44.63034" lon="5.08928">
        <ele>338.7</ele>
        <time>2024-05-17T09:54:36Z</time>
      </trkpt>
      <trkpt lat="44.6303" lon="5.08937">
        <ele>338.8</ele>
        <time>2024-05-17T09:54:37Z</time>
      </trkpt>
      <trkpt lat="44.63029" lon="5.08941">
        <ele>338.8</ele>
        <time>2024-05-17T09:54:38Z</time>
      </trkpt>
      <trkpt lat="44.63025" lon="5.0895">
        <ele>339</ele>
        <time>2024-05-17T09:54:39Z</time>
      </trkpt>
      <trkpt lat="44.63023" lon="5.08953">
        <ele>339</ele>
        <time>2024-05-17T09:54:40Z</time>
      </trkpt>
      <trkpt lat="44.63019" lon="5.08962">
        <ele>339.1</ele>
        <time>2024-05-17T09:54:41Z</time>
      </trkpt>
      <trkpt lat="44.63017" lon="5.08965">
        <ele>339.2</ele>
        <time>2024-05-17T09:54:42Z</time>
      </trkpt>
      <trkpt lat="44.63014" lon="5.08971">
        <ele>339.3</ele>
        <time>2024-05-17T09:54:43Z</time>
      </trkpt>
      <trkpt lat="44.6301" lon="5.0898">
        <ele>339.4</ele>
        <time>2024-05-17T09:54:44Z</time>
      </trkpt>
      <trkpt lat="44.63008" lon="5.08983">
        <ele>339.4</ele>
        <time>2024-05-17T09:54:45Z</time>
      </trkpt>
      <trkpt lat="44.63004" lon="5.08992">
        <ele>339.6</ele>
        <time>2024-05-17T09:54:46Z</time>
      </trkpt>
      <trkpt lat="44.63002" lon="5.08994">
        <ele>339.6</ele>
        <time>2024-05-17T09:54:47Z</time>
      </trkpt>
      <trkpt lat="44.62999" lon="5.09">
        <ele>339.7</ele>
        <time>2024-05-17T09:54:48Z</time>
      </trkpt>
      <trkpt lat="44.62994" lon="5.09008">
        <ele>339.8</ele>
        <time>2024-05-17T09:54:49Z</time>
      </trkpt>
      <trkpt lat="44.62993" lon="5.09011">
        <ele>339.8</ele>
        <time>2024-05-17T09:54:50Z</time>
      </trkpt>
      <trkpt lat="44.62988" lon="5.0902">
        <ele>340</ele>
        <time>2024-05-17T09:54:51Z</time>
      </trkpt>
      <trkpt lat="44.62986" lon="5.09022">
        <ele>340</ele>
        <time>2024-05-17T09:54:52Z</time>
      </trkpt>
      <trkpt lat="44.62982" lon="5.09031">
        <ele>340.1</ele>
        <time>2024-05-17T09:54:53Z</time>
      </trkpt>
      <trkpt lat="44.6298" lon="5.09033">
        <ele>340.1</ele>
        <time>2024-05-17T09:54:54Z</time>
      </trkpt>
      <trkpt lat="44.62977" lon="5.09039">
        <ele>340.1</ele>
        <time>2024-05-17T09:54:55Z</time>
      </trkpt>
      <trkpt lat="44.62973" lon="5.09044">
        <ele>340.2</ele>
        <time>2024-05-17T09:54:56Z</time>
      </trkpt>
      <trkpt lat="44.6297" lon="5.0905">
        <ele>340.2</ele>
        <time>2024-05-17T09:54:57Z</time>
      </trkpt>
      <trkpt lat="44.62966" lon="5.09055">
        <ele>340.1</ele>
        <time>2024-05-17T09:54:58Z</time>
      </trkpt>
      <trkpt lat="44.62963" lon="5.09061">
        <ele>340.1</ele>
        <time>2024-05-17T09:54:59Z</time>
      </trkpt>
      <trkpt lat="44.62959" lon="5.09067">
        <ele>340.1</ele>
        <time>2024-05-17T09:55:00Z</time>
      </trkpt>
      <trkpt lat="44.62956" lon="5.09073">
        <ele>340</ele>
        <time>2024-05-17T09:55:01Z</time>
      </trkpt>
      <trkpt lat="44.62952" lon="5.09079">
        <ele>339.9</ele>
        <time>2024-05-17T09:55:02Z</time>
      </trkpt>
      <trkpt lat="44.62949" lon="5.09085">
        <ele>339.9</ele>
        <time>2024-05-17T09:55:03Z</time>
      </trkpt>
      <trkpt lat="44.62945" lon="5.09092">
        <ele>339.8</ele>
        <time>2024-05-17T09:55:04Z</time>
      </trkpt>
      <trkpt lat="44.62941" lon="5.09098">
        <ele>339.7</ele>
        <time>2024-05-17T09:55:05Z</time>
      </trkpt>
      <trkpt lat="44.62937" lon="5.09105">
        <ele>339.6</ele>
        <time>2024-05-17T09:55:06Z</time>
      </trkpt>
      <trkpt lat="44.62933" lon="5.09111">
        <ele>339.5</ele>
        <time>2024-05-17T09:55:07Z</time>
      </trkpt>
      <trkpt lat="44.62929" lon="5.09118">
        <ele>339.4</ele>
        <time>2024-05-17T09:55:08Z</time>
      </trkpt>
      <trkpt lat="44.62925" lon="5.09125">
        <ele>339.3</ele>
        <time>2024-05-17T09:55:09Z</time>
      </trkpt>
      <trkpt lat="44.62921" lon="5.09132">
        <ele>339.2</ele>
        <time>2024-05-17T09:55:10Z</time>
      </trkpt>
      <trkpt lat="44.62917" lon="5.09139">
        <ele>339</ele>
        <time>2024-05-17T09:55:11Z</time>
      </trkpt>
      <trkpt lat="44.62913" lon="5.09146">
        <ele>338.9</ele>
        <time>2024-05-17T09:55:12Z</time>
      </trkpt>
      <trkpt lat="44.62909" lon="5.09153">
        <ele>338.8</ele>
        <time>2024-05-17T09:55:13Z</time>
      </trkpt>
      <trkpt lat="44.62905" lon="5.09161">
        <ele>338.7</ele>
        <time>2024-05-17T09:55:14Z</time>
      </trkpt>
      <trkpt lat="44.62902" lon="5.09168">
        <ele>338.6</ele>
        <time>2024-05-17T09:55:15Z</time>
      </trkpt>
      <trkpt lat="44.62898" lon="5.09175">
        <ele>338.5</ele>
        <time>2024-05-17T09:55:16Z</time>
      </trkpt>
      <trkpt lat="44.62894" lon="5.09182">
        <ele>338.3</ele>
        <time>2024-05-17T09:55:17Z</time>
      </trkpt>
      <trkpt lat="44.6289" lon="5.09189">
        <ele>338.2</ele>
        <time>2024-05-17T09:55:18Z</time>
      </trkpt>
      <trkpt lat="44.62885" lon="5.09197">
        <ele>338</ele>
        <time>2024-05-17T09:55:19Z</time>
      </trkpt>
      <trkpt lat="44.62882" lon="5.09204">
        <ele>337.9</ele>
        <time>2024-05-17T09:55:20Z</time>
      </trkpt>
      <trkpt lat="44.62878" lon="5.09212">
        <ele>337.7</ele>
        <time>2024-05-17T09:55:21Z</time>
      </trkpt>
      <trkpt lat="44.62874" lon="5.09219">
        <ele>337.6</ele>
        <time>2024-05-17T09:55:22Z</time>
      </trkpt>
      <trkpt lat="44.62867" lon="5.0923">
        <ele>337.4</ele>
        <time>2024-05-17T09:55:23Z</time>
      </trkpt>
      <trkpt lat="44.62865" lon="5.09234">
        <ele>337.4</ele>
        <time>2024-05-17T09:55:24Z</time>
      </trkpt>
      <trkpt lat="44.62859" lon="5.09245">
        <ele>337.2</ele>
        <time>2024-05-17T09:55:25Z</time>
      </trkpt>
      <trkpt lat="44.62857" lon="5.09249">
        <ele>337.1</ele>
        <time>2024-05-17T09:55:26Z</time>
      </trkpt>
      <trkpt lat="44.6285" lon="5.0926">
        <ele>337</ele>
        <time>2024-05-17T09:55:27Z</time>
      </trkpt>
      <trkpt lat="44.62848" lon="5.09263">
        <ele>337</ele>
        <time>2024-05-17T09:55:28Z</time>
      </trkpt>
      <trkpt lat="44.62842" lon="5.09274">
        <ele>336.9</ele>
        <time>2024-05-17T09:55:29Z</time>
      </trkpt>
      <trkpt lat="44.6284" lon="5.09278">
        <ele>336.9</ele>
        <time>2024-05-17T09:55:30Z</time>
      </trkpt>
      <trkpt lat="44.62833" lon="5.09288">
        <ele>336.9</ele>
        <time>2024-05-17T09:55:31Z</time>
      </trkpt>
      <trkpt lat="44.62831" lon="5.09291">
        <ele>336.8</ele>
        <time>2024-05-17T09:55:32Z</time>
      </trkpt>
      <trkpt lat="44.62826" lon="5.09297">
        <ele>336.8</ele>
        <time>2024-05-17T09:55:33Z</time>
      </trkpt>
      <trkpt lat="44.62818" lon="5.09306">
        <ele>336.8</ele>
        <time>2024-05-17T09:55:34Z</time>
      </trkpt>
      <trkpt lat="44.62816" lon="5.09308">
        <ele>336.8</ele>
        <time>2024-05-17T09:55:35Z</time>
      </trkpt>
      <trkpt lat="44.62808" lon="5.09316">
        <ele>336.9</ele>
        <time>2024-05-17T09:55:36Z</time>
      </trkpt>
      <trkpt lat="44.62805" lon="5.09318">
        <ele>336.9</ele>
        <time>2024-05-17T09:55:37Z</time>
      </trkpt>
      <trkpt lat="44.62797" lon="5.09325">
        <ele>337</ele>
        <time>2024-05-17T09:55:38Z</time>
      </trkpt>
      <trkpt lat="44.62795" lon="5.09327">
        <ele>337.1</ele>
        <time>2024-05-17T09:55:39Z</time>
      </trkpt>
      <trkpt lat="44.62789" lon="5.09331">
        <ele>337.2</ele>
        <time>2024-05-17T09:55:40Z</time>
      </trkpt>
      <trkpt lat="44.62781" lon="5.09336">
        <ele>337.3</ele>
        <time>2024-05-17T09:55:41Z</time>
      </trkpt>
      <trkpt lat="44.62779" lon="5.09338">
        <ele>337.4</ele>
        <time>2024-05-17T09:55:42Z</time>
      </trkpt>
      <trkpt lat="44.62774" lon="5.09342">
        <ele>337.5</ele>
        <time>2024-05-17T09:55:43Z</time>
      </trkpt>
      <trkpt lat="44.62769" lon="5.09346">
        <ele>337.6</ele>
        <time>2024-05-17T09:55:44Z</time>
      </trkpt>
      <trkpt lat="44.62764" lon="5.0935">
        <ele>337.7</ele>
        <time>2024-05-17T09:55:45Z</time>
      </trkpt>
      <trkpt lat="44.62759" lon="5.09354">
        <ele>337.8</ele>
        <time>2024-05-17T09:55:46Z</time>
      </trkpt>
      <trkpt lat="44.62754" lon="5.09358">
        <ele>338</ele>
        <time>2024-05-17T09:55:47Z</time>
      </trkpt>
      <trkpt lat="44.62749" lon="5.09362">
        <ele>338.1</ele>
        <time>2024-05-17T09:55:48Z</time>
      </trkpt>
      <trkpt lat="44.62744" lon="5.09366">
        <ele>338.2</ele>
        <time>2024-05-17T09:55:49Z</time>
      </trkpt>
      <trkpt lat="44.62739" lon="5.0937">
        <ele>338.3</ele>
        <time>2024-05-17T09:55:50Z</time>
      </trkpt>
      <trkpt lat="44.62734" lon="5.09374">
        <ele>338.4</ele>
        <time>2024-05-17T09:55:51Z</time>
      </trkpt>
      <trkpt lat="44.62729" lon="5.09378">
        <ele>338.5</ele>
        <time>2024-05-17T09:55:52Z</time>
      </trkpt>
      <trkpt lat="44.62724" lon="5.09381">
        <ele>338.6</ele>
        <time>2024-05-17T09:55:53Z</time>
      </trkpt>
      <trkpt lat="44.6272" lon="5.09385">
        <ele>338.8</ele>
        <time>2024-05-17T09:55:54Z</time>
      </trkpt>
      <trkpt lat="44.62715" lon="5.09388">
        <ele>338.9</ele>
        <time>2024-05-17T09:55:55Z</time>
      </trkpt>
      <trkpt lat="44.6271" lon="5.09392">
        <ele>339</ele>
        <time>2024-05-17T09:55:56Z</time>
      </trkpt>
      <trkpt lat="44.62705" lon="5.09395">
        <ele>339.2</ele>
        <time>2024-05-17T09:55:57Z</time>
      </trkpt>
      <trkpt lat="44.62701" lon="5.09399">
        <ele>339.3</ele>
        <time>2024-05-17T09:55:58Z</time>
      </trkpt>
      <trkpt lat="44.62696" lon="5.09403">
        <ele>339.4</ele>
        <time>2024-05-17T09:55:59Z</time>
      </trkpt>
      <trkpt lat="44.62691" lon="5.09407">
        <ele>339.4</ele>
        <time>2024-05-17T09:56:00Z</time>
      </trkpt>
      <trkpt lat="44.62684" lon="5.09413">
        <ele>339.5</ele>
        <time>2024-05-17T09:56:01Z</time>
      </trkpt>
      <trkpt lat="44.62682" lon="5.09415">
        <ele>339.5</ele>
        <time>2024-05-17T09:56:02Z</time>
      </trkpt>
      <trkpt lat="44.62677" lon="5.09419">
        <ele>339.6</ele>
        <time>2024-05-17T09:56:03Z</time>
      </trkpt>
      <trkpt lat="44.62672" lon="5.09422">
        <ele>339.6</ele>
        <time>2024-05-17T09:56:04Z</time>
      </trkpt>
      <trkpt lat="44.62668" lon="5.09426">
        <ele>339.7</ele>
        <time>2024-05-17T09:56:05Z</time>
      </trkpt>
      <trkpt lat="44.62663" lon="5.0943">
        <ele>339.8</ele>
        <time>2024-05-17T09:56:06Z</time>
      </trkpt>
      <trkpt lat="44.62656" lon="5.09436">
        <ele>339.9</ele>
        <time>2024-05-17T09:56:07Z</time>
      </trkpt>
      <trkpt lat="44.62653" lon="5.09438">
        <ele>340</ele>
        <time>2024-05-17T09:56:08Z</time>
      </trkpt>
      <trkpt lat="44.62646" lon="5.09443">
        <ele>340.1</ele>
        <time>2024-05-17T09:56:09Z</time>
      </trkpt>
      <trkpt lat="44.62644" lon="5.09445">
        <ele>340.2</ele>
        <time>2024-05-17T09:56:10Z</time>
      </trkpt>
      <trkpt lat="44.62639" lon="5.09448">
        <ele>340.3</ele>
        <time>2024-05-17T09:56:11Z</time>
      </trkpt>
      <trkpt lat="44.62634" lon="5.09452">
        <ele>340.4</ele>
        <time>2024-05-17T09:56:12Z</time>
      </trkpt>
      <trkpt lat="44.62626" lon="5.09458">
        <ele>340.5</ele>
        <time>2024-05-17T09:56:13Z</time>
      </trkpt>
      <trkpt lat="44.62624" lon="5.0946">
        <ele>340.5</ele>
        <time>2024-05-17T09:56:14Z</time>
      </trkpt>
      <trkpt lat="44.62619" lon="5.09464">
        <ele>340.6</ele>
        <time>2024-05-17T09:56:15Z</time>
      </trkpt>
      <trkpt lat="44.62612" lon="5.09469">
        <ele>340.8</ele>
        <time>2024-05-17T09:56:16Z</time>
      </trkpt>
      <trkpt lat="44.6261" lon="5.09471">
        <ele>340.8</ele>
        <time>2024-05-17T09:56:17Z</time>
      </trkpt>
      <trkpt lat="44.62603" lon="5.09476">
        <ele>340.9</ele>
        <time>2024-05-17T09:56:18Z</time>
      </trkpt>
      <trkpt lat="44.626" lon="5.09478">
        <ele>340.9</ele>
        <time>2024-05-17T09:56:19Z</time>
      </trkpt>
      <trkpt lat="44.62593" lon="5.09483">
        <ele>341.1</ele>
        <time>2024-05-17T09:56:20Z</time>
      </trkpt>
      <trkpt lat="44.62591" lon="5.09485">
        <ele>341.1</ele>
        <time>2024-05-17T09:56:21Z</time>
      </trkpt>
      <trkpt lat="44.62586" lon="5.09489">
        <ele>341.2</ele>
        <time>2024-05-17T09:56:22Z</time>
      </trkpt>
      <trkpt lat="44.6258" lon="5.09493">
        <ele>341.4</ele>
        <time>2024-05-17T09:56:23Z</time>
      </trkpt>
      <trkpt lat="44.62578" lon="5.09495">
        <ele>341.5</ele>
        <time>2024-05-17T09:56:24Z</time>
      </trkpt>
      <trkpt lat="44.62573" lon="5.09499">
        <ele>341.6</ele>
        <time>2024-05-17T09:56:25Z</time>
      </trkpt>
      <trkpt lat="44.62569" lon="5.09502">
        <ele>341.8</ele>
        <time>2024-05-17T09:56:26Z</time>
      </trkpt>
      <trkpt lat="44.62565" lon="5.09505">
        <ele>341.9</ele>
        <time>2024-05-17T09:56:27Z</time>
      </trkpt>
      <trkpt lat="44.62561" lon="5.09508">
        <ele>342.1</ele>
        <time>2024-05-17T09:56:28Z</time>
      </trkpt>
      <trkpt lat="44.62556" lon="5.09512">
        <ele>342.2</ele>
        <time>2024-05-17T09:56:29Z</time>
      </trkpt>
      <trkpt lat="44.62552" lon="5.09515">
        <ele>342.4</ele>
        <time>2024-05-17T09:56:30Z</time>
      </trkpt>
      <trkpt lat="44.62548" lon="5.09518">
        <ele>342.5</ele>
        <time>2024-05-17T09:56:31Z</time>
      </trkpt>
      <trkpt lat="44.62543" lon="5.09522">
        <ele>342.7</ele>
        <time>2024-05-17T09:56:32Z</time>
      </trkpt>
      <trkpt lat="44.62539" lon="5.09525">
        <ele>342.8</ele>
        <time>2024-05-17T09:56:33Z</time>
      </trkpt>
      <trkpt lat="44.62535" lon="5.09529">
        <ele>343</ele>
        <time>2024-05-17T09:56:34Z</time>
      </trkpt>
      <trkpt lat="44.62531" lon="5.09533">
        <ele>343.1</ele>
        <time>2024-05-17T09:56:35Z</time>
      </trkpt>
      <trkpt lat="44.62527" lon="5.09537">
        <ele>343.3</ele>
        <time>2024-05-17T09:56:36Z</time>
      </trkpt>
      <trkpt lat="44.62522" lon="5.09541">
        <ele>343.4</ele>
        <time>2024-05-17T09:56:37Z</time>
      </trkpt>
      <trkpt lat="44.62518" lon="5.09545">
        <ele>343.6</ele>
        <time>2024-05-17T09:56:38Z</time>
      </trkpt>
      <trkpt lat="44.62515" lon="5.09549">
        <ele>343.7</ele>
        <time>2024-05-17T09:56:39Z</time>
      </trkpt>
      <trkpt lat="44.62511" lon="5.09553">
        <ele>343.8</ele>
        <time>2024-05-17T09:56:40Z</time>
      </trkpt>
      <trkpt lat="44.62507" lon="5.09558">
        <ele>344</ele>
        <time>2024-05-17T09:56:41Z</time>
      </trkpt>
      <trkpt lat="44.62503" lon="5.09562">
        <ele>344.1</ele>
        <time>2024-05-17T09:56:42Z</time>
      </trkpt>
      <trkpt lat="44.625" lon="5.09567">
        <ele>344.2</ele>
        <time>2024-05-17T09:56:43Z</time>
      </trkpt>
      <trkpt lat="44.62496" lon="5.09571">
        <ele>344.4</ele>
        <time>2024-05-17T09:56:44Z</time>
      </trkpt>
      <trkpt lat="44.62492" lon="5.09576">
        <ele>344.5</ele>
        <time>2024-05-17T09:56:45Z</time>
      </trkpt>
      <trkpt lat="44.62488" lon="5.09581">
        <ele>344.6</ele>
        <time>2024-05-17T09:56:46Z</time>
      </trkpt>
      <trkpt lat="44.62484" lon="5.09586">
        <ele>344.7</ele>
        <time>2024-05-17T09:56:47Z</time>
      </trkpt>
      <trkpt lat="44.62479" lon="5.09593">
        <ele>344.9</ele>
        <time>2024-05-17T09:56:48Z</time>
      </trkpt>
      <trkpt lat="44.62477" lon="5.09595">
        <ele>345</ele>
        <time>2024-05-17T09:56:49Z</time>
      </trkpt>
      <trkpt lat="44.62471" lon="5.09602">
        <ele>345.2</ele>
        <time>2024-05-17T09:56:50Z</time>
      </trkpt>
      <trkpt lat="44.62469" lon="5.09604">
        <ele>345.3</ele>
        <time>2024-05-17T09:56:51Z</time>
      </trkpt>
      <trkpt lat="44.62463" lon="5.09611">
        <ele>345.5</ele>
        <time>2024-05-17T09:56:52Z</time>
      </trkpt>
      <trkpt lat="44.62461" lon="5.09613">
        <ele>345.6</ele>
        <time>2024-05-17T09:56:53Z</time>
      </trkpt>
      <trkpt lat="44.62455" lon="5.09619">
        <ele>345.8</ele>
        <time>2024-05-17T09:56:54Z</time>
      </trkpt>
      <trkpt lat="44.62453" lon="5.09622">
        <ele>345.8</ele>
        <time>2024-05-17T09:56:55Z</time>
      </trkpt>
      <trkpt lat="44.62448" lon="5.09628">
        <ele>346</ele>
        <time>2024-05-17T09:56:56Z</time>
      </trkpt>
      <trkpt lat="44.62446" lon="5.0963">
        <ele>346</ele>
        <time>2024-05-17T09:56:57Z</time>
      </trkpt>
      <trkpt lat="44.62442" lon="5.09634">
        <ele>346.2</ele>
        <time>2024-05-17T09:56:58Z</time>
      </trkpt>
      <trkpt lat="44.62436" lon="5.09641">
        <ele>346.3</ele>
        <time>2024-05-17T09:56:59Z</time>
      </trkpt>
      <trkpt lat="44.62434" lon="5.09643">
        <ele>346.4</ele>
        <time>2024-05-17T09:57:00Z</time>
      </trkpt>
      <trkpt lat="44.62431" lon="5.09648">
        <ele>346.5</ele>
        <time>2024-05-17T09:57:01Z</time>
      </trkpt>
      <trkpt lat="44.62427" lon="5.09653">
        <ele>346.6</ele>
        <time>2024-05-17T09:57:02Z</time>
      </trkpt>
      <trkpt lat="44.62421" lon="5.0966">
        <ele>346.8</ele>
        <time>2024-05-17T09:57:03Z</time>
      </trkpt>
      <trkpt lat="44.6242" lon="5.09663">
        <ele>346.9</ele>
        <time>2024-05-17T09:57:04Z</time>
      </trkpt>
      <trkpt lat="44.62416" lon="5.09668">
        <ele>347</ele>
        <time>2024-05-17T09:57:05Z</time>
      </trkpt>
      <trkpt lat="44.6241" lon="5.09675">
        <ele>347.1</ele>
        <time>2024-05-17T09:57:06Z</time>
      </trkpt>
      <trkpt lat="44.62409" lon="5.09678">
        <ele>347.2</ele>
        <time>2024-05-17T09:57:07Z</time>
      </trkpt>
      <trkpt lat="44.62405" lon="5.09683">
        <ele>347.2</ele>
        <time>2024-05-17T09:57:08Z</time>
      </trkpt>
      <trkpt lat="44.62401" lon="5.09688">
        <ele>347.3</ele>
        <time>2024-05-17T09:57:09Z</time>
      </trkpt>
      <trkpt lat="44.62398" lon="5.09692">
        <ele>347.4</ele>
        <time>2024-05-17T09:57:10Z</time>
      </trkpt>
      <trkpt lat="44.62394" lon="5.09697">
        <ele>347.5</ele>
        <time>2024-05-17T09:57:11Z</time>
      </trkpt>
      <trkpt lat="44.6239" lon="5.09701">
        <ele>347.6</ele>
        <time>2024-05-17T09:57:12Z</time>
      </trkpt>
      <trkpt lat="44.62386" lon="5.09706">
        <ele>347.7</ele>
        <time>2024-05-17T09:57:13Z</time>
      </trkpt>
      <trkpt lat="44.62382" lon="5.09711">
        <ele>347.8</ele>
        <time>2024-05-17T09:57:14Z</time>
      </trkpt>
      <trkpt lat="44.62379" lon="5.09715">
        <ele>347.9</ele>
        <time>2024-05-17T09:57:15Z</time>
      </trkpt>
      <trkpt lat="44.62375" lon="5.0972">
        <ele>348</ele>
        <time>2024-05-17T09:57:16Z</time>
      </trkpt>
      <trkpt lat="44.62371" lon="5.09724">
        <ele>348.1</ele>
        <time>2024-05-17T09:57:17Z</time>
      </trkpt>
      <trkpt lat="44.62367" lon="5.09729">
        <ele>348.2</ele>
        <time>2024-05-17T09:57:18Z</time>
      </trkpt>
      <trkpt lat="44.62364" lon="5.09734">
        <ele>348.3</ele>
        <time>2024-05-17T09:57:19Z</time>
      </trkpt>
      <trkpt lat="44.6236" lon="5.09738">
        <ele>348.4</ele>
        <time>2024-05-17T09:57:20Z</time>
      </trkpt>
      <trkpt lat="44.62356" lon="5.09743">
        <ele>348.4</ele>
        <time>2024-05-17T09:57:21Z</time>
      </trkpt>
      <trkpt lat="44.62353" lon="5.09748">
        <ele>348.5</ele>
        <time>2024-05-17T09:57:22Z</time>
      </trkpt>
      <trkpt lat="44.62349" lon="5.09753">
        <ele>348.6</ele>
        <time>2024-05-17T09:57:23Z</time>
      </trkpt>
      <trkpt lat="44.62345" lon="5.09758">
        <ele>348.7</ele>
        <time>2024-05-17T09:57:24Z</time>
      </trkpt>
      <trkpt lat="44.62339" lon="5.09766">
        <ele>348.8</ele>
        <time>2024-05-17T09:57:25Z</time>
      </trkpt>
      <trkpt lat="44.62337" lon="5.09768">
        <ele>348.8</ele>
        <time>2024-05-17T09:57:26Z</time>
      </trkpt>
      <trkpt lat="44.62333" lon="5.09773">
        <ele>348.9</ele>
        <time>2024-05-17T09:57:27Z</time>
      </trkpt>
      <trkpt lat="44.62328" lon="5.09778">
        <ele>349</ele>
        <time>2024-05-17T09:57:28Z</time>
      </trkpt>
      <trkpt lat="44.62324" lon="5.09783">
        <ele>349</ele>
        <time>2024-05-17T09:57:29Z</time>
      </trkpt>
      <trkpt lat="44.6232" lon="5.09788">
        <ele>349.1</ele>
        <time>2024-05-17T09:57:30Z</time>
      </trkpt>
      <trkpt lat="44.62317" lon="5.09793">
        <ele>349.2</ele>
        <time>2024-05-17T09:57:31Z</time>
      </trkpt>
      <trkpt lat="44.62311" lon="5.09801">
        <ele>349.3</ele>
        <time>2024-05-17T09:57:32Z</time>
      </trkpt>
      <trkpt lat="44.62309" lon="5.09803">
        <ele>349.4</ele>
        <time>2024-05-17T09:57:33Z</time>
      </trkpt>
      <trkpt lat="44.62306" lon="5.09807">
        <ele>349.5</ele>
        <time>2024-05-17T09:57:34Z</time>
      </trkpt>
      <trkpt lat="44.62302" lon="5.09811">
        <ele>349.6</ele>
        <time>2024-05-17T09:57:35Z</time>
      </trkpt>
      <trkpt lat="44.62297" lon="5.09817">
        <ele>349.7</ele>
        <time>2024-05-17T09:57:36Z</time>
      </trkpt>
      <trkpt lat="44.62296" lon="5.09819">
        <ele>349.8</ele>
        <time>2024-05-17T09:57:37Z</time>
      </trkpt>
      <trkpt lat="44.62291" lon="5.09825">
        <ele>349.9</ele>
        <time>2024-05-17T09:57:38Z</time>
      </trkpt>
      <trkpt lat="44.6229" lon="5.09827">
        <ele>350</ele>
        <time>2024-05-17T09:57:39Z</time>
      </trkpt>
      <trkpt lat="44.62286" lon="5.09834">
        <ele>350.2</ele>
        <time>2024-05-17T09:57:40Z</time>
      </trkpt>
      <trkpt lat="44.62285" lon="5.09836">
        <ele>350.3</ele>
        <time>2024-05-17T09:57:41Z</time>
      </trkpt>
      <trkpt lat="44.62283" lon="5.09841">
        <ele>350.4</ele>
        <time>2024-05-17T09:57:42Z</time>
      </trkpt>
      <trkpt lat="44.62279" lon="5.09848">
        <ele>350.7</ele>
        <time>2024-05-17T09:57:43Z</time>
      </trkpt>
      <trkpt lat="44.62279" lon="5.09851">
        <ele>350.8</ele>
        <time>2024-05-17T09:57:44Z</time>
      </trkpt>
      <trkpt lat="44.62276" lon="5.09859">
        <ele>351</ele>
        <time>2024-05-17T09:57:45Z</time>
      </trkpt>
      <trkpt lat="44.62275" lon="5.09861">
        <ele>351.1</ele>
        <time>2024-05-17T09:57:46Z</time>
      </trkpt>
      <trkpt lat="44.62272" lon="5.09869">
        <ele>351.3</ele>
        <time>2024-05-17T09:57:47Z</time>
      </trkpt>
      <trkpt lat="44.62271" lon="5.09872">
        <ele>351.4</ele>
        <time>2024-05-17T09:57:48Z</time>
      </trkpt>
      <trkpt lat="44.6227" lon="5.09878">
        <ele>351.6</ele>
        <time>2024-05-17T09:57:49Z</time>
      </trkpt>
      <trkpt lat="44.62267" lon="5.09886">
        <ele>351.9</ele>
        <time>2024-05-17T09:57:50Z</time>
      </trkpt>
      <trkpt lat="44.62267" lon="5.09889">
        <ele>351.9</ele>
        <time>2024-05-17T09:57:51Z</time>
      </trkpt>
      <trkpt lat="44.62265" lon="5.09894">
        <ele>352.1</ele>
        <time>2024-05-17T09:57:52Z</time>
      </trkpt>
      <trkpt lat="44.62264" lon="5.099">
        <ele>352.3</ele>
        <time>2024-05-17T09:57:53Z</time>
      </trkpt>
      <trkpt lat="44.62262" lon="5.09906">
        <ele>352.5</ele>
        <time>2024-05-17T09:57:54Z</time>
      </trkpt>
      <trkpt lat="44.6226" lon="5.09912">
        <ele>352.6</ele>
        <time>2024-05-17T09:57:55Z</time>
      </trkpt>
      <trkpt lat="44.62258" lon="5.09917">
        <ele>352.8</ele>
        <time>2024-05-17T09:57:56Z</time>
      </trkpt>
      <trkpt lat="44.62256" lon="5.09923">
        <ele>352.9</ele>
        <time>2024-05-17T09:57:57Z</time>
      </trkpt>
      <trkpt lat="44.62253" lon="5.09929">
        <ele>353</ele>
        <time>2024-05-17T09:57:58Z</time>
      </trkpt>
      <trkpt lat="44.62251" lon="5.09934">
        <ele>353.1</ele>
        <time>2024-05-17T09:57:59Z</time>
      </trkpt>
      <trkpt lat="44.62247" lon="5.09939">
        <ele>353.2</ele>
        <time>2024-05-17T09:58:00Z</time>
      </trkpt>
      <trkpt lat="44.62244" lon="5.09943">
        <ele>353.3</ele>
        <time>2024-05-17T09:58:01Z</time>
      </trkpt>
      <trkpt lat="44.6224" lon="5.09947">
        <ele>353.4</ele>
        <time>2024-05-17T09:58:02Z</time>
      </trkpt>
      <trkpt lat="44.62236" lon="5.09952">
        <ele>353.4</ele>
        <time>2024-05-17T09:58:03Z</time>
      </trkpt>
      <trkpt lat="44.62232" lon="5.09957">
        <ele>353.5</ele>
        <time>2024-05-17T09:58:04Z</time>
      </trkpt>
      <trkpt lat="44.62227" lon="5.09961">
        <ele>353.6</ele>
        <time>2024-05-17T09:58:05Z</time>
      </trkpt>
      <trkpt lat="44.62222" lon="5.09964">
        <ele>353.6</ele>
        <time>2024-05-17T09:58:06Z</time>
      </trkpt>
      <trkpt lat="44.62217" lon="5.09967">
        <ele>353.6</ele>
        <time>2024-05-17T09:58:07Z</time>
      </trkpt>
      <trkpt lat="44.62212" lon="5.09969">
        <ele>353.6</ele>
        <time>2024-05-17T09:58:08Z</time>
      </trkpt>
      <trkpt lat="44.62207" lon="5.09971">
        <ele>353.6</ele>
        <time>2024-05-17T09:58:09Z</time>
      </trkpt>
      <trkpt lat="44.62201" lon="5.09972">
        <ele>353.6</ele>
        <time>2024-05-17T09:58:10Z</time>
      </trkpt>
      <trkpt lat="44.62195" lon="5.09972">
        <ele>353.5</ele>
        <time>2024-05-17T09:58:11Z</time>
      </trkpt>
      <trkpt lat="44.6219" lon="5.09972">
        <ele>353.5</ele>
        <time>2024-05-17T09:58:12Z</time>
      </trkpt>
      <trkpt lat="44.62184" lon="5.09971">
        <ele>353.4</ele>
        <time>2024-05-17T09:58:13Z</time>
      </trkpt>
      <trkpt lat="44.62179" lon="5.0997">
        <ele>353.4</ele>
        <time>2024-05-17T09:58:14Z</time>
      </trkpt>
      <trkpt lat="44.62173" lon="5.09968">
        <ele>353.3</ele>
        <time>2024-05-17T09:58:15Z</time>
      </trkpt>
      <trkpt lat="44.62167" lon="5.09967">
        <ele>353.3</ele>
        <time>2024-05-17T09:58:16Z</time>
      </trkpt>
      <trkpt lat="44.62161" lon="5.09965">
        <ele>353.3</ele>
        <time>2024-05-17T09:58:17Z</time>
      </trkpt>
      <trkpt lat="44.62155" lon="5.09964">
        <ele>353.2</ele>
        <time>2024-05-17T09:58:18Z</time>
      </trkpt>
      <trkpt lat="44.62149" lon="5.09963">
        <ele>353.2</ele>
        <time>2024-05-17T09:58:19Z</time>
      </trkpt>
      <trkpt lat="44.62143" lon="5.09962">
        <ele>353.2</ele>
        <time>2024-05-17T09:58:20Z</time>
      </trkpt>
      <trkpt lat="44.62134" lon="5.09961">
        <ele>353.1</ele>
        <time>2024-05-17T09:58:21Z</time>
      </trkpt>
      <trkpt lat="44.62131" lon="5.0996">
        <ele>353.1</ele>
        <time>2024-05-17T09:58:22Z</time>
      </trkpt>
      <trkpt lat="44.62121" lon="5.09958">
        <ele>353.1</ele>
        <time>2024-05-17T09:58:23Z</time>
      </trkpt>
      <trkpt lat="44.62118" lon="5.09958">
        <ele>353.1</ele>
        <time>2024-05-17T09:58:24Z</time>
      </trkpt>
      <trkpt lat="44.62112" lon="5.09956">
        <ele>353.1</ele>
        <time>2024-05-17T09:58:25Z</time>
      </trkpt>
      <trkpt lat="44.62103" lon="5.09954">
        <ele>353.1</ele>
        <time>2024-05-17T09:58:26Z</time>
      </trkpt>
      <trkpt lat="44.621" lon="5.09954">
        <ele>353.1</ele>
        <time>2024-05-17T09:58:27Z</time>
      </trkpt>
      <trkpt lat="44.62091" lon="5.09952">
        <ele>353.1</ele>
        <time>2024-05-17T09:58:28Z</time>
      </trkpt>
      <trkpt lat="44.62088" lon="5.09951">
        <ele>353.1</ele>
        <time>2024-05-17T09:58:29Z</time>
      </trkpt>
      <trkpt lat="44.62078" lon="5.09949">
        <ele>353.2</ele>
        <time>2024-05-17T09:58:30Z</time>
      </trkpt>
      <trkpt lat="44.62075" lon="5.09948">
        <ele>353.2</ele>
        <time>2024-05-17T09:58:31Z</time>
      </trkpt>
      <trkpt lat="44.6207" lon="5.09946">
        <ele>353.2</ele>
        <time>2024-05-17T09:58:32Z</time>
      </trkpt>
      <trkpt lat="44.6206" lon="5.09946">
        <ele>353.2</ele>
        <time>2024-05-17T09:58:33Z</time>
      </trkpt>
      <trkpt lat="44.62057" lon="5.09946">
        <ele>353.3</ele>
        <time>2024-05-17T09:58:34Z</time>
      </trkpt>
      <trkpt lat="44.62051" lon="5.09945">
        <ele>353.3</ele>
        <time>2024-05-17T09:58:35Z</time>
      </trkpt>
      <trkpt lat="44.62045" lon="5.09945">
        <ele>353.3</ele>
        <time>2024-05-17T09:58:36Z</time>
      </trkpt>
      <trkpt lat="44.62039" lon="5.09944">
        <ele>353.4</ele>
        <time>2024-05-17T09:58:37Z</time>
      </trkpt>
      <trkpt lat="44.62033" lon="5.09944">
        <ele>353.4</ele>
        <time>2024-05-17T09:58:38Z</time>
      </trkpt>
      <trkpt lat="44.62027" lon="5.09943">
        <ele>353.4</ele>
        <time>2024-05-17T09:58:39Z</time>
      </trkpt>
      <trkpt lat="44.62021" lon="5.09944">
        <ele>353.4</ele>
        <time>2024-05-17T09:58:40Z</time>
      </trkpt>
      <trkpt lat="44.62015" lon="5.09945">
        <ele>353.4</ele>
        <time>2024-05-17T09:58:41Z</time>
      </trkpt>
      <trkpt lat="44.62009" lon="5.09947">
        <ele>353.5</ele>
        <time>2024-05-17T09:58:42Z</time>
      </trkpt>
      <trkpt lat="44.62003" lon="5.09949">
        <ele>353.5</ele>
        <time>2024-05-17T09:58:43Z</time>
      </trkpt>
      <trkpt lat="44.61998" lon="5.09953">
        <ele>353.6</ele>
        <time>2024-05-17T09:58:44Z</time>
      </trkpt>
      <trkpt lat="44.61992" lon="5.09957">
        <ele>353.6</ele>
        <time>2024-05-17T09:58:45Z</time>
      </trkpt>
      <trkpt lat="44.61986" lon="5.09961">
        <ele>353.7</ele>
        <time>2024-05-17T09:58:46Z</time>
      </trkpt>
      <trkpt lat="44.61981" lon="5.09966">
        <ele>353.7</ele>
        <time>2024-05-17T09:58:47Z</time>
      </trkpt>
      <trkpt lat="44.61976" lon="5.09972">
        <ele>353.8</ele>
        <time>2024-05-17T09:58:48Z</time>
      </trkpt>
      <trkpt lat="44.61972" lon="5.09978">
        <ele>353.8</ele>
        <time>2024-05-17T09:58:49Z</time>
      </trkpt>
      <trkpt lat="44.61967" lon="5.09984">
        <ele>353.9</ele>
        <time>2024-05-17T09:58:50Z</time>
      </trkpt>
      <trkpt lat="44.61963" lon="5.0999">
        <ele>354</ele>
        <time>2024-05-17T09:58:51Z</time>
      </trkpt>
      <trkpt lat="44.61959" lon="5.09997">
        <ele>354</ele>
        <time>2024-05-17T09:58:52Z</time>
      </trkpt>
      <trkpt lat="44.61955" lon="5.10003">
        <ele>354.1</ele>
        <time>2024-05-17T09:58:53Z</time>
      </trkpt>
      <trkpt lat="44.6195" lon="5.1001">
        <ele>354.2</ele>
        <time>2024-05-17T09:58:54Z</time>
      </trkpt>
      <trkpt lat="44.61946" lon="5.10017">
        <ele>354.3</ele>
        <time>2024-05-17T09:58:55Z</time>
      </trkpt>
      <trkpt lat="44.61943" lon="5.10024">
        <ele>354.3</ele>
        <time>2024-05-17T09:58:56Z</time>
      </trkpt>
      <trkpt lat="44.61939" lon="5.1003">
        <ele>354.4</ele>
        <time>2024-05-17T09:58:57Z</time>
      </trkpt>
      <trkpt lat="44.61935" lon="5.10037">
        <ele>354.5</ele>
        <time>2024-05-17T09:58:58Z</time>
      </trkpt>
      <trkpt lat="44.61932" lon="5.10044">
        <ele>354.6</ele>
        <time>2024-05-17T09:58:59Z</time>
      </trkpt>
      <trkpt lat="44.61927" lon="5.10054">
        <ele>354.7</ele>
        <time>2024-05-17T09:59:00Z</time>
      </trkpt>
      <trkpt lat="44.61926" lon="5.10058">
        <ele>354.7</ele>
        <time>2024-05-17T09:59:01Z</time>
      </trkpt>
      <trkpt lat="44.61921" lon="5.10068">
        <ele>354.8</ele>
        <time>2024-05-17T09:59:02Z</time>
      </trkpt>
      <trkpt lat="44.61919" lon="5.10071">
        <ele>354.9</ele>
        <time>2024-05-17T09:59:03Z</time>
      </trkpt>
      <trkpt lat="44.61914" lon="5.1008">
        <ele>355.1</ele>
        <time>2024-05-17T09:59:04Z</time>
      </trkpt>
      <trkpt lat="44.61912" lon="5.10083">
        <ele>355.1</ele>
        <time>2024-05-17T09:59:05Z</time>
      </trkpt>
      <trkpt lat="44.61907" lon="5.10091">
        <ele>355.3</ele>
        <time>2024-05-17T09:59:06Z</time>
      </trkpt>
      <trkpt lat="44.61905" lon="5.10094">
        <ele>355.4</ele>
        <time>2024-05-17T09:59:07Z</time>
      </trkpt>
      <trkpt lat="44.61901" lon="5.101">
        <ele>355.5</ele>
        <time>2024-05-17T09:59:08Z</time>
      </trkpt>
      <trkpt lat="44.61895" lon="5.10109">
        <ele>355.7</ele>
        <time>2024-05-17T09:59:09Z</time>
      </trkpt>
      <trkpt lat="44.61893" lon="5.10111">
        <ele>355.7</ele>
        <time>2024-05-17T09:59:10Z</time>
      </trkpt>
      <trkpt lat="44.61886" lon="5.10119">
        <ele>355.8</ele>
        <time>2024-05-17T09:59:11Z</time>
      </trkpt>
      <trkpt lat="44.61884" lon="5.10121">
        <ele>355.9</ele>
        <time>2024-05-17T09:59:12Z</time>
      </trkpt>
      <trkpt lat="44.61877" lon="5.10128">
        <ele>355.9</ele>
        <time>2024-05-17T09:59:13Z</time>
      </trkpt>
      <trkpt lat="44.61874" lon="5.1013">
        <ele>355.9</ele>
        <time>2024-05-17T09:59:14Z</time>
      </trkpt>
      <trkpt lat="44.61869" lon="5.10134">
        <ele>356</ele>
        <time>2024-05-17T09:59:15Z</time>
      </trkpt>
      <trkpt lat="44.61861" lon="5.1014">
        <ele>356.1</ele>
        <time>2024-05-17T09:59:16Z</time>
      </trkpt>
      <trkpt lat="44.61858" lon="5.10141">
        <ele>356.1</ele>
        <time>2024-05-17T09:59:17Z</time>
      </trkpt>
      <trkpt lat="44.61853" lon="5.10144">
        <ele>356.2</ele>
        <time>2024-05-17T09:59:18Z</time>
      </trkpt>
      <trkpt lat="44.61847" lon="5.10146">
        <ele>356.2</ele>
        <time>2024-05-17T09:59:19Z</time>
      </trkpt>
      <trkpt lat="44.61842" lon="5.10148">
        <ele>356.3</ele>
        <time>2024-05-17T09:59:20Z</time>
      </trkpt>
      <trkpt lat="44.61836" lon="5.10149">
        <ele>356.3</ele>
        <time>2024-05-17T09:59:21Z</time>
      </trkpt>
      <trkpt lat="44.6183" lon="5.1015">
        <ele>356.3</ele>
        <time>2024-05-17T09:59:22Z</time>
      </trkpt>
      <trkpt lat="44.61825" lon="5.10152">
        <ele>356.4</ele>
        <time>2024-05-17T09:59:23Z</time>
      </trkpt>
      <trkpt lat="44.61819" lon="5.10153">
        <ele>356.4</ele>
        <time>2024-05-17T09:59:24Z</time>
      </trkpt>
      <trkpt lat="44.61814" lon="5.10154">
        <ele>356.5</ele>
        <time>2024-05-17T09:59:25Z</time>
      </trkpt>
      <trkpt lat="44.61808" lon="5.10155">
        <ele>356.5</ele>
        <time>2024-05-17T09:59:26Z</time>
      </trkpt>
      <trkpt lat="44.61803" lon="5.10156">
        <ele>356.6</ele>
        <time>2024-05-17T09:59:27Z</time>
      </trkpt>
      <trkpt lat="44.61798" lon="5.10158">
        <ele>356.6</ele>
        <time>2024-05-17T09:59:28Z</time>
      </trkpt>
      <trkpt lat="44.61792" lon="5.10159">
        <ele>356.7</ele>
        <time>2024-05-17T09:59:29Z</time>
      </trkpt>
      <trkpt lat="44.61787" lon="5.10161">
        <ele>356.8</ele>
        <time>2024-05-17T09:59:30Z</time>
      </trkpt>
      <trkpt lat="44.61782" lon="5.10162">
        <ele>356.8</ele>
        <time>2024-05-17T09:59:31Z</time>
      </trkpt>
      <trkpt lat="44.61777" lon="5.10164">
        <ele>356.9</ele>
        <time>2024-05-17T09:59:32Z</time>
      </trkpt>
      <trkpt lat="44.61772" lon="5.10165">
        <ele>357</ele>
        <time>2024-05-17T09:59:33Z</time>
      </trkpt>
      <trkpt lat="44.61767" lon="5.10167">
        <ele>357</ele>
        <time>2024-05-17T09:59:34Z</time>
      </trkpt>
      <trkpt lat="44.61762" lon="5.10168">
        <ele>357.1</ele>
        <time>2024-05-17T09:59:35Z</time>
      </trkpt>
      <trkpt lat="44.61757" lon="5.10169">
        <ele>357.2</ele>
        <time>2024-05-17T09:59:36Z</time>
      </trkpt>
      <trkpt lat="44.61751" lon="5.10171">
        <ele>357.2</ele>
        <time>2024-05-17T09:59:37Z</time>
      </trkpt>
      <trkpt lat="44.61746" lon="5.10173">
        <ele>357.3</ele>
        <time>2024-05-17T09:59:38Z</time>
      </trkpt>
      <trkpt lat="44.61741" lon="5.10175">
        <ele>357.4</ele>
        <time>2024-05-17T09:59:39Z</time>
      </trkpt>
      <trkpt lat="44.61736" lon="5.10177">
        <ele>357.4</ele>
        <time>2024-05-17T09:59:40Z</time>
      </trkpt>
      <trkpt lat="44.6173" lon="5.10178">
        <ele>357.5</ele>
        <time>2024-05-17T09:59:41Z</time>
      </trkpt>
      <trkpt lat="44.61722" lon="5.10183">
        <ele>357.7</ele>
        <time>2024-05-17T09:59:42Z</time>
      </trkpt>
      <trkpt lat="44.61719" lon="5.10184">
        <ele>357.7</ele>
        <time>2024-05-17T09:59:43Z</time>
      </trkpt>
      <trkpt lat="44.61712" lon="5.10189">
        <ele>357.9</ele>
        <time>2024-05-17T09:59:44Z</time>
      </trkpt>
      <trkpt lat="44.61709" lon="5.10191">
        <ele>357.9</ele>
        <time>2024-05-17T09:59:45Z</time>
      </trkpt>
      <trkpt lat="44.61701" lon="5.10196">
        <ele>358.1</ele>
        <time>2024-05-17T09:59:46Z</time>
      </trkpt>
      <trkpt lat="44.61699" lon="5.10198">
        <ele>358.1</ele>
        <time>2024-05-17T09:59:47Z</time>
      </trkpt>
      <trkpt lat="44.61692" lon="5.10204">
        <ele>358.3</ele>
        <time>2024-05-17T09:59:48Z</time>
      </trkpt>
      <trkpt lat="44.61689" lon="5.10207">
        <ele>358.3</ele>
        <time>2024-05-17T09:59:49Z</time>
      </trkpt>
      <trkpt lat="44.61685" lon="5.10212">
        <ele>358.4</ele>
        <time>2024-05-17T09:59:50Z</time>
      </trkpt>
      <trkpt lat="44.61679" lon="5.10221">
        <ele>358.6</ele>
        <time>2024-05-17T09:59:51Z</time>
      </trkpt>
      <trkpt lat="44.61677" lon="5.10225">
        <ele>358.7</ele>
        <time>2024-05-17T09:59:52Z</time>
      </trkpt>
      <trkpt lat="44.61671" lon="5.10235">
        <ele>358.9</ele>
        <time>2024-05-17T09:59:53Z</time>
      </trkpt>
      <trkpt lat="44.6167" lon="5.10238">
        <ele>359</ele>
        <time>2024-05-17T09:59:54Z</time>
      </trkpt>
      <trkpt lat="44.61665" lon="5.10249">
        <ele>359.1</ele>
        <time>2024-05-17T09:59:55Z</time>
      </trkpt>
      <trkpt lat="44.61664" lon="5.10252">
        <ele>359.2</ele>
        <time>2024-05-17T09:59:56Z</time>
      </trkpt>
      <trkpt lat="44.61661" lon="5.1026">
        <ele>359.3</ele>
        <time>2024-05-17T09:59:57Z</time>
      </trkpt>
      <trkpt lat="44.61658" lon="5.10271">
        <ele>359.5</ele>
        <time>2024-05-17T09:59:58Z</time>
      </trkpt>
      <trkpt lat="44.61657" lon="5.10274">
        <ele>359.6</ele>
        <time>2024-05-17T09:59:59Z</time>
      </trkpt>
      <trkpt lat="44.61656" lon="5.10282">
        <ele>359.6</ele>
        <time>2024-05-17T10:00:00Z</time>
      </trkpt>
      <trkpt lat="44.61655" lon="5.1029">
        <ele>359.7</ele>
        <time>2024-05-17T10:00:01Z</time>
      </trkpt>
      <trkpt lat="44.61654" lon="5.10297">
        <ele>359.8</ele>
        <time>2024-05-17T10:00:02Z</time>
      </trkpt>
      <trkpt lat="44.61652" lon="5.10305">
        <ele>359.9</ele>
        <time>2024-05-17T10:00:03Z</time>
      </trkpt>
      <trkpt lat="44.61651" lon="5.10313">
        <ele>359.9</ele>
        <time>2024-05-17T10:00:04Z</time>
      </trkpt>
      <trkpt lat="44.6165" lon="5.10321">
        <ele>360</ele>
        <time>2024-05-17T10:00:05Z</time>
      </trkpt>
      <trkpt lat="44.61649" lon="5.10329">
        <ele>360.1</ele>
        <time>2024-05-17T10:00:06Z</time>
      </trkpt>
      <trkpt lat="44.61648" lon="5.10337">
        <ele>360.2</ele>
        <time>2024-05-17T10:00:07Z</time>
      </trkpt>
      <trkpt lat="44.61647" lon="5.10345">
        <ele>360.2</ele>
        <time>2024-05-17T10:00:08Z</time>
      </trkpt>
      <trkpt lat="44.61646" lon="5.10353">
        <ele>360.3</ele>
        <time>2024-05-17T10:00:09Z</time>
      </trkpt>
      <trkpt lat="44.61644" lon="5.1036">
        <ele>360.4</ele>
        <time>2024-05-17T10:00:10Z</time>
      </trkpt>
      <trkpt lat="44.61641" lon="5.10368">
        <ele>360.5</ele>
        <time>2024-05-17T10:00:11Z</time>
      </trkpt>
      <trkpt lat="44.61639" lon="5.10375">
        <ele>360.6</ele>
        <time>2024-05-17T10:00:12Z</time>
      </trkpt>
      <trkpt lat="44.61636" lon="5.10382">
        <ele>360.7</ele>
        <time>2024-05-17T10:00:13Z</time>
      </trkpt>
      <trkpt lat="44.61631" lon="5.10392">
        <ele>360.8</ele>
        <time>2024-05-17T10:00:14Z</time>
      </trkpt>
      <trkpt lat="44.6163" lon="5.10396">
        <ele>360.8</ele>
        <time>2024-05-17T10:00:15Z</time>
      </trkpt>
      <trkpt lat="44.61627" lon="5.10402">
        <ele>360.9</ele>
        <time>2024-05-17T10:00:16Z</time>
      </trkpt>
      <trkpt lat="44.61623" lon="5.10408">
        <ele>360.9</ele>
        <time>2024-05-17T10:00:17Z</time>
      </trkpt>
      <trkpt lat="44.6162" lon="5.10414">
        <ele>361</ele>
        <time>2024-05-17T10:00:18Z</time>
      </trkpt>
      <trkpt lat="44.61617" lon="5.10421">
        <ele>361</ele>
        <time>2024-05-17T10:00:19Z</time>
      </trkpt>
      <trkpt lat="44.61614" lon="5.10427">
        <ele>361.1</ele>
        <time>2024-05-17T10:00:20Z</time>
      </trkpt>
      <trkpt lat="44.61611" lon="5.10433">
        <ele>361.1</ele>
        <time>2024-05-17T10:00:21Z</time>
      </trkpt>
      <trkpt lat="44.61608" lon="5.10439">
        <ele>361.2</ele>
        <time>2024-05-17T10:00:22Z</time>
      </trkpt>
      <trkpt lat="44.61604" lon="5.10445">
        <ele>361.3</ele>
        <time>2024-05-17T10:00:23Z</time>
      </trkpt>
      <trkpt lat="44.61601" lon="5.10451">
        <ele>361.3</ele>
        <time>2024-05-17T10:00:24Z</time>
      </trkpt>
      <trkpt lat="44.61596" lon="5.1046">
        <ele>361.4</ele>
        <time>2024-05-17T10:00:25Z</time>
      </trkpt>
      <trkpt lat="44.61594" lon="5.10463">
        <ele>361.5</ele>
        <time>2024-05-17T10:00:26Z</time>
      </trkpt>
      <trkpt lat="44.6159" lon="5.10472">
        <ele>361.5</ele>
        <time>2024-05-17T10:00:27Z</time>
      </trkpt>
      <trkpt lat="44.61588" lon="5.10476">
        <ele>361.6</ele>
        <time>2024-05-17T10:00:28Z</time>
      </trkpt>
      <trkpt lat="44.61584" lon="5.10486">
        <ele>361.7</ele>
        <time>2024-05-17T10:00:29Z</time>
      </trkpt>
      <trkpt lat="44.61582" lon="5.10489">
        <ele>361.7</ele>
        <time>2024-05-17T10:00:30Z</time>
      </trkpt>
      <trkpt lat="44.61579" lon="5.10501">
        <ele>361.8</ele>
        <time>2024-05-17T10:00:31Z</time>
      </trkpt>
      <trkpt lat="44.61578" lon="5.10504">
        <ele>361.8</ele>
        <time>2024-05-17T10:00:32Z</time>
      </trkpt>
      <trkpt lat="44.61575" lon="5.10515">
        <ele>361.9</ele>
        <time>2024-05-17T10:00:33Z</time>
      </trkpt>
      <trkpt lat="44.61574" lon="5.10519">
        <ele>361.9</ele>
        <time>2024-05-17T10:00:34Z</time>
      </trkpt>
      <trkpt lat="44.61572" lon="5.10526">
        <ele>362</ele>
        <time>2024-05-17T10:00:35Z</time>
      </trkpt>
      <trkpt lat="44.6157" lon="5.10538">
        <ele>362</ele>
        <time>2024-05-17T10:00:36Z</time>
      </trkpt>
      <trkpt lat="44.6157" lon="5.10542">
        <ele>362</ele>
        <time>2024-05-17T10:00:37Z</time>
      </trkpt>
      <trkpt lat="44.61568" lon="5.10554">
        <ele>362.1</ele>
        <time>2024-05-17T10:00:38Z</time>
      </trkpt>
      <trkpt lat="44.61567" lon="5.10558">
        <ele>362.1</ele>
        <time>2024-05-17T10:00:39Z</time>
      </trkpt>
      <trkpt lat="44.61566" lon="5.10566">
        <ele>362.2</ele>
        <time>2024-05-17T10:00:40Z</time>
      </trkpt>
      <trkpt lat="44.61565" lon="5.10577">
        <ele>362.3</ele>
        <time>2024-05-17T10:00:41Z</time>
      </trkpt>
      <trkpt lat="44.61565" lon="5.10581">
        <ele>362.3</ele>
        <time>2024-05-17T10:00:42Z</time>
      </trkpt>
      <trkpt lat="44.61564" lon="5.10589">
        <ele>362.4</ele>
        <time>2024-05-17T10:00:43Z</time>
      </trkpt>
      <trkpt lat="44.61563" lon="5.10597">
        <ele>362.5</ele>
        <time>2024-05-17T10:00:44Z</time>
      </trkpt>
      <trkpt lat="44.61561" lon="5.10605">
        <ele>362.6</ele>
        <time>2024-05-17T10:00:45Z</time>
      </trkpt>
      <trkpt lat="44.6156" lon="5.10613">
        <ele>362.7</ele>
        <time>2024-05-17T10:00:46Z</time>
      </trkpt>
      <trkpt lat="44.61559" lon="5.1062">
        <ele>362.7</ele>
        <time>2024-05-17T10:00:47Z</time>
      </trkpt>
      <trkpt lat="44.61558" lon="5.10627">
        <ele>362.8</ele>
        <time>2024-05-17T10:00:48Z</time>
      </trkpt>
      <trkpt lat="44.61556" lon="5.10635">
        <ele>362.9</ele>
        <time>2024-05-17T10:00:49Z</time>
      </trkpt>
      <trkpt lat="44.61555" lon="5.10642">
        <ele>363</ele>
        <time>2024-05-17T10:00:50Z</time>
      </trkpt>
      <trkpt lat="44.61553" lon="5.10653">
        <ele>363</ele>
        <time>2024-05-17T10:00:51Z</time>
      </trkpt>
      <trkpt lat="44.61552" lon="5.10657">
        <ele>363.1</ele>
        <time>2024-05-17T10:00:52Z</time>
      </trkpt>
      <trkpt lat="44.6155" lon="5.10664">
        <ele>363.1</ele>
        <time>2024-05-17T10:00:53Z</time>
      </trkpt>
      <trkpt lat="44.61548" lon="5.10672">
        <ele>363.1</ele>
        <time>2024-05-17T10:00:54Z</time>
      </trkpt>
      <trkpt lat="44.61546" lon="5.1068">
        <ele>363.1</ele>
        <time>2024-05-17T10:00:55Z</time>
      </trkpt>
      <trkpt lat="44.61544" lon="5.10688">
        <ele>363.1</ele>
        <time>2024-05-17T10:00:56Z</time>
      </trkpt>
      <trkpt lat="44.61542" lon="5.10695">
        <ele>363</ele>
        <time>2024-05-17T10:00:57Z</time>
      </trkpt>
      <trkpt lat="44.61539" lon="5.10703">
        <ele>363</ele>
        <time>2024-05-17T10:00:58Z</time>
      </trkpt>
      <trkpt lat="44.61537" lon="5.1071">
        <ele>363</ele>
        <time>2024-05-17T10:00:59Z</time>
      </trkpt>
      <trkpt lat="44.61534" lon="5.10718">
        <ele>363</ele>
        <time>2024-05-17T10:01:00Z</time>
      </trkpt>
      <trkpt lat="44.61529" lon="5.10729">
        <ele>362.9</ele>
        <time>2024-05-17T10:01:01Z</time>
      </trkpt>
      <trkpt lat="44.61528" lon="5.10732">
        <ele>362.9</ele>
        <time>2024-05-17T10:01:02Z</time>
      </trkpt>
      <trkpt lat="44.61525" lon="5.1074">
        <ele>362.9</ele>
        <time>2024-05-17T10:01:03Z</time>
      </trkpt>
      <trkpt lat="44.61522" lon="5.10747">
        <ele>362.9</ele>
        <time>2024-05-17T10:01:04Z</time>
      </trkpt>
      <trkpt lat="44.61519" lon="5.10755">
        <ele>362.8</ele>
        <time>2024-05-17T10:01:05Z</time>
      </trkpt>
      <trkpt lat="44.61516" lon="5.10762">
        <ele>362.8</ele>
        <time>2024-05-17T10:01:06Z</time>
      </trkpt>
      <trkpt lat="44.61513" lon="5.10769">
        <ele>362.8</ele>
        <time>2024-05-17T10:01:07Z</time>
      </trkpt>
      <trkpt lat="44.6151" lon="5.10776">
        <ele>362.8</ele>
        <time>2024-05-17T10:01:08Z</time>
      </trkpt>
      <trkpt lat="44.61507" lon="5.10784">
        <ele>362.8</ele>
        <time>2024-05-17T10:01:09Z</time>
      </trkpt>
      <trkpt lat="44.61503" lon="5.10794">
        <ele>362.8</ele>
        <time>2024-05-17T10:01:10Z</time>
      </trkpt>
      <trkpt lat="44.61501" lon="5.10798">
        <ele>362.9</ele>
        <time>2024-05-17T10:01:11Z</time>
      </trkpt>
      <trkpt lat="44.61498" lon="5.10805">
        <ele>362.9</ele>
        <time>2024-05-17T10:01:12Z</time>
      </trkpt>
      <trkpt lat="44.61494" lon="5.10816">
        <ele>363</ele>
        <time>2024-05-17T10:01:13Z</time>
      </trkpt>
      <trkpt lat="44.61492" lon="5.1082">
        <ele>363</ele>
        <time>2024-05-17T10:01:14Z</time>
      </trkpt>
      <trkpt lat="44.61488" lon="5.10831">
        <ele>363.1</ele>
        <time>2024-05-17T10:01:15Z</time>
      </trkpt>
      <trkpt lat="44.61486" lon="5.10835">
        <ele>363.2</ele>
        <time>2024-05-17T10:01:16Z</time>
      </trkpt>
      <trkpt lat="44.61483" lon="5.10842">
        <ele>363.3</ele>
        <time>2024-05-17T10:01:17Z</time>
      </trkpt>
      <trkpt lat="44.61479" lon="5.10853">
        <ele>363.6</ele>
        <time>2024-05-17T10:01:18Z</time>
      </trkpt>
      <trkpt lat="44.61477" lon="5.10856">
        <ele>363.6</ele>
        <time>2024-05-17T10:01:19Z</time>
      </trkpt>
      <trkpt lat="44.61473" lon="5.10866">
        <ele>363.9</ele>
        <time>2024-05-17T10:01:20Z</time>
      </trkpt>
      <trkpt lat="44.61471" lon="5.1087">
        <ele>363.9</ele>
        <time>2024-05-17T10:01:21Z</time>
      </trkpt>
      <trkpt lat="44.61466" lon="5.1088">
        <ele>364.2</ele>
        <time>2024-05-17T10:01:22Z</time>
      </trkpt>
      <trkpt lat="44.61465" lon="5.10883">
        <ele>364.3</ele>
        <time>2024-05-17T10:01:23Z</time>
      </trkpt>
      <trkpt lat="44.61461" lon="5.10889">
        <ele>364.5</ele>
        <time>2024-05-17T10:01:24Z</time>
      </trkpt>
      <trkpt lat="44.61455" lon="5.10898">
        <ele>364.8</ele>
        <time>2024-05-17T10:01:25Z</time>
      </trkpt>
      <trkpt lat="44.61453" lon="5.109">
        <ele>364.9</ele>
        <time>2024-05-17T10:01:26Z</time>
      </trkpt>
      <trkpt lat="44.6145" lon="5.10906">
        <ele>365.1</ele>
        <time>2024-05-17T10:01:27Z</time>
      </trkpt>
      <trkpt lat="44.61446" lon="5.10911">
        <ele>365.3</ele>
        <time>2024-05-17T10:01:28Z</time>
      </trkpt>
      <trkpt lat="44.61442" lon="5.10916">
        <ele>365.6</ele>
        <time>2024-05-17T10:01:29Z</time>
      </trkpt>
      <trkpt lat="44.61438" lon="5.1092">
        <ele>365.8</ele>
        <time>2024-05-17T10:01:30Z</time>
      </trkpt>
      <trkpt lat="44.61433" lon="5.10924">
        <ele>366.1</ele>
        <time>2024-05-17T10:01:31Z</time>
      </trkpt>
      <trkpt lat="44.61429" lon="5.10928">
        <ele>366.3</ele>
        <time>2024-05-17T10:01:32Z</time>
      </trkpt>
      <trkpt lat="44.61425" lon="5.10931">
        <ele>366.5</ele>
        <time>2024-05-17T10:01:33Z</time>
      </trkpt>
      <trkpt lat="44.6142" lon="5.10934">
        <ele>366.8</ele>
        <time>2024-05-17T10:01:34Z</time>
      </trkpt>
      <trkpt lat="44.61416" lon="5.10938">
        <ele>367</ele>
        <time>2024-05-17T10:01:35Z</time>
      </trkpt>
      <trkpt lat="44.61412" lon="5.10941">
        <ele>367.2</ele>
        <time>2024-05-17T10:01:36Z</time>
      </trkpt>
      <trkpt lat="44.61408" lon="5.10944">
        <ele>367.4</ele>
        <time>2024-05-17T10:01:37Z</time>
      </trkpt>
      <trkpt lat="44.61404" lon="5.10948">
        <ele>367.5</ele>
        <time>2024-05-17T10:01:38Z</time>
      </trkpt>
      <trkpt lat="44.614" lon="5.10951">
        <ele>367.7</ele>
        <time>2024-05-17T10:01:39Z</time>
      </trkpt>
      <trkpt lat="44.61396" lon="5.10954">
        <ele>367.8</ele>
        <time>2024-05-17T10:01:40Z</time>
      </trkpt>
      <trkpt lat="44.61392" lon="5.10957">
        <ele>367.9</ele>
        <time>2024-05-17T10:01:41Z</time>
      </trkpt>
      <trkpt lat="44.61388" lon="5.10961">
        <ele>368</ele>
        <time>2024-05-17T10:01:42Z</time>
      </trkpt>
      <trkpt lat="44.61384" lon="5.10965">
        <ele>368.1</ele>
        <time>2024-05-17T10:01:43Z</time>
      </trkpt>
      <trkpt lat="44.6138" lon="5.10969">
        <ele>368.1</ele>
        <time>2024-05-17T10:01:44Z</time>
      </trkpt>
      <trkpt lat="44.61376" lon="5.10973">
        <ele>368.2</ele>
        <time>2024-05-17T10:01:45Z</time>
      </trkpt>
      <trkpt lat="44.61373" lon="5.10977">
        <ele>368.2</ele>
        <time>2024-05-17T10:01:46Z</time>
      </trkpt>
      <trkpt lat="44.61368" lon="5.10984">
        <ele>368.3</ele>
        <time>2024-05-17T10:01:47Z</time>
      </trkpt>
      <trkpt lat="44.61366" lon="5.10986">
        <ele>368.3</ele>
        <time>2024-05-17T10:01:48Z</time>
      </trkpt>
      <trkpt lat="44.61363" lon="5.10991">
        <ele>368.4</ele>
        <time>2024-05-17T10:01:49Z</time>
      </trkpt>
      <trkpt lat="44.61359" lon="5.10996">
        <ele>368.4</ele>
        <time>2024-05-17T10:01:50Z</time>
      </trkpt>
      <trkpt lat="44.61356" lon="5.11001">
        <ele>368.4</ele>
        <time>2024-05-17T10:01:51Z</time>
      </trkpt>
      <trkpt lat="44.61351" lon="5.11009">
        <ele>368.4</ele>
        <time>2024-05-17T10:01:52Z</time>
      </trkpt>
      <trkpt lat="44.61349" lon="5.11012">
        <ele>368.4</ele>
        <time>2024-05-17T10:01:53Z</time>
      </trkpt>
      <trkpt lat="44.61344" lon="5.11021">
        <ele>368.4</ele>
        <time>2024-05-17T10:01:54Z</time>
      </trkpt>
      <trkpt lat="44.61343" lon="5.11024">
        <ele>368.3</ele>
        <time>2024-05-17T10:01:55Z</time>
      </trkpt>
      <trkpt lat="44.61337" lon="5.11033">
        <ele>368.2</ele>
        <time>2024-05-17T10:01:56Z</time>
      </trkpt>
      <trkpt lat="44.61335" lon="5.11036">
        <ele>368.2</ele>
        <time>2024-05-17T10:01:57Z</time>
      </trkpt>
      <trkpt lat="44.6133" lon="5.11046">
        <ele>368.2</ele>
        <time>2024-05-17T10:01:58Z</time>
      </trkpt>
      <trkpt lat="44.61328" lon="5.11049">
        <ele>368.2</ele>
        <time>2024-05-17T10:01:59Z</time>
      </trkpt>
      <trkpt lat="44.61323" lon="5.11055">
        <ele>368.1</ele>
        <time>2024-05-17T10:02:00Z</time>
      </trkpt>
      <trkpt lat="44.61317" lon="5.11064">
        <ele>368.1</ele>
        <time>2024-05-17T10:02:01Z</time>
      </trkpt>
      <trkpt lat="44.61314" lon="5.11067">
        <ele>368.1</ele>
        <time>2024-05-17T10:02:02Z</time>
      </trkpt>
      <trkpt lat="44.61306" lon="5.11076">
        <ele>368</ele>
        <time>2024-05-17T10:02:03Z</time>
      </trkpt>
      <trkpt lat="44.61303" lon="5.11079">
        <ele>368</ele>
        <time>2024-05-17T10:02:04Z</time>
      </trkpt>
      <trkpt lat="44.61295" lon="5.11086">
        <ele>368</ele>
        <time>2024-05-17T10:02:05Z</time>
      </trkpt>
      <trkpt lat="44.61292" lon="5.11088">
        <ele>368</ele>
        <time>2024-05-17T10:02:06Z</time>
      </trkpt>
      <trkpt lat="44.61287" lon="5.11093">
        <ele>368.1</ele>
        <time>2024-05-17T10:02:07Z</time>
      </trkpt>
      <trkpt lat="44.61279" lon="5.111">
        <ele>368.1</ele>
        <time>2024-05-17T10:02:08Z</time>
      </trkpt>
      <trkpt lat="44.61277" lon="5.11102">
        <ele>368.1</ele>
        <time>2024-05-17T10:02:09Z</time>
      </trkpt>
      <trkpt lat="44.61272" lon="5.11107">
        <ele>368.1</ele>
        <time>2024-05-17T10:02:10Z</time>
      </trkpt>
      <trkpt lat="44.61267" lon="5.11112">
        <ele>368.2</ele>
        <time>2024-05-17T10:02:11Z</time>
      </trkpt>
      <trkpt lat="44.61263" lon="5.11118">
        <ele>368.2</ele>
        <time>2024-05-17T10:02:12Z</time>
      </trkpt>
      <trkpt lat="44.61258" lon="5.11123">
        <ele>368.3</ele>
        <time>2024-05-17T10:02:13Z</time>
      </trkpt>
      <trkpt lat="44.61254" lon="5.11129">
        <ele>368.3</ele>
        <time>2024-05-17T10:02:14Z</time>
      </trkpt>
      <trkpt lat="44.6125" lon="5.11135">
        <ele>368.4</ele>
        <time>2024-05-17T10:02:15Z</time>
      </trkpt>
      <trkpt lat="44.61246" lon="5.11141">
        <ele>368.5</ele>
        <time>2024-05-17T10:02:16Z</time>
      </trkpt>
      <trkpt lat="44.61242" lon="5.11147">
        <ele>368.5</ele>
        <time>2024-05-17T10:02:17Z</time>
      </trkpt>
      <trkpt lat="44.61238" lon="5.11152">
        <ele>368.6</ele>
        <time>2024-05-17T10:02:18Z</time>
      </trkpt>
      <trkpt lat="44.61234" lon="5.11158">
        <ele>368.6</ele>
        <time>2024-05-17T10:02:19Z</time>
      </trkpt>
      <trkpt lat="44.6123" lon="5.11163">
        <ele>368.7</ele>
        <time>2024-05-17T10:02:20Z</time>
      </trkpt>
      <trkpt lat="44.61226" lon="5.11169">
        <ele>368.7</ele>
        <time>2024-05-17T10:02:21Z</time>
      </trkpt>
      <trkpt lat="44.61222" lon="5.11175">
        <ele>368.8</ele>
        <time>2024-05-17T10:02:22Z</time>
      </trkpt>
      <trkpt lat="44.61218" lon="5.11181">
        <ele>368.9</ele>
        <time>2024-05-17T10:02:23Z</time>
      </trkpt>
      <trkpt lat="44.61212" lon="5.11189">
        <ele>368.9</ele>
        <time>2024-05-17T10:02:24Z</time>
      </trkpt>
      <trkpt lat="44.61209" lon="5.11191">
        <ele>369</ele>
        <time>2024-05-17T10:02:25Z</time>
      </trkpt>
      <trkpt lat="44.61205" lon="5.11196">
        <ele>369</ele>
        <time>2024-05-17T10:02:26Z</time>
      </trkpt>
      <trkpt lat="44.612" lon="5.11202">
        <ele>369.1</ele>
        <time>2024-05-17T10:02:27Z</time>
      </trkpt>
      <trkpt lat="44.61196" lon="5.11206">
        <ele>369.1</ele>
        <time>2024-05-17T10:02:28Z</time>
      </trkpt>
      <trkpt lat="44.61191" lon="5.11211">
        <ele>369.2</ele>
        <time>2024-05-17T10:02:29Z</time>
      </trkpt>
      <trkpt lat="44.61186" lon="5.11215">
        <ele>369.3</ele>
        <time>2024-05-17T10:02:30Z</time>
      </trkpt>
      <trkpt lat="44.61181" lon="5.11219">
        <ele>369.3</ele>
        <time>2024-05-17T10:02:31Z</time>
      </trkpt>
      <trkpt lat="44.61175" lon="5.11222">
        <ele>369.4</ele>
        <time>2024-05-17T10:02:32Z</time>
      </trkpt>
      <trkpt lat="44.6117" lon="5.11225">
        <ele>369.4</ele>
        <time>2024-05-17T10:02:33Z</time>
      </trkpt>
      <trkpt lat="44.61165" lon="5.11228">
        <ele>369.5</ele>
        <time>2024-05-17T10:02:34Z</time>
      </trkpt>
      <trkpt lat="44.61156" lon="5.11231">
        <ele>369.6</ele>
        <time>2024-05-17T10:02:35Z</time>
      </trkpt>
      <trkpt lat="44.61154" lon="5.11232">
        <ele>369.6</ele>
        <time>2024-05-17T10:02:36Z</time>
      </trkpt>
      <trkpt lat="44.61148" lon="5.11234">
        <ele>369.6</ele>
        <time>2024-05-17T10:02:37Z</time>
      </trkpt>
      <trkpt lat="44.61143" lon="5.11237">
        <ele>369.7</ele>
        <time>2024-05-17T10:02:38Z</time>
      </trkpt>
      <trkpt lat="44.61134" lon="5.1124">
        <ele>369.8</ele>
        <time>2024-05-17T10:02:39Z</time>
      </trkpt>
      <trkpt lat="44.61131" lon="5.11241">
        <ele>369.8</ele>
        <time>2024-05-17T10:02:40Z</time>
      </trkpt>
      <trkpt lat="44.61123" lon="5.11245">
        <ele>369.9</ele>
        <time>2024-05-17T10:02:41Z</time>
      </trkpt>
      <trkpt lat="44.6112" lon="5.11246">
        <ele>369.9</ele>
        <time>2024-05-17T10:02:42Z</time>
      </trkpt>
      <trkpt lat="44.61111" lon="5.11249">
        <ele>370</ele>
        <time>2024-05-17T10:02:43Z</time>
      </trkpt>
      <trkpt lat="44.61109" lon="5.11251">
        <ele>370</ele>
        <time>2024-05-17T10:02:44Z</time>
      </trkpt>
      <trkpt lat="44.61103" lon="5.11253">
        <ele>370.1</ele>
        <time>2024-05-17T10:02:45Z</time>
      </trkpt>
      <trkpt lat="44.61095" lon="5.11256">
        <ele>370.2</ele>
        <time>2024-05-17T10:02:46Z</time>
      </trkpt>
      <trkpt lat="44.61092" lon="5.11257">
        <ele>370.2</ele>
        <time>2024-05-17T10:02:47Z</time>
      </trkpt>
      <trkpt lat="44.61084" lon="5.1126">
        <ele>370.3</ele>
        <time>2024-05-17T10:02:48Z</time>
      </trkpt>
      <trkpt lat="44.61081" lon="5.11261">
        <ele>370.3</ele>
        <time>2024-05-17T10:02:49Z</time>
      </trkpt>
      <trkpt lat="44.61073" lon="5.11265">
        <ele>370.4</ele>
        <time>2024-05-17T10:02:50Z</time>
      </trkpt>
      <trkpt lat="44.6107" lon="5.11266">
        <ele>370.5</ele>
        <time>2024-05-17T10:02:51Z</time>
      </trkpt>
      <trkpt lat="44.61065" lon="5.11268">
        <ele>370.5</ele>
        <time>2024-05-17T10:02:52Z</time>
      </trkpt>
      <trkpt lat="44.61057" lon="5.11272">
        <ele>370.6</ele>
        <time>2024-05-17T10:02:53Z</time>
      </trkpt>
      <trkpt lat="44.61054" lon="5.11272">
        <ele>370.6</ele>
        <time>2024-05-17T10:02:54Z</time>
      </trkpt>
      <trkpt lat="44.61049" lon="5.11274">
        <ele>370.7</ele>
        <time>2024-05-17T10:02:55Z</time>
      </trkpt>
      <trkpt lat="44.61043" lon="5.11276">
        <ele>370.8</ele>
        <time>2024-05-17T10:02:56Z</time>
      </trkpt>
      <trkpt lat="44.61038" lon="5.11278">
        <ele>370.8</ele>
        <time>2024-05-17T10:02:57Z</time>
      </trkpt>
      <trkpt lat="44.61033" lon="5.1128">
        <ele>370.9</ele>
        <time>2024-05-17T10:02:58Z</time>
      </trkpt>
      <trkpt lat="44.61027" lon="5.11283">
        <ele>371</ele>
        <time>2024-05-17T10:02:59Z</time>
      </trkpt>
      <trkpt lat="44.61022" lon="5.11285">
        <ele>371</ele>
        <time>2024-05-17T10:03:00Z</time>
      </trkpt>
      <trkpt lat="44.61014" lon="5.11289">
        <ele>371.1</ele>
        <time>2024-05-17T10:03:01Z</time>
      </trkpt>
      <trkpt lat="44.61012" lon="5.1129">
        <ele>371.1</ele>
        <time>2024-05-17T10:03:02Z</time>
      </trkpt>
      <trkpt lat="44.61006" lon="5.11292">
        <ele>371.2</ele>
        <time>2024-05-17T10:03:03Z</time>
      </trkpt>
      <trkpt lat="44.61001" lon="5.11295">
        <ele>371.2</ele>
        <time>2024-05-17T10:03:04Z</time>
      </trkpt>
      <trkpt lat="44.60996" lon="5.11298">
        <ele>371.3</ele>
        <time>2024-05-17T10:03:05Z</time>
      </trkpt>
      <trkpt lat="44.60991" lon="5.11301">
        <ele>371.3</ele>
        <time>2024-05-17T10:03:06Z</time>
      </trkpt>
      <trkpt lat="44.60986" lon="5.11304">
        <ele>371.4</ele>
        <time>2024-05-17T10:03:07Z</time>
      </trkpt>
      <trkpt lat="44.60981" lon="5.11307">
        <ele>371.4</ele>
        <time>2024-05-17T10:03:08Z</time>
      </trkpt>
      <trkpt lat="44.60976" lon="5.11311">
        <ele>371.5</ele>
        <time>2024-05-17T10:03:09Z</time>
      </trkpt>
      <trkpt lat="44.60971" lon="5.11315">
        <ele>371.5</ele>
        <time>2024-05-17T10:03:10Z</time>
      </trkpt>
      <trkpt lat="44.60966" lon="5.11319">
        <ele>371.5</ele>
        <time>2024-05-17T10:03:11Z</time>
      </trkpt>
      <trkpt lat="44.60961" lon="5.11322">
        <ele>371.6</ele>
        <time>2024-05-17T10:03:12Z</time>
      </trkpt>
      <trkpt lat="44.60956" lon="5.11326">
        <ele>371.6</ele>
        <time>2024-05-17T10:03:13Z</time>
      </trkpt>
      <trkpt lat="44.60951" lon="5.1133">
        <ele>371.6</ele>
        <time>2024-05-17T10:03:14Z</time>
      </trkpt>
      <trkpt lat="44.60946" lon="5.11334">
        <ele>371.6</ele>
        <time>2024-05-17T10:03:15Z</time>
      </trkpt>
      <trkpt lat="44.60941" lon="5.11339">
        <ele>371.6</ele>
        <time>2024-05-17T10:03:16Z</time>
      </trkpt>
      <trkpt lat="44.60936" lon="5.11343">
        <ele>371.6</ele>
        <time>2024-05-17T10:03:17Z</time>
      </trkpt>
      <trkpt lat="44.60931" lon="5.11347">
        <ele>371.6</ele>
        <time>2024-05-17T10:03:18Z</time>
      </trkpt>
      <trkpt lat="44.60924" lon="5.11354">
        <ele>371.6</ele>
        <time>2024-05-17T10:03:19Z</time>
      </trkpt>
      <trkpt lat="44.60921" lon="5.11356">
        <ele>371.6</ele>
        <time>2024-05-17T10:03:20Z</time>
      </trkpt>
      <trkpt lat="44.60914" lon="5.11363">
        <ele>371.6</ele>
        <time>2024-05-17T10:03:21Z</time>
      </trkpt>
      <trkpt lat="44.60911" lon="5.11365">
        <ele>371.7</ele>
        <time>2024-05-17T10:03:22Z</time>
      </trkpt>
      <trkpt lat="44.60904" lon="5.11372">
        <ele>371.7</ele>
        <time>2024-05-17T10:03:23Z</time>
      </trkpt>
      <trkpt lat="44.60901" lon="5.11374">
        <ele>371.7</ele>
        <time>2024-05-17T10:03:24Z</time>
      </trkpt>
      <trkpt lat="44.60894" lon="5.11382">
        <ele>371.8</ele>
        <time>2024-05-17T10:03:25Z</time>
      </trkpt>
      <trkpt lat="44.60892" lon="5.11384">
        <ele>371.8</ele>
        <time>2024-05-17T10:03:26Z</time>
      </trkpt>
      <trkpt lat="44.60887" lon="5.1139">
        <ele>371.9</ele>
        <time>2024-05-17T10:03:27Z</time>
      </trkpt>
      <trkpt lat="44.6088" lon="5.11398">
        <ele>372</ele>
        <time>2024-05-17T10:03:28Z</time>
      </trkpt>
      <trkpt lat="44.60878" lon="5.11401">
        <ele>372</ele>
        <time>2024-05-17T10:03:29Z</time>
      </trkpt>
      <trkpt lat="44.60872" lon="5.1141">
        <ele>372.1</ele>
        <time>2024-05-17T10:03:30Z</time>
      </trkpt>
      <trkpt lat="44.60869" lon="5.11414">
        <ele>372.2</ele>
        <time>2024-05-17T10:03:31Z</time>
      </trkpt>
      <trkpt lat="44.60864" lon="5.11423">
        <ele>372.3</ele>
        <time>2024-05-17T10:03:32Z</time>
      </trkpt>
      <trkpt lat="44.60862" lon="5.11426">
        <ele>372.3</ele>
        <time>2024-05-17T10:03:33Z</time>
      </trkpt>
      <trkpt lat="44.60858" lon="5.11432">
        <ele>372.4</ele>
        <time>2024-05-17T10:03:34Z</time>
      </trkpt>
      <trkpt lat="44.60853" lon="5.11442">
        <ele>372.5</ele>
        <time>2024-05-17T10:03:35Z</time>
      </trkpt>
      <trkpt lat="44.60851" lon="5.11446">
        <ele>372.5</ele>
        <time>2024-05-17T10:03:36Z</time>
      </trkpt>
      <trkpt lat="44.60848" lon="5.11453">
        <ele>372.6</ele>
        <time>2024-05-17T10:03:37Z</time>
      </trkpt>
      <trkpt lat="44.60844" lon="5.1146">
        <ele>372.7</ele>
        <time>2024-05-17T10:03:38Z</time>
      </trkpt>
      <trkpt lat="44.60841" lon="5.11467">
        <ele>372.8</ele>
        <time>2024-05-17T10:03:39Z</time>
      </trkpt>
      <trkpt lat="44.60838" lon="5.11474">
        <ele>372.8</ele>
        <time>2024-05-17T10:03:40Z</time>
      </trkpt>
      <trkpt lat="44.60835" lon="5.11481">
        <ele>372.9</ele>
        <time>2024-05-17T10:03:41Z</time>
      </trkpt>
      <trkpt lat="44.60832" lon="5.11488">
        <ele>373</ele>
        <time>2024-05-17T10:03:42Z</time>
      </trkpt>
      <trkpt lat="44.60829" lon="5.11495">
        <ele>373</ele>
        <time>2024-05-17T10:03:43Z</time>
      </trkpt>
      <trkpt lat="44.60827" lon="5.11502">
        <ele>373.1</ele>
        <time>2024-05-17T10:03:44Z</time>
      </trkpt>
      <trkpt lat="44.60824" lon="5.11509">
        <ele>373.2</ele>
        <time>2024-05-17T10:03:45Z</time>
      </trkpt>
      <trkpt lat="44.60822" lon="5.11516">
        <ele>373.2</ele>
        <time>2024-05-17T10:03:46Z</time>
      </trkpt>
      <trkpt lat="44.60819" lon="5.11523">
        <ele>373.3</ele>
        <time>2024-05-17T10:03:47Z</time>
      </trkpt>
      <trkpt lat="44.60816" lon="5.1153">
        <ele>373.4</ele>
        <time>2024-05-17T10:03:48Z</time>
      </trkpt>
      <trkpt lat="44.60813" lon="5.11538">
        <ele>373.5</ele>
        <time>2024-05-17T10:03:49Z</time>
      </trkpt>
      <trkpt lat="44.6081" lon="5.11544">
        <ele>373.6</ele>
        <time>2024-05-17T10:03:50Z</time>
      </trkpt>
      <trkpt lat="44.60807" lon="5.11552">
        <ele>373.6</ele>
        <time>2024-05-17T10:03:51Z</time>
      </trkpt>
      <trkpt lat="44.60805" lon="5.11559">
        <ele>373.7</ele>
        <time>2024-05-17T10:03:52Z</time>
      </trkpt>
      <trkpt lat="44.60802" lon="5.11566">
        <ele>373.8</ele>
        <time>2024-05-17T10:03:53Z</time>
      </trkpt>
      <trkpt lat="44.60799" lon="5.11574">
        <ele>373.9</ele>
        <time>2024-05-17T10:03:54Z</time>
      </trkpt>
      <trkpt lat="44.60797" lon="5.1158">
        <ele>374</ele>
        <time>2024-05-17T10:03:55Z</time>
      </trkpt>
      <trkpt lat="44.60794" lon="5.11587">
        <ele>374</ele>
        <time>2024-05-17T10:03:56Z</time>
      </trkpt>
      <trkpt lat="44.60791" lon="5.11594">
        <ele>374.1</ele>
        <time>2024-05-17T10:03:57Z</time>
      </trkpt>
      <trkpt lat="44.60788" lon="5.116">
        <ele>374.2</ele>
        <time>2024-05-17T10:03:58Z</time>
      </trkpt>
      <trkpt lat="44.60786" lon="5.11607">
        <ele>374.3</ele>
        <time>2024-05-17T10:03:59Z</time>
      </trkpt>
      <trkpt lat="44.60783" lon="5.11613">
        <ele>374.4</ele>
        <time>2024-05-17T10:04:00Z</time>
      </trkpt>
      <trkpt lat="44.6078" lon="5.11619">
        <ele>374.5</ele>
        <time>2024-05-17T10:04:01Z</time>
      </trkpt>
      <trkpt lat="44.60776" lon="5.11628">
        <ele>374.6</ele>
        <time>2024-05-17T10:04:02Z</time>
      </trkpt>
      <trkpt lat="44.60775" lon="5.11631">
        <ele>374.7</ele>
        <time>2024-05-17T10:04:03Z</time>
      </trkpt>
      <trkpt lat="44.60771" lon="5.11641">
        <ele>374.8</ele>
        <time>2024-05-17T10:04:04Z</time>
      </trkpt>
      <trkpt lat="44.6077" lon="5.11644">
        <ele>374.8</ele>
        <time>2024-05-17T10:04:05Z</time>
      </trkpt>
      <trkpt lat="44.60766" lon="5.11653">
        <ele>374.9</ele>
        <time>2024-05-17T10:04:06Z</time>
      </trkpt>
      <trkpt lat="44.60764" lon="5.11656">
        <ele>374.9</ele>
        <time>2024-05-17T10:04:07Z</time>
      </trkpt>
      <trkpt lat="44.6076" lon="5.11666">
        <ele>375.1</ele>
        <time>2024-05-17T10:04:08Z</time>
      </trkpt>
      <trkpt lat="44.60758" lon="5.11669">
        <ele>375.1</ele>
        <time>2024-05-17T10:04:09Z</time>
      </trkpt>
      <trkpt lat="44.60754" lon="5.11678">
        <ele>375.2</ele>
        <time>2024-05-17T10:04:10Z</time>
      </trkpt>
      <trkpt lat="44.60753" lon="5.11681">
        <ele>375.3</ele>
        <time>2024-05-17T10:04:11Z</time>
      </trkpt>
      <trkpt lat="44.6075" lon="5.11687">
        <ele>375.4</ele>
        <time>2024-05-17T10:04:12Z</time>
      </trkpt>
      <trkpt lat="44.60745" lon="5.11695">
        <ele>375.5</ele>
        <time>2024-05-17T10:04:13Z</time>
      </trkpt>
      <trkpt lat="44.60743" lon="5.11698">
        <ele>375.5</ele>
        <time>2024-05-17T10:04:14Z</time>
      </trkpt>
      <trkpt lat="44.60738" lon="5.11706">
        <ele>375.7</ele>
        <time>2024-05-17T10:04:15Z</time>
      </trkpt>
      <trkpt lat="44.60736" lon="5.11708">
        <ele>375.7</ele>
        <time>2024-05-17T10:04:16Z</time>
      </trkpt>
      <trkpt lat="44.60731" lon="5.11716">
        <ele>375.9</ele>
        <time>2024-05-17T10:04:17Z</time>
      </trkpt>
      <trkpt lat="44.60729" lon="5.11719">
        <ele>375.9</ele>
        <time>2024-05-17T10:04:18Z</time>
      </trkpt>
      <trkpt lat="44.60725" lon="5.11723">
        <ele>376</ele>
        <time>2024-05-17T10:04:19Z</time>
      </trkpt>
      <trkpt lat="44.60719" lon="5.1173">
        <ele>376.2</ele>
        <time>2024-05-17T10:04:20Z</time>
      </trkpt>
      <trkpt lat="44.60718" lon="5.11732">
        <ele>376.2</ele>
        <time>2024-05-17T10:04:21Z</time>
      </trkpt>
      <trkpt lat="44.60714" lon="5.11735">
        <ele>376.3</ele>
        <time>2024-05-17T10:04:22Z</time>
      </trkpt>
      <trkpt lat="44.6071" lon="5.11739">
        <ele>376.4</ele>
        <time>2024-05-17T10:04:23Z</time>
      </trkpt>
      <trkpt lat="44.60706" lon="5.11743">
        <ele>376.5</ele>
        <time>2024-05-17T10:04:24Z</time>
      </trkpt>
      <trkpt lat="44.60702" lon="5.11746">
        <ele>376.6</ele>
        <time>2024-05-17T10:04:25Z</time>
      </trkpt>
      <trkpt lat="44.60697" lon="5.11749">
        <ele>376.7</ele>
        <time>2024-05-17T10:04:26Z</time>
      </trkpt>
      <trkpt lat="44.60693" lon="5.11753">
        <ele>376.7</ele>
        <time>2024-05-17T10:04:27Z</time>
      </trkpt>
      <trkpt lat="44.60688" lon="5.11757">
        <ele>376.8</ele>
        <time>2024-05-17T10:04:28Z</time>
      </trkpt>
      <trkpt lat="44.60684" lon="5.1176">
        <ele>376.9</ele>
        <time>2024-05-17T10:04:29Z</time>
      </trkpt>
      <trkpt lat="44.60676" lon="5.11765">
        <ele>377</ele>
        <time>2024-05-17T10:04:30Z</time>
      </trkpt>
      <trkpt lat="44.60674" lon="5.11766">
        <ele>377.1</ele>
        <time>2024-05-17T10:04:31Z</time>
      </trkpt>
      <trkpt lat="44.60669" lon="5.1177">
        <ele>377.2</ele>
        <time>2024-05-17T10:04:32Z</time>
      </trkpt>
      <trkpt lat="44.60664" lon="5.11772">
        <ele>377.3</ele>
        <time>2024-05-17T10:04:33Z</time>
      </trkpt>
      <trkpt lat="44.60658" lon="5.11775">
        <ele>377.4</ele>
        <time>2024-05-17T10:04:34Z</time>
      </trkpt>
      <trkpt lat="44.60652" lon="5.11777">
        <ele>377.5</ele>
        <time>2024-05-17T10:04:35Z</time>
      </trkpt>
      <trkpt lat="44.60646" lon="5.11779">
        <ele>377.6</ele>
        <time>2024-05-17T10:04:36Z</time>
      </trkpt>
      <trkpt lat="44.60641" lon="5.11781">
        <ele>377.7</ele>
        <time>2024-05-17T10:04:37Z</time>
      </trkpt>
      <trkpt lat="44.60635" lon="5.11782">
        <ele>377.8</ele>
        <time>2024-05-17T10:04:38Z</time>
      </trkpt>
      <trkpt lat="44.6063" lon="5.11783">
        <ele>377.8</ele>
        <time>2024-05-17T10:04:39Z</time>
      </trkpt>
      <trkpt lat="44.60624" lon="5.11784">
        <ele>377.9</ele>
        <time>2024-05-17T10:04:40Z</time>
      </trkpt>
      <trkpt lat="44.60619" lon="5.11785">
        <ele>378</ele>
        <time>2024-05-17T10:04:41Z</time>
      </trkpt>
      <trkpt lat="44.60614" lon="5.11786">
        <ele>378.1</ele>
        <time>2024-05-17T10:04:42Z</time>
      </trkpt>
      <trkpt lat="44.60609" lon="5.11786">
        <ele>378.2</ele>
        <time>2024-05-17T10:04:43Z</time>
      </trkpt>
      <trkpt lat="44.60604" lon="5.11787">
        <ele>378.3</ele>
        <time>2024-05-17T10:04:44Z</time>
      </trkpt>
      <trkpt lat="44.60599" lon="5.11787">
        <ele>378.4</ele>
        <time>2024-05-17T10:04:45Z</time>
      </trkpt>
      <trkpt lat="44.60594" lon="5.11788">
        <ele>378.5</ele>
        <time>2024-05-17T10:04:46Z</time>
      </trkpt>
      <trkpt lat="44.60589" lon="5.11789">
        <ele>378.5</ele>
        <time>2024-05-17T10:04:47Z</time>
      </trkpt>
      <trkpt lat="44.60584" lon="5.11789">
        <ele>378.6</ele>
        <time>2024-05-17T10:04:48Z</time>
      </trkpt>
      <trkpt lat="44.60576" lon="5.11791">
        <ele>378.8</ele>
        <time>2024-05-17T10:04:49Z</time>
      </trkpt>
      <trkpt lat="44.60574" lon="5.11791">
        <ele>378.8</ele>
        <time>2024-05-17T10:04:50Z</time>
      </trkpt>
      <trkpt lat="44.60569" lon="5.11792">
        <ele>378.9</ele>
        <time>2024-05-17T10:04:51Z</time>
      </trkpt>
      <trkpt lat="44.60562" lon="5.11792">
        <ele>379.1</ele>
        <time>2024-05-17T10:04:52Z</time>
      </trkpt>
      <trkpt lat="44.60559" lon="5.11792">
        <ele>379.1</ele>
        <time>2024-05-17T10:04:53Z</time>
      </trkpt>
      <trkpt lat="44.60552" lon="5.11792">
        <ele>379.3</ele>
        <time>2024-05-17T10:04:54Z</time>
      </trkpt>
      <trkpt lat="44.60549" lon="5.11792">
        <ele>379.3</ele>
        <time>2024-05-17T10:04:55Z</time>
      </trkpt>
      <trkpt lat="44.60544" lon="5.11792">
        <ele>379.4</ele>
        <time>2024-05-17T10:04:56Z</time>
      </trkpt>
      <trkpt lat="44.60536" lon="5.11792">
        <ele>379.5</ele>
        <time>2024-05-17T10:04:57Z</time>
      </trkpt>
      <trkpt lat="44.60534" lon="5.11792">
        <ele>379.5</ele>
        <time>2024-05-17T10:04:58Z</time>
      </trkpt>
      <trkpt lat="44.60526" lon="5.11792">
        <ele>379.6</ele>
        <time>2024-05-17T10:04:59Z</time>
      </trkpt>
      <trkpt lat="44.60523" lon="5.11792">
        <ele>379.7</ele>
        <time>2024-05-17T10:05:00Z</time>
      </trkpt>
      <trkpt lat="44.60518" lon="5.11791">
        <ele>379.7</ele>
        <time>2024-05-17T10:05:01Z</time>
      </trkpt>
      <trkpt lat="44.60513" lon="5.1179">
        <ele>379.8</ele>
        <time>2024-05-17T10:05:02Z</time>
      </trkpt>
      <trkpt lat="44.60506" lon="5.11788">
        <ele>379.8</ele>
        <time>2024-05-17T10:05:03Z</time>
      </trkpt>
      <trkpt lat="44.60503" lon="5.11787">
        <ele>379.9</ele>
        <time>2024-05-17T10:05:04Z</time>
      </trkpt>
      <trkpt lat="44.60498" lon="5.11785">
        <ele>379.9</ele>
        <time>2024-05-17T10:05:05Z</time>
      </trkpt>
      <trkpt lat="44.60493" lon="5.11783">
        <ele>379.9</ele>
        <time>2024-05-17T10:05:06Z</time>
      </trkpt>
      <trkpt lat="44.60487" lon="5.11784">
        <ele>379.9</ele>
        <time>2024-05-17T10:05:07Z</time>
      </trkpt>
      <trkpt lat="44.60482" lon="5.11784">
        <ele>380</ele>
        <time>2024-05-17T10:05:08Z</time>
      </trkpt>
      <trkpt lat="44.60477" lon="5.11782">
        <ele>380</ele>
        <time>2024-05-17T10:05:09Z</time>
      </trkpt>
      <trkpt lat="44.60472" lon="5.1178">
        <ele>380</ele>
        <time>2024-05-17T10:05:10Z</time>
      </trkpt>
      <trkpt lat="44.60467" lon="5.11778">
        <ele>380</ele>
        <time>2024-05-17T10:05:11Z</time>
      </trkpt>
      <trkpt lat="44.60461" lon="5.11776">
        <ele>380</ele>
        <time>2024-05-17T10:05:12Z</time>
      </trkpt>
      <trkpt lat="44.60456" lon="5.11773">
        <ele>380</ele>
        <time>2024-05-17T10:05:13Z</time>
      </trkpt>
      <trkpt lat="44.60448" lon="5.1177">
        <ele>380</ele>
        <time>2024-05-17T10:05:14Z</time>
      </trkpt>
      <trkpt lat="44.60445" lon="5.11769">
        <ele>380</ele>
        <time>2024-05-17T10:05:15Z</time>
      </trkpt>
      <trkpt lat="44.6044" lon="5.11767">
        <ele>380</ele>
        <time>2024-05-17T10:05:16Z</time>
      </trkpt>
      <trkpt lat="44.60435" lon="5.11765">
        <ele>380</ele>
        <time>2024-05-17T10:05:17Z</time>
      </trkpt>
      <trkpt lat="44.6043" lon="5.11763">
        <ele>380</ele>
        <time>2024-05-17T10:05:18Z</time>
      </trkpt>
      <trkpt lat="44.60425" lon="5.11761">
        <ele>380</ele>
        <time>2024-05-17T10:05:19Z</time>
      </trkpt>
      <trkpt lat="44.6042" lon="5.11759">
        <ele>380</ele>
        <time>2024-05-17T10:05:20Z</time>
      </trkpt>
      <trkpt lat="44.60415" lon="5.11757">
        <ele>380.1</ele>
        <time>2024-05-17T10:05:21Z</time>
      </trkpt>
      <trkpt lat="44.60409" lon="5.11755">
        <ele>380.1</ele>
        <time>2024-05-17T10:05:22Z</time>
      </trkpt>
      <trkpt lat="44.60403" lon="5.11752">
        <ele>380.1</ele>
        <time>2024-05-17T10:05:23Z</time>
      </trkpt>
      <trkpt lat="44.60398" lon="5.1175">
        <ele>380.1</ele>
        <time>2024-05-17T10:05:24Z</time>
      </trkpt>
      <trkpt lat="44.60392" lon="5.11748">
        <ele>380.1</ele>
        <time>2024-05-17T10:05:25Z</time>
      </trkpt>
      <trkpt lat="44.60387" lon="5.11746">
        <ele>380.1</ele>
        <time>2024-05-17T10:05:26Z</time>
      </trkpt>
      <trkpt lat="44.60381" lon="5.11745">
        <ele>380.1</ele>
        <time>2024-05-17T10:05:27Z</time>
      </trkpt>
      <trkpt lat="44.60376" lon="5.11744">
        <ele>380.1</ele>
        <time>2024-05-17T10:05:28Z</time>
      </trkpt>
      <trkpt lat="44.6037" lon="5.11743">
        <ele>380.2</ele>
        <time>2024-05-17T10:05:29Z</time>
      </trkpt>
      <trkpt lat="44.60361" lon="5.11744">
        <ele>380.2</ele>
        <time>2024-05-17T10:05:30Z</time>
      </trkpt>
      <trkpt lat="44.60358" lon="5.11744">
        <ele>380.3</ele>
        <time>2024-05-17T10:05:31Z</time>
      </trkpt>
      <trkpt lat="44.6035" lon="5.11746">
        <ele>380.3</ele>
        <time>2024-05-17T10:05:32Z</time>
      </trkpt>
      <trkpt lat="44.60347" lon="5.11747">
        <ele>380.3</ele>
        <time>2024-05-17T10:05:33Z</time>
      </trkpt>
      <trkpt lat="44.60339" lon="5.1175">
        <ele>380.3</ele>
        <time>2024-05-17T10:05:34Z</time>
      </trkpt>
      <trkpt lat="44.60336" lon="5.11752">
        <ele>380.3</ele>
        <time>2024-05-17T10:05:35Z</time>
      </trkpt>
      <trkpt lat="44.60328" lon="5.11757">
        <ele>380.3</ele>
        <time>2024-05-17T10:05:36Z</time>
      </trkpt>
      <trkpt lat="44.60325" lon="5.11759">
        <ele>380.3</ele>
        <time>2024-05-17T10:05:37Z</time>
      </trkpt>
      <trkpt lat="44.6032" lon="5.11762">
        <ele>380.3</ele>
        <time>2024-05-17T10:05:38Z</time>
      </trkpt>
      <trkpt lat="44.60313" lon="5.11769">
        <ele>380.3</ele>
        <time>2024-05-17T10:05:39Z</time>
      </trkpt>
      <trkpt lat="44.6031" lon="5.11771">
        <ele>380.3</ele>
        <time>2024-05-17T10:05:40Z</time>
      </trkpt>
      <trkpt lat="44.60303" lon="5.11779">
        <ele>380.3</ele>
        <time>2024-05-17T10:05:41Z</time>
      </trkpt>
      <trkpt lat="44.60301" lon="5.11782">
        <ele>380.3</ele>
        <time>2024-05-17T10:05:42Z</time>
      </trkpt>
      <trkpt lat="44.60294" lon="5.11791">
        <ele>380.2</ele>
        <time>2024-05-17T10:05:43Z</time>
      </trkpt>
      <trkpt lat="44.60292" lon="5.11794">
        <ele>380.2</ele>
        <time>2024-05-17T10:05:44Z</time>
      </trkpt>
      <trkpt lat="44.60287" lon="5.118">
        <ele>380.2</ele>
        <time>2024-05-17T10:05:45Z</time>
      </trkpt>
      <trkpt lat="44.60281" lon="5.11809">
        <ele>380.2</ele>
        <time>2024-05-17T10:05:46Z</time>
      </trkpt>
      <trkpt lat="44.60278" lon="5.11812">
        <ele>380.2</ele>
        <time>2024-05-17T10:05:47Z</time>
      </trkpt>
      <trkpt lat="44.60274" lon="5.11818">
        <ele>380.2</ele>
        <time>2024-05-17T10:05:48Z</time>
      </trkpt>
      <trkpt lat="44.6027" lon="5.11824">
        <ele>380.2</ele>
        <time>2024-05-17T10:05:49Z</time>
      </trkpt>
      <trkpt lat="44.60265" lon="5.1183">
        <ele>380.2</ele>
        <time>2024-05-17T10:05:50Z</time>
      </trkpt>
      <trkpt lat="44.60261" lon="5.11836">
        <ele>380.3</ele>
        <time>2024-05-17T10:05:51Z</time>
      </trkpt>
      <trkpt lat="44.60257" lon="5.11843">
        <ele>380.3</ele>
        <time>2024-05-17T10:05:52Z</time>
      </trkpt>
      <trkpt lat="44.60252" lon="5.11849">
        <ele>380.4</ele>
        <time>2024-05-17T10:05:53Z</time>
      </trkpt>
      <trkpt lat="44.60247" lon="5.11856">
        <ele>380.4</ele>
        <time>2024-05-17T10:05:54Z</time>
      </trkpt>
      <trkpt lat="44.60243" lon="5.11862">
        <ele>380.5</ele>
        <time>2024-05-17T10:05:55Z</time>
      </trkpt>
      <trkpt lat="44.60238" lon="5.11869">
        <ele>380.6</ele>
        <time>2024-05-17T10:05:56Z</time>
      </trkpt>
      <trkpt lat="44.60234" lon="5.11875">
        <ele>380.7</ele>
        <time>2024-05-17T10:05:57Z</time>
      </trkpt>
      <trkpt lat="44.60229" lon="5.11881">
        <ele>380.8</ele>
        <time>2024-05-17T10:05:58Z</time>
      </trkpt>
      <trkpt lat="44.60225" lon="5.11887">
        <ele>380.8</ele>
        <time>2024-05-17T10:05:59Z</time>
      </trkpt>
      <trkpt lat="44.60221" lon="5.11894">
        <ele>381</ele>
        <time>2024-05-17T10:06:00Z</time>
      </trkpt>
      <trkpt lat="44.60216" lon="5.11901">
        <ele>381.1</ele>
        <time>2024-05-17T10:06:01Z</time>
      </trkpt>
      <trkpt lat="44.60212" lon="5.11907">
        <ele>381.2</ele>
        <time>2024-05-17T10:06:02Z</time>
      </trkpt>
      <trkpt lat="44.60208" lon="5.11913">
        <ele>381.4</ele>
        <time>2024-05-17T10:06:03Z</time>
      </trkpt>
      <trkpt lat="44.60204" lon="5.11919">
        <ele>381.5</ele>
        <time>2024-05-17T10:06:04Z</time>
      </trkpt>
      <trkpt lat="44.60199" lon="5.11925">
        <ele>381.7</ele>
        <time>2024-05-17T10:06:05Z</time>
      </trkpt>
      <trkpt lat="44.60195" lon="5.11932">
        <ele>381.9</ele>
        <time>2024-05-17T10:06:06Z</time>
      </trkpt>
      <trkpt lat="44.60189" lon="5.11941">
        <ele>382.1</ele>
        <time>2024-05-17T10:06:07Z</time>
      </trkpt>
      <trkpt lat="44.60187" lon="5.11944">
        <ele>382.2</ele>
        <time>2024-05-17T10:06:08Z</time>
      </trkpt>
      <trkpt lat="44.60183" lon="5.1195">
        <ele>382.4</ele>
        <time>2024-05-17T10:06:09Z</time>
      </trkpt>
      <trkpt lat="44.60176" lon="5.11959">
        <ele>382.6</ele>
        <time>2024-05-17T10:06:10Z</time>
      </trkpt>
      <trkpt lat="44.60174" lon="5.11962">
        <ele>382.7</ele>
        <time>2024-05-17T10:06:11Z</time>
      </trkpt>
      <trkpt lat="44.60171" lon="5.11968">
        <ele>382.9</ele>
        <time>2024-05-17T10:06:12Z</time>
      </trkpt>
      <trkpt lat="44.60167" lon="5.11974">
        <ele>383</ele>
        <time>2024-05-17T10:06:13Z</time>
      </trkpt>
      <trkpt lat="44.60163" lon="5.11979">
        <ele>383.2</ele>
        <time>2024-05-17T10:06:14Z</time>
      </trkpt>
      <trkpt lat="44.60159" lon="5.11985">
        <ele>383.3</ele>
        <time>2024-05-17T10:06:15Z</time>
      </trkpt>
      <trkpt lat="44.60155" lon="5.11991">
        <ele>383.5</ele>
        <time>2024-05-17T10:06:16Z</time>
      </trkpt>
      <trkpt lat="44.60149" lon="5.11999">
        <ele>383.7</ele>
        <time>2024-05-17T10:06:17Z</time>
      </trkpt>
      <trkpt lat="44.60147" lon="5.12002">
        <ele>383.8</ele>
        <time>2024-05-17T10:06:18Z</time>
      </trkpt>
      <trkpt lat="44.60142" lon="5.1201">
        <ele>384</ele>
        <time>2024-05-17T10:06:19Z</time>
      </trkpt>
      <trkpt lat="44.6014" lon="5.12012">
        <ele>384.1</ele>
        <time>2024-05-17T10:06:20Z</time>
      </trkpt>
      <trkpt lat="44.60136" lon="5.12018">
        <ele>384.3</ele>
        <time>2024-05-17T10:06:21Z</time>
      </trkpt>
      <trkpt lat="44.60131" lon="5.12025">
        <ele>384.5</ele>
        <time>2024-05-17T10:06:22Z</time>
      </trkpt>
      <trkpt lat="44.60129" lon="5.12027">
        <ele>384.6</ele>
        <time>2024-05-17T10:06:23Z</time>
      </trkpt>
      <trkpt lat="44.60124" lon="5.12035">
        <ele>384.9</ele>
        <time>2024-05-17T10:06:24Z</time>
      </trkpt>
      <trkpt lat="44.60122" lon="5.12038">
        <ele>384.9</ele>
        <time>2024-05-17T10:06:25Z</time>
      </trkpt>
      <trkpt lat="44.60117" lon="5.12045">
        <ele>385.2</ele>
        <time>2024-05-17T10:06:26Z</time>
      </trkpt>
      <trkpt lat="44.60116" lon="5.12048">
        <ele>385.3</ele>
        <time>2024-05-17T10:06:27Z</time>
      </trkpt>
      <trkpt lat="44.60113" lon="5.12052">
        <ele>385.4</ele>
        <time>2024-05-17T10:06:28Z</time>
      </trkpt>
      <trkpt lat="44.60108" lon="5.12059">
        <ele>385.6</ele>
        <time>2024-05-17T10:06:29Z</time>
      </trkpt>
      <trkpt lat="44.60107" lon="5.12061">
        <ele>385.7</ele>
        <time>2024-05-17T10:06:30Z</time>
      </trkpt>
      <trkpt lat="44.60104" lon="5.12065">
        <ele>385.8</ele>
        <time>2024-05-17T10:06:31Z</time>
      </trkpt>
      <trkpt lat="44.60101" lon="5.12069">
        <ele>385.9</ele>
        <time>2024-05-17T10:06:32Z</time>
      </trkpt>
      <trkpt lat="44.60097" lon="5.12074">
        <ele>386.1</ele>
        <time>2024-05-17T10:06:33Z</time>
      </trkpt>
      <trkpt lat="44.60094" lon="5.12078">
        <ele>386.2</ele>
        <time>2024-05-17T10:06:34Z</time>
      </trkpt>
      <trkpt lat="44.60091" lon="5.12083">
        <ele>386.4</ele>
        <time>2024-05-17T10:06:35Z</time>
      </trkpt>
      <trkpt lat="44.60088" lon="5.12088">
        <ele>386.5</ele>
        <time>2024-05-17T10:06:36Z</time>
      </trkpt>
      <trkpt lat="44.60085" lon="5.12093">
        <ele>386.7</ele>
        <time>2024-05-17T10:06:37Z</time>
      </trkpt>
      <trkpt lat="44.60081" lon="5.121">
        <ele>386.8</ele>
        <time>2024-05-17T10:06:38Z</time>
      </trkpt>
      <trkpt lat="44.60079" lon="5.12102">
        <ele>386.9</ele>
        <time>2024-05-17T10:06:39Z</time>
      </trkpt>
      <trkpt lat="44.60076" lon="5.12107">
        <ele>387</ele>
        <time>2024-05-17T10:06:40Z</time>
      </trkpt>
      <trkpt lat="44.60073" lon="5.12112">
        <ele>387.1</ele>
        <time>2024-05-17T10:06:41Z</time>
      </trkpt>
      <trkpt lat="44.60069" lon="5.12116">
        <ele>387.3</ele>
        <time>2024-05-17T10:06:42Z</time>
      </trkpt>
      <trkpt lat="44.60066" lon="5.12121">
        <ele>387.4</ele>
        <time>2024-05-17T10:06:43Z</time>
      </trkpt>
      <trkpt lat="44.60063" lon="5.12125">
        <ele>387.5</ele>
        <time>2024-05-17T10:06:44Z</time>
      </trkpt>
      <trkpt lat="44.6006" lon="5.1213">
        <ele>387.7</ele>
        <time>2024-05-17T10:06:45Z</time>
      </trkpt>
      <trkpt lat="44.60057" lon="5.12134">
        <ele>387.8</ele>
        <time>2024-05-17T10:06:46Z</time>
      </trkpt>
      <trkpt lat="44.60054" lon="5.12139">
        <ele>388</ele>
        <time>2024-05-17T10:06:47Z</time>
      </trkpt>
      <trkpt lat="44.60051" lon="5.12143">
        <ele>388.1</ele>
        <time>2024-05-17T10:06:48Z</time>
      </trkpt>
      <trkpt lat="44.60047" lon="5.12148">
        <ele>388.3</ele>
        <time>2024-05-17T10:06:49Z</time>
      </trkpt>
      <trkpt lat="44.60044" lon="5.12153">
        <ele>388.5</ele>
        <time>2024-05-17T10:06:50Z</time>
      </trkpt>
      <trkpt lat="44.6004" lon="5.12157">
        <ele>388.6</ele>
        <time>2024-05-17T10:06:51Z</time>
      </trkpt>
      <trkpt lat="44.60037" lon="5.12162">
        <ele>388.8</ele>
        <time>2024-05-17T10:06:52Z</time>
      </trkpt>
      <trkpt lat="44.60034" lon="5.12167">
        <ele>389</ele>
        <time>2024-05-17T10:06:53Z</time>
      </trkpt>
      <trkpt lat="44.6003" lon="5.12172">
        <ele>389.2</ele>
        <time>2024-05-17T10:06:54Z</time>
      </trkpt>
      <trkpt lat="44.60028" lon="5.12176">
        <ele>389.3</ele>
        <time>2024-05-17T10:06:55Z</time>
      </trkpt>
      <trkpt lat="44.60024" lon="5.12184">
        <ele>389.5</ele>
        <time>2024-05-17T10:06:56Z</time>
      </trkpt>
      <trkpt lat="44.60022" lon="5.12186">
        <ele>389.6</ele>
        <time>2024-05-17T10:06:57Z</time>
      </trkpt>
      <trkpt lat="44.60019" lon="5.12191">
        <ele>389.7</ele>
        <time>2024-05-17T10:06:58Z</time>
      </trkpt>
      <trkpt lat="44.60015" lon="5.12198">
        <ele>389.9</ele>
        <time>2024-05-17T10:06:59Z</time>
      </trkpt>
      <trkpt lat="44.60014" lon="5.122">
        <ele>390</ele>
        <time>2024-05-17T10:07:00Z</time>
      </trkpt>
      <trkpt lat="44.60011" lon="5.12205">
        <ele>390.1</ele>
        <time>2024-05-17T10:07:01Z</time>
      </trkpt>
      <trkpt lat="44.60009" lon="5.1221">
        <ele>390.2</ele>
        <time>2024-05-17T10:07:02Z</time>
      </trkpt>
      <trkpt lat="44.60006" lon="5.12218">
        <ele>390.4</ele>
        <time>2024-05-17T10:07:03Z</time>
      </trkpt>
      <trkpt lat="44.60004" lon="5.12221">
        <ele>390.5</ele>
        <time>2024-05-17T10:07:04Z</time>
      </trkpt>
      <trkpt lat="44.60002" lon="5.12226">
        <ele>390.6</ele>
        <time>2024-05-17T10:07:05Z</time>
      </trkpt>
      <trkpt lat="44.59999" lon="5.12234">
        <ele>390.8</ele>
        <time>2024-05-17T10:07:06Z</time>
      </trkpt>
      <trkpt lat="44.59998" lon="5.12237">
        <ele>390.9</ele>
        <time>2024-05-17T10:07:07Z</time>
      </trkpt>
      <trkpt lat="44.59993" lon="5.12245">
        <ele>391</ele>
        <time>2024-05-17T10:07:08Z</time>
      </trkpt>
      <trkpt lat="44.59992" lon="5.12247">
        <ele>391.1</ele>
        <time>2024-05-17T10:07:09Z</time>
      </trkpt>
      <trkpt lat="44.59989" lon="5.12255">
        <ele>391.3</ele>
        <time>2024-05-17T10:07:10Z</time>
      </trkpt>
      <trkpt lat="44.59987" lon="5.12258">
        <ele>391.3</ele>
        <time>2024-05-17T10:07:11Z</time>
      </trkpt>
      <trkpt lat="44.59985" lon="5.12263">
        <ele>391.4</ele>
        <time>2024-05-17T10:07:12Z</time>
      </trkpt>
      <trkpt lat="44.59981" lon="5.12272">
        <ele>391.6</ele>
        <time>2024-05-17T10:07:13Z</time>
      </trkpt>
      <trkpt lat="44.5998" lon="5.12275">
        <ele>391.7</ele>
        <time>2024-05-17T10:07:14Z</time>
      </trkpt>
      <trkpt lat="44.59977" lon="5.12281">
        <ele>391.8</ele>
        <time>2024-05-17T10:07:15Z</time>
      </trkpt>
      <trkpt lat="44.59974" lon="5.12287">
        <ele>391.9</ele>
        <time>2024-05-17T10:07:16Z</time>
      </trkpt>
      <trkpt lat="44.59972" lon="5.12292">
        <ele>392</ele>
        <time>2024-05-17T10:07:17Z</time>
      </trkpt>
      <trkpt lat="44.59969" lon="5.12298">
        <ele>392.1</ele>
        <time>2024-05-17T10:07:18Z</time>
      </trkpt>
      <trkpt lat="44.59966" lon="5.12304">
        <ele>392.2</ele>
        <time>2024-05-17T10:07:19Z</time>
      </trkpt>
      <trkpt lat="44.59963" lon="5.1231">
        <ele>392.4</ele>
        <time>2024-05-17T10:07:20Z</time>
      </trkpt>
      <trkpt lat="44.59959" lon="5.12315">
        <ele>392.5</ele>
        <time>2024-05-17T10:07:21Z</time>
      </trkpt>
      <trkpt lat="44.59956" lon="5.1232">
        <ele>392.6</ele>
        <time>2024-05-17T10:07:22Z</time>
      </trkpt>
      <trkpt lat="44.59953" lon="5.12326">
        <ele>392.7</ele>
        <time>2024-05-17T10:07:23Z</time>
      </trkpt>
      <trkpt lat="44.5995" lon="5.12331">
        <ele>392.8</ele>
        <time>2024-05-17T10:07:24Z</time>
      </trkpt>
      <trkpt lat="44.59947" lon="5.12336">
        <ele>392.9</ele>
        <time>2024-05-17T10:07:25Z</time>
      </trkpt>
      <trkpt lat="44.59944" lon="5.12341">
        <ele>393</ele>
        <time>2024-05-17T10:07:26Z</time>
      </trkpt>
      <trkpt lat="44.5994" lon="5.12346">
        <ele>393.1</ele>
        <time>2024-05-17T10:07:27Z</time>
      </trkpt>
      <trkpt lat="44.59937" lon="5.12351">
        <ele>393.2</ele>
        <time>2024-05-17T10:07:28Z</time>
      </trkpt>
      <trkpt lat="44.59934" lon="5.12356">
        <ele>393.3</ele>
        <time>2024-05-17T10:07:29Z</time>
      </trkpt>
      <trkpt lat="44.59931" lon="5.1236">
        <ele>393.3</ele>
        <time>2024-05-17T10:07:30Z</time>
      </trkpt>
      <trkpt lat="44.59928" lon="5.12366">
        <ele>393.4</ele>
        <time>2024-05-17T10:07:31Z</time>
      </trkpt>
      <trkpt lat="44.59925" lon="5.12371">
        <ele>393.5</ele>
        <time>2024-05-17T10:07:32Z</time>
      </trkpt>
      <trkpt lat="44.59922" lon="5.12376">
        <ele>393.6</ele>
        <time>2024-05-17T10:07:33Z</time>
      </trkpt>
      <trkpt lat="44.59918" lon="5.12382">
        <ele>393.7</ele>
        <time>2024-05-17T10:07:34Z</time>
      </trkpt>
      <trkpt lat="44.59914" lon="5.12387">
        <ele>393.8</ele>
        <time>2024-05-17T10:07:35Z</time>
      </trkpt>
      <trkpt lat="44.59911" lon="5.12391">
        <ele>393.9</ele>
        <time>2024-05-17T10:07:36Z</time>
      </trkpt>
      <trkpt lat="44.59907" lon="5.12396">
        <ele>394.1</ele>
        <time>2024-05-17T10:07:37Z</time>
      </trkpt>
      <trkpt lat="44.59903" lon="5.12401">
        <ele>394.2</ele>
        <time>2024-05-17T10:07:38Z</time>
      </trkpt>
      <trkpt lat="44.59898" lon="5.12407">
        <ele>394.4</ele>
        <time>2024-05-17T10:07:39Z</time>
      </trkpt>
      <trkpt lat="44.59897" lon="5.1241">
        <ele>394.4</ele>
        <time>2024-05-17T10:07:40Z</time>
      </trkpt>
      <trkpt lat="44.59893" lon="5.12414">
        <ele>394.5</ele>
        <time>2024-05-17T10:07:41Z</time>
      </trkpt>
      <trkpt lat="44.59888" lon="5.1242">
        <ele>394.7</ele>
        <time>2024-05-17T10:07:42Z</time>
      </trkpt>
      <trkpt lat="44.59886" lon="5.12422">
        <ele>394.8</ele>
        <time>2024-05-17T10:07:43Z</time>
      </trkpt>
      <trkpt lat="44.5988" lon="5.12427">
        <ele>395</ele>
        <time>2024-05-17T10:07:44Z</time>
      </trkpt>
      <trkpt lat="44.59879" lon="5.12429">
        <ele>395</ele>
        <time>2024-05-17T10:07:45Z</time>
      </trkpt>
      <trkpt lat="44.59873" lon="5.12434">
        <ele>395.2</ele>
        <time>2024-05-17T10:07:46Z</time>
      </trkpt>
      <trkpt lat="44.59871" lon="5.12435">
        <ele>395.3</ele>
        <time>2024-05-17T10:07:47Z</time>
      </trkpt>
      <trkpt lat="44.59867" lon="5.12438">
        <ele>395.4</ele>
        <time>2024-05-17T10:07:48Z</time>
      </trkpt>
      <trkpt lat="44.59862" lon="5.12441">
        <ele>395.6</ele>
        <time>2024-05-17T10:07:49Z</time>
      </trkpt>
      <trkpt lat="44.5986" lon="5.12442">
        <ele>395.6</ele>
        <time>2024-05-17T10:07:50Z</time>
      </trkpt>
      <trkpt lat="44.59854" lon="5.12445">
        <ele>395.8</ele>
        <time>2024-05-17T10:07:51Z</time>
      </trkpt>
      <trkpt lat="44.59852" lon="5.12447">
        <ele>395.9</ele>
        <time>2024-05-17T10:07:52Z</time>
      </trkpt>
      <trkpt lat="44.59847" lon="5.12449">
        <ele>396.1</ele>
        <time>2024-05-17T10:07:53Z</time>
      </trkpt>
      <trkpt lat="44.59842" lon="5.12451">
        <ele>396.2</ele>
        <time>2024-05-17T10:07:54Z</time>
      </trkpt>
      <trkpt lat="44.59837" lon="5.12453">
        <ele>396.4</ele>
        <time>2024-05-17T10:07:55Z</time>
      </trkpt>
      <trkpt lat="44.5983" lon="5.12456">
        <ele>396.6</ele>
        <time>2024-05-17T10:07:56Z</time>
      </trkpt>
      <trkpt lat="44.59828" lon="5.12457">
        <ele>396.7</ele>
        <time>2024-05-17T10:07:57Z</time>
      </trkpt>
      <trkpt lat="44.59824" lon="5.12459">
        <ele>396.8</ele>
        <time>2024-05-17T10:07:58Z</time>
      </trkpt>
      <trkpt lat="44.5982" lon="5.1246">
        <ele>397</ele>
        <time>2024-05-17T10:07:59Z</time>
      </trkpt>
      <trkpt lat="44.59816" lon="5.12461">
        <ele>397.1</ele>
        <time>2024-05-17T10:08:00Z</time>
      </trkpt>
      <trkpt lat="44.59812" lon="5.12462">
        <ele>397.3</ele>
        <time>2024-05-17T10:08:01Z</time>
      </trkpt>
      <trkpt lat="44.59808" lon="5.12464">
        <ele>397.4</ele>
        <time>2024-05-17T10:08:02Z</time>
      </trkpt>
      <trkpt lat="44.59804" lon="5.12465">
        <ele>397.5</ele>
        <time>2024-05-17T10:08:03Z</time>
      </trkpt>
      <trkpt lat="44.598" lon="5.12466">
        <ele>397.7</ele>
        <time>2024-05-17T10:08:04Z</time>
      </trkpt>
      <trkpt lat="44.59796" lon="5.12467">
        <ele>397.8</ele>
        <time>2024-05-17T10:08:05Z</time>
      </trkpt>
      <trkpt lat="44.59792" lon="5.12468">
        <ele>397.9</ele>
        <time>2024-05-17T10:08:06Z</time>
      </trkpt>
      <trkpt lat="44.59788" lon="5.1247">
        <ele>398</ele>
        <time>2024-05-17T10:08:07Z</time>
      </trkpt>
      <trkpt lat="44.59784" lon="5.12471">
        <ele>398.2</ele>
        <time>2024-05-17T10:08:08Z</time>
      </trkpt>
      <trkpt lat="44.5978" lon="5.12473">
        <ele>398.3</ele>
        <time>2024-05-17T10:08:09Z</time>
      </trkpt>
      <trkpt lat="44.59776" lon="5.12475">
        <ele>398.5</ele>
        <time>2024-05-17T10:08:10Z</time>
      </trkpt>
      <trkpt lat="44.5977" lon="5.12477">
        <ele>398.7</ele>
        <time>2024-05-17T10:08:11Z</time>
      </trkpt>
      <trkpt lat="44.59768" lon="5.12478">
        <ele>398.8</ele>
        <time>2024-05-17T10:08:12Z</time>
      </trkpt>
      <trkpt lat="44.59764" lon="5.1248">
        <ele>398.9</ele>
        <time>2024-05-17T10:08:13Z</time>
      </trkpt>
      <trkpt lat="44.5976" lon="5.12482">
        <ele>399.1</ele>
        <time>2024-05-17T10:08:14Z</time>
      </trkpt>
      <trkpt lat="44.59756" lon="5.12484">
        <ele>399.2</ele>
        <time>2024-05-17T10:08:15Z</time>
      </trkpt>
      <trkpt lat="44.59752" lon="5.12485">
        <ele>399.4</ele>
        <time>2024-05-17T10:08:16Z</time>
      </trkpt>
      <trkpt lat="44.59749" lon="5.12486">
        <ele>399.5</ele>
        <time>2024-05-17T10:08:17Z</time>
      </trkpt>
      <trkpt lat="44.59745" lon="5.12488">
        <ele>399.7</ele>
        <time>2024-05-17T10:08:18Z</time>
      </trkpt>
      <trkpt lat="44.59742" lon="5.1249">
        <ele>399.8</ele>
        <time>2024-05-17T10:08:19Z</time>
      </trkpt>
      <trkpt lat="44.59737" lon="5.12493">
        <ele>400</ele>
        <time>2024-05-17T10:08:20Z</time>
      </trkpt>
      <trkpt lat="44.59735" lon="5.12493">
        <ele>400</ele>
        <time>2024-05-17T10:08:21Z</time>
      </trkpt>
      <trkpt lat="44.59729" lon="5.12496">
        <ele>400.3</ele>
        <time>2024-05-17T10:08:22Z</time>
      </trkpt>
      <trkpt lat="44.59727" lon="5.12496">
        <ele>400.3</ele>
        <time>2024-05-17T10:08:23Z</time>
      </trkpt>
      <trkpt lat="44.59724" lon="5.12498">
        <ele>400.5</ele>
        <time>2024-05-17T10:08:24Z</time>
      </trkpt>
      <trkpt lat="44.59721" lon="5.125">
        <ele>400.6</ele>
        <time>2024-05-17T10:08:25Z</time>
      </trkpt>
      <trkpt lat="44.59716" lon="5.12503">
        <ele>400.8</ele>
        <time>2024-05-17T10:08:26Z</time>
      </trkpt>
      <trkpt lat="44.59714" lon="5.12505">
        <ele>400.8</ele>
        <time>2024-05-17T10:08:27Z</time>
      </trkpt>
      <trkpt lat="44.5971" lon="5.12509">
        <ele>401</ele>
        <time>2024-05-17T10:08:28Z</time>
      </trkpt>
      <trkpt lat="44.59708" lon="5.12511">
        <ele>401.1</ele>
        <time>2024-05-17T10:08:29Z</time>
      </trkpt>
      <trkpt lat="44.59703" lon="5.12515">
        <ele>401.2</ele>
        <time>2024-05-17T10:08:30Z</time>
      </trkpt>
      <trkpt lat="44.59701" lon="5.12516">
        <ele>401.3</ele>
        <time>2024-05-17T10:08:31Z</time>
      </trkpt>
      <trkpt lat="44.59698" lon="5.1252">
        <ele>401.4</ele>
        <time>2024-05-17T10:08:32Z</time>
      </trkpt>
      <trkpt lat="44.59692" lon="5.12525">
        <ele>401.6</ele>
        <time>2024-05-17T10:08:33Z</time>
      </trkpt>
      <trkpt lat="44.5969" lon="5.12527">
        <ele>401.7</ele>
        <time>2024-05-17T10:08:34Z</time>
      </trkpt>
      <trkpt lat="44.59685" lon="5.12533">
        <ele>401.9</ele>
        <time>2024-05-17T10:08:35Z</time>
      </trkpt>
      <trkpt lat="44.59683" lon="5.12535">
        <ele>402</ele>
        <time>2024-05-17T10:08:36Z</time>
      </trkpt>
      <trkpt lat="44.59677" lon="5.1254">
        <ele>402.2</ele>
        <time>2024-05-17T10:08:37Z</time>
      </trkpt>
      <trkpt lat="44.59676" lon="5.12542">
        <ele>402.3</ele>
        <time>2024-05-17T10:08:38Z</time>
      </trkpt>
      <trkpt lat="44.5967" lon="5.12548">
        <ele>402.5</ele>
        <time>2024-05-17T10:08:39Z</time>
      </trkpt>
      <trkpt lat="44.59669" lon="5.12549">
        <ele>402.5</ele>
        <time>2024-05-17T10:08:40Z</time>
      </trkpt>
      <trkpt lat="44.59665" lon="5.12553">
        <ele>402.7</ele>
        <time>2024-05-17T10:08:41Z</time>
      </trkpt>
      <trkpt lat="44.59661" lon="5.12557">
        <ele>402.8</ele>
        <time>2024-05-17T10:08:42Z</time>
      </trkpt>
      <trkpt lat="44.59658" lon="5.12561">
        <ele>402.9</ele>
        <time>2024-05-17T10:08:43Z</time>
      </trkpt>
      <trkpt lat="44.59654" lon="5.12565">
        <ele>403.1</ele>
        <time>2024-05-17T10:08:44Z</time>
      </trkpt>
      <trkpt lat="44.5965" lon="5.12569">
        <ele>403.3</ele>
        <time>2024-05-17T10:08:45Z</time>
      </trkpt>
      <trkpt lat="44.59646" lon="5.12573">
        <ele>403.4</ele>
        <time>2024-05-17T10:08:46Z</time>
      </trkpt>
      <trkpt lat="44.59643" lon="5.12577">
        <ele>403.5</ele>
        <time>2024-05-17T10:08:47Z</time>
      </trkpt>
      <trkpt lat="44.59639" lon="5.1258">
        <ele>403.7</ele>
        <time>2024-05-17T10:08:48Z</time>
      </trkpt>
      <trkpt lat="44.59636" lon="5.12584">
        <ele>403.8</ele>
        <time>2024-05-17T10:08:49Z</time>
      </trkpt>
      <trkpt lat="44.59632" lon="5.12587">
        <ele>404</ele>
        <time>2024-05-17T10:08:50Z</time>
      </trkpt>
      <trkpt lat="44.59629" lon="5.12591">
        <ele>404.1</ele>
        <time>2024-05-17T10:08:51Z</time>
      </trkpt>
      <trkpt lat="44.59625" lon="5.12595">
        <ele>404.3</ele>
        <time>2024-05-17T10:08:52Z</time>
      </trkpt>
      <trkpt lat="44.59621" lon="5.12599">
        <ele>404.5</ele>
        <time>2024-05-17T10:08:53Z</time>
      </trkpt>
      <trkpt lat="44.59618" lon="5.12603">
        <ele>404.7</ele>
        <time>2024-05-17T10:08:54Z</time>
      </trkpt>
      <trkpt lat="44.59612" lon="5.12609">
        <ele>405</ele>
        <time>2024-05-17T10:08:55Z</time>
      </trkpt>
      <trkpt lat="44.5961" lon="5.12611">
        <ele>405.1</ele>
        <time>2024-05-17T10:08:56Z</time>
      </trkpt>
      <trkpt lat="44.59605" lon="5.12617">
        <ele>405.4</ele>
        <time>2024-05-17T10:08:57Z</time>
      </trkpt>
      <trkpt lat="44.59603" lon="5.12619">
        <ele>405.5</ele>
        <time>2024-05-17T10:08:58Z</time>
      </trkpt>
      <trkpt lat="44.59599" lon="5.12623">
        <ele>405.7</ele>
        <time>2024-05-17T10:08:59Z</time>
      </trkpt>
      <trkpt lat="44.59596" lon="5.12627">
        <ele>405.9</ele>
        <time>2024-05-17T10:09:00Z</time>
      </trkpt>
      <trkpt lat="44.59592" lon="5.1263">
        <ele>406</ele>
        <time>2024-05-17T10:09:01Z</time>
      </trkpt>
      <trkpt lat="44.59587" lon="5.12635">
        <ele>406.3</ele>
        <time>2024-05-17T10:09:02Z</time>
      </trkpt>
      <trkpt lat="44.59585" lon="5.12636">
        <ele>406.4</ele>
        <time>2024-05-17T10:09:03Z</time>
      </trkpt>
      <trkpt lat="44.59581" lon="5.1264">
        <ele>406.6</ele>
        <time>2024-05-17T10:09:04Z</time>
      </trkpt>
      <trkpt lat="44.59578" lon="5.12643">
        <ele>406.8</ele>
        <time>2024-05-17T10:09:05Z</time>
      </trkpt>
      <trkpt lat="44.59573" lon="5.12646">
        <ele>406.9</ele>
        <time>2024-05-17T10:09:06Z</time>
      </trkpt>
      <trkpt lat="44.59568" lon="5.12651">
        <ele>407.2</ele>
        <time>2024-05-17T10:09:07Z</time>
      </trkpt>
      <trkpt lat="44.59566" lon="5.12652">
        <ele>407.3</ele>
        <time>2024-05-17T10:09:08Z</time>
      </trkpt>
      <trkpt lat="44.5956" lon="5.12657">
        <ele>407.6</ele>
        <time>2024-05-17T10:09:09Z</time>
      </trkpt>
      <trkpt lat="44.59558" lon="5.12659">
        <ele>407.7</ele>
        <time>2024-05-17T10:09:10Z</time>
      </trkpt>
      <trkpt lat="44.59552" lon="5.12664">
        <ele>408</ele>
        <time>2024-05-17T10:09:11Z</time>
      </trkpt>
      <trkpt lat="44.5955" lon="5.12666">
        <ele>408.1</ele>
        <time>2024-05-17T10:09:12Z</time>
      </trkpt>
      <trkpt lat="44.59544" lon="5.12671">
        <ele>408.4</ele>
        <time>2024-05-17T10:09:13Z</time>
      </trkpt>
      <trkpt lat="44.59542" lon="5.12672">
        <ele>408.5</ele>
        <time>2024-05-17T10:09:14Z</time>
      </trkpt>
      <trkpt lat="44.59538" lon="5.12676">
        <ele>408.7</ele>
        <time>2024-05-17T10:09:15Z</time>
      </trkpt>
      <trkpt lat="44.59532" lon="5.1268">
        <ele>409</ele>
        <time>2024-05-17T10:09:16Z</time>
      </trkpt>
      <trkpt lat="44.5953" lon="5.12681">
        <ele>409.1</ele>
        <time>2024-05-17T10:09:17Z</time>
      </trkpt>
      <trkpt lat="44.59525" lon="5.12686">
        <ele>409.4</ele>
        <time>2024-05-17T10:09:18Z</time>
      </trkpt>
      <trkpt lat="44.59523" lon="5.12687">
        <ele>409.5</ele>
        <time>2024-05-17T10:09:19Z</time>
      </trkpt>
      <trkpt lat="44.59517" lon="5.12692">
        <ele>409.8</ele>
        <time>2024-05-17T10:09:20Z</time>
      </trkpt>
      <trkpt lat="44.59515" lon="5.12693">
        <ele>409.9</ele>
        <time>2024-05-17T10:09:21Z</time>
      </trkpt>
      <trkpt lat="44.59511" lon="5.12696">
        <ele>410</ele>
        <time>2024-05-17T10:09:22Z</time>
      </trkpt>
      <trkpt lat="44.59505" lon="5.127">
        <ele>410.3</ele>
        <time>2024-05-17T10:09:23Z</time>
      </trkpt>
      <trkpt lat="44.59503" lon="5.12702">
        <ele>410.4</ele>
        <time>2024-05-17T10:09:24Z</time>
      </trkpt>
      <trkpt lat="44.59499" lon="5.12705">
        <ele>410.5</ele>
        <time>2024-05-17T10:09:25Z</time>
      </trkpt>
      <trkpt lat="44.59496" lon="5.12708">
        <ele>410.7</ele>
        <time>2024-05-17T10:09:26Z</time>
      </trkpt>
      <trkpt lat="44.59492" lon="5.12711">
        <ele>410.8</ele>
        <time>2024-05-17T10:09:27Z</time>
      </trkpt>
      <trkpt lat="44.59489" lon="5.12715">
        <ele>411</ele>
        <time>2024-05-17T10:09:28Z</time>
      </trkpt>
      <trkpt lat="44.59485" lon="5.12718">
        <ele>411.1</ele>
        <time>2024-05-17T10:09:29Z</time>
      </trkpt>
      <trkpt lat="44.59481" lon="5.12721">
        <ele>411.3</ele>
        <time>2024-05-17T10:09:30Z</time>
      </trkpt>
      <trkpt lat="44.59477" lon="5.12723">
        <ele>411.4</ele>
        <time>2024-05-17T10:09:31Z</time>
      </trkpt>
      <trkpt lat="44.59473" lon="5.12725">
        <ele>411.5</ele>
        <time>2024-05-17T10:09:32Z</time>
      </trkpt>
      <trkpt lat="44.59469" lon="5.12727">
        <ele>411.7</ele>
        <time>2024-05-17T10:09:33Z</time>
      </trkpt>
      <trkpt lat="44.59466" lon="5.1273">
        <ele>411.9</ele>
        <time>2024-05-17T10:09:34Z</time>
      </trkpt>
      <trkpt lat="44.59462" lon="5.12732">
        <ele>412</ele>
        <time>2024-05-17T10:09:35Z</time>
      </trkpt>
      <trkpt lat="44.59457" lon="5.12734">
        <ele>412.2</ele>
        <time>2024-05-17T10:09:36Z</time>
      </trkpt>
      <trkpt lat="44.59451" lon="5.12737">
        <ele>412.5</ele>
        <time>2024-05-17T10:09:37Z</time>
      </trkpt>
      <trkpt lat="44.59449" lon="5.12739">
        <ele>412.5</ele>
        <time>2024-05-17T10:09:38Z</time>
      </trkpt>
      <trkpt lat="44.59445" lon="5.12741">
        <ele>412.7</ele>
        <time>2024-05-17T10:09:39Z</time>
      </trkpt>
      <trkpt lat="44.59441" lon="5.12744">
        <ele>412.9</ele>
        <time>2024-05-17T10:09:40Z</time>
      </trkpt>
      <trkpt lat="44.59437" lon="5.12746">
        <ele>413</ele>
        <time>2024-05-17T10:09:41Z</time>
      </trkpt>
      <trkpt lat="44.59433" lon="5.12749">
        <ele>413.2</ele>
        <time>2024-05-17T10:09:42Z</time>
      </trkpt>
      <trkpt lat="44.59429" lon="5.12751">
        <ele>413.3</ele>
        <time>2024-05-17T10:09:43Z</time>
      </trkpt>
      <trkpt lat="44.59425" lon="5.12753">
        <ele>413.5</ele>
        <time>2024-05-17T10:09:44Z</time>
      </trkpt>
      <trkpt lat="44.59421" lon="5.12755">
        <ele>413.6</ele>
        <time>2024-05-17T10:09:45Z</time>
      </trkpt>
      <trkpt lat="44.59417" lon="5.12758">
        <ele>413.8</ele>
        <time>2024-05-17T10:09:46Z</time>
      </trkpt>
      <trkpt lat="44.59413" lon="5.1276">
        <ele>414</ele>
        <time>2024-05-17T10:09:47Z</time>
      </trkpt>
      <trkpt lat="44.59409" lon="5.12762">
        <ele>414.1</ele>
        <time>2024-05-17T10:09:48Z</time>
      </trkpt>
      <trkpt lat="44.59404" lon="5.12764">
        <ele>414.3</ele>
        <time>2024-05-17T10:09:49Z</time>
      </trkpt>
      <trkpt lat="44.59398" lon="5.12766">
        <ele>414.6</ele>
        <time>2024-05-17T10:09:50Z</time>
      </trkpt>
      <trkpt lat="44.59396" lon="5.12767">
        <ele>414.7</ele>
        <time>2024-05-17T10:09:51Z</time>
      </trkpt>
      <trkpt lat="44.5939" lon="5.1277">
        <ele>414.9</ele>
        <time>2024-05-17T10:09:52Z</time>
      </trkpt>
      <trkpt lat="44.59387" lon="5.12771">
        <ele>415</ele>
        <time>2024-05-17T10:09:53Z</time>
      </trkpt>
      <trkpt lat="44.59381" lon="5.12774">
        <ele>415.2</ele>
        <time>2024-05-17T10:09:54Z</time>
      </trkpt>
      <trkpt lat="44.59379" lon="5.12775">
        <ele>415.3</ele>
        <time>2024-05-17T10:09:55Z</time>
      </trkpt>
      <trkpt lat="44.59373" lon="5.12778">
        <ele>415.5</ele>
        <time>2024-05-17T10:09:56Z</time>
      </trkpt>
      <trkpt lat="44.5937" lon="5.12779">
        <ele>415.6</ele>
        <time>2024-05-17T10:09:57Z</time>
      </trkpt>
      <trkpt lat="44.59364" lon="5.12781">
        <ele>415.9</ele>
        <time>2024-05-17T10:09:58Z</time>
      </trkpt>
      <trkpt lat="44.59361" lon="5.12781">
        <ele>415.9</ele>
        <time>2024-05-17T10:09:59Z</time>
      </trkpt>
      <trkpt lat="44.59357" lon="5.12782">
        <ele>416.1</ele>
        <time>2024-05-17T10:10:00Z</time>
      </trkpt>
      <trkpt lat="44.59349" lon="5.12784">
        <ele>416.3</ele>
        <time>2024-05-17T10:10:01Z</time>
      </trkpt>
      <trkpt lat="44.59346" lon="5.12784">
        <ele>416.4</ele>
        <time>2024-05-17T10:10:02Z</time>
      </trkpt>
      <trkpt lat="44.59339" lon="5.12785">
        <ele>416.6</ele>
        <time>2024-05-17T10:10:03Z</time>
      </trkpt>
      <trkpt lat="44.59336" lon="5.12786">
        <ele>416.7</ele>
        <time>2024-05-17T10:10:04Z</time>
      </trkpt>
      <trkpt lat="44.59331" lon="5.12787">
        <ele>416.8</ele>
        <time>2024-05-17T10:10:05Z</time>
      </trkpt>
      <trkpt lat="44.59325" lon="5.12788">
        <ele>417</ele>
        <time>2024-05-17T10:10:06Z</time>
      </trkpt>
      <trkpt lat="44.59322" lon="5.12788">
        <ele>417</ele>
        <time>2024-05-17T10:10:07Z</time>
      </trkpt>
      <trkpt lat="44.59318" lon="5.12789">
        <ele>417.1</ele>
        <time>2024-05-17T10:10:08Z</time>
      </trkpt>
      <trkpt lat="44.59313" lon="5.1279">
        <ele>417.2</ele>
        <time>2024-05-17T10:10:09Z</time>
      </trkpt>
      <trkpt lat="44.59309" lon="5.12791">
        <ele>417.2</ele>
        <time>2024-05-17T10:10:10Z</time>
      </trkpt>
      <trkpt lat="44.59304" lon="5.12793">
        <ele>417.3</ele>
        <time>2024-05-17T10:10:11Z</time>
      </trkpt>
      <trkpt lat="44.59299" lon="5.12794">
        <ele>417.3</ele>
        <time>2024-05-17T10:10:12Z</time>
      </trkpt>
      <trkpt lat="44.59294" lon="5.12796">
        <ele>417.3</ele>
        <time>2024-05-17T10:10:13Z</time>
      </trkpt>
      <trkpt lat="44.5929" lon="5.12799">
        <ele>417.3</ele>
        <time>2024-05-17T10:10:14Z</time>
      </trkpt>
      <trkpt lat="44.59285" lon="5.12802">
        <ele>417.3</ele>
        <time>2024-05-17T10:10:15Z</time>
      </trkpt>
      <trkpt lat="44.59281" lon="5.12806">
        <ele>417.3</ele>
        <time>2024-05-17T10:10:16Z</time>
      </trkpt>
      <trkpt lat="44.59275" lon="5.12812">
        <ele>417.2</ele>
        <time>2024-05-17T10:10:17Z</time>
      </trkpt>
      <trkpt lat="44.59272" lon="5.12814">
        <ele>417.2</ele>
        <time>2024-05-17T10:10:18Z</time>
      </trkpt>
      <trkpt lat="44.59266" lon="5.12822">
        <ele>417</ele>
        <time>2024-05-17T10:10:19Z</time>
      </trkpt>
      <trkpt lat="44.59264" lon="5.12825">
        <ele>417</ele>
        <time>2024-05-17T10:10:20Z</time>
      </trkpt>
      <trkpt lat="44.59258" lon="5.12834">
        <ele>416.7</ele>
        <time>2024-05-17T10:10:21Z</time>
      </trkpt>
      <trkpt lat="44.59256" lon="5.12837">
        <ele>416.6</ele>
        <time>2024-05-17T10:10:22Z</time>
      </trkpt>
      <trkpt lat="44.59253" lon="5.12844">
        <ele>416.4</ele>
        <time>2024-05-17T10:10:23Z</time>
      </trkpt>
      <trkpt lat="44.59249" lon="5.12851">
        <ele>416.2</ele>
        <time>2024-05-17T10:10:24Z</time>
      </trkpt>
      <trkpt lat="44.59247" lon="5.12859">
        <ele>416</ele>
        <time>2024-05-17T10:10:25Z</time>
      </trkpt>
      <trkpt lat="44.59244" lon="5.12867">
        <ele>415.8</ele>
        <time>2024-05-17T10:10:26Z</time>
      </trkpt>
      <trkpt lat="44.59242" lon="5.12876">
        <ele>415.6</ele>
        <time>2024-05-17T10:10:27Z</time>
      </trkpt>
      <trkpt lat="44.59239" lon="5.12886">
        <ele>415.4</ele>
        <time>2024-05-17T10:10:28Z</time>
      </trkpt>
      <trkpt lat="44.59237" lon="5.12895">
        <ele>415.1</ele>
        <time>2024-05-17T10:10:29Z</time>
      </trkpt>
      <trkpt lat="44.59235" lon="5.12905">
        <ele>414.8</ele>
        <time>2024-05-17T10:10:30Z</time>
      </trkpt>
      <trkpt lat="44.59232" lon="5.1292">
        <ele>414.4</ele>
        <time>2024-05-17T10:10:31Z</time>
      </trkpt>
      <trkpt lat="44.59232" lon="5.12926">
        <ele>414.2</ele>
        <time>2024-05-17T10:10:32Z</time>
      </trkpt>
      <trkpt lat="44.5923" lon="5.12936">
        <ele>413.9</ele>
        <time>2024-05-17T10:10:33Z</time>
      </trkpt>
      <trkpt lat="44.59229" lon="5.12953">
        <ele>413.4</ele>
        <time>2024-05-17T10:10:34Z</time>
      </trkpt>
      <trkpt lat="44.59229" lon="5.12958">
        <ele>413.2</ele>
        <time>2024-05-17T10:10:35Z</time>
      </trkpt>
      <trkpt lat="44.59229" lon="5.12969">
        <ele>412.8</ele>
        <time>2024-05-17T10:10:36Z</time>
      </trkpt>
      <trkpt lat="44.59229" lon="5.12987">
        <ele>412.3</ele>
        <time>2024-05-17T10:10:37Z</time>
      </trkpt>
      <trkpt lat="44.59229" lon="5.12993">
        <ele>412.1</ele>
        <time>2024-05-17T10:10:38Z</time>
      </trkpt>
      <trkpt lat="44.5923" lon="5.13011">
        <ele>411.5</ele>
        <time>2024-05-17T10:10:39Z</time>
      </trkpt>
      <trkpt lat="44.5923" lon="5.13017">
        <ele>411.3</ele>
        <time>2024-05-17T10:10:40Z</time>
      </trkpt>
      <trkpt lat="44.59231" lon="5.13029">
        <ele>410.9</ele>
        <time>2024-05-17T10:10:41Z</time>
      </trkpt>
      <trkpt lat="44.59232" lon="5.13048">
        <ele>410.3</ele>
        <time>2024-05-17T10:10:42Z</time>
      </trkpt>
      <trkpt lat="44.59232" lon="5.13054">
        <ele>410.1</ele>
        <time>2024-05-17T10:10:43Z</time>
      </trkpt>
      <trkpt lat="44.59233" lon="5.13073">
        <ele>409.6</ele>
        <time>2024-05-17T10:10:44Z</time>
      </trkpt>
      <trkpt lat="44.59233" lon="5.1308">
        <ele>409.4</ele>
        <time>2024-05-17T10:10:45Z</time>
      </trkpt>
      <trkpt lat="44.59232" lon="5.13099">
        <ele>409</ele>
        <time>2024-05-17T10:10:46Z</time>
      </trkpt>
      <trkpt lat="44.59231" lon="5.13105">
        <ele>408.9</ele>
        <time>2024-05-17T10:10:47Z</time>
      </trkpt>
      <trkpt lat="44.5923" lon="5.13117">
        <ele>408.7</ele>
        <time>2024-05-17T10:10:48Z</time>
      </trkpt>
      <trkpt lat="44.59223" lon="5.13134">
        <ele>408.7</ele>
        <time>2024-05-17T10:10:49Z</time>
      </trkpt>
      <trkpt lat="44.59221" lon="5.13139">
        <ele>408.7</ele>
        <time>2024-05-17T10:10:50Z</time>
      </trkpt>
      <trkpt lat="44.59216" lon="5.13149">
        <ele>408.7</ele>
        <time>2024-05-17T10:10:51Z</time>
      </trkpt>
      <trkpt lat="44.59207" lon="5.1316">
        <ele>408.7</ele>
        <time>2024-05-17T10:10:52Z</time>
      </trkpt>
      <trkpt lat="44.59203" lon="5.13164">
        <ele>408.7</ele>
        <time>2024-05-17T10:10:53Z</time>
      </trkpt>
      <trkpt lat="44.59197" lon="5.1317">
        <ele>408.8</ele>
        <time>2024-05-17T10:10:54Z</time>
      </trkpt>
      <trkpt lat="44.5919" lon="5.13175">
        <ele>408.8</ele>
        <time>2024-05-17T10:10:55Z</time>
      </trkpt>
      <trkpt lat="44.59183" lon="5.13178">
        <ele>408.9</ele>
        <time>2024-05-17T10:10:56Z</time>
      </trkpt>
      <trkpt lat="44.59176" lon="5.1318">
        <ele>408.9</ele>
        <time>2024-05-17T10:10:57Z</time>
      </trkpt>
      <trkpt lat="44.5917" lon="5.13182">
        <ele>409</ele>
        <time>2024-05-17T10:10:58Z</time>
      </trkpt>
      <trkpt lat="44.59163" lon="5.13183">
        <ele>409</ele>
        <time>2024-05-17T10:10:59Z</time>
      </trkpt>
      <trkpt lat="44.59156" lon="5.13183">
        <ele>409.1</ele>
        <time>2024-05-17T10:11:00Z</time>
      </trkpt>
      <trkpt lat="44.5915" lon="5.13183">
        <ele>409.2</ele>
        <time>2024-05-17T10:11:01Z</time>
      </trkpt>
      <trkpt lat="44.59141" lon="5.13184">
        <ele>409.3</ele>
        <time>2024-05-17T10:11:02Z</time>
      </trkpt>
      <trkpt lat="44.59138" lon="5.13185">
        <ele>409.3</ele>
        <time>2024-05-17T10:11:03Z</time>
      </trkpt>
      <trkpt lat="44.59129" lon="5.13188">
        <ele>409.4</ele>
        <time>2024-05-17T10:11:04Z</time>
      </trkpt>
      <trkpt lat="44.59126" lon="5.13188">
        <ele>409.5</ele>
        <time>2024-05-17T10:11:05Z</time>
      </trkpt>
      <trkpt lat="44.59121" lon="5.13189">
        <ele>409.6</ele>
        <time>2024-05-17T10:11:06Z</time>
      </trkpt>
      <trkpt lat="44.59115" lon="5.13191">
        <ele>409.6</ele>
        <time>2024-05-17T10:11:07Z</time>
      </trkpt>
      <trkpt lat="44.59109" lon="5.13197">
        <ele>409.7</ele>
        <time>2024-05-17T10:11:08Z</time>
      </trkpt>
      <trkpt lat="44.59108" lon="5.132">
        <ele>409.6</ele>
        <time>2024-05-17T10:11:09Z</time>
      </trkpt>
      <trkpt lat="44.59107" lon="5.13206">
        <ele>409.6</ele>
        <time>2024-05-17T10:11:10Z</time>
      </trkpt>
      <trkpt lat="44.59108" lon="5.13212">
        <ele>409.6</ele>
        <time>2024-05-17T10:11:11Z</time>
      </trkpt>
      <trkpt lat="44.5911" lon="5.13218">
        <ele>409.6</ele>
        <time>2024-05-17T10:11:12Z</time>
      </trkpt>
      <trkpt lat="44.59111" lon="5.13224">
        <ele>409.5</ele>
        <time>2024-05-17T10:11:13Z</time>
      </trkpt>
      <trkpt lat="44.59112" lon="5.1323">
        <ele>409.5</ele>
        <time>2024-05-17T10:11:14Z</time>
      </trkpt>
      <trkpt lat="44.59113" lon="5.13236">
        <ele>409.5</ele>
        <time>2024-05-17T10:11:15Z</time>
      </trkpt>
      <trkpt lat="44.59114" lon="5.13243">
        <ele>409.4</ele>
        <time>2024-05-17T10:11:16Z</time>
      </trkpt>
      <trkpt lat="44.59115" lon="5.13252">
        <ele>409.4</ele>
        <time>2024-05-17T10:11:17Z</time>
      </trkpt>
      <trkpt lat="44.59115" lon="5.13255">
        <ele>409.4</ele>
        <time>2024-05-17T10:11:18Z</time>
      </trkpt>
      <trkpt lat="44.59116" lon="5.13261">
        <ele>409.4</ele>
        <time>2024-05-17T10:11:19Z</time>
      </trkpt>
      <trkpt lat="44.59117" lon="5.13269">
        <ele>409.3</ele>
        <time>2024-05-17T10:11:20Z</time>
      </trkpt>
      <trkpt lat="44.59118" lon="5.13271">
        <ele>409.3</ele>
        <time>2024-05-17T10:11:21Z</time>
      </trkpt>
      <trkpt lat="44.59118" lon="5.13276">
        <ele>409.3</ele>
        <time>2024-05-17T10:11:22Z</time>
      </trkpt>
      <trkpt lat="44.59119" lon="5.13278">
        <ele>409.3</ele>
        <time>2024-05-17T10:11:23Z</time>
      </trkpt>
      <trkpt lat="44.59119" lon="5.13279">
        <ele>409.3</ele>
        <time>2024-05-17T10:11:24Z</time>
      </trkpt>
      <trkpt lat="44.5912" lon="5.13281">
        <ele>409.3</ele>
        <time>2024-05-17T10:11:25Z</time>
      </trkpt>
      <trkpt lat="44.5912" lon="5.13283">
        <ele>409.3</ele>
        <time>2024-05-17T10:12:28Z</time>
      </trkpt>
      <trkpt lat="44.5912" lon="5.13284">
        <ele>409.3</ele>
        <time>2024-05-17T10:12:29Z</time>
      </trkpt>
      <trkpt lat="44.59121" lon="5.13286">
        <ele>409.3</ele>
        <time>2024-05-17T10:12:30Z</time>
      </trkpt>
      <trkpt lat="44.59121" lon="5.13289">
        <ele>409.3</ele>
        <time>2024-05-17T10:12:31Z</time>
      </trkpt>
      <trkpt lat="44.59122" lon="5.13296">
        <ele>409.4</ele>
        <time>2024-05-17T10:12:32Z</time>
      </trkpt>
      <trkpt lat="44.59122" lon="5.13298">
        <ele>409.4</ele>
        <time>2024-05-17T10:12:33Z</time>
      </trkpt>
      <trkpt lat="44.59123" lon="5.13302">
        <ele>409.4</ele>
        <time>2024-05-17T10:12:34Z</time>
      </trkpt>
      <trkpt lat="44.59124" lon="5.13307">
        <ele>409.4</ele>
        <time>2024-05-17T10:12:35Z</time>
      </trkpt>
      <trkpt lat="44.59125" lon="5.13312">
        <ele>409.5</ele>
        <time>2024-05-17T10:12:36Z</time>
      </trkpt>
      <trkpt lat="44.59126" lon="5.13317">
        <ele>409.5</ele>
        <time>2024-05-17T10:12:37Z</time>
      </trkpt>
      <trkpt lat="44.59126" lon="5.13322">
        <ele>409.5</ele>
        <time>2024-05-17T10:12:38Z</time>
      </trkpt>
      <trkpt lat="44.59127" lon="5.13327">
        <ele>409.5</ele>
        <time>2024-05-17T10:12:39Z</time>
      </trkpt>
      <trkpt lat="44.59128" lon="5.13333">
        <ele>409.6</ele>
        <time>2024-05-17T10:12:40Z</time>
      </trkpt>
      <trkpt lat="44.5913" lon="5.13341">
        <ele>409.6</ele>
        <time>2024-05-17T10:12:41Z</time>
      </trkpt>
      <trkpt lat="44.5913" lon="5.13344">
        <ele>409.6</ele>
        <time>2024-05-17T10:12:42Z</time>
      </trkpt>
      <trkpt lat="44.59132" lon="5.13352">
        <ele>409.7</ele>
        <time>2024-05-17T10:12:43Z</time>
      </trkpt>
      <trkpt lat="44.59132" lon="5.13355">
        <ele>409.7</ele>
        <time>2024-05-17T10:12:44Z</time>
      </trkpt>
      <trkpt lat="44.59133" lon="5.13364">
        <ele>409.8</ele>
        <time>2024-05-17T10:12:45Z</time>
      </trkpt>
      <trkpt lat="44.59134" lon="5.13367">
        <ele>409.8</ele>
        <time>2024-05-17T10:12:46Z</time>
      </trkpt>
      <trkpt lat="44.59135" lon="5.13373">
        <ele>409.9</ele>
        <time>2024-05-17T10:12:47Z</time>
      </trkpt>
      <trkpt lat="44.59136" lon="5.13379">
        <ele>409.9</ele>
        <time>2024-05-17T10:12:48Z</time>
      </trkpt>
      <trkpt lat="44.59137" lon="5.13385">
        <ele>410</ele>
        <time>2024-05-17T10:12:49Z</time>
      </trkpt>
      <trkpt lat="44.59138" lon="5.1339">
        <ele>410</ele>
        <time>2024-05-17T10:12:50Z</time>
      </trkpt>
      <trkpt lat="44.59139" lon="5.13396">
        <ele>410.1</ele>
        <time>2024-05-17T10:12:51Z</time>
      </trkpt>
      <trkpt lat="44.5914" lon="5.13402">
        <ele>410.2</ele>
        <time>2024-05-17T10:12:52Z</time>
      </trkpt>
      <trkpt lat="44.59141" lon="5.13408">
        <ele>410.2</ele>
        <time>2024-05-17T10:12:53Z</time>
      </trkpt>
      <trkpt lat="44.59141" lon="5.13414">
        <ele>410.3</ele>
        <time>2024-05-17T10:12:54Z</time>
      </trkpt>
      <trkpt lat="44.59142" lon="5.1342">
        <ele>410.4</ele>
        <time>2024-05-17T10:12:55Z</time>
      </trkpt>
      <trkpt lat="44.59143" lon="5.13426">
        <ele>410.4</ele>
        <time>2024-05-17T10:12:56Z</time>
      </trkpt>
      <trkpt lat="44.59144" lon="5.13432">
        <ele>410.5</ele>
        <time>2024-05-17T10:12:57Z</time>
      </trkpt>
      <trkpt lat="44.59144" lon="5.13438">
        <ele>410.6</ele>
        <time>2024-05-17T10:12:58Z</time>
      </trkpt>
      <trkpt lat="44.59145" lon="5.13447">
        <ele>410.8</ele>
        <time>2024-05-17T10:12:59Z</time>
      </trkpt>
      <trkpt lat="44.59145" lon="5.13449">
        <ele>410.8</ele>
        <time>2024-05-17T10:13:00Z</time>
      </trkpt>
      <trkpt lat="44.59146" lon="5.13458">
        <ele>411</ele>
        <time>2024-05-17T10:13:01Z</time>
      </trkpt>
      <trkpt lat="44.59146" lon="5.13461">
        <ele>411.1</ele>
        <time>2024-05-17T10:13:02Z</time>
      </trkpt>
      <trkpt lat="44.59147" lon="5.1347">
        <ele>411.3</ele>
        <time>2024-05-17T10:13:03Z</time>
      </trkpt>
      <trkpt lat="44.59147" lon="5.13473">
        <ele>411.3</ele>
        <time>2024-05-17T10:13:04Z</time>
      </trkpt>
      <trkpt lat="44.59147" lon="5.13478">
        <ele>411.4</ele>
        <time>2024-05-17T10:13:05Z</time>
      </trkpt>
      <trkpt lat="44.59148" lon="5.13486">
        <ele>411.6</ele>
        <time>2024-05-17T10:13:06Z</time>
      </trkpt>
      <trkpt lat="44.59149" lon="5.13489">
        <ele>411.7</ele>
        <time>2024-05-17T10:13:07Z</time>
      </trkpt>
      <trkpt lat="44.5915" lon="5.13497">
        <ele>411.8</ele>
        <time>2024-05-17T10:13:08Z</time>
      </trkpt>
      <trkpt lat="44.5915" lon="5.13499">
        <ele>411.9</ele>
        <time>2024-05-17T10:13:09Z</time>
      </trkpt>
      <trkpt lat="44.59152" lon="5.13507">
        <ele>412</ele>
        <time>2024-05-17T10:13:10Z</time>
      </trkpt>
      <trkpt lat="44.59152" lon="5.1351">
        <ele>412.1</ele>
        <time>2024-05-17T10:13:11Z</time>
      </trkpt>
      <trkpt lat="44.59153" lon="5.13515">
        <ele>412.2</ele>
        <time>2024-05-17T10:13:12Z</time>
      </trkpt>
      <trkpt lat="44.59155" lon="5.13523">
        <ele>412.4</ele>
        <time>2024-05-17T10:13:13Z</time>
      </trkpt>
      <trkpt lat="44.59156" lon="5.13525">
        <ele>412.4</ele>
        <time>2024-05-17T10:13:14Z</time>
      </trkpt>
      <trkpt lat="44.59158" lon="5.1353">
        <ele>412.5</ele>
        <time>2024-05-17T10:13:15Z</time>
      </trkpt>
      <trkpt lat="44.5916" lon="5.13535">
        <ele>412.6</ele>
        <time>2024-05-17T10:13:16Z</time>
      </trkpt>
      <trkpt lat="44.59161" lon="5.13539">
        <ele>412.7</ele>
        <time>2024-05-17T10:13:17Z</time>
      </trkpt>
      <trkpt lat="44.59163" lon="5.13544">
        <ele>412.8</ele>
        <time>2024-05-17T10:13:18Z</time>
      </trkpt>
      <trkpt lat="44.59165" lon="5.13548">
        <ele>412.9</ele>
        <time>2024-05-17T10:13:19Z</time>
      </trkpt>
      <trkpt lat="44.59169" lon="5.13555">
        <ele>413</ele>
        <time>2024-05-17T10:13:20Z</time>
      </trkpt>
      <trkpt lat="44.5917" lon="5.13557">
        <ele>413</ele>
        <time>2024-05-17T10:13:21Z</time>
      </trkpt>
      <trkpt lat="44.59174" lon="5.13565">
        <ele>413.2</ele>
        <time>2024-05-17T10:13:22Z</time>
      </trkpt>
      <trkpt lat="44.59175" lon="5.13567">
        <ele>413.2</ele>
        <time>2024-05-17T10:13:23Z</time>
      </trkpt>
      <trkpt lat="44.59179" lon="5.13575">
        <ele>413.3</ele>
        <time>2024-05-17T10:13:24Z</time>
      </trkpt>
      <trkpt lat="44.5918" lon="5.13577">
        <ele>413.4</ele>
        <time>2024-05-17T10:13:25Z</time>
      </trkpt>
      <trkpt lat="44.59183" lon="5.13584">
        <ele>413.5</ele>
        <time>2024-05-17T10:13:26Z</time>
      </trkpt>
      <trkpt lat="44.59185" lon="5.13586">
        <ele>413.5</ele>
        <time>2024-05-17T10:13:27Z</time>
      </trkpt>
      <trkpt lat="44.59188" lon="5.13594">
        <ele>413.6</ele>
        <time>2024-05-17T10:13:28Z</time>
      </trkpt>
      <trkpt lat="44.59189" lon="5.13596">
        <ele>413.7</ele>
        <time>2024-05-17T10:13:29Z</time>
      </trkpt>
      <trkpt lat="44.59191" lon="5.13601">
        <ele>413.7</ele>
        <time>2024-05-17T10:13:30Z</time>
      </trkpt>
      <trkpt lat="44.59193" lon="5.13606">
        <ele>413.8</ele>
        <time>2024-05-17T10:13:31Z</time>
      </trkpt>
      <trkpt lat="44.59196" lon="5.13614">
        <ele>413.9</ele>
        <time>2024-05-17T10:13:32Z</time>
      </trkpt>
      <trkpt lat="44.59197" lon="5.13617">
        <ele>414</ele>
        <time>2024-05-17T10:13:33Z</time>
      </trkpt>
      <trkpt lat="44.592" lon="5.13625">
        <ele>414.1</ele>
        <time>2024-05-17T10:13:34Z</time>
      </trkpt>
      <trkpt lat="44.59201" lon="5.13628">
        <ele>414.1</ele>
        <time>2024-05-17T10:13:35Z</time>
      </trkpt>
      <trkpt lat="44.59204" lon="5.13635">
        <ele>414.2</ele>
        <time>2024-05-17T10:13:36Z</time>
      </trkpt>
      <trkpt lat="44.59205" lon="5.13638">
        <ele>414.3</ele>
        <time>2024-05-17T10:13:37Z</time>
      </trkpt>
      <trkpt lat="44.59206" lon="5.13643">
        <ele>414.4</ele>
        <time>2024-05-17T10:13:38Z</time>
      </trkpt>
      <trkpt lat="44.59209" lon="5.13651">
        <ele>414.5</ele>
        <time>2024-05-17T10:13:39Z</time>
      </trkpt>
      <trkpt lat="44.59209" lon="5.13654">
        <ele>414.6</ele>
        <time>2024-05-17T10:13:40Z</time>
      </trkpt>
      <trkpt lat="44.59212" lon="5.13661">
        <ele>414.7</ele>
        <time>2024-05-17T10:13:41Z</time>
      </trkpt>
      <trkpt lat="44.59213" lon="5.13664">
        <ele>414.8</ele>
        <time>2024-05-17T10:13:42Z</time>
      </trkpt>
      <trkpt lat="44.59214" lon="5.13668">
        <ele>414.9</ele>
        <time>2024-05-17T10:13:43Z</time>
      </trkpt>
      <trkpt lat="44.59216" lon="5.13673">
        <ele>415</ele>
        <time>2024-05-17T10:13:44Z</time>
      </trkpt>
      <trkpt lat="44.59219" lon="5.13679">
        <ele>415.2</ele>
        <time>2024-05-17T10:13:45Z</time>
      </trkpt>
      <trkpt lat="44.5922" lon="5.13682">
        <ele>415.2</ele>
        <time>2024-05-17T10:13:46Z</time>
      </trkpt>
      <trkpt lat="44.59222" lon="5.13688">
        <ele>415.4</ele>
        <time>2024-05-17T10:13:47Z</time>
      </trkpt>
      <trkpt lat="44.59223" lon="5.1369">
        <ele>415.5</ele>
        <time>2024-05-17T10:13:48Z</time>
      </trkpt>
      <trkpt lat="44.59224" lon="5.13694">
        <ele>415.6</ele>
        <time>2024-05-17T10:13:49Z</time>
      </trkpt>
      <trkpt lat="44.59227" lon="5.137">
        <ele>415.8</ele>
        <time>2024-05-17T10:13:50Z</time>
      </trkpt>
      <trkpt lat="44.59228" lon="5.13702">
        <ele>415.9</ele>
        <time>2024-05-17T10:13:51Z</time>
      </trkpt>
      <trkpt lat="44.59231" lon="5.13707">
        <ele>416.1</ele>
        <time>2024-05-17T10:13:52Z</time>
      </trkpt>
      <trkpt lat="44.59232" lon="5.13709">
        <ele>416.2</ele>
        <time>2024-05-17T10:13:53Z</time>
      </trkpt>
      <trkpt lat="44.59235" lon="5.13714">
        <ele>416.4</ele>
        <time>2024-05-17T10:13:54Z</time>
      </trkpt>
      <trkpt lat="44.59236" lon="5.13715">
        <ele>416.4</ele>
        <time>2024-05-17T10:13:55Z</time>
      </trkpt>
      <trkpt lat="44.59238" lon="5.13719">
        <ele>416.6</ele>
        <time>2024-05-17T10:13:56Z</time>
      </trkpt>
      <trkpt lat="44.59242" lon="5.13724">
        <ele>416.7</ele>
        <time>2024-05-17T10:13:57Z</time>
      </trkpt>
      <trkpt lat="44.59243" lon="5.13725">
        <ele>416.8</ele>
        <time>2024-05-17T10:13:58Z</time>
      </trkpt>
      <trkpt lat="44.59246" lon="5.13728">
        <ele>416.9</ele>
        <time>2024-05-17T10:13:59Z</time>
      </trkpt>
      <trkpt lat="44.59249" lon="5.13731">
        <ele>417</ele>
        <time>2024-05-17T10:14:00Z</time>
      </trkpt>
      <trkpt lat="44.59252" lon="5.13734">
        <ele>417.1</ele>
        <time>2024-05-17T10:14:01Z</time>
      </trkpt>
      <trkpt lat="44.59255" lon="5.13737">
        <ele>417.2</ele>
        <time>2024-05-17T10:14:02Z</time>
      </trkpt>
      <trkpt lat="44.59258" lon="5.13739">
        <ele>417.3</ele>
        <time>2024-05-17T10:14:03Z</time>
      </trkpt>
      <trkpt lat="44.59262" lon="5.13742">
        <ele>417.4</ele>
        <time>2024-05-17T10:14:04Z</time>
      </trkpt>
      <trkpt lat="44.59267" lon="5.13745">
        <ele>417.5</ele>
        <time>2024-05-17T10:14:05Z</time>
      </trkpt>
      <trkpt lat="44.59269" lon="5.13747">
        <ele>417.5</ele>
        <time>2024-05-17T10:14:06Z</time>
      </trkpt>
      <trkpt lat="44.59272" lon="5.13749">
        <ele>417.6</ele>
        <time>2024-05-17T10:14:07Z</time>
      </trkpt>
      <trkpt lat="44.59276" lon="5.13751">
        <ele>417.7</ele>
        <time>2024-05-17T10:14:08Z</time>
      </trkpt>
      <trkpt lat="44.59281" lon="5.13756">
        <ele>417.7</ele>
        <time>2024-05-17T10:14:09Z</time>
      </trkpt>
      <trkpt lat="44.59282" lon="5.13757">
        <ele>417.8</ele>
        <time>2024-05-17T10:14:10Z</time>
      </trkpt>
      <trkpt lat="44.59287" lon="5.13763">
        <ele>417.8</ele>
        <time>2024-05-17T10:14:11Z</time>
      </trkpt>
      <trkpt lat="44.59289" lon="5.13764">
        <ele>417.9</ele>
        <time>2024-05-17T10:14:12Z</time>
      </trkpt>
      <trkpt lat="44.59292" lon="5.13768">
        <ele>417.9</ele>
        <time>2024-05-17T10:14:13Z</time>
      </trkpt>
      <trkpt lat="44.59295" lon="5.13772">
        <ele>417.9</ele>
        <time>2024-05-17T10:14:14Z</time>
      </trkpt>
      <trkpt lat="44.59299" lon="5.13779">
        <ele>418</ele>
        <time>2024-05-17T10:14:15Z</time>
      </trkpt>
      <trkpt lat="44.593" lon="5.13782">
        <ele>418</ele>
        <time>2024-05-17T10:14:16Z</time>
      </trkpt>
      <trkpt lat="44.59303" lon="5.13789">
        <ele>418</ele>
        <time>2024-05-17T10:14:17Z</time>
      </trkpt>
      <trkpt lat="44.59304" lon="5.13792">
        <ele>418.1</ele>
        <time>2024-05-17T10:14:18Z</time>
      </trkpt>
      <trkpt lat="44.59307" lon="5.138">
        <ele>418.1</ele>
        <time>2024-05-17T10:14:19Z</time>
      </trkpt>
      <trkpt lat="44.59308" lon="5.13803">
        <ele>418.1</ele>
        <time>2024-05-17T10:14:20Z</time>
      </trkpt>
      <trkpt lat="44.59309" lon="5.13808">
        <ele>418.2</ele>
        <time>2024-05-17T10:14:21Z</time>
      </trkpt>
      <trkpt lat="44.59311" lon="5.13816">
        <ele>418.2</ele>
        <time>2024-05-17T10:14:22Z</time>
      </trkpt>
      <trkpt lat="44.59312" lon="5.13819">
        <ele>418.3</ele>
        <time>2024-05-17T10:14:23Z</time>
      </trkpt>
      <trkpt lat="44.59315" lon="5.13827">
        <ele>418.3</ele>
        <time>2024-05-17T10:14:24Z</time>
      </trkpt>
      <trkpt lat="44.59315" lon="5.1383">
        <ele>418.3</ele>
        <time>2024-05-17T10:14:25Z</time>
      </trkpt>
      <trkpt lat="44.59317" lon="5.13839">
        <ele>418.4</ele>
        <time>2024-05-17T10:14:26Z</time>
      </trkpt>
      <trkpt lat="44.59318" lon="5.13842">
        <ele>418.4</ele>
        <time>2024-05-17T10:14:27Z</time>
      </trkpt>
      <trkpt lat="44.5932" lon="5.1385">
        <ele>418.4</ele>
        <time>2024-05-17T10:14:28Z</time>
      </trkpt>
      <trkpt lat="44.59321" lon="5.13853">
        <ele>418.5</ele>
        <time>2024-05-17T10:14:29Z</time>
      </trkpt>
      <trkpt lat="44.59323" lon="5.13859">
        <ele>418.5</ele>
        <time>2024-05-17T10:14:30Z</time>
      </trkpt>
      <trkpt lat="44.59325" lon="5.13868">
        <ele>418.6</ele>
        <time>2024-05-17T10:14:31Z</time>
      </trkpt>
      <trkpt lat="44.59326" lon="5.13871">
        <ele>418.6</ele>
        <time>2024-05-17T10:14:32Z</time>
      </trkpt>
      <trkpt lat="44.59328" lon="5.13879">
        <ele>418.7</ele>
        <time>2024-05-17T10:14:33Z</time>
      </trkpt>
      <trkpt lat="44.59329" lon="5.13882">
        <ele>418.8</ele>
        <time>2024-05-17T10:14:34Z</time>
      </trkpt>
      <trkpt lat="44.59331" lon="5.13889">
        <ele>418.9</ele>
        <time>2024-05-17T10:14:35Z</time>
      </trkpt>
      <trkpt lat="44.59332" lon="5.13892">
        <ele>418.9</ele>
        <time>2024-05-17T10:14:36Z</time>
      </trkpt>
      <trkpt lat="44.59334" lon="5.13898">
        <ele>419</ele>
        <time>2024-05-17T10:14:37Z</time>
      </trkpt>
      <trkpt lat="44.59338" lon="5.13905">
        <ele>419.2</ele>
        <time>2024-05-17T10:14:38Z</time>
      </trkpt>
      <trkpt lat="44.59339" lon="5.13907">
        <ele>419.2</ele>
        <time>2024-05-17T10:14:39Z</time>
      </trkpt>
      <trkpt lat="44.59341" lon="5.13912">
        <ele>419.3</ele>
        <time>2024-05-17T10:14:40Z</time>
      </trkpt>
      <trkpt lat="44.59344" lon="5.13916">
        <ele>419.4</ele>
        <time>2024-05-17T10:14:41Z</time>
      </trkpt>
      <trkpt lat="44.59347" lon="5.1392">
        <ele>419.5</ele>
        <time>2024-05-17T10:14:42Z</time>
      </trkpt>
      <trkpt lat="44.59349" lon="5.13924">
        <ele>419.6</ele>
        <time>2024-05-17T10:14:43Z</time>
      </trkpt>
      <trkpt lat="44.59352" lon="5.13928">
        <ele>419.7</ele>
        <time>2024-05-17T10:14:44Z</time>
      </trkpt>
      <trkpt lat="44.59355" lon="5.13932">
        <ele>419.8</ele>
        <time>2024-05-17T10:14:45Z</time>
      </trkpt>
      <trkpt lat="44.59358" lon="5.13935">
        <ele>419.9</ele>
        <time>2024-05-17T10:14:46Z</time>
      </trkpt>
      <trkpt lat="44.59362" lon="5.13941">
        <ele>420.1</ele>
        <time>2024-05-17T10:14:47Z</time>
      </trkpt>
      <trkpt lat="44.59364" lon="5.13943">
        <ele>420.2</ele>
        <time>2024-05-17T10:14:48Z</time>
      </trkpt>
      <trkpt lat="44.59368" lon="5.13948">
        <ele>420.3</ele>
        <time>2024-05-17T10:14:49Z</time>
      </trkpt>
      <trkpt lat="44.5937" lon="5.1395">
        <ele>420.4</ele>
        <time>2024-05-17T10:14:50Z</time>
      </trkpt>
      <trkpt lat="44.59372" lon="5.13953">
        <ele>420.5</ele>
        <time>2024-05-17T10:14:51Z</time>
      </trkpt>
      <trkpt lat="44.59375" lon="5.13956">
        <ele>420.6</ele>
        <time>2024-05-17T10:14:52Z</time>
      </trkpt>
      <trkpt lat="44.59378" lon="5.1396">
        <ele>420.7</ele>
        <time>2024-05-17T10:14:53Z</time>
      </trkpt>
      <trkpt lat="44.59381" lon="5.13963">
        <ele>420.8</ele>
        <time>2024-05-17T10:14:54Z</time>
      </trkpt>
      <trkpt lat="44.59384" lon="5.13966">
        <ele>421</ele>
        <time>2024-05-17T10:14:55Z</time>
      </trkpt>
      <trkpt lat="44.59388" lon="5.13971">
        <ele>421.1</ele>
        <time>2024-05-17T10:14:56Z</time>
      </trkpt>
      <trkpt lat="44.59389" lon="5.13973">
        <ele>421.2</ele>
        <time>2024-05-17T10:14:57Z</time>
      </trkpt>
      <trkpt lat="44.59393" lon="5.13978">
        <ele>421.4</ele>
        <time>2024-05-17T10:14:58Z</time>
      </trkpt>
      <trkpt lat="44.59395" lon="5.1398">
        <ele>421.5</ele>
        <time>2024-05-17T10:14:59Z</time>
      </trkpt>
      <trkpt lat="44.59399" lon="5.13987">
        <ele>421.6</ele>
        <time>2024-05-17T10:15:00Z</time>
      </trkpt>
      <trkpt lat="44.594" lon="5.13989">
        <ele>421.7</ele>
        <time>2024-05-17T10:15:01Z</time>
      </trkpt>
      <trkpt lat="44.59403" lon="5.13996">
        <ele>421.9</ele>
        <time>2024-05-17T10:15:02Z</time>
      </trkpt>
      <trkpt lat="44.59405" lon="5.13998">
        <ele>422</ele>
        <time>2024-05-17T10:15:03Z</time>
      </trkpt>
      <trkpt lat="44.59408" lon="5.14005">
        <ele>422.2</ele>
        <time>2024-05-17T10:15:04Z</time>
      </trkpt>
      <trkpt lat="44.59409" lon="5.14007">
        <ele>422.2</ele>
        <time>2024-05-17T10:15:05Z</time>
      </trkpt>
      <trkpt lat="44.5941" lon="5.14012">
        <ele>422.3</ele>
        <time>2024-05-17T10:15:06Z</time>
      </trkpt>
      <trkpt lat="44.59412" lon="5.14017">
        <ele>422.5</ele>
        <time>2024-05-17T10:15:07Z</time>
      </trkpt>
      <trkpt lat="44.59415" lon="5.14025">
        <ele>422.6</ele>
        <time>2024-05-17T10:15:08Z</time>
      </trkpt>
      <trkpt lat="44.59415" lon="5.14028">
        <ele>422.7</ele>
        <time>2024-05-17T10:15:09Z</time>
      </trkpt>
      <trkpt lat="44.59417" lon="5.14036">
        <ele>422.8</ele>
        <time>2024-05-17T10:15:10Z</time>
      </trkpt>
      <trkpt lat="44.59418" lon="5.14039">
        <ele>422.9</ele>
        <time>2024-05-17T10:15:11Z</time>
      </trkpt>
      <trkpt lat="44.59419" lon="5.14047">
        <ele>423</ele>
        <time>2024-05-17T10:15:12Z</time>
      </trkpt>
      <trkpt lat="44.5942" lon="5.1405">
        <ele>423.1</ele>
        <time>2024-05-17T10:15:13Z</time>
      </trkpt>
      <trkpt lat="44.59421" lon="5.14056">
        <ele>423.2</ele>
        <time>2024-05-17T10:15:14Z</time>
      </trkpt>
      <trkpt lat="44.59423" lon="5.14065">
        <ele>423.3</ele>
        <time>2024-05-17T10:15:15Z</time>
      </trkpt>
      <trkpt lat="44.59423" lon="5.14068">
        <ele>423.4</ele>
        <time>2024-05-17T10:15:16Z</time>
      </trkpt>
      <trkpt lat="44.59425" lon="5.14076">
        <ele>423.5</ele>
        <time>2024-05-17T10:15:17Z</time>
      </trkpt>
      <trkpt lat="44.59426" lon="5.14079">
        <ele>423.5</ele>
        <time>2024-05-17T10:15:18Z</time>
      </trkpt>
      <trkpt lat="44.59428" lon="5.14087">
        <ele>423.7</ele>
        <time>2024-05-17T10:15:19Z</time>
      </trkpt>
      <trkpt lat="44.59428" lon="5.1409">
        <ele>423.7</ele>
        <time>2024-05-17T10:15:20Z</time>
      </trkpt>
      <trkpt lat="44.5943" lon="5.14095">
        <ele>423.8</ele>
        <time>2024-05-17T10:15:21Z</time>
      </trkpt>
      <trkpt lat="44.59431" lon="5.14103">
        <ele>424</ele>
        <time>2024-05-17T10:15:22Z</time>
      </trkpt>
      <trkpt lat="44.59432" lon="5.14106">
        <ele>424</ele>
        <time>2024-05-17T10:15:23Z</time>
      </trkpt>
      <trkpt lat="44.59433" lon="5.14111">
        <ele>424.1</ele>
        <time>2024-05-17T10:15:24Z</time>
      </trkpt>
      <trkpt lat="44.59434" lon="5.14116">
        <ele>424.2</ele>
        <time>2024-05-17T10:15:25Z</time>
      </trkpt>
      <trkpt lat="44.59434" lon="5.14122">
        <ele>424.3</ele>
        <time>2024-05-17T10:15:26Z</time>
      </trkpt>
      <trkpt lat="44.59435" lon="5.14127">
        <ele>424.4</ele>
        <time>2024-05-17T10:15:27Z</time>
      </trkpt>
      <trkpt lat="44.59437" lon="5.14133">
        <ele>424.4</ele>
        <time>2024-05-17T10:15:28Z</time>
      </trkpt>
      <trkpt lat="44.59438" lon="5.14138">
        <ele>424.5</ele>
        <time>2024-05-17T10:15:29Z</time>
      </trkpt>
      <trkpt lat="44.5944" lon="5.14147">
        <ele>424.6</ele>
        <time>2024-05-17T10:15:30Z</time>
      </trkpt>
      <trkpt lat="44.59441" lon="5.14149">
        <ele>424.7</ele>
        <time>2024-05-17T10:15:31Z</time>
      </trkpt>
      <trkpt lat="44.59443" lon="5.14158">
        <ele>424.8</ele>
        <time>2024-05-17T10:15:32Z</time>
      </trkpt>
      <trkpt lat="44.59444" lon="5.1416">
        <ele>424.8</ele>
        <time>2024-05-17T10:15:33Z</time>
      </trkpt>
      <trkpt lat="44.59445" lon="5.14166">
        <ele>424.9</ele>
        <time>2024-05-17T10:15:34Z</time>
      </trkpt>
      <trkpt lat="44.59447" lon="5.14171">
        <ele>425</ele>
        <time>2024-05-17T10:15:35Z</time>
      </trkpt>
      <trkpt lat="44.59449" lon="5.14177">
        <ele>425.1</ele>
        <time>2024-05-17T10:15:36Z</time>
      </trkpt>
      <trkpt lat="44.5945" lon="5.14183">
        <ele>425.2</ele>
        <time>2024-05-17T10:15:37Z</time>
      </trkpt>
      <trkpt lat="44.59452" lon="5.14188">
        <ele>425.3</ele>
        <time>2024-05-17T10:15:38Z</time>
      </trkpt>
      <trkpt lat="44.59455" lon="5.14197">
        <ele>425.4</ele>
        <time>2024-05-17T10:15:39Z</time>
      </trkpt>
      <trkpt lat="44.59455" lon="5.14199">
        <ele>425.5</ele>
        <time>2024-05-17T10:15:40Z</time>
      </trkpt>
      <trkpt lat="44.59458" lon="5.14208">
        <ele>425.7</ele>
        <time>2024-05-17T10:15:41Z</time>
      </trkpt>
      <trkpt lat="44.59458" lon="5.1421">
        <ele>425.7</ele>
        <time>2024-05-17T10:15:42Z</time>
      </trkpt>
      <trkpt lat="44.59461" lon="5.14218">
        <ele>425.9</ele>
        <time>2024-05-17T10:15:43Z</time>
      </trkpt>
      <trkpt lat="44.59462" lon="5.14221">
        <ele>426</ele>
        <time>2024-05-17T10:15:44Z</time>
      </trkpt>
      <trkpt lat="44.59464" lon="5.14226">
        <ele>426.1</ele>
        <time>2024-05-17T10:15:45Z</time>
      </trkpt>
      <trkpt lat="44.59467" lon="5.14234">
        <ele>426.2</ele>
        <time>2024-05-17T10:15:46Z</time>
      </trkpt>
      <trkpt lat="44.59468" lon="5.14236">
        <ele>426.3</ele>
        <time>2024-05-17T10:15:47Z</time>
      </trkpt>
      <trkpt lat="44.59471" lon="5.14241">
        <ele>426.4</ele>
        <time>2024-05-17T10:15:48Z</time>
      </trkpt>
      <trkpt lat="44.59474" lon="5.14247">
        <ele>426.6</ele>
        <time>2024-05-17T10:15:49Z</time>
      </trkpt>
      <trkpt lat="44.59476" lon="5.1425">
        <ele>426.6</ele>
        <time>2024-05-17T10:15:50Z</time>
      </trkpt>
      <trkpt lat="44.59478" lon="5.14254">
        <ele>426.8</ele>
        <time>2024-05-17T10:15:51Z</time>
      </trkpt>
      <trkpt lat="44.59483" lon="5.1426">
        <ele>427</ele>
        <time>2024-05-17T10:15:52Z</time>
      </trkpt>
      <trkpt lat="44.59484" lon="5.14261">
        <ele>427</ele>
        <time>2024-05-17T10:15:53Z</time>
      </trkpt>
      <trkpt lat="44.5949" lon="5.14266">
        <ele>427.2</ele>
        <time>2024-05-17T10:15:54Z</time>
      </trkpt>
      <trkpt lat="44.59491" lon="5.14267">
        <ele>427.3</ele>
        <time>2024-05-17T10:15:55Z</time>
      </trkpt>
      <trkpt lat="44.59495" lon="5.1427">
        <ele>427.5</ele>
        <time>2024-05-17T10:15:56Z</time>
      </trkpt>
      <trkpt lat="44.59501" lon="5.14273">
        <ele>427.7</ele>
        <time>2024-05-17T10:15:57Z</time>
      </trkpt>
      <trkpt lat="44.59503" lon="5.14273">
        <ele>427.7</ele>
        <time>2024-05-17T10:15:58Z</time>
      </trkpt>
      <trkpt lat="44.59508" lon="5.14275">
        <ele>428</ele>
        <time>2024-05-17T10:15:59Z</time>
      </trkpt>
      <trkpt lat="44.5951" lon="5.14275">
        <ele>428.1</ele>
        <time>2024-05-17T10:16:00Z</time>
      </trkpt>
      <trkpt lat="44.59516" lon="5.14276">
        <ele>428.3</ele>
        <time>2024-05-17T10:16:01Z</time>
      </trkpt>
      <trkpt lat="44.59518" lon="5.14277">
        <ele>428.4</ele>
        <time>2024-05-17T10:16:02Z</time>
      </trkpt>
      <trkpt lat="44.59522" lon="5.14277">
        <ele>428.5</ele>
        <time>2024-05-17T10:16:03Z</time>
      </trkpt>
      <trkpt lat="44.59525" lon="5.14277">
        <ele>428.7</ele>
        <time>2024-05-17T10:16:04Z</time>
      </trkpt>
      <trkpt lat="44.59529" lon="5.14277">
        <ele>428.9</ele>
        <time>2024-05-17T10:16:05Z</time>
      </trkpt>
      <trkpt lat="44.59534" lon="5.14277">
        <ele>429.2</ele>
        <time>2024-05-17T10:16:06Z</time>
      </trkpt>
      <trkpt lat="44.59536" lon="5.14277">
        <ele>429.3</ele>
        <time>2024-05-17T10:16:07Z</time>
      </trkpt>
      <trkpt lat="44.59539" lon="5.14276">
        <ele>429.4</ele>
        <time>2024-05-17T10:16:08Z</time>
      </trkpt>
      <trkpt lat="44.59542" lon="5.14275">
        <ele>429.6</ele>
        <time>2024-05-17T10:16:09Z</time>
      </trkpt>
      <trkpt lat="44.59547" lon="5.14276">
        <ele>429.8</ele>
        <time>2024-05-17T10:16:10Z</time>
      </trkpt>
      <trkpt lat="44.59549" lon="5.14276">
        <ele>429.9</ele>
        <time>2024-05-17T10:16:11Z</time>
      </trkpt>
      <trkpt lat="44.59553" lon="5.14277">
        <ele>430.1</ele>
        <time>2024-05-17T10:16:12Z</time>
      </trkpt>
      <trkpt lat="44.59554" lon="5.14277">
        <ele>430.2</ele>
        <time>2024-05-17T10:16:13Z</time>
      </trkpt>
      <trkpt lat="44.59556" lon="5.14278">
        <ele>430.3</ele>
        <time>2024-05-17T10:16:14Z</time>
      </trkpt>
      <trkpt lat="44.59559" lon="5.14279">
        <ele>430.5</ele>
        <time>2024-05-17T10:16:15Z</time>
      </trkpt>
      <trkpt lat="44.5956" lon="5.1428">
        <ele>430.5</ele>
        <time>2024-05-17T10:16:16Z</time>
      </trkpt>
      <trkpt lat="44.59563" lon="5.14281">
        <ele>430.7</ele>
        <time>2024-05-17T10:16:17Z</time>
      </trkpt>
      <trkpt lat="44.59566" lon="5.14282">
        <ele>430.8</ele>
        <time>2024-05-17T10:16:18Z</time>
      </trkpt>
      <trkpt lat="44.59569" lon="5.14285">
        <ele>431.1</ele>
        <time>2024-05-17T10:16:19Z</time>
      </trkpt>
      <trkpt lat="44.59571" lon="5.14286">
        <ele>431.1</ele>
        <time>2024-05-17T10:16:20Z</time>
      </trkpt>
      <trkpt lat="44.59573" lon="5.14287">
        <ele>431.3</ele>
        <time>2024-05-17T10:16:21Z</time>
      </trkpt>
      <trkpt lat="44.59576" lon="5.14289">
        <ele>431.4</ele>
        <time>2024-05-17T10:16:22Z</time>
      </trkpt>
      <trkpt lat="44.59578" lon="5.1429">
        <ele>431.6</ele>
        <time>2024-05-17T10:16:23Z</time>
      </trkpt>
      <trkpt lat="44.59581" lon="5.14292">
        <ele>431.8</ele>
        <time>2024-05-17T10:16:24Z</time>
      </trkpt>
      <trkpt lat="44.59585" lon="5.14295">
        <ele>432</ele>
        <time>2024-05-17T10:16:25Z</time>
      </trkpt>
      <trkpt lat="44.59586" lon="5.14296">
        <ele>432.1</ele>
        <time>2024-05-17T10:16:26Z</time>
      </trkpt>
      <trkpt lat="44.59589" lon="5.143">
        <ele>432.3</ele>
        <time>2024-05-17T10:16:27Z</time>
      </trkpt>
      <trkpt lat="44.5959" lon="5.14302">
        <ele>432.4</ele>
        <time>2024-05-17T10:16:28Z</time>
      </trkpt>
      <trkpt lat="44.59594" lon="5.14305">
        <ele>432.7</ele>
        <time>2024-05-17T10:16:29Z</time>
      </trkpt>
      <trkpt lat="44.59595" lon="5.14306">
        <ele>432.7</ele>
        <time>2024-05-17T10:16:30Z</time>
      </trkpt>
      <trkpt lat="44.59598" lon="5.14309">
        <ele>432.9</ele>
        <time>2024-05-17T10:16:31Z</time>
      </trkpt>
      <trkpt lat="44.596" lon="5.14311">
        <ele>433</ele>
        <time>2024-05-17T10:16:32Z</time>
      </trkpt>
      <trkpt lat="44.59604" lon="5.14315">
        <ele>433.2</ele>
        <time>2024-05-17T10:16:33Z</time>
      </trkpt>
      <trkpt lat="44.59605" lon="5.14317">
        <ele>433.3</ele>
        <time>2024-05-17T10:16:34Z</time>
      </trkpt>
      <trkpt lat="44.59608" lon="5.14321">
        <ele>433.4</ele>
        <time>2024-05-17T10:16:35Z</time>
      </trkpt>
      <trkpt lat="44.59609" lon="5.14323">
        <ele>433.5</ele>
        <time>2024-05-17T10:16:36Z</time>
      </trkpt>
      <trkpt lat="44.59612" lon="5.14329">
        <ele>433.7</ele>
        <time>2024-05-17T10:16:37Z</time>
      </trkpt>
      <trkpt lat="44.59613" lon="5.14331">
        <ele>433.7</ele>
        <time>2024-05-17T10:16:38Z</time>
      </trkpt>
      <trkpt lat="44.59615" lon="5.14335">
        <ele>433.8</ele>
        <time>2024-05-17T10:16:39Z</time>
      </trkpt>
      <trkpt lat="44.59617" lon="5.14341">
        <ele>434</ele>
        <time>2024-05-17T10:16:40Z</time>
      </trkpt>
      <trkpt lat="44.59618" lon="5.14344">
        <ele>434.1</ele>
        <time>2024-05-17T10:16:41Z</time>
      </trkpt>
      <trkpt lat="44.5962" lon="5.1435">
        <ele>434.2</ele>
        <time>2024-05-17T10:16:42Z</time>
      </trkpt>
      <trkpt lat="44.59621" lon="5.14352">
        <ele>434.3</ele>
        <time>2024-05-17T10:16:43Z</time>
      </trkpt>
      <trkpt lat="44.59623" lon="5.14359">
        <ele>434.4</ele>
        <time>2024-05-17T10:16:44Z</time>
      </trkpt>
      <trkpt lat="44.59623" lon="5.14361">
        <ele>434.5</ele>
        <time>2024-05-17T10:16:45Z</time>
      </trkpt>
      <trkpt lat="44.59624" lon="5.14366">
        <ele>434.6</ele>
        <time>2024-05-17T10:16:46Z</time>
      </trkpt>
      <trkpt lat="44.59625" lon="5.14373">
        <ele>434.7</ele>
        <time>2024-05-17T10:16:47Z</time>
      </trkpt>
      <trkpt lat="44.59625" lon="5.14375">
        <ele>434.8</ele>
        <time>2024-05-17T10:16:48Z</time>
      </trkpt>
      <trkpt lat="44.59625" lon="5.1438">
        <ele>434.9</ele>
        <time>2024-05-17T10:16:49Z</time>
      </trkpt>
      <trkpt lat="44.59626" lon="5.14385">
        <ele>435</ele>
        <time>2024-05-17T10:16:50Z</time>
      </trkpt>
      <trkpt lat="44.59626" lon="5.1439">
        <ele>435.1</ele>
        <time>2024-05-17T10:16:51Z</time>
      </trkpt>
      <trkpt lat="44.59627" lon="5.14395">
        <ele>435.2</ele>
        <time>2024-05-17T10:16:52Z</time>
      </trkpt>
      <trkpt lat="44.59627" lon="5.144">
        <ele>435.3</ele>
        <time>2024-05-17T10:16:53Z</time>
      </trkpt>
      <trkpt lat="44.59627" lon="5.14405">
        <ele>435.4</ele>
        <time>2024-05-17T10:16:54Z</time>
      </trkpt>
      <trkpt lat="44.59628" lon="5.14412">
        <ele>435.6</ele>
        <time>2024-05-17T10:16:55Z</time>
      </trkpt>
      <trkpt lat="44.59628" lon="5.14414">
        <ele>435.6</ele>
        <time>2024-05-17T10:16:56Z</time>
      </trkpt>
      <trkpt lat="44.59629" lon="5.14421">
        <ele>435.8</ele>
        <time>2024-05-17T10:16:57Z</time>
      </trkpt>
      <trkpt lat="44.59629" lon="5.14424">
        <ele>435.9</ele>
        <time>2024-05-17T10:16:58Z</time>
      </trkpt>
      <trkpt lat="44.59629" lon="5.14428">
        <ele>436</ele>
        <time>2024-05-17T10:16:59Z</time>
      </trkpt>
      <trkpt lat="44.59629" lon="5.14433">
        <ele>436.1</ele>
        <time>2024-05-17T10:17:00Z</time>
      </trkpt>
      <trkpt lat="44.5963" lon="5.14438">
        <ele>436.2</ele>
        <time>2024-05-17T10:17:01Z</time>
      </trkpt>
      <trkpt lat="44.59631" lon="5.14443">
        <ele>436.4</ele>
        <time>2024-05-17T10:17:02Z</time>
      </trkpt>
      <trkpt lat="44.59632" lon="5.14447">
        <ele>436.5</ele>
        <time>2024-05-17T10:17:03Z</time>
      </trkpt>
      <trkpt lat="44.59633" lon="5.14452">
        <ele>436.6</ele>
        <time>2024-05-17T10:17:04Z</time>
      </trkpt>
      <trkpt lat="44.59634" lon="5.14456">
        <ele>436.7</ele>
        <time>2024-05-17T10:17:05Z</time>
      </trkpt>
      <trkpt lat="44.59635" lon="5.1446">
        <ele>436.8</ele>
        <time>2024-05-17T10:17:06Z</time>
      </trkpt>
      <trkpt lat="44.59636" lon="5.14465">
        <ele>437</ele>
        <time>2024-05-17T10:17:07Z</time>
      </trkpt>
      <trkpt lat="44.59638" lon="5.14471">
        <ele>437.1</ele>
        <time>2024-05-17T10:17:08Z</time>
      </trkpt>
      <trkpt lat="44.59639" lon="5.14473">
        <ele>437.2</ele>
        <time>2024-05-17T10:17:09Z</time>
      </trkpt>
      <trkpt lat="44.59641" lon="5.1448">
        <ele>437.3</ele>
        <time>2024-05-17T10:17:10Z</time>
      </trkpt>
      <trkpt lat="44.59641" lon="5.14482">
        <ele>437.4</ele>
        <time>2024-05-17T10:17:11Z</time>
      </trkpt>
      <trkpt lat="44.59643" lon="5.14489">
        <ele>437.5</ele>
        <time>2024-05-17T10:17:12Z</time>
      </trkpt>
      <trkpt lat="44.59644" lon="5.14491">
        <ele>437.6</ele>
        <time>2024-05-17T10:17:13Z</time>
      </trkpt>
      <trkpt lat="44.59645" lon="5.14495">
        <ele>437.7</ele>
        <time>2024-05-17T10:17:14Z</time>
      </trkpt>
      <trkpt lat="44.59647" lon="5.14502">
        <ele>437.9</ele>
        <time>2024-05-17T10:17:15Z</time>
      </trkpt>
      <trkpt lat="44.59648" lon="5.14504">
        <ele>437.9</ele>
        <time>2024-05-17T10:17:16Z</time>
      </trkpt>
      <trkpt lat="44.59649" lon="5.14508">
        <ele>438</ele>
        <time>2024-05-17T10:17:17Z</time>
      </trkpt>
      <trkpt lat="44.59651" lon="5.14515">
        <ele>438.2</ele>
        <time>2024-05-17T10:17:18Z</time>
      </trkpt>
      <trkpt lat="44.59652" lon="5.14517">
        <ele>438.3</ele>
        <time>2024-05-17T10:17:19Z</time>
      </trkpt>
      <trkpt lat="44.59654" lon="5.14523">
        <ele>438.4</ele>
        <time>2024-05-17T10:17:20Z</time>
      </trkpt>
      <trkpt lat="44.59655" lon="5.14525">
        <ele>438.5</ele>
        <time>2024-05-17T10:17:21Z</time>
      </trkpt>
      <trkpt lat="44.59656" lon="5.1453">
        <ele>438.6</ele>
        <time>2024-05-17T10:17:22Z</time>
      </trkpt>
      <trkpt lat="44.59657" lon="5.14536">
        <ele>438.8</ele>
        <time>2024-05-17T10:17:23Z</time>
      </trkpt>
      <trkpt lat="44.59658" lon="5.14538">
        <ele>438.8</ele>
        <time>2024-05-17T10:17:24Z</time>
      </trkpt>
      <trkpt lat="44.5966" lon="5.14545">
        <ele>439</ele>
        <time>2024-05-17T10:17:25Z</time>
      </trkpt>
      <trkpt lat="44.5966" lon="5.14547">
        <ele>439.1</ele>
        <time>2024-05-17T10:17:26Z</time>
      </trkpt>
      <trkpt lat="44.59662" lon="5.14554">
        <ele>439.3</ele>
        <time>2024-05-17T10:17:27Z</time>
      </trkpt>
      <trkpt lat="44.59662" lon="5.14556">
        <ele>439.4</ele>
        <time>2024-05-17T10:17:28Z</time>
      </trkpt>
      <trkpt lat="44.59663" lon="5.14561">
        <ele>439.5</ele>
        <time>2024-05-17T10:17:29Z</time>
      </trkpt>
      <trkpt lat="44.59666" lon="5.14568">
        <ele>439.7</ele>
        <time>2024-05-17T10:17:30Z</time>
      </trkpt>
      <trkpt lat="44.59666" lon="5.1457">
        <ele>439.8</ele>
        <time>2024-05-17T10:17:31Z</time>
      </trkpt>
      <trkpt lat="44.59668" lon="5.14575">
        <ele>440</ele>
        <time>2024-05-17T10:17:32Z</time>
      </trkpt>
      <trkpt lat="44.59669" lon="5.14579">
        <ele>440.2</ele>
        <time>2024-05-17T10:17:33Z</time>
      </trkpt>
      <trkpt lat="44.59672" lon="5.14586">
        <ele>440.4</ele>
        <time>2024-05-17T10:17:34Z</time>
      </trkpt>
      <trkpt lat="44.59673" lon="5.14588">
        <ele>440.5</ele>
        <time>2024-05-17T10:17:35Z</time>
      </trkpt>
      <trkpt lat="44.59674" lon="5.14592">
        <ele>440.6</ele>
        <time>2024-05-17T10:17:36Z</time>
      </trkpt>
      <trkpt lat="44.59676" lon="5.14597">
        <ele>440.8</ele>
        <time>2024-05-17T10:17:37Z</time>
      </trkpt>
      <trkpt lat="44.59678" lon="5.14602">
        <ele>441</ele>
        <time>2024-05-17T10:17:38Z</time>
      </trkpt>
      <trkpt lat="44.59679" lon="5.14604">
        <ele>441.1</ele>
        <time>2024-05-17T10:17:39Z</time>
      </trkpt>
      <trkpt lat="44.59682" lon="5.14609">
        <ele>441.3</ele>
        <time>2024-05-17T10:17:40Z</time>
      </trkpt>
      <trkpt lat="44.59684" lon="5.1461">
        <ele>441.3</ele>
        <time>2024-05-17T10:17:41Z</time>
      </trkpt>
      <trkpt lat="44.59687" lon="5.14615">
        <ele>441.5</ele>
        <time>2024-05-17T10:17:42Z</time>
      </trkpt>
      <trkpt lat="44.59689" lon="5.14616">
        <ele>441.6</ele>
        <time>2024-05-17T10:17:43Z</time>
      </trkpt>
      <trkpt lat="44.59692" lon="5.1462">
        <ele>441.7</ele>
        <time>2024-05-17T10:17:44Z</time>
      </trkpt>
      <trkpt lat="44.59694" lon="5.14621">
        <ele>441.7</ele>
        <time>2024-05-17T10:17:45Z</time>
      </trkpt>
      <trkpt lat="44.59697" lon="5.14624">
        <ele>441.8</ele>
        <time>2024-05-17T10:17:46Z</time>
      </trkpt>
      <trkpt lat="44.597" lon="5.14626">
        <ele>441.8</ele>
        <time>2024-05-17T10:17:47Z</time>
      </trkpt>
      <trkpt lat="44.59703" lon="5.14628">
        <ele>441.9</ele>
        <time>2024-05-17T10:17:48Z</time>
      </trkpt>
      <trkpt lat="44.59707" lon="5.1463">
        <ele>441.9</ele>
        <time>2024-05-17T10:17:49Z</time>
      </trkpt>
      <trkpt lat="44.59713" lon="5.14632">
        <ele>441.9</ele>
        <time>2024-05-17T10:17:50Z</time>
      </trkpt>
      <trkpt lat="44.59715" lon="5.14633">
        <ele>441.9</ele>
        <time>2024-05-17T10:17:51Z</time>
      </trkpt>
      <trkpt lat="44.59721" lon="5.14636">
        <ele>441.9</ele>
        <time>2024-05-17T10:17:52Z</time>
      </trkpt>
      <trkpt lat="44.59723" lon="5.14637">
        <ele>441.9</ele>
        <time>2024-05-17T10:17:53Z</time>
      </trkpt>
      <trkpt lat="44.5973" lon="5.14641">
        <ele>441.9</ele>
        <time>2024-05-17T10:17:54Z</time>
      </trkpt>
      <trkpt lat="44.59732" lon="5.14642">
        <ele>441.8</ele>
        <time>2024-05-17T10:17:55Z</time>
      </trkpt>
      <trkpt lat="44.59736" lon="5.14645">
        <ele>441.8</ele>
        <time>2024-05-17T10:17:56Z</time>
      </trkpt>
      <trkpt lat="44.59742" lon="5.1465">
        <ele>441.8</ele>
        <time>2024-05-17T10:17:57Z</time>
      </trkpt>
      <trkpt lat="44.59744" lon="5.14652">
        <ele>441.8</ele>
        <time>2024-05-17T10:17:58Z</time>
      </trkpt>
      <trkpt lat="44.59748" lon="5.14656">
        <ele>441.8</ele>
        <time>2024-05-17T10:17:59Z</time>
      </trkpt>
      <trkpt lat="44.59753" lon="5.14664">
        <ele>441.8</ele>
        <time>2024-05-17T10:18:00Z</time>
      </trkpt>
      <trkpt lat="44.59754" lon="5.14666">
        <ele>441.8</ele>
        <time>2024-05-17T10:18:01Z</time>
      </trkpt>
      <trkpt lat="44.59758" lon="5.14675">
        <ele>441.8</ele>
        <time>2024-05-17T10:18:02Z</time>
      </trkpt>
      <trkpt lat="44.59759" lon="5.14678">
        <ele>441.8</ele>
        <time>2024-05-17T10:18:03Z</time>
      </trkpt>
      <trkpt lat="44.59763" lon="5.14686">
        <ele>441.9</ele>
        <time>2024-05-17T10:18:04Z</time>
      </trkpt>
      <trkpt lat="44.59764" lon="5.14689">
        <ele>441.9</ele>
        <time>2024-05-17T10:18:05Z</time>
      </trkpt>
      <trkpt lat="44.59767" lon="5.14697">
        <ele>442</ele>
        <time>2024-05-17T10:18:06Z</time>
      </trkpt>
      <trkpt lat="44.59768" lon="5.147">
        <ele>442</ele>
        <time>2024-05-17T10:18:07Z</time>
      </trkpt>
      <trkpt lat="44.5977" lon="5.14708">
        <ele>442.1</ele>
        <time>2024-05-17T10:18:08Z</time>
      </trkpt>
      <trkpt lat="44.59771" lon="5.14711">
        <ele>442.2</ele>
        <time>2024-05-17T10:18:09Z</time>
      </trkpt>
      <trkpt lat="44.59774" lon="5.14719">
        <ele>442.3</ele>
        <time>2024-05-17T10:18:10Z</time>
      </trkpt>
      <trkpt lat="44.59775" lon="5.14722">
        <ele>442.3</ele>
        <time>2024-05-17T10:18:11Z</time>
      </trkpt>
      <trkpt lat="44.59777" lon="5.14727">
        <ele>442.4</ele>
        <time>2024-05-17T10:18:12Z</time>
      </trkpt>
      <trkpt lat="44.5978" lon="5.14734">
        <ele>442.5</ele>
        <time>2024-05-17T10:18:13Z</time>
      </trkpt>
      <trkpt lat="44.59781" lon="5.14737">
        <ele>442.6</ele>
        <time>2024-05-17T10:18:14Z</time>
      </trkpt>
      <trkpt lat="44.59783" lon="5.14745">
        <ele>442.7</ele>
        <time>2024-05-17T10:18:15Z</time>
      </trkpt>
      <trkpt lat="44.59784" lon="5.14747">
        <ele>442.8</ele>
        <time>2024-05-17T10:18:16Z</time>
      </trkpt>
      <trkpt lat="44.59787" lon="5.14755">
        <ele>442.9</ele>
        <time>2024-05-17T10:18:17Z</time>
      </trkpt>
      <trkpt lat="44.59788" lon="5.14757">
        <ele>443</ele>
        <time>2024-05-17T10:18:18Z</time>
      </trkpt>
      <trkpt lat="44.59791" lon="5.14764">
        <ele>443.2</ele>
        <time>2024-05-17T10:18:19Z</time>
      </trkpt>
      <trkpt lat="44.59792" lon="5.14766">
        <ele>443.2</ele>
        <time>2024-05-17T10:18:20Z</time>
      </trkpt>
      <trkpt lat="44.59795" lon="5.14773">
        <ele>443.4</ele>
        <time>2024-05-17T10:18:21Z</time>
      </trkpt>
      <trkpt lat="44.59796" lon="5.14775">
        <ele>443.5</ele>
        <time>2024-05-17T10:18:22Z</time>
      </trkpt>
      <trkpt lat="44.59798" lon="5.14779">
        <ele>443.6</ele>
        <time>2024-05-17T10:18:23Z</time>
      </trkpt>
      <trkpt lat="44.598" lon="5.14783">
        <ele>443.8</ele>
        <time>2024-05-17T10:18:24Z</time>
      </trkpt>
      <trkpt lat="44.59803" lon="5.14787">
        <ele>443.9</ele>
        <time>2024-05-17T10:18:25Z</time>
      </trkpt>
      <trkpt lat="44.59805" lon="5.14791">
        <ele>444.1</ele>
        <time>2024-05-17T10:18:26Z</time>
      </trkpt>
      <trkpt lat="44.59807" lon="5.14795">
        <ele>444.2</ele>
        <time>2024-05-17T10:18:27Z</time>
      </trkpt>
      <trkpt lat="44.59809" lon="5.14798">
        <ele>444.4</ele>
        <time>2024-05-17T10:18:28Z</time>
      </trkpt>
      <trkpt lat="44.59812" lon="5.14802">
        <ele>444.6</ele>
        <time>2024-05-17T10:18:29Z</time>
      </trkpt>
      <trkpt lat="44.59814" lon="5.14805">
        <ele>444.8</ele>
        <time>2024-05-17T10:18:30Z</time>
      </trkpt>
      <trkpt lat="44.59816" lon="5.14808">
        <ele>445</ele>
        <time>2024-05-17T10:18:31Z</time>
      </trkpt>
      <trkpt lat="44.59818" lon="5.14811">
        <ele>445.2</ele>
        <time>2024-05-17T10:18:32Z</time>
      </trkpt>
      <trkpt lat="44.59821" lon="5.14815">
        <ele>445.4</ele>
        <time>2024-05-17T10:18:33Z</time>
      </trkpt>
      <trkpt lat="44.59824" lon="5.1482">
        <ele>445.8</ele>
        <time>2024-05-17T10:18:34Z</time>
      </trkpt>
      <trkpt lat="44.59825" lon="5.14822">
        <ele>445.9</ele>
        <time>2024-05-17T10:18:35Z</time>
      </trkpt>
      <trkpt lat="44.59828" lon="5.14827">
        <ele>446.3</ele>
        <time>2024-05-17T10:18:36Z</time>
      </trkpt>
      <trkpt lat="44.59829" lon="5.14829">
        <ele>446.4</ele>
        <time>2024-05-17T10:18:37Z</time>
      </trkpt>
      <trkpt lat="44.59832" lon="5.14835">
        <ele>446.9</ele>
        <time>2024-05-17T10:18:38Z</time>
      </trkpt>
      <trkpt lat="44.59833" lon="5.14837">
        <ele>447</ele>
        <time>2024-05-17T10:18:39Z</time>
      </trkpt>
      <trkpt lat="44.59835" lon="5.1484">
        <ele>447.3</ele>
        <time>2024-05-17T10:18:40Z</time>
      </trkpt>
      <trkpt lat="44.59837" lon="5.14843">
        <ele>447.5</ele>
        <time>2024-05-17T10:18:41Z</time>
      </trkpt>
      <trkpt lat="44.5984" lon="5.14848">
        <ele>447.9</ele>
        <time>2024-05-17T10:18:42Z</time>
      </trkpt>
      <trkpt lat="44.59841" lon="5.1485">
        <ele>448.1</ele>
        <time>2024-05-17T10:18:43Z</time>
      </trkpt>
      <trkpt lat="44.59844" lon="5.14857">
        <ele>448.5</ele>
        <time>2024-05-17T10:18:44Z</time>
      </trkpt>
      <trkpt lat="44.59845" lon="5.14859">
        <ele>448.6</ele>
        <time>2024-05-17T10:18:45Z</time>
      </trkpt>
      <trkpt lat="44.59848" lon="5.14865">
        <ele>449</ele>
        <time>2024-05-17T10:18:46Z</time>
      </trkpt>
      <trkpt lat="44.59848" lon="5.14868">
        <ele>449.1</ele>
        <time>2024-05-17T10:18:47Z</time>
      </trkpt>
      <trkpt lat="44.59849" lon="5.14872">
        <ele>449.3</ele>
        <time>2024-05-17T10:18:48Z</time>
      </trkpt>
      <trkpt lat="44.59849" lon="5.14879">
        <ele>449.7</ele>
        <time>2024-05-17T10:18:49Z</time>
      </trkpt>
      <trkpt lat="44.5985" lon="5.14882">
        <ele>449.8</ele>
        <time>2024-05-17T10:18:50Z</time>
      </trkpt>
      <trkpt lat="44.5985" lon="5.14888">
        <ele>450.1</ele>
        <time>2024-05-17T10:18:51Z</time>
      </trkpt>
      <trkpt lat="44.59851" lon="5.1489">
        <ele>450.2</ele>
        <time>2024-05-17T10:18:52Z</time>
      </trkpt>
      <trkpt lat="44.59851" lon="5.14896">
        <ele>450.6</ele>
        <time>2024-05-17T10:18:53Z</time>
      </trkpt>
      <trkpt lat="44.59851" lon="5.14899">
        <ele>450.7</ele>
        <time>2024-05-17T10:18:54Z</time>
      </trkpt>
      <trkpt lat="44.59851" lon="5.14903">
        <ele>450.8</ele>
        <time>2024-05-17T10:18:55Z</time>
      </trkpt>
      <trkpt lat="44.59851" lon="5.14909">
        <ele>451.1</ele>
        <time>2024-05-17T10:18:56Z</time>
      </trkpt>
      <trkpt lat="44.59851" lon="5.14912">
        <ele>451.2</ele>
        <time>2024-05-17T10:18:57Z</time>
      </trkpt>
      <trkpt lat="44.59851" lon="5.14916">
        <ele>451.3</ele>
        <time>2024-05-17T10:18:58Z</time>
      </trkpt>
      <trkpt lat="44.59851" lon="5.1492">
        <ele>451.5</ele>
        <time>2024-05-17T10:18:59Z</time>
      </trkpt>
      <trkpt lat="44.59851" lon="5.14927">
        <ele>451.7</ele>
        <time>2024-05-17T10:19:00Z</time>
      </trkpt>
      <trkpt lat="44.59851" lon="5.14929">
        <ele>451.8</ele>
        <time>2024-05-17T10:19:01Z</time>
      </trkpt>
      <trkpt lat="44.59851" lon="5.14934">
        <ele>451.9</ele>
        <time>2024-05-17T10:19:02Z</time>
      </trkpt>
      <trkpt lat="44.59851" lon="5.14938">
        <ele>452</ele>
        <time>2024-05-17T10:19:03Z</time>
      </trkpt>
      <trkpt lat="44.59851" lon="5.14943">
        <ele>452.2</ele>
        <time>2024-05-17T10:19:04Z</time>
      </trkpt>
      <trkpt lat="44.59851" lon="5.14948">
        <ele>452.3</ele>
        <time>2024-05-17T10:19:05Z</time>
      </trkpt>
      <trkpt lat="44.59851" lon="5.14952">
        <ele>452.4</ele>
        <time>2024-05-17T10:19:06Z</time>
      </trkpt>
      <trkpt lat="44.59851" lon="5.14957">
        <ele>452.6</ele>
        <time>2024-05-17T10:19:07Z</time>
      </trkpt>
      <trkpt lat="44.5985" lon="5.14961">
        <ele>452.7</ele>
        <time>2024-05-17T10:19:08Z</time>
      </trkpt>
      <trkpt lat="44.5985" lon="5.14966">
        <ele>452.8</ele>
        <time>2024-05-17T10:19:09Z</time>
      </trkpt>
      <trkpt lat="44.59849" lon="5.1497">
        <ele>452.9</ele>
        <time>2024-05-17T10:19:10Z</time>
      </trkpt>
      <trkpt lat="44.59849" lon="5.14974">
        <ele>453.1</ele>
        <time>2024-05-17T10:19:11Z</time>
      </trkpt>
      <trkpt lat="44.59848" lon="5.14981">
        <ele>453.2</ele>
        <time>2024-05-17T10:19:12Z</time>
      </trkpt>
      <trkpt lat="44.59848" lon="5.14983">
        <ele>453.3</ele>
        <time>2024-05-17T10:19:13Z</time>
      </trkpt>
      <trkpt lat="44.59847" lon="5.14989">
        <ele>453.4</ele>
        <time>2024-05-17T10:19:14Z</time>
      </trkpt>
      <trkpt lat="44.59847" lon="5.14991">
        <ele>453.5</ele>
        <time>2024-05-17T10:19:15Z</time>
      </trkpt>
      <trkpt lat="44.59846" lon="5.14998">
        <ele>453.7</ele>
        <time>2024-05-17T10:19:16Z</time>
      </trkpt>
      <trkpt lat="44.59845" lon="5.15">
        <ele>453.7</ele>
        <time>2024-05-17T10:19:17Z</time>
      </trkpt>
      <trkpt lat="44.59844" lon="5.15007">
        <ele>453.7</ele>
        <time>2024-05-17T10:19:18Z</time>
      </trkpt>
      <trkpt lat="44.59844" lon="5.15009">
        <ele>453.7</ele>
        <time>2024-05-17T10:19:19Z</time>
      </trkpt>
      <trkpt lat="44.59843" lon="5.15014">
        <ele>453.7</ele>
        <time>2024-05-17T10:19:20Z</time>
      </trkpt>
      <trkpt lat="44.59843" lon="5.15022">
        <ele>453.6</ele>
        <time>2024-05-17T10:19:21Z</time>
      </trkpt>
      <trkpt lat="44.59843" lon="5.15025">
        <ele>453.6</ele>
        <time>2024-05-17T10:19:22Z</time>
      </trkpt>
      <trkpt lat="44.59845" lon="5.15034">
        <ele>453.6</ele>
        <time>2024-05-17T10:19:23Z</time>
      </trkpt>
      <trkpt lat="44.59846" lon="5.15037">
        <ele>453.5</ele>
        <time>2024-05-17T10:19:24Z</time>
      </trkpt>
      <trkpt lat="44.59849" lon="5.15045">
        <ele>453.5</ele>
        <time>2024-05-17T10:19:25Z</time>
      </trkpt>
      <trkpt lat="44.5985" lon="5.15047">
        <ele>453.5</ele>
        <time>2024-05-17T10:19:26Z</time>
      </trkpt>
      <trkpt lat="44.59856" lon="5.15053">
        <ele>453.4</ele>
        <time>2024-05-17T10:19:27Z</time>
      </trkpt>
      <trkpt lat="44.59858" lon="5.15055">
        <ele>453.4</ele>
        <time>2024-05-17T10:19:28Z</time>
      </trkpt>
      <trkpt lat="44.59865" lon="5.15061">
        <ele>453.4</ele>
        <time>2024-05-17T10:19:29Z</time>
      </trkpt>
      <trkpt lat="44.59867" lon="5.15062">
        <ele>453.4</ele>
        <time>2024-05-17T10:19:30Z</time>
      </trkpt>
      <trkpt lat="44.59872" lon="5.15066">
        <ele>453.4</ele>
        <time>2024-05-17T10:19:31Z</time>
      </trkpt>
      <trkpt lat="44.59878" lon="5.15072">
        <ele>453.4</ele>
        <time>2024-05-17T10:19:32Z</time>
      </trkpt>
      <trkpt lat="44.5988" lon="5.15073">
        <ele>453.4</ele>
        <time>2024-05-17T10:19:33Z</time>
      </trkpt>
      <trkpt lat="44.59886" lon="5.15079">
        <ele>453.5</ele>
        <time>2024-05-17T10:19:34Z</time>
      </trkpt>
      <trkpt lat="44.59888" lon="5.15081">
        <ele>453.5</ele>
        <time>2024-05-17T10:19:35Z</time>
      </trkpt>
      <trkpt lat="44.59892" lon="5.15085">
        <ele>453.5</ele>
        <time>2024-05-17T10:19:36Z</time>
      </trkpt>
      <trkpt lat="44.59899" lon="5.1509">
        <ele>453.7</ele>
        <time>2024-05-17T10:19:37Z</time>
      </trkpt>
      <trkpt lat="44.59901" lon="5.15092">
        <ele>453.7</ele>
        <time>2024-05-17T10:19:38Z</time>
      </trkpt>
      <trkpt lat="44.59904" lon="5.15096">
        <ele>453.8</ele>
        <time>2024-05-17T10:19:39Z</time>
      </trkpt>
      <trkpt lat="44.5991" lon="5.15103">
        <ele>454</ele>
        <time>2024-05-17T10:19:40Z</time>
      </trkpt>
      <trkpt lat="44.59912" lon="5.15105">
        <ele>454.1</ele>
        <time>2024-05-17T10:19:41Z</time>
      </trkpt>
      <trkpt lat="44.59917" lon="5.15111">
        <ele>454.3</ele>
        <time>2024-05-17T10:19:42Z</time>
      </trkpt>
      <trkpt lat="44.59919" lon="5.15113">
        <ele>454.3</ele>
        <time>2024-05-17T10:19:43Z</time>
      </trkpt>
      <trkpt lat="44.59922" lon="5.15117">
        <ele>454.5</ele>
        <time>2024-05-17T10:19:44Z</time>
      </trkpt>
      <trkpt lat="44.59927" lon="5.15123">
        <ele>454.7</ele>
        <time>2024-05-17T10:19:45Z</time>
      </trkpt>
      <trkpt lat="44.59928" lon="5.15125">
        <ele>454.8</ele>
        <time>2024-05-17T10:19:46Z</time>
      </trkpt>
      <trkpt lat="44.59933" lon="5.1513">
        <ele>455.1</ele>
        <time>2024-05-17T10:19:47Z</time>
      </trkpt>
      <trkpt lat="44.59935" lon="5.15132">
        <ele>455.2</ele>
        <time>2024-05-17T10:19:48Z</time>
      </trkpt>
      <trkpt lat="44.59939" lon="5.15139">
        <ele>455.4</ele>
        <time>2024-05-17T10:19:49Z</time>
      </trkpt>
      <trkpt lat="44.59941" lon="5.15142">
        <ele>455.5</ele>
        <time>2024-05-17T10:19:50Z</time>
      </trkpt>
      <trkpt lat="44.59944" lon="5.15147">
        <ele>455.7</ele>
        <time>2024-05-17T10:19:51Z</time>
      </trkpt>
      <trkpt lat="44.59947" lon="5.15152">
        <ele>455.8</ele>
        <time>2024-05-17T10:19:52Z</time>
      </trkpt>
      <trkpt lat="44.59949" lon="5.15157">
        <ele>455.9</ele>
        <time>2024-05-17T10:19:53Z</time>
      </trkpt>
      <trkpt lat="44.59952" lon="5.15165">
        <ele>456</ele>
        <time>2024-05-17T10:19:54Z</time>
      </trkpt>
      <trkpt lat="44.59953" lon="5.15168">
        <ele>456.1</ele>
        <time>2024-05-17T10:19:55Z</time>
      </trkpt>
      <trkpt lat="44.59956" lon="5.15176">
        <ele>456.2</ele>
        <time>2024-05-17T10:19:56Z</time>
      </trkpt>
      <trkpt lat="44.59957" lon="5.15179">
        <ele>456.2</ele>
        <time>2024-05-17T10:19:57Z</time>
      </trkpt>
      <trkpt lat="44.59959" lon="5.15187">
        <ele>456.3</ele>
        <time>2024-05-17T10:19:58Z</time>
      </trkpt>
      <trkpt lat="44.59959" lon="5.1519">
        <ele>456.4</ele>
        <time>2024-05-17T10:19:59Z</time>
      </trkpt>
      <trkpt lat="44.5996" lon="5.152">
        <ele>456.5</ele>
        <time>2024-05-17T10:20:00Z</time>
      </trkpt>
      <trkpt lat="44.5996" lon="5.15204">
        <ele>456.5</ele>
        <time>2024-05-17T10:20:01Z</time>
      </trkpt>
      <trkpt lat="44.5996" lon="5.15213">
        <ele>456.6</ele>
        <time>2024-05-17T10:20:02Z</time>
      </trkpt>
      <trkpt lat="44.5996" lon="5.15217">
        <ele>456.7</ele>
        <time>2024-05-17T10:20:03Z</time>
      </trkpt>
      <trkpt lat="44.59959" lon="5.15226">
        <ele>456.8</ele>
        <time>2024-05-17T10:20:04Z</time>
      </trkpt>
      <trkpt lat="44.59959" lon="5.15229">
        <ele>456.8</ele>
        <time>2024-05-17T10:20:05Z</time>
      </trkpt>
      <trkpt lat="44.59958" lon="5.15236">
        <ele>456.9</ele>
        <time>2024-05-17T10:20:06Z</time>
      </trkpt>
      <trkpt lat="44.59958" lon="5.15246">
        <ele>457.1</ele>
        <time>2024-05-17T10:20:07Z</time>
      </trkpt>
      <trkpt lat="44.59958" lon="5.15249">
        <ele>457.1</ele>
        <time>2024-05-17T10:20:08Z</time>
      </trkpt>
      <trkpt lat="44.59958" lon="5.15256">
        <ele>457.2</ele>
        <time>2024-05-17T10:20:09Z</time>
      </trkpt>
      <trkpt lat="44.59958" lon="5.15264">
        <ele>457.4</ele>
        <time>2024-05-17T10:20:10Z</time>
      </trkpt>
      <trkpt lat="44.59957" lon="5.15267">
        <ele>457.5</ele>
        <time>2024-05-17T10:20:11Z</time>
      </trkpt>
      <trkpt lat="44.59957" lon="5.15276">
        <ele>457.6</ele>
        <time>2024-05-17T10:20:12Z</time>
      </trkpt>
      <trkpt lat="44.59957" lon="5.15279">
        <ele>457.7</ele>
        <time>2024-05-17T10:20:13Z</time>
      </trkpt>
      <trkpt lat="44.59957" lon="5.15285">
        <ele>457.8</ele>
        <time>2024-05-17T10:20:14Z</time>
      </trkpt>
      <trkpt lat="44.59957" lon="5.15294">
        <ele>458</ele>
        <time>2024-05-17T10:20:15Z</time>
      </trkpt>
      <trkpt lat="44.59957" lon="5.15297">
        <ele>458.1</ele>
        <time>2024-05-17T10:20:16Z</time>
      </trkpt>
      <trkpt lat="44.59957" lon="5.15307">
        <ele>458.3</ele>
        <time>2024-05-17T10:20:17Z</time>
      </trkpt>
      <trkpt lat="44.59957" lon="5.1531">
        <ele>458.4</ele>
        <time>2024-05-17T10:20:18Z</time>
      </trkpt>
      <trkpt lat="44.59956" lon="5.15319">
        <ele>458.6</ele>
        <time>2024-05-17T10:20:19Z</time>
      </trkpt>
      <trkpt lat="44.59956" lon="5.15322">
        <ele>458.6</ele>
        <time>2024-05-17T10:20:20Z</time>
      </trkpt>
      <trkpt lat="44.59956" lon="5.15328">
        <ele>458.8</ele>
        <time>2024-05-17T10:20:21Z</time>
      </trkpt>
      <trkpt lat="44.59955" lon="5.15337">
        <ele>459</ele>
        <time>2024-05-17T10:20:22Z</time>
      </trkpt>
      <trkpt lat="44.59955" lon="5.1534">
        <ele>459</ele>
        <time>2024-05-17T10:20:23Z</time>
      </trkpt>
      <trkpt lat="44.59955" lon="5.15346">
        <ele>459.2</ele>
        <time>2024-05-17T10:20:24Z</time>
      </trkpt>
      <trkpt lat="44.59953" lon="5.15352">
        <ele>459.3</ele>
        <time>2024-05-17T10:20:25Z</time>
      </trkpt>
      <trkpt lat="44.59952" lon="5.1536">
        <ele>459.5</ele>
        <time>2024-05-17T10:20:26Z</time>
      </trkpt>
      <trkpt lat="44.59951" lon="5.15362">
        <ele>459.5</ele>
        <time>2024-05-17T10:20:27Z</time>
      </trkpt>
      <trkpt lat="44.59949" lon="5.1537">
        <ele>459.7</ele>
        <time>2024-05-17T10:20:28Z</time>
      </trkpt>
      <trkpt lat="44.59948" lon="5.15373">
        <ele>459.7</ele>
        <time>2024-05-17T10:20:29Z</time>
      </trkpt>
      <trkpt lat="44.59944" lon="5.1538">
        <ele>459.7</ele>
        <time>2024-05-17T10:20:30Z</time>
      </trkpt>
      <trkpt lat="44.59943" lon="5.15382">
        <ele>459.8</ele>
        <time>2024-05-17T10:20:31Z</time>
      </trkpt>
      <trkpt lat="44.5994" lon="5.15386">
        <ele>459.9</ele>
        <time>2024-05-17T10:20:32Z</time>
      </trkpt>
      <trkpt lat="44.59937" lon="5.15391">
        <ele>460</ele>
        <time>2024-05-17T10:20:33Z</time>
      </trkpt>
      <trkpt lat="44.59935" lon="5.15395">
        <ele>460.1</ele>
        <time>2024-05-17T10:20:34Z</time>
      </trkpt>
      <trkpt lat="44.59931" lon="5.15402">
        <ele>460.3</ele>
        <time>2024-05-17T10:20:35Z</time>
      </trkpt>
      <trkpt lat="44.5993" lon="5.15404">
        <ele>460.4</ele>
        <time>2024-05-17T10:20:36Z</time>
      </trkpt>
      <trkpt lat="44.59926" lon="5.1541">
        <ele>460.5</ele>
        <time>2024-05-17T10:20:37Z</time>
      </trkpt>
      <trkpt lat="44.59922" lon="5.15417">
        <ele>460.6</ele>
        <time>2024-05-17T10:20:38Z</time>
      </trkpt>
      <trkpt lat="44.59921" lon="5.1542">
        <ele>460.7</ele>
        <time>2024-05-17T10:20:39Z</time>
      </trkpt>
      <trkpt lat="44.59917" lon="5.15428">
        <ele>460.8</ele>
        <time>2024-05-17T10:20:40Z</time>
      </trkpt>
      <trkpt lat="44.59916" lon="5.1543">
        <ele>460.8</ele>
        <time>2024-05-17T10:20:41Z</time>
      </trkpt>
      <trkpt lat="44.59912" lon="5.15438">
        <ele>460.9</ele>
        <time>2024-05-17T10:20:42Z</time>
      </trkpt>
      <trkpt lat="44.59911" lon="5.15441">
        <ele>461</ele>
        <time>2024-05-17T10:20:43Z</time>
      </trkpt>
      <trkpt lat="44.59907" lon="5.15448">
        <ele>461.1</ele>
        <time>2024-05-17T10:20:44Z</time>
      </trkpt>
      <trkpt lat="44.59905" lon="5.1545">
        <ele>461.2</ele>
        <time>2024-05-17T10:20:45Z</time>
      </trkpt>
      <trkpt lat="44.59901" lon="5.15458">
        <ele>461.3</ele>
        <time>2024-05-17T10:20:46Z</time>
      </trkpt>
      <trkpt lat="44.599" lon="5.1546">
        <ele>461.4</ele>
        <time>2024-05-17T10:20:47Z</time>
      </trkpt>
      <trkpt lat="44.59897" lon="5.15464">
        <ele>461.5</ele>
        <time>2024-05-17T10:20:48Z</time>
      </trkpt>
      <trkpt lat="44.59893" lon="5.15471">
        <ele>461.7</ele>
        <time>2024-05-17T10:20:49Z</time>
      </trkpt>
      <trkpt lat="44.59891" lon="5.15474">
        <ele>461.8</ele>
        <time>2024-05-17T10:20:50Z</time>
      </trkpt>
      <trkpt lat="44.59889" lon="5.15479">
        <ele>461.9</ele>
        <time>2024-05-17T10:20:51Z</time>
      </trkpt>
      <trkpt lat="44.59885" lon="5.15486">
        <ele>462.2</ele>
        <time>2024-05-17T10:20:52Z</time>
      </trkpt>
      <trkpt lat="44.59884" lon="5.15488">
        <ele>462.2</ele>
        <time>2024-05-17T10:20:53Z</time>
      </trkpt>
      <trkpt lat="44.59881" lon="5.15494">
        <ele>462.5</ele>
        <time>2024-05-17T10:20:54Z</time>
      </trkpt>
      <trkpt lat="44.5988" lon="5.15496">
        <ele>462.6</ele>
        <time>2024-05-17T10:20:55Z</time>
      </trkpt>
      <trkpt lat="44.59877" lon="5.155">
        <ele>462.7</ele>
        <time>2024-05-17T10:20:56Z</time>
      </trkpt>
      <trkpt lat="44.59874" lon="5.15507">
        <ele>463</ele>
        <time>2024-05-17T10:20:57Z</time>
      </trkpt>
      <trkpt lat="44.59873" lon="5.15509">
        <ele>463.1</ele>
        <time>2024-05-17T10:20:58Z</time>
      </trkpt>
      <trkpt lat="44.5987" lon="5.15516">
        <ele>463.4</ele>
        <time>2024-05-17T10:20:59Z</time>
      </trkpt>
      <trkpt lat="44.59869" lon="5.15518">
        <ele>463.5</ele>
        <time>2024-05-17T10:21:00Z</time>
      </trkpt>
      <trkpt lat="44.59866" lon="5.15524">
        <ele>463.8</ele>
        <time>2024-05-17T10:21:01Z</time>
      </trkpt>
      <trkpt lat="44.59865" lon="5.15527">
        <ele>463.9</ele>
        <time>2024-05-17T10:21:02Z</time>
      </trkpt>
      <trkpt lat="44.59863" lon="5.15531">
        <ele>464.1</ele>
        <time>2024-05-17T10:21:03Z</time>
      </trkpt>
      <trkpt lat="44.5986" lon="5.15535">
        <ele>464.3</ele>
        <time>2024-05-17T10:21:04Z</time>
      </trkpt>
      <trkpt lat="44.59858" lon="5.15539">
        <ele>464.5</ele>
        <time>2024-05-17T10:21:05Z</time>
      </trkpt>
      <trkpt lat="44.59854" lon="5.15545">
        <ele>464.8</ele>
        <time>2024-05-17T10:21:06Z</time>
      </trkpt>
      <trkpt lat="44.59853" lon="5.15547">
        <ele>464.9</ele>
        <time>2024-05-17T10:21:07Z</time>
      </trkpt>
      <trkpt lat="44.59849" lon="5.15552">
        <ele>465.3</ele>
        <time>2024-05-17T10:21:08Z</time>
      </trkpt>
      <trkpt lat="44.59848" lon="5.15554">
        <ele>465.3</ele>
        <time>2024-05-17T10:21:09Z</time>
      </trkpt>
      <trkpt lat="44.59844" lon="5.15559">
        <ele>465.6</ele>
        <time>2024-05-17T10:21:10Z</time>
      </trkpt>
      <trkpt lat="44.59843" lon="5.15561">
        <ele>465.7</ele>
        <time>2024-05-17T10:21:11Z</time>
      </trkpt>
      <trkpt lat="44.59839" lon="5.15567">
        <ele>466</ele>
        <time>2024-05-17T10:21:12Z</time>
      </trkpt>
      <trkpt lat="44.59838" lon="5.15569">
        <ele>466.1</ele>
        <time>2024-05-17T10:21:13Z</time>
      </trkpt>
      <trkpt lat="44.59835" lon="5.15574">
        <ele>466.3</ele>
        <time>2024-05-17T10:21:14Z</time>
      </trkpt>
      <trkpt lat="44.59834" lon="5.15576">
        <ele>466.4</ele>
        <time>2024-05-17T10:21:15Z</time>
      </trkpt>
      <trkpt lat="44.59832" lon="5.15579">
        <ele>466.6</ele>
        <time>2024-05-17T10:21:16Z</time>
      </trkpt>
      <trkpt lat="44.59829" lon="5.15582">
        <ele>466.7</ele>
        <time>2024-05-17T10:21:17Z</time>
      </trkpt>
      <trkpt lat="44.59827" lon="5.15586">
        <ele>466.9</ele>
        <time>2024-05-17T10:21:18Z</time>
      </trkpt>
      <trkpt lat="44.59824" lon="5.15592">
        <ele>467.2</ele>
        <time>2024-05-17T10:21:19Z</time>
      </trkpt>
      <trkpt lat="44.59823" lon="5.15594">
        <ele>467.3</ele>
        <time>2024-05-17T10:21:20Z</time>
      </trkpt>
      <trkpt lat="44.5982" lon="5.15598">
        <ele>467.4</ele>
        <time>2024-05-17T10:21:21Z</time>
      </trkpt>
      <trkpt lat="44.59817" lon="5.15603">
        <ele>467.7</ele>
        <time>2024-05-17T10:21:22Z</time>
      </trkpt>
      <trkpt lat="44.59816" lon="5.15605">
        <ele>467.7</ele>
        <time>2024-05-17T10:21:23Z</time>
      </trkpt>
      <trkpt lat="44.59813" lon="5.15612">
        <ele>468</ele>
        <time>2024-05-17T10:21:24Z</time>
      </trkpt>
      <trkpt lat="44.59811" lon="5.15614">
        <ele>468.1</ele>
        <time>2024-05-17T10:21:25Z</time>
      </trkpt>
      <trkpt lat="44.59807" lon="5.1562">
        <ele>468.3</ele>
        <time>2024-05-17T10:21:26Z</time>
      </trkpt>
      <trkpt lat="44.59806" lon="5.15623">
        <ele>468.4</ele>
        <time>2024-05-17T10:21:27Z</time>
      </trkpt>
      <trkpt lat="44.59804" lon="5.15627">
        <ele>468.6</ele>
        <time>2024-05-17T10:21:28Z</time>
      </trkpt>
      <trkpt lat="44.59801" lon="5.15631">
        <ele>468.7</ele>
        <time>2024-05-17T10:21:29Z</time>
      </trkpt>
      <trkpt lat="44.59799" lon="5.15636">
        <ele>468.9</ele>
        <time>2024-05-17T10:21:30Z</time>
      </trkpt>
      <trkpt lat="44.59797" lon="5.15639">
        <ele>469</ele>
        <time>2024-05-17T10:21:31Z</time>
      </trkpt>
      <trkpt lat="44.59794" lon="5.15645">
        <ele>469.2</ele>
        <time>2024-05-17T10:21:32Z</time>
      </trkpt>
      <trkpt lat="44.59793" lon="5.15647">
        <ele>469.2</ele>
        <time>2024-05-17T10:21:33Z</time>
      </trkpt>
      <trkpt lat="44.59792" lon="5.15651">
        <ele>469.3</ele>
        <time>2024-05-17T10:21:34Z</time>
      </trkpt>
      <trkpt lat="44.59789" lon="5.15657">
        <ele>469.5</ele>
        <time>2024-05-17T10:21:35Z</time>
      </trkpt>
      <trkpt lat="44.59788" lon="5.15659">
        <ele>469.6</ele>
        <time>2024-05-17T10:21:36Z</time>
      </trkpt>
      <trkpt lat="44.59785" lon="5.15665">
        <ele>469.8</ele>
        <time>2024-05-17T10:21:37Z</time>
      </trkpt>
      <trkpt lat="44.59784" lon="5.15667">
        <ele>469.8</ele>
        <time>2024-05-17T10:21:38Z</time>
      </trkpt>
      <trkpt lat="44.59781" lon="5.15673">
        <ele>470</ele>
        <time>2024-05-17T10:21:39Z</time>
      </trkpt>
      <trkpt lat="44.5978" lon="5.15675">
        <ele>470</ele>
        <time>2024-05-17T10:21:40Z</time>
      </trkpt>
      <trkpt lat="44.59778" lon="5.15683">
        <ele>470.2</ele>
        <time>2024-05-17T10:21:41Z</time>
      </trkpt>
      <trkpt lat="44.59777" lon="5.15685">
        <ele>470.2</ele>
        <time>2024-05-17T10:21:42Z</time>
      </trkpt>
      <trkpt lat="44.59775" lon="5.15692">
        <ele>470.3</ele>
        <time>2024-05-17T10:21:43Z</time>
      </trkpt>
      <trkpt lat="44.59775" lon="5.15694">
        <ele>470.3</ele>
        <time>2024-05-17T10:21:44Z</time>
      </trkpt>
      <trkpt lat="44.59773" lon="5.15702">
        <ele>470.4</ele>
        <time>2024-05-17T10:21:45Z</time>
      </trkpt>
      <trkpt lat="44.59772" lon="5.15704">
        <ele>470.4</ele>
        <time>2024-05-17T10:21:46Z</time>
      </trkpt>
      <trkpt lat="44.59771" lon="5.1571">
        <ele>470.4</ele>
        <time>2024-05-17T10:21:47Z</time>
      </trkpt>
      <trkpt lat="44.5977" lon="5.15719">
        <ele>470.4</ele>
        <time>2024-05-17T10:21:48Z</time>
      </trkpt>
      <trkpt lat="44.59769" lon="5.15722">
        <ele>470.4</ele>
        <time>2024-05-17T10:21:49Z</time>
      </trkpt>
      <trkpt lat="44.59768" lon="5.15728">
        <ele>470.4</ele>
        <time>2024-05-17T10:21:50Z</time>
      </trkpt>
      <trkpt lat="44.59765" lon="5.15738">
        <ele>470.4</ele>
        <time>2024-05-17T10:21:51Z</time>
      </trkpt>
      <trkpt lat="44.59764" lon="5.15741">
        <ele>470.4</ele>
        <time>2024-05-17T10:21:52Z</time>
      </trkpt>
      <trkpt lat="44.59762" lon="5.1575">
        <ele>470.4</ele>
        <time>2024-05-17T10:21:53Z</time>
      </trkpt>
      <trkpt lat="44.59761" lon="5.15753">
        <ele>470.5</ele>
        <time>2024-05-17T10:21:54Z</time>
      </trkpt>
      <trkpt lat="44.59758" lon="5.15762">
        <ele>470.5</ele>
        <time>2024-05-17T10:21:55Z</time>
      </trkpt>
      <trkpt lat="44.59757" lon="5.15765">
        <ele>470.6</ele>
        <time>2024-05-17T10:21:56Z</time>
      </trkpt>
      <trkpt lat="44.59754" lon="5.15773">
        <ele>470.7</ele>
        <time>2024-05-17T10:21:57Z</time>
      </trkpt>
      <trkpt lat="44.59753" lon="5.15776">
        <ele>470.7</ele>
        <time>2024-05-17T10:21:58Z</time>
      </trkpt>
      <trkpt lat="44.59751" lon="5.15781">
        <ele>470.8</ele>
        <time>2024-05-17T10:21:59Z</time>
      </trkpt>
      <trkpt lat="44.59748" lon="5.15787">
        <ele>470.9</ele>
        <time>2024-05-17T10:22:00Z</time>
      </trkpt>
      <trkpt lat="44.59746" lon="5.15792">
        <ele>471</ele>
        <time>2024-05-17T10:22:01Z</time>
      </trkpt>
      <trkpt lat="44.59743" lon="5.158">
        <ele>471.1</ele>
        <time>2024-05-17T10:22:02Z</time>
      </trkpt>
      <trkpt lat="44.59742" lon="5.15803">
        <ele>471.1</ele>
        <time>2024-05-17T10:22:03Z</time>
      </trkpt>
      <trkpt lat="44.5974" lon="5.15808">
        <ele>471.2</ele>
        <time>2024-05-17T10:22:04Z</time>
      </trkpt>
      <trkpt lat="44.59736" lon="5.15816">
        <ele>471.4</ele>
        <time>2024-05-17T10:22:05Z</time>
      </trkpt>
      <trkpt lat="44.59735" lon="5.15819">
        <ele>471.4</ele>
        <time>2024-05-17T10:22:06Z</time>
      </trkpt>
      <trkpt lat="44.59732" lon="5.15827">
        <ele>471.6</ele>
        <time>2024-05-17T10:22:07Z</time>
      </trkpt>
      <trkpt lat="44.5973" lon="5.15829">
        <ele>471.6</ele>
        <time>2024-05-17T10:22:08Z</time>
      </trkpt>
      <trkpt lat="44.59727" lon="5.15837">
        <ele>471.8</ele>
        <time>2024-05-17T10:22:09Z</time>
      </trkpt>
      <trkpt lat="44.59726" lon="5.1584">
        <ele>471.8</ele>
        <time>2024-05-17T10:22:10Z</time>
      </trkpt>
      <trkpt lat="44.59722" lon="5.15848">
        <ele>471.9</ele>
        <time>2024-05-17T10:22:11Z</time>
      </trkpt>
      <trkpt lat="44.59721" lon="5.1585">
        <ele>471.9</ele>
        <time>2024-05-17T10:22:12Z</time>
      </trkpt>
      <trkpt lat="44.59718" lon="5.15858">
        <ele>472</ele>
        <time>2024-05-17T10:22:13Z</time>
      </trkpt>
      <trkpt lat="44.59716" lon="5.15861">
        <ele>472.1</ele>
        <time>2024-05-17T10:22:14Z</time>
      </trkpt>
      <trkpt lat="44.59714" lon="5.15866">
        <ele>472.2</ele>
        <time>2024-05-17T10:22:15Z</time>
      </trkpt>
      <trkpt lat="44.59711" lon="5.15874">
        <ele>472.3</ele>
        <time>2024-05-17T10:22:16Z</time>
      </trkpt>
      <trkpt lat="44.5971" lon="5.15876">
        <ele>472.3</ele>
        <time>2024-05-17T10:22:17Z</time>
      </trkpt>
      <trkpt lat="44.59708" lon="5.15881">
        <ele>472.4</ele>
        <time>2024-05-17T10:22:18Z</time>
      </trkpt>
      <trkpt lat="44.59705" lon="5.15889">
        <ele>472.5</ele>
        <time>2024-05-17T10:22:19Z</time>
      </trkpt>
      <trkpt lat="44.59704" lon="5.15891">
        <ele>472.6</ele>
        <time>2024-05-17T10:22:20Z</time>
      </trkpt>
      <trkpt lat="44.59701" lon="5.15898">
        <ele>472.7</ele>
        <time>2024-05-17T10:22:21Z</time>
      </trkpt>
      <trkpt lat="44.597" lon="5.15901">
        <ele>472.8</ele>
        <time>2024-05-17T10:22:22Z</time>
      </trkpt>
      <trkpt lat="44.59697" lon="5.15908">
        <ele>473</ele>
        <time>2024-05-17T10:22:23Z</time>
      </trkpt>
      <trkpt lat="44.59696" lon="5.1591">
        <ele>473</ele>
        <time>2024-05-17T10:22:24Z</time>
      </trkpt>
      <trkpt lat="44.59694" lon="5.15915">
        <ele>473.1</ele>
        <time>2024-05-17T10:22:25Z</time>
      </trkpt>
      <trkpt lat="44.59691" lon="5.15922">
        <ele>473.3</ele>
        <time>2024-05-17T10:22:26Z</time>
      </trkpt>
      <trkpt lat="44.5969" lon="5.15924">
        <ele>473.3</ele>
        <time>2024-05-17T10:22:27Z</time>
      </trkpt>
      <trkpt lat="44.59687" lon="5.15931">
        <ele>473.5</ele>
        <time>2024-05-17T10:22:28Z</time>
      </trkpt>
      <trkpt lat="44.59686" lon="5.15933">
        <ele>473.5</ele>
        <time>2024-05-17T10:22:29Z</time>
      </trkpt>
      <trkpt lat="44.59683" lon="5.15938">
        <ele>473.7</ele>
        <time>2024-05-17T10:22:30Z</time>
      </trkpt>
      <trkpt lat="44.5968" lon="5.15945">
        <ele>473.9</ele>
        <time>2024-05-17T10:22:31Z</time>
      </trkpt>
      <trkpt lat="44.59679" lon="5.15947">
        <ele>473.9</ele>
        <time>2024-05-17T10:22:32Z</time>
      </trkpt>
      <trkpt lat="44.59677" lon="5.15951">
        <ele>474.1</ele>
        <time>2024-05-17T10:22:33Z</time>
      </trkpt>
      <trkpt lat="44.59674" lon="5.15957">
        <ele>474.3</ele>
        <time>2024-05-17T10:22:34Z</time>
      </trkpt>
      <trkpt lat="44.59673" lon="5.15959">
        <ele>474.3</ele>
        <time>2024-05-17T10:22:35Z</time>
      </trkpt>
      <trkpt lat="44.59672" lon="5.15963">
        <ele>474.4</ele>
        <time>2024-05-17T10:22:36Z</time>
      </trkpt>
      <trkpt lat="44.5967" lon="5.15966">
        <ele>474.6</ele>
        <time>2024-05-17T10:22:37Z</time>
      </trkpt>
      <trkpt lat="44.59667" lon="5.15969">
        <ele>474.7</ele>
        <time>2024-05-17T10:22:38Z</time>
      </trkpt>
      <trkpt lat="44.59665" lon="5.15973">
        <ele>474.8</ele>
        <time>2024-05-17T10:22:39Z</time>
      </trkpt>
      <trkpt lat="44.59663" lon="5.15977">
        <ele>475</ele>
        <time>2024-05-17T10:22:40Z</time>
      </trkpt>
      <trkpt lat="44.59661" lon="5.1598">
        <ele>475.1</ele>
        <time>2024-05-17T10:22:41Z</time>
      </trkpt>
      <trkpt lat="44.59659" lon="5.15984">
        <ele>475.2</ele>
        <time>2024-05-17T10:22:42Z</time>
      </trkpt>
      <trkpt lat="44.59656" lon="5.15988">
        <ele>475.4</ele>
        <time>2024-05-17T10:22:43Z</time>
      </trkpt>
      <trkpt lat="44.59654" lon="5.15992">
        <ele>475.5</ele>
        <time>2024-05-17T10:22:44Z</time>
      </trkpt>
      <trkpt lat="44.59652" lon="5.15995">
        <ele>475.7</ele>
        <time>2024-05-17T10:22:45Z</time>
      </trkpt>
      <trkpt lat="44.59649" lon="5.16001">
        <ele>475.9</ele>
        <time>2024-05-17T10:22:46Z</time>
      </trkpt>
      <trkpt lat="44.59647" lon="5.16002">
        <ele>476</ele>
        <time>2024-05-17T10:22:47Z</time>
      </trkpt>
      <trkpt lat="44.59645" lon="5.16006">
        <ele>476.1</ele>
        <time>2024-05-17T10:22:48Z</time>
      </trkpt>
      <trkpt lat="44.59641" lon="5.16012">
        <ele>476.3</ele>
        <time>2024-05-17T10:22:49Z</time>
      </trkpt>
      <trkpt lat="44.5964" lon="5.16014">
        <ele>476.3</ele>
        <time>2024-05-17T10:22:50Z</time>
      </trkpt>
      <trkpt lat="44.59636" lon="5.1602">
        <ele>476.5</ele>
        <time>2024-05-17T10:22:51Z</time>
      </trkpt>
      <trkpt lat="44.59635" lon="5.16022">
        <ele>476.6</ele>
        <time>2024-05-17T10:22:52Z</time>
      </trkpt>
      <trkpt lat="44.59632" lon="5.16028">
        <ele>476.8</ele>
        <time>2024-05-17T10:22:53Z</time>
      </trkpt>
      <trkpt lat="44.5963" lon="5.1603">
        <ele>476.8</ele>
        <time>2024-05-17T10:22:54Z</time>
      </trkpt>
      <trkpt lat="44.59627" lon="5.16036">
        <ele>477</ele>
        <time>2024-05-17T10:22:55Z</time>
      </trkpt>
      <trkpt lat="44.59626" lon="5.16039">
        <ele>477.1</ele>
        <time>2024-05-17T10:22:56Z</time>
      </trkpt>
      <trkpt lat="44.59623" lon="5.16045">
        <ele>477.3</ele>
        <time>2024-05-17T10:22:57Z</time>
      </trkpt>
      <trkpt lat="44.59622" lon="5.16047">
        <ele>477.4</ele>
        <time>2024-05-17T10:22:58Z</time>
      </trkpt>
      <trkpt lat="44.5962" lon="5.16052">
        <ele>477.5</ele>
        <time>2024-05-17T10:22:59Z</time>
      </trkpt>
      <trkpt lat="44.59619" lon="5.16057">
        <ele>477.6</ele>
        <time>2024-05-17T10:23:00Z</time>
      </trkpt>
      <trkpt lat="44.59617" lon="5.16064">
        <ele>477.8</ele>
        <time>2024-05-17T10:23:01Z</time>
      </trkpt>
      <trkpt lat="44.59616" lon="5.16067">
        <ele>477.9</ele>
        <time>2024-05-17T10:23:02Z</time>
      </trkpt>
      <trkpt lat="44.59615" lon="5.16072">
        <ele>478</ele>
        <time>2024-05-17T10:23:03Z</time>
      </trkpt>
      <trkpt lat="44.59614" lon="5.16077">
        <ele>478.2</ele>
        <time>2024-05-17T10:23:04Z</time>
      </trkpt>
      <trkpt lat="44.59612" lon="5.16086">
        <ele>478.4</ele>
        <time>2024-05-17T10:23:05Z</time>
      </trkpt>
      <trkpt lat="44.59611" lon="5.16088">
        <ele>478.4</ele>
        <time>2024-05-17T10:23:06Z</time>
      </trkpt>
      <trkpt lat="44.5961" lon="5.16093">
        <ele>478.5</ele>
        <time>2024-05-17T10:23:07Z</time>
      </trkpt>
      <trkpt lat="44.59608" lon="5.16101">
        <ele>478.7</ele>
        <time>2024-05-17T10:23:08Z</time>
      </trkpt>
      <trkpt lat="44.59607" lon="5.16104">
        <ele>478.8</ele>
        <time>2024-05-17T10:23:09Z</time>
      </trkpt>
      <trkpt lat="44.59605" lon="5.16111">
        <ele>479</ele>
        <time>2024-05-17T10:23:10Z</time>
      </trkpt>
      <trkpt lat="44.59605" lon="5.16114">
        <ele>479</ele>
        <time>2024-05-17T10:23:11Z</time>
      </trkpt>
      <trkpt lat="44.59602" lon="5.16121">
        <ele>479.3</ele>
        <time>2024-05-17T10:23:12Z</time>
      </trkpt>
      <trkpt lat="44.59602" lon="5.16124">
        <ele>479.3</ele>
        <time>2024-05-17T10:23:13Z</time>
      </trkpt>
      <trkpt lat="44.596" lon="5.16129">
        <ele>479.5</ele>
        <time>2024-05-17T10:23:14Z</time>
      </trkpt>
      <trkpt lat="44.59597" lon="5.16135">
        <ele>479.7</ele>
        <time>2024-05-17T10:23:15Z</time>
      </trkpt>
      <trkpt lat="44.59596" lon="5.16138">
        <ele>479.8</ele>
        <time>2024-05-17T10:23:16Z</time>
      </trkpt>
      <trkpt lat="44.59594" lon="5.16142">
        <ele>480</ele>
        <time>2024-05-17T10:23:17Z</time>
      </trkpt>
      <trkpt lat="44.59592" lon="5.16147">
        <ele>480.1</ele>
        <time>2024-05-17T10:23:18Z</time>
      </trkpt>
      <trkpt lat="44.59589" lon="5.16154">
        <ele>480.4</ele>
        <time>2024-05-17T10:23:19Z</time>
      </trkpt>
      <trkpt lat="44.59589" lon="5.16156">
        <ele>480.5</ele>
        <time>2024-05-17T10:23:20Z</time>
      </trkpt>
      <trkpt lat="44.59586" lon="5.16162">
        <ele>480.8</ele>
        <time>2024-05-17T10:23:21Z</time>
      </trkpt>
      <trkpt lat="44.59585" lon="5.16163">
        <ele>480.8</ele>
        <time>2024-05-17T10:23:22Z</time>
      </trkpt>
      <trkpt lat="44.59583" lon="5.16167">
        <ele>481</ele>
        <time>2024-05-17T10:23:23Z</time>
      </trkpt>
      <trkpt lat="44.59581" lon="5.16171">
        <ele>481.2</ele>
        <time>2024-05-17T10:23:24Z</time>
      </trkpt>
      <trkpt lat="44.59579" lon="5.16175">
        <ele>481.4</ele>
        <time>2024-05-17T10:23:25Z</time>
      </trkpt>
      <trkpt lat="44.59577" lon="5.16179">
        <ele>481.6</ele>
        <time>2024-05-17T10:23:26Z</time>
      </trkpt>
      <trkpt lat="44.59576" lon="5.16183">
        <ele>481.3</ele>
        <time>2024-05-17T10:23:27Z</time>
      </trkpt>
      <trkpt lat="44.59575" lon="5.1619">
        <ele>481.4</ele>
        <time>2024-05-17T10:23:28Z</time>
      </trkpt>
      <trkpt lat="44.59575" lon="5.16192">
        <ele>481.4</ele>
        <time>2024-05-17T10:23:29Z</time>
      </trkpt>
      <trkpt lat="44.59574" lon="5.16197">
        <ele>481.6</ele>
        <time>2024-05-17T10:23:30Z</time>
      </trkpt>
      <trkpt lat="44.59573" lon="5.16204">
        <ele>481.9</ele>
        <time>2024-05-17T10:23:31Z</time>
      </trkpt>
      <trkpt lat="44.59573" lon="5.16207">
        <ele>482</ele>
        <time>2024-05-17T10:23:32Z</time>
      </trkpt>
      <trkpt lat="44.59572" lon="5.16214">
        <ele>482.2</ele>
        <time>2024-05-17T10:23:33Z</time>
      </trkpt>
      <trkpt lat="44.59572" lon="5.16216">
        <ele>482.3</ele>
        <time>2024-05-17T10:23:34Z</time>
      </trkpt>
      <trkpt lat="44.59572" lon="5.16223">
        <ele>482.6</ele>
        <time>2024-05-17T10:23:35Z</time>
      </trkpt>
      <trkpt lat="44.59572" lon="5.16226">
        <ele>482.7</ele>
        <time>2024-05-17T10:23:36Z</time>
      </trkpt>
      <trkpt lat="44.59571" lon="5.16231">
        <ele>482.9</ele>
        <time>2024-05-17T10:23:37Z</time>
      </trkpt>
      <trkpt lat="44.59571" lon="5.16238">
        <ele>483.2</ele>
        <time>2024-05-17T10:23:38Z</time>
      </trkpt>
      <trkpt lat="44.5957" lon="5.1624">
        <ele>483.3</ele>
        <time>2024-05-17T10:23:39Z</time>
      </trkpt>
      <trkpt lat="44.5957" lon="5.16248">
        <ele>483.7</ele>
        <time>2024-05-17T10:23:40Z</time>
      </trkpt>
      <trkpt lat="44.5957" lon="5.1625">
        <ele>483.8</ele>
        <time>2024-05-17T10:23:41Z</time>
      </trkpt>
      <trkpt lat="44.5957" lon="5.16255">
        <ele>484</ele>
        <time>2024-05-17T10:23:42Z</time>
      </trkpt>
      <trkpt lat="44.5957" lon="5.16259">
        <ele>484.2</ele>
        <time>2024-05-17T10:23:43Z</time>
      </trkpt>
      <trkpt lat="44.5957" lon="5.16266">
        <ele>484.5</ele>
        <time>2024-05-17T10:23:44Z</time>
      </trkpt>
      <trkpt lat="44.59569" lon="5.16269">
        <ele>484.7</ele>
        <time>2024-05-17T10:23:45Z</time>
      </trkpt>
      <trkpt lat="44.59569" lon="5.16276">
        <ele>485</ele>
        <time>2024-05-17T10:23:46Z</time>
      </trkpt>
      <trkpt lat="44.59569" lon="5.16278">
        <ele>485.1</ele>
        <time>2024-05-17T10:23:47Z</time>
      </trkpt>
      <trkpt lat="44.59569" lon="5.16284">
        <ele>485.4</ele>
        <time>2024-05-17T10:23:48Z</time>
      </trkpt>
      <trkpt lat="44.59569" lon="5.16287">
        <ele>485.5</ele>
        <time>2024-05-17T10:23:49Z</time>
      </trkpt>
      <trkpt lat="44.59569" lon="5.16291">
        <ele>485.7</ele>
        <time>2024-05-17T10:23:50Z</time>
      </trkpt>
      <trkpt lat="44.59569" lon="5.16297">
        <ele>486</ele>
        <time>2024-05-17T10:23:51Z</time>
      </trkpt>
      <trkpt lat="44.59569" lon="5.16299">
        <ele>486.1</ele>
        <time>2024-05-17T10:23:52Z</time>
      </trkpt>
      <trkpt lat="44.59569" lon="5.16305">
        <ele>486.4</ele>
        <time>2024-05-17T10:23:53Z</time>
      </trkpt>
      <trkpt lat="44.59569" lon="5.16307">
        <ele>486.5</ele>
        <time>2024-05-17T10:23:54Z</time>
      </trkpt>
      <trkpt lat="44.5957" lon="5.16313">
        <ele>486.8</ele>
        <time>2024-05-17T10:23:55Z</time>
      </trkpt>
      <trkpt lat="44.5957" lon="5.16315">
        <ele>486.9</ele>
        <time>2024-05-17T10:23:56Z</time>
      </trkpt>
      <trkpt lat="44.5957" lon="5.16319">
        <ele>487.1</ele>
        <time>2024-05-17T10:23:57Z</time>
      </trkpt>
      <trkpt lat="44.59571" lon="5.16324">
        <ele>487.4</ele>
        <time>2024-05-17T10:23:58Z</time>
      </trkpt>
      <trkpt lat="44.59571" lon="5.16326">
        <ele>487.5</ele>
        <time>2024-05-17T10:23:59Z</time>
      </trkpt>
      <trkpt lat="44.59572" lon="5.1633">
        <ele>487.7</ele>
        <time>2024-05-17T10:24:00Z</time>
      </trkpt>
      <trkpt lat="44.59572" lon="5.16334">
        <ele>487.9</ele>
        <time>2024-05-17T10:24:01Z</time>
      </trkpt>
      <trkpt lat="44.59574" lon="5.16339">
        <ele>488.2</ele>
        <time>2024-05-17T10:24:02Z</time>
      </trkpt>
      <trkpt lat="44.59574" lon="5.16341">
        <ele>488.3</ele>
        <time>2024-05-17T10:24:03Z</time>
      </trkpt>
      <trkpt lat="44.59576" lon="5.16347">
        <ele>488.6</ele>
        <time>2024-05-17T10:24:04Z</time>
      </trkpt>
      <trkpt lat="44.59577" lon="5.16349">
        <ele>488.7</ele>
        <time>2024-05-17T10:24:05Z</time>
      </trkpt>
      <trkpt lat="44.59578" lon="5.16353">
        <ele>488.9</ele>
        <time>2024-05-17T10:24:06Z</time>
      </trkpt>
      <trkpt lat="44.59579" lon="5.16356">
        <ele>489.1</ele>
        <time>2024-05-17T10:24:07Z</time>
      </trkpt>
      <trkpt lat="44.59581" lon="5.16361">
        <ele>488.6</ele>
        <time>2024-05-17T10:24:08Z</time>
      </trkpt>
      <trkpt lat="44.59581" lon="5.16363">
        <ele>488.7</ele>
        <time>2024-05-17T10:24:09Z</time>
      </trkpt>
      <trkpt lat="44.59583" lon="5.16367">
        <ele>488.8</ele>
        <time>2024-05-17T10:24:10Z</time>
      </trkpt>
      <trkpt lat="44.59584" lon="5.16371">
        <ele>489</ele>
        <time>2024-05-17T10:24:11Z</time>
      </trkpt>
      <trkpt lat="44.59584" lon="5.16374">
        <ele>489.1</ele>
        <time>2024-05-17T10:24:12Z</time>
      </trkpt>
      <trkpt lat="44.59585" lon="5.16378">
        <ele>489.3</ele>
        <time>2024-05-17T10:24:13Z</time>
      </trkpt>
      <trkpt lat="44.59586" lon="5.16384">
        <ele>489.5</ele>
        <time>2024-05-17T10:24:14Z</time>
      </trkpt>
      <trkpt lat="44.59587" lon="5.16386">
        <ele>489.6</ele>
        <time>2024-05-17T10:24:15Z</time>
      </trkpt>
      <trkpt lat="44.59588" lon="5.16392">
        <ele>489.9</ele>
        <time>2024-05-17T10:24:16Z</time>
      </trkpt>
      <trkpt lat="44.59588" lon="5.16394">
        <ele>490</ele>
        <time>2024-05-17T10:24:17Z</time>
      </trkpt>
      <trkpt lat="44.59589" lon="5.16399">
        <ele>490.2</ele>
        <time>2024-05-17T10:24:18Z</time>
      </trkpt>
      <trkpt lat="44.59589" lon="5.16401">
        <ele>490.2</ele>
        <time>2024-05-17T10:24:19Z</time>
      </trkpt>
      <trkpt lat="44.5959" lon="5.16404">
        <ele>490.4</ele>
        <time>2024-05-17T10:24:20Z</time>
      </trkpt>
      <trkpt lat="44.59591" lon="5.16409">
        <ele>490.6</ele>
        <time>2024-05-17T10:24:21Z</time>
      </trkpt>
      <trkpt lat="44.59591" lon="5.16411">
        <ele>490.7</ele>
        <time>2024-05-17T10:24:22Z</time>
      </trkpt>
      <trkpt lat="44.59592" lon="5.16413">
        <ele>490.8</ele>
        <time>2024-05-17T10:24:23Z</time>
      </trkpt>
      <trkpt lat="44.59592" lon="5.16416">
        <ele>490.9</ele>
        <time>2024-05-17T10:25:03Z</time>
      </trkpt>
      <trkpt lat="44.59593" lon="5.16418">
        <ele>491</ele>
        <time>2024-05-17T10:25:04Z</time>
      </trkpt>
      <trkpt lat="44.59593" lon="5.1642">
        <ele>491.1</ele>
        <time>2024-05-17T10:25:05Z</time>
      </trkpt>
      <trkpt lat="44.59594" lon="5.16424">
        <ele>491.3</ele>
        <time>2024-05-17T10:25:06Z</time>
      </trkpt>
      <trkpt lat="44.59594" lon="5.16425">
        <ele>491.4</ele>
        <time>2024-05-17T10:25:07Z</time>
      </trkpt>
      <trkpt lat="44.59595" lon="5.16428">
        <ele>491.5</ele>
        <time>2024-05-17T10:25:08Z</time>
      </trkpt>
      <trkpt lat="44.59596" lon="5.16432">
        <ele>491.7</ele>
        <time>2024-05-17T10:25:09Z</time>
      </trkpt>
      <trkpt lat="44.59596" lon="5.16434">
        <ele>491.7</ele>
        <time>2024-05-17T10:25:10Z</time>
      </trkpt>
      <trkpt lat="44.59597" lon="5.16439">
        <ele>492</ele>
        <time>2024-05-17T10:25:11Z</time>
      </trkpt>
      <trkpt lat="44.59597" lon="5.16441">
        <ele>492.1</ele>
        <time>2024-05-17T10:25:12Z</time>
      </trkpt>
      <trkpt lat="44.59598" lon="5.16446">
        <ele>492.3</ele>
        <time>2024-05-17T10:25:13Z</time>
      </trkpt>
      <trkpt lat="44.59598" lon="5.16448">
        <ele>492.3</ele>
        <time>2024-05-17T10:25:14Z</time>
      </trkpt>
      <trkpt lat="44.59599" lon="5.16451">
        <ele>492.5</ele>
        <time>2024-05-17T10:25:15Z</time>
      </trkpt>
      <trkpt lat="44.596" lon="5.16457">
        <ele>492.7</ele>
        <time>2024-05-17T10:25:16Z</time>
      </trkpt>
      <trkpt lat="44.59601" lon="5.16459">
        <ele>492.8</ele>
        <time>2024-05-17T10:25:17Z</time>
      </trkpt>
      <trkpt lat="44.59601" lon="5.16463">
        <ele>493</ele>
        <time>2024-05-17T10:25:18Z</time>
      </trkpt>
      <trkpt lat="44.59602" lon="5.16467">
        <ele>493.1</ele>
        <time>2024-05-17T10:25:19Z</time>
      </trkpt>
      <trkpt lat="44.59603" lon="5.1647">
        <ele>493.3</ele>
        <time>2024-05-17T10:25:20Z</time>
      </trkpt>
      <trkpt lat="44.59604" lon="5.16474">
        <ele>493.4</ele>
        <time>2024-05-17T10:25:21Z</time>
      </trkpt>
      <trkpt lat="44.59605" lon="5.1648">
        <ele>493.7</ele>
        <time>2024-05-17T10:25:22Z</time>
      </trkpt>
      <trkpt lat="44.59606" lon="5.16482">
        <ele>493.8</ele>
        <time>2024-05-17T10:25:23Z</time>
      </trkpt>
      <trkpt lat="44.59608" lon="5.16488">
        <ele>494</ele>
        <time>2024-05-17T10:25:24Z</time>
      </trkpt>
      <trkpt lat="44.59608" lon="5.1649">
        <ele>494.1</ele>
        <time>2024-05-17T10:25:25Z</time>
      </trkpt>
      <trkpt lat="44.59609" lon="5.16495">
        <ele>494.3</ele>
        <time>2024-05-17T10:25:26Z</time>
      </trkpt>
      <trkpt lat="44.5961" lon="5.16497">
        <ele>494.4</ele>
        <time>2024-05-17T10:25:27Z</time>
      </trkpt>
      <trkpt lat="44.59611" lon="5.16501">
        <ele>494.5</ele>
        <time>2024-05-17T10:25:28Z</time>
      </trkpt>
      <trkpt lat="44.59612" lon="5.16506">
        <ele>494.7</ele>
        <time>2024-05-17T10:25:29Z</time>
      </trkpt>
      <trkpt lat="44.59613" lon="5.16508">
        <ele>494.8</ele>
        <time>2024-05-17T10:25:30Z</time>
      </trkpt>
      <trkpt lat="44.59613" lon="5.16512">
        <ele>495</ele>
        <time>2024-05-17T10:25:31Z</time>
      </trkpt>
      <trkpt lat="44.59614" lon="5.16518">
        <ele>495.3</ele>
        <time>2024-05-17T10:25:32Z</time>
      </trkpt>
      <trkpt lat="44.59615" lon="5.1652">
        <ele>495.4</ele>
        <time>2024-05-17T10:25:33Z</time>
      </trkpt>
      <trkpt lat="44.59616" lon="5.16526">
        <ele>495.6</ele>
        <time>2024-05-17T10:25:34Z</time>
      </trkpt>
      <trkpt lat="44.59617" lon="5.16527">
        <ele>495.7</ele>
        <time>2024-05-17T10:25:35Z</time>
      </trkpt>
      <trkpt lat="44.59618" lon="5.16533">
        <ele>496</ele>
        <time>2024-05-17T10:25:36Z</time>
      </trkpt>
      <trkpt lat="44.59619" lon="5.16535">
        <ele>496.1</ele>
        <time>2024-05-17T10:25:37Z</time>
      </trkpt>
      <trkpt lat="44.5962" lon="5.16539">
        <ele>496.3</ele>
        <time>2024-05-17T10:25:38Z</time>
      </trkpt>
      <trkpt lat="44.59621" lon="5.16545">
        <ele>496.6</ele>
        <time>2024-05-17T10:25:39Z</time>
      </trkpt>
      <trkpt lat="44.59621" lon="5.16547">
        <ele>496.7</ele>
        <time>2024-05-17T10:25:40Z</time>
      </trkpt>
      <trkpt lat="44.59622" lon="5.16552">
        <ele>496.9</ele>
        <time>2024-05-17T10:25:41Z</time>
      </trkpt>
      <trkpt lat="44.59623" lon="5.16554">
        <ele>497</ele>
        <time>2024-05-17T10:25:42Z</time>
      </trkpt>
      <trkpt lat="44.59624" lon="5.16558">
        <ele>497.2</ele>
        <time>2024-05-17T10:25:43Z</time>
      </trkpt>
      <trkpt lat="44.59625" lon="5.16563">
        <ele>497.5</ele>
        <time>2024-05-17T10:25:44Z</time>
      </trkpt>
      <trkpt lat="44.59625" lon="5.16565">
        <ele>497.6</ele>
        <time>2024-05-17T10:25:45Z</time>
      </trkpt>
      <trkpt lat="44.59626" lon="5.16569">
        <ele>497.7</ele>
        <time>2024-05-17T10:25:46Z</time>
      </trkpt>
      <trkpt lat="44.59627" lon="5.16574">
        <ele>498</ele>
        <time>2024-05-17T10:25:47Z</time>
      </trkpt>
      <trkpt lat="44.59628" lon="5.16576">
        <ele>498.1</ele>
        <time>2024-05-17T10:25:48Z</time>
      </trkpt>
      <trkpt lat="44.59629" lon="5.16581">
        <ele>498.4</ele>
        <time>2024-05-17T10:25:49Z</time>
      </trkpt>
      <trkpt lat="44.59629" lon="5.16583">
        <ele>498.5</ele>
        <time>2024-05-17T10:25:50Z</time>
      </trkpt>
      <trkpt lat="44.5963" lon="5.16587">
        <ele>498.6</ele>
        <time>2024-05-17T10:25:51Z</time>
      </trkpt>
      <trkpt lat="44.59631" lon="5.16592">
        <ele>498.9</ele>
        <time>2024-05-17T10:25:52Z</time>
      </trkpt>
      <trkpt lat="44.59632" lon="5.16594">
        <ele>499</ele>
        <time>2024-05-17T10:25:53Z</time>
      </trkpt>
      <trkpt lat="44.59633" lon="5.16599">
        <ele>499.2</ele>
        <time>2024-05-17T10:25:54Z</time>
      </trkpt>
      <trkpt lat="44.59634" lon="5.16601">
        <ele>499.3</ele>
        <time>2024-05-17T10:25:55Z</time>
      </trkpt>
      <trkpt lat="44.59635" lon="5.16606">
        <ele>499.6</ele>
        <time>2024-05-17T10:25:56Z</time>
      </trkpt>
      <trkpt lat="44.59635" lon="5.16608">
        <ele>499.7</ele>
        <time>2024-05-17T10:25:57Z</time>
      </trkpt>
      <trkpt lat="44.59636" lon="5.16612">
        <ele>499.9</ele>
        <time>2024-05-17T10:25:58Z</time>
      </trkpt>
      <trkpt lat="44.59637" lon="5.16617">
        <ele>500.2</ele>
        <time>2024-05-17T10:25:59Z</time>
      </trkpt>
      <trkpt lat="44.59637" lon="5.16619">
        <ele>500.3</ele>
        <time>2024-05-17T10:26:00Z</time>
      </trkpt>
      <trkpt lat="44.59638" lon="5.16623">
        <ele>500.4</ele>
        <time>2024-05-17T10:26:01Z</time>
      </trkpt>
      <trkpt lat="44.59639" lon="5.16626">
        <ele>500.6</ele>
        <time>2024-05-17T10:26:02Z</time>
      </trkpt>
      <trkpt lat="44.5964" lon="5.1663">
        <ele>500.8</ele>
        <time>2024-05-17T10:26:03Z</time>
      </trkpt>
      <trkpt lat="44.5964" lon="5.16634">
        <ele>501</ele>
        <time>2024-05-17T10:26:04Z</time>
      </trkpt>
      <trkpt lat="44.59641" lon="5.16639">
        <ele>501.3</ele>
        <time>2024-05-17T10:26:05Z</time>
      </trkpt>
      <trkpt lat="44.59641" lon="5.16641">
        <ele>501.4</ele>
        <time>2024-05-17T10:26:06Z</time>
      </trkpt>
      <trkpt lat="44.59642" lon="5.16645">
        <ele>501.6</ele>
        <time>2024-05-17T10:26:07Z</time>
      </trkpt>
      <trkpt lat="44.59643" lon="5.16649">
        <ele>501.8</ele>
        <time>2024-05-17T10:26:08Z</time>
      </trkpt>
      <trkpt lat="44.59643" lon="5.16652">
        <ele>502</ele>
        <time>2024-05-17T10:26:09Z</time>
      </trkpt>
      <trkpt lat="44.59643" lon="5.16656">
        <ele>502.2</ele>
        <time>2024-05-17T10:26:10Z</time>
      </trkpt>
      <trkpt lat="44.59643" lon="5.16659">
        <ele>502.3</ele>
        <time>2024-05-17T10:26:11Z</time>
      </trkpt>
      <trkpt lat="44.59644" lon="5.16663">
        <ele>502.5</ele>
        <time>2024-05-17T10:26:12Z</time>
      </trkpt>
      <trkpt lat="44.59645" lon="5.16669">
        <ele>502.8</ele>
        <time>2024-05-17T10:26:13Z</time>
      </trkpt>
      <trkpt lat="44.59645" lon="5.1667">
        <ele>502.9</ele>
        <time>2024-05-17T10:26:14Z</time>
      </trkpt>
      <trkpt lat="44.59646" lon="5.16674">
        <ele>503.1</ele>
        <time>2024-05-17T10:26:15Z</time>
      </trkpt>
      <trkpt lat="44.59646" lon="5.16678">
        <ele>503.3</ele>
        <time>2024-05-17T10:26:16Z</time>
      </trkpt>
      <trkpt lat="44.59646" lon="5.16681">
        <ele>503.4</ele>
        <time>2024-05-17T10:26:17Z</time>
      </trkpt>
      <trkpt lat="44.59647" lon="5.16687">
        <ele>503.7</ele>
        <time>2024-05-17T10:26:18Z</time>
      </trkpt>
      <trkpt lat="44.59647" lon="5.16689">
        <ele>503.8</ele>
        <time>2024-05-17T10:26:19Z</time>
      </trkpt>
      <trkpt lat="44.59648" lon="5.16695">
        <ele>504</ele>
        <time>2024-05-17T10:26:20Z</time>
      </trkpt>
      <trkpt lat="44.59648" lon="5.16697">
        <ele>504.1</ele>
        <time>2024-05-17T10:26:21Z</time>
      </trkpt>
      <trkpt lat="44.59649" lon="5.167">
        <ele>504.3</ele>
        <time>2024-05-17T10:26:22Z</time>
      </trkpt>
      <trkpt lat="44.5965" lon="5.16706">
        <ele>504.6</ele>
        <time>2024-05-17T10:26:23Z</time>
      </trkpt>
      <trkpt lat="44.5965" lon="5.16708">
        <ele>504.6</ele>
        <time>2024-05-17T10:26:24Z</time>
      </trkpt>
      <trkpt lat="44.59651" lon="5.16712">
        <ele>504.8</ele>
        <time>2024-05-17T10:26:25Z</time>
      </trkpt>
      <trkpt lat="44.59652" lon="5.16718">
        <ele>505.1</ele>
        <time>2024-05-17T10:26:26Z</time>
      </trkpt>
      <trkpt lat="44.59652" lon="5.1672">
        <ele>505.1</ele>
        <time>2024-05-17T10:26:27Z</time>
      </trkpt>
      <trkpt lat="44.59652" lon="5.16725">
        <ele>505.4</ele>
        <time>2024-05-17T10:26:28Z</time>
      </trkpt>
      <trkpt lat="44.59653" lon="5.16727">
        <ele>505.5</ele>
        <time>2024-05-17T10:26:29Z</time>
      </trkpt>
      <trkpt lat="44.59653" lon="5.16733">
        <ele>505.7</ele>
        <time>2024-05-17T10:26:30Z</time>
      </trkpt>
      <trkpt lat="44.59653" lon="5.16735">
        <ele>505.8</ele>
        <time>2024-05-17T10:26:31Z</time>
      </trkpt>
      <trkpt lat="44.59654" lon="5.16741">
        <ele>506</ele>
        <time>2024-05-17T10:26:32Z</time>
      </trkpt>
      <trkpt lat="44.59654" lon="5.16742">
        <ele>506.1</ele>
        <time>2024-05-17T10:26:33Z</time>
      </trkpt>
      <trkpt lat="44.59655" lon="5.16746">
        <ele>506.2</ele>
        <time>2024-05-17T10:26:34Z</time>
      </trkpt>
      <trkpt lat="44.59656" lon="5.16752">
        <ele>506.5</ele>
        <time>2024-05-17T10:26:35Z</time>
      </trkpt>
      <trkpt lat="44.59656" lon="5.16753">
        <ele>506.6</ele>
        <time>2024-05-17T10:26:36Z</time>
      </trkpt>
      <trkpt lat="44.59657" lon="5.16759">
        <ele>506.9</ele>
        <time>2024-05-17T10:26:37Z</time>
      </trkpt>
      <trkpt lat="44.59657" lon="5.16761">
        <ele>506.9</ele>
        <time>2024-05-17T10:26:38Z</time>
      </trkpt>
      <trkpt lat="44.59658" lon="5.16766">
        <ele>507.2</ele>
        <time>2024-05-17T10:26:39Z</time>
      </trkpt>
      <trkpt lat="44.59658" lon="5.16768">
        <ele>507.3</ele>
        <time>2024-05-17T10:26:40Z</time>
      </trkpt>
      <trkpt lat="44.59659" lon="5.16771">
        <ele>507.5</ele>
        <time>2024-05-17T10:26:41Z</time>
      </trkpt>
      <trkpt lat="44.5966" lon="5.16775">
        <ele>507.7</ele>
        <time>2024-05-17T10:26:42Z</time>
      </trkpt>
      <trkpt lat="44.59661" lon="5.1678">
        <ele>507.9</ele>
        <time>2024-05-17T10:26:43Z</time>
      </trkpt>
      <trkpt lat="44.59662" lon="5.16785">
        <ele>508.3</ele>
        <time>2024-05-17T10:26:44Z</time>
      </trkpt>
      <trkpt lat="44.59663" lon="5.16787">
        <ele>508.4</ele>
        <time>2024-05-17T10:26:45Z</time>
      </trkpt>
      <trkpt lat="44.59664" lon="5.16794">
        <ele>508.8</ele>
        <time>2024-05-17T10:26:46Z</time>
      </trkpt>
      <trkpt lat="44.59664" lon="5.16796">
        <ele>508.9</ele>
        <time>2024-05-17T10:26:47Z</time>
      </trkpt>
      <trkpt lat="44.59664" lon="5.16801">
        <ele>509.2</ele>
        <time>2024-05-17T10:26:48Z</time>
      </trkpt>
      <trkpt lat="44.59666" lon="5.16807">
        <ele>509.6</ele>
        <time>2024-05-17T10:26:49Z</time>
      </trkpt>
      <trkpt lat="44.59666" lon="5.16809">
        <ele>509.7</ele>
        <time>2024-05-17T10:26:50Z</time>
      </trkpt>
      <trkpt lat="44.59667" lon="5.16813">
        <ele>509.9</ele>
        <time>2024-05-17T10:26:51Z</time>
      </trkpt>
      <trkpt lat="44.59668" lon="5.16816">
        <ele>510.1</ele>
        <time>2024-05-17T10:26:52Z</time>
      </trkpt>
      <trkpt lat="44.5967" lon="5.16819">
        <ele>510.4</ele>
        <time>2024-05-17T10:26:53Z</time>
      </trkpt>
      <trkpt lat="44.59672" lon="5.16821">
        <ele>510.6</ele>
        <time>2024-05-17T10:26:54Z</time>
      </trkpt>
      <trkpt lat="44.59674" lon="5.16825">
        <ele>510.9</ele>
        <time>2024-05-17T10:26:55Z</time>
      </trkpt>
      <trkpt lat="44.59675" lon="5.16827">
        <ele>511</ele>
        <time>2024-05-17T10:26:56Z</time>
      </trkpt>
      <trkpt lat="44.59677" lon="5.16829">
        <ele>511.1</ele>
        <time>2024-05-17T10:26:57Z</time>
      </trkpt>
      <trkpt lat="44.5968" lon="5.16832">
        <ele>511.4</ele>
        <time>2024-05-17T10:26:58Z</time>
      </trkpt>
      <trkpt lat="44.59681" lon="5.16833">
        <ele>511.5</ele>
        <time>2024-05-17T10:26:59Z</time>
      </trkpt>
      <trkpt lat="44.59684" lon="5.16837">
        <ele>511.8</ele>
        <time>2024-05-17T10:27:00Z</time>
      </trkpt>
      <trkpt lat="44.59685" lon="5.16838">
        <ele>511.8</ele>
        <time>2024-05-17T10:27:01Z</time>
      </trkpt>
      <trkpt lat="44.59688" lon="5.16841">
        <ele>512.1</ele>
        <time>2024-05-17T10:27:02Z</time>
      </trkpt>
      <trkpt lat="44.59689" lon="5.16842">
        <ele>512.2</ele>
        <time>2024-05-17T10:27:03Z</time>
      </trkpt>
      <trkpt lat="44.59691" lon="5.16844">
        <ele>512.3</ele>
        <time>2024-05-17T10:27:04Z</time>
      </trkpt>
      <trkpt lat="44.59695" lon="5.16847">
        <ele>512.5</ele>
        <time>2024-05-17T10:27:05Z</time>
      </trkpt>
      <trkpt lat="44.59696" lon="5.16848">
        <ele>512.6</ele>
        <time>2024-05-17T10:27:06Z</time>
      </trkpt>
      <trkpt lat="44.597" lon="5.16851">
        <ele>512.8</ele>
        <time>2024-05-17T10:27:07Z</time>
      </trkpt>
      <trkpt lat="44.59701" lon="5.16852">
        <ele>512.9</ele>
        <time>2024-05-17T10:27:08Z</time>
      </trkpt>
      <trkpt lat="44.59703" lon="5.16854">
        <ele>513</ele>
        <time>2024-05-17T10:27:09Z</time>
      </trkpt>
      <trkpt lat="44.59706" lon="5.16856">
        <ele>513.3</ele>
        <time>2024-05-17T10:27:10Z</time>
      </trkpt>
      <trkpt lat="44.59707" lon="5.16856">
        <ele>513.3</ele>
        <time>2024-05-17T10:27:11Z</time>
      </trkpt>
      <trkpt lat="44.59709" lon="5.16858">
        <ele>513.5</ele>
        <time>2024-05-17T10:27:12Z</time>
      </trkpt>
      <trkpt lat="44.59713" lon="5.16861">
        <ele>513.7</ele>
        <time>2024-05-17T10:27:13Z</time>
      </trkpt>
      <trkpt lat="44.59714" lon="5.16861">
        <ele>513.8</ele>
        <time>2024-05-17T10:27:14Z</time>
      </trkpt>
      <trkpt lat="44.59717" lon="5.16863">
        <ele>514</ele>
        <time>2024-05-17T10:27:15Z</time>
      </trkpt>
      <trkpt lat="44.59718" lon="5.16864">
        <ele>514.1</ele>
        <time>2024-05-17T10:27:16Z</time>
      </trkpt>
      <trkpt lat="44.5972" lon="5.16865">
        <ele>514.3</ele>
        <time>2024-05-17T10:27:17Z</time>
      </trkpt>
      <trkpt lat="44.59723" lon="5.16866">
        <ele>514.5</ele>
        <time>2024-05-17T10:27:18Z</time>
      </trkpt>
      <trkpt lat="44.59724" lon="5.16867">
        <ele>514.6</ele>
        <time>2024-05-17T10:27:19Z</time>
      </trkpt>
      <trkpt lat="44.59727" lon="5.16867">
        <ele>514.8</ele>
        <time>2024-05-17T10:27:20Z</time>
      </trkpt>
      <trkpt lat="44.59728" lon="5.16867">
        <ele>514.9</ele>
        <time>2024-05-17T10:27:21Z</time>
      </trkpt>
      <trkpt lat="44.59731" lon="5.16868">
        <ele>515.1</ele>
        <time>2024-05-17T10:27:22Z</time>
      </trkpt>
      <trkpt lat="44.59733" lon="5.16868">
        <ele>515.2</ele>
        <time>2024-05-17T10:27:23Z</time>
      </trkpt>
      <trkpt lat="44.59735" lon="5.16868">
        <ele>515.4</ele>
        <time>2024-05-17T10:27:24Z</time>
      </trkpt>
      <trkpt lat="44.59738" lon="5.16868">
        <ele>515.6</ele>
        <time>2024-05-17T10:27:25Z</time>
      </trkpt>
      <trkpt lat="44.59739" lon="5.16868">
        <ele>515.6</ele>
        <time>2024-05-17T10:27:26Z</time>
      </trkpt>
      <trkpt lat="44.59741" lon="5.16868">
        <ele>515.7</ele>
        <time>2024-05-17T10:27:27Z</time>
      </trkpt>
      <trkpt lat="44.59745" lon="5.16868">
        <ele>515.9</ele>
        <time>2024-05-17T10:27:28Z</time>
      </trkpt>
      <trkpt lat="44.59746" lon="5.16867">
        <ele>515.9</ele>
        <time>2024-05-17T10:27:29Z</time>
      </trkpt>
      <trkpt lat="44.59748" lon="5.16867">
        <ele>516</ele>
        <time>2024-05-17T10:27:30Z</time>
      </trkpt>
      <trkpt lat="44.59751" lon="5.16866">
        <ele>516.1</ele>
        <time>2024-05-17T10:27:31Z</time>
      </trkpt>
      <trkpt lat="44.59753" lon="5.16865">
        <ele>516.1</ele>
        <time>2024-05-17T10:27:32Z</time>
      </trkpt>
      <trkpt lat="44.59758" lon="5.16864">
        <ele>516.2</ele>
        <time>2024-05-17T10:27:33Z</time>
      </trkpt>
      <trkpt lat="44.59759" lon="5.16863">
        <ele>516.2</ele>
        <time>2024-05-17T10:27:34Z</time>
      </trkpt>
      <trkpt lat="44.59763" lon="5.16862">
        <ele>516.3</ele>
        <time>2024-05-17T10:27:35Z</time>
      </trkpt>
      <trkpt lat="44.59767" lon="5.16861">
        <ele>516.3</ele>
        <time>2024-05-17T10:27:36Z</time>
      </trkpt>
      <trkpt lat="44.5977" lon="5.1686">
        <ele>516.4</ele>
        <time>2024-05-17T10:27:37Z</time>
      </trkpt>
      <trkpt lat="44.59776" lon="5.1686">
        <ele>516.4</ele>
        <time>2024-05-17T10:27:38Z</time>
      </trkpt>
      <trkpt lat="44.59777" lon="5.16859">
        <ele>516.4</ele>
        <time>2024-05-17T10:27:39Z</time>
      </trkpt>
      <trkpt lat="44.59781" lon="5.16859">
        <ele>516.5</ele>
        <time>2024-05-17T10:27:40Z</time>
      </trkpt>
      <trkpt lat="44.59784" lon="5.16859">
        <ele>516.5</ele>
        <time>2024-05-17T10:27:41Z</time>
      </trkpt>
      <trkpt lat="44.59788" lon="5.1686">
        <ele>516.6</ele>
        <time>2024-05-17T10:27:42Z</time>
      </trkpt>
      <trkpt lat="44.59793" lon="5.16863">
        <ele>516.6</ele>
        <time>2024-05-17T10:27:43Z</time>
      </trkpt>
      <trkpt lat="44.59795" lon="5.16864">
        <ele>516.6</ele>
        <time>2024-05-17T10:27:44Z</time>
      </trkpt>
      <trkpt lat="44.59801" lon="5.16869">
        <ele>516.7</ele>
        <time>2024-05-17T10:27:45Z</time>
      </trkpt>
      <trkpt lat="44.59803" lon="5.16871">
        <ele>516.8</ele>
        <time>2024-05-17T10:27:46Z</time>
      </trkpt>
      <trkpt lat="44.59808" lon="5.16875">
        <ele>516.8</ele>
        <time>2024-05-17T10:27:47Z</time>
      </trkpt>
      <trkpt lat="44.5981" lon="5.16877">
        <ele>516.9</ele>
        <time>2024-05-17T10:27:48Z</time>
      </trkpt>
      <trkpt lat="44.59814" lon="5.1688">
        <ele>516.9</ele>
        <time>2024-05-17T10:27:49Z</time>
      </trkpt>
      <trkpt lat="44.59817" lon="5.16883">
        <ele>516.9</ele>
        <time>2024-05-17T10:27:50Z</time>
      </trkpt>
      <trkpt lat="44.59822" lon="5.16888">
        <ele>517</ele>
        <time>2024-05-17T10:27:51Z</time>
      </trkpt>
      <trkpt lat="44.59824" lon="5.16889">
        <ele>517</ele>
        <time>2024-05-17T10:27:52Z</time>
      </trkpt>
      <trkpt lat="44.59828" lon="5.16893">
        <ele>517</ele>
        <time>2024-05-17T10:27:53Z</time>
      </trkpt>
      <trkpt lat="44.59831" lon="5.16895">
        <ele>517.1</ele>
        <time>2024-05-17T10:27:54Z</time>
      </trkpt>
      <trkpt lat="44.59837" lon="5.16899">
        <ele>517.1</ele>
        <time>2024-05-17T10:27:55Z</time>
      </trkpt>
      <trkpt lat="44.59839" lon="5.16901">
        <ele>517.1</ele>
        <time>2024-05-17T10:27:56Z</time>
      </trkpt>
      <trkpt lat="44.59844" lon="5.16906">
        <ele>517.1</ele>
        <time>2024-05-17T10:27:57Z</time>
      </trkpt>
      <trkpt lat="44.59846" lon="5.16907">
        <ele>517.1</ele>
        <time>2024-05-17T10:27:58Z</time>
      </trkpt>
      <trkpt lat="44.59852" lon="5.16913">
        <ele>517.1</ele>
        <time>2024-05-17T10:27:59Z</time>
      </trkpt>
      <trkpt lat="44.59854" lon="5.16915">
        <ele>517.1</ele>
        <time>2024-05-17T10:28:00Z</time>
      </trkpt>
      <trkpt lat="44.59858" lon="5.16919">
        <ele>517.1</ele>
        <time>2024-05-17T10:28:01Z</time>
      </trkpt>
      <trkpt lat="44.59863" lon="5.16925">
        <ele>517.1</ele>
        <time>2024-05-17T10:28:02Z</time>
      </trkpt>
      <trkpt lat="44.59865" lon="5.16928">
        <ele>517.2</ele>
        <time>2024-05-17T10:28:03Z</time>
      </trkpt>
      <trkpt lat="44.5987" lon="5.16934">
        <ele>517.2</ele>
        <time>2024-05-17T10:28:04Z</time>
      </trkpt>
      <trkpt lat="44.59872" lon="5.16936">
        <ele>517.2</ele>
        <time>2024-05-17T10:28:05Z</time>
      </trkpt>
      <trkpt lat="44.59877" lon="5.16941">
        <ele>517.3</ele>
        <time>2024-05-17T10:28:06Z</time>
      </trkpt>
      <trkpt lat="44.59879" lon="5.16943">
        <ele>517.3</ele>
        <time>2024-05-17T10:28:07Z</time>
      </trkpt>
      <trkpt lat="44.59883" lon="5.16947">
        <ele>517.3</ele>
        <time>2024-05-17T10:28:08Z</time>
      </trkpt>
      <trkpt lat="44.59889" lon="5.16952">
        <ele>517.3</ele>
        <time>2024-05-17T10:28:09Z</time>
      </trkpt>
      <trkpt lat="44.59891" lon="5.16953">
        <ele>517.3</ele>
        <time>2024-05-17T10:28:10Z</time>
      </trkpt>
      <trkpt lat="44.59895" lon="5.16957">
        <ele>517.4</ele>
        <time>2024-05-17T10:28:11Z</time>
      </trkpt>
      <trkpt lat="44.59901" lon="5.16962">
        <ele>517.4</ele>
        <time>2024-05-17T10:28:12Z</time>
      </trkpt>
      <trkpt lat="44.59904" lon="5.16964">
        <ele>517.5</ele>
        <time>2024-05-17T10:28:13Z</time>
      </trkpt>
      <trkpt lat="44.59908" lon="5.16967">
        <ele>517.5</ele>
        <time>2024-05-17T10:28:14Z</time>
      </trkpt>
      <trkpt lat="44.59914" lon="5.16973">
        <ele>517.7</ele>
        <time>2024-05-17T10:28:15Z</time>
      </trkpt>
      <trkpt lat="44.59916" lon="5.16975">
        <ele>517.7</ele>
        <time>2024-05-17T10:28:16Z</time>
      </trkpt>
      <trkpt lat="44.59922" lon="5.16981">
        <ele>517.9</ele>
        <time>2024-05-17T10:28:17Z</time>
      </trkpt>
      <trkpt lat="44.59924" lon="5.16982">
        <ele>518</ele>
        <time>2024-05-17T10:28:18Z</time>
      </trkpt>
      <trkpt lat="44.59928" lon="5.16986">
        <ele>518.2</ele>
        <time>2024-05-17T10:28:19Z</time>
      </trkpt>
      <trkpt lat="44.59932" lon="5.16989">
        <ele>518.3</ele>
        <time>2024-05-17T10:28:20Z</time>
      </trkpt>
      <trkpt lat="44.59937" lon="5.16993">
        <ele>518.6</ele>
        <time>2024-05-17T10:28:21Z</time>
      </trkpt>
      <trkpt lat="44.59942" lon="5.16997">
        <ele>518.9</ele>
        <time>2024-05-17T10:28:22Z</time>
      </trkpt>
      <trkpt lat="44.59944" lon="5.16999">
        <ele>519</ele>
        <time>2024-05-17T10:28:23Z</time>
      </trkpt>
      <trkpt lat="44.59947" lon="5.17001">
        <ele>519.2</ele>
        <time>2024-05-17T10:28:24Z</time>
      </trkpt>
      <trkpt lat="44.59952" lon="5.17005">
        <ele>519.5</ele>
        <time>2024-05-17T10:28:25Z</time>
      </trkpt>
      <trkpt lat="44.59954" lon="5.17006">
        <ele>519.6</ele>
        <time>2024-05-17T10:28:26Z</time>
      </trkpt>
      <trkpt lat="44.59959" lon="5.1701">
        <ele>520</ele>
        <time>2024-05-17T10:28:27Z</time>
      </trkpt>
      <trkpt lat="44.59961" lon="5.17011">
        <ele>520.1</ele>
        <time>2024-05-17T10:28:28Z</time>
      </trkpt>
      <trkpt lat="44.59966" lon="5.17015">
        <ele>520.4</ele>
        <time>2024-05-17T10:28:29Z</time>
      </trkpt>
      <trkpt lat="44.59967" lon="5.17016">
        <ele>520.6</ele>
        <time>2024-05-17T10:28:30Z</time>
      </trkpt>
      <trkpt lat="44.5997" lon="5.17019">
        <ele>520.8</ele>
        <time>2024-05-17T10:28:31Z</time>
      </trkpt>
      <trkpt lat="44.59974" lon="5.17024">
        <ele>521.1</ele>
        <time>2024-05-17T10:28:32Z</time>
      </trkpt>
      <trkpt lat="44.59975" lon="5.17026">
        <ele>521.1</ele>
        <time>2024-05-17T10:28:33Z</time>
      </trkpt>
      <trkpt lat="44.59978" lon="5.17032">
        <ele>521.1</ele>
        <time>2024-05-17T10:28:34Z</time>
      </trkpt>
      <trkpt lat="44.59979" lon="5.17034">
        <ele>521.1</ele>
        <time>2024-05-17T10:28:35Z</time>
      </trkpt>
      <trkpt lat="44.59981" lon="5.17037">
        <ele>521.1</ele>
        <time>2024-05-17T10:28:36Z</time>
      </trkpt>
      <trkpt lat="44.59983" lon="5.17041">
        <ele>521.1</ele>
        <time>2024-05-17T10:28:37Z</time>
      </trkpt>
      <trkpt lat="44.59986" lon="5.17046">
        <ele>521.4</ele>
        <time>2024-05-17T10:28:38Z</time>
      </trkpt>
      <trkpt lat="44.59987" lon="5.17048">
        <ele>521.5</ele>
        <time>2024-05-17T10:28:39Z</time>
      </trkpt>
      <trkpt lat="44.5999" lon="5.17052">
        <ele>521.8</ele>
        <time>2024-05-17T10:28:40Z</time>
      </trkpt>
      <trkpt lat="44.59991" lon="5.17054">
        <ele>521.9</ele>
        <time>2024-05-17T10:28:41Z</time>
      </trkpt>
      <trkpt lat="44.59993" lon="5.17056">
        <ele>522.1</ele>
        <time>2024-05-17T10:28:42Z</time>
      </trkpt>
      <trkpt lat="44.59995" lon="5.17059">
        <ele>522.3</ele>
        <time>2024-05-17T10:28:43Z</time>
      </trkpt>
      <trkpt lat="44.59997" lon="5.17062">
        <ele>522.6</ele>
        <time>2024-05-17T10:28:44Z</time>
      </trkpt>
      <trkpt lat="44.60001" lon="5.17065">
        <ele>522.9</ele>
        <time>2024-05-17T10:28:45Z</time>
      </trkpt>
      <trkpt lat="44.60002" lon="5.17066">
        <ele>523.1</ele>
        <time>2024-05-17T10:28:46Z</time>
      </trkpt>
      <trkpt lat="44.60006" lon="5.17069">
        <ele>523.4</ele>
        <time>2024-05-17T10:28:47Z</time>
      </trkpt>
      <trkpt lat="44.60007" lon="5.1707">
        <ele>523.6</ele>
        <time>2024-05-17T10:28:48Z</time>
      </trkpt>
      <trkpt lat="44.60011" lon="5.17071">
        <ele>523.9</ele>
        <time>2024-05-17T10:28:49Z</time>
      </trkpt>
      <trkpt lat="44.60012" lon="5.17072">
        <ele>524</ele>
        <time>2024-05-17T10:28:50Z</time>
      </trkpt>
      <trkpt lat="44.60015" lon="5.17074">
        <ele>524.3</ele>
        <time>2024-05-17T10:28:51Z</time>
      </trkpt>
      <trkpt lat="44.6002" lon="5.17076">
        <ele>524.7</ele>
        <time>2024-05-17T10:28:52Z</time>
      </trkpt>
      <trkpt lat="44.60021" lon="5.17076">
        <ele>524.8</ele>
        <time>2024-05-17T10:28:53Z</time>
      </trkpt>
      <trkpt lat="44.60024" lon="5.17078">
        <ele>525.1</ele>
        <time>2024-05-17T10:28:54Z</time>
      </trkpt>
      <trkpt lat="44.60026" lon="5.1708">
        <ele>525.4</ele>
        <time>2024-05-17T10:28:55Z</time>
      </trkpt>
      <trkpt lat="44.60029" lon="5.17083">
        <ele>525.7</ele>
        <time>2024-05-17T10:28:56Z</time>
      </trkpt>
      <trkpt lat="44.60034" lon="5.17087">
        <ele>526.2</ele>
        <time>2024-05-17T10:28:57Z</time>
      </trkpt>
      <trkpt lat="44.60035" lon="5.17089">
        <ele>526.3</ele>
        <time>2024-05-17T10:28:58Z</time>
      </trkpt>
      <trkpt lat="44.60037" lon="5.17092">
        <ele>526.6</ele>
        <time>2024-05-17T10:28:59Z</time>
      </trkpt>
      <trkpt lat="44.60039" lon="5.17095">
        <ele>526.9</ele>
        <time>2024-05-17T10:29:00Z</time>
      </trkpt>
      <trkpt lat="44.60041" lon="5.17098">
        <ele>527.2</ele>
        <time>2024-05-17T10:29:01Z</time>
      </trkpt>
      <trkpt lat="44.60043" lon="5.17101">
        <ele>527.4</ele>
        <time>2024-05-17T10:29:02Z</time>
      </trkpt>
      <trkpt lat="44.60045" lon="5.17103">
        <ele>527.7</ele>
        <time>2024-05-17T10:29:03Z</time>
      </trkpt>
      <trkpt lat="44.60046" lon="5.17106">
        <ele>527.9</ele>
        <time>2024-05-17T10:29:04Z</time>
      </trkpt>
      <trkpt lat="44.60047" lon="5.17109">
        <ele>528.1</ele>
        <time>2024-05-17T10:29:05Z</time>
      </trkpt>
      <trkpt lat="44.60048" lon="5.17111">
        <ele>528.3</ele>
        <time>2024-05-17T10:29:06Z</time>
      </trkpt>
      <trkpt lat="44.6005" lon="5.17115">
        <ele>528.6</ele>
        <time>2024-05-17T10:29:07Z</time>
      </trkpt>
      <trkpt lat="44.6005" lon="5.17117">
        <ele>528.7</ele>
        <time>2024-05-17T10:29:08Z</time>
      </trkpt>
      <trkpt lat="44.60052" lon="5.17119">
        <ele>528.9</ele>
        <time>2024-05-17T10:29:09Z</time>
      </trkpt>
      <trkpt lat="44.60053" lon="5.17124">
        <ele>529.2</ele>
        <time>2024-05-17T10:29:10Z</time>
      </trkpt>
      <trkpt lat="44.60053" lon="5.17126">
        <ele>529.3</ele>
        <time>2024-05-17T10:29:11Z</time>
      </trkpt>
      <trkpt lat="44.60055" lon="5.1713">
        <ele>529.6</ele>
        <time>2024-05-17T10:29:12Z</time>
      </trkpt>
      <trkpt lat="44.60056" lon="5.17132">
        <ele>529.7</ele>
        <time>2024-05-17T10:29:13Z</time>
      </trkpt>
      <trkpt lat="44.60056" lon="5.17135">
        <ele>529.9</ele>
        <time>2024-05-17T10:29:14Z</time>
      </trkpt>
      <trkpt lat="44.60058" lon="5.17139">
        <ele>530.2</ele>
        <time>2024-05-17T10:29:15Z</time>
      </trkpt>
      <trkpt lat="44.60059" lon="5.17141">
        <ele>530.3</ele>
        <time>2024-05-17T10:29:16Z</time>
      </trkpt>
      <trkpt lat="44.60061" lon="5.17144">
        <ele>530.6</ele>
        <time>2024-05-17T10:29:17Z</time>
      </trkpt>
      <trkpt lat="44.60062" lon="5.17145">
        <ele>530.7</ele>
        <time>2024-05-17T10:29:18Z</time>
      </trkpt>
      <trkpt lat="44.60063" lon="5.17148">
        <ele>530.9</ele>
        <time>2024-05-17T10:29:19Z</time>
      </trkpt>
      <trkpt lat="44.60065" lon="5.17151">
        <ele>531.2</ele>
        <time>2024-05-17T10:29:20Z</time>
      </trkpt>
      <trkpt lat="44.60066" lon="5.17152">
        <ele>531.3</ele>
        <time>2024-05-17T10:29:21Z</time>
      </trkpt>
      <trkpt lat="44.60067" lon="5.17155">
        <ele>531.5</ele>
        <time>2024-05-17T10:29:22Z</time>
      </trkpt>
      <trkpt lat="44.60069" lon="5.17159">
        <ele>531.8</ele>
        <time>2024-05-17T10:29:23Z</time>
      </trkpt>
      <trkpt lat="44.60069" lon="5.1716">
        <ele>531.9</ele>
        <time>2024-05-17T10:29:24Z</time>
      </trkpt>
      <trkpt lat="44.60071" lon="5.17163">
        <ele>532.1</ele>
        <time>2024-05-17T10:29:25Z</time>
      </trkpt>
      <trkpt lat="44.60072" lon="5.17164">
        <ele>532.2</ele>
        <time>2024-05-17T10:29:26Z</time>
      </trkpt>
      <trkpt lat="44.60074" lon="5.17168">
        <ele>532.5</ele>
        <time>2024-05-17T10:29:27Z</time>
      </trkpt>
      <trkpt lat="44.60075" lon="5.17169">
        <ele>532.6</ele>
        <time>2024-05-17T10:29:28Z</time>
      </trkpt>
      <trkpt lat="44.60077" lon="5.17171">
        <ele>532.8</ele>
        <time>2024-05-17T10:29:29Z</time>
      </trkpt>
      <trkpt lat="44.60079" lon="5.17175">
        <ele>533.1</ele>
        <time>2024-05-17T10:29:30Z</time>
      </trkpt>
      <trkpt lat="44.6008" lon="5.17176">
        <ele>533.3</ele>
        <time>2024-05-17T10:29:31Z</time>
      </trkpt>
      <trkpt lat="44.60082" lon="5.1718">
        <ele>533.5</ele>
        <time>2024-05-17T10:29:32Z</time>
      </trkpt>
      <trkpt lat="44.60082" lon="5.17181">
        <ele>533.7</ele>
        <time>2024-05-17T10:29:33Z</time>
      </trkpt>
      <trkpt lat="44.60083" lon="5.17184">
        <ele>533.8</ele>
        <time>2024-05-17T10:29:34Z</time>
      </trkpt>
      <trkpt lat="44.60085" lon="5.17188">
        <ele>534.1</ele>
        <time>2024-05-17T10:29:35Z</time>
      </trkpt>
      <trkpt lat="44.60085" lon="5.1719">
        <ele>534.2</ele>
        <time>2024-05-17T10:29:36Z</time>
      </trkpt>
      <trkpt lat="44.60086" lon="5.17192">
        <ele>534.4</ele>
        <time>2024-05-17T10:29:37Z</time>
      </trkpt>
      <trkpt lat="44.60088" lon="5.17197">
        <ele>534.7</ele>
        <time>2024-05-17T10:29:38Z</time>
      </trkpt>
      <trkpt lat="44.60088" lon="5.17198">
        <ele>534.8</ele>
        <time>2024-05-17T10:29:39Z</time>
      </trkpt>
      <trkpt lat="44.6009" lon="5.17203">
        <ele>535.1</ele>
        <time>2024-05-17T10:29:40Z</time>
      </trkpt>
      <trkpt lat="44.6009" lon="5.17205">
        <ele>535.3</ele>
        <time>2024-05-17T10:29:41Z</time>
      </trkpt>
      <trkpt lat="44.60091" lon="5.17208">
        <ele>535.5</ele>
        <time>2024-05-17T10:29:42Z</time>
      </trkpt>
      <trkpt lat="44.60093" lon="5.1721">
        <ele>535.7</ele>
        <time>2024-05-17T10:29:43Z</time>
      </trkpt>
      <trkpt lat="44.60094" lon="5.17213">
        <ele>535.9</ele>
        <time>2024-05-17T10:29:44Z</time>
      </trkpt>
      <trkpt lat="44.60096" lon="5.17215">
        <ele>536.1</ele>
        <time>2024-05-17T10:29:45Z</time>
      </trkpt>
      <trkpt lat="44.60097" lon="5.17219">
        <ele>536.3</ele>
        <time>2024-05-17T10:29:46Z</time>
      </trkpt>
      <trkpt lat="44.60098" lon="5.17222">
        <ele>536.5</ele>
        <time>2024-05-17T10:29:47Z</time>
      </trkpt>
      <trkpt lat="44.60098" lon="5.17225">
        <ele>536.7</ele>
        <time>2024-05-17T10:29:48Z</time>
      </trkpt>
      <trkpt lat="44.60099" lon="5.17228">
        <ele>536.9</ele>
        <time>2024-05-17T10:29:49Z</time>
      </trkpt>
      <trkpt lat="44.60101" lon="5.17232">
        <ele>537.2</ele>
        <time>2024-05-17T10:29:50Z</time>
      </trkpt>
      <trkpt lat="44.60102" lon="5.17233">
        <ele>537.3</ele>
        <time>2024-05-17T10:29:51Z</time>
      </trkpt>
      <trkpt lat="44.60103" lon="5.17236">
        <ele>537.5</ele>
        <time>2024-05-17T10:29:52Z</time>
      </trkpt>
      <trkpt lat="44.60105" lon="5.1724">
        <ele>537.7</ele>
        <time>2024-05-17T10:29:53Z</time>
      </trkpt>
      <trkpt lat="44.60105" lon="5.17241">
        <ele>537.8</ele>
        <time>2024-05-17T10:29:54Z</time>
      </trkpt>
      <trkpt lat="44.60107" lon="5.17246">
        <ele>538.1</ele>
        <time>2024-05-17T10:29:55Z</time>
      </trkpt>
      <trkpt lat="44.60107" lon="5.17247">
        <ele>538.2</ele>
        <time>2024-05-17T10:29:56Z</time>
      </trkpt>
      <trkpt lat="44.60109" lon="5.17251">
        <ele>538.4</ele>
        <time>2024-05-17T10:29:57Z</time>
      </trkpt>
      <trkpt lat="44.60109" lon="5.17252">
        <ele>538.5</ele>
        <time>2024-05-17T10:29:58Z</time>
      </trkpt>
      <trkpt lat="44.6011" lon="5.17255">
        <ele>538.7</ele>
        <time>2024-05-17T10:29:59Z</time>
      </trkpt>
      <trkpt lat="44.60112" lon="5.1726">
        <ele>538.9</ele>
        <time>2024-05-17T10:30:00Z</time>
      </trkpt>
      <trkpt lat="44.60112" lon="5.17262">
        <ele>539</ele>
        <time>2024-05-17T10:30:01Z</time>
      </trkpt>
      <trkpt lat="44.60113" lon="5.17265">
        <ele>539.2</ele>
        <time>2024-05-17T10:30:02Z</time>
      </trkpt>
      <trkpt lat="44.60115" lon="5.17269">
        <ele>539.4</ele>
        <time>2024-05-17T10:30:03Z</time>
      </trkpt>
      <trkpt lat="44.60116" lon="5.1727">
        <ele>539.5</ele>
        <time>2024-05-17T10:30:04Z</time>
      </trkpt>
      <trkpt lat="44.60118" lon="5.17274">
        <ele>539.7</ele>
        <time>2024-05-17T10:30:05Z</time>
      </trkpt>
      <trkpt lat="44.60119" lon="5.17275">
        <ele>539.8</ele>
        <time>2024-05-17T10:30:06Z</time>
      </trkpt>
      <trkpt lat="44.60122" lon="5.17279">
        <ele>540.1</ele>
        <time>2024-05-17T10:30:07Z</time>
      </trkpt>
      <trkpt lat="44.60123" lon="5.1728">
        <ele>540.2</ele>
        <time>2024-05-17T10:30:08Z</time>
      </trkpt>
      <trkpt lat="44.60125" lon="5.17283">
        <ele>540.4</ele>
        <time>2024-05-17T10:30:09Z</time>
      </trkpt>
      <trkpt lat="44.60125" lon="5.17284">
        <ele>540.4</ele>
        <time>2024-05-17T10:30:10Z</time>
      </trkpt>
      <trkpt lat="44.60127" lon="5.17287">
        <ele>540.6</ele>
        <time>2024-05-17T10:30:11Z</time>
      </trkpt>
      <trkpt lat="44.60129" lon="5.17291">
        <ele>540.8</ele>
        <time>2024-05-17T10:30:12Z</time>
      </trkpt>
      <trkpt lat="44.6013" lon="5.17293">
        <ele>540.9</ele>
        <time>2024-05-17T10:30:13Z</time>
      </trkpt>
      <trkpt lat="44.60132" lon="5.17296">
        <ele>541.2</ele>
        <time>2024-05-17T10:30:14Z</time>
      </trkpt>
      <trkpt lat="44.60133" lon="5.17298">
        <ele>541.2</ele>
        <time>2024-05-17T10:30:15Z</time>
      </trkpt>
      <trkpt lat="44.60135" lon="5.17302">
        <ele>541.5</ele>
        <time>2024-05-17T10:30:16Z</time>
      </trkpt>
      <trkpt lat="44.60135" lon="5.17303">
        <ele>541.5</ele>
        <time>2024-05-17T10:30:17Z</time>
      </trkpt>
      <trkpt lat="44.60137" lon="5.17305">
        <ele>541.7</ele>
        <time>2024-05-17T10:30:18Z</time>
      </trkpt>
      <trkpt lat="44.60139" lon="5.17308">
        <ele>541.9</ele>
        <time>2024-05-17T10:30:19Z</time>
      </trkpt>
      <trkpt lat="44.6014" lon="5.17309">
        <ele>542</ele>
        <time>2024-05-17T10:30:20Z</time>
      </trkpt>
      <trkpt lat="44.60141" lon="5.17312">
        <ele>542.1</ele>
        <time>2024-05-17T10:30:21Z</time>
      </trkpt>
      <trkpt lat="44.60143" lon="5.17315">
        <ele>542.3</ele>
        <time>2024-05-17T10:30:22Z</time>
      </trkpt>
      <trkpt lat="44.60144" lon="5.17316">
        <ele>542.4</ele>
        <time>2024-05-17T10:30:23Z</time>
      </trkpt>
      <trkpt lat="44.60146" lon="5.17319">
        <ele>542.6</ele>
        <time>2024-05-17T10:30:24Z</time>
      </trkpt>
      <trkpt lat="44.60149" lon="5.17321">
        <ele>542.8</ele>
        <time>2024-05-17T10:30:25Z</time>
      </trkpt>
      <trkpt lat="44.6015" lon="5.17322">
        <ele>542.9</ele>
        <time>2024-05-17T10:30:26Z</time>
      </trkpt>
      <trkpt lat="44.60153" lon="5.17325">
        <ele>543.1</ele>
        <time>2024-05-17T10:30:27Z</time>
      </trkpt>
      <trkpt lat="44.60154" lon="5.17327">
        <ele>543.2</ele>
        <time>2024-05-17T10:30:28Z</time>
      </trkpt>
      <trkpt lat="44.60156" lon="5.17329">
        <ele>543.4</ele>
        <time>2024-05-17T10:30:29Z</time>
      </trkpt>
      <trkpt lat="44.60158" lon="5.17331">
        <ele>543.6</ele>
        <time>2024-05-17T10:30:30Z</time>
      </trkpt>
      <trkpt lat="44.6016" lon="5.17333">
        <ele>543.7</ele>
        <time>2024-05-17T10:30:31Z</time>
      </trkpt>
      <trkpt lat="44.60163" lon="5.17336">
        <ele>544</ele>
        <time>2024-05-17T10:30:32Z</time>
      </trkpt>
      <trkpt lat="44.60164" lon="5.17337">
        <ele>544.1</ele>
        <time>2024-05-17T10:30:33Z</time>
      </trkpt>
      <trkpt lat="44.60167" lon="5.17339">
        <ele>544.2</ele>
        <time>2024-05-17T10:30:34Z</time>
      </trkpt>
      <trkpt lat="44.6017" lon="5.17341">
        <ele>544.4</ele>
        <time>2024-05-17T10:30:35Z</time>
      </trkpt>
      <trkpt lat="44.60171" lon="5.17342">
        <ele>544.5</ele>
        <time>2024-05-17T10:30:36Z</time>
      </trkpt>
      <trkpt lat="44.60174" lon="5.17345">
        <ele>544.7</ele>
        <time>2024-05-17T10:30:37Z</time>
      </trkpt>
      <trkpt lat="44.60175" lon="5.17346">
        <ele>544.8</ele>
        <time>2024-05-17T10:30:38Z</time>
      </trkpt>
      <trkpt lat="44.60178" lon="5.17349">
        <ele>545</ele>
        <time>2024-05-17T10:30:39Z</time>
      </trkpt>
      <trkpt lat="44.60179" lon="5.1735">
        <ele>545.1</ele>
        <time>2024-05-17T10:30:40Z</time>
      </trkpt>
      <trkpt lat="44.60181" lon="5.17351">
        <ele>545.2</ele>
        <time>2024-05-17T10:30:41Z</time>
      </trkpt>
      <trkpt lat="44.60184" lon="5.17354">
        <ele>545.4</ele>
        <time>2024-05-17T10:30:42Z</time>
      </trkpt>
      <trkpt lat="44.60185" lon="5.17355">
        <ele>545.5</ele>
        <time>2024-05-17T10:30:43Z</time>
      </trkpt>
      <trkpt lat="44.60187" lon="5.17357">
        <ele>545.6</ele>
        <time>2024-05-17T10:30:44Z</time>
      </trkpt>
      <trkpt lat="44.6019" lon="5.1736">
        <ele>545.8</ele>
        <time>2024-05-17T10:30:45Z</time>
      </trkpt>
      <trkpt lat="44.60191" lon="5.1736">
        <ele>545.9</ele>
        <time>2024-05-17T10:30:46Z</time>
      </trkpt>
      <trkpt lat="44.60194" lon="5.17362">
        <ele>546.1</ele>
        <time>2024-05-17T10:30:47Z</time>
      </trkpt>
      <trkpt lat="44.60196" lon="5.17363">
        <ele>546.2</ele>
        <time>2024-05-17T10:30:48Z</time>
      </trkpt>
      <trkpt lat="44.602" lon="5.17364">
        <ele>546.5</ele>
        <time>2024-05-17T10:30:49Z</time>
      </trkpt>
      <trkpt lat="44.60202" lon="5.17365">
        <ele>546.6</ele>
        <time>2024-05-17T10:30:50Z</time>
      </trkpt>
      <trkpt lat="44.60206" lon="5.17367">
        <ele>546.8</ele>
        <time>2024-05-17T10:30:51Z</time>
      </trkpt>
      <trkpt lat="44.60207" lon="5.17368">
        <ele>546.9</ele>
        <time>2024-05-17T10:30:52Z</time>
      </trkpt>
      <trkpt lat="44.6021" lon="5.17371">
        <ele>547.2</ele>
        <time>2024-05-17T10:30:53Z</time>
      </trkpt>
      <trkpt lat="44.60212" lon="5.17372">
        <ele>547.2</ele>
        <time>2024-05-17T10:30:54Z</time>
      </trkpt>
      <trkpt lat="44.60214" lon="5.17374">
        <ele>547.4</ele>
        <time>2024-05-17T10:30:55Z</time>
      </trkpt>
      <trkpt lat="44.60218" lon="5.17377">
        <ele>547.7</ele>
        <time>2024-05-17T10:30:56Z</time>
      </trkpt>
      <trkpt lat="44.60219" lon="5.17378">
        <ele>547.7</ele>
        <time>2024-05-17T10:30:57Z</time>
      </trkpt>
      <trkpt lat="44.60222" lon="5.1738">
        <ele>548</ele>
        <time>2024-05-17T10:30:58Z</time>
      </trkpt>
      <trkpt lat="44.60223" lon="5.17381">
        <ele>548.1</ele>
        <time>2024-05-17T10:30:59Z</time>
      </trkpt>
      <trkpt lat="44.60227" lon="5.17384">
        <ele>548.3</ele>
        <time>2024-05-17T10:31:00Z</time>
      </trkpt>
      <trkpt lat="44.60228" lon="5.17385">
        <ele>548.4</ele>
        <time>2024-05-17T10:31:01Z</time>
      </trkpt>
      <trkpt lat="44.6023" lon="5.17387">
        <ele>548.5</ele>
        <time>2024-05-17T10:31:02Z</time>
      </trkpt>
      <trkpt lat="44.60233" lon="5.17389">
        <ele>548.8</ele>
        <time>2024-05-17T10:31:03Z</time>
      </trkpt>
      <trkpt lat="44.60234" lon="5.1739">
        <ele>548.9</ele>
        <time>2024-05-17T10:31:04Z</time>
      </trkpt>
      <trkpt lat="44.60235" lon="5.17393">
        <ele>549</ele>
        <time>2024-05-17T10:31:05Z</time>
      </trkpt>
      <trkpt lat="44.60237" lon="5.17395">
        <ele>549.2</ele>
        <time>2024-05-17T10:31:06Z</time>
      </trkpt>
      <trkpt lat="44.60239" lon="5.17399">
        <ele>549.4</ele>
        <time>2024-05-17T10:31:07Z</time>
      </trkpt>
      <trkpt lat="44.6024" lon="5.174">
        <ele>549.5</ele>
        <time>2024-05-17T10:31:08Z</time>
      </trkpt>
      <trkpt lat="44.60241" lon="5.17402">
        <ele>549.6</ele>
        <time>2024-05-17T10:31:09Z</time>
      </trkpt>
      <trkpt lat="44.60243" lon="5.17405">
        <ele>549.8</ele>
        <time>2024-05-17T10:31:10Z</time>
      </trkpt>
      <trkpt lat="44.60244" lon="5.17408">
        <ele>550</ele>
        <time>2024-05-17T10:31:11Z</time>
      </trkpt>
      <trkpt lat="44.60246" lon="5.17411">
        <ele>550.2</ele>
        <time>2024-05-17T10:31:12Z</time>
      </trkpt>
      <trkpt lat="44.60247" lon="5.17414">
        <ele>550.4</ele>
        <time>2024-05-17T10:31:13Z</time>
      </trkpt>
      <trkpt lat="44.60249" lon="5.17416">
        <ele>550.5</ele>
        <time>2024-05-17T10:31:14Z</time>
      </trkpt>
      <trkpt lat="44.60251" lon="5.17419">
        <ele>550.7</ele>
        <time>2024-05-17T10:31:15Z</time>
      </trkpt>
      <trkpt lat="44.60252" lon="5.17421">
        <ele>550.9</ele>
        <time>2024-05-17T10:31:16Z</time>
      </trkpt>
      <trkpt lat="44.60254" lon="5.17425">
        <ele>551.2</ele>
        <time>2024-05-17T10:31:17Z</time>
      </trkpt>
      <trkpt lat="44.60255" lon="5.17426">
        <ele>551.2</ele>
        <time>2024-05-17T10:31:18Z</time>
      </trkpt>
      <trkpt lat="44.60257" lon="5.17429">
        <ele>551.4</ele>
        <time>2024-05-17T10:31:19Z</time>
      </trkpt>
      <trkpt lat="44.6026" lon="5.17433">
        <ele>551.7</ele>
        <time>2024-05-17T10:31:20Z</time>
      </trkpt>
      <trkpt lat="44.6026" lon="5.17434">
        <ele>551.8</ele>
        <time>2024-05-17T10:31:21Z</time>
      </trkpt>
      <trkpt lat="44.60263" lon="5.17438">
        <ele>552.1</ele>
        <time>2024-05-17T10:31:22Z</time>
      </trkpt>
      <trkpt lat="44.60264" lon="5.17439">
        <ele>552.1</ele>
        <time>2024-05-17T10:31:23Z</time>
      </trkpt>
      <trkpt lat="44.60265" lon="5.17442">
        <ele>552.3</ele>
        <time>2024-05-17T10:31:24Z</time>
      </trkpt>
      <trkpt lat="44.60268" lon="5.17446">
        <ele>552.6</ele>
        <time>2024-05-17T10:31:25Z</time>
      </trkpt>
      <trkpt lat="44.60269" lon="5.17447">
        <ele>552.7</ele>
        <time>2024-05-17T10:31:26Z</time>
      </trkpt>
      <trkpt lat="44.60271" lon="5.17451">
        <ele>552.9</ele>
        <time>2024-05-17T10:31:27Z</time>
      </trkpt>
      <trkpt lat="44.60272" lon="5.17453">
        <ele>553</ele>
        <time>2024-05-17T10:31:28Z</time>
      </trkpt>
      <trkpt lat="44.60274" lon="5.17456">
        <ele>553.2</ele>
        <time>2024-05-17T10:31:29Z</time>
      </trkpt>
      <trkpt lat="44.60276" lon="5.1746">
        <ele>553.5</ele>
        <time>2024-05-17T10:31:30Z</time>
      </trkpt>
      <trkpt lat="44.60277" lon="5.17461">
        <ele>553.6</ele>
        <time>2024-05-17T10:31:31Z</time>
      </trkpt>
      <trkpt lat="44.60279" lon="5.17464">
        <ele>553.8</ele>
        <time>2024-05-17T10:31:32Z</time>
      </trkpt>
      <trkpt lat="44.60282" lon="5.17469">
        <ele>554.1</ele>
        <time>2024-05-17T10:31:33Z</time>
      </trkpt>
      <trkpt lat="44.60283" lon="5.1747">
        <ele>554.2</ele>
        <time>2024-05-17T10:31:34Z</time>
      </trkpt>
      <trkpt lat="44.60285" lon="5.17474">
        <ele>554.4</ele>
        <time>2024-05-17T10:31:35Z</time>
      </trkpt>
      <trkpt lat="44.60286" lon="5.17475">
        <ele>554.5</ele>
        <time>2024-05-17T10:31:36Z</time>
      </trkpt>
      <trkpt lat="44.60288" lon="5.17477">
        <ele>554.7</ele>
        <time>2024-05-17T10:31:37Z</time>
      </trkpt>
      <trkpt lat="44.6029" lon="5.17481">
        <ele>555</ele>
        <time>2024-05-17T10:31:38Z</time>
      </trkpt>
      <trkpt lat="44.60291" lon="5.17483">
        <ele>555.1</ele>
        <time>2024-05-17T10:31:39Z</time>
      </trkpt>
      <trkpt lat="44.60293" lon="5.17488">
        <ele>555.3</ele>
        <time>2024-05-17T10:31:40Z</time>
      </trkpt>
      <trkpt lat="44.60293" lon="5.17489">
        <ele>555.4</ele>
        <time>2024-05-17T10:31:41Z</time>
      </trkpt>
      <trkpt lat="44.60295" lon="5.17492">
        <ele>555.6</ele>
        <time>2024-05-17T10:31:42Z</time>
      </trkpt>
      <trkpt lat="44.60296" lon="5.17495">
        <ele>555.8</ele>
        <time>2024-05-17T10:31:43Z</time>
      </trkpt>
      <trkpt lat="44.60298" lon="5.17498">
        <ele>556</ele>
        <time>2024-05-17T10:31:44Z</time>
      </trkpt>
      <trkpt lat="44.60299" lon="5.17503">
        <ele>556.3</ele>
        <time>2024-05-17T10:31:45Z</time>
      </trkpt>
      <trkpt lat="44.603" lon="5.17505">
        <ele>556.3</ele>
        <time>2024-05-17T10:31:46Z</time>
      </trkpt>
      <trkpt lat="44.60301" lon="5.17508">
        <ele>556.5</ele>
        <time>2024-05-17T10:31:47Z</time>
      </trkpt>
      <trkpt lat="44.60302" lon="5.17512">
        <ele>556.8</ele>
        <time>2024-05-17T10:31:48Z</time>
      </trkpt>
      <trkpt lat="44.60302" lon="5.17514">
        <ele>556.9</ele>
        <time>2024-05-17T10:31:49Z</time>
      </trkpt>
      <trkpt lat="44.60303" lon="5.17517">
        <ele>557.1</ele>
        <time>2024-05-17T10:31:50Z</time>
      </trkpt>
      <trkpt lat="44.60304" lon="5.17522">
        <ele>557.3</ele>
        <time>2024-05-17T10:31:51Z</time>
      </trkpt>
      <trkpt lat="44.60304" lon="5.17524">
        <ele>557.4</ele>
        <time>2024-05-17T10:31:52Z</time>
      </trkpt>
      <trkpt lat="44.60304" lon="5.17529">
        <ele>557.7</ele>
        <time>2024-05-17T10:31:53Z</time>
      </trkpt>
      <trkpt lat="44.60304" lon="5.17531">
        <ele>557.8</ele>
        <time>2024-05-17T10:31:54Z</time>
      </trkpt>
      <trkpt lat="44.60304" lon="5.17536">
        <ele>558.1</ele>
        <time>2024-05-17T10:31:55Z</time>
      </trkpt>
      <trkpt lat="44.60304" lon="5.17538">
        <ele>558.2</ele>
        <time>2024-05-17T10:31:56Z</time>
      </trkpt>
      <trkpt lat="44.60304" lon="5.17543">
        <ele>558.5</ele>
        <time>2024-05-17T10:31:57Z</time>
      </trkpt>
      <trkpt lat="44.60303" lon="5.17544">
        <ele>558.6</ele>
        <time>2024-05-17T10:31:58Z</time>
      </trkpt>
      <trkpt lat="44.60302" lon="5.17547">
        <ele>558.8</ele>
        <time>2024-05-17T10:31:59Z</time>
      </trkpt>
      <trkpt lat="44.60301" lon="5.17552">
        <ele>559.1</ele>
        <time>2024-05-17T10:32:00Z</time>
      </trkpt>
      <trkpt lat="44.60301" lon="5.17553">
        <ele>559.2</ele>
        <time>2024-05-17T10:32:01Z</time>
      </trkpt>
      <trkpt lat="44.60301" lon="5.17556">
        <ele>559.4</ele>
        <time>2024-05-17T10:32:02Z</time>
      </trkpt>
      <trkpt lat="44.603" lon="5.17561">
        <ele>559.7</ele>
        <time>2024-05-17T10:32:03Z</time>
      </trkpt>
      <trkpt lat="44.603" lon="5.17563">
        <ele>559.8</ele>
        <time>2024-05-17T10:32:04Z</time>
      </trkpt>
      <trkpt lat="44.60298" lon="5.17567">
        <ele>560.1</ele>
        <time>2024-05-17T10:32:05Z</time>
      </trkpt>
      <trkpt lat="44.60298" lon="5.17568">
        <ele>560.2</ele>
        <time>2024-05-17T10:32:06Z</time>
      </trkpt>
      <trkpt lat="44.60297" lon="5.17571">
        <ele>560.4</ele>
        <time>2024-05-17T10:32:07Z</time>
      </trkpt>
      <trkpt lat="44.60297" lon="5.17576">
        <ele>560.7</ele>
        <time>2024-05-17T10:32:08Z</time>
      </trkpt>
      <trkpt lat="44.60297" lon="5.17577">
        <ele>560.8</ele>
        <time>2024-05-17T10:32:09Z</time>
      </trkpt>
      <trkpt lat="44.60298" lon="5.17582">
        <ele>561</ele>
        <time>2024-05-17T10:32:10Z</time>
      </trkpt>
      <trkpt lat="44.60298" lon="5.17584">
        <ele>561.1</ele>
        <time>2024-05-17T10:32:11Z</time>
      </trkpt>
      <trkpt lat="44.60298" lon="5.17589">
        <ele>561.4</ele>
        <time>2024-05-17T10:32:12Z</time>
      </trkpt>
      <trkpt lat="44.60298" lon="5.17591">
        <ele>561.5</ele>
        <time>2024-05-17T10:32:13Z</time>
      </trkpt>
      <trkpt lat="44.60298" lon="5.17597">
        <ele>561.9</ele>
        <time>2024-05-17T10:32:14Z</time>
      </trkpt>
      <trkpt lat="44.60298" lon="5.17598">
        <ele>562</ele>
        <time>2024-05-17T10:32:15Z</time>
      </trkpt>
      <trkpt lat="44.60299" lon="5.17603">
        <ele>562.3</ele>
        <time>2024-05-17T10:32:16Z</time>
      </trkpt>
      <trkpt lat="44.60299" lon="5.17605">
        <ele>562.4</ele>
        <time>2024-05-17T10:32:17Z</time>
      </trkpt>
      <trkpt lat="44.603" lon="5.17609">
        <ele>562.6</ele>
        <time>2024-05-17T10:32:18Z</time>
      </trkpt>
      <trkpt lat="44.60301" lon="5.1761">
        <ele>562.8</ele>
        <time>2024-05-17T10:32:19Z</time>
      </trkpt>
      <trkpt lat="44.60302" lon="5.17613">
        <ele>563</ele>
        <time>2024-05-17T10:32:20Z</time>
      </trkpt>
      <trkpt lat="44.60305" lon="5.17617">
        <ele>563.2</ele>
        <time>2024-05-17T10:32:21Z</time>
      </trkpt>
      <trkpt lat="44.60306" lon="5.17618">
        <ele>563.2</ele>
        <time>2024-05-17T10:32:22Z</time>
      </trkpt>
      <trkpt lat="44.6031" lon="5.1762">
        <ele>563.2</ele>
        <time>2024-05-17T10:32:23Z</time>
      </trkpt>
      <trkpt lat="44.60311" lon="5.17621">
        <ele>563.2</ele>
        <time>2024-05-17T10:32:24Z</time>
      </trkpt>
      <trkpt lat="44.60314" lon="5.17622">
        <ele>563.2</ele>
        <time>2024-05-17T10:32:25Z</time>
      </trkpt>
      <trkpt lat="44.60315" lon="5.17623">
        <ele>563.2</ele>
        <time>2024-05-17T10:32:26Z</time>
      </trkpt>
      <trkpt lat="44.60318" lon="5.17623">
        <ele>563.4</ele>
        <time>2024-05-17T10:32:27Z</time>
      </trkpt>
      <trkpt lat="44.60321" lon="5.17622">
        <ele>563.6</ele>
        <time>2024-05-17T10:32:28Z</time>
      </trkpt>
      <trkpt lat="44.60322" lon="5.17622">
        <ele>563.6</ele>
        <time>2024-05-17T10:32:29Z</time>
      </trkpt>
      <trkpt lat="44.60324" lon="5.17621">
        <ele>563.8</ele>
        <time>2024-05-17T10:32:30Z</time>
      </trkpt>
      <trkpt lat="44.60327" lon="5.17618">
        <ele>564</ele>
        <time>2024-05-17T10:32:31Z</time>
      </trkpt>
      <trkpt lat="44.60328" lon="5.17617">
        <ele>564</ele>
        <time>2024-05-17T10:32:32Z</time>
      </trkpt>
      <trkpt lat="44.6033" lon="5.17615">
        <ele>564.2</ele>
        <time>2024-05-17T10:32:33Z</time>
      </trkpt>
      <trkpt lat="44.60331" lon="5.17613">
        <ele>564.3</ele>
        <time>2024-05-17T10:32:34Z</time>
      </trkpt>
      <trkpt lat="44.60333" lon="5.17611">
        <ele>564.4</ele>
        <time>2024-05-17T10:32:35Z</time>
      </trkpt>
      <trkpt lat="44.60335" lon="5.17609">
        <ele>564.6</ele>
        <time>2024-05-17T10:32:36Z</time>
      </trkpt>
      <trkpt lat="44.60337" lon="5.17606">
        <ele>564.7</ele>
        <time>2024-05-17T10:32:37Z</time>
      </trkpt>
      <trkpt lat="44.60338" lon="5.17604">
        <ele>564.8</ele>
        <time>2024-05-17T10:32:38Z</time>
      </trkpt>
      <trkpt lat="44.6034" lon="5.17602">
        <ele>564.9</ele>
        <time>2024-05-17T10:32:39Z</time>
      </trkpt>
      <trkpt lat="44.60342" lon="5.17598">
        <ele>565.2</ele>
        <time>2024-05-17T10:32:40Z</time>
      </trkpt>
      <trkpt lat="44.60342" lon="5.17596">
        <ele>565.2</ele>
        <time>2024-05-17T10:32:41Z</time>
      </trkpt>
      <trkpt lat="44.60344" lon="5.17593">
        <ele>565.4</ele>
        <time>2024-05-17T10:32:42Z</time>
      </trkpt>
      <trkpt lat="44.60346" lon="5.17588">
        <ele>565.7</ele>
        <time>2024-05-17T10:32:43Z</time>
      </trkpt>
      <trkpt lat="44.60346" lon="5.17587">
        <ele>565.8</ele>
        <time>2024-05-17T10:32:44Z</time>
      </trkpt>
      <trkpt lat="44.60347" lon="5.17584">
        <ele>565.9</ele>
        <time>2024-05-17T10:32:45Z</time>
      </trkpt>
      <trkpt lat="44.60349" lon="5.17579">
        <ele>566.2</ele>
        <time>2024-05-17T10:32:46Z</time>
      </trkpt>
      <trkpt lat="44.60349" lon="5.17577">
        <ele>566.3</ele>
        <time>2024-05-17T10:32:47Z</time>
      </trkpt>
      <trkpt lat="44.6035" lon="5.17572">
        <ele>566.6</ele>
        <time>2024-05-17T10:32:48Z</time>
      </trkpt>
      <trkpt lat="44.60351" lon="5.17571">
        <ele>566.7</ele>
        <time>2024-05-17T10:32:49Z</time>
      </trkpt>
      <trkpt lat="44.60351" lon="5.17566">
        <ele>567</ele>
        <time>2024-05-17T10:32:50Z</time>
      </trkpt>
      <trkpt lat="44.60352" lon="5.17564">
        <ele>567.1</ele>
        <time>2024-05-17T10:32:51Z</time>
      </trkpt>
      <trkpt lat="44.60352" lon="5.17561">
        <ele>567.3</ele>
        <time>2024-05-17T10:32:52Z</time>
      </trkpt>
      <trkpt lat="44.60353" lon="5.17556">
        <ele>567.6</ele>
        <time>2024-05-17T10:32:53Z</time>
      </trkpt>
      <trkpt lat="44.60353" lon="5.17554">
        <ele>567.7</ele>
        <time>2024-05-17T10:32:54Z</time>
      </trkpt>
      <trkpt lat="44.60354" lon="5.17551">
        <ele>567.9</ele>
        <time>2024-05-17T10:32:55Z</time>
      </trkpt>
      <trkpt lat="44.60355" lon="5.17546">
        <ele>568.2</ele>
        <time>2024-05-17T10:32:56Z</time>
      </trkpt>
      <trkpt lat="44.60355" lon="5.17545">
        <ele>568.3</ele>
        <time>2024-05-17T10:32:57Z</time>
      </trkpt>
      <trkpt lat="44.60356" lon="5.1754">
        <ele>568.7</ele>
        <time>2024-05-17T10:32:58Z</time>
      </trkpt>
      <trkpt lat="44.60356" lon="5.17538">
        <ele>568.8</ele>
        <time>2024-05-17T10:32:59Z</time>
      </trkpt>
      <trkpt lat="44.60357" lon="5.17533">
        <ele>569.1</ele>
        <time>2024-05-17T10:33:00Z</time>
      </trkpt>
      <trkpt lat="44.60358" lon="5.17532">
        <ele>569.2</ele>
        <time>2024-05-17T10:33:01Z</time>
      </trkpt>
      <trkpt lat="44.60359" lon="5.17528">
        <ele>569.5</ele>
        <time>2024-05-17T10:33:02Z</time>
      </trkpt>
      <trkpt lat="44.6036" lon="5.17527">
        <ele>569.6</ele>
        <time>2024-05-17T10:33:03Z</time>
      </trkpt>
      <trkpt lat="44.60361" lon="5.17524">
        <ele>569.8</ele>
        <time>2024-05-17T10:33:04Z</time>
      </trkpt>
      <trkpt lat="44.60363" lon="5.17521">
        <ele>570.2</ele>
        <time>2024-05-17T10:33:05Z</time>
      </trkpt>
      <trkpt lat="44.60364" lon="5.1752">
        <ele>570.3</ele>
        <time>2024-05-17T10:33:06Z</time>
      </trkpt>
      <trkpt lat="44.60368" lon="5.17518">
        <ele>570.6</ele>
        <time>2024-05-17T10:33:07Z</time>
      </trkpt>
      <trkpt lat="44.60369" lon="5.17517">
        <ele>570.7</ele>
        <time>2024-05-17T10:33:08Z</time>
      </trkpt>
      <trkpt lat="44.60373" lon="5.17517">
        <ele>571.1</ele>
        <time>2024-05-17T10:33:09Z</time>
      </trkpt>
      <trkpt lat="44.60375" lon="5.17517">
        <ele>571.2</ele>
        <time>2024-05-17T10:33:10Z</time>
      </trkpt>
      <trkpt lat="44.60377" lon="5.17517">
        <ele>571.4</ele>
        <time>2024-05-17T10:33:11Z</time>
      </trkpt>
      <trkpt lat="44.60381" lon="5.17518">
        <ele>571.8</ele>
        <time>2024-05-17T10:33:12Z</time>
      </trkpt>
      <trkpt lat="44.60383" lon="5.17519">
        <ele>571.9</ele>
        <time>2024-05-17T10:33:13Z</time>
      </trkpt>
      <trkpt lat="44.60385" lon="5.1752">
        <ele>572.1</ele>
        <time>2024-05-17T10:33:14Z</time>
      </trkpt>
      <trkpt lat="44.60388" lon="5.17522">
        <ele>572.4</ele>
        <time>2024-05-17T10:33:15Z</time>
      </trkpt>
      <trkpt lat="44.60389" lon="5.17522">
        <ele>572.4</ele>
        <time>2024-05-17T10:33:16Z</time>
      </trkpt>
      <trkpt lat="44.60391" lon="5.17524">
        <ele>572.6</ele>
        <time>2024-05-17T10:33:17Z</time>
      </trkpt>
      <trkpt lat="44.60395" lon="5.17525">
        <ele>572.9</ele>
        <time>2024-05-17T10:33:18Z</time>
      </trkpt>
      <trkpt lat="44.60396" lon="5.17525">
        <ele>573</ele>
        <time>2024-05-17T10:33:19Z</time>
      </trkpt>
      <trkpt lat="44.60399" lon="5.17527">
        <ele>573.3</ele>
        <time>2024-05-17T10:33:20Z</time>
      </trkpt>
      <trkpt lat="44.604" lon="5.17527">
        <ele>573.4</ele>
        <time>2024-05-17T10:33:21Z</time>
      </trkpt>
      <trkpt lat="44.60402" lon="5.17529">
        <ele>573.6</ele>
        <time>2024-05-17T10:33:22Z</time>
      </trkpt>
      <trkpt lat="44.60404" lon="5.1753">
        <ele>573.7</ele>
        <time>2024-05-17T10:33:23Z</time>
      </trkpt>
      <trkpt lat="44.60406" lon="5.17531">
        <ele>573.9</ele>
        <time>2024-05-17T10:33:24Z</time>
      </trkpt>
      <trkpt lat="44.60409" lon="5.17533">
        <ele>574.2</ele>
        <time>2024-05-17T10:33:25Z</time>
      </trkpt>
      <trkpt lat="44.6041" lon="5.17533">
        <ele>574.3</ele>
        <time>2024-05-17T10:33:26Z</time>
      </trkpt>
      <trkpt lat="44.60413" lon="5.17535">
        <ele>574.6</ele>
        <time>2024-05-17T10:33:27Z</time>
      </trkpt>
      <trkpt lat="44.60414" lon="5.17536">
        <ele>574.7</ele>
        <time>2024-05-17T10:33:28Z</time>
      </trkpt>
      <trkpt lat="44.60416" lon="5.17539">
        <ele>575</ele>
        <time>2024-05-17T10:33:29Z</time>
      </trkpt>
      <trkpt lat="44.60417" lon="5.1754">
        <ele>575.1</ele>
        <time>2024-05-17T10:33:30Z</time>
      </trkpt>
      <trkpt lat="44.6042" lon="5.17542">
        <ele>575.4</ele>
        <time>2024-05-17T10:33:31Z</time>
      </trkpt>
      <trkpt lat="44.60421" lon="5.17543">
        <ele>575.5</ele>
        <time>2024-05-17T10:33:32Z</time>
      </trkpt>
      <trkpt lat="44.60423" lon="5.17543">
        <ele>575.7</ele>
        <time>2024-05-17T10:33:33Z</time>
      </trkpt>
      <trkpt lat="44.60426" lon="5.17545">
        <ele>576</ele>
        <time>2024-05-17T10:33:34Z</time>
      </trkpt>
      <trkpt lat="44.60427" lon="5.17545">
        <ele>576.1</ele>
        <time>2024-05-17T10:33:35Z</time>
      </trkpt>
      <trkpt lat="44.60429" lon="5.17546">
        <ele>576.3</ele>
        <time>2024-05-17T10:33:36Z</time>
      </trkpt>
      <trkpt lat="44.60431" lon="5.17547">
        <ele>576.5</ele>
        <time>2024-05-17T10:33:37Z</time>
      </trkpt>
      <trkpt lat="44.60434" lon="5.17547">
        <ele>576.8</ele>
        <time>2024-05-17T10:33:38Z</time>
      </trkpt>
      <trkpt lat="44.60435" lon="5.17547">
        <ele>576.9</ele>
        <time>2024-05-17T10:33:39Z</time>
      </trkpt>
      <trkpt lat="44.60438" lon="5.17547">
        <ele>577.1</ele>
        <time>2024-05-17T10:33:40Z</time>
      </trkpt>
      <trkpt lat="44.6044" lon="5.17546">
        <ele>577.4</ele>
        <time>2024-05-17T10:33:41Z</time>
      </trkpt>
      <trkpt lat="44.60443" lon="5.17545">
        <ele>577.6</ele>
        <time>2024-05-17T10:33:42Z</time>
      </trkpt>
      <trkpt lat="44.60444" lon="5.17544">
        <ele>577.7</ele>
        <time>2024-05-17T10:33:43Z</time>
      </trkpt>
      <trkpt lat="44.60447" lon="5.17541">
        <ele>578</ele>
        <time>2024-05-17T10:33:44Z</time>
      </trkpt>
      <trkpt lat="44.60448" lon="5.1754">
        <ele>578.1</ele>
        <time>2024-05-17T10:33:45Z</time>
      </trkpt>
      <trkpt lat="44.6045" lon="5.17538">
        <ele>578.3</ele>
        <time>2024-05-17T10:33:46Z</time>
      </trkpt>
      <trkpt lat="44.60452" lon="5.17535">
        <ele>578.6</ele>
        <time>2024-05-17T10:33:47Z</time>
      </trkpt>
      <trkpt lat="44.60453" lon="5.17534">
        <ele>578.7</ele>
        <time>2024-05-17T10:33:48Z</time>
      </trkpt>
      <trkpt lat="44.60455" lon="5.17531">
        <ele>578.9</ele>
        <time>2024-05-17T10:33:49Z</time>
      </trkpt>
      <trkpt lat="44.60456" lon="5.1753">
        <ele>579</ele>
        <time>2024-05-17T10:33:50Z</time>
      </trkpt>
      <trkpt lat="44.60458" lon="5.17526">
        <ele>579.3</ele>
        <time>2024-05-17T10:33:51Z</time>
      </trkpt>
      <trkpt lat="44.60459" lon="5.17525">
        <ele>579.4</ele>
        <time>2024-05-17T10:33:52Z</time>
      </trkpt>
      <trkpt lat="44.60461" lon="5.17521">
        <ele>579.7</ele>
        <time>2024-05-17T10:33:53Z</time>
      </trkpt>
      <trkpt lat="44.60461" lon="5.17519">
        <ele>579.8</ele>
        <time>2024-05-17T10:33:54Z</time>
      </trkpt>
      <trkpt lat="44.60462" lon="5.17516">
        <ele>579.9</ele>
        <time>2024-05-17T10:33:55Z</time>
      </trkpt>
      <trkpt lat="44.60464" lon="5.17512">
        <ele>580.2</ele>
        <time>2024-05-17T10:33:56Z</time>
      </trkpt>
      <trkpt lat="44.60465" lon="5.1751">
        <ele>580.3</ele>
        <time>2024-05-17T10:33:57Z</time>
      </trkpt>
      <trkpt lat="44.60466" lon="5.17508">
        <ele>580.5</ele>
        <time>2024-05-17T10:33:58Z</time>
      </trkpt>
      <trkpt lat="44.60467" lon="5.17505">
        <ele>580.7</ele>
        <time>2024-05-17T10:33:59Z</time>
      </trkpt>
      <trkpt lat="44.60469" lon="5.17501">
        <ele>581</ele>
        <time>2024-05-17T10:34:00Z</time>
      </trkpt>
      <trkpt lat="44.6047" lon="5.175">
        <ele>581.1</ele>
        <time>2024-05-17T10:34:01Z</time>
      </trkpt>
      <trkpt lat="44.60471" lon="5.17498">
        <ele>581.3</ele>
        <time>2024-05-17T10:34:02Z</time>
      </trkpt>
      <trkpt lat="44.60472" lon="5.17495">
        <ele>581.5</ele>
        <time>2024-05-17T10:34:03Z</time>
      </trkpt>
      <trkpt lat="44.60474" lon="5.17493">
        <ele>581.7</ele>
        <time>2024-05-17T10:34:04Z</time>
      </trkpt>
      <trkpt lat="44.60475" lon="5.17491">
        <ele>581.8</ele>
        <time>2024-05-17T10:34:05Z</time>
      </trkpt>
      <trkpt lat="44.60477" lon="5.17489">
        <ele>582.1</ele>
        <time>2024-05-17T10:34:06Z</time>
      </trkpt>
      <trkpt lat="44.6048" lon="5.17487">
        <ele>582.3</ele>
        <time>2024-05-17T10:34:07Z</time>
      </trkpt>
      <trkpt lat="44.60481" lon="5.17485">
        <ele>582.5</ele>
        <time>2024-05-17T10:34:08Z</time>
      </trkpt>
      <trkpt lat="44.60483" lon="5.17483">
        <ele>582.6</ele>
        <time>2024-05-17T10:34:09Z</time>
      </trkpt>
      <trkpt lat="44.60486" lon="5.17482">
        <ele>582.9</ele>
        <time>2024-05-17T10:34:10Z</time>
      </trkpt>
      <trkpt lat="44.60487" lon="5.17481">
        <ele>583</ele>
        <time>2024-05-17T10:34:11Z</time>
      </trkpt>
      <trkpt lat="44.6049" lon="5.17481">
        <ele>583.2</ele>
        <time>2024-05-17T10:34:12Z</time>
      </trkpt>
      <trkpt lat="44.60493" lon="5.1748">
        <ele>583.4</ele>
        <time>2024-05-17T10:34:13Z</time>
      </trkpt>
      <trkpt lat="44.60494" lon="5.1748">
        <ele>583.5</ele>
        <time>2024-05-17T10:34:14Z</time>
      </trkpt>
      <trkpt lat="44.60497" lon="5.17479">
        <ele>583.7</ele>
        <time>2024-05-17T10:34:15Z</time>
      </trkpt>
      <trkpt lat="44.60498" lon="5.17479">
        <ele>583.8</ele>
        <time>2024-05-17T10:34:16Z</time>
      </trkpt>
      <trkpt lat="44.605" lon="5.17478">
        <ele>584</ele>
        <time>2024-05-17T10:34:17Z</time>
      </trkpt>
      <trkpt lat="44.60503" lon="5.17477">
        <ele>584.2</ele>
        <time>2024-05-17T10:34:18Z</time>
      </trkpt>
      <trkpt lat="44.60504" lon="5.17476">
        <ele>584.3</ele>
        <time>2024-05-17T10:34:19Z</time>
      </trkpt>
      <trkpt lat="44.60508" lon="5.17475">
        <ele>584.6</ele>
        <time>2024-05-17T10:34:20Z</time>
      </trkpt>
      <trkpt lat="44.60509" lon="5.17474">
        <ele>584.7</ele>
        <time>2024-05-17T10:34:21Z</time>
      </trkpt>
      <trkpt lat="44.60512" lon="5.17473">
        <ele>584.9</ele>
        <time>2024-05-17T10:34:22Z</time>
      </trkpt>
      <trkpt lat="44.60514" lon="5.17473">
        <ele>585</ele>
        <time>2024-05-17T10:34:23Z</time>
      </trkpt>
      <trkpt lat="44.60517" lon="5.17472">
        <ele>585.2</ele>
        <time>2024-05-17T10:34:24Z</time>
      </trkpt>
      <trkpt lat="44.60518" lon="5.17472">
        <ele>585.3</ele>
        <time>2024-05-17T10:34:25Z</time>
      </trkpt>
      <trkpt lat="44.60521" lon="5.1747">
        <ele>585.5</ele>
        <time>2024-05-17T10:34:26Z</time>
      </trkpt>
      <trkpt lat="44.60522" lon="5.1747">
        <ele>585.6</ele>
        <time>2024-05-17T10:34:27Z</time>
      </trkpt>
      <trkpt lat="44.60525" lon="5.17468">
        <ele>585.8</ele>
        <time>2024-05-17T10:34:28Z</time>
      </trkpt>
      <trkpt lat="44.60526" lon="5.17468">
        <ele>585.9</ele>
        <time>2024-05-17T10:34:29Z</time>
      </trkpt>
      <trkpt lat="44.6053" lon="5.17466">
        <ele>586.1</ele>
        <time>2024-05-17T10:34:30Z</time>
      </trkpt>
      <trkpt lat="44.60531" lon="5.17466">
        <ele>586.2</ele>
        <time>2024-05-17T10:34:31Z</time>
      </trkpt>
      <trkpt lat="44.60533" lon="5.17466">
        <ele>586.4</ele>
        <time>2024-05-17T10:34:32Z</time>
      </trkpt>
      <trkpt lat="44.60537" lon="5.17465">
        <ele>586.7</ele>
        <time>2024-05-17T10:34:33Z</time>
      </trkpt>
      <trkpt lat="44.60538" lon="5.17465">
        <ele>586.8</ele>
        <time>2024-05-17T10:34:34Z</time>
      </trkpt>
      <trkpt lat="44.60542" lon="5.17464">
        <ele>587.1</ele>
        <time>2024-05-17T10:34:35Z</time>
      </trkpt>
      <trkpt lat="44.60543" lon="5.17464">
        <ele>587.2</ele>
        <time>2024-05-17T10:34:36Z</time>
      </trkpt>
      <trkpt lat="44.60545" lon="5.17463">
        <ele>587.4</ele>
        <time>2024-05-17T10:34:37Z</time>
      </trkpt>
      <trkpt lat="44.60548" lon="5.17461">
        <ele>587.7</ele>
        <time>2024-05-17T10:34:38Z</time>
      </trkpt>
      <trkpt lat="44.60549" lon="5.17461">
        <ele>587.8</ele>
        <time>2024-05-17T10:34:39Z</time>
      </trkpt>
      <trkpt lat="44.60551" lon="5.1746">
        <ele>588</ele>
        <time>2024-05-17T10:34:40Z</time>
      </trkpt>
      <trkpt lat="44.60555" lon="5.17459">
        <ele>588.3</ele>
        <time>2024-05-17T10:34:41Z</time>
      </trkpt>
      <trkpt lat="44.60556" lon="5.17459">
        <ele>588.4</ele>
        <time>2024-05-17T10:34:42Z</time>
      </trkpt>
      <trkpt lat="44.60559" lon="5.17459">
        <ele>588.8</ele>
        <time>2024-05-17T10:34:43Z</time>
      </trkpt>
      <trkpt lat="44.6056" lon="5.17459">
        <ele>588.9</ele>
        <time>2024-05-17T10:34:44Z</time>
      </trkpt>
      <trkpt lat="44.60563" lon="5.17459">
        <ele>589.1</ele>
        <time>2024-05-17T10:34:45Z</time>
      </trkpt>
      <trkpt lat="44.60564" lon="5.17459">
        <ele>589.2</ele>
        <time>2024-05-17T10:34:46Z</time>
      </trkpt>
      <trkpt lat="44.60567" lon="5.1746">
        <ele>589.5</ele>
        <time>2024-05-17T10:34:47Z</time>
      </trkpt>
      <trkpt lat="44.60568" lon="5.1746">
        <ele>589.6</ele>
        <time>2024-05-17T10:34:48Z</time>
      </trkpt>
      <trkpt lat="44.60571" lon="5.17461">
        <ele>589.9</ele>
        <time>2024-05-17T10:34:49Z</time>
      </trkpt>
      <trkpt lat="44.60572" lon="5.17461">
        <ele>590</ele>
        <time>2024-05-17T10:34:50Z</time>
      </trkpt>
      <trkpt lat="44.60574" lon="5.17462">
        <ele>590.2</ele>
        <time>2024-05-17T10:34:51Z</time>
      </trkpt>
      <trkpt lat="44.60576" lon="5.17462">
        <ele>590.4</ele>
        <time>2024-05-17T10:34:52Z</time>
      </trkpt>
      <trkpt lat="44.60577" lon="5.17462">
        <ele>590.5</ele>
        <time>2024-05-17T10:34:53Z</time>
      </trkpt>
      <trkpt lat="44.60579" lon="5.17462">
        <ele>590.7</ele>
        <time>2024-05-17T10:34:54Z</time>
      </trkpt>
      <trkpt lat="44.60582" lon="5.17462">
        <ele>590.9</ele>
        <time>2024-05-17T10:34:55Z</time>
      </trkpt>
      <trkpt lat="44.60583" lon="5.17462">
        <ele>591</ele>
        <time>2024-05-17T10:34:56Z</time>
      </trkpt>
      <trkpt lat="44.60586" lon="5.17463">
        <ele>591.3</ele>
        <time>2024-05-17T10:34:57Z</time>
      </trkpt>
      <trkpt lat="44.60587" lon="5.17463">
        <ele>591.4</ele>
        <time>2024-05-17T10:34:58Z</time>
      </trkpt>
      <trkpt lat="44.6059" lon="5.17462">
        <ele>591.6</ele>
        <time>2024-05-17T10:34:59Z</time>
      </trkpt>
      <trkpt lat="44.60591" lon="5.17462">
        <ele>591.7</ele>
        <time>2024-05-17T10:35:00Z</time>
      </trkpt>
      <trkpt lat="44.60594" lon="5.17461">
        <ele>592</ele>
        <time>2024-05-17T10:35:01Z</time>
      </trkpt>
      <trkpt lat="44.60595" lon="5.17461">
        <ele>592.1</ele>
        <time>2024-05-17T10:35:02Z</time>
      </trkpt>
      <trkpt lat="44.60597" lon="5.1746">
        <ele>592.3</ele>
        <time>2024-05-17T10:35:03Z</time>
      </trkpt>
      <trkpt lat="44.60599" lon="5.1746">
        <ele>592.5</ele>
        <time>2024-05-17T10:35:04Z</time>
      </trkpt>
      <trkpt lat="44.60602" lon="5.17458">
        <ele>592.7</ele>
        <time>2024-05-17T10:35:05Z</time>
      </trkpt>
      <trkpt lat="44.60603" lon="5.17458">
        <ele>592.8</ele>
        <time>2024-05-17T10:35:06Z</time>
      </trkpt>
      <trkpt lat="44.60605" lon="5.17457">
        <ele>593</ele>
        <time>2024-05-17T10:35:07Z</time>
      </trkpt>
      <trkpt lat="44.60607" lon="5.17455">
        <ele>593.1</ele>
        <time>2024-05-17T10:35:08Z</time>
      </trkpt>
      <trkpt lat="44.60609" lon="5.17452">
        <ele>593.4</ele>
        <time>2024-05-17T10:35:09Z</time>
      </trkpt>
      <trkpt lat="44.6061" lon="5.17452">
        <ele>593.4</ele>
        <time>2024-05-17T10:35:10Z</time>
      </trkpt>
      <trkpt lat="44.60612" lon="5.17449">
        <ele>593.7</ele>
        <time>2024-05-17T10:35:11Z</time>
      </trkpt>
      <trkpt lat="44.60613" lon="5.17448">
        <ele>593.8</ele>
        <time>2024-05-17T10:35:12Z</time>
      </trkpt>
      <trkpt lat="44.60614" lon="5.17446">
        <ele>593.9</ele>
        <time>2024-05-17T10:35:13Z</time>
      </trkpt>
      <trkpt lat="44.60616" lon="5.17444">
        <ele>594.1</ele>
        <time>2024-05-17T10:35:14Z</time>
      </trkpt>
      <trkpt lat="44.60618" lon="5.17441">
        <ele>594.3</ele>
        <time>2024-05-17T10:35:15Z</time>
      </trkpt>
      <trkpt lat="44.60619" lon="5.17439">
        <ele>594.4</ele>
        <time>2024-05-17T10:35:16Z</time>
      </trkpt>
      <trkpt lat="44.60621" lon="5.17437">
        <ele>594.6</ele>
        <time>2024-05-17T10:35:17Z</time>
      </trkpt>
      <trkpt lat="44.60623" lon="5.17434">
        <ele>594.9</ele>
        <time>2024-05-17T10:35:18Z</time>
      </trkpt>
      <trkpt lat="44.60624" lon="5.17433">
        <ele>595</ele>
        <time>2024-05-17T10:35:19Z</time>
      </trkpt>
      <trkpt lat="44.60626" lon="5.1743">
        <ele>595.2</ele>
        <time>2024-05-17T10:35:20Z</time>
      </trkpt>
      <trkpt lat="44.60627" lon="5.17429">
        <ele>595.3</ele>
        <time>2024-05-17T10:35:21Z</time>
      </trkpt>
      <trkpt lat="44.60629" lon="5.17427">
        <ele>595.4</ele>
        <time>2024-05-17T10:35:22Z</time>
      </trkpt>
      <trkpt lat="44.60631" lon="5.17425">
        <ele>595.7</ele>
        <time>2024-05-17T10:35:23Z</time>
      </trkpt>
      <trkpt lat="44.60632" lon="5.17424">
        <ele>595.8</ele>
        <time>2024-05-17T10:35:24Z</time>
      </trkpt>
      <trkpt lat="44.60635" lon="5.17421">
        <ele>596</ele>
        <time>2024-05-17T10:35:25Z</time>
      </trkpt>
      <trkpt lat="44.60635" lon="5.17421">
        <ele>596.1</ele>
        <time>2024-05-17T10:35:26Z</time>
      </trkpt>
      <trkpt lat="44.60637" lon="5.17419">
        <ele>596.3</ele>
        <time>2024-05-17T10:35:27Z</time>
      </trkpt>
      <trkpt lat="44.60639" lon="5.17417">
        <ele>596.4</ele>
        <time>2024-05-17T10:35:28Z</time>
      </trkpt>
      <trkpt lat="44.60641" lon="5.17416">
        <ele>596.6</ele>
        <time>2024-05-17T10:35:29Z</time>
      </trkpt>
      <trkpt lat="44.60644" lon="5.17414">
        <ele>596.9</ele>
        <time>2024-05-17T10:35:30Z</time>
      </trkpt>
      <trkpt lat="44.60645" lon="5.17413">
        <ele>597</ele>
        <time>2024-05-17T10:35:31Z</time>
      </trkpt>
      <trkpt lat="44.60647" lon="5.17411">
        <ele>597.2</ele>
        <time>2024-05-17T10:35:32Z</time>
      </trkpt>
      <trkpt lat="44.60649" lon="5.1741">
        <ele>597.3</ele>
        <time>2024-05-17T10:35:33Z</time>
      </trkpt>
      <trkpt lat="44.60652" lon="5.17409">
        <ele>597.5</ele>
        <time>2024-05-17T10:35:34Z</time>
      </trkpt>
      <trkpt lat="44.60655" lon="5.17407">
        <ele>597.8</ele>
        <time>2024-05-17T10:35:35Z</time>
      </trkpt>
      <trkpt lat="44.60656" lon="5.17406">
        <ele>597.9</ele>
        <time>2024-05-17T10:35:36Z</time>
      </trkpt>
      <trkpt lat="44.60658" lon="5.17405">
        <ele>598.1</ele>
        <time>2024-05-17T10:35:37Z</time>
      </trkpt>
      <trkpt lat="44.60661" lon="5.17403">
        <ele>598.3</ele>
        <time>2024-05-17T10:35:38Z</time>
      </trkpt>
      <trkpt lat="44.60662" lon="5.17403">
        <ele>598.4</ele>
        <time>2024-05-17T10:35:39Z</time>
      </trkpt>
      <trkpt lat="44.60665" lon="5.17401">
        <ele>598.7</ele>
        <time>2024-05-17T10:35:40Z</time>
      </trkpt>
      <trkpt lat="44.60666" lon="5.174">
        <ele>598.8</ele>
        <time>2024-05-17T10:35:41Z</time>
      </trkpt>
      <trkpt lat="44.60669" lon="5.17398">
        <ele>599.1</ele>
        <time>2024-05-17T10:35:42Z</time>
      </trkpt>
      <trkpt lat="44.6067" lon="5.17397">
        <ele>599.1</ele>
        <time>2024-05-17T10:35:43Z</time>
      </trkpt>
      <trkpt lat="44.60673" lon="5.17396">
        <ele>599.4</ele>
        <time>2024-05-17T10:35:44Z</time>
      </trkpt>
      <trkpt lat="44.60674" lon="5.17395">
        <ele>599.5</ele>
        <time>2024-05-17T10:35:45Z</time>
      </trkpt>
      <trkpt lat="44.60677" lon="5.17393">
        <ele>599.8</ele>
        <time>2024-05-17T10:35:46Z</time>
      </trkpt>
      <trkpt lat="44.60678" lon="5.17392">
        <ele>600</ele>
        <time>2024-05-17T10:35:47Z</time>
      </trkpt>
      <trkpt lat="44.60681" lon="5.1739">
        <ele>600.2</ele>
        <time>2024-05-17T10:35:48Z</time>
      </trkpt>
      <trkpt lat="44.60683" lon="5.17389">
        <ele>600.4</ele>
        <time>2024-05-17T10:35:49Z</time>
      </trkpt>
      <trkpt lat="44.60685" lon="5.17389">
        <ele>600.6</ele>
        <time>2024-05-17T10:35:50Z</time>
      </trkpt>
      <trkpt lat="44.60689" lon="5.17387">
        <ele>601</ele>
        <time>2024-05-17T10:35:51Z</time>
      </trkpt>
      <trkpt lat="44.6069" lon="5.17386">
        <ele>601.1</ele>
        <time>2024-05-17T10:35:52Z</time>
      </trkpt>
      <trkpt lat="44.60693" lon="5.17382">
        <ele>601.5</ele>
        <time>2024-05-17T10:35:53Z</time>
      </trkpt>
      <trkpt lat="44.60694" lon="5.17381">
        <ele>601.6</ele>
        <time>2024-05-17T10:35:54Z</time>
      </trkpt>
      <trkpt lat="44.60697" lon="5.17378">
        <ele>602</ele>
        <time>2024-05-17T10:35:55Z</time>
      </trkpt>
      <trkpt lat="44.60699" lon="5.17378">
        <ele>602.1</ele>
        <time>2024-05-17T10:35:56Z</time>
      </trkpt>
      <trkpt lat="44.60701" lon="5.17377">
        <ele>602.4</ele>
        <time>2024-05-17T10:35:57Z</time>
      </trkpt>
      <trkpt lat="44.60704" lon="5.17376">
        <ele>602.7</ele>
        <time>2024-05-17T10:35:58Z</time>
      </trkpt>
      <trkpt lat="44.60705" lon="5.17376">
        <ele>602.8</ele>
        <time>2024-05-17T10:35:59Z</time>
      </trkpt>
      <trkpt lat="44.60709" lon="5.17375">
        <ele>603.1</ele>
        <time>2024-05-17T10:36:00Z</time>
      </trkpt>
      <trkpt lat="44.6071" lon="5.17374">
        <ele>603.2</ele>
        <time>2024-05-17T10:36:01Z</time>
      </trkpt>
      <trkpt lat="44.60713" lon="5.17373">
        <ele>603.6</ele>
        <time>2024-05-17T10:36:02Z</time>
      </trkpt>
      <trkpt lat="44.60714" lon="5.17372">
        <ele>603.7</ele>
        <time>2024-05-17T10:36:03Z</time>
      </trkpt>
      <trkpt lat="44.60716" lon="5.17371">
        <ele>603.9</ele>
        <time>2024-05-17T10:36:04Z</time>
      </trkpt>
      <trkpt lat="44.60719" lon="5.1737">
        <ele>604.2</ele>
        <time>2024-05-17T10:36:05Z</time>
      </trkpt>
      <trkpt lat="44.60721" lon="5.17369">
        <ele>604.3</ele>
        <time>2024-05-17T10:36:06Z</time>
      </trkpt>
      <trkpt lat="44.60723" lon="5.17368">
        <ele>604.5</ele>
        <time>2024-05-17T10:36:07Z</time>
      </trkpt>
      <trkpt lat="44.60726" lon="5.17367">
        <ele>604.8</ele>
        <time>2024-05-17T10:36:08Z</time>
      </trkpt>
      <trkpt lat="44.60727" lon="5.17367">
        <ele>604.9</ele>
        <time>2024-05-17T10:36:09Z</time>
      </trkpt>
      <trkpt lat="44.60729" lon="5.17366">
        <ele>605.1</ele>
        <time>2024-05-17T10:36:10Z</time>
      </trkpt>
      <trkpt lat="44.60732" lon="5.17365">
        <ele>605.4</ele>
        <time>2024-05-17T10:36:11Z</time>
      </trkpt>
      <trkpt lat="44.60734" lon="5.17364">
        <ele>605.5</ele>
        <time>2024-05-17T10:36:12Z</time>
      </trkpt>
      <trkpt lat="44.60737" lon="5.17363">
        <ele>605.8</ele>
        <time>2024-05-17T10:36:13Z</time>
      </trkpt>
      <trkpt lat="44.60738" lon="5.17363">
        <ele>605.9</ele>
        <time>2024-05-17T10:36:14Z</time>
      </trkpt>
      <trkpt lat="44.6074" lon="5.17362">
        <ele>606.1</ele>
        <time>2024-05-17T10:36:15Z</time>
      </trkpt>
      <trkpt lat="44.60743" lon="5.17362">
        <ele>606.3</ele>
        <time>2024-05-17T10:36:16Z</time>
      </trkpt>
      <trkpt lat="44.60745" lon="5.17361">
        <ele>606.5</ele>
        <time>2024-05-17T10:36:17Z</time>
      </trkpt>
      <trkpt lat="44.60748" lon="5.17359">
        <ele>606.8</ele>
        <time>2024-05-17T10:36:18Z</time>
      </trkpt>
      <trkpt lat="44.60749" lon="5.17359">
        <ele>606.9</ele>
        <time>2024-05-17T10:36:19Z</time>
      </trkpt>
      <trkpt lat="44.60751" lon="5.17358">
        <ele>607.1</ele>
        <time>2024-05-17T10:36:20Z</time>
      </trkpt>
      <trkpt lat="44.60755" lon="5.17356">
        <ele>607.4</ele>
        <time>2024-05-17T10:36:21Z</time>
      </trkpt>
      <trkpt lat="44.60756" lon="5.17356">
        <ele>607.5</ele>
        <time>2024-05-17T10:36:22Z</time>
      </trkpt>
      <trkpt lat="44.60759" lon="5.17354">
        <ele>607.7</ele>
        <time>2024-05-17T10:36:23Z</time>
      </trkpt>
      <trkpt lat="44.6076" lon="5.17353">
        <ele>607.8</ele>
        <time>2024-05-17T10:36:24Z</time>
      </trkpt>
      <trkpt lat="44.60763" lon="5.17351">
        <ele>608.1</ele>
        <time>2024-05-17T10:36:25Z</time>
      </trkpt>
      <trkpt lat="44.60764" lon="5.1735">
        <ele>608.2</ele>
        <time>2024-05-17T10:36:26Z</time>
      </trkpt>
      <trkpt lat="44.60766" lon="5.17349">
        <ele>608.4</ele>
        <time>2024-05-17T10:36:27Z</time>
      </trkpt>
      <trkpt lat="44.60769" lon="5.17347">
        <ele>608.7</ele>
        <time>2024-05-17T10:36:28Z</time>
      </trkpt>
      <trkpt lat="44.60771" lon="5.17346">
        <ele>608.8</ele>
        <time>2024-05-17T10:36:29Z</time>
      </trkpt>
      <trkpt lat="44.60774" lon="5.17345">
        <ele>609.1</ele>
        <time>2024-05-17T10:36:30Z</time>
      </trkpt>
      <trkpt lat="44.60775" lon="5.17345">
        <ele>609.2</ele>
        <time>2024-05-17T10:36:31Z</time>
      </trkpt>
      <trkpt lat="44.60778" lon="5.17344">
        <ele>609.4</ele>
        <time>2024-05-17T10:36:32Z</time>
      </trkpt>
      <trkpt lat="44.6078" lon="5.17343">
        <ele>609.6</ele>
        <time>2024-05-17T10:36:33Z</time>
      </trkpt>
      <trkpt lat="44.60783" lon="5.17341">
        <ele>609.9</ele>
        <time>2024-05-17T10:36:34Z</time>
      </trkpt>
      <trkpt lat="44.60784" lon="5.17341">
        <ele>610</ele>
        <time>2024-05-17T10:36:35Z</time>
      </trkpt>
      <trkpt lat="44.60788" lon="5.1734">
        <ele>610.3</ele>
        <time>2024-05-17T10:36:36Z</time>
      </trkpt>
      <trkpt lat="44.60789" lon="5.1734">
        <ele>610.4</ele>
        <time>2024-05-17T10:36:37Z</time>
      </trkpt>
      <trkpt lat="44.60792" lon="5.17339">
        <ele>610.7</ele>
        <time>2024-05-17T10:36:38Z</time>
      </trkpt>
      <trkpt lat="44.60794" lon="5.17339">
        <ele>610.8</ele>
        <time>2024-05-17T10:36:39Z</time>
      </trkpt>
      <trkpt lat="44.60796" lon="5.17339">
        <ele>611</ele>
        <time>2024-05-17T10:36:40Z</time>
      </trkpt>
      <trkpt lat="44.60799" lon="5.17339">
        <ele>611.2</ele>
        <time>2024-05-17T10:36:41Z</time>
      </trkpt>
      <trkpt lat="44.608" lon="5.17339">
        <ele>611.3</ele>
        <time>2024-05-17T10:36:42Z</time>
      </trkpt>
      <trkpt lat="44.60803" lon="5.1734">
        <ele>611.5</ele>
        <time>2024-05-17T10:36:43Z</time>
      </trkpt>
      <trkpt lat="44.60804" lon="5.17341">
        <ele>611.6</ele>
        <time>2024-05-17T10:36:44Z</time>
      </trkpt>
      <trkpt lat="44.60807" lon="5.17343">
        <ele>611.9</ele>
        <time>2024-05-17T10:36:45Z</time>
      </trkpt>
      <trkpt lat="44.60808" lon="5.17344">
        <ele>611.9</ele>
        <time>2024-05-17T10:36:46Z</time>
      </trkpt>
      <trkpt lat="44.6081" lon="5.17345">
        <ele>612.1</ele>
        <time>2024-05-17T10:36:47Z</time>
      </trkpt>
      <trkpt lat="44.60812" lon="5.17347">
        <ele>612.3</ele>
        <time>2024-05-17T10:36:48Z</time>
      </trkpt>
      <trkpt lat="44.60814" lon="5.17349">
        <ele>612.4</ele>
        <time>2024-05-17T10:36:49Z</time>
      </trkpt>
      <trkpt lat="44.60816" lon="5.17351">
        <ele>612.6</ele>
        <time>2024-05-17T10:36:50Z</time>
      </trkpt>
      <trkpt lat="44.60818" lon="5.17352">
        <ele>612.8</ele>
        <time>2024-05-17T10:36:51Z</time>
      </trkpt>
      <trkpt lat="44.60821" lon="5.17354">
        <ele>613</ele>
        <time>2024-05-17T10:36:52Z</time>
      </trkpt>
      <trkpt lat="44.60825" lon="5.17356">
        <ele>613.4</ele>
        <time>2024-05-17T10:36:53Z</time>
      </trkpt>
      <trkpt lat="44.60826" lon="5.17357">
        <ele>613.5</ele>
        <time>2024-05-17T10:36:54Z</time>
      </trkpt>
      <trkpt lat="44.60829" lon="5.17359">
        <ele>613.8</ele>
        <time>2024-05-17T10:36:55Z</time>
      </trkpt>
      <trkpt lat="44.6083" lon="5.1736">
        <ele>613.9</ele>
        <time>2024-05-17T10:36:56Z</time>
      </trkpt>
      <trkpt lat="44.60833" lon="5.17361">
        <ele>614</ele>
        <time>2024-05-17T10:36:57Z</time>
      </trkpt>
      <trkpt lat="44.60835" lon="5.17362">
        <ele>614.2</ele>
        <time>2024-05-17T10:36:58Z</time>
      </trkpt>
      <trkpt lat="44.60837" lon="5.17363">
        <ele>614.4</ele>
        <time>2024-05-17T10:36:59Z</time>
      </trkpt>
      <trkpt lat="44.60839" lon="5.17363">
        <ele>614.6</ele>
        <time>2024-05-17T10:37:00Z</time>
      </trkpt>
      <trkpt lat="44.60841" lon="5.17364">
        <ele>614.8</ele>
        <time>2024-05-17T10:37:01Z</time>
      </trkpt>
      <trkpt lat="44.60845" lon="5.17365">
        <ele>615.1</ele>
        <time>2024-05-17T10:37:02Z</time>
      </trkpt>
      <trkpt lat="44.60846" lon="5.17365">
        <ele>615.2</ele>
        <time>2024-05-17T10:37:03Z</time>
      </trkpt>
      <trkpt lat="44.60848" lon="5.17365">
        <ele>615.3</ele>
        <time>2024-05-17T10:37:04Z</time>
      </trkpt>
      <trkpt lat="44.60852" lon="5.17366">
        <ele>615.6</ele>
        <time>2024-05-17T10:37:05Z</time>
      </trkpt>
      <trkpt lat="44.60853" lon="5.17366">
        <ele>615.7</ele>
        <time>2024-05-17T10:37:06Z</time>
      </trkpt>
      <trkpt lat="44.60856" lon="5.17367">
        <ele>616</ele>
        <time>2024-05-17T10:37:07Z</time>
      </trkpt>
      <trkpt lat="44.60858" lon="5.17367">
        <ele>616.1</ele>
        <time>2024-05-17T10:37:08Z</time>
      </trkpt>
      <trkpt lat="44.60861" lon="5.17368">
        <ele>616.4</ele>
        <time>2024-05-17T10:37:09Z</time>
      </trkpt>
      <trkpt lat="44.60862" lon="5.17369">
        <ele>616.5</ele>
        <time>2024-05-17T10:37:10Z</time>
      </trkpt>
      <trkpt lat="44.60865" lon="5.17369">
        <ele>616.7</ele>
        <time>2024-05-17T10:37:11Z</time>
      </trkpt>
      <trkpt lat="44.60868" lon="5.17369">
        <ele>617</ele>
        <time>2024-05-17T10:37:12Z</time>
      </trkpt>
      <trkpt lat="44.60869" lon="5.17369">
        <ele>617.1</ele>
        <time>2024-05-17T10:37:13Z</time>
      </trkpt>
      <trkpt lat="44.60871" lon="5.17369">
        <ele>617.3</ele>
        <time>2024-05-17T10:37:14Z</time>
      </trkpt>
      <trkpt lat="44.60875" lon="5.17368">
        <ele>617.5</ele>
        <time>2024-05-17T10:37:15Z</time>
      </trkpt>
      <trkpt lat="44.60876" lon="5.17368">
        <ele>617.6</ele>
        <time>2024-05-17T10:37:16Z</time>
      </trkpt>
      <trkpt lat="44.6088" lon="5.17368">
        <ele>617.9</ele>
        <time>2024-05-17T10:37:17Z</time>
      </trkpt>
      <trkpt lat="44.60881" lon="5.17368">
        <ele>618</ele>
        <time>2024-05-17T10:37:18Z</time>
      </trkpt>
      <trkpt lat="44.60884" lon="5.17367">
        <ele>618.3</ele>
        <time>2024-05-17T10:37:19Z</time>
      </trkpt>
      <trkpt lat="44.60885" lon="5.17367">
        <ele>618.4</ele>
        <time>2024-05-17T10:37:20Z</time>
      </trkpt>
      <trkpt lat="44.60889" lon="5.17366">
        <ele>618.7</ele>
        <time>2024-05-17T10:37:21Z</time>
      </trkpt>
      <trkpt lat="44.6089" lon="5.17366">
        <ele>618.8</ele>
        <time>2024-05-17T10:37:22Z</time>
      </trkpt>
      <trkpt lat="44.60892" lon="5.17366">
        <ele>619</ele>
        <time>2024-05-17T10:37:23Z</time>
      </trkpt>
      <trkpt lat="44.60896" lon="5.17366">
        <ele>619.4</ele>
        <time>2024-05-17T10:37:24Z</time>
      </trkpt>
      <trkpt lat="44.60897" lon="5.17366">
        <ele>619.5</ele>
        <time>2024-05-17T10:37:25Z</time>
      </trkpt>
      <trkpt lat="44.60901" lon="5.17365">
        <ele>619.8</ele>
        <time>2024-05-17T10:37:26Z</time>
      </trkpt>
      <trkpt lat="44.60902" lon="5.17365">
        <ele>619.9</ele>
        <time>2024-05-17T10:37:27Z</time>
      </trkpt>
      <trkpt lat="44.60905" lon="5.17365">
        <ele>620.2</ele>
        <time>2024-05-17T10:37:28Z</time>
      </trkpt>
      <trkpt lat="44.60906" lon="5.17365">
        <ele>620.3</ele>
        <time>2024-05-17T10:37:29Z</time>
      </trkpt>
      <trkpt lat="44.60908" lon="5.17365">
        <ele>620.5</ele>
        <time>2024-05-17T10:37:30Z</time>
      </trkpt>
      <trkpt lat="44.60912" lon="5.17365">
        <ele>620.8</ele>
        <time>2024-05-17T10:37:31Z</time>
      </trkpt>
      <trkpt lat="44.60913" lon="5.17366">
        <ele>620.9</ele>
        <time>2024-05-17T10:37:32Z</time>
      </trkpt>
      <trkpt lat="44.60916" lon="5.17367">
        <ele>621.3</ele>
        <time>2024-05-17T10:37:33Z</time>
      </trkpt>
      <trkpt lat="44.60917" lon="5.17367">
        <ele>621.4</ele>
        <time>2024-05-17T10:37:34Z</time>
      </trkpt>
      <trkpt lat="44.60921" lon="5.17369">
        <ele>621.8</ele>
        <time>2024-05-17T10:37:35Z</time>
      </trkpt>
      <trkpt lat="44.60922" lon="5.17369">
        <ele>621.9</ele>
        <time>2024-05-17T10:37:36Z</time>
      </trkpt>
      <trkpt lat="44.60924" lon="5.1737">
        <ele>622.1</ele>
        <time>2024-05-17T10:37:37Z</time>
      </trkpt>
      <trkpt lat="44.60928" lon="5.17372">
        <ele>622.5</ele>
        <time>2024-05-17T10:37:38Z</time>
      </trkpt>
      <trkpt lat="44.60929" lon="5.17372">
        <ele>622.6</ele>
        <time>2024-05-17T10:37:39Z</time>
      </trkpt>
      <trkpt lat="44.60931" lon="5.17373">
        <ele>622.9</ele>
        <time>2024-05-17T10:37:40Z</time>
      </trkpt>
      <trkpt lat="44.60935" lon="5.17375">
        <ele>623.2</ele>
        <time>2024-05-17T10:37:41Z</time>
      </trkpt>
      <trkpt lat="44.60936" lon="5.17376">
        <ele>623.3</ele>
        <time>2024-05-17T10:37:42Z</time>
      </trkpt>
      <trkpt lat="44.60938" lon="5.17377">
        <ele>623.6</ele>
        <time>2024-05-17T10:37:43Z</time>
      </trkpt>
      <trkpt lat="44.6094" lon="5.17378">
        <ele>623.8</ele>
        <time>2024-05-17T10:37:44Z</time>
      </trkpt>
      <trkpt lat="44.60941" lon="5.17379">
        <ele>623.9</ele>
        <time>2024-05-17T10:37:45Z</time>
      </trkpt>
      <trkpt lat="44.60943" lon="5.1738">
        <ele>624.1</ele>
        <time>2024-05-17T10:37:46Z</time>
      </trkpt>
      <trkpt lat="44.60946" lon="5.17382">
        <ele>624.4</ele>
        <time>2024-05-17T10:37:47Z</time>
      </trkpt>
      <trkpt lat="44.60947" lon="5.17382">
        <ele>624.5</ele>
        <time>2024-05-17T10:37:48Z</time>
      </trkpt>
      <trkpt lat="44.60949" lon="5.17384">
        <ele>624.8</ele>
        <time>2024-05-17T10:37:49Z</time>
      </trkpt>
      <trkpt lat="44.6095" lon="5.17385">
        <ele>624.9</ele>
        <time>2024-05-17T10:37:50Z</time>
      </trkpt>
      <trkpt lat="44.60953" lon="5.17386">
        <ele>625.1</ele>
        <time>2024-05-17T10:37:51Z</time>
      </trkpt>
      <trkpt lat="44.60954" lon="5.17387">
        <ele>625.2</ele>
        <time>2024-05-17T10:37:52Z</time>
      </trkpt>
      <trkpt lat="44.60956" lon="5.17388">
        <ele>625.4</ele>
        <time>2024-05-17T10:37:53Z</time>
      </trkpt>
      <trkpt lat="44.60958" lon="5.1739">
        <ele>625.7</ele>
        <time>2024-05-17T10:37:54Z</time>
      </trkpt>
      <trkpt lat="44.60959" lon="5.17391">
        <ele>625.8</ele>
        <time>2024-05-17T10:37:55Z</time>
      </trkpt>
      <trkpt lat="44.60962" lon="5.17392">
        <ele>626</ele>
        <time>2024-05-17T10:37:56Z</time>
      </trkpt>
      <trkpt lat="44.60963" lon="5.17393">
        <ele>626.1</ele>
        <time>2024-05-17T10:37:57Z</time>
      </trkpt>
      <trkpt lat="44.60964" lon="5.17395">
        <ele>626.3</ele>
        <time>2024-05-17T10:37:58Z</time>
      </trkpt>
      <trkpt lat="44.60967" lon="5.17397">
        <ele>626.5</ele>
        <time>2024-05-17T10:37:59Z</time>
      </trkpt>
      <trkpt lat="44.60968" lon="5.17398">
        <ele>626.6</ele>
        <time>2024-05-17T10:38:00Z</time>
      </trkpt>
      <trkpt lat="44.60969" lon="5.17399">
        <ele>626.8</ele>
        <time>2024-05-17T10:38:01Z</time>
      </trkpt>
      <trkpt lat="44.60972" lon="5.17401">
        <ele>627.1</ele>
        <time>2024-05-17T10:38:02Z</time>
      </trkpt>
      <trkpt lat="44.60973" lon="5.17402">
        <ele>627.2</ele>
        <time>2024-05-17T10:38:03Z</time>
      </trkpt>
      <trkpt lat="44.60976" lon="5.17404">
        <ele>627.4</ele>
        <time>2024-05-17T10:38:04Z</time>
      </trkpt>
      <trkpt lat="44.60976" lon="5.17405">
        <ele>627.5</ele>
        <time>2024-05-17T10:38:05Z</time>
      </trkpt>
      <trkpt lat="44.60978" lon="5.17406">
        <ele>627.7</ele>
        <time>2024-05-17T10:38:06Z</time>
      </trkpt>
      <trkpt lat="44.60981" lon="5.17408">
        <ele>628</ele>
        <time>2024-05-17T10:38:07Z</time>
      </trkpt>
      <trkpt lat="44.60982" lon="5.17409">
        <ele>628.1</ele>
        <time>2024-05-17T10:38:08Z</time>
      </trkpt>
      <trkpt lat="44.60985" lon="5.17411">
        <ele>628.4</ele>
        <time>2024-05-17T10:38:09Z</time>
      </trkpt>
      <trkpt lat="44.60986" lon="5.17411">
        <ele>628.4</ele>
        <time>2024-05-17T10:38:10Z</time>
      </trkpt>
      <trkpt lat="44.60989" lon="5.17413">
        <ele>628.7</ele>
        <time>2024-05-17T10:38:11Z</time>
      </trkpt>
      <trkpt lat="44.6099" lon="5.17414">
        <ele>628.8</ele>
        <time>2024-05-17T10:38:12Z</time>
      </trkpt>
      <trkpt lat="44.60992" lon="5.17415">
        <ele>629</ele>
        <time>2024-05-17T10:38:13Z</time>
      </trkpt>
      <trkpt lat="44.60993" lon="5.17417">
        <ele>629.2</ele>
        <time>2024-05-17T10:38:14Z</time>
      </trkpt>
      <trkpt lat="44.60995" lon="5.17418">
        <ele>629.4</ele>
        <time>2024-05-17T10:38:15Z</time>
      </trkpt>
      <trkpt lat="44.60998" lon="5.1742">
        <ele>629.6</ele>
        <time>2024-05-17T10:38:16Z</time>
      </trkpt>
      <trkpt lat="44.60999" lon="5.17421">
        <ele>629.7</ele>
        <time>2024-05-17T10:38:17Z</time>
      </trkpt>
      <trkpt lat="44.61002" lon="5.17423">
        <ele>630</ele>
        <time>2024-05-17T10:38:18Z</time>
      </trkpt>
      <trkpt lat="44.61003" lon="5.17424">
        <ele>630.2</ele>
        <time>2024-05-17T10:38:19Z</time>
      </trkpt>
      <trkpt lat="44.61006" lon="5.17427">
        <ele>630.5</ele>
        <time>2024-05-17T10:38:20Z</time>
      </trkpt>
      <trkpt lat="44.61007" lon="5.17427">
        <ele>630.6</ele>
        <time>2024-05-17T10:38:21Z</time>
      </trkpt>
      <trkpt lat="44.61009" lon="5.1743">
        <ele>630.9</ele>
        <time>2024-05-17T10:38:22Z</time>
      </trkpt>
      <trkpt lat="44.6101" lon="5.17431">
        <ele>631</ele>
        <time>2024-05-17T10:38:23Z</time>
      </trkpt>
      <trkpt lat="44.61012" lon="5.17433">
        <ele>631.2</ele>
        <time>2024-05-17T10:38:24Z</time>
      </trkpt>
      <trkpt lat="44.61013" lon="5.17434">
        <ele>631.3</ele>
        <time>2024-05-17T10:38:25Z</time>
      </trkpt>
      <trkpt lat="44.61015" lon="5.17435">
        <ele>631.5</ele>
        <time>2024-05-17T10:38:26Z</time>
      </trkpt>
      <trkpt lat="44.61018" lon="5.17437">
        <ele>631.8</ele>
        <time>2024-05-17T10:38:27Z</time>
      </trkpt>
      <trkpt lat="44.61019" lon="5.17438">
        <ele>632</ele>
        <time>2024-05-17T10:38:28Z</time>
      </trkpt>
      <trkpt lat="44.61021" lon="5.17439">
        <ele>632.1</ele>
        <time>2024-05-17T10:38:29Z</time>
      </trkpt>
      <trkpt lat="44.61023" lon="5.1744">
        <ele>632.4</ele>
        <time>2024-05-17T10:38:30Z</time>
      </trkpt>
      <trkpt lat="44.61024" lon="5.17441">
        <ele>632.5</ele>
        <time>2024-05-17T10:38:31Z</time>
      </trkpt>
      <trkpt lat="44.61027" lon="5.17443">
        <ele>632.8</ele>
        <time>2024-05-17T10:38:32Z</time>
      </trkpt>
      <trkpt lat="44.61027" lon="5.17443">
        <ele>632.9</ele>
        <time>2024-05-17T10:38:33Z</time>
      </trkpt>
      <trkpt lat="44.6103" lon="5.17445">
        <ele>633.2</ele>
        <time>2024-05-17T10:38:34Z</time>
      </trkpt>
      <trkpt lat="44.61031" lon="5.17446">
        <ele>633.3</ele>
        <time>2024-05-17T10:38:35Z</time>
      </trkpt>
      <trkpt lat="44.61033" lon="5.17448">
        <ele>633.5</ele>
        <time>2024-05-17T10:38:36Z</time>
      </trkpt>
      <trkpt lat="44.61035" lon="5.1745">
        <ele>633.8</ele>
        <time>2024-05-17T10:38:37Z</time>
      </trkpt>
      <trkpt lat="44.61036" lon="5.17451">
        <ele>633.9</ele>
        <time>2024-05-17T10:38:38Z</time>
      </trkpt>
      <trkpt lat="44.61038" lon="5.17453">
        <ele>634.2</ele>
        <time>2024-05-17T10:38:39Z</time>
      </trkpt>
      <trkpt lat="44.61039" lon="5.17454">
        <ele>634.3</ele>
        <time>2024-05-17T10:38:40Z</time>
      </trkpt>
      <trkpt lat="44.61041" lon="5.17455">
        <ele>634.5</ele>
        <time>2024-05-17T10:38:41Z</time>
      </trkpt>
      <trkpt lat="44.61044" lon="5.17457">
        <ele>634.8</ele>
        <time>2024-05-17T10:38:42Z</time>
      </trkpt>
      <trkpt lat="44.61044" lon="5.17458">
        <ele>634.9</ele>
        <time>2024-05-17T10:38:43Z</time>
      </trkpt>
      <trkpt lat="44.61046" lon="5.17459">
        <ele>635.1</ele>
        <time>2024-05-17T10:38:44Z</time>
      </trkpt>
      <trkpt lat="44.61049" lon="5.1746">
        <ele>635.4</ele>
        <time>2024-05-17T10:38:45Z</time>
      </trkpt>
      <trkpt lat="44.6105" lon="5.17461">
        <ele>635.5</ele>
        <time>2024-05-17T10:38:46Z</time>
      </trkpt>
      <trkpt lat="44.61053" lon="5.17463">
        <ele>635.8</ele>
        <time>2024-05-17T10:38:47Z</time>
      </trkpt>
      <trkpt lat="44.61054" lon="5.17464">
        <ele>635.9</ele>
        <time>2024-05-17T10:38:48Z</time>
      </trkpt>
      <trkpt lat="44.61057" lon="5.17465">
        <ele>636.2</ele>
        <time>2024-05-17T10:38:49Z</time>
      </trkpt>
      <trkpt lat="44.6106" lon="5.17467">
        <ele>636.5</ele>
        <time>2024-05-17T10:38:50Z</time>
      </trkpt>
      <trkpt lat="44.61061" lon="5.17467">
        <ele>636.6</ele>
        <time>2024-05-17T10:38:51Z</time>
      </trkpt>
      <trkpt lat="44.61065" lon="5.17468">
        <ele>636.9</ele>
        <time>2024-05-17T10:38:52Z</time>
      </trkpt>
      <trkpt lat="44.61066" lon="5.17468">
        <ele>637</ele>
        <time>2024-05-17T10:38:53Z</time>
      </trkpt>
      <trkpt lat="44.61069" lon="5.17468">
        <ele>637.3</ele>
        <time>2024-05-17T10:38:54Z</time>
      </trkpt>
      <trkpt lat="44.6107" lon="5.17469">
        <ele>637.4</ele>
        <time>2024-05-17T10:38:55Z</time>
      </trkpt>
      <trkpt lat="44.61072" lon="5.17469">
        <ele>637.6</ele>
        <time>2024-05-17T10:38:56Z</time>
      </trkpt>
      <trkpt lat="44.61075" lon="5.17468">
        <ele>637.9</ele>
        <time>2024-05-17T10:38:57Z</time>
      </trkpt>
      <trkpt lat="44.61076" lon="5.17468">
        <ele>638</ele>
        <time>2024-05-17T10:38:58Z</time>
      </trkpt>
      <trkpt lat="44.61079" lon="5.17468">
        <ele>638.2</ele>
        <time>2024-05-17T10:38:59Z</time>
      </trkpt>
      <trkpt lat="44.61082" lon="5.17468">
        <ele>638.5</ele>
        <time>2024-05-17T10:39:00Z</time>
      </trkpt>
      <trkpt lat="44.61083" lon="5.17468">
        <ele>638.6</ele>
        <time>2024-05-17T10:39:01Z</time>
      </trkpt>
      <trkpt lat="44.61085" lon="5.17467">
        <ele>638.7</ele>
        <time>2024-05-17T10:39:02Z</time>
      </trkpt>
      <trkpt lat="44.61088" lon="5.17467">
        <ele>639</ele>
        <time>2024-05-17T10:39:03Z</time>
      </trkpt>
      <trkpt lat="44.61089" lon="5.17466">
        <ele>639.1</ele>
        <time>2024-05-17T10:39:04Z</time>
      </trkpt>
      <trkpt lat="44.61093" lon="5.17466">
        <ele>639.4</ele>
        <time>2024-05-17T10:39:05Z</time>
      </trkpt>
      <trkpt lat="44.61094" lon="5.17466">
        <ele>639.5</ele>
        <time>2024-05-17T10:39:06Z</time>
      </trkpt>
      <trkpt lat="44.61096" lon="5.17466">
        <ele>639.7</ele>
        <time>2024-05-17T10:39:07Z</time>
      </trkpt>
      <trkpt lat="44.61098" lon="5.17466">
        <ele>640</ele>
        <time>2024-05-17T10:39:08Z</time>
      </trkpt>
      <trkpt lat="44.611" lon="5.17466">
        <ele>640.2</ele>
        <time>2024-05-17T10:39:09Z</time>
      </trkpt>
      <trkpt lat="44.61104" lon="5.17465">
        <ele>640.5</ele>
        <time>2024-05-17T10:39:10Z</time>
      </trkpt>
      <trkpt lat="44.61105" lon="5.17465">
        <ele>640.6</ele>
        <time>2024-05-17T10:39:11Z</time>
      </trkpt>
      <trkpt lat="44.61107" lon="5.17465">
        <ele>640.8</ele>
        <time>2024-05-17T10:39:12Z</time>
      </trkpt>
      <trkpt lat="44.6111" lon="5.17464">
        <ele>641.1</ele>
        <time>2024-05-17T10:39:13Z</time>
      </trkpt>
      <trkpt lat="44.61112" lon="5.17464">
        <ele>641.2</ele>
        <time>2024-05-17T10:39:14Z</time>
      </trkpt>
      <trkpt lat="44.61115" lon="5.17464">
        <ele>641.5</ele>
        <time>2024-05-17T10:39:15Z</time>
      </trkpt>
      <trkpt lat="44.61116" lon="5.17464">
        <ele>641.6</ele>
        <time>2024-05-17T10:39:16Z</time>
      </trkpt>
      <trkpt lat="44.61119" lon="5.17464">
        <ele>641.9</ele>
        <time>2024-05-17T10:39:17Z</time>
      </trkpt>
      <trkpt lat="44.6112" lon="5.17464">
        <ele>642</ele>
        <time>2024-05-17T10:39:18Z</time>
      </trkpt>
      <trkpt lat="44.61123" lon="5.17464">
        <ele>642.2</ele>
        <time>2024-05-17T10:39:19Z</time>
      </trkpt>
      <trkpt lat="44.61125" lon="5.17464">
        <ele>642.4</ele>
        <time>2024-05-17T10:39:20Z</time>
      </trkpt>
      <trkpt lat="44.61126" lon="5.17464">
        <ele>642.5</ele>
        <time>2024-05-17T10:39:21Z</time>
      </trkpt>
      <trkpt lat="44.61129" lon="5.17464">
        <ele>642.7</ele>
        <time>2024-05-17T10:39:22Z</time>
      </trkpt>
      <trkpt lat="44.61131" lon="5.17464">
        <ele>642.9</ele>
        <time>2024-05-17T10:39:23Z</time>
      </trkpt>
      <trkpt lat="44.61134" lon="5.17464">
        <ele>643.2</ele>
        <time>2024-05-17T10:39:24Z</time>
      </trkpt>
      <trkpt lat="44.61135" lon="5.17464">
        <ele>643.3</ele>
        <time>2024-05-17T10:39:25Z</time>
      </trkpt>
      <trkpt lat="44.61137" lon="5.17465">
        <ele>643.5</ele>
        <time>2024-05-17T10:39:26Z</time>
      </trkpt>
      <trkpt lat="44.61139" lon="5.17465">
        <ele>643.6</ele>
        <time>2024-05-17T10:39:27Z</time>
      </trkpt>
      <trkpt lat="44.61142" lon="5.17465">
        <ele>643.9</ele>
        <time>2024-05-17T10:39:28Z</time>
      </trkpt>
      <trkpt lat="44.61143" lon="5.17465">
        <ele>644</ele>
        <time>2024-05-17T10:39:29Z</time>
      </trkpt>
      <trkpt lat="44.61146" lon="5.17466">
        <ele>644.3</ele>
        <time>2024-05-17T10:39:30Z</time>
      </trkpt>
      <trkpt lat="44.61147" lon="5.17466">
        <ele>644.4</ele>
        <time>2024-05-17T10:39:31Z</time>
      </trkpt>
      <trkpt lat="44.6115" lon="5.17468">
        <ele>644.7</ele>
        <time>2024-05-17T10:39:32Z</time>
      </trkpt>
      <trkpt lat="44.61151" lon="5.17468">
        <ele>644.8</ele>
        <time>2024-05-17T10:39:33Z</time>
      </trkpt>
      <trkpt lat="44.61155" lon="5.17469">
        <ele>645.1</ele>
        <time>2024-05-17T10:39:34Z</time>
      </trkpt>
      <trkpt lat="44.61156" lon="5.1747">
        <ele>645.2</ele>
        <time>2024-05-17T10:39:35Z</time>
      </trkpt>
      <trkpt lat="44.61159" lon="5.17471">
        <ele>645.5</ele>
        <time>2024-05-17T10:39:36Z</time>
      </trkpt>
      <trkpt lat="44.6116" lon="5.17471">
        <ele>645.6</ele>
        <time>2024-05-17T10:39:37Z</time>
      </trkpt>
      <trkpt lat="44.61163" lon="5.17471">
        <ele>645.9</ele>
        <time>2024-05-17T10:39:38Z</time>
      </trkpt>
      <trkpt lat="44.61164" lon="5.17471">
        <ele>646</ele>
        <time>2024-05-17T10:39:39Z</time>
      </trkpt>
      <trkpt lat="44.61166" lon="5.17471">
        <ele>646.2</ele>
        <time>2024-05-17T10:39:40Z</time>
      </trkpt>
      <trkpt lat="44.61169" lon="5.17472">
        <ele>646.5</ele>
        <time>2024-05-17T10:39:41Z</time>
      </trkpt>
      <trkpt lat="44.6117" lon="5.17472">
        <ele>646.6</ele>
        <time>2024-05-17T10:39:42Z</time>
      </trkpt>
      <trkpt lat="44.61172" lon="5.17472">
        <ele>646.8</ele>
        <time>2024-05-17T10:39:43Z</time>
      </trkpt>
      <trkpt lat="44.61174" lon="5.17473">
        <ele>647</ele>
        <time>2024-05-17T10:39:44Z</time>
      </trkpt>
      <trkpt lat="44.61176" lon="5.17473">
        <ele>647.2</ele>
        <time>2024-05-17T10:39:45Z</time>
      </trkpt>
      <trkpt lat="44.61179" lon="5.17474">
        <ele>647.4</ele>
        <time>2024-05-17T10:39:46Z</time>
      </trkpt>
      <trkpt lat="44.61181" lon="5.17474">
        <ele>647.6</ele>
        <time>2024-05-17T10:39:47Z</time>
      </trkpt>
      <trkpt lat="44.61182" lon="5.17475">
        <ele>647.7</ele>
        <time>2024-05-17T10:39:48Z</time>
      </trkpt>
      <trkpt lat="44.61186" lon="5.17476">
        <ele>648</ele>
        <time>2024-05-17T10:39:49Z</time>
      </trkpt>
      <trkpt lat="44.61187" lon="5.17476">
        <ele>648.2</ele>
        <time>2024-05-17T10:39:50Z</time>
      </trkpt>
      <trkpt lat="44.6119" lon="5.17477">
        <ele>648.4</ele>
        <time>2024-05-17T10:39:51Z</time>
      </trkpt>
      <trkpt lat="44.61191" lon="5.17477">
        <ele>648.5</ele>
        <time>2024-05-17T10:39:52Z</time>
      </trkpt>
      <trkpt lat="44.61193" lon="5.17478">
        <ele>648.8</ele>
        <time>2024-05-17T10:39:53Z</time>
      </trkpt>
      <trkpt lat="44.61196" lon="5.17479">
        <ele>649.1</ele>
        <time>2024-05-17T10:39:54Z</time>
      </trkpt>
      <trkpt lat="44.61197" lon="5.17479">
        <ele>649.2</ele>
        <time>2024-05-17T10:39:55Z</time>
      </trkpt>
      <trkpt lat="44.612" lon="5.1748">
        <ele>649.4</ele>
        <time>2024-05-17T10:39:56Z</time>
      </trkpt>
      <trkpt lat="44.61203" lon="5.17481">
        <ele>649.7</ele>
        <time>2024-05-17T10:39:57Z</time>
      </trkpt>
      <trkpt lat="44.61204" lon="5.17481">
        <ele>649.9</ele>
        <time>2024-05-17T10:39:58Z</time>
      </trkpt>
      <trkpt lat="44.61207" lon="5.17482">
        <ele>650.2</ele>
        <time>2024-05-17T10:39:59Z</time>
      </trkpt>
      <trkpt lat="44.61208" lon="5.17483">
        <ele>650.3</ele>
        <time>2024-05-17T10:40:00Z</time>
      </trkpt>
      <trkpt lat="44.61211" lon="5.17484">
        <ele>650.7</ele>
        <time>2024-05-17T10:40:01Z</time>
      </trkpt>
      <trkpt lat="44.61212" lon="5.17484">
        <ele>650.8</ele>
        <time>2024-05-17T10:40:02Z</time>
      </trkpt>
      <trkpt lat="44.61214" lon="5.17485">
        <ele>651.1</ele>
        <time>2024-05-17T10:40:03Z</time>
      </trkpt>
      <trkpt lat="44.61218" lon="5.17486">
        <ele>651.4</ele>
        <time>2024-05-17T10:40:04Z</time>
      </trkpt>
      <trkpt lat="44.61219" lon="5.17486">
        <ele>651.5</ele>
        <time>2024-05-17T10:40:05Z</time>
      </trkpt>
      <trkpt lat="44.61221" lon="5.17488">
        <ele>651.9</ele>
        <time>2024-05-17T10:40:06Z</time>
      </trkpt>
      <trkpt lat="44.61222" lon="5.17488">
        <ele>652</ele>
        <time>2024-05-17T10:40:07Z</time>
      </trkpt>
      <trkpt lat="44.61224" lon="5.1749">
        <ele>652.2</ele>
        <time>2024-05-17T10:40:08Z</time>
      </trkpt>
      <trkpt lat="44.61225" lon="5.17494">
        <ele>652.6</ele>
        <time>2024-05-17T10:40:09Z</time>
      </trkpt>
      <trkpt lat="44.61225" lon="5.17495">
        <ele>652.7</ele>
        <time>2024-05-17T10:40:10Z</time>
      </trkpt>
      <trkpt lat="44.61226" lon="5.17498">
        <ele>653</ele>
        <time>2024-05-17T10:40:11Z</time>
      </trkpt>
      <trkpt lat="44.61224" lon="5.17501">
        <ele>653.2</ele>
        <time>2024-05-17T10:40:12Z</time>
      </trkpt>
      <trkpt lat="44.61224" lon="5.17502">
        <ele>653.3</ele>
        <time>2024-05-17T10:40:13Z</time>
      </trkpt>
      <trkpt lat="44.61221" lon="5.17503">
        <ele>653.6</ele>
        <time>2024-05-17T10:40:14Z</time>
      </trkpt>
      <trkpt lat="44.6122" lon="5.17504">
        <ele>653.7</ele>
        <time>2024-05-17T10:40:15Z</time>
      </trkpt>
      <trkpt lat="44.61218" lon="5.17503">
        <ele>653.9</ele>
        <time>2024-05-17T10:40:16Z</time>
      </trkpt>
      <trkpt lat="44.61215" lon="5.17504">
        <ele>654.2</ele>
        <time>2024-05-17T10:40:17Z</time>
      </trkpt>
      <trkpt lat="44.61214" lon="5.17504">
        <ele>654.2</ele>
        <time>2024-05-17T10:40:18Z</time>
      </trkpt>
      <trkpt lat="44.61211" lon="5.17505">
        <ele>654.5</ele>
        <time>2024-05-17T10:40:19Z</time>
      </trkpt>
      <trkpt lat="44.6121" lon="5.17505">
        <ele>654.6</ele>
        <time>2024-05-17T10:40:20Z</time>
      </trkpt>
      <trkpt lat="44.61206" lon="5.17505">
        <ele>654.8</ele>
        <time>2024-05-17T10:40:21Z</time>
      </trkpt>
      <trkpt lat="44.61205" lon="5.17505">
        <ele>654.9</ele>
        <time>2024-05-17T10:40:22Z</time>
      </trkpt>
      <trkpt lat="44.61203" lon="5.17505">
        <ele>655.1</ele>
        <time>2024-05-17T10:40:23Z</time>
      </trkpt>
      <trkpt lat="44.612" lon="5.17504">
        <ele>655.3</ele>
        <time>2024-05-17T10:40:24Z</time>
      </trkpt>
      <trkpt lat="44.61199" lon="5.17504">
        <ele>655.4</ele>
        <time>2024-05-17T10:40:25Z</time>
      </trkpt>
      <trkpt lat="44.61197" lon="5.17504">
        <ele>655.5</ele>
        <time>2024-05-17T10:40:26Z</time>
      </trkpt>
      <trkpt lat="44.61195" lon="5.17504">
        <ele>655.7</ele>
        <time>2024-05-17T10:40:27Z</time>
      </trkpt>
      <trkpt lat="44.61193" lon="5.17504">
        <ele>655.8</ele>
        <time>2024-05-17T10:40:28Z</time>
      </trkpt>
      <trkpt lat="44.61191" lon="5.17505">
        <ele>656</ele>
        <time>2024-05-17T10:40:29Z</time>
      </trkpt>
      <trkpt lat="44.61189" lon="5.17506">
        <ele>656.2</ele>
        <time>2024-05-17T10:40:30Z</time>
      </trkpt>
      <trkpt lat="44.61188" lon="5.17506">
        <ele>656.2</ele>
        <time>2024-05-17T10:40:31Z</time>
      </trkpt>
      <trkpt lat="44.61185" lon="5.17508">
        <ele>656.5</ele>
        <time>2024-05-17T10:40:32Z</time>
      </trkpt>
      <trkpt lat="44.61184" lon="5.17508">
        <ele>656.6</ele>
        <time>2024-05-17T10:40:33Z</time>
      </trkpt>
      <trkpt lat="44.61181" lon="5.1751">
        <ele>656.8</ele>
        <time>2024-05-17T10:40:34Z</time>
      </trkpt>
      <trkpt lat="44.6118" lon="5.1751">
        <ele>656.9</ele>
        <time>2024-05-17T10:40:35Z</time>
      </trkpt>
      <trkpt lat="44.61178" lon="5.17512">
        <ele>657.1</ele>
        <time>2024-05-17T10:40:36Z</time>
      </trkpt>
      <trkpt lat="44.61175" lon="5.17513">
        <ele>657.3</ele>
        <time>2024-05-17T10:40:37Z</time>
      </trkpt>
      <trkpt lat="44.61174" lon="5.17514">
        <ele>657.4</ele>
        <time>2024-05-17T10:40:38Z</time>
      </trkpt>
      <trkpt lat="44.61171" lon="5.17515">
        <ele>657.6</ele>
        <time>2024-05-17T10:40:39Z</time>
      </trkpt>
      <trkpt lat="44.61168" lon="5.17516">
        <ele>657.8</ele>
        <time>2024-05-17T10:40:40Z</time>
      </trkpt>
      <trkpt lat="44.61167" lon="5.17517">
        <ele>657.9</ele>
        <time>2024-05-17T10:40:41Z</time>
      </trkpt>
      <trkpt lat="44.61164" lon="5.17519">
        <ele>658.1</ele>
        <time>2024-05-17T10:40:42Z</time>
      </trkpt>
      <trkpt lat="44.61163" lon="5.17519">
        <ele>658.2</ele>
        <time>2024-05-17T10:40:43Z</time>
      </trkpt>
      <trkpt lat="44.61161" lon="5.17521">
        <ele>658.5</ele>
        <time>2024-05-17T10:40:44Z</time>
      </trkpt>
      <trkpt lat="44.6116" lon="5.17522">
        <ele>658.5</ele>
        <time>2024-05-17T10:40:45Z</time>
      </trkpt>
      <trkpt lat="44.61158" lon="5.17523">
        <ele>658.7</ele>
        <time>2024-05-17T10:40:46Z</time>
      </trkpt>
      <trkpt lat="44.61155" lon="5.17525">
        <ele>659</ele>
        <time>2024-05-17T10:40:47Z</time>
      </trkpt>
      <trkpt lat="44.61154" lon="5.17526">
        <ele>659.1</ele>
        <time>2024-05-17T10:40:48Z</time>
      </trkpt>
      <trkpt lat="44.61151" lon="5.17529">
        <ele>659.4</ele>
        <time>2024-05-17T10:40:49Z</time>
      </trkpt>
      <trkpt lat="44.6115" lon="5.17529">
        <ele>659.4</ele>
        <time>2024-05-17T10:40:50Z</time>
      </trkpt>
      <trkpt lat="44.61148" lon="5.17531">
        <ele>659.6</ele>
        <time>2024-05-17T10:40:51Z</time>
      </trkpt>
      <trkpt lat="44.61145" lon="5.17532">
        <ele>659.9</ele>
        <time>2024-05-17T10:40:52Z</time>
      </trkpt>
      <trkpt lat="44.61144" lon="5.17533">
        <ele>660</ele>
        <time>2024-05-17T10:40:53Z</time>
      </trkpt>
      <trkpt lat="44.61141" lon="5.17534">
        <ele>660.3</ele>
        <time>2024-05-17T10:40:54Z</time>
      </trkpt>
      <trkpt lat="44.6114" lon="5.17534">
        <ele>660.3</ele>
        <time>2024-05-17T10:40:55Z</time>
      </trkpt>
      <trkpt lat="44.61138" lon="5.17535">
        <ele>660.5</ele>
        <time>2024-05-17T10:40:56Z</time>
      </trkpt>
      <trkpt lat="44.61135" lon="5.17537">
        <ele>660.8</ele>
        <time>2024-05-17T10:40:57Z</time>
      </trkpt>
      <trkpt lat="44.61134" lon="5.17538">
        <ele>660.9</ele>
        <time>2024-05-17T10:40:58Z</time>
      </trkpt>
      <trkpt lat="44.61132" lon="5.17539">
        <ele>661.1</ele>
        <time>2024-05-17T10:40:59Z</time>
      </trkpt>
      <trkpt lat="44.61129" lon="5.17541">
        <ele>661.4</ele>
        <time>2024-05-17T10:41:00Z</time>
      </trkpt>
      <trkpt lat="44.61128" lon="5.17542">
        <ele>661.5</ele>
        <time>2024-05-17T10:41:01Z</time>
      </trkpt>
      <trkpt lat="44.61125" lon="5.17544">
        <ele>661.7</ele>
        <time>2024-05-17T10:41:02Z</time>
      </trkpt>
      <trkpt lat="44.61124" lon="5.17545">
        <ele>661.8</ele>
        <time>2024-05-17T10:41:03Z</time>
      </trkpt>
      <trkpt lat="44.61121" lon="5.17546">
        <ele>662.1</ele>
        <time>2024-05-17T10:41:04Z</time>
      </trkpt>
      <trkpt lat="44.6112" lon="5.17547">
        <ele>662.1</ele>
        <time>2024-05-17T10:41:05Z</time>
      </trkpt>
      <trkpt lat="44.61118" lon="5.17548">
        <ele>662.3</ele>
        <time>2024-05-17T10:41:06Z</time>
      </trkpt>
      <trkpt lat="44.61116" lon="5.17548">
        <ele>662.5</ele>
        <time>2024-05-17T10:41:07Z</time>
      </trkpt>
      <trkpt lat="44.61114" lon="5.17549">
        <ele>662.7</ele>
        <time>2024-05-17T10:41:08Z</time>
      </trkpt>
      <trkpt lat="44.61111" lon="5.1755">
        <ele>662.9</ele>
        <time>2024-05-17T10:41:09Z</time>
      </trkpt>
      <trkpt lat="44.6111" lon="5.17551">
        <ele>663</ele>
        <time>2024-05-17T10:41:10Z</time>
      </trkpt>
      <trkpt lat="44.61108" lon="5.17552">
        <ele>663.2</ele>
        <time>2024-05-17T10:41:11Z</time>
      </trkpt>
      <trkpt lat="44.61106" lon="5.17553">
        <ele>663.4</ele>
        <time>2024-05-17T10:41:12Z</time>
      </trkpt>
      <trkpt lat="44.61104" lon="5.17553">
        <ele>663.5</ele>
        <time>2024-05-17T10:41:13Z</time>
      </trkpt>
      <trkpt lat="44.61101" lon="5.17553">
        <ele>663.7</ele>
        <time>2024-05-17T10:41:14Z</time>
      </trkpt>
      <trkpt lat="44.61098" lon="5.17553">
        <ele>664</ele>
        <time>2024-05-17T10:41:15Z</time>
      </trkpt>
      <trkpt lat="44.61097" lon="5.17554">
        <ele>664.1</ele>
        <time>2024-05-17T10:41:16Z</time>
      </trkpt>
      <trkpt lat="44.61094" lon="5.17554">
        <ele>664.4</ele>
        <time>2024-05-17T10:41:17Z</time>
      </trkpt>
      <trkpt lat="44.61093" lon="5.17555">
        <ele>664.4</ele>
        <time>2024-05-17T10:41:18Z</time>
      </trkpt>
      <trkpt lat="44.61091" lon="5.17555">
        <ele>664.6</ele>
        <time>2024-05-17T10:41:19Z</time>
      </trkpt>
      <trkpt lat="44.61088" lon="5.17555">
        <ele>664.9</ele>
        <time>2024-05-17T10:41:20Z</time>
      </trkpt>
      <trkpt lat="44.61087" lon="5.17555">
        <ele>665</ele>
        <time>2024-05-17T10:41:21Z</time>
      </trkpt>
      <trkpt lat="44.61084" lon="5.17556">
        <ele>665.2</ele>
        <time>2024-05-17T10:41:22Z</time>
      </trkpt>
      <trkpt lat="44.61081" lon="5.17557">
        <ele>665.5</ele>
        <time>2024-05-17T10:41:23Z</time>
      </trkpt>
      <trkpt lat="44.6108" lon="5.17557">
        <ele>665.5</ele>
        <time>2024-05-17T10:41:24Z</time>
      </trkpt>
      <trkpt lat="44.61077" lon="5.17558">
        <ele>665.8</ele>
        <time>2024-05-17T10:41:25Z</time>
      </trkpt>
      <trkpt lat="44.61076" lon="5.17559">
        <ele>665.9</ele>
        <time>2024-05-17T10:41:26Z</time>
      </trkpt>
      <trkpt lat="44.61072" lon="5.17558">
        <ele>666.3</ele>
        <time>2024-05-17T10:41:27Z</time>
      </trkpt>
      <trkpt lat="44.61071" lon="5.17558">
        <ele>666.4</ele>
        <time>2024-05-17T10:41:28Z</time>
      </trkpt>
      <trkpt lat="44.61068" lon="5.17558">
        <ele>666.7</ele>
        <time>2024-05-17T10:41:29Z</time>
      </trkpt>
      <trkpt lat="44.61065" lon="5.17558">
        <ele>667</ele>
        <time>2024-05-17T10:41:30Z</time>
      </trkpt>
      <trkpt lat="44.61064" lon="5.17558">
        <ele>667.1</ele>
        <time>2024-05-17T10:41:31Z</time>
      </trkpt>
      <trkpt lat="44.61061" lon="5.17558">
        <ele>667.4</ele>
        <time>2024-05-17T10:41:32Z</time>
      </trkpt>
      <trkpt lat="44.6106" lon="5.17557">
        <ele>667.5</ele>
        <time>2024-05-17T10:41:33Z</time>
      </trkpt>
      <trkpt lat="44.61057" lon="5.17556">
        <ele>667.7</ele>
        <time>2024-05-17T10:41:34Z</time>
      </trkpt>
      <trkpt lat="44.61056" lon="5.17556">
        <ele>667.8</ele>
        <time>2024-05-17T10:41:35Z</time>
      </trkpt>
      <trkpt lat="44.61054" lon="5.17555">
        <ele>668</ele>
        <time>2024-05-17T10:41:36Z</time>
      </trkpt>
      <trkpt lat="44.61051" lon="5.17554">
        <ele>668.3</ele>
        <time>2024-05-17T10:41:37Z</time>
      </trkpt>
      <trkpt lat="44.6105" lon="5.17553">
        <ele>668.4</ele>
        <time>2024-05-17T10:41:38Z</time>
      </trkpt>
      <trkpt lat="44.61047" lon="5.17552">
        <ele>668.7</ele>
        <time>2024-05-17T10:41:39Z</time>
      </trkpt>
      <trkpt lat="44.61046" lon="5.17552">
        <ele>668.8</ele>
        <time>2024-05-17T10:41:40Z</time>
      </trkpt>
      <trkpt lat="44.61043" lon="5.17551">
        <ele>669.1</ele>
        <time>2024-05-17T10:41:41Z</time>
      </trkpt>
      <trkpt lat="44.61042" lon="5.17551">
        <ele>669.2</ele>
        <time>2024-05-17T10:41:42Z</time>
      </trkpt>
      <trkpt lat="44.61039" lon="5.17551">
        <ele>669.5</ele>
        <time>2024-05-17T10:41:43Z</time>
      </trkpt>
      <trkpt lat="44.61038" lon="5.17551">
        <ele>669.6</ele>
        <time>2024-05-17T10:41:44Z</time>
      </trkpt>
      <trkpt lat="44.61034" lon="5.1755">
        <ele>669.9</ele>
        <time>2024-05-17T10:41:45Z</time>
      </trkpt>
      <trkpt lat="44.61033" lon="5.17549">
        <ele>670</ele>
        <time>2024-05-17T10:41:46Z</time>
      </trkpt>
      <trkpt lat="44.6103" lon="5.17549">
        <ele>670.3</ele>
        <time>2024-05-17T10:41:47Z</time>
      </trkpt>
      <trkpt lat="44.61029" lon="5.1755">
        <ele>670.4</ele>
        <time>2024-05-17T10:41:48Z</time>
      </trkpt>
      <trkpt lat="44.61026" lon="5.1755">
        <ele>670.7</ele>
        <time>2024-05-17T10:41:49Z</time>
      </trkpt>
      <trkpt lat="44.61024" lon="5.1755">
        <ele>670.8</ele>
        <time>2024-05-17T10:41:50Z</time>
      </trkpt>
      <trkpt lat="44.61022" lon="5.1755">
        <ele>671</ele>
        <time>2024-05-17T10:41:51Z</time>
      </trkpt>
      <trkpt lat="44.61019" lon="5.17549">
        <ele>671.3</ele>
        <time>2024-05-17T10:41:52Z</time>
      </trkpt>
      <trkpt lat="44.61018" lon="5.17549">
        <ele>671.4</ele>
        <time>2024-05-17T10:41:53Z</time>
      </trkpt>
      <trkpt lat="44.61016" lon="5.17549">
        <ele>671.6</ele>
        <time>2024-05-17T10:41:54Z</time>
      </trkpt>
      <trkpt lat="44.61013" lon="5.17549">
        <ele>671.8</ele>
        <time>2024-05-17T10:41:55Z</time>
      </trkpt>
      <trkpt lat="44.61011" lon="5.17548">
        <ele>672</ele>
        <time>2024-05-17T10:41:56Z</time>
      </trkpt>
      <trkpt lat="44.61009" lon="5.17548">
        <ele>672.2</ele>
        <time>2024-05-17T10:41:57Z</time>
      </trkpt>
      <trkpt lat="44.61006" lon="5.17548">
        <ele>672.5</ele>
        <time>2024-05-17T10:41:58Z</time>
      </trkpt>
      <trkpt lat="44.61004" lon="5.17548">
        <ele>672.6</ele>
        <time>2024-05-17T10:41:59Z</time>
      </trkpt>
      <trkpt lat="44.61001" lon="5.17548">
        <ele>672.9</ele>
        <time>2024-05-17T10:42:00Z</time>
      </trkpt>
      <trkpt lat="44.61" lon="5.17548">
        <ele>673</ele>
        <time>2024-05-17T10:42:01Z</time>
      </trkpt>
      <trkpt lat="44.60998" lon="5.17549">
        <ele>673.2</ele>
        <time>2024-05-17T10:42:02Z</time>
      </trkpt>
      <trkpt lat="44.60995" lon="5.17549">
        <ele>673.5</ele>
        <time>2024-05-17T10:42:03Z</time>
      </trkpt>
      <trkpt lat="44.60994" lon="5.17549">
        <ele>673.6</ele>
        <time>2024-05-17T10:42:04Z</time>
      </trkpt>
      <trkpt lat="44.60992" lon="5.17549">
        <ele>673.7</ele>
        <time>2024-05-17T10:42:05Z</time>
      </trkpt>
      <trkpt lat="44.6099" lon="5.1755">
        <ele>673.9</ele>
        <time>2024-05-17T10:42:06Z</time>
      </trkpt>
      <trkpt lat="44.60988" lon="5.1755">
        <ele>674.1</ele>
        <time>2024-05-17T10:42:07Z</time>
      </trkpt>
      <trkpt lat="44.60984" lon="5.17551">
        <ele>674.4</ele>
        <time>2024-05-17T10:42:08Z</time>
      </trkpt>
      <trkpt lat="44.60983" lon="5.17551">
        <ele>674.5</ele>
        <time>2024-05-17T10:42:09Z</time>
      </trkpt>
      <trkpt lat="44.6098" lon="5.17551">
        <ele>674.8</ele>
        <time>2024-05-17T10:42:10Z</time>
      </trkpt>
      <trkpt lat="44.60979" lon="5.17551">
        <ele>674.9</ele>
        <time>2024-05-17T10:42:11Z</time>
      </trkpt>
      <trkpt lat="44.60977" lon="5.17551">
        <ele>675.1</ele>
        <time>2024-05-17T10:42:12Z</time>
      </trkpt>
      <trkpt lat="44.60974" lon="5.17552">
        <ele>675.4</ele>
        <time>2024-05-17T10:42:13Z</time>
      </trkpt>
      <trkpt lat="44.60973" lon="5.17552">
        <ele>675.5</ele>
        <time>2024-05-17T10:42:14Z</time>
      </trkpt>
      <trkpt lat="44.6097" lon="5.17552">
        <ele>675.7</ele>
        <time>2024-05-17T10:42:15Z</time>
      </trkpt>
      <trkpt lat="44.60969" lon="5.17552">
        <ele>675.8</ele>
        <time>2024-05-17T10:42:16Z</time>
      </trkpt>
      <trkpt lat="44.60967" lon="5.17552">
        <ele>676</ele>
        <time>2024-05-17T10:42:17Z</time>
      </trkpt>
      <trkpt lat="44.60963" lon="5.17553">
        <ele>676.3</ele>
        <time>2024-05-17T10:42:18Z</time>
      </trkpt>
      <trkpt lat="44.60962" lon="5.17553">
        <ele>676.4</ele>
        <time>2024-05-17T10:42:19Z</time>
      </trkpt>
      <trkpt lat="44.6096" lon="5.17553">
        <ele>676.6</ele>
        <time>2024-05-17T10:42:20Z</time>
      </trkpt>
      <trkpt lat="44.60957" lon="5.17553">
        <ele>676.9</ele>
        <time>2024-05-17T10:42:21Z</time>
      </trkpt>
      <trkpt lat="44.60956" lon="5.17553">
        <ele>677</ele>
        <time>2024-05-17T10:42:22Z</time>
      </trkpt>
      <trkpt lat="44.60952" lon="5.17553">
        <ele>677.2</ele>
        <time>2024-05-17T10:42:23Z</time>
      </trkpt>
      <trkpt lat="44.60951" lon="5.17554">
        <ele>677.3</ele>
        <time>2024-05-17T10:42:24Z</time>
      </trkpt>
      <trkpt lat="44.60949" lon="5.17555">
        <ele>677.5</ele>
        <time>2024-05-17T10:42:25Z</time>
      </trkpt>
      <trkpt lat="44.60946" lon="5.17557">
        <ele>677.8</ele>
        <time>2024-05-17T10:42:26Z</time>
      </trkpt>
      <trkpt lat="44.60946" lon="5.17558">
        <ele>677.9</ele>
        <time>2024-05-17T10:42:27Z</time>
      </trkpt>
      <trkpt lat="44.60943" lon="5.1756">
        <ele>678.2</ele>
        <time>2024-05-17T10:42:28Z</time>
      </trkpt>
      <trkpt lat="44.60942" lon="5.17561">
        <ele>678.3</ele>
        <time>2024-05-17T10:42:29Z</time>
      </trkpt>
      <trkpt lat="44.60939" lon="5.17563">
        <ele>678.5</ele>
        <time>2024-05-17T10:42:30Z</time>
      </trkpt>
      <trkpt lat="44.60938" lon="5.17563">
        <ele>678.6</ele>
        <time>2024-05-17T10:42:31Z</time>
      </trkpt>
      <trkpt lat="44.60936" lon="5.17564">
        <ele>678.8</ele>
        <time>2024-05-17T10:42:32Z</time>
      </trkpt>
      <trkpt lat="44.60934" lon="5.17566">
        <ele>679</ele>
        <time>2024-05-17T10:42:33Z</time>
      </trkpt>
      <trkpt lat="44.60932" lon="5.17567">
        <ele>679.2</ele>
        <time>2024-05-17T10:42:34Z</time>
      </trkpt>
      <trkpt lat="44.6093" lon="5.17568">
        <ele>679.4</ele>
        <time>2024-05-17T10:42:35Z</time>
      </trkpt>
      <trkpt lat="44.60928" lon="5.1757">
        <ele>679.6</ele>
        <time>2024-05-17T10:42:36Z</time>
      </trkpt>
      <trkpt lat="44.60926" lon="5.17572">
        <ele>679.8</ele>
        <time>2024-05-17T10:42:37Z</time>
      </trkpt>
      <trkpt lat="44.60924" lon="5.17574">
        <ele>680.1</ele>
        <time>2024-05-17T10:42:38Z</time>
      </trkpt>
      <trkpt lat="44.60923" lon="5.17576">
        <ele>680.3</ele>
        <time>2024-05-17T10:42:39Z</time>
      </trkpt>
      <trkpt lat="44.6092" lon="5.17579">
        <ele>680.6</ele>
        <time>2024-05-17T10:42:40Z</time>
      </trkpt>
      <trkpt lat="44.60919" lon="5.1758">
        <ele>680.7</ele>
        <time>2024-05-17T10:42:41Z</time>
      </trkpt>
      <trkpt lat="44.60917" lon="5.17583">
        <ele>681.1</ele>
        <time>2024-05-17T10:42:42Z</time>
      </trkpt>
      <trkpt lat="44.60916" lon="5.17584">
        <ele>681.2</ele>
        <time>2024-05-17T10:42:43Z</time>
      </trkpt>
      <trkpt lat="44.60915" lon="5.17587">
        <ele>681.4</ele>
        <time>2024-05-17T10:42:44Z</time>
      </trkpt>
      <trkpt lat="44.60913" lon="5.1759">
        <ele>681.8</ele>
        <time>2024-05-17T10:42:45Z</time>
      </trkpt>
      <trkpt lat="44.60912" lon="5.17591">
        <ele>681.9</ele>
        <time>2024-05-17T10:42:46Z</time>
      </trkpt>
      <trkpt lat="44.60911" lon="5.17594">
        <ele>682.2</ele>
        <time>2024-05-17T10:42:47Z</time>
      </trkpt>
      <trkpt lat="44.60911" lon="5.17598">
        <ele>682.6</ele>
        <time>2024-05-17T10:42:48Z</time>
      </trkpt>
      <trkpt lat="44.60911" lon="5.176">
        <ele>682.7</ele>
        <time>2024-05-17T10:42:49Z</time>
      </trkpt>
      <trkpt lat="44.60911" lon="5.17602">
        <ele>682.9</ele>
        <time>2024-05-17T10:42:50Z</time>
      </trkpt>
      <trkpt lat="44.60911" lon="5.17604">
        <ele>683.1</ele>
        <time>2024-05-17T10:42:51Z</time>
      </trkpt>
      <trkpt lat="44.60911" lon="5.17607">
        <ele>683.3</ele>
        <time>2024-05-17T10:42:52Z</time>
      </trkpt>
      <trkpt lat="44.60911" lon="5.17609">
        <ele>683.4</ele>
        <time>2024-05-17T10:42:53Z</time>
      </trkpt>
      <trkpt lat="44.60912" lon="5.17611">
        <ele>683.6</ele>
        <time>2024-05-17T10:42:54Z</time>
      </trkpt>
      <trkpt lat="44.60914" lon="5.17612">
        <ele>683.8</ele>
        <time>2024-05-17T10:42:55Z</time>
      </trkpt>
      <trkpt lat="44.60915" lon="5.17614">
        <ele>683.9</ele>
        <time>2024-05-17T10:42:56Z</time>
      </trkpt>
      <trkpt lat="44.60917" lon="5.17615">
        <ele>684.1</ele>
        <time>2024-05-17T10:42:57Z</time>
      </trkpt>
      <trkpt lat="44.60918" lon="5.17616">
        <ele>684.3</ele>
        <time>2024-05-17T10:42:58Z</time>
      </trkpt>
      <trkpt lat="44.60921" lon="5.17616">
        <ele>684.5</ele>
        <time>2024-05-17T10:42:59Z</time>
      </trkpt>
      <trkpt lat="44.60922" lon="5.17617">
        <ele>684.6</ele>
        <time>2024-05-17T10:43:00Z</time>
      </trkpt>
      <trkpt lat="44.60924" lon="5.17617">
        <ele>684.8</ele>
        <time>2024-05-17T10:43:01Z</time>
      </trkpt>
      <trkpt lat="44.60925" lon="5.17617">
        <ele>684.9</ele>
        <time>2024-05-17T10:43:02Z</time>
      </trkpt>
      <trkpt lat="44.60929" lon="5.17616">
        <ele>685.2</ele>
        <time>2024-05-17T10:43:03Z</time>
      </trkpt>
      <trkpt lat="44.6093" lon="5.17616">
        <ele>685.3</ele>
        <time>2024-05-17T10:43:04Z</time>
      </trkpt>
      <trkpt lat="44.60932" lon="5.17615">
        <ele>685.4</ele>
        <time>2024-05-17T10:43:05Z</time>
      </trkpt>
      <trkpt lat="44.60935" lon="5.17613">
        <ele>685.7</ele>
        <time>2024-05-17T10:43:06Z</time>
      </trkpt>
      <trkpt lat="44.60936" lon="5.17612">
        <ele>685.8</ele>
        <time>2024-05-17T10:43:07Z</time>
      </trkpt>
      <trkpt lat="44.60939" lon="5.1761">
        <ele>686</ele>
        <time>2024-05-17T10:43:08Z</time>
      </trkpt>
      <trkpt lat="44.6094" lon="5.1761">
        <ele>686.1</ele>
        <time>2024-05-17T10:43:09Z</time>
      </trkpt>
      <trkpt lat="44.60943" lon="5.17607">
        <ele>686.4</ele>
        <time>2024-05-17T10:43:10Z</time>
      </trkpt>
      <trkpt lat="44.60944" lon="5.17607">
        <ele>686.4</ele>
        <time>2024-05-17T10:43:11Z</time>
      </trkpt>
      <trkpt lat="44.60947" lon="5.17606">
        <ele>686.7</ele>
        <time>2024-05-17T10:43:12Z</time>
      </trkpt>
      <trkpt lat="44.60948" lon="5.17605">
        <ele>686.7</ele>
        <time>2024-05-17T10:43:13Z</time>
      </trkpt>
      <trkpt lat="44.6095" lon="5.17605">
        <ele>686.9</ele>
        <time>2024-05-17T10:43:14Z</time>
      </trkpt>
      <trkpt lat="44.60952" lon="5.17606">
        <ele>687</ele>
        <time>2024-05-17T10:43:15Z</time>
      </trkpt>
      <trkpt lat="44.60954" lon="5.17606">
        <ele>687.2</ele>
        <time>2024-05-17T10:43:16Z</time>
      </trkpt>
      <trkpt lat="44.60956" lon="5.17607">
        <ele>687.4</ele>
        <time>2024-05-17T10:43:17Z</time>
      </trkpt>
      <trkpt lat="44.60958" lon="5.17608">
        <ele>687.5</ele>
        <time>2024-05-17T10:43:18Z</time>
      </trkpt>
      <trkpt lat="44.6096" lon="5.17608">
        <ele>687.7</ele>
        <time>2024-05-17T10:43:19Z</time>
      </trkpt>
      <trkpt lat="44.60963" lon="5.17609">
        <ele>687.9</ele>
        <time>2024-05-17T10:43:20Z</time>
      </trkpt>
      <trkpt lat="44.60964" lon="5.1761">
        <ele>688</ele>
        <time>2024-05-17T10:43:21Z</time>
      </trkpt>
      <trkpt lat="44.60967" lon="5.1761">
        <ele>688.2</ele>
        <time>2024-05-17T10:43:22Z</time>
      </trkpt>
      <trkpt lat="44.60968" lon="5.17611">
        <ele>688.3</ele>
        <time>2024-05-17T10:43:23Z</time>
      </trkpt>
      <trkpt lat="44.60971" lon="5.17611">
        <ele>688.6</ele>
        <time>2024-05-17T10:43:24Z</time>
      </trkpt>
      <trkpt lat="44.60972" lon="5.17612">
        <ele>688.7</ele>
        <time>2024-05-17T10:43:25Z</time>
      </trkpt>
      <trkpt lat="44.60974" lon="5.17612">
        <ele>688.8</ele>
        <time>2024-05-17T10:43:26Z</time>
      </trkpt>
      <trkpt lat="44.60976" lon="5.17613">
        <ele>689</ele>
        <time>2024-05-17T10:43:27Z</time>
      </trkpt>
      <trkpt lat="44.60979" lon="5.17614">
        <ele>689.2</ele>
        <time>2024-05-17T10:43:28Z</time>
      </trkpt>
      <trkpt lat="44.6098" lon="5.17614">
        <ele>689.3</ele>
        <time>2024-05-17T10:43:29Z</time>
      </trkpt>
      <trkpt lat="44.60981" lon="5.17614">
        <ele>689.4</ele>
        <time>2024-05-17T10:43:30Z</time>
      </trkpt>
      <trkpt lat="44.60983" lon="5.17615">
        <ele>689.5</ele>
        <time>2024-05-17T10:43:31Z</time>
      </trkpt>
      <trkpt lat="44.60986" lon="5.17615">
        <ele>689.8</ele>
        <time>2024-05-17T10:43:32Z</time>
      </trkpt>
      <trkpt lat="44.60987" lon="5.17616">
        <ele>689.9</ele>
        <time>2024-05-17T10:43:33Z</time>
      </trkpt>
      <trkpt lat="44.6099" lon="5.17617">
        <ele>690.2</ele>
        <time>2024-05-17T10:43:34Z</time>
      </trkpt>
      <trkpt lat="44.60991" lon="5.17617">
        <ele>690.2</ele>
        <time>2024-05-17T10:43:35Z</time>
      </trkpt>
      <trkpt lat="44.60994" lon="5.17618">
        <ele>690.5</ele>
        <time>2024-05-17T10:43:36Z</time>
      </trkpt>
      <trkpt lat="44.60995" lon="5.17618">
        <ele>690.6</ele>
        <time>2024-05-17T10:43:37Z</time>
      </trkpt>
      <trkpt lat="44.60997" lon="5.17618">
        <ele>690.8</ele>
        <time>2024-05-17T10:43:38Z</time>
      </trkpt>
      <trkpt lat="44.61" lon="5.17619">
        <ele>691</ele>
        <time>2024-05-17T10:43:39Z</time>
      </trkpt>
      <trkpt lat="44.61001" lon="5.17619">
        <ele>691.1</ele>
        <time>2024-05-17T10:43:40Z</time>
      </trkpt>
      <trkpt lat="44.61004" lon="5.17619">
        <ele>691.3</ele>
        <time>2024-05-17T10:43:41Z</time>
      </trkpt>
      <trkpt lat="44.61005" lon="5.17619">
        <ele>691.4</ele>
        <time>2024-05-17T10:43:42Z</time>
      </trkpt>
      <trkpt lat="44.61007" lon="5.17619">
        <ele>691.6</ele>
        <time>2024-05-17T10:43:43Z</time>
      </trkpt>
      <trkpt lat="44.61009" lon="5.1762">
        <ele>691.8</ele>
        <time>2024-05-17T10:43:44Z</time>
      </trkpt>
      <trkpt lat="44.61012" lon="5.1762">
        <ele>692</ele>
        <time>2024-05-17T10:43:45Z</time>
      </trkpt>
      <trkpt lat="44.61014" lon="5.17621">
        <ele>692.1</ele>
        <time>2024-05-17T10:43:46Z</time>
      </trkpt>
      <trkpt lat="44.61016" lon="5.17621">
        <ele>692.3</ele>
        <time>2024-05-17T10:43:47Z</time>
      </trkpt>
      <trkpt lat="44.61018" lon="5.17621">
        <ele>692.5</ele>
        <time>2024-05-17T10:43:48Z</time>
      </trkpt>
      <trkpt lat="44.61021" lon="5.17622">
        <ele>692.8</ele>
        <time>2024-05-17T10:43:49Z</time>
      </trkpt>
      <trkpt lat="44.61022" lon="5.17622">
        <ele>692.8</ele>
        <time>2024-05-17T10:43:50Z</time>
      </trkpt>
      <trkpt lat="44.61025" lon="5.17623">
        <ele>693.1</ele>
        <time>2024-05-17T10:43:51Z</time>
      </trkpt>
      <trkpt lat="44.61026" lon="5.17623">
        <ele>693.2</ele>
        <time>2024-05-17T10:43:52Z</time>
      </trkpt>
      <trkpt lat="44.6103" lon="5.17625">
        <ele>693.6</ele>
        <time>2024-05-17T10:43:53Z</time>
      </trkpt>
      <trkpt lat="44.61031" lon="5.17625">
        <ele>693.7</ele>
        <time>2024-05-17T10:43:54Z</time>
      </trkpt>
      <trkpt lat="44.61033" lon="5.17626">
        <ele>693.9</ele>
        <time>2024-05-17T10:43:55Z</time>
      </trkpt>
      <trkpt lat="44.61034" lon="5.17627">
        <ele>694</ele>
        <time>2024-05-17T10:43:56Z</time>
      </trkpt>
      <trkpt lat="44.61036" lon="5.17628">
        <ele>694.2</ele>
        <time>2024-05-17T10:43:57Z</time>
      </trkpt>
      <trkpt lat="44.61038" lon="5.17628">
        <ele>694.4</ele>
        <time>2024-05-17T10:43:58Z</time>
      </trkpt>
      <trkpt lat="44.6104" lon="5.17629">
        <ele>694.6</ele>
        <time>2024-05-17T10:43:59Z</time>
      </trkpt>
      <trkpt lat="44.61042" lon="5.1763">
        <ele>694.8</ele>
        <time>2024-05-17T10:44:00Z</time>
      </trkpt>
      <trkpt lat="44.61044" lon="5.17631">
        <ele>695</ele>
        <time>2024-05-17T10:44:01Z</time>
      </trkpt>
      <trkpt lat="44.61047" lon="5.17632">
        <ele>695.2</ele>
        <time>2024-05-17T10:44:02Z</time>
      </trkpt>
      <trkpt lat="44.61048" lon="5.17633">
        <ele>695.3</ele>
        <time>2024-05-17T10:44:03Z</time>
      </trkpt>
      <trkpt lat="44.6105" lon="5.17635">
        <ele>695.6</ele>
        <time>2024-05-17T10:44:04Z</time>
      </trkpt>
      <trkpt lat="44.61051" lon="5.17635">
        <ele>695.7</ele>
        <time>2024-05-17T10:44:05Z</time>
      </trkpt>
      <trkpt lat="44.61054" lon="5.17636">
        <ele>695.9</ele>
        <time>2024-05-17T10:44:06Z</time>
      </trkpt>
      <trkpt lat="44.61055" lon="5.17637">
        <ele>696</ele>
        <time>2024-05-17T10:44:07Z</time>
      </trkpt>
      <trkpt lat="44.61057" lon="5.17638">
        <ele>696.3</ele>
        <time>2024-05-17T10:44:08Z</time>
      </trkpt>
      <trkpt lat="44.61058" lon="5.17639">
        <ele>696.4</ele>
        <time>2024-05-17T10:44:09Z</time>
      </trkpt>
      <trkpt lat="44.6106" lon="5.1764">
        <ele>696.6</ele>
        <time>2024-05-17T10:44:10Z</time>
      </trkpt>
      <trkpt lat="44.61063" lon="5.17641">
        <ele>696.9</ele>
        <time>2024-05-17T10:44:11Z</time>
      </trkpt>
      <trkpt lat="44.61064" lon="5.17642">
        <ele>697</ele>
        <time>2024-05-17T10:44:12Z</time>
      </trkpt>
      <trkpt lat="44.61066" lon="5.17642">
        <ele>697.2</ele>
        <time>2024-05-17T10:44:13Z</time>
      </trkpt>
      <trkpt lat="44.61069" lon="5.17643">
        <ele>697.5</ele>
        <time>2024-05-17T10:44:14Z</time>
      </trkpt>
      <trkpt lat="44.6107" lon="5.17644">
        <ele>697.6</ele>
        <time>2024-05-17T10:44:15Z</time>
      </trkpt>
      <trkpt lat="44.61073" lon="5.17644">
        <ele>697.8</ele>
        <time>2024-05-17T10:44:16Z</time>
      </trkpt>
      <trkpt lat="44.61075" lon="5.17645">
        <ele>698</ele>
        <time>2024-05-17T10:44:17Z</time>
      </trkpt>
      <trkpt lat="44.61078" lon="5.17647">
        <ele>698.2</ele>
        <time>2024-05-17T10:44:18Z</time>
      </trkpt>
      <trkpt lat="44.61079" lon="5.17647">
        <ele>698.4</ele>
        <time>2024-05-17T10:44:19Z</time>
      </trkpt>
      <trkpt lat="44.61081" lon="5.17648">
        <ele>698.5</ele>
        <time>2024-05-17T10:44:20Z</time>
      </trkpt>
      <trkpt lat="44.61084" lon="5.17649">
        <ele>698.8</ele>
        <time>2024-05-17T10:44:21Z</time>
      </trkpt>
      <trkpt lat="44.61086" lon="5.1765">
        <ele>698.9</ele>
        <time>2024-05-17T10:44:22Z</time>
      </trkpt>
      <trkpt lat="44.61089" lon="5.1765">
        <ele>699.2</ele>
        <time>2024-05-17T10:44:23Z</time>
      </trkpt>
      <trkpt lat="44.6109" lon="5.1765">
        <ele>699.3</ele>
        <time>2024-05-17T10:44:24Z</time>
      </trkpt>
      <trkpt lat="44.61094" lon="5.1765">
        <ele>699.5</ele>
        <time>2024-05-17T10:44:25Z</time>
      </trkpt>
      <trkpt lat="44.61095" lon="5.1765">
        <ele>699.6</ele>
        <time>2024-05-17T10:44:26Z</time>
      </trkpt>
      <trkpt lat="44.61098" lon="5.17649">
        <ele>699.9</ele>
        <time>2024-05-17T10:44:27Z</time>
      </trkpt>
      <trkpt lat="44.611" lon="5.17649">
        <ele>700</ele>
        <time>2024-05-17T10:44:28Z</time>
      </trkpt>
      <trkpt lat="44.61103" lon="5.17648">
        <ele>700.2</ele>
        <time>2024-05-17T10:44:29Z</time>
      </trkpt>
      <trkpt lat="44.61104" lon="5.17648">
        <ele>700.3</ele>
        <time>2024-05-17T10:44:30Z</time>
      </trkpt>
      <trkpt lat="44.61107" lon="5.17648">
        <ele>700.5</ele>
        <time>2024-05-17T10:44:31Z</time>
      </trkpt>
      <trkpt lat="44.61111" lon="5.17648">
        <ele>700.8</ele>
        <time>2024-05-17T10:44:32Z</time>
      </trkpt>
      <trkpt lat="44.61113" lon="5.17648">
        <ele>700.9</ele>
        <time>2024-05-17T10:44:33Z</time>
      </trkpt>
      <trkpt lat="44.61116" lon="5.17648">
        <ele>701.1</ele>
        <time>2024-05-17T10:44:34Z</time>
      </trkpt>
      <trkpt lat="44.61117" lon="5.17648">
        <ele>701.2</ele>
        <time>2024-05-17T10:44:35Z</time>
      </trkpt>
      <trkpt lat="44.6112" lon="5.17649">
        <ele>701.4</ele>
        <time>2024-05-17T10:44:36Z</time>
      </trkpt>
      <trkpt lat="44.61123" lon="5.1765">
        <ele>701.7</ele>
        <time>2024-05-17T10:44:37Z</time>
      </trkpt>
      <trkpt lat="44.61124" lon="5.17651">
        <ele>701.8</ele>
        <time>2024-05-17T10:44:38Z</time>
      </trkpt>
      <trkpt lat="44.61128" lon="5.17652">
        <ele>702</ele>
        <time>2024-05-17T10:44:39Z</time>
      </trkpt>
      <trkpt lat="44.61129" lon="5.17653">
        <ele>702.1</ele>
        <time>2024-05-17T10:44:40Z</time>
      </trkpt>
      <trkpt lat="44.61131" lon="5.17654">
        <ele>702.3</ele>
        <time>2024-05-17T10:44:41Z</time>
      </trkpt>
      <trkpt lat="44.61135" lon="5.17655">
        <ele>702.6</ele>
        <time>2024-05-17T10:44:42Z</time>
      </trkpt>
      <trkpt lat="44.61136" lon="5.17656">
        <ele>702.7</ele>
        <time>2024-05-17T10:44:43Z</time>
      </trkpt>
      <trkpt lat="44.61139" lon="5.17657">
        <ele>703</ele>
        <time>2024-05-17T10:44:44Z</time>
      </trkpt>
      <trkpt lat="44.6114" lon="5.17658">
        <ele>703.1</ele>
        <time>2024-05-17T10:44:45Z</time>
      </trkpt>
      <trkpt lat="44.61142" lon="5.17659">
        <ele>703.3</ele>
        <time>2024-05-17T10:44:46Z</time>
      </trkpt>
      <trkpt lat="44.61144" lon="5.1766">
        <ele>703.5</ele>
        <time>2024-05-17T10:44:47Z</time>
      </trkpt>
      <trkpt lat="44.61147" lon="5.17661">
        <ele>703.7</ele>
        <time>2024-05-17T10:44:48Z</time>
      </trkpt>
      <trkpt lat="44.6115" lon="5.17664">
        <ele>704.1</ele>
        <time>2024-05-17T10:44:49Z</time>
      </trkpt>
      <trkpt lat="44.61151" lon="5.17665">
        <ele>704.2</ele>
        <time>2024-05-17T10:44:50Z</time>
      </trkpt>
      <trkpt lat="44.61154" lon="5.17668">
        <ele>704.6</ele>
        <time>2024-05-17T10:44:51Z</time>
      </trkpt>
      <trkpt lat="44.61155" lon="5.17669">
        <ele>704.7</ele>
        <time>2024-05-17T10:44:52Z</time>
      </trkpt>
      <trkpt lat="44.61157" lon="5.17672">
        <ele>704.9</ele>
        <time>2024-05-17T10:44:53Z</time>
      </trkpt>
      <trkpt lat="44.61159" lon="5.17675">
        <ele>705.2</ele>
        <time>2024-05-17T10:44:54Z</time>
      </trkpt>
      <trkpt lat="44.61163" lon="5.17678">
        <ele>705.7</ele>
        <time>2024-05-17T10:44:55Z</time>
      </trkpt>
      <trkpt lat="44.61164" lon="5.17679">
        <ele>705.8</ele>
        <time>2024-05-17T10:44:56Z</time>
      </trkpt>
      <trkpt lat="44.61167" lon="5.17681">
        <ele>706.1</ele>
        <time>2024-05-17T10:44:57Z</time>
      </trkpt>
      <trkpt lat="44.6117" lon="5.17683">
        <ele>706.5</ele>
        <time>2024-05-17T10:44:58Z</time>
      </trkpt>
      <trkpt lat="44.61171" lon="5.17683">
        <ele>706.6</ele>
        <time>2024-05-17T10:44:59Z</time>
      </trkpt>
      <trkpt lat="44.61174" lon="5.17686">
        <ele>706.9</ele>
        <time>2024-05-17T10:45:00Z</time>
      </trkpt>
      <trkpt lat="44.61175" lon="5.17687">
        <ele>707</ele>
        <time>2024-05-17T10:45:01Z</time>
      </trkpt>
      <trkpt lat="44.61178" lon="5.17688">
        <ele>707.3</ele>
        <time>2024-05-17T10:45:02Z</time>
      </trkpt>
      <trkpt lat="44.61179" lon="5.17689">
        <ele>707.4</ele>
        <time>2024-05-17T10:45:03Z</time>
      </trkpt>
      <trkpt lat="44.6118" lon="5.17689">
        <ele>707.6</ele>
        <time>2024-05-17T10:45:04Z</time>
      </trkpt>
      <trkpt lat="44.61182" lon="5.17689">
        <ele>707.7</ele>
        <time>2024-05-17T10:45:05Z</time>
      </trkpt>
      <trkpt lat="44.61184" lon="5.1769">
        <ele>707.9</ele>
        <time>2024-05-17T10:45:06Z</time>
      </trkpt>
      <trkpt lat="44.61185" lon="5.1769">
        <ele>708</ele>
        <time>2024-05-17T10:45:07Z</time>
      </trkpt>
      <trkpt lat="44.61187" lon="5.1769">
        <ele>708.2</ele>
        <time>2024-05-17T10:45:08Z</time>
      </trkpt>
      <trkpt lat="44.61188" lon="5.17691">
        <ele>708.3</ele>
        <time>2024-05-17T10:45:09Z</time>
      </trkpt>
      <trkpt lat="44.6119" lon="5.17691">
        <ele>708.5</ele>
        <time>2024-05-17T10:45:10Z</time>
      </trkpt>
      <trkpt lat="44.61193" lon="5.17692">
        <ele>708.7</ele>
        <time>2024-05-17T10:45:11Z</time>
      </trkpt>
      <trkpt lat="44.61194" lon="5.17692">
        <ele>708.8</ele>
        <time>2024-05-17T10:45:12Z</time>
      </trkpt>
      <trkpt lat="44.61196" lon="5.17693">
        <ele>709.1</ele>
        <time>2024-05-17T10:45:13Z</time>
      </trkpt>
      <trkpt lat="44.61197" lon="5.17694">
        <ele>709.2</ele>
        <time>2024-05-17T10:45:14Z</time>
      </trkpt>
      <trkpt lat="44.61199" lon="5.17695">
        <ele>709.4</ele>
        <time>2024-05-17T10:45:15Z</time>
      </trkpt>
      <trkpt lat="44.61201" lon="5.17695">
        <ele>709.5</ele>
        <time>2024-05-17T10:45:16Z</time>
      </trkpt>
      <trkpt lat="44.61202" lon="5.17696">
        <ele>709.7</ele>
        <time>2024-05-17T10:45:17Z</time>
      </trkpt>
      <trkpt lat="44.61204" lon="5.17697">
        <ele>709.8</ele>
        <time>2024-05-17T10:45:18Z</time>
      </trkpt>
      <trkpt lat="44.61205" lon="5.17698">
        <ele>710</ele>
        <time>2024-05-17T10:45:19Z</time>
      </trkpt>
      <trkpt lat="44.61207" lon="5.17699">
        <ele>710.1</ele>
        <time>2024-05-17T10:45:20Z</time>
      </trkpt>
      <trkpt lat="44.6121" lon="5.177">
        <ele>710.4</ele>
        <time>2024-05-17T10:45:21Z</time>
      </trkpt>
      <trkpt lat="44.61211" lon="5.17701">
        <ele>710.4</ele>
        <time>2024-05-17T10:45:22Z</time>
      </trkpt>
      <trkpt lat="44.61213" lon="5.17702">
        <ele>710.6</ele>
        <time>2024-05-17T10:45:23Z</time>
      </trkpt>
      <trkpt lat="44.61215" lon="5.17704">
        <ele>710.8</ele>
        <time>2024-05-17T10:45:24Z</time>
      </trkpt>
      <trkpt lat="44.61217" lon="5.17705">
        <ele>711</ele>
        <time>2024-05-17T10:45:25Z</time>
      </trkpt>
      <trkpt lat="44.61219" lon="5.17707">
        <ele>711.2</ele>
        <time>2024-05-17T10:45:26Z</time>
      </trkpt>
      <trkpt lat="44.6122" lon="5.17709">
        <ele>711.3</ele>
        <time>2024-05-17T10:45:27Z</time>
      </trkpt>
      <trkpt lat="44.61224" lon="5.17711">
        <ele>711.6</ele>
        <time>2024-05-17T10:45:28Z</time>
      </trkpt>
      <trkpt lat="44.61225" lon="5.17712">
        <ele>711.7</ele>
        <time>2024-05-17T10:45:29Z</time>
      </trkpt>
      <trkpt lat="44.61228" lon="5.17714">
        <ele>712</ele>
        <time>2024-05-17T10:45:30Z</time>
      </trkpt>
      <trkpt lat="44.61229" lon="5.17715">
        <ele>712</ele>
        <time>2024-05-17T10:45:31Z</time>
      </trkpt>
      <trkpt lat="44.61231" lon="5.17717">
        <ele>712.2</ele>
        <time>2024-05-17T10:45:32Z</time>
      </trkpt>
      <trkpt lat="44.61234" lon="5.17719">
        <ele>712.4</ele>
        <time>2024-05-17T10:45:33Z</time>
      </trkpt>
      <trkpt lat="44.61237" lon="5.17722">
        <ele>712.7</ele>
        <time>2024-05-17T10:45:34Z</time>
      </trkpt>
      <trkpt lat="44.61238" lon="5.17723">
        <ele>712.8</ele>
        <time>2024-05-17T10:45:35Z</time>
      </trkpt>
      <trkpt lat="44.6124" lon="5.17725">
        <ele>712.9</ele>
        <time>2024-05-17T10:45:36Z</time>
      </trkpt>
      <trkpt lat="44.61243" lon="5.17727">
        <ele>713.2</ele>
        <time>2024-05-17T10:45:37Z</time>
      </trkpt>
      <trkpt lat="44.61244" lon="5.17728">
        <ele>713.2</ele>
        <time>2024-05-17T10:45:38Z</time>
      </trkpt>
      <trkpt lat="44.61246" lon="5.17729">
        <ele>713.4</ele>
        <time>2024-05-17T10:45:39Z</time>
      </trkpt>
      <trkpt lat="44.61249" lon="5.17732">
        <ele>713.7</ele>
        <time>2024-05-17T10:45:40Z</time>
      </trkpt>
      <trkpt lat="44.61251" lon="5.17732">
        <ele>713.8</ele>
        <time>2024-05-17T10:45:41Z</time>
      </trkpt>
      <trkpt lat="44.61254" lon="5.17734">
        <ele>714</ele>
        <time>2024-05-17T10:45:42Z</time>
      </trkpt>
      <trkpt lat="44.61255" lon="5.17735">
        <ele>714.1</ele>
        <time>2024-05-17T10:45:43Z</time>
      </trkpt>
      <trkpt lat="44.61258" lon="5.17738">
        <ele>714.4</ele>
        <time>2024-05-17T10:45:44Z</time>
      </trkpt>
      <trkpt lat="44.61259" lon="5.17739">
        <ele>714.5</ele>
        <time>2024-05-17T10:45:45Z</time>
      </trkpt>
      <trkpt lat="44.61261" lon="5.17741">
        <ele>714.6</ele>
        <time>2024-05-17T10:45:46Z</time>
      </trkpt>
      <trkpt lat="44.61265" lon="5.17743">
        <ele>714.9</ele>
        <time>2024-05-17T10:45:47Z</time>
      </trkpt>
      <trkpt lat="44.61266" lon="5.17744">
        <ele>715</ele>
        <time>2024-05-17T10:45:48Z</time>
      </trkpt>
      <trkpt lat="44.61268" lon="5.17746">
        <ele>715.2</ele>
        <time>2024-05-17T10:45:49Z</time>
      </trkpt>
      <trkpt lat="44.61271" lon="5.17749">
        <ele>715.5</ele>
        <time>2024-05-17T10:45:50Z</time>
      </trkpt>
      <trkpt lat="44.61272" lon="5.1775">
        <ele>715.6</ele>
        <time>2024-05-17T10:45:51Z</time>
      </trkpt>
      <trkpt lat="44.61274" lon="5.17751">
        <ele>715.8</ele>
        <time>2024-05-17T10:45:52Z</time>
      </trkpt>
      <trkpt lat="44.61275" lon="5.17753">
        <ele>715.9</ele>
        <time>2024-05-17T10:45:53Z</time>
      </trkpt>
      <trkpt lat="44.61277" lon="5.17754">
        <ele>716.1</ele>
        <time>2024-05-17T10:45:54Z</time>
      </trkpt>
      <trkpt lat="44.61279" lon="5.17756">
        <ele>716.3</ele>
        <time>2024-05-17T10:45:55Z</time>
      </trkpt>
      <trkpt lat="44.6128" lon="5.17758">
        <ele>716.4</ele>
        <time>2024-05-17T10:45:56Z</time>
      </trkpt>
      <trkpt lat="44.61281" lon="5.1776">
        <ele>716.6</ele>
        <time>2024-05-17T10:45:57Z</time>
      </trkpt>
      <trkpt lat="44.61283" lon="5.17763">
        <ele>716.9</ele>
        <time>2024-05-17T10:45:58Z</time>
      </trkpt>
      <trkpt lat="44.61284" lon="5.17764">
        <ele>717</ele>
        <time>2024-05-17T10:45:59Z</time>
      </trkpt>
      <trkpt lat="44.61286" lon="5.17767">
        <ele>717.3</ele>
        <time>2024-05-17T10:46:00Z</time>
      </trkpt>
      <trkpt lat="44.61287" lon="5.17769">
        <ele>717.4</ele>
        <time>2024-05-17T10:46:01Z</time>
      </trkpt>
      <trkpt lat="44.6129" lon="5.17773">
        <ele>717.8</ele>
        <time>2024-05-17T10:46:02Z</time>
      </trkpt>
      <trkpt lat="44.61291" lon="5.17774">
        <ele>717.9</ele>
        <time>2024-05-17T10:46:03Z</time>
      </trkpt>
      <trkpt lat="44.61292" lon="5.17778">
        <ele>718.2</ele>
        <time>2024-05-17T10:46:04Z</time>
      </trkpt>
      <trkpt lat="44.61293" lon="5.17779">
        <ele>718.2</ele>
        <time>2024-05-17T10:46:05Z</time>
      </trkpt>
      <trkpt lat="44.61294" lon="5.17782">
        <ele>718.5</ele>
        <time>2024-05-17T10:46:06Z</time>
      </trkpt>
      <trkpt lat="44.61294" lon="5.17784">
        <ele>718.6</ele>
        <time>2024-05-17T10:46:07Z</time>
      </trkpt>
      <trkpt lat="44.61296" lon="5.17787">
        <ele>718.9</ele>
        <time>2024-05-17T10:46:08Z</time>
      </trkpt>
      <trkpt lat="44.61296" lon="5.17788">
        <ele>719</ele>
        <time>2024-05-17T10:46:09Z</time>
      </trkpt>
      <trkpt lat="44.61298" lon="5.17791">
        <ele>719.2</ele>
        <time>2024-05-17T10:46:10Z</time>
      </trkpt>
      <trkpt lat="44.61299" lon="5.17792">
        <ele>719.3</ele>
        <time>2024-05-17T10:46:11Z</time>
      </trkpt>
      <trkpt lat="44.61301" lon="5.17796">
        <ele>719.6</ele>
        <time>2024-05-17T10:46:12Z</time>
      </trkpt>
      <trkpt lat="44.61302" lon="5.17797">
        <ele>719.7</ele>
        <time>2024-05-17T10:46:13Z</time>
      </trkpt>
      <trkpt lat="44.61303" lon="5.178">
        <ele>720</ele>
        <time>2024-05-17T10:46:14Z</time>
      </trkpt>
      <trkpt lat="44.61304" lon="5.17801">
        <ele>720.1</ele>
        <time>2024-05-17T10:46:15Z</time>
      </trkpt>
      <trkpt lat="44.61305" lon="5.17803">
        <ele>720.3</ele>
        <time>2024-05-17T10:46:16Z</time>
      </trkpt>
      <trkpt lat="44.61307" lon="5.17805">
        <ele>720.5</ele>
        <time>2024-05-17T10:46:17Z</time>
      </trkpt>
      <trkpt lat="44.61308" lon="5.17806">
        <ele>720.7</ele>
        <time>2024-05-17T10:46:18Z</time>
      </trkpt>
      <trkpt lat="44.6131" lon="5.17809">
        <ele>721</ele>
        <time>2024-05-17T10:46:19Z</time>
      </trkpt>
      <trkpt lat="44.61311" lon="5.1781">
        <ele>721.1</ele>
        <time>2024-05-17T10:46:20Z</time>
      </trkpt>
      <trkpt lat="44.61312" lon="5.17812">
        <ele>721.3</ele>
        <time>2024-05-17T10:46:21Z</time>
      </trkpt>
      <trkpt lat="44.61313" lon="5.17814">
        <ele>721.5</ele>
        <time>2024-05-17T10:46:22Z</time>
      </trkpt>
      <trkpt lat="44.61315" lon="5.17815">
        <ele>721.7</ele>
        <time>2024-05-17T10:46:23Z</time>
      </trkpt>
      <trkpt lat="44.61316" lon="5.17817">
        <ele>721.9</ele>
        <time>2024-05-17T10:46:24Z</time>
      </trkpt>
      <trkpt lat="44.61317" lon="5.17818">
        <ele>722.1</ele>
        <time>2024-05-17T10:46:25Z</time>
      </trkpt>
      <trkpt lat="44.6132" lon="5.1782">
        <ele>722.4</ele>
        <time>2024-05-17T10:46:26Z</time>
      </trkpt>
      <trkpt lat="44.6132" lon="5.1782">
        <ele>722.5</ele>
        <time>2024-05-17T10:46:27Z</time>
      </trkpt>
      <trkpt lat="44.61322" lon="5.17822">
        <ele>722.7</ele>
        <time>2024-05-17T10:46:28Z</time>
      </trkpt>
      <trkpt lat="44.61324" lon="5.17825">
        <ele>723</ele>
        <time>2024-05-17T10:46:29Z</time>
      </trkpt>
      <trkpt lat="44.61325" lon="5.17826">
        <ele>723.1</ele>
        <time>2024-05-17T10:46:30Z</time>
      </trkpt>
      <trkpt lat="44.61326" lon="5.17827">
        <ele>723.3</ele>
        <time>2024-05-17T10:46:31Z</time>
      </trkpt>
      <trkpt lat="44.61327" lon="5.17829">
        <ele>723.5</ele>
        <time>2024-05-17T10:46:32Z</time>
      </trkpt>
      <trkpt lat="44.61328" lon="5.17831">
        <ele>723.8</ele>
        <time>2024-05-17T10:46:33Z</time>
      </trkpt>
      <trkpt lat="44.6133" lon="5.17833">
        <ele>724</ele>
        <time>2024-05-17T10:46:34Z</time>
      </trkpt>
      <trkpt lat="44.61331" lon="5.17835">
        <ele>724.3</ele>
        <time>2024-05-17T10:46:35Z</time>
      </trkpt>
      <trkpt lat="44.61332" lon="5.17836">
        <ele>724.4</ele>
        <time>2024-05-17T10:46:36Z</time>
      </trkpt>
      <trkpt lat="44.61334" lon="5.17838">
        <ele>724.7</ele>
        <time>2024-05-17T10:46:37Z</time>
      </trkpt>
      <trkpt lat="44.61335" lon="5.17841">
        <ele>724.9</ele>
        <time>2024-05-17T10:46:38Z</time>
      </trkpt>
      <trkpt lat="44.61336" lon="5.17843">
        <ele>725.1</ele>
        <time>2024-05-17T10:46:39Z</time>
      </trkpt>
      <trkpt lat="44.61338" lon="5.17846">
        <ele>725.5</ele>
        <time>2024-05-17T10:46:40Z</time>
      </trkpt>
      <trkpt lat="44.61338" lon="5.17847">
        <ele>725.6</ele>
        <time>2024-05-17T10:46:41Z</time>
      </trkpt>
      <trkpt lat="44.6134" lon="5.17849">
        <ele>725.9</ele>
        <time>2024-05-17T10:46:42Z</time>
      </trkpt>
      <trkpt lat="44.61342" lon="5.17849">
        <ele>726.1</ele>
        <time>2024-05-17T10:46:43Z</time>
      </trkpt>
      <trkpt lat="44.61343" lon="5.1785">
        <ele>726.4</ele>
        <time>2024-05-17T10:46:44Z</time>
      </trkpt>
      <trkpt lat="44.61345" lon="5.1785">
        <ele>726.5</ele>
        <time>2024-05-17T10:46:45Z</time>
      </trkpt>
      <trkpt lat="44.61346" lon="5.1785">
        <ele>726.7</ele>
        <time>2024-05-17T10:46:46Z</time>
      </trkpt>
      <trkpt lat="44.61347" lon="5.17852">
        <ele>726.9</ele>
        <time>2024-05-17T10:46:47Z</time>
      </trkpt>
      <trkpt lat="44.61348" lon="5.17854">
        <ele>727.2</ele>
        <time>2024-05-17T10:46:48Z</time>
      </trkpt>
      <trkpt lat="44.61349" lon="5.17856">
        <ele>727.4</ele>
        <time>2024-05-17T10:46:49Z</time>
      </trkpt>
      <trkpt lat="44.61349" lon="5.17858">
        <ele>727.7</ele>
        <time>2024-05-17T10:46:50Z</time>
      </trkpt>
      <trkpt lat="44.6135" lon="5.17861">
        <ele>727.9</ele>
        <time>2024-05-17T10:46:51Z</time>
      </trkpt>
      <trkpt lat="44.6135" lon="5.17863">
        <ele>728.1</ele>
        <time>2024-05-17T10:46:52Z</time>
      </trkpt>
      <trkpt lat="44.6135" lon="5.17864">
        <ele>728.3</ele>
        <time>2024-05-17T10:46:53Z</time>
      </trkpt>
      <trkpt lat="44.61348" lon="5.17866">
        <ele>728.5</ele>
        <time>2024-05-17T10:46:54Z</time>
      </trkpt>
      <trkpt lat="44.61347" lon="5.17868">
        <ele>728.6</ele>
        <time>2024-05-17T10:46:55Z</time>
      </trkpt>
      <trkpt lat="44.61345" lon="5.17869">
        <ele>728.8</ele>
        <time>2024-05-17T10:46:56Z</time>
      </trkpt>
      <trkpt lat="44.61342" lon="5.17869">
        <ele>729</ele>
        <time>2024-05-17T10:46:57Z</time>
      </trkpt>
      <trkpt lat="44.61341" lon="5.17869">
        <ele>729.1</ele>
        <time>2024-05-17T10:46:58Z</time>
      </trkpt>
      <trkpt lat="44.61339" lon="5.17869">
        <ele>729.3</ele>
        <time>2024-05-17T10:46:59Z</time>
      </trkpt>
      <trkpt lat="44.61338" lon="5.17869">
        <ele>729.3</ele>
        <time>2024-05-17T10:47:00Z</time>
      </trkpt>
      <trkpt lat="44.61336" lon="5.17869">
        <ele>729.4</ele>
        <time>2024-05-17T10:47:01Z</time>
      </trkpt>
      <trkpt lat="44.61333" lon="5.17868">
        <ele>729.6</ele>
        <time>2024-05-17T10:47:02Z</time>
      </trkpt>
      <trkpt lat="44.61332" lon="5.17868">
        <ele>729.6</ele>
        <time>2024-05-17T10:47:03Z</time>
      </trkpt>
      <trkpt lat="44.6133" lon="5.17867">
        <ele>729.7</ele>
        <time>2024-05-17T10:47:04Z</time>
      </trkpt>
      <trkpt lat="44.61327" lon="5.17865">
        <ele>729.8</ele>
        <time>2024-05-17T10:47:05Z</time>
      </trkpt>
      <trkpt lat="44.61326" lon="5.17865">
        <ele>729.9</ele>
        <time>2024-05-17T10:47:06Z</time>
      </trkpt>
      <trkpt lat="44.61322" lon="5.17863">
        <ele>730</ele>
        <time>2024-05-17T10:47:07Z</time>
      </trkpt>
      <trkpt lat="44.61321" lon="5.17862">
        <ele>730</ele>
        <time>2024-05-17T10:47:08Z</time>
      </trkpt>
      <trkpt lat="44.61318" lon="5.1786">
        <ele>730.1</ele>
        <time>2024-05-17T10:47:09Z</time>
      </trkpt>
      <trkpt lat="44.61316" lon="5.1786">
        <ele>730.1</ele>
        <time>2024-05-17T10:47:10Z</time>
      </trkpt>
      <trkpt lat="44.61314" lon="5.17858">
        <ele>730.2</ele>
        <time>2024-05-17T10:47:11Z</time>
      </trkpt>
      <trkpt lat="44.61311" lon="5.17857">
        <ele>730.3</ele>
        <time>2024-05-17T10:47:12Z</time>
      </trkpt>
      <trkpt lat="44.6131" lon="5.17856">
        <ele>730.3</ele>
        <time>2024-05-17T10:47:13Z</time>
      </trkpt>
      <trkpt lat="44.61307" lon="5.17854">
        <ele>730.4</ele>
        <time>2024-05-17T10:47:14Z</time>
      </trkpt>
      <trkpt lat="44.61306" lon="5.17853">
        <ele>730.4</ele>
        <time>2024-05-17T10:47:15Z</time>
      </trkpt>
      <trkpt lat="44.61303" lon="5.17852">
        <ele>730.6</ele>
        <time>2024-05-17T10:47:16Z</time>
      </trkpt>
      <trkpt lat="44.61302" lon="5.17851">
        <ele>730.6</ele>
        <time>2024-05-17T10:47:17Z</time>
      </trkpt>
      <trkpt lat="44.61299" lon="5.1785">
        <ele>730.7</ele>
        <time>2024-05-17T10:47:18Z</time>
      </trkpt>
      <trkpt lat="44.61298" lon="5.17849">
        <ele>730.8</ele>
        <time>2024-05-17T10:47:19Z</time>
      </trkpt>
      <trkpt lat="44.61295" lon="5.17847">
        <ele>730.9</ele>
        <time>2024-05-17T10:47:20Z</time>
      </trkpt>
      <trkpt lat="44.61294" lon="5.17847">
        <ele>731</ele>
        <time>2024-05-17T10:47:21Z</time>
      </trkpt>
      <trkpt lat="44.61291" lon="5.17845">
        <ele>731.2</ele>
        <time>2024-05-17T10:47:22Z</time>
      </trkpt>
      <trkpt lat="44.6129" lon="5.17844">
        <ele>731.2</ele>
        <time>2024-05-17T10:47:23Z</time>
      </trkpt>
      <trkpt lat="44.61287" lon="5.17842">
        <ele>731.4</ele>
        <time>2024-05-17T10:47:24Z</time>
      </trkpt>
      <trkpt lat="44.61286" lon="5.17842">
        <ele>731.5</ele>
        <time>2024-05-17T10:47:25Z</time>
      </trkpt>
      <trkpt lat="44.61283" lon="5.1784">
        <ele>731.8</ele>
        <time>2024-05-17T10:47:26Z</time>
      </trkpt>
      <trkpt lat="44.61282" lon="5.1784">
        <ele>731.8</ele>
        <time>2024-05-17T10:47:27Z</time>
      </trkpt>
      <trkpt lat="44.6128" lon="5.17837">
        <ele>732</ele>
        <time>2024-05-17T10:47:28Z</time>
      </trkpt>
      <trkpt lat="44.61279" lon="5.17837">
        <ele>732.1</ele>
        <time>2024-05-17T10:47:29Z</time>
      </trkpt>
      <trkpt lat="44.61277" lon="5.17835">
        <ele>732.3</ele>
        <time>2024-05-17T10:47:30Z</time>
      </trkpt>
      <trkpt lat="44.61275" lon="5.17834">
        <ele>732.4</ele>
        <time>2024-05-17T10:47:31Z</time>
      </trkpt>
      <trkpt lat="44.61274" lon="5.17833">
        <ele>732.6</ele>
        <time>2024-05-17T10:47:32Z</time>
      </trkpt>
      <trkpt lat="44.61272" lon="5.17831">
        <ele>732.7</ele>
        <time>2024-05-17T10:47:33Z</time>
      </trkpt>
      <trkpt lat="44.6127" lon="5.17829">
        <ele>732.9</ele>
        <time>2024-05-17T10:47:34Z</time>
      </trkpt>
      <trkpt lat="44.61268" lon="5.17828">
        <ele>733.1</ele>
        <time>2024-05-17T10:47:35Z</time>
      </trkpt>
      <trkpt lat="44.61266" lon="5.17826">
        <ele>733.2</ele>
        <time>2024-05-17T10:47:36Z</time>
      </trkpt>
      <trkpt lat="44.61263" lon="5.17824">
        <ele>733.5</ele>
        <time>2024-05-17T10:47:37Z</time>
      </trkpt>
      <trkpt lat="44.61262" lon="5.17823">
        <ele>733.6</ele>
        <time>2024-05-17T10:47:38Z</time>
      </trkpt>
      <trkpt lat="44.61259" lon="5.17821">
        <ele>733.8</ele>
        <time>2024-05-17T10:47:39Z</time>
      </trkpt>
      <trkpt lat="44.61259" lon="5.1782">
        <ele>733.9</ele>
        <time>2024-05-17T10:47:40Z</time>
      </trkpt>
      <trkpt lat="44.61256" lon="5.17818">
        <ele>734.2</ele>
        <time>2024-05-17T10:47:41Z</time>
      </trkpt>
      <trkpt lat="44.61255" lon="5.17817">
        <ele>734.3</ele>
        <time>2024-05-17T10:47:42Z</time>
      </trkpt>
      <trkpt lat="44.61252" lon="5.17815">
        <ele>734.5</ele>
        <time>2024-05-17T10:47:43Z</time>
      </trkpt>
      <trkpt lat="44.61251" lon="5.17815">
        <ele>734.6</ele>
        <time>2024-05-17T10:47:44Z</time>
      </trkpt>
      <trkpt lat="44.6125" lon="5.17814">
        <ele>734.8</ele>
        <time>2024-05-17T10:47:45Z</time>
      </trkpt>
      <trkpt lat="44.61247" lon="5.17813">
        <ele>735.1</ele>
        <time>2024-05-17T10:47:46Z</time>
      </trkpt>
      <trkpt lat="44.61246" lon="5.17813">
        <ele>735.2</ele>
        <time>2024-05-17T10:47:47Z</time>
      </trkpt>
      <trkpt lat="44.61244" lon="5.17812">
        <ele>735.4</ele>
        <time>2024-05-17T10:47:48Z</time>
      </trkpt>
      <trkpt lat="44.61241" lon="5.17811">
        <ele>735.7</ele>
        <time>2024-05-17T10:47:49Z</time>
      </trkpt>
      <trkpt lat="44.6124" lon="5.17811">
        <ele>735.8</ele>
        <time>2024-05-17T10:47:50Z</time>
      </trkpt>
      <trkpt lat="44.61237" lon="5.17809">
        <ele>736.3</ele>
        <time>2024-05-17T10:47:51Z</time>
      </trkpt>
      <trkpt lat="44.61235" lon="5.17808">
        <ele>736.4</ele>
        <time>2024-05-17T10:47:52Z</time>
      </trkpt>
      <trkpt lat="44.61233" lon="5.17806">
        <ele>736.8</ele>
        <time>2024-05-17T10:47:53Z</time>
      </trkpt>
      <trkpt lat="44.61232" lon="5.17805">
        <ele>736.9</ele>
        <time>2024-05-17T10:47:54Z</time>
      </trkpt>
      <trkpt lat="44.6123" lon="5.17803">
        <ele>737.2</ele>
        <time>2024-05-17T10:47:55Z</time>
      </trkpt>
      <trkpt lat="44.61228" lon="5.178">
        <ele>737.5</ele>
        <time>2024-05-17T10:47:56Z</time>
      </trkpt>
      <trkpt lat="44.61227" lon="5.17799">
        <ele>737.7</ele>
        <time>2024-05-17T10:47:57Z</time>
      </trkpt>
      <trkpt lat="44.61226" lon="5.17798">
        <ele>737.9</ele>
        <time>2024-05-17T10:47:58Z</time>
      </trkpt>
      <trkpt lat="44.61224" lon="5.17796">
        <ele>738.1</ele>
        <time>2024-05-17T10:47:59Z</time>
      </trkpt>
      <trkpt lat="44.61223" lon="5.17795">
        <ele>738.3</ele>
        <time>2024-05-17T10:48:00Z</time>
      </trkpt>
      <trkpt lat="44.61221" lon="5.17794">
        <ele>738.5</ele>
        <time>2024-05-17T10:48:01Z</time>
      </trkpt>
      <trkpt lat="44.61219" lon="5.17794">
        <ele>738.7</ele>
        <time>2024-05-17T10:48:02Z</time>
      </trkpt>
      <trkpt lat="44.61218" lon="5.17793">
        <ele>739</ele>
        <time>2024-05-17T10:48:03Z</time>
      </trkpt>
      <trkpt lat="44.61216" lon="5.17791">
        <ele>739.2</ele>
        <time>2024-05-17T10:48:04Z</time>
      </trkpt>
      <trkpt lat="44.61213" lon="5.1779">
        <ele>739.5</ele>
        <time>2024-05-17T10:48:05Z</time>
      </trkpt>
      <trkpt lat="44.61211" lon="5.17789">
        <ele>739.7</ele>
        <time>2024-05-17T10:48:06Z</time>
      </trkpt>
      <trkpt lat="44.61209" lon="5.17788">
        <ele>739.9</ele>
        <time>2024-05-17T10:48:07Z</time>
      </trkpt>
      <trkpt lat="44.61207" lon="5.17787">
        <ele>740.1</ele>
        <time>2024-05-17T10:48:08Z</time>
      </trkpt>
      <trkpt lat="44.61205" lon="5.17787">
        <ele>740.3</ele>
        <time>2024-05-17T10:48:09Z</time>
      </trkpt>
      <trkpt lat="44.61203" lon="5.17786">
        <ele>740.6</ele>
        <time>2024-05-17T10:48:10Z</time>
      </trkpt>
      <trkpt lat="44.61202" lon="5.17786">
        <ele>740.7</ele>
        <time>2024-05-17T10:48:11Z</time>
      </trkpt>
      <trkpt lat="44.61199" lon="5.17784">
        <ele>740.9</ele>
        <time>2024-05-17T10:48:12Z</time>
      </trkpt>
      <trkpt lat="44.61198" lon="5.17784">
        <ele>741</ele>
        <time>2024-05-17T10:48:13Z</time>
      </trkpt>
      <trkpt lat="44.61195" lon="5.17783">
        <ele>741.2</ele>
        <time>2024-05-17T10:48:14Z</time>
      </trkpt>
      <trkpt lat="44.61194" lon="5.17783">
        <ele>741.3</ele>
        <time>2024-05-17T10:48:15Z</time>
      </trkpt>
      <trkpt lat="44.61191" lon="5.17782">
        <ele>741.6</ele>
        <time>2024-05-17T10:48:16Z</time>
      </trkpt>
      <trkpt lat="44.6119" lon="5.17782">
        <ele>741.6</ele>
        <time>2024-05-17T10:48:17Z</time>
      </trkpt>
      <trkpt lat="44.61187" lon="5.17781">
        <ele>741.9</ele>
        <time>2024-05-17T10:48:18Z</time>
      </trkpt>
      <trkpt lat="44.61186" lon="5.17781">
        <ele>742</ele>
        <time>2024-05-17T10:48:19Z</time>
      </trkpt>
      <trkpt lat="44.61184" lon="5.1778">
        <ele>742.1</ele>
        <time>2024-05-17T10:48:20Z</time>
      </trkpt>
      <trkpt lat="44.61181" lon="5.1778">
        <ele>742.3</ele>
        <time>2024-05-17T10:48:21Z</time>
      </trkpt>
      <trkpt lat="44.6118" lon="5.1778">
        <ele>742.4</ele>
        <time>2024-05-17T10:48:22Z</time>
      </trkpt>
      <trkpt lat="44.61177" lon="5.17779">
        <ele>742.7</ele>
        <time>2024-05-17T10:48:23Z</time>
      </trkpt>
      <trkpt lat="44.61176" lon="5.17779">
        <ele>742.7</ele>
        <time>2024-05-17T10:48:24Z</time>
      </trkpt>
      <trkpt lat="44.61174" lon="5.17779">
        <ele>742.9</ele>
        <time>2024-05-17T10:48:25Z</time>
      </trkpt>
      <trkpt lat="44.61172" lon="5.17779">
        <ele>743</ele>
        <time>2024-05-17T10:48:26Z</time>
      </trkpt>
      <trkpt lat="44.6117" lon="5.17778">
        <ele>743.2</ele>
        <time>2024-05-17T10:48:27Z</time>
      </trkpt>
      <trkpt lat="44.61168" lon="5.17777">
        <ele>743.4</ele>
        <time>2024-05-17T10:48:28Z</time>
      </trkpt>
      <trkpt lat="44.61167" lon="5.17776">
        <ele>743.5</ele>
        <time>2024-05-17T10:48:29Z</time>
      </trkpt>
      <trkpt lat="44.61165" lon="5.17775">
        <ele>743.7</ele>
        <time>2024-05-17T10:48:30Z</time>
      </trkpt>
      <trkpt lat="44.61161" lon="5.17774">
        <ele>744</ele>
        <time>2024-05-17T10:48:31Z</time>
      </trkpt>
      <trkpt lat="44.6116" lon="5.17774">
        <ele>744.1</ele>
        <time>2024-05-17T10:48:32Z</time>
      </trkpt>
      <trkpt lat="44.61157" lon="5.17774">
        <ele>744.3</ele>
        <time>2024-05-17T10:48:33Z</time>
      </trkpt>
      <trkpt lat="44.61156" lon="5.17774">
        <ele>744.4</ele>
        <time>2024-05-17T10:48:34Z</time>
      </trkpt>
      <trkpt lat="44.61154" lon="5.17774">
        <ele>744.6</ele>
        <time>2024-05-17T10:48:35Z</time>
      </trkpt>
      <trkpt lat="44.61153" lon="5.17774">
        <ele>744.7</ele>
        <time>2024-05-17T10:48:36Z</time>
      </trkpt>
      <trkpt lat="44.61151" lon="5.17774">
        <ele>744.9</ele>
        <time>2024-05-17T10:48:37Z</time>
      </trkpt>
      <trkpt lat="44.61148" lon="5.17775">
        <ele>745.1</ele>
        <time>2024-05-17T10:48:38Z</time>
      </trkpt>
      <trkpt lat="44.61147" lon="5.17776">
        <ele>745.2</ele>
        <time>2024-05-17T10:48:39Z</time>
      </trkpt>
      <trkpt lat="44.61145" lon="5.17776">
        <ele>745.4</ele>
        <time>2024-05-17T10:48:40Z</time>
      </trkpt>
      <trkpt lat="44.61143" lon="5.17777">
        <ele>745.6</ele>
        <time>2024-05-17T10:48:41Z</time>
      </trkpt>
      <trkpt lat="44.61141" lon="5.17777">
        <ele>745.7</ele>
        <time>2024-05-17T10:48:42Z</time>
      </trkpt>
      <trkpt lat="44.61139" lon="5.17777">
        <ele>745.9</ele>
        <time>2024-05-17T10:48:43Z</time>
      </trkpt>
      <trkpt lat="44.61137" lon="5.17777">
        <ele>746.1</ele>
        <time>2024-05-17T10:48:44Z</time>
      </trkpt>
      <trkpt lat="44.61134" lon="5.17778">
        <ele>746.3</ele>
        <time>2024-05-17T10:48:45Z</time>
      </trkpt>
      <trkpt lat="44.61133" lon="5.17778">
        <ele>746.4</ele>
        <time>2024-05-17T10:48:46Z</time>
      </trkpt>
      <trkpt lat="44.6113" lon="5.17779">
        <ele>746.7</ele>
        <time>2024-05-17T10:48:47Z</time>
      </trkpt>
      <trkpt lat="44.61129" lon="5.17779">
        <ele>746.7</ele>
        <time>2024-05-17T10:48:48Z</time>
      </trkpt>
      <trkpt lat="44.61126" lon="5.17779">
        <ele>747</ele>
        <time>2024-05-17T10:48:49Z</time>
      </trkpt>
      <trkpt lat="44.61125" lon="5.17779">
        <ele>747.1</ele>
        <time>2024-05-17T10:48:50Z</time>
      </trkpt>
      <trkpt lat="44.61123" lon="5.17779">
        <ele>747.3</ele>
        <time>2024-05-17T10:48:51Z</time>
      </trkpt>
      <trkpt lat="44.61121" lon="5.17778">
        <ele>747.5</ele>
        <time>2024-05-17T10:48:52Z</time>
      </trkpt>
      <trkpt lat="44.61118" lon="5.17778">
        <ele>747.7</ele>
        <time>2024-05-17T10:48:53Z</time>
      </trkpt>
      <trkpt lat="44.61115" lon="5.17778">
        <ele>748</ele>
        <time>2024-05-17T10:48:54Z</time>
      </trkpt>
      <trkpt lat="44.61114" lon="5.17778">
        <ele>748.1</ele>
        <time>2024-05-17T10:48:55Z</time>
      </trkpt>
      <trkpt lat="44.61112" lon="5.17778">
        <ele>748.4</ele>
        <time>2024-05-17T10:48:56Z</time>
      </trkpt>
      <trkpt lat="44.61111" lon="5.17777">
        <ele>748.5</ele>
        <time>2024-05-17T10:48:57Z</time>
      </trkpt>
      <trkpt lat="44.61108" lon="5.17778">
        <ele>748.8</ele>
        <time>2024-05-17T10:48:58Z</time>
      </trkpt>
      <trkpt lat="44.61107" lon="5.17779">
        <ele>748.9</ele>
        <time>2024-05-17T10:48:59Z</time>
      </trkpt>
      <trkpt lat="44.61104" lon="5.17779">
        <ele>749.2</ele>
        <time>2024-05-17T10:49:00Z</time>
      </trkpt>
      <trkpt lat="44.61103" lon="5.17779">
        <ele>749.3</ele>
        <time>2024-05-17T10:49:01Z</time>
      </trkpt>
      <trkpt lat="44.61099" lon="5.17778">
        <ele>749.7</ele>
        <time>2024-05-17T10:49:02Z</time>
      </trkpt>
      <trkpt lat="44.61098" lon="5.17777">
        <ele>749.8</ele>
        <time>2024-05-17T10:49:03Z</time>
      </trkpt>
      <trkpt lat="44.61095" lon="5.17777">
        <ele>750.1</ele>
        <time>2024-05-17T10:49:04Z</time>
      </trkpt>
      <trkpt lat="44.61092" lon="5.17777">
        <ele>750.3</ele>
        <time>2024-05-17T10:49:05Z</time>
      </trkpt>
      <trkpt lat="44.6109" lon="5.17776">
        <ele>750.5</ele>
        <time>2024-05-17T10:49:06Z</time>
      </trkpt>
      <trkpt lat="44.61087" lon="5.17775">
        <ele>750.8</ele>
        <time>2024-05-17T10:49:07Z</time>
      </trkpt>
      <trkpt lat="44.61086" lon="5.17775">
        <ele>750.9</ele>
        <time>2024-05-17T10:49:08Z</time>
      </trkpt>
      <trkpt lat="44.61083" lon="5.17775">
        <ele>751.2</ele>
        <time>2024-05-17T10:49:09Z</time>
      </trkpt>
      <trkpt lat="44.61082" lon="5.17775">
        <ele>751.3</ele>
        <time>2024-05-17T10:49:10Z</time>
      </trkpt>
      <trkpt lat="44.6108" lon="5.17774">
        <ele>751.5</ele>
        <time>2024-05-17T10:49:11Z</time>
      </trkpt>
      <trkpt lat="44.61077" lon="5.17774">
        <ele>751.8</ele>
        <time>2024-05-17T10:49:12Z</time>
      </trkpt>
      <trkpt lat="44.61076" lon="5.17774">
        <ele>751.9</ele>
        <time>2024-05-17T10:49:13Z</time>
      </trkpt>
      <trkpt lat="44.61074" lon="5.17774">
        <ele>752.1</ele>
        <time>2024-05-17T10:49:14Z</time>
      </trkpt>
      <trkpt lat="44.61071" lon="5.17774">
        <ele>752.3</ele>
        <time>2024-05-17T10:49:15Z</time>
      </trkpt>
      <trkpt lat="44.6107" lon="5.17774">
        <ele>752.4</ele>
        <time>2024-05-17T10:49:16Z</time>
      </trkpt>
      <trkpt lat="44.61067" lon="5.17774">
        <ele>752.8</ele>
        <time>2024-05-17T10:49:17Z</time>
      </trkpt>
      <trkpt lat="44.61066" lon="5.17774">
        <ele>752.9</ele>
        <time>2024-05-17T10:49:18Z</time>
      </trkpt>
      <trkpt lat="44.61062" lon="5.17773">
        <ele>753.2</ele>
        <time>2024-05-17T10:49:19Z</time>
      </trkpt>
      <trkpt lat="44.61061" lon="5.17773">
        <ele>753.3</ele>
        <time>2024-05-17T10:49:20Z</time>
      </trkpt>
      <trkpt lat="44.61059" lon="5.17773">
        <ele>753.4</ele>
        <time>2024-05-17T10:49:21Z</time>
      </trkpt>
      <trkpt lat="44.61056" lon="5.17773">
        <ele>753.7</ele>
        <time>2024-05-17T10:49:22Z</time>
      </trkpt>
      <trkpt lat="44.61055" lon="5.17773">
        <ele>753.8</ele>
        <time>2024-05-17T10:49:23Z</time>
      </trkpt>
      <trkpt lat="44.61052" lon="5.17773">
        <ele>754.1</ele>
        <time>2024-05-17T10:49:24Z</time>
      </trkpt>
      <trkpt lat="44.61051" lon="5.17773">
        <ele>754.2</ele>
        <time>2024-05-17T10:49:25Z</time>
      </trkpt>
      <trkpt lat="44.61048" lon="5.17773">
        <ele>754.5</ele>
        <time>2024-05-17T10:49:26Z</time>
      </trkpt>
      <trkpt lat="44.61047" lon="5.17773">
        <ele>754.6</ele>
        <time>2024-05-17T10:49:27Z</time>
      </trkpt>
      <trkpt lat="44.61044" lon="5.17773">
        <ele>754.8</ele>
        <time>2024-05-17T10:49:28Z</time>
      </trkpt>
      <trkpt lat="44.61043" lon="5.17773">
        <ele>754.9</ele>
        <time>2024-05-17T10:49:29Z</time>
      </trkpt>
      <trkpt lat="44.6104" lon="5.17773">
        <ele>755.2</ele>
        <time>2024-05-17T10:49:30Z</time>
      </trkpt>
      <trkpt lat="44.61039" lon="5.17773">
        <ele>755.3</ele>
        <time>2024-05-17T10:49:31Z</time>
      </trkpt>
      <trkpt lat="44.61036" lon="5.17774">
        <ele>755.5</ele>
        <time>2024-05-17T10:49:32Z</time>
      </trkpt>
      <trkpt lat="44.61035" lon="5.17774">
        <ele>755.6</ele>
        <time>2024-05-17T10:49:33Z</time>
      </trkpt>
      <trkpt lat="44.61031" lon="5.17776">
        <ele>755.9</ele>
        <time>2024-05-17T10:49:34Z</time>
      </trkpt>
      <trkpt lat="44.6103" lon="5.17776">
        <ele>756</ele>
        <time>2024-05-17T10:49:35Z</time>
      </trkpt>
      <trkpt lat="44.61029" lon="5.17777">
        <ele>756.2</ele>
        <time>2024-05-17T10:49:36Z</time>
      </trkpt>
      <trkpt lat="44.61026" lon="5.17779">
        <ele>756.4</ele>
        <time>2024-05-17T10:49:37Z</time>
      </trkpt>
      <trkpt lat="44.61025" lon="5.1778">
        <ele>756.5</ele>
        <time>2024-05-17T10:49:38Z</time>
      </trkpt>
      <trkpt lat="44.61022" lon="5.17781">
        <ele>756.7</ele>
        <time>2024-05-17T10:49:39Z</time>
      </trkpt>
      <trkpt lat="44.61021" lon="5.17782">
        <ele>756.8</ele>
        <time>2024-05-17T10:49:40Z</time>
      </trkpt>
      <trkpt lat="44.61019" lon="5.17784">
        <ele>757.1</ele>
        <time>2024-05-17T10:49:41Z</time>
      </trkpt>
      <trkpt lat="44.61018" lon="5.17785">
        <ele>757.1</ele>
        <time>2024-05-17T10:49:42Z</time>
      </trkpt>
      <trkpt lat="44.61015" lon="5.17787">
        <ele>757.4</ele>
        <time>2024-05-17T10:49:43Z</time>
      </trkpt>
      <trkpt lat="44.61014" lon="5.17788">
        <ele>757.5</ele>
        <time>2024-05-17T10:49:44Z</time>
      </trkpt>
      <trkpt lat="44.61011" lon="5.1779">
        <ele>757.8</ele>
        <time>2024-05-17T10:49:45Z</time>
      </trkpt>
      <trkpt lat="44.6101" lon="5.17791">
        <ele>757.8</ele>
        <time>2024-05-17T10:49:46Z</time>
      </trkpt>
      <trkpt lat="44.61007" lon="5.17793">
        <ele>758.1</ele>
        <time>2024-05-17T10:49:47Z</time>
      </trkpt>
      <trkpt lat="44.61007" lon="5.17793">
        <ele>758.2</ele>
        <time>2024-05-17T10:49:48Z</time>
      </trkpt>
      <trkpt lat="44.61004" lon="5.17795">
        <ele>758.5</ele>
        <time>2024-05-17T10:49:49Z</time>
      </trkpt>
      <trkpt lat="44.61003" lon="5.17796">
        <ele>758.6</ele>
        <time>2024-05-17T10:49:50Z</time>
      </trkpt>
      <trkpt lat="44.61" lon="5.17798">
        <ele>758.8</ele>
        <time>2024-05-17T10:49:51Z</time>
      </trkpt>
      <trkpt lat="44.60999" lon="5.17799">
        <ele>758.9</ele>
        <time>2024-05-17T10:49:52Z</time>
      </trkpt>
      <trkpt lat="44.60998" lon="5.17801">
        <ele>759.1</ele>
        <time>2024-05-17T10:49:53Z</time>
      </trkpt>
      <trkpt lat="44.60996" lon="5.17803">
        <ele>759.4</ele>
        <time>2024-05-17T10:49:54Z</time>
      </trkpt>
      <trkpt lat="44.60995" lon="5.17804">
        <ele>759.5</ele>
        <time>2024-05-17T10:49:55Z</time>
      </trkpt>
      <trkpt lat="44.60993" lon="5.17806">
        <ele>759.6</ele>
        <time>2024-05-17T10:49:56Z</time>
      </trkpt>
      <trkpt lat="44.60991" lon="5.17808">
        <ele>759.9</ele>
        <time>2024-05-17T10:49:57Z</time>
      </trkpt>
      <trkpt lat="44.6099" lon="5.17809">
        <ele>760</ele>
        <time>2024-05-17T10:49:58Z</time>
      </trkpt>
      <trkpt lat="44.60988" lon="5.17812">
        <ele>760.3</ele>
        <time>2024-05-17T10:49:59Z</time>
      </trkpt>
      <trkpt lat="44.60988" lon="5.17813">
        <ele>760.4</ele>
        <time>2024-05-17T10:50:00Z</time>
      </trkpt>
      <trkpt lat="44.60985" lon="5.17817">
        <ele>760.7</ele>
        <time>2024-05-17T10:50:01Z</time>
      </trkpt>
      <trkpt lat="44.60985" lon="5.17818">
        <ele>760.8</ele>
        <time>2024-05-17T10:50:02Z</time>
      </trkpt>
      <trkpt lat="44.60984" lon="5.1782">
        <ele>760.9</ele>
        <time>2024-05-17T10:50:03Z</time>
      </trkpt>
      <trkpt lat="44.60982" lon="5.17824">
        <ele>761.2</ele>
        <time>2024-05-17T10:50:04Z</time>
      </trkpt>
      <trkpt lat="44.60982" lon="5.17825">
        <ele>761.3</ele>
        <time>2024-05-17T10:50:05Z</time>
      </trkpt>
      <trkpt lat="44.6098" lon="5.17828">
        <ele>761.6</ele>
        <time>2024-05-17T10:50:06Z</time>
      </trkpt>
      <trkpt lat="44.60979" lon="5.17829">
        <ele>761.7</ele>
        <time>2024-05-17T10:50:07Z</time>
      </trkpt>
      <trkpt lat="44.60978" lon="5.17833">
        <ele>762</ele>
        <time>2024-05-17T10:50:08Z</time>
      </trkpt>
      <trkpt lat="44.60977" lon="5.17835">
        <ele>762.1</ele>
        <time>2024-05-17T10:50:09Z</time>
      </trkpt>
      <trkpt lat="44.60976" lon="5.17839">
        <ele>762.4</ele>
        <time>2024-05-17T10:50:10Z</time>
      </trkpt>
      <trkpt lat="44.60975" lon="5.1784">
        <ele>762.5</ele>
        <time>2024-05-17T10:50:11Z</time>
      </trkpt>
      <trkpt lat="44.60974" lon="5.17844">
        <ele>762.8</ele>
        <time>2024-05-17T10:50:12Z</time>
      </trkpt>
      <trkpt lat="44.60974" lon="5.17846">
        <ele>762.9</ele>
        <time>2024-05-17T10:50:13Z</time>
      </trkpt>
      <trkpt lat="44.60973" lon="5.17848">
        <ele>763.1</ele>
        <time>2024-05-17T10:50:14Z</time>
      </trkpt>
      <trkpt lat="44.60972" lon="5.17851">
        <ele>763.3</ele>
        <time>2024-05-17T10:50:15Z</time>
      </trkpt>
      <trkpt lat="44.60971" lon="5.17854">
        <ele>763.5</ele>
        <time>2024-05-17T10:50:16Z</time>
      </trkpt>
      <trkpt lat="44.60971" lon="5.17855">
        <ele>763.6</ele>
        <time>2024-05-17T10:50:17Z</time>
      </trkpt>
      <trkpt lat="44.60969" lon="5.17857">
        <ele>763.8</ele>
        <time>2024-05-17T10:50:18Z</time>
      </trkpt>
      <trkpt lat="44.60968" lon="5.17861">
        <ele>764.1</ele>
        <time>2024-05-17T10:50:19Z</time>
      </trkpt>
      <trkpt lat="44.60967" lon="5.17862">
        <ele>764.2</ele>
        <time>2024-05-17T10:50:20Z</time>
      </trkpt>
      <trkpt lat="44.60966" lon="5.17865">
        <ele>764.5</ele>
        <time>2024-05-17T10:50:21Z</time>
      </trkpt>
      <trkpt lat="44.60965" lon="5.17867">
        <ele>764.6</ele>
        <time>2024-05-17T10:50:22Z</time>
      </trkpt>
      <trkpt lat="44.60964" lon="5.1787">
        <ele>764.9</ele>
        <time>2024-05-17T10:50:23Z</time>
      </trkpt>
      <trkpt lat="44.60964" lon="5.17871">
        <ele>765</ele>
        <time>2024-05-17T10:50:24Z</time>
      </trkpt>
      <trkpt lat="44.60962" lon="5.17875">
        <ele>765.3</ele>
        <time>2024-05-17T10:50:25Z</time>
      </trkpt>
      <trkpt lat="44.60962" lon="5.17877">
        <ele>765.4</ele>
        <time>2024-05-17T10:50:26Z</time>
      </trkpt>
      <trkpt lat="44.60961" lon="5.17881">
        <ele>765.7</ele>
        <time>2024-05-17T10:50:27Z</time>
      </trkpt>
      <trkpt lat="44.6096" lon="5.17882">
        <ele>765.8</ele>
        <time>2024-05-17T10:50:28Z</time>
      </trkpt>
      <trkpt lat="44.60959" lon="5.17886">
        <ele>766.1</ele>
        <time>2024-05-17T10:50:29Z</time>
      </trkpt>
      <trkpt lat="44.60959" lon="5.17888">
        <ele>766.2</ele>
        <time>2024-05-17T10:50:30Z</time>
      </trkpt>
      <trkpt lat="44.60958" lon="5.17892">
        <ele>766.5</ele>
        <time>2024-05-17T10:50:31Z</time>
      </trkpt>
      <trkpt lat="44.60958" lon="5.17893">
        <ele>766.6</ele>
        <time>2024-05-17T10:50:32Z</time>
      </trkpt>
      <trkpt lat="44.60957" lon="5.17896">
        <ele>766.8</ele>
        <time>2024-05-17T10:50:33Z</time>
      </trkpt>
      <trkpt lat="44.60957" lon="5.17898">
        <ele>767</ele>
        <time>2024-05-17T10:50:34Z</time>
      </trkpt>
      <trkpt lat="44.60956" lon="5.17901">
        <ele>767.1</ele>
        <time>2024-05-17T10:50:35Z</time>
      </trkpt>
      <trkpt lat="44.60955" lon="5.17904">
        <ele>767.4</ele>
        <time>2024-05-17T10:50:36Z</time>
      </trkpt>
      <trkpt lat="44.60955" lon="5.17906">
        <ele>767.4</ele>
        <time>2024-05-17T10:50:37Z</time>
      </trkpt>
      <trkpt lat="44.60954" lon="5.17908">
        <ele>767.6</ele>
        <time>2024-05-17T10:50:38Z</time>
      </trkpt>
      <trkpt lat="44.60953" lon="5.17912">
        <ele>767.9</ele>
        <time>2024-05-17T10:50:39Z</time>
      </trkpt>
      <trkpt lat="44.60953" lon="5.17913">
        <ele>767.9</ele>
        <time>2024-05-17T10:50:40Z</time>
      </trkpt>
      <trkpt lat="44.60951" lon="5.17917">
        <ele>768.2</ele>
        <time>2024-05-17T10:50:41Z</time>
      </trkpt>
      <trkpt lat="44.60951" lon="5.17918">
        <ele>768.3</ele>
        <time>2024-05-17T10:50:42Z</time>
      </trkpt>
      <trkpt lat="44.6095" lon="5.17922">
        <ele>768.5</ele>
        <time>2024-05-17T10:50:43Z</time>
      </trkpt>
      <trkpt lat="44.6095" lon="5.17923">
        <ele>768.6</ele>
        <time>2024-05-17T10:50:44Z</time>
      </trkpt>
      <trkpt lat="44.60949" lon="5.17925">
        <ele>768.7</ele>
        <time>2024-05-17T10:50:45Z</time>
      </trkpt>
      <trkpt lat="44.60948" lon="5.17929">
        <ele>769</ele>
        <time>2024-05-17T10:50:46Z</time>
      </trkpt>
      <trkpt lat="44.60947" lon="5.1793">
        <ele>769.1</ele>
        <time>2024-05-17T10:50:47Z</time>
      </trkpt>
      <trkpt lat="44.60947" lon="5.17933">
        <ele>769.2</ele>
        <time>2024-05-17T10:50:48Z</time>
      </trkpt>
      <trkpt lat="44.60947" lon="5.17935">
        <ele>769.4</ele>
        <time>2024-05-17T10:50:49Z</time>
      </trkpt>
      <trkpt lat="44.60946" lon="5.17939">
        <ele>769.6</ele>
        <time>2024-05-17T10:50:50Z</time>
      </trkpt>
      <trkpt lat="44.60945" lon="5.1794">
        <ele>769.7</ele>
        <time>2024-05-17T10:50:51Z</time>
      </trkpt>
      <trkpt lat="44.60944" lon="5.17944">
        <ele>769.9</ele>
        <time>2024-05-17T10:50:52Z</time>
      </trkpt>
      <trkpt lat="44.60944" lon="5.17945">
        <ele>770</ele>
        <time>2024-05-17T10:50:53Z</time>
      </trkpt>
      <trkpt lat="44.60943" lon="5.17949">
        <ele>770.2</ele>
        <time>2024-05-17T10:50:54Z</time>
      </trkpt>
      <trkpt lat="44.60942" lon="5.17951">
        <ele>770.3</ele>
        <time>2024-05-17T10:50:55Z</time>
      </trkpt>
      <trkpt lat="44.6094" lon="5.17955">
        <ele>770.6</ele>
        <time>2024-05-17T10:50:56Z</time>
      </trkpt>
      <trkpt lat="44.6094" lon="5.17956">
        <ele>770.7</ele>
        <time>2024-05-17T10:50:57Z</time>
      </trkpt>
      <trkpt lat="44.60938" lon="5.1796">
        <ele>771</ele>
        <time>2024-05-17T10:50:58Z</time>
      </trkpt>
      <trkpt lat="44.60937" lon="5.17961">
        <ele>771.1</ele>
        <time>2024-05-17T10:50:59Z</time>
      </trkpt>
      <trkpt lat="44.60936" lon="5.17964">
        <ele>771.3</ele>
        <time>2024-05-17T10:51:00Z</time>
      </trkpt>
      <trkpt lat="44.60934" lon="5.17967">
        <ele>771.6</ele>
        <time>2024-05-17T10:51:01Z</time>
      </trkpt>
      <trkpt lat="44.60933" lon="5.17968">
        <ele>771.7</ele>
        <time>2024-05-17T10:51:02Z</time>
      </trkpt>
      <trkpt lat="44.60931" lon="5.17971">
        <ele>771.9</ele>
        <time>2024-05-17T10:51:03Z</time>
      </trkpt>
      <trkpt lat="44.6093" lon="5.17971">
        <ele>772</ele>
        <time>2024-05-17T10:51:04Z</time>
      </trkpt>
      <trkpt lat="44.60929" lon="5.17973">
        <ele>772.1</ele>
        <time>2024-05-17T10:51:05Z</time>
      </trkpt>
      <trkpt lat="44.60927" lon="5.17974">
        <ele>772.3</ele>
        <time>2024-05-17T10:51:06Z</time>
      </trkpt>
      <trkpt lat="44.60926" lon="5.17974">
        <ele>772.4</ele>
        <time>2024-05-17T10:51:07Z</time>
      </trkpt>
      <trkpt lat="44.60924" lon="5.17975">
        <ele>772.6</ele>
        <time>2024-05-17T10:51:08Z</time>
      </trkpt>
      <trkpt lat="44.60921" lon="5.17976">
        <ele>772.9</ele>
        <time>2024-05-17T10:51:09Z</time>
      </trkpt>
      <trkpt lat="44.6092" lon="5.17977">
        <ele>772.9</ele>
        <time>2024-05-17T10:51:10Z</time>
      </trkpt>
      <trkpt lat="44.60917" lon="5.17978">
        <ele>773.1</ele>
        <time>2024-05-17T10:51:11Z</time>
      </trkpt>
      <trkpt lat="44.60915" lon="5.17978">
        <ele>773.3</ele>
        <time>2024-05-17T10:51:12Z</time>
      </trkpt>
      <trkpt lat="44.60913" lon="5.17979">
        <ele>773.5</ele>
        <time>2024-05-17T10:51:13Z</time>
      </trkpt>
      <trkpt lat="44.60909" lon="5.1798">
        <ele>773.8</ele>
        <time>2024-05-17T10:51:14Z</time>
      </trkpt>
      <trkpt lat="44.60908" lon="5.1798">
        <ele>773.8</ele>
        <time>2024-05-17T10:51:15Z</time>
      </trkpt>
      <trkpt lat="44.60905" lon="5.17981">
        <ele>774</ele>
        <time>2024-05-17T10:51:16Z</time>
      </trkpt>
      <trkpt lat="44.60904" lon="5.17981">
        <ele>774.1</ele>
        <time>2024-05-17T10:51:17Z</time>
      </trkpt>
      <trkpt lat="44.60902" lon="5.17982">
        <ele>774.3</ele>
        <time>2024-05-17T10:51:18Z</time>
      </trkpt>
      <trkpt lat="44.60899" lon="5.17982">
        <ele>774.5</ele>
        <time>2024-05-17T10:51:19Z</time>
      </trkpt>
      <trkpt lat="44.60898" lon="5.17983">
        <ele>774.6</ele>
        <time>2024-05-17T10:51:20Z</time>
      </trkpt>
      <trkpt lat="44.60896" lon="5.17983">
        <ele>774.8</ele>
        <time>2024-05-17T10:51:21Z</time>
      </trkpt>
      <trkpt lat="44.60892" lon="5.17984">
        <ele>775.1</ele>
        <time>2024-05-17T10:51:22Z</time>
      </trkpt>
      <trkpt lat="44.60891" lon="5.17985">
        <ele>775.2</ele>
        <time>2024-05-17T10:51:23Z</time>
      </trkpt>
      <trkpt lat="44.60888" lon="5.17986">
        <ele>775.4</ele>
        <time>2024-05-17T10:51:24Z</time>
      </trkpt>
      <trkpt lat="44.60887" lon="5.17986">
        <ele>775.5</ele>
        <time>2024-05-17T10:51:25Z</time>
      </trkpt>
      <trkpt lat="44.60885" lon="5.17987">
        <ele>775.7</ele>
        <time>2024-05-17T10:51:26Z</time>
      </trkpt>
      <trkpt lat="44.60884" lon="5.17987">
        <ele>775.8</ele>
        <time>2024-05-17T10:51:27Z</time>
      </trkpt>
      <trkpt lat="44.60881" lon="5.17988">
        <ele>776.1</ele>
        <time>2024-05-17T10:51:28Z</time>
      </trkpt>
      <trkpt lat="44.6088" lon="5.17988">
        <ele>776.1</ele>
        <time>2024-05-17T10:51:29Z</time>
      </trkpt>
      <trkpt lat="44.60878" lon="5.17989">
        <ele>776.3</ele>
        <time>2024-05-17T10:51:30Z</time>
      </trkpt>
      <trkpt lat="44.60874" lon="5.1799">
        <ele>776.6</ele>
        <time>2024-05-17T10:51:31Z</time>
      </trkpt>
      <trkpt lat="44.60873" lon="5.1799">
        <ele>776.7</ele>
        <time>2024-05-17T10:51:32Z</time>
      </trkpt>
      <trkpt lat="44.60871" lon="5.17991">
        <ele>776.9</ele>
        <time>2024-05-17T10:51:33Z</time>
      </trkpt>
      <trkpt lat="44.60868" lon="5.17993">
        <ele>777.2</ele>
        <time>2024-05-17T10:51:34Z</time>
      </trkpt>
      <trkpt lat="44.60867" lon="5.17993">
        <ele>777.3</ele>
        <time>2024-05-17T10:51:35Z</time>
      </trkpt>
      <trkpt lat="44.60864" lon="5.17995">
        <ele>777.6</ele>
        <time>2024-05-17T10:51:36Z</time>
      </trkpt>
      <trkpt lat="44.60863" lon="5.17995">
        <ele>777.6</ele>
        <time>2024-05-17T10:51:37Z</time>
      </trkpt>
      <trkpt lat="44.6086" lon="5.17997">
        <ele>777.9</ele>
        <time>2024-05-17T10:51:38Z</time>
      </trkpt>
      <trkpt lat="44.6086" lon="5.17997">
        <ele>778</ele>
        <time>2024-05-17T10:51:39Z</time>
      </trkpt>
      <trkpt lat="44.60858" lon="5.17998">
        <ele>778.2</ele>
        <time>2024-05-17T10:51:40Z</time>
      </trkpt>
      <trkpt lat="44.60856" lon="5.17999">
        <ele>778.3</ele>
        <time>2024-05-17T10:51:41Z</time>
      </trkpt>
      <trkpt lat="44.60855" lon="5.18">
        <ele>778.5</ele>
        <time>2024-05-17T10:51:42Z</time>
      </trkpt>
      <trkpt lat="44.60853" lon="5.18001">
        <ele>778.6</ele>
        <time>2024-05-17T10:51:43Z</time>
      </trkpt>
      <trkpt lat="44.60851" lon="5.18004">
        <ele>778.9</ele>
        <time>2024-05-17T10:51:44Z</time>
      </trkpt>
      <trkpt lat="44.6085" lon="5.18004">
        <ele>779</ele>
        <time>2024-05-17T10:51:45Z</time>
      </trkpt>
      <trkpt lat="44.60849" lon="5.18005">
        <ele>779.1</ele>
        <time>2024-05-17T10:51:46Z</time>
      </trkpt>
      <trkpt lat="44.60846" lon="5.18008">
        <ele>779.4</ele>
        <time>2024-05-17T10:51:47Z</time>
      </trkpt>
      <trkpt lat="44.60845" lon="5.18008">
        <ele>779.5</ele>
        <time>2024-05-17T10:51:48Z</time>
      </trkpt>
      <trkpt lat="44.60842" lon="5.1801">
        <ele>779.8</ele>
        <time>2024-05-17T10:51:49Z</time>
      </trkpt>
      <trkpt lat="44.60841" lon="5.18011">
        <ele>779.9</ele>
        <time>2024-05-17T10:51:50Z</time>
      </trkpt>
      <trkpt lat="44.60839" lon="5.18012">
        <ele>780.2</ele>
        <time>2024-05-17T10:51:51Z</time>
      </trkpt>
      <trkpt lat="44.60838" lon="5.18013">
        <ele>780.3</ele>
        <time>2024-05-17T10:51:52Z</time>
      </trkpt>
      <trkpt lat="44.60835" lon="5.18014">
        <ele>780.6</ele>
        <time>2024-05-17T10:51:53Z</time>
      </trkpt>
      <trkpt lat="44.60834" lon="5.18015">
        <ele>780.7</ele>
        <time>2024-05-17T10:51:54Z</time>
      </trkpt>
      <trkpt lat="44.60832" lon="5.18016">
        <ele>780.9</ele>
        <time>2024-05-17T10:51:55Z</time>
      </trkpt>
      <trkpt lat="44.6083" lon="5.18017">
        <ele>781.1</ele>
        <time>2024-05-17T10:51:56Z</time>
      </trkpt>
      <trkpt lat="44.60828" lon="5.18018">
        <ele>781.3</ele>
        <time>2024-05-17T10:51:57Z</time>
      </trkpt>
      <trkpt lat="44.60826" lon="5.1802">
        <ele>781.6</ele>
        <time>2024-05-17T10:51:58Z</time>
      </trkpt>
      <trkpt lat="44.60825" lon="5.1802">
        <ele>781.7</ele>
        <time>2024-05-17T10:51:59Z</time>
      </trkpt>
      <trkpt lat="44.60822" lon="5.18021">
        <ele>782</ele>
        <time>2024-05-17T10:52:00Z</time>
      </trkpt>
      <trkpt lat="44.60821" lon="5.18022">
        <ele>782.1</ele>
        <time>2024-05-17T10:52:01Z</time>
      </trkpt>
      <trkpt lat="44.60819" lon="5.18023">
        <ele>782.3</ele>
        <time>2024-05-17T10:52:02Z</time>
      </trkpt>
      <trkpt lat="44.60816" lon="5.18024">
        <ele>782.6</ele>
        <time>2024-05-17T10:52:03Z</time>
      </trkpt>
      <trkpt lat="44.60815" lon="5.18025">
        <ele>782.7</ele>
        <time>2024-05-17T10:52:04Z</time>
      </trkpt>
      <trkpt lat="44.60813" lon="5.18026">
        <ele>782.9</ele>
        <time>2024-05-17T10:52:05Z</time>
      </trkpt>
      <trkpt lat="44.6081" lon="5.18027">
        <ele>783.2</ele>
        <time>2024-05-17T10:52:06Z</time>
      </trkpt>
      <trkpt lat="44.60809" lon="5.18028">
        <ele>783.3</ele>
        <time>2024-05-17T10:52:07Z</time>
      </trkpt>
      <trkpt lat="44.60806" lon="5.1803">
        <ele>783.6</ele>
        <time>2024-05-17T10:52:08Z</time>
      </trkpt>
      <trkpt lat="44.60805" lon="5.1803">
        <ele>783.7</ele>
        <time>2024-05-17T10:52:09Z</time>
      </trkpt>
      <trkpt lat="44.60802" lon="5.18032">
        <ele>784.1</ele>
        <time>2024-05-17T10:52:10Z</time>
      </trkpt>
      <trkpt lat="44.60801" lon="5.18032">
        <ele>784.2</ele>
        <time>2024-05-17T10:52:11Z</time>
      </trkpt>
      <trkpt lat="44.60799" lon="5.18034">
        <ele>784.4</ele>
        <time>2024-05-17T10:52:12Z</time>
      </trkpt>
      <trkpt lat="44.60797" lon="5.18036">
        <ele>784.7</ele>
        <time>2024-05-17T10:52:13Z</time>
      </trkpt>
      <trkpt lat="44.60796" lon="5.18037">
        <ele>784.7</ele>
        <time>2024-05-17T10:52:14Z</time>
      </trkpt>
      <trkpt lat="44.60794" lon="5.1804">
        <ele>785</ele>
        <time>2024-05-17T10:52:15Z</time>
      </trkpt>
      <trkpt lat="44.60793" lon="5.18041">
        <ele>785.1</ele>
        <time>2024-05-17T10:52:16Z</time>
      </trkpt>
      <trkpt lat="44.6079" lon="5.18043">
        <ele>785.5</ele>
        <time>2024-05-17T10:52:17Z</time>
      </trkpt>
      <trkpt lat="44.60789" lon="5.18044">
        <ele>785.6</ele>
        <time>2024-05-17T10:52:18Z</time>
      </trkpt>
      <trkpt lat="44.60786" lon="5.18046">
        <ele>785.8</ele>
        <time>2024-05-17T10:52:19Z</time>
      </trkpt>
      <trkpt lat="44.60786" lon="5.18046">
        <ele>785.9</ele>
        <time>2024-05-17T10:52:20Z</time>
      </trkpt>
      <trkpt lat="44.60783" lon="5.18049">
        <ele>786.2</ele>
        <time>2024-05-17T10:52:21Z</time>
      </trkpt>
      <trkpt lat="44.60782" lon="5.1805">
        <ele>786.3</ele>
        <time>2024-05-17T10:52:22Z</time>
      </trkpt>
      <trkpt lat="44.60781" lon="5.18051">
        <ele>786.5</ele>
        <time>2024-05-17T10:52:23Z</time>
      </trkpt>
      <trkpt lat="44.60779" lon="5.18054">
        <ele>786.7</ele>
        <time>2024-05-17T10:52:24Z</time>
      </trkpt>
      <trkpt lat="44.60778" lon="5.18056">
        <ele>786.9</ele>
        <time>2024-05-17T10:52:25Z</time>
      </trkpt>
      <trkpt lat="44.60776" lon="5.18058">
        <ele>787.1</ele>
        <time>2024-05-17T10:52:26Z</time>
      </trkpt>
      <trkpt lat="44.60775" lon="5.1806">
        <ele>787.3</ele>
        <time>2024-05-17T10:52:27Z</time>
      </trkpt>
      <trkpt lat="44.60773" lon="5.18062">
        <ele>787.6</ele>
        <time>2024-05-17T10:52:28Z</time>
      </trkpt>
      <trkpt lat="44.60771" lon="5.18065">
        <ele>787.9</ele>
        <time>2024-05-17T10:52:29Z</time>
      </trkpt>
      <trkpt lat="44.60771" lon="5.18066">
        <ele>788</ele>
        <time>2024-05-17T10:52:30Z</time>
      </trkpt>
      <trkpt lat="44.60769" lon="5.1807">
        <ele>788.2</ele>
        <time>2024-05-17T10:52:31Z</time>
      </trkpt>
      <trkpt lat="44.60769" lon="5.18071">
        <ele>788.4</ele>
        <time>2024-05-17T10:52:32Z</time>
      </trkpt>
      <trkpt lat="44.60768" lon="5.18074">
        <ele>788.6</ele>
        <time>2024-05-17T10:52:33Z</time>
      </trkpt>
      <trkpt lat="44.60767" lon="5.18076">
        <ele>788.8</ele>
        <time>2024-05-17T10:52:34Z</time>
      </trkpt>
      <trkpt lat="44.60765" lon="5.18079">
        <ele>789</ele>
        <time>2024-05-17T10:52:35Z</time>
      </trkpt>
      <trkpt lat="44.60765" lon="5.18081">
        <ele>789.1</ele>
        <time>2024-05-17T10:52:36Z</time>
      </trkpt>
      <trkpt lat="44.60763" lon="5.18084">
        <ele>789.4</ele>
        <time>2024-05-17T10:52:37Z</time>
      </trkpt>
      <trkpt lat="44.60763" lon="5.18085">
        <ele>789.5</ele>
        <time>2024-05-17T10:52:38Z</time>
      </trkpt>
      <trkpt lat="44.60761" lon="5.18089">
        <ele>789.9</ele>
        <time>2024-05-17T10:52:39Z</time>
      </trkpt>
      <trkpt lat="44.60761" lon="5.1809">
        <ele>790</ele>
        <time>2024-05-17T10:52:40Z</time>
      </trkpt>
      <trkpt lat="44.6076" lon="5.18093">
        <ele>790.2</ele>
        <time>2024-05-17T10:52:41Z</time>
      </trkpt>
      <trkpt lat="44.6076" lon="5.18095">
        <ele>790.3</ele>
        <time>2024-05-17T10:52:42Z</time>
      </trkpt>
      <trkpt lat="44.6076" lon="5.18097">
        <ele>790.5</ele>
        <time>2024-05-17T10:52:43Z</time>
      </trkpt>
      <trkpt lat="44.60761" lon="5.181">
        <ele>790.7</ele>
        <time>2024-05-17T10:52:44Z</time>
      </trkpt>
      <trkpt lat="44.60761" lon="5.18104">
        <ele>791</ele>
        <time>2024-05-17T10:52:45Z</time>
      </trkpt>
      <trkpt lat="44.60762" lon="5.18106">
        <ele>791.1</ele>
        <time>2024-05-17T10:52:46Z</time>
      </trkpt>
      <trkpt lat="44.60762" lon="5.18107">
        <ele>791.2</ele>
        <time>2024-05-17T10:52:47Z</time>
      </trkpt>
      <trkpt lat="44.60764" lon="5.1811">
        <ele>791.5</ele>
        <time>2024-05-17T10:52:48Z</time>
      </trkpt>
      <trkpt lat="44.60765" lon="5.18113">
        <ele>791.7</ele>
        <time>2024-05-17T10:52:49Z</time>
      </trkpt>
      <trkpt lat="44.60766" lon="5.18114">
        <ele>791.8</ele>
        <time>2024-05-17T10:52:50Z</time>
      </trkpt>
      <trkpt lat="44.60769" lon="5.18115">
        <ele>792.1</ele>
        <time>2024-05-17T10:52:51Z</time>
      </trkpt>
      <trkpt lat="44.6077" lon="5.18115">
        <ele>792.2</ele>
        <time>2024-05-17T10:52:52Z</time>
      </trkpt>
      <trkpt lat="44.60773" lon="5.18114">
        <ele>792.5</ele>
        <time>2024-05-17T10:52:53Z</time>
      </trkpt>
      <trkpt lat="44.60774" lon="5.18113">
        <ele>792.6</ele>
        <time>2024-05-17T10:52:54Z</time>
      </trkpt>
      <trkpt lat="44.60776" lon="5.18112">
        <ele>792.7</ele>
        <time>2024-05-17T10:52:55Z</time>
      </trkpt>
      <trkpt lat="44.60779" lon="5.1811">
        <ele>792.9</ele>
        <time>2024-05-17T10:52:56Z</time>
      </trkpt>
      <trkpt lat="44.60779" lon="5.18109">
        <ele>793</ele>
        <time>2024-05-17T10:52:57Z</time>
      </trkpt>
      <trkpt lat="44.60782" lon="5.18106">
        <ele>793.2</ele>
        <time>2024-05-17T10:52:58Z</time>
      </trkpt>
      <trkpt lat="44.60783" lon="5.18105">
        <ele>793.3</ele>
        <time>2024-05-17T10:52:59Z</time>
      </trkpt>
      <trkpt lat="44.60785" lon="5.18103">
        <ele>793.5</ele>
        <time>2024-05-17T10:53:00Z</time>
      </trkpt>
      <trkpt lat="44.60786" lon="5.18102">
        <ele>793.6</ele>
        <time>2024-05-17T10:53:01Z</time>
      </trkpt>
      <trkpt lat="44.60788" lon="5.18101">
        <ele>793.7</ele>
        <time>2024-05-17T10:53:02Z</time>
      </trkpt>
      <trkpt lat="44.60789" lon="5.181">
        <ele>793.9</ele>
        <time>2024-05-17T10:53:03Z</time>
      </trkpt>
      <trkpt lat="44.60792" lon="5.18098">
        <ele>794.1</ele>
        <time>2024-05-17T10:53:04Z</time>
      </trkpt>
      <trkpt lat="44.60793" lon="5.18098">
        <ele>794.1</ele>
        <time>2024-05-17T10:53:05Z</time>
      </trkpt>
      <trkpt lat="44.60795" lon="5.18097">
        <ele>794.3</ele>
        <time>2024-05-17T10:53:06Z</time>
      </trkpt>
      <trkpt lat="44.60797" lon="5.18096">
        <ele>794.4</ele>
        <time>2024-05-17T10:53:07Z</time>
      </trkpt>
      <trkpt lat="44.60798" lon="5.18095">
        <ele>794.6</ele>
        <time>2024-05-17T10:53:08Z</time>
      </trkpt>
      <trkpt lat="44.608" lon="5.18093">
        <ele>794.7</ele>
        <time>2024-05-17T10:53:09Z</time>
      </trkpt>
      <trkpt lat="44.60802" lon="5.18092">
        <ele>794.9</ele>
        <time>2024-05-17T10:53:10Z</time>
      </trkpt>
      <trkpt lat="44.60805" lon="5.18091">
        <ele>795.1</ele>
        <time>2024-05-17T10:53:11Z</time>
      </trkpt>
      <trkpt lat="44.60806" lon="5.18091">
        <ele>795.2</ele>
        <time>2024-05-17T10:53:12Z</time>
      </trkpt>
      <trkpt lat="44.60809" lon="5.1809">
        <ele>795.5</ele>
        <time>2024-05-17T10:53:13Z</time>
      </trkpt>
      <trkpt lat="44.6081" lon="5.1809">
        <ele>795.5</ele>
        <time>2024-05-17T10:53:14Z</time>
      </trkpt>
      <trkpt lat="44.60813" lon="5.18088">
        <ele>795.8</ele>
        <time>2024-05-17T10:53:15Z</time>
      </trkpt>
      <trkpt lat="44.60815" lon="5.18088">
        <ele>795.9</ele>
        <time>2024-05-17T10:53:16Z</time>
      </trkpt>
      <trkpt lat="44.60818" lon="5.18087">
        <ele>796.1</ele>
        <time>2024-05-17T10:53:17Z</time>
      </trkpt>
      <trkpt lat="44.60819" lon="5.18087">
        <ele>796.2</ele>
        <time>2024-05-17T10:53:18Z</time>
      </trkpt>
      <trkpt lat="44.60821" lon="5.18086">
        <ele>796.5</ele>
        <time>2024-05-17T10:53:19Z</time>
      </trkpt>
      <trkpt lat="44.60822" lon="5.18085">
        <ele>796.5</ele>
        <time>2024-05-17T10:53:20Z</time>
      </trkpt>
      <trkpt lat="44.60824" lon="5.18085">
        <ele>796.7</ele>
        <time>2024-05-17T10:53:21Z</time>
      </trkpt>
      <trkpt lat="44.60826" lon="5.18084">
        <ele>796.9</ele>
        <time>2024-05-17T10:53:22Z</time>
      </trkpt>
      <trkpt lat="44.60828" lon="5.18083">
        <ele>797</ele>
        <time>2024-05-17T10:53:23Z</time>
      </trkpt>
      <trkpt lat="44.60831" lon="5.18082">
        <ele>797.3</ele>
        <time>2024-05-17T10:53:24Z</time>
      </trkpt>
      <trkpt lat="44.60832" lon="5.18082">
        <ele>797.4</ele>
        <time>2024-05-17T10:53:25Z</time>
      </trkpt>
      <trkpt lat="44.60835" lon="5.18081">
        <ele>797.7</ele>
        <time>2024-05-17T10:53:26Z</time>
      </trkpt>
      <trkpt lat="44.60836" lon="5.18081">
        <ele>797.8</ele>
        <time>2024-05-17T10:53:27Z</time>
      </trkpt>
      <trkpt lat="44.60838" lon="5.1808">
        <ele>797.9</ele>
        <time>2024-05-17T10:53:28Z</time>
      </trkpt>
      <trkpt lat="44.6084" lon="5.18079">
        <ele>798.1</ele>
        <time>2024-05-17T10:53:29Z</time>
      </trkpt>
      <trkpt lat="44.60842" lon="5.18077">
        <ele>798.3</ele>
        <time>2024-05-17T10:53:30Z</time>
      </trkpt>
      <trkpt lat="44.60845" lon="5.18076">
        <ele>798.5</ele>
        <time>2024-05-17T10:53:31Z</time>
      </trkpt>
      <trkpt lat="44.60846" lon="5.18077">
        <ele>798.6</ele>
        <time>2024-05-17T10:53:32Z</time>
      </trkpt>
      <trkpt lat="44.6085" lon="5.18076">
        <ele>798.9</ele>
        <time>2024-05-17T10:53:33Z</time>
      </trkpt>
      <trkpt lat="44.60851" lon="5.18076">
        <ele>799</ele>
        <time>2024-05-17T10:53:34Z</time>
      </trkpt>
      <trkpt lat="44.60854" lon="5.18075">
        <ele>799.3</ele>
        <time>2024-05-17T10:53:35Z</time>
      </trkpt>
      <trkpt lat="44.60855" lon="5.18074">
        <ele>799.5</ele>
        <time>2024-05-17T10:53:36Z</time>
      </trkpt>
      <trkpt lat="44.60858" lon="5.18073">
        <ele>799.7</ele>
        <time>2024-05-17T10:53:37Z</time>
      </trkpt>
      <trkpt lat="44.60859" lon="5.18072">
        <ele>799.8</ele>
        <time>2024-05-17T10:53:38Z</time>
      </trkpt>
      <trkpt lat="44.60861" lon="5.18072">
        <ele>800</ele>
        <time>2024-05-17T10:53:39Z</time>
      </trkpt>
      <trkpt lat="44.60864" lon="5.18071">
        <ele>800.2</ele>
        <time>2024-05-17T10:53:40Z</time>
      </trkpt>
      <trkpt lat="44.60865" lon="5.18071">
        <ele>800.3</ele>
        <time>2024-05-17T10:53:41Z</time>
      </trkpt>
      <trkpt lat="44.60867" lon="5.18071">
        <ele>800.5</ele>
        <time>2024-05-17T10:53:42Z</time>
      </trkpt>
      <trkpt lat="44.60869" lon="5.1807">
        <ele>800.6</ele>
        <time>2024-05-17T10:53:43Z</time>
      </trkpt>
      <trkpt lat="44.60871" lon="5.1807">
        <ele>800.8</ele>
        <time>2024-05-17T10:53:44Z</time>
      </trkpt>
      <trkpt lat="44.60874" lon="5.18069">
        <ele>801.1</ele>
        <time>2024-05-17T10:53:45Z</time>
      </trkpt>
      <trkpt lat="44.60875" lon="5.18069">
        <ele>801.3</ele>
        <time>2024-05-17T10:53:46Z</time>
      </trkpt>
      <trkpt lat="44.60878" lon="5.18068">
        <ele>801.5</ele>
        <time>2024-05-17T10:53:47Z</time>
      </trkpt>
      <trkpt lat="44.60879" lon="5.18068">
        <ele>801.6</ele>
        <time>2024-05-17T10:53:48Z</time>
      </trkpt>
      <trkpt lat="44.60882" lon="5.18069">
        <ele>801.9</ele>
        <time>2024-05-17T10:53:49Z</time>
      </trkpt>
      <trkpt lat="44.60883" lon="5.18069">
        <ele>802</ele>
        <time>2024-05-17T10:53:50Z</time>
      </trkpt>
      <trkpt lat="44.60886" lon="5.1807">
        <ele>802.3</ele>
        <time>2024-05-17T10:53:51Z</time>
      </trkpt>
      <trkpt lat="44.60887" lon="5.1807">
        <ele>802.4</ele>
        <time>2024-05-17T10:53:52Z</time>
      </trkpt>
      <trkpt lat="44.60889" lon="5.18071">
        <ele>802.6</ele>
        <time>2024-05-17T10:53:53Z</time>
      </trkpt>
      <trkpt lat="44.60891" lon="5.18071">
        <ele>802.7</ele>
        <time>2024-05-17T10:53:54Z</time>
      </trkpt>
      <trkpt lat="44.60892" lon="5.18072">
        <ele>802.9</ele>
        <time>2024-05-17T10:53:55Z</time>
      </trkpt>
      <trkpt lat="44.60894" lon="5.18072">
        <ele>803.1</ele>
        <time>2024-05-17T10:53:56Z</time>
      </trkpt>
      <trkpt lat="44.60896" lon="5.18072">
        <ele>803.2</ele>
        <time>2024-05-17T10:53:57Z</time>
      </trkpt>
      <trkpt lat="44.60897" lon="5.18073">
        <ele>803.4</ele>
        <time>2024-05-17T10:53:58Z</time>
      </trkpt>
      <trkpt lat="44.60899" lon="5.18074">
        <ele>803.5</ele>
        <time>2024-05-17T10:53:59Z</time>
      </trkpt>
      <trkpt lat="44.60901" lon="5.18074">
        <ele>803.8</ele>
        <time>2024-05-17T10:54:00Z</time>
      </trkpt>
      <trkpt lat="44.60902" lon="5.18075">
        <ele>803.9</ele>
        <time>2024-05-17T10:54:01Z</time>
      </trkpt>
      <trkpt lat="44.60905" lon="5.18076">
        <ele>804.2</ele>
        <time>2024-05-17T10:54:02Z</time>
      </trkpt>
      <trkpt lat="44.60906" lon="5.18077">
        <ele>804.3</ele>
        <time>2024-05-17T10:54:03Z</time>
      </trkpt>
      <trkpt lat="44.60908" lon="5.18078">
        <ele>804.5</ele>
        <time>2024-05-17T10:54:04Z</time>
      </trkpt>
      <trkpt lat="44.6091" lon="5.18078">
        <ele>804.6</ele>
        <time>2024-05-17T10:54:05Z</time>
      </trkpt>
      <trkpt lat="44.60911" lon="5.18079">
        <ele>804.8</ele>
        <time>2024-05-17T10:54:06Z</time>
      </trkpt>
      <trkpt lat="44.60914" lon="5.1808">
        <ele>805.1</ele>
        <time>2024-05-17T10:54:07Z</time>
      </trkpt>
      <trkpt lat="44.60915" lon="5.18081">
        <ele>805.2</ele>
        <time>2024-05-17T10:54:08Z</time>
      </trkpt>
      <trkpt lat="44.60918" lon="5.18082">
        <ele>805.5</ele>
        <time>2024-05-17T10:54:09Z</time>
      </trkpt>
      <trkpt lat="44.60919" lon="5.18083">
        <ele>805.6</ele>
        <time>2024-05-17T10:54:10Z</time>
      </trkpt>
      <trkpt lat="44.60921" lon="5.18084">
        <ele>805.9</ele>
        <time>2024-05-17T10:54:11Z</time>
      </trkpt>
      <trkpt lat="44.60924" lon="5.18085">
        <ele>806.1</ele>
        <time>2024-05-17T10:54:12Z</time>
      </trkpt>
      <trkpt lat="44.60925" lon="5.18086">
        <ele>806.2</ele>
        <time>2024-05-17T10:54:13Z</time>
      </trkpt>
      <trkpt lat="44.60927" lon="5.18087">
        <ele>806.4</ele>
        <time>2024-05-17T10:54:14Z</time>
      </trkpt>
      <trkpt lat="44.6093" lon="5.18088">
        <ele>806.7</ele>
        <time>2024-05-17T10:54:15Z</time>
      </trkpt>
      <trkpt lat="44.60931" lon="5.18088">
        <ele>806.8</ele>
        <time>2024-05-17T10:54:16Z</time>
      </trkpt>
      <trkpt lat="44.60934" lon="5.1809">
        <ele>807.1</ele>
        <time>2024-05-17T10:54:17Z</time>
      </trkpt>
      <trkpt lat="44.60935" lon="5.1809">
        <ele>807.2</ele>
        <time>2024-05-17T10:54:18Z</time>
      </trkpt>
      <trkpt lat="44.60937" lon="5.18091">
        <ele>807.4</ele>
        <time>2024-05-17T10:54:19Z</time>
      </trkpt>
      <trkpt lat="44.60938" lon="5.18092">
        <ele>807.5</ele>
        <time>2024-05-17T10:54:20Z</time>
      </trkpt>
      <trkpt lat="44.6094" lon="5.18093">
        <ele>807.7</ele>
        <time>2024-05-17T10:54:21Z</time>
      </trkpt>
      <trkpt lat="44.60943" lon="5.18095">
        <ele>808</ele>
        <time>2024-05-17T10:54:22Z</time>
      </trkpt>
      <trkpt lat="44.60944" lon="5.18095">
        <ele>808.1</ele>
        <time>2024-05-17T10:54:23Z</time>
      </trkpt>
      <trkpt lat="44.60947" lon="5.18096">
        <ele>808.3</ele>
        <time>2024-05-17T10:54:24Z</time>
      </trkpt>
      <trkpt lat="44.60948" lon="5.18096">
        <ele>808.4</ele>
        <time>2024-05-17T10:54:25Z</time>
      </trkpt>
      <trkpt lat="44.60951" lon="5.18097">
        <ele>808.7</ele>
        <time>2024-05-17T10:54:26Z</time>
      </trkpt>
      <trkpt lat="44.60952" lon="5.18097">
        <ele>808.8</ele>
        <time>2024-05-17T10:54:27Z</time>
      </trkpt>
      <trkpt lat="44.60956" lon="5.18099">
        <ele>809.1</ele>
        <time>2024-05-17T10:54:28Z</time>
      </trkpt>
      <trkpt lat="44.60957" lon="5.181">
        <ele>809.2</ele>
        <time>2024-05-17T10:54:29Z</time>
      </trkpt>
      <trkpt lat="44.60959" lon="5.18101">
        <ele>809.5</ele>
        <time>2024-05-17T10:54:30Z</time>
      </trkpt>
      <trkpt lat="44.6096" lon="5.18102">
        <ele>809.6</ele>
        <time>2024-05-17T10:54:31Z</time>
      </trkpt>
      <trkpt lat="44.60962" lon="5.18102">
        <ele>809.7</ele>
        <time>2024-05-17T10:54:32Z</time>
      </trkpt>
      <trkpt lat="44.60963" lon="5.18103">
        <ele>809.9</ele>
        <time>2024-05-17T10:54:33Z</time>
      </trkpt>
      <trkpt lat="44.60965" lon="5.18104">
        <ele>810</ele>
        <time>2024-05-17T10:54:34Z</time>
      </trkpt>
      <trkpt lat="44.60967" lon="5.18105">
        <ele>810.2</ele>
        <time>2024-05-17T10:54:35Z</time>
      </trkpt>
      <trkpt lat="44.60969" lon="5.18106">
        <ele>810.4</ele>
        <time>2024-05-17T10:54:36Z</time>
      </trkpt>
      <trkpt lat="44.60972" lon="5.18109">
        <ele>810.8</ele>
        <time>2024-05-17T10:54:37Z</time>
      </trkpt>
      <trkpt lat="44.60973" lon="5.1811">
        <ele>810.9</ele>
        <time>2024-05-17T10:54:38Z</time>
      </trkpt>
      <trkpt lat="44.60976" lon="5.18112">
        <ele>811.2</ele>
        <time>2024-05-17T10:54:39Z</time>
      </trkpt>
      <trkpt lat="44.60977" lon="5.18113">
        <ele>811.3</ele>
        <time>2024-05-17T10:54:40Z</time>
      </trkpt>
      <trkpt lat="44.60979" lon="5.18115">
        <ele>811.5</ele>
        <time>2024-05-17T10:54:41Z</time>
      </trkpt>
      <trkpt lat="44.6098" lon="5.18116">
        <ele>811.7</ele>
        <time>2024-05-17T10:54:42Z</time>
      </trkpt>
      <trkpt lat="44.60982" lon="5.18116">
        <ele>811.8</ele>
        <time>2024-05-17T10:54:43Z</time>
      </trkpt>
      <trkpt lat="44.60983" lon="5.18117">
        <ele>812</ele>
        <time>2024-05-17T10:54:44Z</time>
      </trkpt>
      <trkpt lat="44.60985" lon="5.18117">
        <ele>812.2</ele>
        <time>2024-05-17T10:54:45Z</time>
      </trkpt>
      <trkpt lat="44.60987" lon="5.18118">
        <ele>812.4</ele>
        <time>2024-05-17T10:54:46Z</time>
      </trkpt>
      <trkpt lat="44.6099" lon="5.18119">
        <ele>812.7</ele>
        <time>2024-05-17T10:54:47Z</time>
      </trkpt>
      <trkpt lat="44.60991" lon="5.1812">
        <ele>812.8</ele>
        <time>2024-05-17T10:54:48Z</time>
      </trkpt>
      <trkpt lat="44.60994" lon="5.1812">
        <ele>813.1</ele>
        <time>2024-05-17T10:54:49Z</time>
      </trkpt>
      <trkpt lat="44.60995" lon="5.18121">
        <ele>813.1</ele>
        <time>2024-05-17T10:54:50Z</time>
      </trkpt>
      <trkpt lat="44.60998" lon="5.18121">
        <ele>813.4</ele>
        <time>2024-05-17T10:54:51Z</time>
      </trkpt>
      <trkpt lat="44.60999" lon="5.18121">
        <ele>813.5</ele>
        <time>2024-05-17T10:54:52Z</time>
      </trkpt>
      <trkpt lat="44.61002" lon="5.18121">
        <ele>813.8</ele>
        <time>2024-05-17T10:54:53Z</time>
      </trkpt>
      <trkpt lat="44.61003" lon="5.18121">
        <ele>813.9</ele>
        <time>2024-05-17T10:54:54Z</time>
      </trkpt>
      <trkpt lat="44.61005" lon="5.18121">
        <ele>814.1</ele>
        <time>2024-05-17T10:54:55Z</time>
      </trkpt>
      <trkpt lat="44.61008" lon="5.18121">
        <ele>814.3</ele>
        <time>2024-05-17T10:54:56Z</time>
      </trkpt>
      <trkpt lat="44.6101" lon="5.18121">
        <ele>814.4</ele>
        <time>2024-05-17T10:54:57Z</time>
      </trkpt>
      <trkpt lat="44.61012" lon="5.18121">
        <ele>814.6</ele>
        <time>2024-05-17T10:54:58Z</time>
      </trkpt>
      <trkpt lat="44.61015" lon="5.18122">
        <ele>814.9</ele>
        <time>2024-05-17T10:54:59Z</time>
      </trkpt>
      <trkpt lat="44.61016" lon="5.18123">
        <ele>815</ele>
        <time>2024-05-17T10:55:00Z</time>
      </trkpt>
      <trkpt lat="44.61019" lon="5.18124">
        <ele>815.3</ele>
        <time>2024-05-17T10:55:01Z</time>
      </trkpt>
      <trkpt lat="44.6102" lon="5.18125">
        <ele>815.4</ele>
        <time>2024-05-17T10:55:02Z</time>
      </trkpt>
      <trkpt lat="44.61023" lon="5.18126">
        <ele>815.6</ele>
        <time>2024-05-17T10:55:03Z</time>
      </trkpt>
      <trkpt lat="44.61024" lon="5.18126">
        <ele>815.7</ele>
        <time>2024-05-17T10:55:04Z</time>
      </trkpt>
      <trkpt lat="44.61026" lon="5.18127">
        <ele>815.9</ele>
        <time>2024-05-17T10:55:05Z</time>
      </trkpt>
      <trkpt lat="44.61029" lon="5.18128">
        <ele>816.2</ele>
        <time>2024-05-17T10:55:06Z</time>
      </trkpt>
      <trkpt lat="44.6103" lon="5.18128">
        <ele>816.2</ele>
        <time>2024-05-17T10:55:07Z</time>
      </trkpt>
      <trkpt lat="44.61032" lon="5.18129">
        <ele>816.4</ele>
        <time>2024-05-17T10:55:08Z</time>
      </trkpt>
      <trkpt lat="44.61034" lon="5.18129">
        <ele>816.7</ele>
        <time>2024-05-17T10:55:09Z</time>
      </trkpt>
      <trkpt lat="44.61035" lon="5.18129">
        <ele>816.8</ele>
        <time>2024-05-17T10:55:10Z</time>
      </trkpt>
      <trkpt lat="44.61038" lon="5.18129">
        <ele>817</ele>
        <time>2024-05-17T10:55:11Z</time>
      </trkpt>
      <trkpt lat="44.61039" lon="5.18129">
        <ele>817.1</ele>
        <time>2024-05-17T10:55:12Z</time>
      </trkpt>
      <trkpt lat="44.61042" lon="5.1813">
        <ele>817.4</ele>
        <time>2024-05-17T10:55:13Z</time>
      </trkpt>
      <trkpt lat="44.61044" lon="5.1813">
        <ele>817.5</ele>
        <time>2024-05-17T10:55:14Z</time>
      </trkpt>
      <trkpt lat="44.61047" lon="5.18131">
        <ele>817.8</ele>
        <time>2024-05-17T10:55:15Z</time>
      </trkpt>
      <trkpt lat="44.61048" lon="5.18131">
        <ele>817.9</ele>
        <time>2024-05-17T10:55:16Z</time>
      </trkpt>
      <trkpt lat="44.61051" lon="5.18132">
        <ele>818.2</ele>
        <time>2024-05-17T10:55:17Z</time>
      </trkpt>
      <trkpt lat="44.61052" lon="5.18132">
        <ele>818.3</ele>
        <time>2024-05-17T10:55:18Z</time>
      </trkpt>
      <trkpt lat="44.61054" lon="5.18132">
        <ele>818.5</ele>
        <time>2024-05-17T10:55:19Z</time>
      </trkpt>
      <trkpt lat="44.61057" lon="5.18132">
        <ele>818.7</ele>
        <time>2024-05-17T10:55:20Z</time>
      </trkpt>
      <trkpt lat="44.61058" lon="5.18133">
        <ele>818.8</ele>
        <time>2024-05-17T10:55:21Z</time>
      </trkpt>
      <trkpt lat="44.61061" lon="5.18133">
        <ele>819.1</ele>
        <time>2024-05-17T10:55:22Z</time>
      </trkpt>
      <trkpt lat="44.61062" lon="5.18133">
        <ele>819.2</ele>
        <time>2024-05-17T10:55:23Z</time>
      </trkpt>
      <trkpt lat="44.61065" lon="5.18134">
        <ele>819.5</ele>
        <time>2024-05-17T10:55:24Z</time>
      </trkpt>
      <trkpt lat="44.61066" lon="5.18135">
        <ele>819.6</ele>
        <time>2024-05-17T10:55:25Z</time>
      </trkpt>
      <trkpt lat="44.6107" lon="5.18136">
        <ele>820</ele>
        <time>2024-05-17T10:55:26Z</time>
      </trkpt>
      <trkpt lat="44.61071" lon="5.18136">
        <ele>820.1</ele>
        <time>2024-05-17T10:55:27Z</time>
      </trkpt>
      <trkpt lat="44.61074" lon="5.18138">
        <ele>820.3</ele>
        <time>2024-05-17T10:55:28Z</time>
      </trkpt>
      <trkpt lat="44.61075" lon="5.18138">
        <ele>820.5</ele>
        <time>2024-05-17T10:55:29Z</time>
      </trkpt>
      <trkpt lat="44.61078" lon="5.1814">
        <ele>820.8</ele>
        <time>2024-05-17T10:55:30Z</time>
      </trkpt>
      <trkpt lat="44.61079" lon="5.1814">
        <ele>820.9</ele>
        <time>2024-05-17T10:55:31Z</time>
      </trkpt>
      <trkpt lat="44.61082" lon="5.18141">
        <ele>821.2</ele>
        <time>2024-05-17T10:55:32Z</time>
      </trkpt>
      <trkpt lat="44.61083" lon="5.18141">
        <ele>821.3</ele>
        <time>2024-05-17T10:55:33Z</time>
      </trkpt>
      <trkpt lat="44.61087" lon="5.18142">
        <ele>821.7</ele>
        <time>2024-05-17T10:55:34Z</time>
      </trkpt>
      <trkpt lat="44.61088" lon="5.18142">
        <ele>821.8</ele>
        <time>2024-05-17T10:55:35Z</time>
      </trkpt>
      <trkpt lat="44.61091" lon="5.18143">
        <ele>822.1</ele>
        <time>2024-05-17T10:55:36Z</time>
      </trkpt>
      <trkpt lat="44.61092" lon="5.18143">
        <ele>822.2</ele>
        <time>2024-05-17T10:55:37Z</time>
      </trkpt>
      <trkpt lat="44.61094" lon="5.18144">
        <ele>822.4</ele>
        <time>2024-05-17T10:55:38Z</time>
      </trkpt>
      <trkpt lat="44.61097" lon="5.18145">
        <ele>822.7</ele>
        <time>2024-05-17T10:55:39Z</time>
      </trkpt>
      <trkpt lat="44.61098" lon="5.18146">
        <ele>822.8</ele>
        <time>2024-05-17T10:55:40Z</time>
      </trkpt>
      <trkpt lat="44.611" lon="5.18146">
        <ele>823.1</ele>
        <time>2024-05-17T10:55:41Z</time>
      </trkpt>
      <trkpt lat="44.61103" lon="5.18147">
        <ele>823.3</ele>
        <time>2024-05-17T10:55:42Z</time>
      </trkpt>
      <trkpt lat="44.61105" lon="5.18147">
        <ele>823.5</ele>
        <time>2024-05-17T10:55:43Z</time>
      </trkpt>
      <trkpt lat="44.61108" lon="5.18148">
        <ele>823.8</ele>
        <time>2024-05-17T10:55:44Z</time>
      </trkpt>
      <trkpt lat="44.61109" lon="5.18149">
        <ele>823.9</ele>
        <time>2024-05-17T10:55:45Z</time>
      </trkpt>
      <trkpt lat="44.61112" lon="5.18149">
        <ele>824.3</ele>
        <time>2024-05-17T10:55:46Z</time>
      </trkpt>
      <trkpt lat="44.61113" lon="5.1815">
        <ele>824.4</ele>
        <time>2024-05-17T10:55:47Z</time>
      </trkpt>
      <trkpt lat="44.61115" lon="5.1815">
        <ele>824.6</ele>
        <time>2024-05-17T10:55:48Z</time>
      </trkpt>
      <trkpt lat="44.61117" lon="5.18149">
        <ele>824.8</ele>
        <time>2024-05-17T10:55:49Z</time>
      </trkpt>
      <trkpt lat="44.6112" lon="5.18149">
        <ele>825.1</ele>
        <time>2024-05-17T10:55:50Z</time>
      </trkpt>
      <trkpt lat="44.61121" lon="5.18149">
        <ele>825.3</ele>
        <time>2024-05-17T10:55:51Z</time>
      </trkpt>
      <trkpt lat="44.61124" lon="5.18149">
        <ele>825.6</ele>
        <time>2024-05-17T10:55:52Z</time>
      </trkpt>
      <trkpt lat="44.61126" lon="5.18149">
        <ele>825.7</ele>
        <time>2024-05-17T10:55:53Z</time>
      </trkpt>
      <trkpt lat="44.61129" lon="5.18149">
        <ele>826</ele>
        <time>2024-05-17T10:55:54Z</time>
      </trkpt>
      <trkpt lat="44.6113" lon="5.1815">
        <ele>826.2</ele>
        <time>2024-05-17T10:55:55Z</time>
      </trkpt>
      <trkpt lat="44.61133" lon="5.18151">
        <ele>826.5</ele>
        <time>2024-05-17T10:55:56Z</time>
      </trkpt>
      <trkpt lat="44.61134" lon="5.18152">
        <ele>826.6</ele>
        <time>2024-05-17T10:55:57Z</time>
      </trkpt>
      <trkpt lat="44.61135" lon="5.18153">
        <ele>826.8</ele>
        <time>2024-05-17T10:55:58Z</time>
      </trkpt>
      <trkpt lat="44.61136" lon="5.18155">
        <ele>827</ele>
        <time>2024-05-17T10:55:59Z</time>
      </trkpt>
      <trkpt lat="44.61137" lon="5.18157">
        <ele>827.2</ele>
        <time>2024-05-17T10:56:00Z</time>
      </trkpt>
      <trkpt lat="44.61138" lon="5.1816">
        <ele>827.4</ele>
        <time>2024-05-17T10:56:01Z</time>
      </trkpt>
      <trkpt lat="44.61138" lon="5.18164">
        <ele>827.7</ele>
        <time>2024-05-17T10:56:02Z</time>
      </trkpt>
      <trkpt lat="44.61138" lon="5.18165">
        <ele>827.8</ele>
        <time>2024-05-17T10:56:03Z</time>
      </trkpt>
      <trkpt lat="44.61139" lon="5.18167">
        <ele>827.9</ele>
        <time>2024-05-17T10:56:04Z</time>
      </trkpt>
      <trkpt lat="44.61137" lon="5.1817">
        <ele>828.2</ele>
        <time>2024-05-17T10:56:05Z</time>
      </trkpt>
      <trkpt lat="44.61136" lon="5.18171">
        <ele>828.3</ele>
        <time>2024-05-17T10:56:06Z</time>
      </trkpt>
      <trkpt lat="44.61134" lon="5.18173">
        <ele>828.5</ele>
        <time>2024-05-17T10:56:07Z</time>
      </trkpt>
      <trkpt lat="44.61133" lon="5.18173">
        <ele>828.6</ele>
        <time>2024-05-17T10:56:08Z</time>
      </trkpt>
      <trkpt lat="44.6113" lon="5.18175">
        <ele>828.9</ele>
        <time>2024-05-17T10:56:09Z</time>
      </trkpt>
      <trkpt lat="44.61129" lon="5.18175">
        <ele>829</ele>
        <time>2024-05-17T10:56:10Z</time>
      </trkpt>
      <trkpt lat="44.61128" lon="5.18177">
        <ele>829.1</ele>
        <time>2024-05-17T10:56:11Z</time>
      </trkpt>
      <trkpt lat="44.61126" lon="5.18179">
        <ele>829.3</ele>
        <time>2024-05-17T10:56:12Z</time>
      </trkpt>
      <trkpt lat="44.61125" lon="5.1818">
        <ele>829.5</ele>
        <time>2024-05-17T10:56:13Z</time>
      </trkpt>
      <trkpt lat="44.61123" lon="5.18181">
        <ele>829.6</ele>
        <time>2024-05-17T10:56:14Z</time>
      </trkpt>
      <trkpt lat="44.61122" lon="5.18182">
        <ele>829.7</ele>
        <time>2024-05-17T10:56:15Z</time>
      </trkpt>
      <trkpt lat="44.6112" lon="5.18183">
        <ele>829.9</ele>
        <time>2024-05-17T10:56:16Z</time>
      </trkpt>
      <trkpt lat="44.61119" lon="5.18184">
        <ele>830</ele>
        <time>2024-05-17T10:56:17Z</time>
      </trkpt>
      <trkpt lat="44.61118" lon="5.18185">
        <ele>830.1</ele>
        <time>2024-05-17T10:56:18Z</time>
      </trkpt>
      <trkpt lat="44.61116" lon="5.18186">
        <ele>830.3</ele>
        <time>2024-05-17T10:56:19Z</time>
      </trkpt>
      <trkpt lat="44.61115" lon="5.18187">
        <ele>830.4</ele>
        <time>2024-05-17T10:56:20Z</time>
      </trkpt>
      <trkpt lat="44.61113" lon="5.18188">
        <ele>830.5</ele>
        <time>2024-05-17T10:56:21Z</time>
      </trkpt>
      <trkpt lat="44.61112" lon="5.18189">
        <ele>830.7</ele>
        <time>2024-05-17T10:56:22Z</time>
      </trkpt>
      <trkpt lat="44.61111" lon="5.1819">
        <ele>830.8</ele>
        <time>2024-05-17T10:56:23Z</time>
      </trkpt>
      <trkpt lat="44.61109" lon="5.18192">
        <ele>830.9</ele>
        <time>2024-05-17T10:56:24Z</time>
      </trkpt>
      <trkpt lat="44.61108" lon="5.18193">
        <ele>831.1</ele>
        <time>2024-05-17T10:56:25Z</time>
      </trkpt>
      <trkpt lat="44.61107" lon="5.18195">
        <ele>831.2</ele>
        <time>2024-05-17T10:56:26Z</time>
      </trkpt>
      <trkpt lat="44.61105" lon="5.18196">
        <ele>831.4</ele>
        <time>2024-05-17T10:56:27Z</time>
      </trkpt>
      <trkpt lat="44.61103" lon="5.18198">
        <ele>831.6</ele>
        <time>2024-05-17T10:56:28Z</time>
      </trkpt>
      <trkpt lat="44.61102" lon="5.18198">
        <ele>831.7</ele>
        <time>2024-05-17T10:56:29Z</time>
      </trkpt>
      <trkpt lat="44.61101" lon="5.18199">
        <ele>831.8</ele>
        <time>2024-05-17T10:56:30Z</time>
      </trkpt>
      <trkpt lat="44.61099" lon="5.182">
        <ele>832</ele>
        <time>2024-05-17T10:56:31Z</time>
      </trkpt>
      <trkpt lat="44.61098" lon="5.18201">
        <ele>832.1</ele>
        <time>2024-05-17T10:56:32Z</time>
      </trkpt>
      <trkpt lat="44.61096" lon="5.18202">
        <ele>832.3</ele>
        <time>2024-05-17T10:56:33Z</time>
      </trkpt>
      <trkpt lat="44.61095" lon="5.18203">
        <ele>832.4</ele>
        <time>2024-05-17T10:56:34Z</time>
      </trkpt>
      <trkpt lat="44.61093" lon="5.18205">
        <ele>832.6</ele>
        <time>2024-05-17T10:56:35Z</time>
      </trkpt>
      <trkpt lat="44.61092" lon="5.18206">
        <ele>832.7</ele>
        <time>2024-05-17T10:56:36Z</time>
      </trkpt>
      <trkpt lat="44.61091" lon="5.18208">
        <ele>832.9</ele>
        <time>2024-05-17T10:56:37Z</time>
      </trkpt>
      <trkpt lat="44.61089" lon="5.18209">
        <ele>833</ele>
        <time>2024-05-17T10:56:38Z</time>
      </trkpt>
      <trkpt lat="44.61088" lon="5.1821">
        <ele>833.2</ele>
        <time>2024-05-17T10:56:39Z</time>
      </trkpt>
      <trkpt lat="44.61086" lon="5.18211">
        <ele>833.3</ele>
        <time>2024-05-17T10:56:40Z</time>
      </trkpt>
      <trkpt lat="44.61085" lon="5.18212">
        <ele>833.4</ele>
        <time>2024-05-17T10:56:41Z</time>
      </trkpt>
      <trkpt lat="44.61083" lon="5.18213">
        <ele>833.6</ele>
        <time>2024-05-17T10:56:42Z</time>
      </trkpt>
      <trkpt lat="44.61082" lon="5.18214">
        <ele>833.7</ele>
        <time>2024-05-17T10:56:43Z</time>
      </trkpt>
      <trkpt lat="44.61081" lon="5.18215">
        <ele>833.8</ele>
        <time>2024-05-17T10:56:44Z</time>
      </trkpt>
      <trkpt lat="44.61079" lon="5.18216">
        <ele>834</ele>
        <time>2024-05-17T10:56:45Z</time>
      </trkpt>
      <trkpt lat="44.61078" lon="5.18217">
        <ele>834.1</ele>
        <time>2024-05-17T10:56:46Z</time>
      </trkpt>
      <trkpt lat="44.61076" lon="5.18218">
        <ele>834.3</ele>
        <time>2024-05-17T10:56:47Z</time>
      </trkpt>
      <trkpt lat="44.61074" lon="5.18219">
        <ele>834.4</ele>
        <time>2024-05-17T10:56:48Z</time>
      </trkpt>
      <trkpt lat="44.61073" lon="5.1822">
        <ele>834.5</ele>
        <time>2024-05-17T10:56:49Z</time>
      </trkpt>
      <trkpt lat="44.61071" lon="5.18222">
        <ele>834.8</ele>
        <time>2024-05-17T10:56:50Z</time>
      </trkpt>
      <trkpt lat="44.6107" lon="5.18223">
        <ele>834.8</ele>
        <time>2024-05-17T10:56:51Z</time>
      </trkpt>
      <trkpt lat="44.61068" lon="5.18224">
        <ele>835</ele>
        <time>2024-05-17T10:56:52Z</time>
      </trkpt>
      <trkpt lat="44.61067" lon="5.18225">
        <ele>835.1</ele>
        <time>2024-05-17T10:56:53Z</time>
      </trkpt>
      <trkpt lat="44.61065" lon="5.18226">
        <ele>835.2</ele>
        <time>2024-05-17T10:56:54Z</time>
      </trkpt>
      <trkpt lat="44.61064" lon="5.18227">
        <ele>835.4</ele>
        <time>2024-05-17T10:56:55Z</time>
      </trkpt>
      <trkpt lat="44.61062" lon="5.18228">
        <ele>835.5</ele>
        <time>2024-05-17T10:56:56Z</time>
      </trkpt>
      <trkpt lat="44.6106" lon="5.18229">
        <ele>835.7</ele>
        <time>2024-05-17T10:56:57Z</time>
      </trkpt>
      <trkpt lat="44.61059" lon="5.1823">
        <ele>835.8</ele>
        <time>2024-05-17T10:56:58Z</time>
      </trkpt>
      <trkpt lat="44.61057" lon="5.18232">
        <ele>836</ele>
        <time>2024-05-17T10:56:59Z</time>
      </trkpt>
      <trkpt lat="44.61056" lon="5.18233">
        <ele>836.1</ele>
        <time>2024-05-17T10:57:00Z</time>
      </trkpt>
      <trkpt lat="44.61054" lon="5.18235">
        <ele>836.3</ele>
        <time>2024-05-17T10:57:01Z</time>
      </trkpt>
      <trkpt lat="44.61053" lon="5.18236">
        <ele>836.4</ele>
        <time>2024-05-17T10:57:02Z</time>
      </trkpt>
      <trkpt lat="44.61051" lon="5.18237">
        <ele>836.5</ele>
        <time>2024-05-17T10:57:03Z</time>
      </trkpt>
      <trkpt lat="44.61049" lon="5.18239">
        <ele>836.8</ele>
        <time>2024-05-17T10:57:04Z</time>
      </trkpt>
      <trkpt lat="44.61048" lon="5.1824">
        <ele>836.8</ele>
        <time>2024-05-17T10:57:05Z</time>
      </trkpt>
      <trkpt lat="44.61046" lon="5.18242">
        <ele>837</ele>
        <time>2024-05-17T10:57:06Z</time>
      </trkpt>
      <trkpt lat="44.61044" lon="5.18244">
        <ele>837.3</ele>
        <time>2024-05-17T10:57:07Z</time>
      </trkpt>
      <trkpt lat="44.61043" lon="5.18245">
        <ele>837.3</ele>
        <time>2024-05-17T10:57:08Z</time>
      </trkpt>
      <trkpt lat="44.61041" lon="5.18248">
        <ele>837.6</ele>
        <time>2024-05-17T10:57:09Z</time>
      </trkpt>
      <trkpt lat="44.6104" lon="5.18248">
        <ele>837.6</ele>
        <time>2024-05-17T10:57:10Z</time>
      </trkpt>
      <trkpt lat="44.61038" lon="5.18251">
        <ele>837.9</ele>
        <time>2024-05-17T10:57:11Z</time>
      </trkpt>
      <trkpt lat="44.61037" lon="5.18252">
        <ele>838</ele>
        <time>2024-05-17T10:57:12Z</time>
      </trkpt>
      <trkpt lat="44.61035" lon="5.18253">
        <ele>838.1</ele>
        <time>2024-05-17T10:57:13Z</time>
      </trkpt>
      <trkpt lat="44.61033" lon="5.18255">
        <ele>838.4</ele>
        <time>2024-05-17T10:57:14Z</time>
      </trkpt>
      <trkpt lat="44.61032" lon="5.18256">
        <ele>838.5</ele>
        <time>2024-05-17T10:57:15Z</time>
      </trkpt>
      <trkpt lat="44.61029" lon="5.18258">
        <ele>838.7</ele>
        <time>2024-05-17T10:57:16Z</time>
      </trkpt>
      <trkpt lat="44.61028" lon="5.18259">
        <ele>838.8</ele>
        <time>2024-05-17T10:57:17Z</time>
      </trkpt>
      <trkpt lat="44.61026" lon="5.18261">
        <ele>839</ele>
        <time>2024-05-17T10:57:18Z</time>
      </trkpt>
      <trkpt lat="44.61025" lon="5.18261">
        <ele>839.1</ele>
        <time>2024-05-17T10:57:19Z</time>
      </trkpt>
      <trkpt lat="44.61022" lon="5.18263">
        <ele>839.3</ele>
        <time>2024-05-17T10:57:20Z</time>
      </trkpt>
      <trkpt lat="44.61021" lon="5.18264">
        <ele>839.4</ele>
        <time>2024-05-17T10:57:21Z</time>
      </trkpt>
      <trkpt lat="44.61018" lon="5.18266">
        <ele>839.7</ele>
        <time>2024-05-17T10:57:22Z</time>
      </trkpt>
      <trkpt lat="44.61018" lon="5.18266">
        <ele>839.7</ele>
        <time>2024-05-17T10:57:23Z</time>
      </trkpt>
      <trkpt lat="44.61015" lon="5.18268">
        <ele>840</ele>
        <time>2024-05-17T10:57:24Z</time>
      </trkpt>
      <trkpt lat="44.61014" lon="5.18268">
        <ele>840.1</ele>
        <time>2024-05-17T10:57:25Z</time>
      </trkpt>
      <trkpt lat="44.61011" lon="5.18271">
        <ele>840.4</ele>
        <time>2024-05-17T10:57:26Z</time>
      </trkpt>
      <trkpt lat="44.61011" lon="5.18272">
        <ele>840.4</ele>
        <time>2024-05-17T10:57:27Z</time>
      </trkpt>
      <trkpt lat="44.61008" lon="5.18274">
        <ele>840.7</ele>
        <time>2024-05-17T10:57:28Z</time>
      </trkpt>
      <trkpt lat="44.61007" lon="5.18275">
        <ele>840.8</ele>
        <time>2024-05-17T10:57:29Z</time>
      </trkpt>
      <trkpt lat="44.61006" lon="5.18275">
        <ele>840.9</ele>
        <time>2024-05-17T10:57:30Z</time>
      </trkpt>
      <trkpt lat="44.61003" lon="5.18276">
        <ele>841.2</ele>
        <time>2024-05-17T10:57:31Z</time>
      </trkpt>
      <trkpt lat="44.61002" lon="5.18277">
        <ele>841.3</ele>
        <time>2024-05-17T10:57:32Z</time>
      </trkpt>
      <trkpt lat="44.61001" lon="5.18278">
        <ele>841.4</ele>
        <time>2024-05-17T10:57:33Z</time>
      </trkpt>
      <trkpt lat="44.60999" lon="5.18279">
        <ele>841.6</ele>
        <time>2024-05-17T10:57:34Z</time>
      </trkpt>
      <trkpt lat="44.60997" lon="5.1828">
        <ele>841.8</ele>
        <time>2024-05-17T10:57:35Z</time>
      </trkpt>
      <trkpt lat="44.60996" lon="5.18281">
        <ele>841.9</ele>
        <time>2024-05-17T10:57:36Z</time>
      </trkpt>
      <trkpt lat="44.60993" lon="5.18283">
        <ele>842.2</ele>
        <time>2024-05-17T10:57:37Z</time>
      </trkpt>
      <trkpt lat="44.60992" lon="5.18284">
        <ele>842.3</ele>
        <time>2024-05-17T10:57:38Z</time>
      </trkpt>
      <trkpt lat="44.60991" lon="5.18285">
        <ele>842.5</ele>
        <time>2024-05-17T10:57:39Z</time>
      </trkpt>
      <trkpt lat="44.60989" lon="5.18287">
        <ele>842.7</ele>
        <time>2024-05-17T10:57:40Z</time>
      </trkpt>
      <trkpt lat="44.60988" lon="5.18289">
        <ele>842.9</ele>
        <time>2024-05-17T10:57:41Z</time>
      </trkpt>
      <trkpt lat="44.60985" lon="5.18291">
        <ele>843.2</ele>
        <time>2024-05-17T10:57:42Z</time>
      </trkpt>
      <trkpt lat="44.60985" lon="5.18292">
        <ele>843.3</ele>
        <time>2024-05-17T10:57:43Z</time>
      </trkpt>
      <trkpt lat="44.60982" lon="5.18295">
        <ele>843.5</ele>
        <time>2024-05-17T10:57:44Z</time>
      </trkpt>
      <trkpt lat="44.60982" lon="5.18295">
        <ele>843.6</ele>
        <time>2024-05-17T10:57:45Z</time>
      </trkpt>
      <trkpt lat="44.6098" lon="5.18297">
        <ele>843.8</ele>
        <time>2024-05-17T10:57:46Z</time>
      </trkpt>
      <trkpt lat="44.60978" lon="5.183">
        <ele>844.1</ele>
        <time>2024-05-17T10:57:47Z</time>
      </trkpt>
      <trkpt lat="44.60978" lon="5.18301">
        <ele>844.2</ele>
        <time>2024-05-17T10:57:48Z</time>
      </trkpt>
      <trkpt lat="44.60976" lon="5.18303">
        <ele>844.4</ele>
        <time>2024-05-17T10:57:49Z</time>
      </trkpt>
      <trkpt lat="44.60974" lon="5.18306">
        <ele>844.7</ele>
        <time>2024-05-17T10:57:50Z</time>
      </trkpt>
      <trkpt lat="44.60973" lon="5.18307">
        <ele>844.8</ele>
        <time>2024-05-17T10:57:51Z</time>
      </trkpt>
      <trkpt lat="44.60971" lon="5.18309">
        <ele>845</ele>
        <time>2024-05-17T10:57:52Z</time>
      </trkpt>
      <trkpt lat="44.6097" lon="5.1831">
        <ele>845.1</ele>
        <time>2024-05-17T10:57:53Z</time>
      </trkpt>
      <trkpt lat="44.60968" lon="5.18313">
        <ele>845.4</ele>
        <time>2024-05-17T10:57:54Z</time>
      </trkpt>
      <trkpt lat="44.60967" lon="5.18314">
        <ele>845.5</ele>
        <time>2024-05-17T10:57:55Z</time>
      </trkpt>
      <trkpt lat="44.60966" lon="5.18317">
        <ele>845.7</ele>
        <time>2024-05-17T10:57:56Z</time>
      </trkpt>
      <trkpt lat="44.60963" lon="5.18319">
        <ele>846</ele>
        <time>2024-05-17T10:57:57Z</time>
      </trkpt>
      <trkpt lat="44.60962" lon="5.18319">
        <ele>846.1</ele>
        <time>2024-05-17T10:57:58Z</time>
      </trkpt>
      <trkpt lat="44.6096" lon="5.18322">
        <ele>846.4</ele>
        <time>2024-05-17T10:57:59Z</time>
      </trkpt>
      <trkpt lat="44.60959" lon="5.18322">
        <ele>846.5</ele>
        <time>2024-05-17T10:58:00Z</time>
      </trkpt>
      <trkpt lat="44.60957" lon="5.18325">
        <ele>846.7</ele>
        <time>2024-05-17T10:58:01Z</time>
      </trkpt>
      <trkpt lat="44.60957" lon="5.18326">
        <ele>846.8</ele>
        <time>2024-05-17T10:58:02Z</time>
      </trkpt>
      <trkpt lat="44.60954" lon="5.18329">
        <ele>847.1</ele>
        <time>2024-05-17T10:58:03Z</time>
      </trkpt>
      <trkpt lat="44.60954" lon="5.18329">
        <ele>847.1</ele>
        <time>2024-05-17T10:58:04Z</time>
      </trkpt>
      <trkpt lat="44.60951" lon="5.18331">
        <ele>847.4</ele>
        <time>2024-05-17T10:58:05Z</time>
      </trkpt>
      <trkpt lat="44.6095" lon="5.18331">
        <ele>847.5</ele>
        <time>2024-05-17T10:58:06Z</time>
      </trkpt>
      <trkpt lat="44.60947" lon="5.18333">
        <ele>847.8</ele>
        <time>2024-05-17T10:58:07Z</time>
      </trkpt>
      <trkpt lat="44.60947" lon="5.18334">
        <ele>847.9</ele>
        <time>2024-05-17T10:58:08Z</time>
      </trkpt>
      <trkpt lat="44.60944" lon="5.18336">
        <ele>848.2</ele>
        <time>2024-05-17T10:58:09Z</time>
      </trkpt>
      <trkpt lat="44.60943" lon="5.18337">
        <ele>848.3</ele>
        <time>2024-05-17T10:58:10Z</time>
      </trkpt>
      <trkpt lat="44.60941" lon="5.18338">
        <ele>848.5</ele>
        <time>2024-05-17T10:58:11Z</time>
      </trkpt>
      <trkpt lat="44.60939" lon="5.1834">
        <ele>848.7</ele>
        <time>2024-05-17T10:58:12Z</time>
      </trkpt>
      <trkpt lat="44.60938" lon="5.18341">
        <ele>848.8</ele>
        <time>2024-05-17T10:58:13Z</time>
      </trkpt>
      <trkpt lat="44.60935" lon="5.18343">
        <ele>849.1</ele>
        <time>2024-05-17T10:58:14Z</time>
      </trkpt>
      <trkpt lat="44.60934" lon="5.18343">
        <ele>849.2</ele>
        <time>2024-05-17T10:58:15Z</time>
      </trkpt>
      <trkpt lat="44.60932" lon="5.18345">
        <ele>849.5</ele>
        <time>2024-05-17T10:58:16Z</time>
      </trkpt>
      <trkpt lat="44.60931" lon="5.18346">
        <ele>849.6</ele>
        <time>2024-05-17T10:58:17Z</time>
      </trkpt>
      <trkpt lat="44.6093" lon="5.18347">
        <ele>849.8</ele>
        <time>2024-05-17T10:58:18Z</time>
      </trkpt>
      <trkpt lat="44.60928" lon="5.18349">
        <ele>850</ele>
        <time>2024-05-17T10:58:19Z</time>
      </trkpt>
      <trkpt lat="44.60926" lon="5.1835">
        <ele>850.2</ele>
        <time>2024-05-17T10:58:20Z</time>
      </trkpt>
      <trkpt lat="44.60923" lon="5.18352">
        <ele>850.5</ele>
        <time>2024-05-17T10:58:21Z</time>
      </trkpt>
      <trkpt lat="44.60923" lon="5.18352">
        <ele>850.6</ele>
        <time>2024-05-17T10:58:22Z</time>
      </trkpt>
      <trkpt lat="44.6092" lon="5.18355">
        <ele>850.9</ele>
        <time>2024-05-17T10:58:23Z</time>
      </trkpt>
      <trkpt lat="44.6092" lon="5.18356">
        <ele>850.9</ele>
        <time>2024-05-17T10:58:24Z</time>
      </trkpt>
      <trkpt lat="44.60918" lon="5.18357">
        <ele>851.1</ele>
        <time>2024-05-17T10:58:25Z</time>
      </trkpt>
      <trkpt lat="44.60916" lon="5.18358">
        <ele>851.3</ele>
        <time>2024-05-17T10:58:26Z</time>
      </trkpt>
      <trkpt lat="44.60914" lon="5.18359">
        <ele>851.6</ele>
        <time>2024-05-17T10:58:27Z</time>
      </trkpt>
      <trkpt lat="44.60913" lon="5.1836">
        <ele>851.7</ele>
        <time>2024-05-17T10:58:28Z</time>
      </trkpt>
      <trkpt lat="44.60911" lon="5.18361">
        <ele>851.9</ele>
        <time>2024-05-17T10:58:29Z</time>
      </trkpt>
      <trkpt lat="44.60909" lon="5.18364">
        <ele>852.2</ele>
        <time>2024-05-17T10:58:30Z</time>
      </trkpt>
      <trkpt lat="44.60908" lon="5.18365">
        <ele>852.3</ele>
        <time>2024-05-17T10:58:31Z</time>
      </trkpt>
      <trkpt lat="44.60907" lon="5.18367">
        <ele>852.5</ele>
        <time>2024-05-17T10:58:32Z</time>
      </trkpt>
      <trkpt lat="44.60906" lon="5.18369">
        <ele>852.7</ele>
        <time>2024-05-17T10:58:33Z</time>
      </trkpt>
      <trkpt lat="44.60904" lon="5.1837">
        <ele>852.9</ele>
        <time>2024-05-17T10:58:34Z</time>
      </trkpt>
      <trkpt lat="44.60903" lon="5.18372">
        <ele>853.1</ele>
        <time>2024-05-17T10:58:35Z</time>
      </trkpt>
      <trkpt lat="44.60902" lon="5.18374">
        <ele>853.3</ele>
        <time>2024-05-17T10:58:36Z</time>
      </trkpt>
      <trkpt lat="44.60901" lon="5.18376">
        <ele>853.5</ele>
        <time>2024-05-17T10:58:37Z</time>
      </trkpt>
      <trkpt lat="44.609" lon="5.18378">
        <ele>853.7</ele>
        <time>2024-05-17T10:58:38Z</time>
      </trkpt>
      <trkpt lat="44.60899" lon="5.18382">
        <ele>854</ele>
        <time>2024-05-17T10:58:39Z</time>
      </trkpt>
      <trkpt lat="44.60899" lon="5.18383">
        <ele>854.1</ele>
        <time>2024-05-17T10:58:40Z</time>
      </trkpt>
      <trkpt lat="44.60898" lon="5.18386">
        <ele>854.3</ele>
        <time>2024-05-17T10:58:41Z</time>
      </trkpt>
      <trkpt lat="44.60898" lon="5.18388">
        <ele>854.5</ele>
        <time>2024-05-17T10:58:42Z</time>
      </trkpt>
      <trkpt lat="44.60898" lon="5.18391">
        <ele>854.7</ele>
        <time>2024-05-17T10:58:43Z</time>
      </trkpt>
      <trkpt lat="44.60899" lon="5.18393">
        <ele>854.9</ele>
        <time>2024-05-17T10:58:44Z</time>
      </trkpt>
      <trkpt lat="44.60901" lon="5.18395">
        <ele>855.1</ele>
        <time>2024-05-17T10:58:45Z</time>
      </trkpt>
      <trkpt lat="44.60902" lon="5.18396">
        <ele>855.2</ele>
        <time>2024-05-17T10:58:46Z</time>
      </trkpt>
      <trkpt lat="44.60904" lon="5.18397">
        <ele>855.4</ele>
        <time>2024-05-17T10:58:47Z</time>
      </trkpt>
      <trkpt lat="44.60905" lon="5.18399">
        <ele>855.6</ele>
        <time>2024-05-17T10:58:48Z</time>
      </trkpt>
      <trkpt lat="44.60906" lon="5.184">
        <ele>855.7</ele>
        <time>2024-05-17T10:58:49Z</time>
      </trkpt>
      <trkpt lat="44.60908" lon="5.18402">
        <ele>855.9</ele>
        <time>2024-05-17T10:58:50Z</time>
      </trkpt>
      <trkpt lat="44.60909" lon="5.18403">
        <ele>856.1</ele>
        <time>2024-05-17T10:58:51Z</time>
      </trkpt>
      <trkpt lat="44.60911" lon="5.18404">
        <ele>856.2</ele>
        <time>2024-05-17T10:58:52Z</time>
      </trkpt>
      <trkpt lat="44.60912" lon="5.18405">
        <ele>856.4</ele>
        <time>2024-05-17T10:58:53Z</time>
      </trkpt>
      <trkpt lat="44.60914" lon="5.18405">
        <ele>856.5</ele>
        <time>2024-05-17T10:58:54Z</time>
      </trkpt>
      <trkpt lat="44.60916" lon="5.18406">
        <ele>856.6</ele>
        <time>2024-05-17T10:58:55Z</time>
      </trkpt>
      <trkpt lat="44.60917" lon="5.18407">
        <ele>856.8</ele>
        <time>2024-05-17T10:58:56Z</time>
      </trkpt>
      <trkpt lat="44.60919" lon="5.18407">
        <ele>856.9</ele>
        <time>2024-05-17T10:58:57Z</time>
      </trkpt>
      <trkpt lat="44.60921" lon="5.18407">
        <ele>857.1</ele>
        <time>2024-05-17T10:58:58Z</time>
      </trkpt>
      <trkpt lat="44.60922" lon="5.18408">
        <ele>857.2</ele>
        <time>2024-05-17T10:58:59Z</time>
      </trkpt>
      <trkpt lat="44.60924" lon="5.18408">
        <ele>857.3</ele>
        <time>2024-05-17T10:59:00Z</time>
      </trkpt>
      <trkpt lat="44.60926" lon="5.18408">
        <ele>857.5</ele>
        <time>2024-05-17T10:59:01Z</time>
      </trkpt>
      <trkpt lat="44.60927" lon="5.18409">
        <ele>857.6</ele>
        <time>2024-05-17T10:59:02Z</time>
      </trkpt>
      <trkpt lat="44.60929" lon="5.18409">
        <ele>857.7</ele>
        <time>2024-05-17T10:59:03Z</time>
      </trkpt>
      <trkpt lat="44.60931" lon="5.1841">
        <ele>857.9</ele>
        <time>2024-05-17T10:59:04Z</time>
      </trkpt>
      <trkpt lat="44.60932" lon="5.1841">
        <ele>858</ele>
        <time>2024-05-17T10:59:05Z</time>
      </trkpt>
      <trkpt lat="44.60934" lon="5.1841">
        <ele>858.1</ele>
        <time>2024-05-17T10:59:06Z</time>
      </trkpt>
      <trkpt lat="44.60936" lon="5.1841">
        <ele>858.2</ele>
        <time>2024-05-17T10:59:07Z</time>
      </trkpt>
      <trkpt lat="44.60938" lon="5.18411">
        <ele>858.4</ele>
        <time>2024-05-17T10:59:08Z</time>
      </trkpt>
      <trkpt lat="44.6094" lon="5.18411">
        <ele>858.5</ele>
        <time>2024-05-17T10:59:09Z</time>
      </trkpt>
      <trkpt lat="44.60942" lon="5.18411">
        <ele>858.7</ele>
        <time>2024-05-17T10:59:10Z</time>
      </trkpt>
      <trkpt lat="44.60943" lon="5.18411">
        <ele>858.8</ele>
        <time>2024-05-17T10:59:11Z</time>
      </trkpt>
      <trkpt lat="44.60945" lon="5.18411">
        <ele>858.9</ele>
        <time>2024-05-17T10:59:12Z</time>
      </trkpt>
      <trkpt lat="44.60947" lon="5.1841">
        <ele>859.1</ele>
        <time>2024-05-17T10:59:13Z</time>
      </trkpt>
      <trkpt lat="44.60948" lon="5.1841">
        <ele>859.2</ele>
        <time>2024-05-17T10:59:14Z</time>
      </trkpt>
      <trkpt lat="44.6095" lon="5.1841">
        <ele>859.3</ele>
        <time>2024-05-17T10:59:15Z</time>
      </trkpt>
      <trkpt lat="44.60952" lon="5.18409">
        <ele>859.5</ele>
        <time>2024-05-17T10:59:16Z</time>
      </trkpt>
      <trkpt lat="44.60953" lon="5.18408">
        <ele>859.6</ele>
        <time>2024-05-17T10:59:17Z</time>
      </trkpt>
      <trkpt lat="44.60956" lon="5.18407">
        <ele>859.8</ele>
        <time>2024-05-17T10:59:18Z</time>
      </trkpt>
      <trkpt lat="44.60957" lon="5.18407">
        <ele>859.9</ele>
        <time>2024-05-17T10:59:19Z</time>
      </trkpt>
      <trkpt lat="44.60959" lon="5.18406">
        <ele>860.1</ele>
        <time>2024-05-17T10:59:20Z</time>
      </trkpt>
      <trkpt lat="44.6096" lon="5.18406">
        <ele>860.2</ele>
        <time>2024-05-17T10:59:21Z</time>
      </trkpt>
      <trkpt lat="44.60963" lon="5.18405">
        <ele>860.4</ele>
        <time>2024-05-17T10:59:22Z</time>
      </trkpt>
      <trkpt lat="44.60964" lon="5.18405">
        <ele>860.5</ele>
        <time>2024-05-17T10:59:23Z</time>
      </trkpt>
      <trkpt lat="44.60965" lon="5.18405">
        <ele>860.6</ele>
        <time>2024-05-17T10:59:24Z</time>
      </trkpt>
      <trkpt lat="44.60968" lon="5.18404">
        <ele>860.8</ele>
        <time>2024-05-17T10:59:25Z</time>
      </trkpt>
      <trkpt lat="44.6097" lon="5.18403">
        <ele>860.9</ele>
        <time>2024-05-17T10:59:26Z</time>
      </trkpt>
      <trkpt lat="44.60972" lon="5.18401">
        <ele>861.1</ele>
        <time>2024-05-17T10:59:27Z</time>
      </trkpt>
      <trkpt lat="44.60973" lon="5.18401">
        <ele>861.2</ele>
        <time>2024-05-17T10:59:28Z</time>
      </trkpt>
      <trkpt lat="44.60976" lon="5.18399">
        <ele>861.4</ele>
        <time>2024-05-17T10:59:29Z</time>
      </trkpt>
      <trkpt lat="44.60977" lon="5.18399">
        <ele>861.5</ele>
        <time>2024-05-17T10:59:30Z</time>
      </trkpt>
      <trkpt lat="44.60979" lon="5.18398">
        <ele>861.7</ele>
        <time>2024-05-17T10:59:31Z</time>
      </trkpt>
      <trkpt lat="44.60981" lon="5.18397">
        <ele>861.8</ele>
        <time>2024-05-17T10:59:32Z</time>
      </trkpt>
      <trkpt lat="44.60984" lon="5.18396">
        <ele>862</ele>
        <time>2024-05-17T10:59:33Z</time>
      </trkpt>
      <trkpt lat="44.60984" lon="5.18395">
        <ele>862.1</ele>
        <time>2024-05-17T10:59:34Z</time>
      </trkpt>
      <trkpt lat="44.60986" lon="5.18395">
        <ele>862.2</ele>
        <time>2024-05-17T10:59:35Z</time>
      </trkpt>
      <trkpt lat="44.60988" lon="5.18394">
        <ele>862.3</ele>
        <time>2024-05-17T10:59:36Z</time>
      </trkpt>
      <trkpt lat="44.6099" lon="5.18393">
        <ele>862.5</ele>
        <time>2024-05-17T10:59:37Z</time>
      </trkpt>
      <trkpt lat="44.60991" lon="5.18393">
        <ele>862.6</ele>
        <time>2024-05-17T10:59:38Z</time>
      </trkpt>
      <trkpt lat="44.60994" lon="5.18392">
        <ele>862.8</ele>
        <time>2024-05-17T10:59:39Z</time>
      </trkpt>
      <trkpt lat="44.60995" lon="5.18392">
        <ele>862.9</ele>
        <time>2024-05-17T10:59:40Z</time>
      </trkpt>
      <trkpt lat="44.60997" lon="5.18392">
        <ele>863</ele>
        <time>2024-05-17T10:59:41Z</time>
      </trkpt>
      <trkpt lat="44.60999" lon="5.18392">
        <ele>863.1</ele>
        <time>2024-05-17T10:59:42Z</time>
      </trkpt>
      <trkpt lat="44.61001" lon="5.18392">
        <ele>863.3</ele>
        <time>2024-05-17T10:59:43Z</time>
      </trkpt>
      <trkpt lat="44.61002" lon="5.18392">
        <ele>863.4</ele>
        <time>2024-05-17T10:59:44Z</time>
      </trkpt>
      <trkpt lat="44.61005" lon="5.18391">
        <ele>863.7</ele>
        <time>2024-05-17T10:59:45Z</time>
      </trkpt>
      <trkpt lat="44.61006" lon="5.1839">
        <ele>863.7</ele>
        <time>2024-05-17T10:59:46Z</time>
      </trkpt>
      <trkpt lat="44.61009" lon="5.1839">
        <ele>864</ele>
        <time>2024-05-17T10:59:47Z</time>
      </trkpt>
      <trkpt lat="44.6101" lon="5.18391">
        <ele>864.1</ele>
        <time>2024-05-17T10:59:48Z</time>
      </trkpt>
      <trkpt lat="44.61012" lon="5.18391">
        <ele>864.2</ele>
        <time>2024-05-17T10:59:49Z</time>
      </trkpt>
      <trkpt lat="44.61014" lon="5.18392">
        <ele>864.4</ele>
        <time>2024-05-17T10:59:50Z</time>
      </trkpt>
      <trkpt lat="44.61016" lon="5.18392">
        <ele>864.6</ele>
        <time>2024-05-17T10:59:51Z</time>
      </trkpt>
      <trkpt lat="44.61018" lon="5.18392">
        <ele>864.8</ele>
        <time>2024-05-17T10:59:52Z</time>
      </trkpt>
      <trkpt lat="44.61019" lon="5.18392">
        <ele>864.8</ele>
        <time>2024-05-17T10:59:53Z</time>
      </trkpt>
      <trkpt lat="44.61022" lon="5.18391">
        <ele>865.1</ele>
        <time>2024-05-17T10:59:54Z</time>
      </trkpt>
      <trkpt lat="44.61023" lon="5.18391">
        <ele>865.2</ele>
        <time>2024-05-17T10:59:55Z</time>
      </trkpt>
      <trkpt lat="44.61025" lon="5.18391">
        <ele>865.4</ele>
        <time>2024-05-17T10:59:56Z</time>
      </trkpt>
      <trkpt lat="44.61028" lon="5.1839">
        <ele>865.6</ele>
        <time>2024-05-17T10:59:57Z</time>
      </trkpt>
      <trkpt lat="44.61029" lon="5.1839">
        <ele>865.7</ele>
        <time>2024-05-17T10:59:58Z</time>
      </trkpt>
      <trkpt lat="44.61031" lon="5.18389">
        <ele>866</ele>
        <time>2024-05-17T10:59:59Z</time>
      </trkpt>
      <trkpt lat="44.61034" lon="5.18389">
        <ele>866.2</ele>
        <time>2024-05-17T11:00:00Z</time>
      </trkpt>
      <trkpt lat="44.61035" lon="5.18389">
        <ele>866.4</ele>
        <time>2024-05-17T11:00:01Z</time>
      </trkpt>
      <trkpt lat="44.61037" lon="5.18389">
        <ele>866.6</ele>
        <time>2024-05-17T11:00:02Z</time>
      </trkpt>
      <trkpt lat="44.61039" lon="5.18388">
        <ele>866.8</ele>
        <time>2024-05-17T11:00:03Z</time>
      </trkpt>
      <trkpt lat="44.61042" lon="5.18388">
        <ele>867</ele>
        <time>2024-05-17T11:00:04Z</time>
      </trkpt>
      <trkpt lat="44.61043" lon="5.18388">
        <ele>867.1</ele>
        <time>2024-05-17T11:00:05Z</time>
      </trkpt>
      <trkpt lat="44.61045" lon="5.18388">
        <ele>867.3</ele>
        <time>2024-05-17T11:00:06Z</time>
      </trkpt>
      <trkpt lat="44.61048" lon="5.18387">
        <ele>867.6</ele>
        <time>2024-05-17T11:00:07Z</time>
      </trkpt>
      <trkpt lat="44.61049" lon="5.18387">
        <ele>867.7</ele>
        <time>2024-05-17T11:00:08Z</time>
      </trkpt>
      <trkpt lat="44.61052" lon="5.18387">
        <ele>868</ele>
        <time>2024-05-17T11:00:09Z</time>
      </trkpt>
      <trkpt lat="44.61053" lon="5.18386">
        <ele>868.1</ele>
        <time>2024-05-17T11:00:10Z</time>
      </trkpt>
      <trkpt lat="44.61055" lon="5.18385">
        <ele>868.4</ele>
        <time>2024-05-17T11:00:11Z</time>
      </trkpt>
      <trkpt lat="44.61056" lon="5.18385">
        <ele>868.5</ele>
        <time>2024-05-17T11:00:12Z</time>
      </trkpt>
      <trkpt lat="44.61058" lon="5.18384">
        <ele>868.7</ele>
        <time>2024-05-17T11:00:13Z</time>
      </trkpt>
      <trkpt lat="44.61061" lon="5.18382">
        <ele>868.9</ele>
        <time>2024-05-17T11:00:14Z</time>
      </trkpt>
      <trkpt lat="44.61062" lon="5.18382">
        <ele>869</ele>
        <time>2024-05-17T11:00:15Z</time>
      </trkpt>
      <trkpt lat="44.61065" lon="5.18381">
        <ele>869.3</ele>
        <time>2024-05-17T11:00:16Z</time>
      </trkpt>
      <trkpt lat="44.61066" lon="5.18381">
        <ele>869.4</ele>
        <time>2024-05-17T11:00:17Z</time>
      </trkpt>
      <trkpt lat="44.61069" lon="5.1838">
        <ele>869.6</ele>
        <time>2024-05-17T11:00:18Z</time>
      </trkpt>
      <trkpt lat="44.6107" lon="5.1838">
        <ele>869.7</ele>
        <time>2024-05-17T11:00:19Z</time>
      </trkpt>
      <trkpt lat="44.61072" lon="5.18379">
        <ele>869.9</ele>
        <time>2024-05-17T11:00:20Z</time>
      </trkpt>
      <trkpt lat="44.61074" lon="5.18378">
        <ele>870.1</ele>
        <time>2024-05-17T11:00:21Z</time>
      </trkpt>
      <trkpt lat="44.61076" lon="5.18377">
        <ele>870.2</ele>
        <time>2024-05-17T11:00:22Z</time>
      </trkpt>
      <trkpt lat="44.61079" lon="5.18375">
        <ele>870.5</ele>
        <time>2024-05-17T11:00:23Z</time>
      </trkpt>
      <trkpt lat="44.61079" lon="5.18375">
        <ele>870.5</ele>
        <time>2024-05-17T11:00:24Z</time>
      </trkpt>
      <trkpt lat="44.61082" lon="5.18374">
        <ele>870.7</ele>
        <time>2024-05-17T11:00:25Z</time>
      </trkpt>
      <trkpt lat="44.61083" lon="5.18374">
        <ele>870.8</ele>
        <time>2024-05-17T11:00:26Z</time>
      </trkpt>
      <trkpt lat="44.61086" lon="5.18373">
        <ele>871</ele>
        <time>2024-05-17T11:00:27Z</time>
      </trkpt>
      <trkpt lat="44.61087" lon="5.18372">
        <ele>871.1</ele>
        <time>2024-05-17T11:00:28Z</time>
      </trkpt>
      <trkpt lat="44.6109" lon="5.18371">
        <ele>871.3</ele>
        <time>2024-05-17T11:00:29Z</time>
      </trkpt>
      <trkpt lat="44.61091" lon="5.18371">
        <ele>871.4</ele>
        <time>2024-05-17T11:00:30Z</time>
      </trkpt>
      <trkpt lat="44.61093" lon="5.1837">
        <ele>871.6</ele>
        <time>2024-05-17T11:00:31Z</time>
      </trkpt>
      <trkpt lat="44.61094" lon="5.1837">
        <ele>871.7</ele>
        <time>2024-05-17T11:00:32Z</time>
      </trkpt>
      <trkpt lat="44.61097" lon="5.18368">
        <ele>871.9</ele>
        <time>2024-05-17T11:00:33Z</time>
      </trkpt>
      <trkpt lat="44.61098" lon="5.18368">
        <ele>872</ele>
        <time>2024-05-17T11:00:34Z</time>
      </trkpt>
      <trkpt lat="44.61101" lon="5.18366">
        <ele>872.2</ele>
        <time>2024-05-17T11:00:35Z</time>
      </trkpt>
      <trkpt lat="44.61102" lon="5.18365">
        <ele>872.3</ele>
        <time>2024-05-17T11:00:36Z</time>
      </trkpt>
      <trkpt lat="44.61105" lon="5.18363">
        <ele>872.5</ele>
        <time>2024-05-17T11:00:37Z</time>
      </trkpt>
      <trkpt lat="44.61105" lon="5.18363">
        <ele>872.6</ele>
        <time>2024-05-17T11:00:38Z</time>
      </trkpt>
      <trkpt lat="44.61107" lon="5.18362">
        <ele>872.8</ele>
        <time>2024-05-17T11:00:39Z</time>
      </trkpt>
      <trkpt lat="44.6111" lon="5.18361">
        <ele>873</ele>
        <time>2024-05-17T11:00:40Z</time>
      </trkpt>
      <trkpt lat="44.61111" lon="5.1836">
        <ele>873.1</ele>
        <time>2024-05-17T11:00:41Z</time>
      </trkpt>
      <trkpt lat="44.61113" lon="5.1836">
        <ele>873.3</ele>
        <time>2024-05-17T11:00:42Z</time>
      </trkpt>
      <trkpt lat="44.61116" lon="5.18359">
        <ele>873.5</ele>
        <time>2024-05-17T11:00:43Z</time>
      </trkpt>
      <trkpt lat="44.61117" lon="5.18359">
        <ele>873.6</ele>
        <time>2024-05-17T11:00:44Z</time>
      </trkpt>
      <trkpt lat="44.61121" lon="5.18357">
        <ele>873.9</ele>
        <time>2024-05-17T11:00:45Z</time>
      </trkpt>
      <trkpt lat="44.61122" lon="5.18357">
        <ele>874</ele>
        <time>2024-05-17T11:00:46Z</time>
      </trkpt>
      <trkpt lat="44.61125" lon="5.18356">
        <ele>874.2</ele>
        <time>2024-05-17T11:00:47Z</time>
      </trkpt>
      <trkpt lat="44.61126" lon="5.18355">
        <ele>874.3</ele>
        <time>2024-05-17T11:00:48Z</time>
      </trkpt>
      <trkpt lat="44.61129" lon="5.18355">
        <ele>874.6</ele>
        <time>2024-05-17T11:00:49Z</time>
      </trkpt>
      <trkpt lat="44.6113" lon="5.18355">
        <ele>874.7</ele>
        <time>2024-05-17T11:00:50Z</time>
      </trkpt>
      <trkpt lat="44.61132" lon="5.18354">
        <ele>874.9</ele>
        <time>2024-05-17T11:00:51Z</time>
      </trkpt>
      <trkpt lat="44.61134" lon="5.18354">
        <ele>875.1</ele>
        <time>2024-05-17T11:00:52Z</time>
      </trkpt>
      <trkpt lat="44.61137" lon="5.18353">
        <ele>875.3</ele>
        <time>2024-05-17T11:00:53Z</time>
      </trkpt>
      <trkpt lat="44.61138" lon="5.18353">
        <ele>875.4</ele>
        <time>2024-05-17T11:00:54Z</time>
      </trkpt>
      <trkpt lat="44.61141" lon="5.18352">
        <ele>875.7</ele>
        <time>2024-05-17T11:00:55Z</time>
      </trkpt>
      <trkpt lat="44.61142" lon="5.18352">
        <ele>875.8</ele>
        <time>2024-05-17T11:00:56Z</time>
      </trkpt>
      <trkpt lat="44.61145" lon="5.18351">
        <ele>876</ele>
        <time>2024-05-17T11:00:57Z</time>
      </trkpt>
      <trkpt lat="44.61146" lon="5.1835">
        <ele>876.1</ele>
        <time>2024-05-17T11:00:58Z</time>
      </trkpt>
      <trkpt lat="44.61149" lon="5.18349">
        <ele>876.3</ele>
        <time>2024-05-17T11:00:59Z</time>
      </trkpt>
      <trkpt lat="44.6115" lon="5.18349">
        <ele>876.4</ele>
        <time>2024-05-17T11:01:00Z</time>
      </trkpt>
      <trkpt lat="44.61153" lon="5.18348">
        <ele>876.7</ele>
        <time>2024-05-17T11:01:01Z</time>
      </trkpt>
      <trkpt lat="44.61154" lon="5.18348">
        <ele>876.8</ele>
        <time>2024-05-17T11:01:02Z</time>
      </trkpt>
      <trkpt lat="44.61156" lon="5.18348">
        <ele>876.9</ele>
        <time>2024-05-17T11:01:03Z</time>
      </trkpt>
      <trkpt lat="44.61159" lon="5.18347">
        <ele>877.2</ele>
        <time>2024-05-17T11:01:04Z</time>
      </trkpt>
      <trkpt lat="44.6116" lon="5.18347">
        <ele>877.3</ele>
        <time>2024-05-17T11:01:05Z</time>
      </trkpt>
      <trkpt lat="44.61162" lon="5.18347">
        <ele>877.4</ele>
        <time>2024-05-17T11:01:06Z</time>
      </trkpt>
      <trkpt lat="44.61165" lon="5.18347">
        <ele>877.7</ele>
        <time>2024-05-17T11:01:07Z</time>
      </trkpt>
      <trkpt lat="44.61166" lon="5.18346">
        <ele>877.8</ele>
        <time>2024-05-17T11:01:08Z</time>
      </trkpt>
      <trkpt lat="44.61169" lon="5.18346">
        <ele>878</ele>
        <time>2024-05-17T11:01:09Z</time>
      </trkpt>
      <trkpt lat="44.6117" lon="5.18346">
        <ele>878.1</ele>
        <time>2024-05-17T11:01:10Z</time>
      </trkpt>
      <trkpt lat="44.61172" lon="5.18345">
        <ele>878.3</ele>
        <time>2024-05-17T11:01:11Z</time>
      </trkpt>
      <trkpt lat="44.61173" lon="5.18345">
        <ele>878.4</ele>
        <time>2024-05-17T11:01:12Z</time>
      </trkpt>
      <trkpt lat="44.61176" lon="5.18345">
        <ele>878.6</ele>
        <time>2024-05-17T11:01:13Z</time>
      </trkpt>
      <trkpt lat="44.61177" lon="5.18345">
        <ele>878.7</ele>
        <time>2024-05-17T11:01:14Z</time>
      </trkpt>
      <trkpt lat="44.61179" lon="5.18344">
        <ele>878.9</ele>
        <time>2024-05-17T11:01:15Z</time>
      </trkpt>
      <trkpt lat="44.61181" lon="5.18344">
        <ele>879.1</ele>
        <time>2024-05-17T11:01:16Z</time>
      </trkpt>
      <trkpt lat="44.61183" lon="5.18344">
        <ele>879.3</ele>
        <time>2024-05-17T11:01:17Z</time>
      </trkpt>
      <trkpt lat="44.61186" lon="5.18344">
        <ele>879.6</ele>
        <time>2024-05-17T11:01:18Z</time>
      </trkpt>
      <trkpt lat="44.61187" lon="5.18343">
        <ele>879.6</ele>
        <time>2024-05-17T11:01:19Z</time>
      </trkpt>
      <trkpt lat="44.6119" lon="5.18343">
        <ele>879.9</ele>
        <time>2024-05-17T11:01:20Z</time>
      </trkpt>
      <trkpt lat="44.61191" lon="5.18343">
        <ele>880</ele>
        <time>2024-05-17T11:01:21Z</time>
      </trkpt>
      <trkpt lat="44.61193" lon="5.18343">
        <ele>880.1</ele>
        <time>2024-05-17T11:01:22Z</time>
      </trkpt>
      <trkpt lat="44.61196" lon="5.18343">
        <ele>880.4</ele>
        <time>2024-05-17T11:01:23Z</time>
      </trkpt>
      <trkpt lat="44.61197" lon="5.18343">
        <ele>880.5</ele>
        <time>2024-05-17T11:01:24Z</time>
      </trkpt>
      <trkpt lat="44.61199" lon="5.18343">
        <ele>880.6</ele>
        <time>2024-05-17T11:01:25Z</time>
      </trkpt>
      <trkpt lat="44.61202" lon="5.18343">
        <ele>880.9</ele>
        <time>2024-05-17T11:01:26Z</time>
      </trkpt>
      <trkpt lat="44.61203" lon="5.18343">
        <ele>881</ele>
        <time>2024-05-17T11:01:27Z</time>
      </trkpt>
      <trkpt lat="44.61206" lon="5.18344">
        <ele>881.3</ele>
        <time>2024-05-17T11:01:28Z</time>
      </trkpt>
      <trkpt lat="44.61207" lon="5.18344">
        <ele>881.3</ele>
        <time>2024-05-17T11:01:29Z</time>
      </trkpt>
      <trkpt lat="44.6121" lon="5.18344">
        <ele>881.6</ele>
        <time>2024-05-17T11:01:30Z</time>
      </trkpt>
      <trkpt lat="44.61211" lon="5.18344">
        <ele>881.7</ele>
        <time>2024-05-17T11:01:31Z</time>
      </trkpt>
      <trkpt lat="44.61213" lon="5.18344">
        <ele>881.9</ele>
        <time>2024-05-17T11:01:32Z</time>
      </trkpt>
      <trkpt lat="44.61216" lon="5.18344">
        <ele>882.2</ele>
        <time>2024-05-17T11:01:33Z</time>
      </trkpt>
      <trkpt lat="44.61217" lon="5.18345">
        <ele>882.3</ele>
        <time>2024-05-17T11:01:34Z</time>
      </trkpt>
      <trkpt lat="44.6122" lon="5.18345">
        <ele>882.5</ele>
        <time>2024-05-17T11:01:35Z</time>
      </trkpt>
      <trkpt lat="44.61221" lon="5.18346">
        <ele>882.6</ele>
        <time>2024-05-17T11:01:36Z</time>
      </trkpt>
      <trkpt lat="44.61224" lon="5.18346">
        <ele>882.9</ele>
        <time>2024-05-17T11:01:37Z</time>
      </trkpt>
      <trkpt lat="44.61225" lon="5.18346">
        <ele>883</ele>
        <time>2024-05-17T11:01:38Z</time>
      </trkpt>
      <trkpt lat="44.61228" lon="5.18347">
        <ele>883.2</ele>
        <time>2024-05-17T11:01:39Z</time>
      </trkpt>
      <trkpt lat="44.61229" lon="5.18347">
        <ele>883.3</ele>
        <time>2024-05-17T11:01:40Z</time>
      </trkpt>
      <trkpt lat="44.61232" lon="5.18348">
        <ele>883.6</ele>
        <time>2024-05-17T11:01:41Z</time>
      </trkpt>
      <trkpt lat="44.61233" lon="5.18349">
        <ele>883.7</ele>
        <time>2024-05-17T11:01:42Z</time>
      </trkpt>
      <trkpt lat="44.61236" lon="5.1835">
        <ele>884</ele>
        <time>2024-05-17T11:01:43Z</time>
      </trkpt>
      <trkpt lat="44.61236" lon="5.1835">
        <ele>884.1</ele>
        <time>2024-05-17T11:01:44Z</time>
      </trkpt>
      <trkpt lat="44.61239" lon="5.18351">
        <ele>884.3</ele>
        <time>2024-05-17T11:01:45Z</time>
      </trkpt>
      <trkpt lat="44.6124" lon="5.18351">
        <ele>884.4</ele>
        <time>2024-05-17T11:01:46Z</time>
      </trkpt>
      <trkpt lat="44.61243" lon="5.18351">
        <ele>884.6</ele>
        <time>2024-05-17T11:01:47Z</time>
      </trkpt>
      <trkpt lat="44.61245" lon="5.18352">
        <ele>884.9</ele>
        <time>2024-05-17T11:01:48Z</time>
      </trkpt>
      <trkpt lat="44.61246" lon="5.18352">
        <ele>885</ele>
        <time>2024-05-17T11:01:49Z</time>
      </trkpt>
      <trkpt lat="44.61249" lon="5.18353">
        <ele>885.3</ele>
        <time>2024-05-17T11:01:50Z</time>
      </trkpt>
      <trkpt lat="44.6125" lon="5.18353">
        <ele>885.4</ele>
        <time>2024-05-17T11:01:51Z</time>
      </trkpt>
      <trkpt lat="44.61253" lon="5.18354">
        <ele>885.6</ele>
        <time>2024-05-17T11:01:52Z</time>
      </trkpt>
      <trkpt lat="44.61254" lon="5.18354">
        <ele>885.7</ele>
        <time>2024-05-17T11:01:53Z</time>
      </trkpt>
      <trkpt lat="44.61257" lon="5.18354">
        <ele>886</ele>
        <time>2024-05-17T11:01:54Z</time>
      </trkpt>
      <trkpt lat="44.61258" lon="5.18354">
        <ele>886</ele>
        <time>2024-05-17T11:01:55Z</time>
      </trkpt>
      <trkpt lat="44.61261" lon="5.18354">
        <ele>886.3</ele>
        <time>2024-05-17T11:01:56Z</time>
      </trkpt>
      <trkpt lat="44.61262" lon="5.18354">
        <ele>886.4</ele>
        <time>2024-05-17T11:01:57Z</time>
      </trkpt>
      <trkpt lat="44.61264" lon="5.18354">
        <ele>886.6</ele>
        <time>2024-05-17T11:01:58Z</time>
      </trkpt>
      <trkpt lat="44.61265" lon="5.18355">
        <ele>886.7</ele>
        <time>2024-05-17T11:01:59Z</time>
      </trkpt>
      <trkpt lat="44.61268" lon="5.18355">
        <ele>887</ele>
        <time>2024-05-17T11:02:00Z</time>
      </trkpt>
      <trkpt lat="44.6127" lon="5.18355">
        <ele>887.2</ele>
        <time>2024-05-17T11:02:01Z</time>
      </trkpt>
      <trkpt lat="44.61272" lon="5.18355">
        <ele>887.4</ele>
        <time>2024-05-17T11:02:02Z</time>
      </trkpt>
      <trkpt lat="44.61274" lon="5.18354">
        <ele>887.5</ele>
        <time>2024-05-17T11:02:03Z</time>
      </trkpt>
      <trkpt lat="44.61276" lon="5.18354">
        <ele>887.7</ele>
        <time>2024-05-17T11:02:04Z</time>
      </trkpt>
      <trkpt lat="44.61278" lon="5.18354">
        <ele>887.8</ele>
        <time>2024-05-17T11:02:05Z</time>
      </trkpt>
      <trkpt lat="44.6128" lon="5.18354">
        <ele>888.1</ele>
        <time>2024-05-17T11:02:06Z</time>
      </trkpt>
      <trkpt lat="44.61281" lon="5.18353">
        <ele>888.2</ele>
        <time>2024-05-17T11:02:07Z</time>
      </trkpt>
      <trkpt lat="44.61283" lon="5.18353">
        <ele>888.3</ele>
        <time>2024-05-17T11:02:08Z</time>
      </trkpt>
      <trkpt lat="44.61285" lon="5.18352">
        <ele>888.5</ele>
        <time>2024-05-17T11:02:09Z</time>
      </trkpt>
      <trkpt lat="44.61287" lon="5.18351">
        <ele>888.7</ele>
        <time>2024-05-17T11:02:10Z</time>
      </trkpt>
      <trkpt lat="44.61288" lon="5.18351">
        <ele>888.8</ele>
        <time>2024-05-17T11:02:11Z</time>
      </trkpt>
      <trkpt lat="44.6129" lon="5.1835">
        <ele>888.9</ele>
        <time>2024-05-17T11:02:12Z</time>
      </trkpt>
      <trkpt lat="44.61293" lon="5.1835">
        <ele>889.2</ele>
        <time>2024-05-17T11:02:13Z</time>
      </trkpt>
      <trkpt lat="44.61294" lon="5.1835">
        <ele>889.3</ele>
        <time>2024-05-17T11:02:14Z</time>
      </trkpt>
      <trkpt lat="44.61295" lon="5.1835">
        <ele>889.4</ele>
        <time>2024-05-17T11:02:15Z</time>
      </trkpt>
      <trkpt lat="44.61298" lon="5.18349">
        <ele>889.7</ele>
        <time>2024-05-17T11:02:16Z</time>
      </trkpt>
      <trkpt lat="44.61299" lon="5.18349">
        <ele>889.8</ele>
        <time>2024-05-17T11:02:17Z</time>
      </trkpt>
      <trkpt lat="44.61302" lon="5.18349">
        <ele>890</ele>
        <time>2024-05-17T11:02:18Z</time>
      </trkpt>
      <trkpt lat="44.61303" lon="5.18349">
        <ele>890.1</ele>
        <time>2024-05-17T11:02:19Z</time>
      </trkpt>
      <trkpt lat="44.61305" lon="5.18349">
        <ele>890.3</ele>
        <time>2024-05-17T11:02:20Z</time>
      </trkpt>
      <trkpt lat="44.61307" lon="5.18349">
        <ele>890.4</ele>
        <time>2024-05-17T11:02:21Z</time>
      </trkpt>
      <trkpt lat="44.61309" lon="5.18348">
        <ele>890.6</ele>
        <time>2024-05-17T11:02:22Z</time>
      </trkpt>
      <trkpt lat="44.6131" lon="5.18348">
        <ele>890.7</ele>
        <time>2024-05-17T11:02:23Z</time>
      </trkpt>
      <trkpt lat="44.61313" lon="5.18347">
        <ele>890.9</ele>
        <time>2024-05-17T11:02:24Z</time>
      </trkpt>
      <trkpt lat="44.61314" lon="5.18347">
        <ele>891</ele>
        <time>2024-05-17T11:02:25Z</time>
      </trkpt>
      <trkpt lat="44.61317" lon="5.18346">
        <ele>891.2</ele>
        <time>2024-05-17T11:02:26Z</time>
      </trkpt>
      <trkpt lat="44.61318" lon="5.18346">
        <ele>891.3</ele>
        <time>2024-05-17T11:02:27Z</time>
      </trkpt>
      <trkpt lat="44.61321" lon="5.18344">
        <ele>891.6</ele>
        <time>2024-05-17T11:02:28Z</time>
      </trkpt>
      <trkpt lat="44.61321" lon="5.18344">
        <ele>891.6</ele>
        <time>2024-05-17T11:02:29Z</time>
      </trkpt>
      <trkpt lat="44.61323" lon="5.18343">
        <ele>891.8</ele>
        <time>2024-05-17T11:02:30Z</time>
      </trkpt>
      <trkpt lat="44.61326" lon="5.18342">
        <ele>892.1</ele>
        <time>2024-05-17T11:02:31Z</time>
      </trkpt>
      <trkpt lat="44.61327" lon="5.18341">
        <ele>892.2</ele>
        <time>2024-05-17T11:02:32Z</time>
      </trkpt>
      <trkpt lat="44.6133" lon="5.18341">
        <ele>892.3</ele>
        <time>2024-05-17T11:02:33Z</time>
      </trkpt>
      <trkpt lat="44.61331" lon="5.1834">
        <ele>892.5</ele>
        <time>2024-05-17T11:02:34Z</time>
      </trkpt>
      <trkpt lat="44.61333" lon="5.18339">
        <ele>892.7</ele>
        <time>2024-05-17T11:02:35Z</time>
      </trkpt>
      <trkpt lat="44.61335" lon="5.18337">
        <ele>892.9</ele>
        <time>2024-05-17T11:02:36Z</time>
      </trkpt>
      <trkpt lat="44.61336" lon="5.18337">
        <ele>893</ele>
        <time>2024-05-17T11:02:37Z</time>
      </trkpt>
      <trkpt lat="44.61339" lon="5.18336">
        <ele>893.2</ele>
        <time>2024-05-17T11:02:38Z</time>
      </trkpt>
      <trkpt lat="44.6134" lon="5.18336">
        <ele>893.3</ele>
        <time>2024-05-17T11:02:39Z</time>
      </trkpt>
      <trkpt lat="44.61343" lon="5.18334">
        <ele>893.6</ele>
        <time>2024-05-17T11:02:40Z</time>
      </trkpt>
      <trkpt lat="44.61344" lon="5.18333">
        <ele>893.7</ele>
        <time>2024-05-17T11:02:41Z</time>
      </trkpt>
      <trkpt lat="44.61346" lon="5.18332">
        <ele>893.9</ele>
        <time>2024-05-17T11:02:42Z</time>
      </trkpt>
      <trkpt lat="44.61347" lon="5.18331">
        <ele>894</ele>
        <time>2024-05-17T11:02:43Z</time>
      </trkpt>
      <trkpt lat="44.61349" lon="5.18329">
        <ele>894.3</ele>
        <time>2024-05-17T11:02:44Z</time>
      </trkpt>
      <trkpt lat="44.6135" lon="5.18328">
        <ele>894.4</ele>
        <time>2024-05-17T11:02:45Z</time>
      </trkpt>
      <trkpt lat="44.61352" lon="5.18326">
        <ele>894.6</ele>
        <time>2024-05-17T11:02:46Z</time>
      </trkpt>
      <trkpt lat="44.61353" lon="5.18325">
        <ele>894.7</ele>
        <time>2024-05-17T11:02:47Z</time>
      </trkpt>
      <trkpt lat="44.61355" lon="5.18324">
        <ele>894.9</ele>
        <time>2024-05-17T11:02:48Z</time>
      </trkpt>
      <trkpt lat="44.61357" lon="5.18322">
        <ele>895.1</ele>
        <time>2024-05-17T11:02:49Z</time>
      </trkpt>
      <trkpt lat="44.61358" lon="5.18321">
        <ele>895.2</ele>
        <time>2024-05-17T11:02:50Z</time>
      </trkpt>
      <trkpt lat="44.6136" lon="5.1832">
        <ele>895.4</ele>
        <time>2024-05-17T11:02:51Z</time>
      </trkpt>
      <trkpt lat="44.61363" lon="5.18319">
        <ele>895.6</ele>
        <time>2024-05-17T11:02:52Z</time>
      </trkpt>
      <trkpt lat="44.61364" lon="5.18318">
        <ele>895.7</ele>
        <time>2024-05-17T11:02:53Z</time>
      </trkpt>
      <trkpt lat="44.61366" lon="5.18317">
        <ele>896</ele>
        <time>2024-05-17T11:02:54Z</time>
      </trkpt>
      <trkpt lat="44.61367" lon="5.18316">
        <ele>896.1</ele>
        <time>2024-05-17T11:02:55Z</time>
      </trkpt>
      <trkpt lat="44.61369" lon="5.18316">
        <ele>896.2</ele>
        <time>2024-05-17T11:02:56Z</time>
      </trkpt>
      <trkpt lat="44.61371" lon="5.18315">
        <ele>896.4</ele>
        <time>2024-05-17T11:02:57Z</time>
      </trkpt>
      <trkpt lat="44.61372" lon="5.18314">
        <ele>896.6</ele>
        <time>2024-05-17T11:02:58Z</time>
      </trkpt>
      <trkpt lat="44.61374" lon="5.18314">
        <ele>896.7</ele>
        <time>2024-05-17T11:02:59Z</time>
      </trkpt>
      <trkpt lat="44.61375" lon="5.18313">
        <ele>896.9</ele>
        <time>2024-05-17T11:03:00Z</time>
      </trkpt>
      <trkpt lat="44.61377" lon="5.18313">
        <ele>897</ele>
        <time>2024-05-17T11:03:01Z</time>
      </trkpt>
      <trkpt lat="44.61379" lon="5.18313">
        <ele>897.1</ele>
        <time>2024-05-17T11:03:02Z</time>
      </trkpt>
      <trkpt lat="44.6138" lon="5.18312">
        <ele>897.3</ele>
        <time>2024-05-17T11:03:03Z</time>
      </trkpt>
      <trkpt lat="44.61383" lon="5.18312">
        <ele>897.5</ele>
        <time>2024-05-17T11:03:04Z</time>
      </trkpt>
      <trkpt lat="44.61384" lon="5.18312">
        <ele>897.6</ele>
        <time>2024-05-17T11:03:05Z</time>
      </trkpt>
      <trkpt lat="44.61387" lon="5.18312">
        <ele>897.9</ele>
        <time>2024-05-17T11:03:06Z</time>
      </trkpt>
      <trkpt lat="44.61388" lon="5.18312">
        <ele>897.9</ele>
        <time>2024-05-17T11:03:07Z</time>
      </trkpt>
      <trkpt lat="44.6139" lon="5.18312">
        <ele>898.1</ele>
        <time>2024-05-17T11:03:08Z</time>
      </trkpt>
      <trkpt lat="44.61392" lon="5.18312">
        <ele>898.2</ele>
        <time>2024-05-17T11:03:09Z</time>
      </trkpt>
      <trkpt lat="44.61394" lon="5.18312">
        <ele>898.5</ele>
        <time>2024-05-17T11:03:10Z</time>
      </trkpt>
      <trkpt lat="44.61395" lon="5.18312">
        <ele>898.5</ele>
        <time>2024-05-17T11:03:11Z</time>
      </trkpt>
      <trkpt lat="44.61398" lon="5.18312">
        <ele>898.7</ele>
        <time>2024-05-17T11:03:12Z</time>
      </trkpt>
      <trkpt lat="44.614" lon="5.18312">
        <ele>898.9</ele>
        <time>2024-05-17T11:03:13Z</time>
      </trkpt>
      <trkpt lat="44.61402" lon="5.18313">
        <ele>899.1</ele>
        <time>2024-05-17T11:03:14Z</time>
      </trkpt>
      <trkpt lat="44.61403" lon="5.18313">
        <ele>899.2</ele>
        <time>2024-05-17T11:03:15Z</time>
      </trkpt>
      <trkpt lat="44.61405" lon="5.18313">
        <ele>899.4</ele>
        <time>2024-05-17T11:03:16Z</time>
      </trkpt>
      <trkpt lat="44.61407" lon="5.18314">
        <ele>899.5</ele>
        <time>2024-05-17T11:03:17Z</time>
      </trkpt>
      <trkpt lat="44.6141" lon="5.18314">
        <ele>899.8</ele>
        <time>2024-05-17T11:03:18Z</time>
      </trkpt>
      <trkpt lat="44.61411" lon="5.18315">
        <ele>899.9</ele>
        <time>2024-05-17T11:03:19Z</time>
      </trkpt>
      <trkpt lat="44.61413" lon="5.18316">
        <ele>900</ele>
        <time>2024-05-17T11:03:20Z</time>
      </trkpt>
      <trkpt lat="44.61414" lon="5.18316">
        <ele>900.2</ele>
        <time>2024-05-17T11:03:21Z</time>
      </trkpt>
      <trkpt lat="44.61417" lon="5.18316">
        <ele>900.4</ele>
        <time>2024-05-17T11:03:22Z</time>
      </trkpt>
      <trkpt lat="44.61418" lon="5.18316">
        <ele>900.5</ele>
        <time>2024-05-17T11:03:23Z</time>
      </trkpt>
      <trkpt lat="44.61421" lon="5.18317">
        <ele>900.8</ele>
        <time>2024-05-17T11:03:24Z</time>
      </trkpt>
      <trkpt lat="44.61422" lon="5.18317">
        <ele>900.9</ele>
        <time>2024-05-17T11:03:25Z</time>
      </trkpt>
      <trkpt lat="44.61425" lon="5.18317">
        <ele>901.1</ele>
        <time>2024-05-17T11:03:26Z</time>
      </trkpt>
      <trkpt lat="44.61426" lon="5.18317">
        <ele>901.2</ele>
        <time>2024-05-17T11:03:27Z</time>
      </trkpt>
      <trkpt lat="44.61429" lon="5.18318">
        <ele>901.5</ele>
        <time>2024-05-17T11:03:28Z</time>
      </trkpt>
      <trkpt lat="44.61429" lon="5.18319">
        <ele>901.5</ele>
        <time>2024-05-17T11:03:29Z</time>
      </trkpt>
      <trkpt lat="44.61432" lon="5.1832">
        <ele>901.8</ele>
        <time>2024-05-17T11:03:30Z</time>
      </trkpt>
      <trkpt lat="44.61433" lon="5.1832">
        <ele>901.9</ele>
        <time>2024-05-17T11:03:31Z</time>
      </trkpt>
      <trkpt lat="44.61435" lon="5.1832">
        <ele>902</ele>
        <time>2024-05-17T11:03:32Z</time>
      </trkpt>
      <trkpt lat="44.61438" lon="5.1832">
        <ele>902.3</ele>
        <time>2024-05-17T11:03:33Z</time>
      </trkpt>
      <trkpt lat="44.61439" lon="5.1832">
        <ele>902.4</ele>
        <time>2024-05-17T11:03:34Z</time>
      </trkpt>
      <trkpt lat="44.61441" lon="5.18319">
        <ele>902.6</ele>
        <time>2024-05-17T11:03:35Z</time>
      </trkpt>
      <trkpt lat="44.61443" lon="5.18319">
        <ele>902.8</ele>
        <time>2024-05-17T11:03:36Z</time>
      </trkpt>
      <trkpt lat="44.61446" lon="5.18319">
        <ele>903</ele>
        <time>2024-05-17T11:03:37Z</time>
      </trkpt>
      <trkpt lat="44.61449" lon="5.18319">
        <ele>903.3</ele>
        <time>2024-05-17T11:03:38Z</time>
      </trkpt>
      <trkpt lat="44.6145" lon="5.18319">
        <ele>903.4</ele>
        <time>2024-05-17T11:03:39Z</time>
      </trkpt>
      <trkpt lat="44.61453" lon="5.18319">
        <ele>903.6</ele>
        <time>2024-05-17T11:03:40Z</time>
      </trkpt>
      <trkpt lat="44.61454" lon="5.18319">
        <ele>903.7</ele>
        <time>2024-05-17T11:03:41Z</time>
      </trkpt>
      <trkpt lat="44.61456" lon="5.18318">
        <ele>903.8</ele>
        <time>2024-05-17T11:03:42Z</time>
      </trkpt>
      <trkpt lat="44.61458" lon="5.18317">
        <ele>904.1</ele>
        <time>2024-05-17T11:03:43Z</time>
      </trkpt>
      <trkpt lat="44.6146" lon="5.18317">
        <ele>904.2</ele>
        <time>2024-05-17T11:03:44Z</time>
      </trkpt>
      <trkpt lat="44.61462" lon="5.18317">
        <ele>904.4</ele>
        <time>2024-05-17T11:03:45Z</time>
      </trkpt>
      <trkpt lat="44.61465" lon="5.18316">
        <ele>904.6</ele>
        <time>2024-05-17T11:03:46Z</time>
      </trkpt>
      <trkpt lat="44.61466" lon="5.18316">
        <ele>904.7</ele>
        <time>2024-05-17T11:03:47Z</time>
      </trkpt>
      <trkpt lat="44.61469" lon="5.18314">
        <ele>904.9</ele>
        <time>2024-05-17T11:03:48Z</time>
      </trkpt>
      <trkpt lat="44.6147" lon="5.18314">
        <ele>905</ele>
        <time>2024-05-17T11:03:49Z</time>
      </trkpt>
      <trkpt lat="44.61473" lon="5.18313">
        <ele>905.3</ele>
        <time>2024-05-17T11:03:50Z</time>
      </trkpt>
      <trkpt lat="44.61474" lon="5.18313">
        <ele>905.4</ele>
        <time>2024-05-17T11:03:51Z</time>
      </trkpt>
      <trkpt lat="44.61477" lon="5.18312">
        <ele>905.6</ele>
        <time>2024-05-17T11:03:52Z</time>
      </trkpt>
      <trkpt lat="44.61477" lon="5.18312">
        <ele>905.7</ele>
        <time>2024-05-17T11:03:53Z</time>
      </trkpt>
      <trkpt lat="44.6148" lon="5.18311">
        <ele>905.9</ele>
        <time>2024-05-17T11:03:54Z</time>
      </trkpt>
      <trkpt lat="44.61481" lon="5.18311">
        <ele>906</ele>
        <time>2024-05-17T11:03:55Z</time>
      </trkpt>
      <trkpt lat="44.61483" lon="5.1831">
        <ele>906.2</ele>
        <time>2024-05-17T11:03:56Z</time>
      </trkpt>
      <trkpt lat="44.61486" lon="5.18309">
        <ele>906.4</ele>
        <time>2024-05-17T11:03:57Z</time>
      </trkpt>
      <trkpt lat="44.61488" lon="5.18308">
        <ele>906.5</ele>
        <time>2024-05-17T11:03:58Z</time>
      </trkpt>
      <trkpt lat="44.6149" lon="5.18308">
        <ele>906.8</ele>
        <time>2024-05-17T11:03:59Z</time>
      </trkpt>
      <trkpt lat="44.61491" lon="5.18307">
        <ele>906.9</ele>
        <time>2024-05-17T11:04:00Z</time>
      </trkpt>
      <trkpt lat="44.61494" lon="5.18307">
        <ele>907.1</ele>
        <time>2024-05-17T11:04:01Z</time>
      </trkpt>
      <trkpt lat="44.61495" lon="5.18306">
        <ele>907.1</ele>
        <time>2024-05-17T11:04:02Z</time>
      </trkpt>
      <trkpt lat="44.61498" lon="5.18305">
        <ele>907.4</ele>
        <time>2024-05-17T11:04:03Z</time>
      </trkpt>
      <trkpt lat="44.61499" lon="5.18305">
        <ele>907.5</ele>
        <time>2024-05-17T11:04:04Z</time>
      </trkpt>
      <trkpt lat="44.61502" lon="5.18303">
        <ele>907.7</ele>
        <time>2024-05-17T11:04:05Z</time>
      </trkpt>
      <trkpt lat="44.61503" lon="5.18303">
        <ele>907.8</ele>
        <time>2024-05-17T11:04:06Z</time>
      </trkpt>
      <trkpt lat="44.61506" lon="5.18302">
        <ele>908.1</ele>
        <time>2024-05-17T11:04:07Z</time>
      </trkpt>
      <trkpt lat="44.61507" lon="5.18302">
        <ele>908.1</ele>
        <time>2024-05-17T11:04:08Z</time>
      </trkpt>
      <trkpt lat="44.61508" lon="5.18301">
        <ele>908.3</ele>
        <time>2024-05-17T11:04:09Z</time>
      </trkpt>
      <trkpt lat="44.6151" lon="5.18301">
        <ele>908.5</ele>
        <time>2024-05-17T11:04:10Z</time>
      </trkpt>
      <trkpt lat="44.61513" lon="5.183">
        <ele>908.7</ele>
        <time>2024-05-17T11:04:11Z</time>
      </trkpt>
      <trkpt lat="44.61514" lon="5.18299">
        <ele>908.8</ele>
        <time>2024-05-17T11:04:12Z</time>
      </trkpt>
      <trkpt lat="44.61517" lon="5.18298">
        <ele>909</ele>
        <time>2024-05-17T11:04:13Z</time>
      </trkpt>
      <trkpt lat="44.61517" lon="5.18298">
        <ele>909.1</ele>
        <time>2024-05-17T11:04:14Z</time>
      </trkpt>
      <trkpt lat="44.61519" lon="5.18297">
        <ele>909.3</ele>
        <time>2024-05-17T11:04:15Z</time>
      </trkpt>
      <trkpt lat="44.61522" lon="5.18295">
        <ele>909.5</ele>
        <time>2024-05-17T11:04:16Z</time>
      </trkpt>
      <trkpt lat="44.61523" lon="5.18295">
        <ele>909.6</ele>
        <time>2024-05-17T11:04:17Z</time>
      </trkpt>
      <trkpt lat="44.61525" lon="5.18294">
        <ele>909.8</ele>
        <time>2024-05-17T11:04:18Z</time>
      </trkpt>
      <trkpt lat="44.61527" lon="5.18294">
        <ele>909.9</ele>
        <time>2024-05-17T11:04:19Z</time>
      </trkpt>
      <trkpt lat="44.61528" lon="5.18293">
        <ele>910.1</ele>
        <time>2024-05-17T11:04:20Z</time>
      </trkpt>
      <trkpt lat="44.61531" lon="5.18291">
        <ele>910.3</ele>
        <time>2024-05-17T11:04:21Z</time>
      </trkpt>
      <trkpt lat="44.61532" lon="5.18291">
        <ele>910.4</ele>
        <time>2024-05-17T11:04:22Z</time>
      </trkpt>
      <trkpt lat="44.61535" lon="5.1829">
        <ele>910.7</ele>
        <time>2024-05-17T11:04:23Z</time>
      </trkpt>
      <trkpt lat="44.61536" lon="5.1829">
        <ele>910.8</ele>
        <time>2024-05-17T11:04:24Z</time>
      </trkpt>
      <trkpt lat="44.61538" lon="5.18288">
        <ele>911</ele>
        <time>2024-05-17T11:04:25Z</time>
      </trkpt>
      <trkpt lat="44.61541" lon="5.18287">
        <ele>911.2</ele>
        <time>2024-05-17T11:04:26Z</time>
      </trkpt>
      <trkpt lat="44.61542" lon="5.18286">
        <ele>911.3</ele>
        <time>2024-05-17T11:04:27Z</time>
      </trkpt>
      <trkpt lat="44.61545" lon="5.18285">
        <ele>911.5</ele>
        <time>2024-05-17T11:04:28Z</time>
      </trkpt>
      <trkpt lat="44.61546" lon="5.18284">
        <ele>911.6</ele>
        <time>2024-05-17T11:04:29Z</time>
      </trkpt>
      <trkpt lat="44.61549" lon="5.18283">
        <ele>911.9</ele>
        <time>2024-05-17T11:04:30Z</time>
      </trkpt>
      <trkpt lat="44.6155" lon="5.18283">
        <ele>912</ele>
        <time>2024-05-17T11:04:31Z</time>
      </trkpt>
      <trkpt lat="44.61552" lon="5.18282">
        <ele>912.2</ele>
        <time>2024-05-17T11:04:32Z</time>
      </trkpt>
      <trkpt lat="44.61553" lon="5.18281">
        <ele>912.3</ele>
        <time>2024-05-17T11:04:33Z</time>
      </trkpt>
      <trkpt lat="44.61556" lon="5.18281">
        <ele>912.5</ele>
        <time>2024-05-17T11:04:34Z</time>
      </trkpt>
      <trkpt lat="44.61557" lon="5.18281">
        <ele>912.6</ele>
        <time>2024-05-17T11:04:35Z</time>
      </trkpt>
      <trkpt lat="44.61559" lon="5.1828">
        <ele>912.8</ele>
        <time>2024-05-17T11:04:36Z</time>
      </trkpt>
      <trkpt lat="44.61561" lon="5.1828">
        <ele>912.9</ele>
        <time>2024-05-17T11:04:37Z</time>
      </trkpt>
      <trkpt lat="44.61562" lon="5.18279">
        <ele>913</ele>
        <time>2024-05-17T11:04:38Z</time>
      </trkpt>
      <trkpt lat="44.61564" lon="5.18279">
        <ele>913.2</ele>
        <time>2024-05-17T11:04:39Z</time>
      </trkpt>
      <trkpt lat="44.61567" lon="5.18279">
        <ele>913.4</ele>
        <time>2024-05-17T11:04:40Z</time>
      </trkpt>
      <trkpt lat="44.61568" lon="5.18279">
        <ele>913.5</ele>
        <time>2024-05-17T11:04:41Z</time>
      </trkpt>
      <trkpt lat="44.61569" lon="5.18279">
        <ele>913.6</ele>
        <time>2024-05-17T11:04:42Z</time>
      </trkpt>
      <trkpt lat="44.61572" lon="5.18279">
        <ele>913.9</ele>
        <time>2024-05-17T11:04:43Z</time>
      </trkpt>
      <trkpt lat="44.61573" lon="5.18278">
        <ele>913.9</ele>
        <time>2024-05-17T11:04:44Z</time>
      </trkpt>
      <trkpt lat="44.61576" lon="5.18278">
        <ele>914.2</ele>
        <time>2024-05-17T11:04:45Z</time>
      </trkpt>
      <trkpt lat="44.61577" lon="5.18277">
        <ele>914.3</ele>
        <time>2024-05-17T11:04:46Z</time>
      </trkpt>
      <trkpt lat="44.61579" lon="5.18277">
        <ele>914.5</ele>
        <time>2024-05-17T11:04:47Z</time>
      </trkpt>
      <trkpt lat="44.6158" lon="5.18277">
        <ele>914.6</ele>
        <time>2024-05-17T11:04:48Z</time>
      </trkpt>
      <trkpt lat="44.61583" lon="5.18277">
        <ele>914.8</ele>
        <time>2024-05-17T11:04:49Z</time>
      </trkpt>
      <trkpt lat="44.61584" lon="5.18277">
        <ele>914.9</ele>
        <time>2024-05-17T11:04:50Z</time>
      </trkpt>
      <trkpt lat="44.61587" lon="5.18277">
        <ele>915.1</ele>
        <time>2024-05-17T11:04:51Z</time>
      </trkpt>
      <trkpt lat="44.61588" lon="5.18277">
        <ele>915.2</ele>
        <time>2024-05-17T11:04:52Z</time>
      </trkpt>
      <trkpt lat="44.61591" lon="5.18277">
        <ele>915.5</ele>
        <time>2024-05-17T11:04:53Z</time>
      </trkpt>
      <trkpt lat="44.61592" lon="5.18278">
        <ele>915.6</ele>
        <time>2024-05-17T11:04:54Z</time>
      </trkpt>
      <trkpt lat="44.61595" lon="5.18278">
        <ele>915.8</ele>
        <time>2024-05-17T11:04:55Z</time>
      </trkpt>
      <trkpt lat="44.61596" lon="5.18278">
        <ele>915.9</ele>
        <time>2024-05-17T11:04:56Z</time>
      </trkpt>
      <trkpt lat="44.61597" lon="5.18279">
        <ele>916</ele>
        <time>2024-05-17T11:04:57Z</time>
      </trkpt>
      <trkpt lat="44.61599" lon="5.18279">
        <ele>916.2</ele>
        <time>2024-05-17T11:04:58Z</time>
      </trkpt>
      <trkpt lat="44.61601" lon="5.18279">
        <ele>916.3</ele>
        <time>2024-05-17T11:04:59Z</time>
      </trkpt>
      <trkpt lat="44.61604" lon="5.18279">
        <ele>916.6</ele>
        <time>2024-05-17T11:05:00Z</time>
      </trkpt>
      <trkpt lat="44.61605" lon="5.18279">
        <ele>916.7</ele>
        <time>2024-05-17T11:05:01Z</time>
      </trkpt>
      <trkpt lat="44.61607" lon="5.18279">
        <ele>916.9</ele>
        <time>2024-05-17T11:05:02Z</time>
      </trkpt>
      <trkpt lat="44.6161" lon="5.1828">
        <ele>917.1</ele>
        <time>2024-05-17T11:05:03Z</time>
      </trkpt>
      <trkpt lat="44.61611" lon="5.1828">
        <ele>917.2</ele>
        <time>2024-05-17T11:05:04Z</time>
      </trkpt>
      <trkpt lat="44.61614" lon="5.18281">
        <ele>917.5</ele>
        <time>2024-05-17T11:05:05Z</time>
      </trkpt>
      <trkpt lat="44.61615" lon="5.18281">
        <ele>917.6</ele>
        <time>2024-05-17T11:05:06Z</time>
      </trkpt>
      <trkpt lat="44.61618" lon="5.18282">
        <ele>917.8</ele>
        <time>2024-05-17T11:05:07Z</time>
      </trkpt>
      <trkpt lat="44.61619" lon="5.18282">
        <ele>917.9</ele>
        <time>2024-05-17T11:05:08Z</time>
      </trkpt>
      <trkpt lat="44.61621" lon="5.18282">
        <ele>918.1</ele>
        <time>2024-05-17T11:05:09Z</time>
      </trkpt>
      <trkpt lat="44.61624" lon="5.18283">
        <ele>918.3</ele>
        <time>2024-05-17T11:05:10Z</time>
      </trkpt>
      <trkpt lat="44.61625" lon="5.18283">
        <ele>918.4</ele>
        <time>2024-05-17T11:05:11Z</time>
      </trkpt>
      <trkpt lat="44.61628" lon="5.18283">
        <ele>918.7</ele>
        <time>2024-05-17T11:05:12Z</time>
      </trkpt>
      <trkpt lat="44.61629" lon="5.18284">
        <ele>918.8</ele>
        <time>2024-05-17T11:05:13Z</time>
      </trkpt>
      <trkpt lat="44.61631" lon="5.18284">
        <ele>919</ele>
        <time>2024-05-17T11:05:14Z</time>
      </trkpt>
      <trkpt lat="44.61634" lon="5.18285">
        <ele>919.2</ele>
        <time>2024-05-17T11:05:15Z</time>
      </trkpt>
      <trkpt lat="44.61635" lon="5.18285">
        <ele>919.3</ele>
        <time>2024-05-17T11:05:16Z</time>
      </trkpt>
      <trkpt lat="44.61638" lon="5.18286">
        <ele>919.6</ele>
        <time>2024-05-17T11:05:17Z</time>
      </trkpt>
      <trkpt lat="44.61639" lon="5.18286">
        <ele>919.7</ele>
        <time>2024-05-17T11:05:18Z</time>
      </trkpt>
      <trkpt lat="44.61642" lon="5.18287">
        <ele>919.9</ele>
        <time>2024-05-17T11:05:19Z</time>
      </trkpt>
      <trkpt lat="44.61643" lon="5.18287">
        <ele>920</ele>
        <time>2024-05-17T11:05:20Z</time>
      </trkpt>
      <trkpt lat="44.61646" lon="5.18288">
        <ele>920.2</ele>
        <time>2024-05-17T11:05:21Z</time>
      </trkpt>
      <trkpt lat="44.61647" lon="5.18288">
        <ele>920.3</ele>
        <time>2024-05-17T11:05:22Z</time>
      </trkpt>
      <trkpt lat="44.61649" lon="5.18289">
        <ele>920.5</ele>
        <time>2024-05-17T11:05:23Z</time>
      </trkpt>
      <trkpt lat="44.61652" lon="5.1829">
        <ele>920.8</ele>
        <time>2024-05-17T11:05:24Z</time>
      </trkpt>
      <trkpt lat="44.61653" lon="5.1829">
        <ele>920.9</ele>
        <time>2024-05-17T11:05:25Z</time>
      </trkpt>
      <trkpt lat="44.61655" lon="5.18291">
        <ele>921.1</ele>
        <time>2024-05-17T11:05:26Z</time>
      </trkpt>
      <trkpt lat="44.61656" lon="5.18291">
        <ele>921.2</ele>
        <time>2024-05-17T11:05:27Z</time>
      </trkpt>
      <trkpt lat="44.61659" lon="5.18292">
        <ele>921.4</ele>
        <time>2024-05-17T11:05:28Z</time>
      </trkpt>
      <trkpt lat="44.6166" lon="5.18292">
        <ele>921.5</ele>
        <time>2024-05-17T11:05:29Z</time>
      </trkpt>
      <trkpt lat="44.61663" lon="5.18293">
        <ele>921.8</ele>
        <time>2024-05-17T11:05:30Z</time>
      </trkpt>
      <trkpt lat="44.61664" lon="5.18293">
        <ele>921.9</ele>
        <time>2024-05-17T11:05:31Z</time>
      </trkpt>
      <trkpt lat="44.61667" lon="5.18294">
        <ele>922.1</ele>
        <time>2024-05-17T11:05:32Z</time>
      </trkpt>
      <trkpt lat="44.61668" lon="5.18295">
        <ele>922.2</ele>
        <time>2024-05-17T11:05:33Z</time>
      </trkpt>
      <trkpt lat="44.61671" lon="5.18295">
        <ele>922.5</ele>
        <time>2024-05-17T11:05:34Z</time>
      </trkpt>
      <trkpt lat="44.61671" lon="5.18296">
        <ele>922.6</ele>
        <time>2024-05-17T11:05:35Z</time>
      </trkpt>
      <trkpt lat="44.61674" lon="5.18297">
        <ele>922.8</ele>
        <time>2024-05-17T11:05:36Z</time>
      </trkpt>
      <trkpt lat="44.61675" lon="5.18297">
        <ele>922.9</ele>
        <time>2024-05-17T11:05:37Z</time>
      </trkpt>
      <trkpt lat="44.61678" lon="5.18298">
        <ele>923.1</ele>
        <time>2024-05-17T11:05:38Z</time>
      </trkpt>
      <trkpt lat="44.61679" lon="5.18298">
        <ele>923.2</ele>
        <time>2024-05-17T11:05:39Z</time>
      </trkpt>
      <trkpt lat="44.61682" lon="5.18298">
        <ele>923.5</ele>
        <time>2024-05-17T11:05:40Z</time>
      </trkpt>
      <trkpt lat="44.61683" lon="5.18298">
        <ele>923.5</ele>
        <time>2024-05-17T11:05:41Z</time>
      </trkpt>
      <trkpt lat="44.61685" lon="5.18298">
        <ele>923.7</ele>
        <time>2024-05-17T11:05:42Z</time>
      </trkpt>
      <trkpt lat="44.61687" lon="5.18298">
        <ele>923.9</ele>
        <time>2024-05-17T11:05:43Z</time>
      </trkpt>
      <trkpt lat="44.61689" lon="5.18298">
        <ele>924.1</ele>
        <time>2024-05-17T11:05:44Z</time>
      </trkpt>
      <trkpt lat="44.61692" lon="5.18299">
        <ele>924.3</ele>
        <time>2024-05-17T11:05:45Z</time>
      </trkpt>
      <trkpt lat="44.61693" lon="5.18299">
        <ele>924.4</ele>
        <time>2024-05-17T11:05:46Z</time>
      </trkpt>
      <trkpt lat="44.61696" lon="5.18299">
        <ele>924.6</ele>
        <time>2024-05-17T11:05:47Z</time>
      </trkpt>
      <trkpt lat="44.61697" lon="5.18299">
        <ele>924.7</ele>
        <time>2024-05-17T11:05:48Z</time>
      </trkpt>
      <trkpt lat="44.61699" lon="5.183">
        <ele>924.9</ele>
        <time>2024-05-17T11:05:49Z</time>
      </trkpt>
      <trkpt lat="44.61701" lon="5.183">
        <ele>925.1</ele>
        <time>2024-05-17T11:05:50Z</time>
      </trkpt>
      <trkpt lat="44.61704" lon="5.18301">
        <ele>925.3</ele>
        <time>2024-05-17T11:05:51Z</time>
      </trkpt>
      <trkpt lat="44.61705" lon="5.18301">
        <ele>925.4</ele>
        <time>2024-05-17T11:05:52Z</time>
      </trkpt>
      <trkpt lat="44.61707" lon="5.18301">
        <ele>925.6</ele>
        <time>2024-05-17T11:05:53Z</time>
      </trkpt>
      <trkpt lat="44.61709" lon="5.18301">
        <ele>925.8</ele>
        <time>2024-05-17T11:05:54Z</time>
      </trkpt>
      <trkpt lat="44.61712" lon="5.18302">
        <ele>926</ele>
        <time>2024-05-17T11:05:55Z</time>
      </trkpt>
      <trkpt lat="44.61713" lon="5.18302">
        <ele>926.1</ele>
        <time>2024-05-17T11:05:56Z</time>
      </trkpt>
      <trkpt lat="44.61715" lon="5.18303">
        <ele>926.3</ele>
        <time>2024-05-17T11:05:57Z</time>
      </trkpt>
      <trkpt lat="44.61716" lon="5.18303">
        <ele>926.4</ele>
        <time>2024-05-17T11:05:58Z</time>
      </trkpt>
      <trkpt lat="44.61719" lon="5.18304">
        <ele>926.7</ele>
        <time>2024-05-17T11:05:59Z</time>
      </trkpt>
      <trkpt lat="44.6172" lon="5.18304">
        <ele>926.8</ele>
        <time>2024-05-17T11:06:00Z</time>
      </trkpt>
      <trkpt lat="44.61723" lon="5.18304">
        <ele>927</ele>
        <time>2024-05-17T11:06:01Z</time>
      </trkpt>
      <trkpt lat="44.61724" lon="5.18304">
        <ele>927.1</ele>
        <time>2024-05-17T11:06:02Z</time>
      </trkpt>
      <trkpt lat="44.61727" lon="5.18305">
        <ele>927.4</ele>
        <time>2024-05-17T11:06:03Z</time>
      </trkpt>
      <trkpt lat="44.61728" lon="5.18305">
        <ele>927.5</ele>
        <time>2024-05-17T11:06:04Z</time>
      </trkpt>
      <trkpt lat="44.6173" lon="5.18305">
        <ele>927.7</ele>
        <time>2024-05-17T11:06:05Z</time>
      </trkpt>
      <trkpt lat="44.61733" lon="5.18307">
        <ele>927.9</ele>
        <time>2024-05-17T11:06:06Z</time>
      </trkpt>
      <trkpt lat="44.61734" lon="5.18307">
        <ele>928.1</ele>
        <time>2024-05-17T11:06:07Z</time>
      </trkpt>
      <trkpt lat="44.61738" lon="5.18308">
        <ele>928.3</ele>
        <time>2024-05-17T11:06:08Z</time>
      </trkpt>
      <trkpt lat="44.61739" lon="5.18308">
        <ele>928.4</ele>
        <time>2024-05-17T11:06:09Z</time>
      </trkpt>
      <trkpt lat="44.61741" lon="5.18308">
        <ele>928.6</ele>
        <time>2024-05-17T11:06:10Z</time>
      </trkpt>
      <trkpt lat="44.61744" lon="5.18309">
        <ele>928.9</ele>
        <time>2024-05-17T11:06:11Z</time>
      </trkpt>
      <trkpt lat="44.61745" lon="5.18309">
        <ele>929.1</ele>
        <time>2024-05-17T11:06:12Z</time>
      </trkpt>
      <trkpt lat="44.61748" lon="5.1831">
        <ele>929.4</ele>
        <time>2024-05-17T11:06:13Z</time>
      </trkpt>
      <trkpt lat="44.61749" lon="5.1831">
        <ele>929.5</ele>
        <time>2024-05-17T11:06:14Z</time>
      </trkpt>
      <trkpt lat="44.61752" lon="5.18309">
        <ele>929.8</ele>
        <time>2024-05-17T11:06:15Z</time>
      </trkpt>
      <trkpt lat="44.61754" lon="5.18309">
        <ele>929.9</ele>
        <time>2024-05-17T11:06:16Z</time>
      </trkpt>
      <trkpt lat="44.61757" lon="5.1831">
        <ele>930.3</ele>
        <time>2024-05-17T11:06:17Z</time>
      </trkpt>
      <trkpt lat="44.61758" lon="5.1831">
        <ele>930.4</ele>
        <time>2024-05-17T11:06:18Z</time>
      </trkpt>
      <trkpt lat="44.61761" lon="5.1831">
        <ele>930.7</ele>
        <time>2024-05-17T11:06:19Z</time>
      </trkpt>
      <trkpt lat="44.61762" lon="5.1831">
        <ele>930.8</ele>
        <time>2024-05-17T11:06:20Z</time>
      </trkpt>
      <trkpt lat="44.61765" lon="5.1831">
        <ele>931.1</ele>
        <time>2024-05-17T11:06:21Z</time>
      </trkpt>
      <trkpt lat="44.61766" lon="5.18311">
        <ele>931.2</ele>
        <time>2024-05-17T11:06:22Z</time>
      </trkpt>
      <trkpt lat="44.61768" lon="5.18311">
        <ele>931.4</ele>
        <time>2024-05-17T11:06:23Z</time>
      </trkpt>
      <trkpt lat="44.61769" lon="5.18311">
        <ele>931.5</ele>
        <time>2024-05-17T11:06:24Z</time>
      </trkpt>
      <trkpt lat="44.61771" lon="5.18311">
        <ele>931.7</ele>
        <time>2024-05-17T11:06:25Z</time>
      </trkpt>
      <trkpt lat="44.61773" lon="5.18311">
        <ele>931.9</ele>
        <time>2024-05-17T11:06:26Z</time>
      </trkpt>
      <trkpt lat="44.61775" lon="5.18312">
        <ele>932.1</ele>
        <time>2024-05-17T11:06:27Z</time>
      </trkpt>
      <trkpt lat="44.61777" lon="5.18312">
        <ele>932.3</ele>
        <time>2024-05-17T11:06:28Z</time>
      </trkpt>
      <trkpt lat="44.61778" lon="5.18313">
        <ele>932.4</ele>
        <time>2024-05-17T11:06:29Z</time>
      </trkpt>
      <trkpt lat="44.61781" lon="5.18313">
        <ele>932.7</ele>
        <time>2024-05-17T11:06:30Z</time>
      </trkpt>
      <trkpt lat="44.61782" lon="5.18314">
        <ele>932.8</ele>
        <time>2024-05-17T11:06:31Z</time>
      </trkpt>
      <trkpt lat="44.61785" lon="5.18314">
        <ele>933.1</ele>
        <time>2024-05-17T11:06:32Z</time>
      </trkpt>
      <trkpt lat="44.61786" lon="5.18314">
        <ele>933.2</ele>
        <time>2024-05-17T11:06:33Z</time>
      </trkpt>
      <trkpt lat="44.61788" lon="5.18315">
        <ele>933.4</ele>
        <time>2024-05-17T11:06:34Z</time>
      </trkpt>
      <trkpt lat="44.61792" lon="5.18316">
        <ele>933.8</ele>
        <time>2024-05-17T11:06:35Z</time>
      </trkpt>
      <trkpt lat="44.61793" lon="5.18316">
        <ele>933.9</ele>
        <time>2024-05-17T11:06:36Z</time>
      </trkpt>
      <trkpt lat="44.61795" lon="5.18316">
        <ele>934.1</ele>
        <time>2024-05-17T11:06:37Z</time>
      </trkpt>
      <trkpt lat="44.61797" lon="5.18317">
        <ele>934.3</ele>
        <time>2024-05-17T11:06:38Z</time>
      </trkpt>
      <trkpt lat="44.618" lon="5.18317">
        <ele>934.6</ele>
        <time>2024-05-17T11:06:39Z</time>
      </trkpt>
      <trkpt lat="44.61801" lon="5.18317">
        <ele>934.7</ele>
        <time>2024-05-17T11:06:40Z</time>
      </trkpt>
      <trkpt lat="44.61804" lon="5.18318">
        <ele>935</ele>
        <time>2024-05-17T11:06:41Z</time>
      </trkpt>
      <trkpt lat="44.61805" lon="5.18319">
        <ele>935.1</ele>
        <time>2024-05-17T11:06:42Z</time>
      </trkpt>
      <trkpt lat="44.61808" lon="5.18319">
        <ele>935.4</ele>
        <time>2024-05-17T11:06:43Z</time>
      </trkpt>
      <trkpt lat="44.6181" lon="5.1832">
        <ele>935.6</ele>
        <time>2024-05-17T11:06:44Z</time>
      </trkpt>
      <trkpt lat="44.61812" lon="5.1832">
        <ele>935.8</ele>
        <time>2024-05-17T11:06:45Z</time>
      </trkpt>
      <trkpt lat="44.61814" lon="5.18319">
        <ele>936</ele>
        <time>2024-05-17T11:06:46Z</time>
      </trkpt>
      <trkpt lat="44.61817" lon="5.1832">
        <ele>936.3</ele>
        <time>2024-05-17T11:06:47Z</time>
      </trkpt>
      <trkpt lat="44.61818" lon="5.1832">
        <ele>936.4</ele>
        <time>2024-05-17T11:06:48Z</time>
      </trkpt>
      <trkpt lat="44.6182" lon="5.1832">
        <ele>936.6</ele>
        <time>2024-05-17T11:06:49Z</time>
      </trkpt>
      <trkpt lat="44.61824" lon="5.18321">
        <ele>936.9</ele>
        <time>2024-05-17T11:06:50Z</time>
      </trkpt>
      <trkpt lat="44.61825" lon="5.18321">
        <ele>937</ele>
        <time>2024-05-17T11:06:51Z</time>
      </trkpt>
      <trkpt lat="44.61827" lon="5.18322">
        <ele>937.3</ele>
        <time>2024-05-17T11:06:52Z</time>
      </trkpt>
      <trkpt lat="44.6183" lon="5.18323">
        <ele>937.6</ele>
        <time>2024-05-17T11:06:53Z</time>
      </trkpt>
      <trkpt lat="44.61831" lon="5.18323">
        <ele>937.7</ele>
        <time>2024-05-17T11:06:54Z</time>
      </trkpt>
      <trkpt lat="44.61835" lon="5.18323">
        <ele>938</ele>
        <time>2024-05-17T11:06:55Z</time>
      </trkpt>
      <trkpt lat="44.61836" lon="5.18323">
        <ele>938.1</ele>
        <time>2024-05-17T11:06:56Z</time>
      </trkpt>
      <trkpt lat="44.61839" lon="5.18324">
        <ele>938.4</ele>
        <time>2024-05-17T11:06:57Z</time>
      </trkpt>
      <trkpt lat="44.6184" lon="5.18324">
        <ele>938.5</ele>
        <time>2024-05-17T11:06:58Z</time>
      </trkpt>
      <trkpt lat="44.61843" lon="5.18324">
        <ele>938.9</ele>
        <time>2024-05-17T11:06:59Z</time>
      </trkpt>
      <trkpt lat="44.61844" lon="5.18324">
        <ele>939</ele>
        <time>2024-05-17T11:07:00Z</time>
      </trkpt>
      <trkpt lat="44.61848" lon="5.18324">
        <ele>939.3</ele>
        <time>2024-05-17T11:07:01Z</time>
      </trkpt>
      <trkpt lat="44.61849" lon="5.18324">
        <ele>939.4</ele>
        <time>2024-05-17T11:07:02Z</time>
      </trkpt>
      <trkpt lat="44.61851" lon="5.18324">
        <ele>939.6</ele>
        <time>2024-05-17T11:07:03Z</time>
      </trkpt>
      <trkpt lat="44.61853" lon="5.18325">
        <ele>939.8</ele>
        <time>2024-05-17T11:07:04Z</time>
      </trkpt>
      <trkpt lat="44.61856" lon="5.18325">
        <ele>940.1</ele>
        <time>2024-05-17T11:07:05Z</time>
      </trkpt>
      <trkpt lat="44.61857" lon="5.18325">
        <ele>940.2</ele>
        <time>2024-05-17T11:07:06Z</time>
      </trkpt>
      <trkpt lat="44.6186" lon="5.18325">
        <ele>940.5</ele>
        <time>2024-05-17T11:07:07Z</time>
      </trkpt>
      <trkpt lat="44.61861" lon="5.18325">
        <ele>940.6</ele>
        <time>2024-05-17T11:07:08Z</time>
      </trkpt>
      <trkpt lat="44.61863" lon="5.18325">
        <ele>940.8</ele>
        <time>2024-05-17T11:07:09Z</time>
      </trkpt>
      <trkpt lat="44.61866" lon="5.18325">
        <ele>941.1</ele>
        <time>2024-05-17T11:07:10Z</time>
      </trkpt>
      <trkpt lat="44.61867" lon="5.18325">
        <ele>941.2</ele>
        <time>2024-05-17T11:07:11Z</time>
      </trkpt>
      <trkpt lat="44.61869" lon="5.18325">
        <ele>941.5</ele>
        <time>2024-05-17T11:07:12Z</time>
      </trkpt>
      <trkpt lat="44.61872" lon="5.18325">
        <ele>941.7</ele>
        <time>2024-05-17T11:07:13Z</time>
      </trkpt>
      <trkpt lat="44.61873" lon="5.18325">
        <ele>941.9</ele>
        <time>2024-05-17T11:07:14Z</time>
      </trkpt>
      <trkpt lat="44.61876" lon="5.18325">
        <ele>942.1</ele>
        <time>2024-05-17T11:07:15Z</time>
      </trkpt>
      <trkpt lat="44.61877" lon="5.18325">
        <ele>942.2</ele>
        <time>2024-05-17T11:07:16Z</time>
      </trkpt>
      <trkpt lat="44.6188" lon="5.18325">
        <ele>942.5</ele>
        <time>2024-05-17T11:07:17Z</time>
      </trkpt>
      <trkpt lat="44.61882" lon="5.18325">
        <ele>942.6</ele>
        <time>2024-05-17T11:07:18Z</time>
      </trkpt>
      <trkpt lat="44.61884" lon="5.18326">
        <ele>942.8</ele>
        <time>2024-05-17T11:07:19Z</time>
      </trkpt>
      <trkpt lat="44.61886" lon="5.18326">
        <ele>943.1</ele>
        <time>2024-05-17T11:07:20Z</time>
      </trkpt>
      <trkpt lat="44.61887" lon="5.18327">
        <ele>943.2</ele>
        <time>2024-05-17T11:07:21Z</time>
      </trkpt>
      <trkpt lat="44.61889" lon="5.18327">
        <ele>943.4</ele>
        <time>2024-05-17T11:07:22Z</time>
      </trkpt>
      <trkpt lat="44.61891" lon="5.18328">
        <ele>943.6</ele>
        <time>2024-05-17T11:07:23Z</time>
      </trkpt>
      <trkpt lat="44.61893" lon="5.18329">
        <ele>943.8</ele>
        <time>2024-05-17T11:07:24Z</time>
      </trkpt>
      <trkpt lat="44.61896" lon="5.1833">
        <ele>944.1</ele>
        <time>2024-05-17T11:07:25Z</time>
      </trkpt>
      <trkpt lat="44.61897" lon="5.1833">
        <ele>944.2</ele>
        <time>2024-05-17T11:07:26Z</time>
      </trkpt>
      <trkpt lat="44.619" lon="5.18331">
        <ele>944.5</ele>
        <time>2024-05-17T11:07:27Z</time>
      </trkpt>
      <trkpt lat="44.61901" lon="5.18331">
        <ele>944.6</ele>
        <time>2024-05-17T11:07:28Z</time>
      </trkpt>
      <trkpt lat="44.61904" lon="5.18332">
        <ele>944.9</ele>
        <time>2024-05-17T11:07:29Z</time>
      </trkpt>
      <trkpt lat="44.61905" lon="5.18332">
        <ele>945</ele>
        <time>2024-05-17T11:07:30Z</time>
      </trkpt>
      <trkpt lat="44.61907" lon="5.18333">
        <ele>945.1</ele>
        <time>2024-05-17T11:07:31Z</time>
      </trkpt>
      <trkpt lat="44.61908" lon="5.18333">
        <ele>945.3</ele>
        <time>2024-05-17T11:07:32Z</time>
      </trkpt>
      <trkpt lat="44.6191" lon="5.18333">
        <ele>945.4</ele>
        <time>2024-05-17T11:07:33Z</time>
      </trkpt>
      <trkpt lat="44.61913" lon="5.18334">
        <ele>945.7</ele>
        <time>2024-05-17T11:07:34Z</time>
      </trkpt>
      <trkpt lat="44.61914" lon="5.18334">
        <ele>945.8</ele>
        <time>2024-05-17T11:07:35Z</time>
      </trkpt>
      <trkpt lat="44.61917" lon="5.18335">
        <ele>946.1</ele>
        <time>2024-05-17T11:07:36Z</time>
      </trkpt>
      <trkpt lat="44.61918" lon="5.18335">
        <ele>946.2</ele>
        <time>2024-05-17T11:07:37Z</time>
      </trkpt>
      <trkpt lat="44.61919" lon="5.18335">
        <ele>946.3</ele>
        <time>2024-05-17T11:07:38Z</time>
      </trkpt>
      <trkpt lat="44.61922" lon="5.18335">
        <ele>946.6</ele>
        <time>2024-05-17T11:07:39Z</time>
      </trkpt>
      <trkpt lat="44.61923" lon="5.18336">
        <ele>946.7</ele>
        <time>2024-05-17T11:07:40Z</time>
      </trkpt>
      <trkpt lat="44.61926" lon="5.18336">
        <ele>947</ele>
        <time>2024-05-17T11:07:41Z</time>
      </trkpt>
      <trkpt lat="44.61927" lon="5.18336">
        <ele>947.2</ele>
        <time>2024-05-17T11:07:42Z</time>
      </trkpt>
      <trkpt lat="44.6193" lon="5.18337">
        <ele>947.5</ele>
        <time>2024-05-17T11:07:43Z</time>
      </trkpt>
      <trkpt lat="44.61931" lon="5.18337">
        <ele>947.6</ele>
        <time>2024-05-17T11:07:44Z</time>
      </trkpt>
      <trkpt lat="44.61933" lon="5.18338">
        <ele>947.9</ele>
        <time>2024-05-17T11:07:45Z</time>
      </trkpt>
      <trkpt lat="44.61934" lon="5.18338">
        <ele>948</ele>
        <time>2024-05-17T11:07:46Z</time>
      </trkpt>
      <trkpt lat="44.61937" lon="5.18339">
        <ele>948.3</ele>
        <time>2024-05-17T11:07:47Z</time>
      </trkpt>
      <trkpt lat="44.61938" lon="5.1834">
        <ele>948.4</ele>
        <time>2024-05-17T11:07:48Z</time>
      </trkpt>
      <trkpt lat="44.61941" lon="5.1834">
        <ele>948.7</ele>
        <time>2024-05-17T11:07:49Z</time>
      </trkpt>
      <trkpt lat="44.61942" lon="5.18341">
        <ele>948.8</ele>
        <time>2024-05-17T11:07:50Z</time>
      </trkpt>
      <trkpt lat="44.61943" lon="5.18341">
        <ele>949</ele>
        <time>2024-05-17T11:07:51Z</time>
      </trkpt>
      <trkpt lat="44.61946" lon="5.18342">
        <ele>949.3</ele>
        <time>2024-05-17T11:07:52Z</time>
      </trkpt>
      <trkpt lat="44.61947" lon="5.18342">
        <ele>949.4</ele>
        <time>2024-05-17T11:07:53Z</time>
      </trkpt>
      <trkpt lat="44.6195" lon="5.18343">
        <ele>949.7</ele>
        <time>2024-05-17T11:07:54Z</time>
      </trkpt>
      <trkpt lat="44.61951" lon="5.18343">
        <ele>949.8</ele>
        <time>2024-05-17T11:07:55Z</time>
      </trkpt>
      <trkpt lat="44.61952" lon="5.18344">
        <ele>950</ele>
        <time>2024-05-17T11:07:56Z</time>
      </trkpt>
      <trkpt lat="44.61955" lon="5.18345">
        <ele>950.3</ele>
        <time>2024-05-17T11:07:57Z</time>
      </trkpt>
      <trkpt lat="44.61956" lon="5.18346">
        <ele>950.4</ele>
        <time>2024-05-17T11:07:58Z</time>
      </trkpt>
      <trkpt lat="44.61958" lon="5.18348">
        <ele>950.7</ele>
        <time>2024-05-17T11:07:59Z</time>
      </trkpt>
      <trkpt lat="44.61959" lon="5.18348">
        <ele>950.8</ele>
        <time>2024-05-17T11:08:00Z</time>
      </trkpt>
      <trkpt lat="44.61961" lon="5.1835">
        <ele>950.7</ele>
        <time>2024-05-17T11:08:01Z</time>
      </trkpt>
      <trkpt lat="44.61962" lon="5.18351">
        <ele>950.3</ele>
        <time>2024-05-17T11:08:02Z</time>
      </trkpt>
      <trkpt lat="44.61964" lon="5.18351">
        <ele>950.2</ele>
        <time>2024-05-17T11:08:03Z</time>
      </trkpt>
      <trkpt lat="44.61966" lon="5.18352">
        <ele>950.3</ele>
        <time>2024-05-17T11:08:04Z</time>
      </trkpt>
      <trkpt lat="44.61968" lon="5.18353">
        <ele>950.6</ele>
        <time>2024-05-17T11:08:05Z</time>
      </trkpt>
      <trkpt lat="44.61969" lon="5.18354">
        <ele>950.7</ele>
        <time>2024-05-17T11:08:06Z</time>
      </trkpt>
      <trkpt lat="44.61972" lon="5.18354">
        <ele>950.9</ele>
        <time>2024-05-17T11:08:07Z</time>
      </trkpt>
      <trkpt lat="44.61973" lon="5.18354">
        <ele>950.9</ele>
        <time>2024-05-17T11:08:08Z</time>
      </trkpt>
      <trkpt lat="44.61976" lon="5.18356">
        <ele>951.2</ele>
        <time>2024-05-17T11:08:09Z</time>
      </trkpt>
      <trkpt lat="44.61977" lon="5.18356">
        <ele>951.3</ele>
        <time>2024-05-17T11:08:10Z</time>
      </trkpt>
      <trkpt lat="44.61979" lon="5.18359">
        <ele>951.5</ele>
        <time>2024-05-17T11:08:11Z</time>
      </trkpt>
      <trkpt lat="44.6198" lon="5.1836">
        <ele>951.6</ele>
        <time>2024-05-17T11:08:12Z</time>
      </trkpt>
      <trkpt lat="44.61982" lon="5.18363">
        <ele>951.8</ele>
        <time>2024-05-17T11:08:13Z</time>
      </trkpt>
      <trkpt lat="44.61983" lon="5.18364">
        <ele>951.9</ele>
        <time>2024-05-17T11:08:14Z</time>
      </trkpt>
      <trkpt lat="44.61984" lon="5.18368">
        <ele>952.1</ele>
        <time>2024-05-17T11:08:15Z</time>
      </trkpt>
      <trkpt lat="44.61985" lon="5.18369">
        <ele>952.2</ele>
        <time>2024-05-17T11:08:16Z</time>
      </trkpt>
      <trkpt lat="44.61986" lon="5.18372">
        <ele>952.4</ele>
        <time>2024-05-17T11:08:17Z</time>
      </trkpt>
      <trkpt lat="44.61988" lon="5.18375">
        <ele>952.6</ele>
        <time>2024-05-17T11:08:18Z</time>
      </trkpt>
      <trkpt lat="44.61988" lon="5.18377">
        <ele>952.7</ele>
        <time>2024-05-17T11:08:19Z</time>
      </trkpt>
      <trkpt lat="44.6199" lon="5.1838">
        <ele>953</ele>
        <time>2024-05-17T11:08:20Z</time>
      </trkpt>
      <trkpt lat="44.61991" lon="5.18381">
        <ele>953.1</ele>
        <time>2024-05-17T11:08:21Z</time>
      </trkpt>
      <trkpt lat="44.61994" lon="5.18384">
        <ele>953.3</ele>
        <time>2024-05-17T11:08:22Z</time>
      </trkpt>
      <trkpt lat="44.61994" lon="5.18385">
        <ele>953.4</ele>
        <time>2024-05-17T11:08:23Z</time>
      </trkpt>
      <trkpt lat="44.61997" lon="5.18388">
        <ele>953.6</ele>
        <time>2024-05-17T11:08:24Z</time>
      </trkpt>
      <trkpt lat="44.61997" lon="5.1839">
        <ele>953.7</ele>
        <time>2024-05-17T11:08:25Z</time>
      </trkpt>
      <trkpt lat="44.61999" lon="5.18393">
        <ele>953.9</ele>
        <time>2024-05-17T11:08:26Z</time>
      </trkpt>
      <trkpt lat="44.62" lon="5.18394">
        <ele>954</ele>
        <time>2024-05-17T11:08:27Z</time>
      </trkpt>
      <trkpt lat="44.62003" lon="5.18397">
        <ele>954.3</ele>
        <time>2024-05-17T11:08:28Z</time>
      </trkpt>
      <trkpt lat="44.62004" lon="5.18398">
        <ele>954.4</ele>
        <time>2024-05-17T11:08:29Z</time>
      </trkpt>
      <trkpt lat="44.62006" lon="5.18402">
        <ele>954.6</ele>
        <time>2024-05-17T11:08:30Z</time>
      </trkpt>
      <trkpt lat="44.62007" lon="5.18403">
        <ele>954.7</ele>
        <time>2024-05-17T11:08:31Z</time>
      </trkpt>
      <trkpt lat="44.62009" lon="5.18407">
        <ele>955</ele>
        <time>2024-05-17T11:08:32Z</time>
      </trkpt>
      <trkpt lat="44.6201" lon="5.18409">
        <ele>955</ele>
        <time>2024-05-17T11:08:33Z</time>
      </trkpt>
      <trkpt lat="44.62012" lon="5.18411">
        <ele>955.2</ele>
        <time>2024-05-17T11:08:34Z</time>
      </trkpt>
      <trkpt lat="44.62014" lon="5.18414">
        <ele>955.4</ele>
        <time>2024-05-17T11:08:35Z</time>
      </trkpt>
      <trkpt lat="44.62015" lon="5.18415">
        <ele>955.5</ele>
        <time>2024-05-17T11:08:36Z</time>
      </trkpt>
      <trkpt lat="44.62016" lon="5.18418">
        <ele>955.6</ele>
        <time>2024-05-17T11:08:37Z</time>
      </trkpt>
      <trkpt lat="44.62019" lon="5.18421">
        <ele>955.8</ele>
        <time>2024-05-17T11:08:38Z</time>
      </trkpt>
      <trkpt lat="44.6202" lon="5.18423">
        <ele>955.9</ele>
        <time>2024-05-17T11:08:39Z</time>
      </trkpt>
      <trkpt lat="44.62022" lon="5.18426">
        <ele>956.1</ele>
        <time>2024-05-17T11:08:40Z</time>
      </trkpt>
      <trkpt lat="44.62023" lon="5.18428">
        <ele>956.2</ele>
        <time>2024-05-17T11:08:41Z</time>
      </trkpt>
      <trkpt lat="44.62025" lon="5.18431">
        <ele>956.3</ele>
        <time>2024-05-17T11:08:42Z</time>
      </trkpt>
      <trkpt lat="44.62026" lon="5.18432">
        <ele>956.4</ele>
        <time>2024-05-17T11:08:43Z</time>
      </trkpt>
      <trkpt lat="44.62027" lon="5.18436">
        <ele>956.6</ele>
        <time>2024-05-17T11:08:44Z</time>
      </trkpt>
      <trkpt lat="44.62028" lon="5.18437">
        <ele>956.7</ele>
        <time>2024-05-17T11:08:45Z</time>
      </trkpt>
      <trkpt lat="44.62029" lon="5.1844">
        <ele>956.8</ele>
        <time>2024-05-17T11:08:46Z</time>
      </trkpt>
      <trkpt lat="44.62031" lon="5.18442">
        <ele>956.9</ele>
        <time>2024-05-17T11:08:47Z</time>
      </trkpt>
      <trkpt lat="44.62033" lon="5.18445">
        <ele>957.1</ele>
        <time>2024-05-17T11:08:48Z</time>
      </trkpt>
      <trkpt lat="44.62034" lon="5.18447">
        <ele>957.1</ele>
        <time>2024-05-17T11:08:49Z</time>
      </trkpt>
      <trkpt lat="44.62036" lon="5.1845">
        <ele>957.3</ele>
        <time>2024-05-17T11:08:50Z</time>
      </trkpt>
      <trkpt lat="44.62037" lon="5.18451">
        <ele>957.4</ele>
        <time>2024-05-17T11:08:51Z</time>
      </trkpt>
      <trkpt lat="44.62038" lon="5.18454">
        <ele>957.5</ele>
        <time>2024-05-17T11:08:52Z</time>
      </trkpt>
      <trkpt lat="44.62039" lon="5.18455">
        <ele>957.6</ele>
        <time>2024-05-17T11:08:53Z</time>
      </trkpt>
      <trkpt lat="44.62041" lon="5.18458">
        <ele>957.8</ele>
        <time>2024-05-17T11:08:54Z</time>
      </trkpt>
      <trkpt lat="44.62042" lon="5.18459">
        <ele>957.8</ele>
        <time>2024-05-17T11:08:55Z</time>
      </trkpt>
      <trkpt lat="44.62044" lon="5.18461">
        <ele>957.9</ele>
        <time>2024-05-17T11:08:56Z</time>
      </trkpt>
      <trkpt lat="44.62045" lon="5.18462">
        <ele>958</ele>
        <time>2024-05-17T11:09:42Z</time>
      </trkpt>
      <trkpt lat="44.62046" lon="5.18463">
        <ele>958.1</ele>
        <time>2024-05-17T11:09:43Z</time>
      </trkpt>
      <trkpt lat="44.62048" lon="5.18465">
        <ele>958.2</ele>
        <time>2024-05-17T11:09:44Z</time>
      </trkpt>
      <trkpt lat="44.6205" lon="5.18469">
        <ele>958.4</ele>
        <time>2024-05-17T11:09:45Z</time>
      </trkpt>
      <trkpt lat="44.6205" lon="5.1847">
        <ele>958.5</ele>
        <time>2024-05-17T11:09:46Z</time>
      </trkpt>
      <trkpt lat="44.62052" lon="5.18475">
        <ele>958.7</ele>
        <time>2024-05-17T11:09:47Z</time>
      </trkpt>
      <trkpt lat="44.62053" lon="5.18476">
        <ele>958.8</ele>
        <time>2024-05-17T11:09:48Z</time>
      </trkpt>
      <trkpt lat="44.62055" lon="5.18481">
        <ele>959.1</ele>
        <time>2024-05-17T11:09:49Z</time>
      </trkpt>
      <trkpt lat="44.62056" lon="5.18482">
        <ele>959.2</ele>
        <time>2024-05-17T11:09:50Z</time>
      </trkpt>
      <trkpt lat="44.62058" lon="5.18487">
        <ele>959.4</ele>
        <time>2024-05-17T11:09:51Z</time>
      </trkpt>
      <trkpt lat="44.62059" lon="5.18488">
        <ele>959.5</ele>
        <time>2024-05-17T11:09:52Z</time>
      </trkpt>
      <trkpt lat="44.6206" lon="5.18491">
        <ele>959.7</ele>
        <time>2024-05-17T11:09:53Z</time>
      </trkpt>
      <trkpt lat="44.62062" lon="5.18496">
        <ele>959.9</ele>
        <time>2024-05-17T11:09:54Z</time>
      </trkpt>
      <trkpt lat="44.62063" lon="5.18497">
        <ele>960</ele>
        <time>2024-05-17T11:09:55Z</time>
      </trkpt>
      <trkpt lat="44.62065" lon="5.18502">
        <ele>960.2</ele>
        <time>2024-05-17T11:09:56Z</time>
      </trkpt>
      <trkpt lat="44.62066" lon="5.18503">
        <ele>960.3</ele>
        <time>2024-05-17T11:09:57Z</time>
      </trkpt>
      <trkpt lat="44.62068" lon="5.18508">
        <ele>960.5</ele>
        <time>2024-05-17T11:09:58Z</time>
      </trkpt>
      <trkpt lat="44.62069" lon="5.18509">
        <ele>960.6</ele>
        <time>2024-05-17T11:09:59Z</time>
      </trkpt>
      <trkpt lat="44.6207" lon="5.18512">
        <ele>960.7</ele>
        <time>2024-05-17T11:10:00Z</time>
      </trkpt>
      <trkpt lat="44.62072" lon="5.18516">
        <ele>960.9</ele>
        <time>2024-05-17T11:10:01Z</time>
      </trkpt>
      <trkpt lat="44.62073" lon="5.18517">
        <ele>961</ele>
        <time>2024-05-17T11:10:02Z</time>
      </trkpt>
      <trkpt lat="44.62075" lon="5.1852">
        <ele>961.1</ele>
        <time>2024-05-17T11:10:03Z</time>
      </trkpt>
      <trkpt lat="44.62076" lon="5.18525">
        <ele>961.4</ele>
        <time>2024-05-17T11:10:04Z</time>
      </trkpt>
      <trkpt lat="44.62076" lon="5.18526">
        <ele>961.4</ele>
        <time>2024-05-17T11:10:05Z</time>
      </trkpt>
      <trkpt lat="44.62078" lon="5.18531">
        <ele>961.7</ele>
        <time>2024-05-17T11:10:06Z</time>
      </trkpt>
      <trkpt lat="44.62079" lon="5.18532">
        <ele>961.8</ele>
        <time>2024-05-17T11:10:07Z</time>
      </trkpt>
      <trkpt lat="44.6208" lon="5.18535">
        <ele>961.9</ele>
        <time>2024-05-17T11:10:08Z</time>
      </trkpt>
      <trkpt lat="44.62081" lon="5.18538">
        <ele>962.1</ele>
        <time>2024-05-17T11:10:09Z</time>
      </trkpt>
      <trkpt lat="44.62082" lon="5.18541">
        <ele>962.3</ele>
        <time>2024-05-17T11:10:10Z</time>
      </trkpt>
      <trkpt lat="44.62084" lon="5.18544">
        <ele>962.4</ele>
        <time>2024-05-17T11:10:11Z</time>
      </trkpt>
      <trkpt lat="44.62086" lon="5.18549">
        <ele>962.7</ele>
        <time>2024-05-17T11:10:12Z</time>
      </trkpt>
      <trkpt lat="44.62086" lon="5.18551">
        <ele>962.8</ele>
        <time>2024-05-17T11:10:13Z</time>
      </trkpt>
      <trkpt lat="44.62088" lon="5.18556">
        <ele>963.1</ele>
        <time>2024-05-17T11:10:14Z</time>
      </trkpt>
      <trkpt lat="44.62089" lon="5.18557">
        <ele>963.1</ele>
        <time>2024-05-17T11:10:15Z</time>
      </trkpt>
      <trkpt lat="44.6209" lon="5.18561">
        <ele>963.3</ele>
        <time>2024-05-17T11:10:16Z</time>
      </trkpt>
      <trkpt lat="44.62091" lon="5.18564">
        <ele>963.5</ele>
        <time>2024-05-17T11:10:17Z</time>
      </trkpt>
      <trkpt lat="44.62092" lon="5.18568">
        <ele>963.7</ele>
        <time>2024-05-17T11:10:18Z</time>
      </trkpt>
      <trkpt lat="44.62094" lon="5.18572">
        <ele>963.9</ele>
        <time>2024-05-17T11:10:19Z</time>
      </trkpt>
      <trkpt lat="44.62094" lon="5.18573">
        <ele>964</ele>
        <time>2024-05-17T11:10:20Z</time>
      </trkpt>
      <trkpt lat="44.62096" lon="5.18577">
        <ele>964.2</ele>
        <time>2024-05-17T11:10:21Z</time>
      </trkpt>
      <trkpt lat="44.62098" lon="5.18582">
        <ele>964.4</ele>
        <time>2024-05-17T11:10:22Z</time>
      </trkpt>
      <trkpt lat="44.62098" lon="5.18583">
        <ele>964.5</ele>
        <time>2024-05-17T11:10:23Z</time>
      </trkpt>
      <trkpt lat="44.621" lon="5.18587">
        <ele>964.7</ele>
        <time>2024-05-17T11:10:24Z</time>
      </trkpt>
      <trkpt lat="44.62102" lon="5.18591">
        <ele>964.9</ele>
        <time>2024-05-17T11:10:25Z</time>
      </trkpt>
      <trkpt lat="44.62103" lon="5.18593">
        <ele>965</ele>
        <time>2024-05-17T11:10:26Z</time>
      </trkpt>
      <trkpt lat="44.62105" lon="5.18597">
        <ele>965.2</ele>
        <time>2024-05-17T11:10:27Z</time>
      </trkpt>
      <trkpt lat="44.62106" lon="5.18598">
        <ele>965.3</ele>
        <time>2024-05-17T11:10:28Z</time>
      </trkpt>
      <trkpt lat="44.62108" lon="5.18602">
        <ele>965.6</ele>
        <time>2024-05-17T11:10:29Z</time>
      </trkpt>
      <trkpt lat="44.62109" lon="5.18604">
        <ele>965.7</ele>
        <time>2024-05-17T11:10:30Z</time>
      </trkpt>
      <trkpt lat="44.62111" lon="5.18607">
        <ele>965.8</ele>
        <time>2024-05-17T11:10:31Z</time>
      </trkpt>
      <trkpt lat="44.62113" lon="5.18609">
        <ele>966</ele>
        <time>2024-05-17T11:10:32Z</time>
      </trkpt>
      <trkpt lat="44.62115" lon="5.18614">
        <ele>966.2</ele>
        <time>2024-05-17T11:10:33Z</time>
      </trkpt>
      <trkpt lat="44.62116" lon="5.18615">
        <ele>966.3</ele>
        <time>2024-05-17T11:10:34Z</time>
      </trkpt>
      <trkpt lat="44.62118" lon="5.18619">
        <ele>966.6</ele>
        <time>2024-05-17T11:10:35Z</time>
      </trkpt>
      <trkpt lat="44.62119" lon="5.1862">
        <ele>966.7</ele>
        <time>2024-05-17T11:10:36Z</time>
      </trkpt>
      <trkpt lat="44.62121" lon="5.18624">
        <ele>966.9</ele>
        <time>2024-05-17T11:10:37Z</time>
      </trkpt>
      <trkpt lat="44.62122" lon="5.18626">
        <ele>967</ele>
        <time>2024-05-17T11:10:38Z</time>
      </trkpt>
      <trkpt lat="44.62124" lon="5.1863">
        <ele>967.3</ele>
        <time>2024-05-17T11:10:39Z</time>
      </trkpt>
      <trkpt lat="44.62125" lon="5.18631">
        <ele>967.4</ele>
        <time>2024-05-17T11:10:40Z</time>
      </trkpt>
      <trkpt lat="44.62127" lon="5.18636">
        <ele>967.6</ele>
        <time>2024-05-17T11:10:41Z</time>
      </trkpt>
      <trkpt lat="44.62127" lon="5.18637">
        <ele>967.7</ele>
        <time>2024-05-17T11:10:42Z</time>
      </trkpt>
      <trkpt lat="44.62128" lon="5.1864">
        <ele>967.9</ele>
        <time>2024-05-17T11:10:43Z</time>
      </trkpt>
      <trkpt lat="44.6213" lon="5.18645">
        <ele>968.1</ele>
        <time>2024-05-17T11:10:44Z</time>
      </trkpt>
      <trkpt lat="44.6213" lon="5.18646">
        <ele>968.2</ele>
        <time>2024-05-17T11:10:45Z</time>
      </trkpt>
      <trkpt lat="44.62131" lon="5.18651">
        <ele>968.5</ele>
        <time>2024-05-17T11:10:46Z</time>
      </trkpt>
      <trkpt lat="44.62132" lon="5.18653">
        <ele>968.6</ele>
        <time>2024-05-17T11:10:47Z</time>
      </trkpt>
      <trkpt lat="44.62133" lon="5.18658">
        <ele>968.8</ele>
        <time>2024-05-17T11:10:48Z</time>
      </trkpt>
      <trkpt lat="44.62133" lon="5.1866">
        <ele>968.9</ele>
        <time>2024-05-17T11:10:49Z</time>
      </trkpt>
      <trkpt lat="44.62134" lon="5.18665">
        <ele>969.2</ele>
        <time>2024-05-17T11:10:50Z</time>
      </trkpt>
      <trkpt lat="44.62135" lon="5.18666">
        <ele>969.3</ele>
        <time>2024-05-17T11:10:51Z</time>
      </trkpt>
      <trkpt lat="44.62135" lon="5.18669">
        <ele>969.4</ele>
        <time>2024-05-17T11:10:52Z</time>
      </trkpt>
      <trkpt lat="44.62136" lon="5.18674">
        <ele>969.7</ele>
        <time>2024-05-17T11:10:53Z</time>
      </trkpt>
      <trkpt lat="44.62136" lon="5.18675">
        <ele>969.8</ele>
        <time>2024-05-17T11:10:54Z</time>
      </trkpt>
      <trkpt lat="44.62137" lon="5.1868">
        <ele>970</ele>
        <time>2024-05-17T11:10:55Z</time>
      </trkpt>
      <trkpt lat="44.62138" lon="5.18682">
        <ele>970.1</ele>
        <time>2024-05-17T11:10:56Z</time>
      </trkpt>
      <trkpt lat="44.62138" lon="5.18684">
        <ele>970.3</ele>
        <time>2024-05-17T11:10:57Z</time>
      </trkpt>
      <trkpt lat="44.62139" lon="5.18689">
        <ele>970.5</ele>
        <time>2024-05-17T11:10:58Z</time>
      </trkpt>
      <trkpt lat="44.6214" lon="5.1869">
        <ele>970.6</ele>
        <time>2024-05-17T11:10:59Z</time>
      </trkpt>
      <trkpt lat="44.6214" lon="5.18695">
        <ele>970.8</ele>
        <time>2024-05-17T11:11:00Z</time>
      </trkpt>
      <trkpt lat="44.62141" lon="5.18696">
        <ele>970.9</ele>
        <time>2024-05-17T11:11:01Z</time>
      </trkpt>
      <trkpt lat="44.62141" lon="5.18701">
        <ele>971.1</ele>
        <time>2024-05-17T11:11:02Z</time>
      </trkpt>
      <trkpt lat="44.62141" lon="5.18702">
        <ele>971.2</ele>
        <time>2024-05-17T11:11:03Z</time>
      </trkpt>
      <trkpt lat="44.62143" lon="5.18707">
        <ele>971.5</ele>
        <time>2024-05-17T11:11:04Z</time>
      </trkpt>
      <trkpt lat="44.62143" lon="5.18709">
        <ele>971.6</ele>
        <time>2024-05-17T11:11:05Z</time>
      </trkpt>
      <trkpt lat="44.62144" lon="5.18712">
        <ele>971.7</ele>
        <time>2024-05-17T11:11:06Z</time>
      </trkpt>
      <trkpt lat="44.62146" lon="5.18716">
        <ele>972</ele>
        <time>2024-05-17T11:11:07Z</time>
      </trkpt>
      <trkpt lat="44.62147" lon="5.18718">
        <ele>972.1</ele>
        <time>2024-05-17T11:11:08Z</time>
      </trkpt>
      <trkpt lat="44.62148" lon="5.18722">
        <ele>972.3</ele>
        <time>2024-05-17T11:11:09Z</time>
      </trkpt>
      <trkpt lat="44.62149" lon="5.18724">
        <ele>972.4</ele>
        <time>2024-05-17T11:11:10Z</time>
      </trkpt>
      <trkpt lat="44.6215" lon="5.18728">
        <ele>972.7</ele>
        <time>2024-05-17T11:11:11Z</time>
      </trkpt>
      <trkpt lat="44.62151" lon="5.1873">
        <ele>972.8</ele>
        <time>2024-05-17T11:11:12Z</time>
      </trkpt>
      <trkpt lat="44.62151" lon="5.18734">
        <ele>973</ele>
        <time>2024-05-17T11:11:13Z</time>
      </trkpt>
      <trkpt lat="44.62152" lon="5.18736">
        <ele>973.1</ele>
        <time>2024-05-17T11:11:14Z</time>
      </trkpt>
      <trkpt lat="44.62152" lon="5.18738">
        <ele>973.2</ele>
        <time>2024-05-17T11:11:15Z</time>
      </trkpt>
      <trkpt lat="44.62153" lon="5.18741">
        <ele>973.4</ele>
        <time>2024-05-17T11:11:16Z</time>
      </trkpt>
      <trkpt lat="44.62154" lon="5.18745">
        <ele>973.6</ele>
        <time>2024-05-17T11:11:17Z</time>
      </trkpt>
      <trkpt lat="44.62154" lon="5.18747">
        <ele>973.7</ele>
        <time>2024-05-17T11:11:18Z</time>
      </trkpt>
      <trkpt lat="44.62155" lon="5.1875">
        <ele>974</ele>
        <time>2024-05-17T11:11:19Z</time>
      </trkpt>
      <trkpt lat="44.62156" lon="5.18752">
        <ele>974</ele>
        <time>2024-05-17T11:11:20Z</time>
      </trkpt>
      <trkpt lat="44.62156" lon="5.18756">
        <ele>974.3</ele>
        <time>2024-05-17T11:11:21Z</time>
      </trkpt>
      <trkpt lat="44.62157" lon="5.18757">
        <ele>974.4</ele>
        <time>2024-05-17T11:11:22Z</time>
      </trkpt>
      <trkpt lat="44.62157" lon="5.1876">
        <ele>974.5</ele>
        <time>2024-05-17T11:11:23Z</time>
      </trkpt>
      <trkpt lat="44.62158" lon="5.18765">
        <ele>974.8</ele>
        <time>2024-05-17T11:11:24Z</time>
      </trkpt>
      <trkpt lat="44.62158" lon="5.18766">
        <ele>974.8</ele>
        <time>2024-05-17T11:11:25Z</time>
      </trkpt>
      <trkpt lat="44.62159" lon="5.1877">
        <ele>975</ele>
        <time>2024-05-17T11:11:26Z</time>
      </trkpt>
      <trkpt lat="44.6216" lon="5.18775">
        <ele>975.3</ele>
        <time>2024-05-17T11:11:27Z</time>
      </trkpt>
      <trkpt lat="44.62161" lon="5.18776">
        <ele>975.4</ele>
        <time>2024-05-17T11:11:28Z</time>
      </trkpt>
      <trkpt lat="44.62162" lon="5.18779">
        <ele>975.5</ele>
        <time>2024-05-17T11:11:29Z</time>
      </trkpt>
      <trkpt lat="44.62163" lon="5.18784">
        <ele>975.8</ele>
        <time>2024-05-17T11:11:30Z</time>
      </trkpt>
      <trkpt lat="44.62163" lon="5.18786">
        <ele>975.9</ele>
        <time>2024-05-17T11:11:31Z</time>
      </trkpt>
      <trkpt lat="44.62164" lon="5.1879">
        <ele>976.1</ele>
        <time>2024-05-17T11:11:32Z</time>
      </trkpt>
      <trkpt lat="44.62164" lon="5.18791">
        <ele>976.1</ele>
        <time>2024-05-17T11:11:33Z</time>
      </trkpt>
      <trkpt lat="44.62165" lon="5.18795">
        <ele>976.3</ele>
        <time>2024-05-17T11:11:34Z</time>
      </trkpt>
      <trkpt lat="44.62165" lon="5.18797">
        <ele>976.4</ele>
        <time>2024-05-17T11:11:35Z</time>
      </trkpt>
      <trkpt lat="44.62166" lon="5.18801">
        <ele>976.6</ele>
        <time>2024-05-17T11:11:36Z</time>
      </trkpt>
      <trkpt lat="44.62166" lon="5.18803">
        <ele>976.7</ele>
        <time>2024-05-17T11:11:37Z</time>
      </trkpt>
      <trkpt lat="44.62167" lon="5.18808">
        <ele>976.9</ele>
        <time>2024-05-17T11:11:38Z</time>
      </trkpt>
      <trkpt lat="44.62168" lon="5.18809">
        <ele>977</ele>
        <time>2024-05-17T11:11:39Z</time>
      </trkpt>
      <trkpt lat="44.62169" lon="5.18814">
        <ele>977.2</ele>
        <time>2024-05-17T11:11:40Z</time>
      </trkpt>
      <trkpt lat="44.6217" lon="5.18816">
        <ele>977.3</ele>
        <time>2024-05-17T11:11:41Z</time>
      </trkpt>
      <trkpt lat="44.6217" lon="5.18819">
        <ele>977.4</ele>
        <time>2024-05-17T11:11:42Z</time>
      </trkpt>
      <trkpt lat="44.62171" lon="5.18823">
        <ele>977.6</ele>
        <time>2024-05-17T11:11:43Z</time>
      </trkpt>
      <trkpt lat="44.62171" lon="5.18824">
        <ele>977.7</ele>
        <time>2024-05-17T11:11:44Z</time>
      </trkpt>
      <trkpt lat="44.62171" lon="5.18827">
        <ele>977.8</ele>
        <time>2024-05-17T11:11:45Z</time>
      </trkpt>
      <trkpt lat="44.62172" lon="5.1883">
        <ele>978</ele>
        <time>2024-05-17T11:11:46Z</time>
      </trkpt>
      <trkpt lat="44.62173" lon="5.18833">
        <ele>978.1</ele>
        <time>2024-05-17T11:11:47Z</time>
      </trkpt>
      <trkpt lat="44.62174" lon="5.18838">
        <ele>978.3</ele>
        <time>2024-05-17T11:11:48Z</time>
      </trkpt>
      <trkpt lat="44.62174" lon="5.1884">
        <ele>978.4</ele>
        <time>2024-05-17T11:11:49Z</time>
      </trkpt>
      <trkpt lat="44.62175" lon="5.18844">
        <ele>978.6</ele>
        <time>2024-05-17T11:11:50Z</time>
      </trkpt>
      <trkpt lat="44.62175" lon="5.18846">
        <ele>978.7</ele>
        <time>2024-05-17T11:11:51Z</time>
      </trkpt>
      <trkpt lat="44.62176" lon="5.18849">
        <ele>978.8</ele>
        <time>2024-05-17T11:11:52Z</time>
      </trkpt>
      <trkpt lat="44.62176" lon="5.18851">
        <ele>978.9</ele>
        <time>2024-05-17T11:11:53Z</time>
      </trkpt>
      <trkpt lat="44.62177" lon="5.18854">
        <ele>979.1</ele>
        <time>2024-05-17T11:11:54Z</time>
      </trkpt>
      <trkpt lat="44.62177" lon="5.18857">
        <ele>979.2</ele>
        <time>2024-05-17T11:11:55Z</time>
      </trkpt>
      <trkpt lat="44.62179" lon="5.18862">
        <ele>979.5</ele>
        <time>2024-05-17T11:11:56Z</time>
      </trkpt>
      <trkpt lat="44.62179" lon="5.18863">
        <ele>979.5</ele>
        <time>2024-05-17T11:11:57Z</time>
      </trkpt>
      <trkpt lat="44.6218" lon="5.18867">
        <ele>979.7</ele>
        <time>2024-05-17T11:11:58Z</time>
      </trkpt>
      <trkpt lat="44.62181" lon="5.1887">
        <ele>979.9</ele>
        <time>2024-05-17T11:11:59Z</time>
      </trkpt>
      <trkpt lat="44.62181" lon="5.18875">
        <ele>980.1</ele>
        <time>2024-05-17T11:12:00Z</time>
      </trkpt>
      <trkpt lat="44.62182" lon="5.18876">
        <ele>980.2</ele>
        <time>2024-05-17T11:12:01Z</time>
      </trkpt>
      <trkpt lat="44.62182" lon="5.1888">
        <ele>980.4</ele>
        <time>2024-05-17T11:12:02Z</time>
      </trkpt>
      <trkpt lat="44.62183" lon="5.18884">
        <ele>980.6</ele>
        <time>2024-05-17T11:12:03Z</time>
      </trkpt>
      <trkpt lat="44.62183" lon="5.18886">
        <ele>980.7</ele>
        <time>2024-05-17T11:12:04Z</time>
      </trkpt>
      <trkpt lat="44.62183" lon="5.18891">
        <ele>981</ele>
        <time>2024-05-17T11:12:05Z</time>
      </trkpt>
      <trkpt lat="44.62183" lon="5.18892">
        <ele>981</ele>
        <time>2024-05-17T11:12:06Z</time>
      </trkpt>
      <trkpt lat="44.62184" lon="5.18897">
        <ele>981.3</ele>
        <time>2024-05-17T11:12:07Z</time>
      </trkpt>
      <trkpt lat="44.62184" lon="5.18899">
        <ele>981.4</ele>
        <time>2024-05-17T11:12:08Z</time>
      </trkpt>
      <trkpt lat="44.62184" lon="5.18902">
        <ele>981.5</ele>
        <time>2024-05-17T11:12:09Z</time>
      </trkpt>
      <trkpt lat="44.62184" lon="5.18907">
        <ele>981.8</ele>
        <time>2024-05-17T11:12:10Z</time>
      </trkpt>
      <trkpt lat="44.62185" lon="5.18908">
        <ele>981.9</ele>
        <time>2024-05-17T11:12:11Z</time>
      </trkpt>
      <trkpt lat="44.62186" lon="5.18913">
        <ele>982.1</ele>
        <time>2024-05-17T11:12:12Z</time>
      </trkpt>
      <trkpt lat="44.62186" lon="5.18915">
        <ele>982.2</ele>
        <time>2024-05-17T11:12:13Z</time>
      </trkpt>
      <trkpt lat="44.62187" lon="5.18918">
        <ele>982.4</ele>
        <time>2024-05-17T11:12:14Z</time>
      </trkpt>
      <trkpt lat="44.62188" lon="5.18922">
        <ele>982.7</ele>
        <time>2024-05-17T11:12:15Z</time>
      </trkpt>
      <trkpt lat="44.62188" lon="5.18924">
        <ele>982.8</ele>
        <time>2024-05-17T11:12:16Z</time>
      </trkpt>
      <trkpt lat="44.62189" lon="5.18927">
        <ele>982.9</ele>
        <time>2024-05-17T11:12:17Z</time>
      </trkpt>
      <trkpt lat="44.6219" lon="5.18929">
        <ele>983.1</ele>
        <time>2024-05-17T11:12:18Z</time>
      </trkpt>
      <trkpt lat="44.62191" lon="5.18932">
        <ele>983.2</ele>
        <time>2024-05-17T11:12:19Z</time>
      </trkpt>
      <trkpt lat="44.62192" lon="5.18937">
        <ele>983.5</ele>
        <time>2024-05-17T11:12:20Z</time>
      </trkpt>
      <trkpt lat="44.62192" lon="5.18938">
        <ele>983.6</ele>
        <time>2024-05-17T11:12:21Z</time>
      </trkpt>
      <trkpt lat="44.62193" lon="5.18943">
        <ele>983.8</ele>
        <time>2024-05-17T11:12:22Z</time>
      </trkpt>
      <trkpt lat="44.62193" lon="5.18944">
        <ele>983.9</ele>
        <time>2024-05-17T11:12:23Z</time>
      </trkpt>
      <trkpt lat="44.62194" lon="5.18948">
        <ele>984.1</ele>
        <time>2024-05-17T11:12:24Z</time>
      </trkpt>
      <trkpt lat="44.62195" lon="5.18953">
        <ele>984.3</ele>
        <time>2024-05-17T11:12:25Z</time>
      </trkpt>
      <trkpt lat="44.62195" lon="5.18954">
        <ele>984.4</ele>
        <time>2024-05-17T11:12:26Z</time>
      </trkpt>
      <trkpt lat="44.62196" lon="5.18959">
        <ele>984.7</ele>
        <time>2024-05-17T11:12:27Z</time>
      </trkpt>
      <trkpt lat="44.62196" lon="5.18961">
        <ele>984.8</ele>
        <time>2024-05-17T11:12:28Z</time>
      </trkpt>
      <trkpt lat="44.62196" lon="5.18964">
        <ele>984.9</ele>
        <time>2024-05-17T11:12:29Z</time>
      </trkpt>
      <trkpt lat="44.62197" lon="5.18968">
        <ele>985.2</ele>
        <time>2024-05-17T11:12:30Z</time>
      </trkpt>
      <trkpt lat="44.62197" lon="5.18969">
        <ele>985.2</ele>
        <time>2024-05-17T11:12:31Z</time>
      </trkpt>
      <trkpt lat="44.62198" lon="5.18974">
        <ele>985.5</ele>
        <time>2024-05-17T11:12:32Z</time>
      </trkpt>
      <trkpt lat="44.62198" lon="5.18975">
        <ele>985.5</ele>
        <time>2024-05-17T11:12:33Z</time>
      </trkpt>
      <trkpt lat="44.62198" lon="5.18978">
        <ele>985.7</ele>
        <time>2024-05-17T11:12:34Z</time>
      </trkpt>
      <trkpt lat="44.62198" lon="5.18982">
        <ele>985.9</ele>
        <time>2024-05-17T11:12:35Z</time>
      </trkpt>
      <trkpt lat="44.62198" lon="5.18983">
        <ele>986</ele>
        <time>2024-05-17T11:12:36Z</time>
      </trkpt>
      <trkpt lat="44.62198" lon="5.18988">
        <ele>986.2</ele>
        <time>2024-05-17T11:12:37Z</time>
      </trkpt>
      <trkpt lat="44.62198" lon="5.18989">
        <ele>986.3</ele>
        <time>2024-05-17T11:12:38Z</time>
      </trkpt>
      <trkpt lat="44.62199" lon="5.18994">
        <ele>986.6</ele>
        <time>2024-05-17T11:12:39Z</time>
      </trkpt>
      <trkpt lat="44.62199" lon="5.18996">
        <ele>986.7</ele>
        <time>2024-05-17T11:12:40Z</time>
      </trkpt>
      <trkpt lat="44.62199" lon="5.19">
        <ele>986.9</ele>
        <time>2024-05-17T11:12:41Z</time>
      </trkpt>
      <trkpt lat="44.62199" lon="5.19001">
        <ele>987</ele>
        <time>2024-05-17T11:12:42Z</time>
      </trkpt>
      <trkpt lat="44.622" lon="5.19007">
        <ele>987.3</ele>
        <time>2024-05-17T11:12:43Z</time>
      </trkpt>
      <trkpt lat="44.622" lon="5.19008">
        <ele>987.4</ele>
        <time>2024-05-17T11:12:44Z</time>
      </trkpt>
      <trkpt lat="44.622" lon="5.19013">
        <ele>987.7</ele>
        <time>2024-05-17T11:12:45Z</time>
      </trkpt>
      <trkpt lat="44.622" lon="5.19015">
        <ele>987.8</ele>
        <time>2024-05-17T11:12:46Z</time>
      </trkpt>
      <trkpt lat="44.62201" lon="5.19019">
        <ele>988.1</ele>
        <time>2024-05-17T11:12:47Z</time>
      </trkpt>
      <trkpt lat="44.62201" lon="5.19021">
        <ele>988.2</ele>
        <time>2024-05-17T11:12:48Z</time>
      </trkpt>
      <trkpt lat="44.62202" lon="5.19025">
        <ele>988.4</ele>
        <time>2024-05-17T11:12:49Z</time>
      </trkpt>
      <trkpt lat="44.62202" lon="5.19026">
        <ele>988.5</ele>
        <time>2024-05-17T11:12:50Z</time>
      </trkpt>
      <trkpt lat="44.62202" lon="5.19029">
        <ele>988.7</ele>
        <time>2024-05-17T11:12:51Z</time>
      </trkpt>
      <trkpt lat="44.62202" lon="5.19033">
        <ele>988.9</ele>
        <time>2024-05-17T11:12:52Z</time>
      </trkpt>
      <trkpt lat="44.62202" lon="5.19035">
        <ele>989</ele>
        <time>2024-05-17T11:12:53Z</time>
      </trkpt>
      <trkpt lat="44.62202" lon="5.19037">
        <ele>989.2</ele>
        <time>2024-05-17T11:12:54Z</time>
      </trkpt>
      <trkpt lat="44.62202" lon="5.19041">
        <ele>989.4</ele>
        <time>2024-05-17T11:12:55Z</time>
      </trkpt>
      <trkpt lat="44.62202" lon="5.19043">
        <ele>989.5</ele>
        <time>2024-05-17T11:12:56Z</time>
      </trkpt>
      <trkpt lat="44.62203" lon="5.19047">
        <ele>989.8</ele>
        <time>2024-05-17T11:12:57Z</time>
      </trkpt>
      <trkpt lat="44.62204" lon="5.19048">
        <ele>989.9</ele>
        <time>2024-05-17T11:12:58Z</time>
      </trkpt>
      <trkpt lat="44.62204" lon="5.19052">
        <ele>990.1</ele>
        <time>2024-05-17T11:12:59Z</time>
      </trkpt>
      <trkpt lat="44.62205" lon="5.19054">
        <ele>990.2</ele>
        <time>2024-05-17T11:13:00Z</time>
      </trkpt>
      <trkpt lat="44.62205" lon="5.19058">
        <ele>990.5</ele>
        <time>2024-05-17T11:13:01Z</time>
      </trkpt>
      <trkpt lat="44.62206" lon="5.1906">
        <ele>990.6</ele>
        <time>2024-05-17T11:13:02Z</time>
      </trkpt>
      <trkpt lat="44.62206" lon="5.19063">
        <ele>990.7</ele>
        <time>2024-05-17T11:13:03Z</time>
      </trkpt>
      <trkpt lat="44.62206" lon="5.19065">
        <ele>990.9</ele>
        <time>2024-05-17T11:13:04Z</time>
      </trkpt>
      <trkpt lat="44.62207" lon="5.19069">
        <ele>991.1</ele>
        <time>2024-05-17T11:13:05Z</time>
      </trkpt>
      <trkpt lat="44.62207" lon="5.19071">
        <ele>991.2</ele>
        <time>2024-05-17T11:13:06Z</time>
      </trkpt>
      <trkpt lat="44.62207" lon="5.19075">
        <ele>991.5</ele>
        <time>2024-05-17T11:13:07Z</time>
      </trkpt>
      <trkpt lat="44.62207" lon="5.19077">
        <ele>991.6</ele>
        <time>2024-05-17T11:13:08Z</time>
      </trkpt>
      <trkpt lat="44.62208" lon="5.19082">
        <ele>991.8</ele>
        <time>2024-05-17T11:13:09Z</time>
      </trkpt>
      <trkpt lat="44.62208" lon="5.19083">
        <ele>991.9</ele>
        <time>2024-05-17T11:13:10Z</time>
      </trkpt>
      <trkpt lat="44.62209" lon="5.19088">
        <ele>992.2</ele>
        <time>2024-05-17T11:13:11Z</time>
      </trkpt>
      <trkpt lat="44.62209" lon="5.19089">
        <ele>992.2</ele>
        <time>2024-05-17T11:13:12Z</time>
      </trkpt>
      <trkpt lat="44.6221" lon="5.19094">
        <ele>992.5</ele>
        <time>2024-05-17T11:13:13Z</time>
      </trkpt>
      <trkpt lat="44.6221" lon="5.19095">
        <ele>992.6</ele>
        <time>2024-05-17T11:13:14Z</time>
      </trkpt>
      <trkpt lat="44.62211" lon="5.191">
        <ele>992.8</ele>
        <time>2024-05-17T11:13:15Z</time>
      </trkpt>
      <trkpt lat="44.62211" lon="5.19101">
        <ele>992.9</ele>
        <time>2024-05-17T11:13:16Z</time>
      </trkpt>
      <trkpt lat="44.62212" lon="5.19104">
        <ele>993.1</ele>
        <time>2024-05-17T11:13:17Z</time>
      </trkpt>
      <trkpt lat="44.62212" lon="5.19109">
        <ele>993.4</ele>
        <time>2024-05-17T11:13:18Z</time>
      </trkpt>
      <trkpt lat="44.62212" lon="5.1911">
        <ele>993.4</ele>
        <time>2024-05-17T11:13:19Z</time>
      </trkpt>
      <trkpt lat="44.62213" lon="5.19115">
        <ele>993.7</ele>
        <time>2024-05-17T11:13:20Z</time>
      </trkpt>
      <trkpt lat="44.62214" lon="5.19117">
        <ele>993.8</ele>
        <time>2024-05-17T11:13:21Z</time>
      </trkpt>
      <trkpt lat="44.62215" lon="5.19122">
        <ele>994.1</ele>
        <time>2024-05-17T11:13:22Z</time>
      </trkpt>
      <trkpt lat="44.62215" lon="5.19124">
        <ele>994.3</ele>
        <time>2024-05-17T11:13:23Z</time>
      </trkpt>
      <trkpt lat="44.62216" lon="5.19128">
        <ele>994.5</ele>
        <time>2024-05-17T11:13:24Z</time>
      </trkpt>
      <trkpt lat="44.62216" lon="5.1913">
        <ele>994.6</ele>
        <time>2024-05-17T11:13:25Z</time>
      </trkpt>
      <trkpt lat="44.62216" lon="5.19134">
        <ele>994.9</ele>
        <time>2024-05-17T11:13:26Z</time>
      </trkpt>
      <trkpt lat="44.62216" lon="5.19136">
        <ele>995</ele>
        <time>2024-05-17T11:13:27Z</time>
      </trkpt>
      <trkpt lat="44.62217" lon="5.19141">
        <ele>995.3</ele>
        <time>2024-05-17T11:13:28Z</time>
      </trkpt>
      <trkpt lat="44.62217" lon="5.19143">
        <ele>995.4</ele>
        <time>2024-05-17T11:13:29Z</time>
      </trkpt>
      <trkpt lat="44.62218" lon="5.19147">
        <ele>995.7</ele>
        <time>2024-05-17T11:13:30Z</time>
      </trkpt>
      <trkpt lat="44.62218" lon="5.19148">
        <ele>995.8</ele>
        <time>2024-05-17T11:13:31Z</time>
      </trkpt>
      <trkpt lat="44.62218" lon="5.19152">
        <ele>996</ele>
        <time>2024-05-17T11:13:32Z</time>
      </trkpt>
      <trkpt lat="44.62219" lon="5.19153">
        <ele>996.1</ele>
        <time>2024-05-17T11:13:33Z</time>
      </trkpt>
      <trkpt lat="44.62219" lon="5.19156">
        <ele>996.3</ele>
        <time>2024-05-17T11:13:34Z</time>
      </trkpt>
      <trkpt lat="44.6222" lon="5.1916">
        <ele>996.6</ele>
        <time>2024-05-17T11:13:35Z</time>
      </trkpt>
      <trkpt lat="44.62221" lon="5.19162">
        <ele>996.7</ele>
        <time>2024-05-17T11:13:36Z</time>
      </trkpt>
      <trkpt lat="44.62221" lon="5.19165">
        <ele>996.9</ele>
        <time>2024-05-17T11:13:37Z</time>
      </trkpt>
      <trkpt lat="44.62222" lon="5.19171">
        <ele>997.3</ele>
        <time>2024-05-17T11:13:38Z</time>
      </trkpt>
      <trkpt lat="44.62223" lon="5.19173">
        <ele>997.4</ele>
        <time>2024-05-17T11:13:39Z</time>
      </trkpt>
      <trkpt lat="44.62223" lon="5.19178">
        <ele>997.8</ele>
        <time>2024-05-17T11:13:40Z</time>
      </trkpt>
      <trkpt lat="44.62223" lon="5.1918">
        <ele>997.9</ele>
        <time>2024-05-17T11:13:41Z</time>
      </trkpt>
      <trkpt lat="44.62224" lon="5.19184">
        <ele>998.2</ele>
        <time>2024-05-17T11:13:42Z</time>
      </trkpt>
      <trkpt lat="44.62224" lon="5.19185">
        <ele>998.2</ele>
        <time>2024-05-17T11:13:43Z</time>
      </trkpt>
      <trkpt lat="44.62225" lon="5.19189">
        <ele>998.5</ele>
        <time>2024-05-17T11:13:44Z</time>
      </trkpt>
      <trkpt lat="44.62226" lon="5.1919">
        <ele>998.6</ele>
        <time>2024-05-17T11:13:45Z</time>
      </trkpt>
      <trkpt lat="44.62226" lon="5.19193">
        <ele>998.7</ele>
        <time>2024-05-17T11:13:46Z</time>
      </trkpt>
      <trkpt lat="44.62227" lon="5.19196">
        <ele>998.9</ele>
        <time>2024-05-17T11:13:47Z</time>
      </trkpt>
      <trkpt lat="44.62229" lon="5.192">
        <ele>999.2</ele>
        <time>2024-05-17T11:13:48Z</time>
      </trkpt>
      <trkpt lat="44.62229" lon="5.19202">
        <ele>999.3</ele>
        <time>2024-05-17T11:13:49Z</time>
      </trkpt>
      <trkpt lat="44.62231" lon="5.19206">
        <ele>999.6</ele>
        <time>2024-05-17T11:13:50Z</time>
      </trkpt>
      <trkpt lat="44.62231" lon="5.19207">
        <ele>999.6</ele>
        <time>2024-05-17T11:13:51Z</time>
      </trkpt>
      <trkpt lat="44.62232" lon="5.19209">
        <ele>999.8</ele>
        <time>2024-05-17T11:13:52Z</time>
      </trkpt>
      <trkpt lat="44.62234" lon="5.19212">
        <ele>1000.1</ele>
        <time>2024-05-17T11:13:53Z</time>
      </trkpt>
      <trkpt lat="44.62235" lon="5.19213">
        <ele>1000.1</ele>
        <time>2024-05-17T11:13:54Z</time>
      </trkpt>
      <trkpt lat="44.62236" lon="5.19214">
        <ele>1000.2</ele>
        <time>2024-05-17T11:13:55Z</time>
      </trkpt>
      <trkpt lat="44.62237" lon="5.19216">
        <ele>1000.4</ele>
        <time>2024-05-17T11:13:56Z</time>
      </trkpt>
      <trkpt lat="44.62239" lon="5.19218">
        <ele>1000.5</ele>
        <time>2024-05-17T11:13:57Z</time>
      </trkpt>
      <trkpt lat="44.6224" lon="5.19219">
        <ele>1000.7</ele>
        <time>2024-05-17T11:13:58Z</time>
      </trkpt>
      <trkpt lat="44.62243" lon="5.19221">
        <ele>1000.9</ele>
        <time>2024-05-17T11:13:59Z</time>
      </trkpt>
      <trkpt lat="44.62244" lon="5.19222">
        <ele>1001</ele>
        <time>2024-05-17T11:14:00Z</time>
      </trkpt>
      <trkpt lat="44.62246" lon="5.19223">
        <ele>1001.2</ele>
        <time>2024-05-17T11:14:01Z</time>
      </trkpt>
      <trkpt lat="44.62248" lon="5.19225">
        <ele>1001.4</ele>
        <time>2024-05-17T11:14:02Z</time>
      </trkpt>
      <trkpt lat="44.62249" lon="5.19226">
        <ele>1001.5</ele>
        <time>2024-05-17T11:14:03Z</time>
      </trkpt>
      <trkpt lat="44.62252" lon="5.19227">
        <ele>1001.7</ele>
        <time>2024-05-17T11:14:04Z</time>
      </trkpt>
      <trkpt lat="44.62253" lon="5.19228">
        <ele>1001.8</ele>
        <time>2024-05-17T11:14:05Z</time>
      </trkpt>
      <trkpt lat="44.62256" lon="5.19229">
        <ele>1002</ele>
        <time>2024-05-17T11:14:06Z</time>
      </trkpt>
      <trkpt lat="44.62257" lon="5.1923">
        <ele>1002.1</ele>
        <time>2024-05-17T11:14:07Z</time>
      </trkpt>
      <trkpt lat="44.6226" lon="5.19231">
        <ele>1002.3</ele>
        <time>2024-05-17T11:14:08Z</time>
      </trkpt>
      <trkpt lat="44.62261" lon="5.19231">
        <ele>1002.4</ele>
        <time>2024-05-17T11:14:09Z</time>
      </trkpt>
      <trkpt lat="44.62263" lon="5.19231">
        <ele>1002.6</ele>
        <time>2024-05-17T11:14:10Z</time>
      </trkpt>
      <trkpt lat="44.62266" lon="5.19232">
        <ele>1002.8</ele>
        <time>2024-05-17T11:14:11Z</time>
      </trkpt>
      <trkpt lat="44.62267" lon="5.19232">
        <ele>1002.9</ele>
        <time>2024-05-17T11:14:12Z</time>
      </trkpt>
      <trkpt lat="44.62271" lon="5.19233">
        <ele>1003.1</ele>
        <time>2024-05-17T11:14:13Z</time>
      </trkpt>
      <trkpt lat="44.62272" lon="5.19233">
        <ele>1003.2</ele>
        <time>2024-05-17T11:14:14Z</time>
      </trkpt>
      <trkpt lat="44.62275" lon="5.19234">
        <ele>1003.4</ele>
        <time>2024-05-17T11:14:15Z</time>
      </trkpt>
      <trkpt lat="44.62276" lon="5.19235">
        <ele>1003.5</ele>
        <time>2024-05-17T11:14:16Z</time>
      </trkpt>
      <trkpt lat="44.62278" lon="5.19236">
        <ele>1003.7</ele>
        <time>2024-05-17T11:14:17Z</time>
      </trkpt>
      <trkpt lat="44.62281" lon="5.19237">
        <ele>1003.9</ele>
        <time>2024-05-17T11:14:18Z</time>
      </trkpt>
      <trkpt lat="44.62282" lon="5.19237">
        <ele>1004</ele>
        <time>2024-05-17T11:14:19Z</time>
      </trkpt>
      <trkpt lat="44.62284" lon="5.19238">
        <ele>1004.1</ele>
        <time>2024-05-17T11:14:20Z</time>
      </trkpt>
      <trkpt lat="44.62287" lon="5.19239">
        <ele>1004.3</ele>
        <time>2024-05-17T11:14:21Z</time>
      </trkpt>
      <trkpt lat="44.62288" lon="5.1924">
        <ele>1004.4</ele>
        <time>2024-05-17T11:14:22Z</time>
      </trkpt>
      <trkpt lat="44.62291" lon="5.19242">
        <ele>1004.7</ele>
        <time>2024-05-17T11:14:23Z</time>
      </trkpt>
      <trkpt lat="44.62292" lon="5.19242">
        <ele>1004.8</ele>
        <time>2024-05-17T11:14:24Z</time>
      </trkpt>
      <trkpt lat="44.62296" lon="5.19244">
        <ele>1005</ele>
        <time>2024-05-17T11:14:25Z</time>
      </trkpt>
      <trkpt lat="44.62297" lon="5.19245">
        <ele>1005.1</ele>
        <time>2024-05-17T11:14:26Z</time>
      </trkpt>
      <trkpt lat="44.62299" lon="5.19246">
        <ele>1005.3</ele>
        <time>2024-05-17T11:14:27Z</time>
      </trkpt>
      <trkpt lat="44.62301" lon="5.1925">
        <ele>1005.5</ele>
        <time>2024-05-17T11:14:28Z</time>
      </trkpt>
      <trkpt lat="44.62302" lon="5.19251">
        <ele>1005.6</ele>
        <time>2024-05-17T11:14:29Z</time>
      </trkpt>
      <trkpt lat="44.62304" lon="5.19253">
        <ele>1005.7</ele>
        <time>2024-05-17T11:14:30Z</time>
      </trkpt>
      <trkpt lat="44.62306" lon="5.19256">
        <ele>1006</ele>
        <time>2024-05-17T11:14:31Z</time>
      </trkpt>
      <trkpt lat="44.62307" lon="5.19257">
        <ele>1006</ele>
        <time>2024-05-17T11:14:32Z</time>
      </trkpt>
      <trkpt lat="44.62309" lon="5.19261">
        <ele>1006.3</ele>
        <time>2024-05-17T11:14:33Z</time>
      </trkpt>
      <trkpt lat="44.6231" lon="5.19262">
        <ele>1006.3</ele>
        <time>2024-05-17T11:14:34Z</time>
      </trkpt>
      <trkpt lat="44.62312" lon="5.19266">
        <ele>1006.6</ele>
        <time>2024-05-17T11:14:35Z</time>
      </trkpt>
      <trkpt lat="44.62313" lon="5.19267">
        <ele>1006.7</ele>
        <time>2024-05-17T11:14:36Z</time>
      </trkpt>
      <trkpt lat="44.62316" lon="5.19271">
        <ele>1006.9</ele>
        <time>2024-05-17T11:14:37Z</time>
      </trkpt>
      <trkpt lat="44.62317" lon="5.19272">
        <ele>1007</ele>
        <time>2024-05-17T11:14:38Z</time>
      </trkpt>
      <trkpt lat="44.62319" lon="5.19276">
        <ele>1007.2</ele>
        <time>2024-05-17T11:14:39Z</time>
      </trkpt>
      <trkpt lat="44.6232" lon="5.19278">
        <ele>1007.3</ele>
        <time>2024-05-17T11:14:40Z</time>
      </trkpt>
      <trkpt lat="44.62321" lon="5.1928">
        <ele>1007.4</ele>
        <time>2024-05-17T11:14:41Z</time>
      </trkpt>
      <trkpt lat="44.62323" lon="5.19284">
        <ele>1007.6</ele>
        <time>2024-05-17T11:14:42Z</time>
      </trkpt>
      <trkpt lat="44.62324" lon="5.19286">
        <ele>1007.7</ele>
        <time>2024-05-17T11:14:43Z</time>
      </trkpt>
      <trkpt lat="44.62325" lon="5.19288">
        <ele>1007.8</ele>
        <time>2024-05-17T11:14:44Z</time>
      </trkpt>
      <trkpt lat="44.62327" lon="5.19293">
        <ele>1008</ele>
        <time>2024-05-17T11:14:45Z</time>
      </trkpt>
      <trkpt lat="44.62328" lon="5.19295">
        <ele>1008.1</ele>
        <time>2024-05-17T11:14:46Z</time>
      </trkpt>
      <trkpt lat="44.62329" lon="5.19299">
        <ele>1008.3</ele>
        <time>2024-05-17T11:14:47Z</time>
      </trkpt>
      <trkpt lat="44.6233" lon="5.19301">
        <ele>1008.3</ele>
        <time>2024-05-17T11:14:48Z</time>
      </trkpt>
      <trkpt lat="44.62331" lon="5.19306">
        <ele>1008.5</ele>
        <time>2024-05-17T11:14:49Z</time>
      </trkpt>
      <trkpt lat="44.62331" lon="5.19307">
        <ele>1008.6</ele>
        <time>2024-05-17T11:14:50Z</time>
      </trkpt>
      <trkpt lat="44.62333" lon="5.19312">
        <ele>1008.8</ele>
        <time>2024-05-17T11:14:51Z</time>
      </trkpt>
      <trkpt lat="44.62333" lon="5.19314">
        <ele>1008.8</ele>
        <time>2024-05-17T11:14:52Z</time>
      </trkpt>
      <trkpt lat="44.62335" lon="5.19317">
        <ele>1009</ele>
        <time>2024-05-17T11:14:53Z</time>
      </trkpt>
      <trkpt lat="44.62336" lon="5.19322">
        <ele>1009.1</ele>
        <time>2024-05-17T11:14:54Z</time>
      </trkpt>
      <trkpt lat="44.62337" lon="5.19324">
        <ele>1009.2</ele>
        <time>2024-05-17T11:14:55Z</time>
      </trkpt>
      <trkpt lat="44.62339" lon="5.19329">
        <ele>1009.4</ele>
        <time>2024-05-17T11:14:56Z</time>
      </trkpt>
      <trkpt lat="44.62339" lon="5.19331">
        <ele>1009.4</ele>
        <time>2024-05-17T11:14:57Z</time>
      </trkpt>
      <trkpt lat="44.6234" lon="5.19336">
        <ele>1009.6</ele>
        <time>2024-05-17T11:14:58Z</time>
      </trkpt>
      <trkpt lat="44.62341" lon="5.19338">
        <ele>1009.7</ele>
        <time>2024-05-17T11:14:59Z</time>
      </trkpt>
      <trkpt lat="44.62341" lon="5.19342">
        <ele>1009.8</ele>
        <time>2024-05-17T11:15:00Z</time>
      </trkpt>
      <trkpt lat="44.62342" lon="5.19349">
        <ele>1010</ele>
        <time>2024-05-17T11:15:01Z</time>
      </trkpt>
      <trkpt lat="44.62342" lon="5.19351">
        <ele>1010</ele>
        <time>2024-05-17T11:15:02Z</time>
      </trkpt>
      <trkpt lat="44.62343" lon="5.19355">
        <ele>1010.2</ele>
        <time>2024-05-17T11:15:03Z</time>
      </trkpt>
      <trkpt lat="44.62344" lon="5.19361">
        <ele>1010.4</ele>
        <time>2024-05-17T11:15:04Z</time>
      </trkpt>
      <trkpt lat="44.62344" lon="5.19363">
        <ele>1010.4</ele>
        <time>2024-05-17T11:15:05Z</time>
      </trkpt>
      <trkpt lat="44.62345" lon="5.19369">
        <ele>1010.6</ele>
        <time>2024-05-17T11:15:06Z</time>
      </trkpt>
      <trkpt lat="44.62346" lon="5.19371">
        <ele>1010.7</ele>
        <time>2024-05-17T11:15:07Z</time>
      </trkpt>
      <trkpt lat="44.62346" lon="5.19377">
        <ele>1010.8</ele>
        <time>2024-05-17T11:15:08Z</time>
      </trkpt>
      <trkpt lat="44.62346" lon="5.19379">
        <ele>1010.9</ele>
        <time>2024-05-17T11:15:09Z</time>
      </trkpt>
      <trkpt lat="44.62347" lon="5.19385">
        <ele>1011.1</ele>
        <time>2024-05-17T11:15:10Z</time>
      </trkpt>
      <trkpt lat="44.62348" lon="5.19387">
        <ele>1011.1</ele>
        <time>2024-05-17T11:15:11Z</time>
      </trkpt>
      <trkpt lat="44.62348" lon="5.19393">
        <ele>1011.3</ele>
        <time>2024-05-17T11:15:12Z</time>
      </trkpt>
      <trkpt lat="44.62349" lon="5.19395">
        <ele>1011.3</ele>
        <time>2024-05-17T11:15:13Z</time>
      </trkpt>
      <trkpt lat="44.62349" lon="5.19401">
        <ele>1011.5</ele>
        <time>2024-05-17T11:15:14Z</time>
      </trkpt>
      <trkpt lat="44.6235" lon="5.19403">
        <ele>1011.6</ele>
        <time>2024-05-17T11:15:15Z</time>
      </trkpt>
      <trkpt lat="44.62351" lon="5.19409">
        <ele>1011.7</ele>
        <time>2024-05-17T11:15:16Z</time>
      </trkpt>
      <trkpt lat="44.62351" lon="5.19411">
        <ele>1011.8</ele>
        <time>2024-05-17T11:15:17Z</time>
      </trkpt>
      <trkpt lat="44.62352" lon="5.19415">
        <ele>1011.9</ele>
        <time>2024-05-17T11:15:18Z</time>
      </trkpt>
      <trkpt lat="44.62353" lon="5.19421">
        <ele>1012.1</ele>
        <time>2024-05-17T11:15:19Z</time>
      </trkpt>
      <trkpt lat="44.62353" lon="5.19423">
        <ele>1012.2</ele>
        <time>2024-05-17T11:15:20Z</time>
      </trkpt>
      <trkpt lat="44.62354" lon="5.19429">
        <ele>1012.3</ele>
        <time>2024-05-17T11:15:21Z</time>
      </trkpt>
      <trkpt lat="44.62354" lon="5.19431">
        <ele>1012.4</ele>
        <time>2024-05-17T11:15:22Z</time>
      </trkpt>
      <trkpt lat="44.62355" lon="5.19437">
        <ele>1012.6</ele>
        <time>2024-05-17T11:15:23Z</time>
      </trkpt>
      <trkpt lat="44.62356" lon="5.1944">
        <ele>1012.7</ele>
        <time>2024-05-17T11:15:24Z</time>
      </trkpt>
      <trkpt lat="44.62357" lon="5.19444">
        <ele>1012.8</ele>
        <time>2024-05-17T11:15:25Z</time>
      </trkpt>
      <trkpt lat="44.62358" lon="5.19447">
        <ele>1012.9</ele>
        <time>2024-05-17T11:15:26Z</time>
      </trkpt>
      <trkpt lat="44.6236" lon="5.19451">
        <ele>1013.1</ele>
        <time>2024-05-17T11:15:27Z</time>
      </trkpt>
      <trkpt lat="44.62363" lon="5.19456">
        <ele>1013.2</ele>
        <time>2024-05-17T11:15:28Z</time>
      </trkpt>
      <trkpt lat="44.62364" lon="5.19457">
        <ele>1013.3</ele>
        <time>2024-05-17T11:15:29Z</time>
      </trkpt>
      <trkpt lat="44.62367" lon="5.19462">
        <ele>1013.4</ele>
        <time>2024-05-17T11:15:30Z</time>
      </trkpt>
      <trkpt lat="44.62368" lon="5.19463">
        <ele>1013.5</ele>
        <time>2024-05-17T11:15:31Z</time>
      </trkpt>
      <trkpt lat="44.62372" lon="5.19467">
        <ele>1013.7</ele>
        <time>2024-05-17T11:15:32Z</time>
      </trkpt>
      <trkpt lat="44.62374" lon="5.19468">
        <ele>1013.7</ele>
        <time>2024-05-17T11:15:33Z</time>
      </trkpt>
      <trkpt lat="44.62377" lon="5.19472">
        <ele>1013.9</ele>
        <time>2024-05-17T11:15:34Z</time>
      </trkpt>
      <trkpt lat="44.62379" lon="5.19474">
        <ele>1013.9</ele>
        <time>2024-05-17T11:15:35Z</time>
      </trkpt>
      <trkpt lat="44.62381" lon="5.19477">
        <ele>1014.1</ele>
        <time>2024-05-17T11:15:36Z</time>
      </trkpt>
      <trkpt lat="44.62385" lon="5.19482">
        <ele>1014.3</ele>
        <time>2024-05-17T11:15:37Z</time>
      </trkpt>
      <trkpt lat="44.62386" lon="5.19484">
        <ele>1014.3</ele>
        <time>2024-05-17T11:15:38Z</time>
      </trkpt>
      <trkpt lat="44.62389" lon="5.19491">
        <ele>1014.6</ele>
        <time>2024-05-17T11:15:39Z</time>
      </trkpt>
      <trkpt lat="44.6239" lon="5.19493">
        <ele>1014.7</ele>
        <time>2024-05-17T11:15:40Z</time>
      </trkpt>
      <trkpt lat="44.6239" lon="5.195">
        <ele>1014.9</ele>
        <time>2024-05-17T11:15:41Z</time>
      </trkpt>
      <trkpt lat="44.6239" lon="5.19502">
        <ele>1015</ele>
        <time>2024-05-17T11:15:42Z</time>
      </trkpt>
      <trkpt lat="44.6239" lon="5.19507">
        <ele>1015.1</ele>
        <time>2024-05-17T11:15:43Z</time>
      </trkpt>
      <trkpt lat="44.62391" lon="5.19514">
        <ele>1015.4</ele>
        <time>2024-05-17T11:15:44Z</time>
      </trkpt>
      <trkpt lat="44.62392" lon="5.19516">
        <ele>1015.5</ele>
        <time>2024-05-17T11:15:45Z</time>
      </trkpt>
      <trkpt lat="44.62392" lon="5.19521">
        <ele>1015.6</ele>
        <time>2024-05-17T11:15:46Z</time>
      </trkpt>
      <trkpt lat="44.62392" lon="5.19529">
        <ele>1015.9</ele>
        <time>2024-05-17T11:15:47Z</time>
      </trkpt>
      <trkpt lat="44.62392" lon="5.19531">
        <ele>1016</ele>
        <time>2024-05-17T11:15:48Z</time>
      </trkpt>
      <trkpt lat="44.62394" lon="5.19539">
        <ele>1016.3</ele>
        <time>2024-05-17T11:15:49Z</time>
      </trkpt>
      <trkpt lat="44.62394" lon="5.19541">
        <ele>1016.4</ele>
        <time>2024-05-17T11:15:50Z</time>
      </trkpt>
      <trkpt lat="44.62395" lon="5.19549">
        <ele>1016.7</ele>
        <time>2024-05-17T11:15:51Z</time>
      </trkpt>
      <trkpt lat="44.62395" lon="5.19551">
        <ele>1016.8</ele>
        <time>2024-05-17T11:15:52Z</time>
      </trkpt>
      <trkpt lat="44.62395" lon="5.19555">
        <ele>1016.9</ele>
        <time>2024-05-17T11:15:53Z</time>
      </trkpt>
      <trkpt lat="44.62395" lon="5.1956">
        <ele>1017.1</ele>
        <time>2024-05-17T11:15:54Z</time>
      </trkpt>
      <trkpt lat="44.62396" lon="5.19564">
        <ele>1017.3</ele>
        <time>2024-05-17T11:15:55Z</time>
      </trkpt>
      <trkpt lat="44.62396" lon="5.19569">
        <ele>1017.4</ele>
        <time>2024-05-17T11:15:56Z</time>
      </trkpt>
      <trkpt lat="44.62397" lon="5.19575">
        <ele>1017.7</ele>
        <time>2024-05-17T11:15:57Z</time>
      </trkpt>
      <trkpt lat="44.62397" lon="5.19577">
        <ele>1017.8</ele>
        <time>2024-05-17T11:15:58Z</time>
      </trkpt>
      <trkpt lat="44.62399" lon="5.19583">
        <ele>1018</ele>
        <time>2024-05-17T11:15:59Z</time>
      </trkpt>
      <trkpt lat="44.62399" lon="5.19585">
        <ele>1018.1</ele>
        <time>2024-05-17T11:16:00Z</time>
      </trkpt>
      <trkpt lat="44.62402" lon="5.19591">
        <ele>1018.3</ele>
        <time>2024-05-17T11:16:01Z</time>
      </trkpt>
      <trkpt lat="44.62403" lon="5.19593">
        <ele>1018.4</ele>
        <time>2024-05-17T11:16:02Z</time>
      </trkpt>
      <trkpt lat="44.62405" lon="5.19598">
        <ele>1018.7</ele>
        <time>2024-05-17T11:16:03Z</time>
      </trkpt>
      <trkpt lat="44.62406" lon="5.196">
        <ele>1018.8</ele>
        <time>2024-05-17T11:16:04Z</time>
      </trkpt>
      <trkpt lat="44.62409" lon="5.19606">
        <ele>1019</ele>
        <time>2024-05-17T11:16:05Z</time>
      </trkpt>
      <trkpt lat="44.6241" lon="5.19608">
        <ele>1019.1</ele>
        <time>2024-05-17T11:16:06Z</time>
      </trkpt>
      <trkpt lat="44.62412" lon="5.19611">
        <ele>1019.3</ele>
        <time>2024-05-17T11:16:07Z</time>
      </trkpt>
      <trkpt lat="44.62415" lon="5.19616">
        <ele>1019.5</ele>
        <time>2024-05-17T11:16:08Z</time>
      </trkpt>
      <trkpt lat="44.62416" lon="5.19618">
        <ele>1019.6</ele>
        <time>2024-05-17T11:16:09Z</time>
      </trkpt>
      <trkpt lat="44.62417" lon="5.19621">
        <ele>1019.7</ele>
        <time>2024-05-17T11:16:10Z</time>
      </trkpt>
      <trkpt lat="44.6242" lon="5.19626">
        <ele>1019.9</ele>
        <time>2024-05-17T11:16:11Z</time>
      </trkpt>
      <trkpt lat="44.62421" lon="5.19628">
        <ele>1020</ele>
        <time>2024-05-17T11:16:12Z</time>
      </trkpt>
      <trkpt lat="44.62423" lon="5.19633">
        <ele>1020.2</ele>
        <time>2024-05-17T11:16:13Z</time>
      </trkpt>
      <trkpt lat="44.62424" lon="5.19634">
        <ele>1020.3</ele>
        <time>2024-05-17T11:16:14Z</time>
      </trkpt>
      <trkpt lat="44.62428" lon="5.19638">
        <ele>1020.5</ele>
        <time>2024-05-17T11:16:15Z</time>
      </trkpt>
      <trkpt lat="44.62429" lon="5.1964">
        <ele>1020.6</ele>
        <time>2024-05-17T11:16:16Z</time>
      </trkpt>
      <trkpt lat="44.62433" lon="5.19644">
        <ele>1020.8</ele>
        <time>2024-05-17T11:16:17Z</time>
      </trkpt>
      <trkpt lat="44.62434" lon="5.19646">
        <ele>1020.9</ele>
        <time>2024-05-17T11:16:18Z</time>
      </trkpt>
      <trkpt lat="44.62436" lon="5.19648">
        <ele>1021</ele>
        <time>2024-05-17T11:16:19Z</time>
      </trkpt>
      <trkpt lat="44.62439" lon="5.19652">
        <ele>1021.2</ele>
        <time>2024-05-17T11:16:20Z</time>
      </trkpt>
      <trkpt lat="44.6244" lon="5.19654">
        <ele>1021.3</ele>
        <time>2024-05-17T11:16:21Z</time>
      </trkpt>
      <trkpt lat="44.62443" lon="5.19658">
        <ele>1021.5</ele>
        <time>2024-05-17T11:16:22Z</time>
      </trkpt>
      <trkpt lat="44.62444" lon="5.1966">
        <ele>1021.5</ele>
        <time>2024-05-17T11:16:23Z</time>
      </trkpt>
      <trkpt lat="44.62447" lon="5.19664">
        <ele>1021.7</ele>
        <time>2024-05-17T11:16:24Z</time>
      </trkpt>
      <trkpt lat="44.62448" lon="5.19666">
        <ele>1021.8</ele>
        <time>2024-05-17T11:16:25Z</time>
      </trkpt>
      <trkpt lat="44.62449" lon="5.19669">
        <ele>1021.9</ele>
        <time>2024-05-17T11:16:26Z</time>
      </trkpt>
      <trkpt lat="44.62452" lon="5.19673">
        <ele>1022.1</ele>
        <time>2024-05-17T11:16:27Z</time>
      </trkpt>
      <trkpt lat="44.62453" lon="5.19675">
        <ele>1022.1</ele>
        <time>2024-05-17T11:16:28Z</time>
      </trkpt>
      <trkpt lat="44.62455" lon="5.19678">
        <ele>1022.3</ele>
        <time>2024-05-17T11:16:29Z</time>
      </trkpt>
      <trkpt lat="44.62458" lon="5.19683">
        <ele>1022.5</ele>
        <time>2024-05-17T11:16:30Z</time>
      </trkpt>
      <trkpt lat="44.62459" lon="5.19685">
        <ele>1022.5</ele>
        <time>2024-05-17T11:16:31Z</time>
      </trkpt>
      <trkpt lat="44.62462" lon="5.1969">
        <ele>1022.7</ele>
        <time>2024-05-17T11:16:32Z</time>
      </trkpt>
      <trkpt lat="44.62463" lon="5.19692">
        <ele>1022.8</ele>
        <time>2024-05-17T11:16:33Z</time>
      </trkpt>
      <trkpt lat="44.62465" lon="5.19698">
        <ele>1023</ele>
        <time>2024-05-17T11:16:34Z</time>
      </trkpt>
      <trkpt lat="44.62465" lon="5.197">
        <ele>1023</ele>
        <time>2024-05-17T11:16:35Z</time>
      </trkpt>
      <trkpt lat="44.62466" lon="5.19704">
        <ele>1023.2</ele>
        <time>2024-05-17T11:16:36Z</time>
      </trkpt>
      <trkpt lat="44.62467" lon="5.1971">
        <ele>1023.4</ele>
        <time>2024-05-17T11:16:37Z</time>
      </trkpt>
      <trkpt lat="44.62467" lon="5.19712">
        <ele>1023.5</ele>
        <time>2024-05-17T11:16:38Z</time>
      </trkpt>
      <trkpt lat="44.62467" lon="5.19716">
        <ele>1023.6</ele>
        <time>2024-05-17T11:16:39Z</time>
      </trkpt>
      <trkpt lat="44.62468" lon="5.19722">
        <ele>1023.8</ele>
        <time>2024-05-17T11:16:40Z</time>
      </trkpt>
      <trkpt lat="44.62468" lon="5.19724">
        <ele>1023.9</ele>
        <time>2024-05-17T11:16:41Z</time>
      </trkpt>
      <trkpt lat="44.62467" lon="5.1973">
        <ele>1024.1</ele>
        <time>2024-05-17T11:16:42Z</time>
      </trkpt>
      <trkpt lat="44.62467" lon="5.19732">
        <ele>1024.1</ele>
        <time>2024-05-17T11:16:43Z</time>
      </trkpt>
      <trkpt lat="44.62466" lon="5.19738">
        <ele>1024.4</ele>
        <time>2024-05-17T11:16:44Z</time>
      </trkpt>
      <trkpt lat="44.62466" lon="5.1974">
        <ele>1024.4</ele>
        <time>2024-05-17T11:16:45Z</time>
      </trkpt>
      <trkpt lat="44.62466" lon="5.19746">
        <ele>1024.6</ele>
        <time>2024-05-17T11:16:46Z</time>
      </trkpt>
      <trkpt lat="44.62466" lon="5.19748">
        <ele>1024.7</ele>
        <time>2024-05-17T11:16:47Z</time>
      </trkpt>
      <trkpt lat="44.62466" lon="5.19754">
        <ele>1024.9</ele>
        <time>2024-05-17T11:16:48Z</time>
      </trkpt>
      <trkpt lat="44.62466" lon="5.19756">
        <ele>1024.9</ele>
        <time>2024-05-17T11:16:49Z</time>
      </trkpt>
      <trkpt lat="44.62466" lon="5.1976">
        <ele>1025</ele>
        <time>2024-05-17T11:16:50Z</time>
      </trkpt>
      <trkpt lat="44.62466" lon="5.19766">
        <ele>1025.2</ele>
        <time>2024-05-17T11:16:51Z</time>
      </trkpt>
      <trkpt lat="44.62466" lon="5.19768">
        <ele>1025.2</ele>
        <time>2024-05-17T11:16:52Z</time>
      </trkpt>
      <trkpt lat="44.62467" lon="5.19772">
        <ele>1025.3</ele>
        <time>2024-05-17T11:16:53Z</time>
      </trkpt>
      <trkpt lat="44.62467" lon="5.19778">
        <ele>1025.4</ele>
        <time>2024-05-17T11:16:54Z</time>
      </trkpt>
      <trkpt lat="44.62467" lon="5.19781">
        <ele>1025.4</ele>
        <time>2024-05-17T11:16:55Z</time>
      </trkpt>
      <trkpt lat="44.62469" lon="5.19788">
        <ele>1025.5</ele>
        <time>2024-05-17T11:16:56Z</time>
      </trkpt>
      <trkpt lat="44.6247" lon="5.1979">
        <ele>1025.5</ele>
        <time>2024-05-17T11:16:57Z</time>
      </trkpt>
      <trkpt lat="44.62473" lon="5.19796">
        <ele>1025.6</ele>
        <time>2024-05-17T11:16:58Z</time>
      </trkpt>
      <trkpt lat="44.62474" lon="5.19798">
        <ele>1025.6</ele>
        <time>2024-05-17T11:16:59Z</time>
      </trkpt>
      <trkpt lat="44.62477" lon="5.19805">
        <ele>1025.7</ele>
        <time>2024-05-17T11:17:00Z</time>
      </trkpt>
      <trkpt lat="44.62478" lon="5.19808">
        <ele>1025.7</ele>
        <time>2024-05-17T11:17:01Z</time>
      </trkpt>
      <trkpt lat="44.62481" lon="5.19815">
        <ele>1025.7</ele>
        <time>2024-05-17T11:17:02Z</time>
      </trkpt>
      <trkpt lat="44.62482" lon="5.19817">
        <ele>1025.8</ele>
        <time>2024-05-17T11:17:03Z</time>
      </trkpt>
      <trkpt lat="44.62484" lon="5.19822">
        <ele>1025.8</ele>
        <time>2024-05-17T11:17:04Z</time>
      </trkpt>
      <trkpt lat="44.62487" lon="5.19829">
        <ele>1026</ele>
        <time>2024-05-17T11:17:05Z</time>
      </trkpt>
      <trkpt lat="44.62487" lon="5.19831">
        <ele>1026</ele>
        <time>2024-05-17T11:17:06Z</time>
      </trkpt>
      <trkpt lat="44.62489" lon="5.19838">
        <ele>1026.2</ele>
        <time>2024-05-17T11:17:07Z</time>
      </trkpt>
      <trkpt lat="44.6249" lon="5.1984">
        <ele>1026.2</ele>
        <time>2024-05-17T11:17:08Z</time>
      </trkpt>
      <trkpt lat="44.62491" lon="5.19844">
        <ele>1026.3</ele>
        <time>2024-05-17T11:17:09Z</time>
      </trkpt>
      <trkpt lat="44.62494" lon="5.19849">
        <ele>1026.4</ele>
        <time>2024-05-17T11:17:10Z</time>
      </trkpt>
      <trkpt lat="44.62494" lon="5.19851">
        <ele>1026.5</ele>
        <time>2024-05-17T11:17:11Z</time>
      </trkpt>
      <trkpt lat="44.62496" lon="5.19854">
        <ele>1026.6</ele>
        <time>2024-05-17T11:17:12Z</time>
      </trkpt>
      <trkpt lat="44.62498" lon="5.19859">
        <ele>1026.8</ele>
        <time>2024-05-17T11:17:13Z</time>
      </trkpt>
      <trkpt lat="44.62499" lon="5.19861">
        <ele>1026.8</ele>
        <time>2024-05-17T11:17:14Z</time>
      </trkpt>
      <trkpt lat="44.62501" lon="5.19865">
        <ele>1027</ele>
        <time>2024-05-17T11:17:15Z</time>
      </trkpt>
      <trkpt lat="44.62502" lon="5.19867">
        <ele>1027.1</ele>
        <time>2024-05-17T11:17:16Z</time>
      </trkpt>
      <trkpt lat="44.62503" lon="5.19869">
        <ele>1027.2</ele>
        <time>2024-05-17T11:17:17Z</time>
      </trkpt>
      <trkpt lat="44.62506" lon="5.19873">
        <ele>1027.4</ele>
        <time>2024-05-17T11:17:18Z</time>
      </trkpt>
      <trkpt lat="44.62507" lon="5.19874">
        <ele>1027.4</ele>
        <time>2024-05-17T11:17:19Z</time>
      </trkpt>
      <trkpt lat="44.62508" lon="5.19876">
        <ele>1027.5</ele>
        <time>2024-05-17T11:17:20Z</time>
      </trkpt>
      <trkpt lat="44.6251" lon="5.19878">
        <ele>1027.7</ele>
        <time>2024-05-17T11:17:21Z</time>
      </trkpt>
      <trkpt lat="44.62512" lon="5.1988">
        <ele>1027.8</ele>
        <time>2024-05-17T11:17:22Z</time>
      </trkpt>
      <trkpt lat="44.62515" lon="5.19884">
        <ele>1028</ele>
        <time>2024-05-17T11:17:23Z</time>
      </trkpt>
      <trkpt lat="44.62516" lon="5.19885">
        <ele>1028</ele>
        <time>2024-05-17T11:17:24Z</time>
      </trkpt>
      <trkpt lat="44.62518" lon="5.19889">
        <ele>1028.2</ele>
        <time>2024-05-17T11:17:25Z</time>
      </trkpt>
      <trkpt lat="44.62519" lon="5.19891">
        <ele>1028.2</ele>
        <time>2024-05-17T11:17:26Z</time>
      </trkpt>
      <trkpt lat="44.62522" lon="5.19895">
        <ele>1028.4</ele>
        <time>2024-05-17T11:17:27Z</time>
      </trkpt>
      <trkpt lat="44.62523" lon="5.19896">
        <ele>1028.5</ele>
        <time>2024-05-17T11:17:28Z</time>
      </trkpt>
      <trkpt lat="44.62525" lon="5.199">
        <ele>1028.6</ele>
        <time>2024-05-17T11:17:29Z</time>
      </trkpt>
      <trkpt lat="44.62527" lon="5.19903">
        <ele>1028.7</ele>
        <time>2024-05-17T11:17:30Z</time>
      </trkpt>
      <trkpt lat="44.6253" lon="5.19907">
        <ele>1028.8</ele>
        <time>2024-05-17T11:17:31Z</time>
      </trkpt>
      <trkpt lat="44.62531" lon="5.19909">
        <ele>1028.9</ele>
        <time>2024-05-17T11:17:32Z</time>
      </trkpt>
      <trkpt lat="44.62532" lon="5.19912">
        <ele>1029</ele>
        <time>2024-05-17T11:17:33Z</time>
      </trkpt>
      <trkpt lat="44.62535" lon="5.19917">
        <ele>1029.2</ele>
        <time>2024-05-17T11:17:34Z</time>
      </trkpt>
      <trkpt lat="44.62536" lon="5.19918">
        <ele>1029.2</ele>
        <time>2024-05-17T11:17:35Z</time>
      </trkpt>
      <trkpt lat="44.62538" lon="5.19921">
        <ele>1029.3</ele>
        <time>2024-05-17T11:17:36Z</time>
      </trkpt>
      <trkpt lat="44.62542" lon="5.19926">
        <ele>1029.5</ele>
        <time>2024-05-17T11:17:37Z</time>
      </trkpt>
      <trkpt lat="44.62543" lon="5.19928">
        <ele>1029.6</ele>
        <time>2024-05-17T11:17:38Z</time>
      </trkpt>
      <trkpt lat="44.62546" lon="5.19933">
        <ele>1029.8</ele>
        <time>2024-05-17T11:17:39Z</time>
      </trkpt>
      <trkpt lat="44.62548" lon="5.19934">
        <ele>1029.8</ele>
        <time>2024-05-17T11:17:40Z</time>
      </trkpt>
      <trkpt lat="44.62551" lon="5.19939">
        <ele>1030</ele>
        <time>2024-05-17T11:17:41Z</time>
      </trkpt>
      <trkpt lat="44.62553" lon="5.1994">
        <ele>1030.1</ele>
        <time>2024-05-17T11:17:42Z</time>
      </trkpt>
      <trkpt lat="44.62555" lon="5.19944">
        <ele>1030.2</ele>
        <time>2024-05-17T11:17:43Z</time>
      </trkpt>
      <trkpt lat="44.62557" lon="5.19947">
        <ele>1030.3</ele>
        <time>2024-05-17T11:17:44Z</time>
      </trkpt>
      <trkpt lat="44.62559" lon="5.19951">
        <ele>1030.4</ele>
        <time>2024-05-17T11:17:45Z</time>
      </trkpt>
      <trkpt lat="44.62563" lon="5.19956">
        <ele>1030.6</ele>
        <time>2024-05-17T11:17:46Z</time>
      </trkpt>
      <trkpt lat="44.62564" lon="5.19958">
        <ele>1030.7</ele>
        <time>2024-05-17T11:17:47Z</time>
      </trkpt>
      <trkpt lat="44.62566" lon="5.19961">
        <ele>1030.8</ele>
        <time>2024-05-17T11:17:48Z</time>
      </trkpt>
      <trkpt lat="44.62569" lon="5.19965">
        <ele>1031</ele>
        <time>2024-05-17T11:17:49Z</time>
      </trkpt>
      <trkpt lat="44.62571" lon="5.19967">
        <ele>1031</ele>
        <time>2024-05-17T11:17:50Z</time>
      </trkpt>
      <trkpt lat="44.62574" lon="5.19972">
        <ele>1031.2</ele>
        <time>2024-05-17T11:17:51Z</time>
      </trkpt>
      <trkpt lat="44.62575" lon="5.19973">
        <ele>1031.3</ele>
        <time>2024-05-17T11:17:52Z</time>
      </trkpt>
      <trkpt lat="44.62577" lon="5.19976">
        <ele>1031.4</ele>
        <time>2024-05-17T11:17:53Z</time>
      </trkpt>
      <trkpt lat="44.62581" lon="5.19981">
        <ele>1031.5</ele>
        <time>2024-05-17T11:17:54Z</time>
      </trkpt>
      <trkpt lat="44.62582" lon="5.19983">
        <ele>1031.6</ele>
        <time>2024-05-17T11:17:55Z</time>
      </trkpt>
      <trkpt lat="44.62584" lon="5.19986">
        <ele>1031.7</ele>
        <time>2024-05-17T11:17:56Z</time>
      </trkpt>
      <trkpt lat="44.62587" lon="5.19992">
        <ele>1031.9</ele>
        <time>2024-05-17T11:17:57Z</time>
      </trkpt>
      <trkpt lat="44.62588" lon="5.19993">
        <ele>1032</ele>
        <time>2024-05-17T11:17:58Z</time>
      </trkpt>
      <trkpt lat="44.62592" lon="5.19998">
        <ele>1032.1</ele>
        <time>2024-05-17T11:17:59Z</time>
      </trkpt>
      <trkpt lat="44.62593" lon="5.2">
        <ele>1032.2</ele>
        <time>2024-05-17T11:18:00Z</time>
      </trkpt>
      <trkpt lat="44.62596" lon="5.20004">
        <ele>1032.4</ele>
        <time>2024-05-17T11:18:01Z</time>
      </trkpt>
      <trkpt lat="44.62598" lon="5.20006">
        <ele>1032.4</ele>
        <time>2024-05-17T11:18:02Z</time>
      </trkpt>
      <trkpt lat="44.626" lon="5.20009">
        <ele>1032.6</ele>
        <time>2024-05-17T11:18:03Z</time>
      </trkpt>
      <trkpt lat="44.62603" lon="5.20012">
        <ele>1032.7</ele>
        <time>2024-05-17T11:18:04Z</time>
      </trkpt>
      <trkpt lat="44.62605" lon="5.20015">
        <ele>1032.8</ele>
        <time>2024-05-17T11:18:05Z</time>
      </trkpt>
      <trkpt lat="44.62609" lon="5.20021">
        <ele>1033</ele>
        <time>2024-05-17T11:18:06Z</time>
      </trkpt>
      <trkpt lat="44.6261" lon="5.20023">
        <ele>1033.1</ele>
        <time>2024-05-17T11:18:07Z</time>
      </trkpt>
      <trkpt lat="44.62613" lon="5.20028">
        <ele>1033.2</ele>
        <time>2024-05-17T11:18:08Z</time>
      </trkpt>
      <trkpt lat="44.62614" lon="5.2003">
        <ele>1033.3</ele>
        <time>2024-05-17T11:18:09Z</time>
      </trkpt>
      <trkpt lat="44.62617" lon="5.20036">
        <ele>1033.5</ele>
        <time>2024-05-17T11:18:10Z</time>
      </trkpt>
      <trkpt lat="44.62618" lon="5.20038">
        <ele>1033.5</ele>
        <time>2024-05-17T11:18:11Z</time>
      </trkpt>
      <trkpt lat="44.6262" lon="5.20041">
        <ele>1033.6</ele>
        <time>2024-05-17T11:18:12Z</time>
      </trkpt>
      <trkpt lat="44.62622" lon="5.20045">
        <ele>1033.8</ele>
        <time>2024-05-17T11:18:13Z</time>
      </trkpt>
      <trkpt lat="44.62624" lon="5.20049">
        <ele>1033.9</ele>
        <time>2024-05-17T11:18:14Z</time>
      </trkpt>
      <trkpt lat="44.62626" lon="5.20052">
        <ele>1034</ele>
        <time>2024-05-17T11:18:15Z</time>
      </trkpt>
      <trkpt lat="44.62629" lon="5.20059">
        <ele>1034.2</ele>
        <time>2024-05-17T11:18:16Z</time>
      </trkpt>
      <trkpt lat="44.62629" lon="5.20061">
        <ele>1034.3</ele>
        <time>2024-05-17T11:18:17Z</time>
      </trkpt>
      <trkpt lat="44.62631" lon="5.20065">
        <ele>1034.4</ele>
        <time>2024-05-17T11:18:18Z</time>
      </trkpt>
      <trkpt lat="44.62633" lon="5.20071">
        <ele>1034.6</ele>
        <time>2024-05-17T11:18:19Z</time>
      </trkpt>
      <trkpt lat="44.62634" lon="5.20073">
        <ele>1034.6</ele>
        <time>2024-05-17T11:18:20Z</time>
      </trkpt>
      <trkpt lat="44.62637" lon="5.20079">
        <ele>1034.8</ele>
        <time>2024-05-17T11:18:21Z</time>
      </trkpt>
      <trkpt lat="44.62638" lon="5.20081">
        <ele>1034.9</ele>
        <time>2024-05-17T11:18:22Z</time>
      </trkpt>
      <trkpt lat="44.62639" lon="5.20084">
        <ele>1035</ele>
        <time>2024-05-17T11:18:23Z</time>
      </trkpt>
      <trkpt lat="44.62641" lon="5.20088">
        <ele>1035.1</ele>
        <time>2024-05-17T11:18:24Z</time>
      </trkpt>
      <trkpt lat="44.62643" lon="5.20093">
        <ele>1035.2</ele>
        <time>2024-05-17T11:18:25Z</time>
      </trkpt>
      <trkpt lat="44.62646" lon="5.20099">
        <ele>1035.4</ele>
        <time>2024-05-17T11:18:26Z</time>
      </trkpt>
      <trkpt lat="44.62647" lon="5.20101">
        <ele>1035.5</ele>
        <time>2024-05-17T11:18:27Z</time>
      </trkpt>
      <trkpt lat="44.6265" lon="5.20107">
        <ele>1035.6</ele>
        <time>2024-05-17T11:18:28Z</time>
      </trkpt>
      <trkpt lat="44.62651" lon="5.20109">
        <ele>1035.7</ele>
        <time>2024-05-17T11:18:29Z</time>
      </trkpt>
      <trkpt lat="44.62653" lon="5.20113">
        <ele>1035.8</ele>
        <time>2024-05-17T11:18:30Z</time>
      </trkpt>
      <trkpt lat="44.62657" lon="5.20117">
        <ele>1036</ele>
        <time>2024-05-17T11:18:31Z</time>
      </trkpt>
      <trkpt lat="44.62658" lon="5.20119">
        <ele>1036.1</ele>
        <time>2024-05-17T11:18:32Z</time>
      </trkpt>
      <trkpt lat="44.62662" lon="5.20124">
        <ele>1036.3</ele>
        <time>2024-05-17T11:18:33Z</time>
      </trkpt>
      <trkpt lat="44.62663" lon="5.20125">
        <ele>1036.4</ele>
        <time>2024-05-17T11:18:34Z</time>
      </trkpt>
      <trkpt lat="44.62665" lon="5.20128">
        <ele>1036.5</ele>
        <time>2024-05-17T11:18:35Z</time>
      </trkpt>
      <trkpt lat="44.62668" lon="5.20132">
        <ele>1036.7</ele>
        <time>2024-05-17T11:18:36Z</time>
      </trkpt>
      <trkpt lat="44.62669" lon="5.20133">
        <ele>1036.8</ele>
        <time>2024-05-17T11:18:37Z</time>
      </trkpt>
      <trkpt lat="44.62671" lon="5.20137">
        <ele>1036.9</ele>
        <time>2024-05-17T11:18:38Z</time>
      </trkpt>
      <trkpt lat="44.62673" lon="5.20141">
        <ele>1037.1</ele>
        <time>2024-05-17T11:18:39Z</time>
      </trkpt>
      <trkpt lat="44.62673" lon="5.20142">
        <ele>1037.1</ele>
        <time>2024-05-17T11:18:40Z</time>
      </trkpt>
      <trkpt lat="44.62676" lon="5.20145">
        <ele>1037.2</ele>
        <time>2024-05-17T11:18:41Z</time>
      </trkpt>
      <trkpt lat="44.62677" lon="5.20146">
        <ele>1037.3</ele>
        <time>2024-05-17T11:18:42Z</time>
      </trkpt>
      <trkpt lat="44.62679" lon="5.20149">
        <ele>1037.4</ele>
        <time>2024-05-17T11:18:43Z</time>
      </trkpt>
      <trkpt lat="44.6268" lon="5.20149">
        <ele>1037.4</ele>
        <time>2024-05-17T11:18:44Z</time>
      </trkpt>
      <trkpt lat="44.62682" lon="5.20151">
        <ele>1037.3</ele>
        <time>2024-05-17T11:18:45Z</time>
      </trkpt>
      <trkpt lat="44.62684" lon="5.20153">
        <ele>1037.2</ele>
        <time>2024-05-17T11:18:46Z</time>
      </trkpt>
      <trkpt lat="44.62685" lon="5.20154">
        <ele>1037.2</ele>
        <time>2024-05-17T11:18:47Z</time>
      </trkpt>
      <trkpt lat="44.62686" lon="5.20155">
        <ele>1037.1</ele>
        <time>2024-05-17T11:18:48Z</time>
      </trkpt>
      <trkpt lat="44.62687" lon="5.20156">
        <ele>1037.1</ele>
        <time>2024-05-17T11:18:49Z</time>
      </trkpt>
      <trkpt lat="44.62687" lon="5.20156">
        <ele>1037.1</ele>
        <time>2024-05-17T11:18:50Z</time>
      </trkpt>
      <trkpt lat="44.62687" lon="5.20156">
        <ele>1037.1</ele>
        <time>2024-05-17T11:18:51Z</time>
      </trkpt>
      <trkpt lat="44.62687" lon="5.20156">
        <ele>1037.1</ele>
        <time>2024-05-17T11:18:52Z</time>
      </trkpt>
      <trkpt lat="44.62684" lon="5.20155">
        <ele>1036.9</ele>
        <time>2024-05-17T11:19:14Z</time>
      </trkpt>
      <trkpt lat="44.62684" lon="5.20154">
        <ele>1036.9</ele>
        <time>2024-05-17T11:19:15Z</time>
      </trkpt>
      <trkpt lat="44.62683" lon="5.20152">
        <ele>1036.9</ele>
        <time>2024-05-17T11:19:16Z</time>
      </trkpt>
      <trkpt lat="44.62682" lon="5.20151">
        <ele>1036.8</ele>
        <time>2024-05-17T11:19:17Z</time>
      </trkpt>
      <trkpt lat="44.62682" lon="5.2015">
        <ele>1036.8</ele>
        <time>2024-05-17T11:19:18Z</time>
      </trkpt>
      <trkpt lat="44.62681" lon="5.20149">
        <ele>1036.7</ele>
        <time>2024-05-17T11:19:19Z</time>
      </trkpt>
      <trkpt lat="44.6268" lon="5.20148">
        <ele>1036.7</ele>
        <time>2024-05-17T11:19:20Z</time>
      </trkpt>
      <trkpt lat="44.6268" lon="5.20147">
        <ele>1036.6</ele>
        <time>2024-05-17T11:19:21Z</time>
      </trkpt>
      <trkpt lat="44.62679" lon="5.20146">
        <ele>1036.6</ele>
        <time>2024-05-17T11:19:22Z</time>
      </trkpt>
      <trkpt lat="44.62678" lon="5.20145">
        <ele>1036.5</ele>
        <time>2024-05-17T11:19:23Z</time>
      </trkpt>
      <trkpt lat="44.62677" lon="5.20144">
        <ele>1036.5</ele>
        <time>2024-05-17T11:19:24Z</time>
      </trkpt>
      <trkpt lat="44.62676" lon="5.20143">
        <ele>1036.4</ele>
        <time>2024-05-17T11:19:25Z</time>
      </trkpt>
      <trkpt lat="44.62676" lon="5.20142">
        <ele>1036.4</ele>
        <time>2024-05-17T11:19:26Z</time>
      </trkpt>
      <trkpt lat="44.62675" lon="5.2014">
        <ele>1036.3</ele>
        <time>2024-05-17T11:19:27Z</time>
      </trkpt>
      <trkpt lat="44.62675" lon="5.20139">
        <ele>1036.3</ele>
        <time>2024-05-17T11:19:28Z</time>
      </trkpt>
      <trkpt lat="44.62674" lon="5.20138">
        <ele>1036.3</ele>
        <time>2024-05-17T11:19:29Z</time>
      </trkpt>
      <trkpt lat="44.62673" lon="5.20137">
        <ele>1036.2</ele>
        <time>2024-05-17T11:19:30Z</time>
      </trkpt>
      <trkpt lat="44.62672" lon="5.20136">
        <ele>1036.2</ele>
        <time>2024-05-17T11:19:31Z</time>
      </trkpt>
      <trkpt lat="44.62671" lon="5.20136">
        <ele>1036.1</ele>
        <time>2024-05-17T11:19:32Z</time>
      </trkpt>
      <trkpt lat="44.6267" lon="5.20136">
        <ele>1036.1</ele>
        <time>2024-05-17T11:19:33Z</time>
      </trkpt>
      <trkpt lat="44.62669" lon="5.20135">
        <ele>1036</ele>
        <time>2024-05-17T11:19:34Z</time>
      </trkpt>
      <trkpt lat="44.62668" lon="5.20136">
        <ele>1036</ele>
        <time>2024-05-17T11:19:35Z</time>
      </trkpt>
      <trkpt lat="44.62668" lon="5.20137">
        <ele>1035.9</ele>
        <time>2024-05-17T11:19:36Z</time>
      </trkpt>
      <trkpt lat="44.62669" lon="5.20138">
        <ele>1035.9</ele>
        <time>2024-05-17T11:19:37Z</time>
      </trkpt>
      <trkpt lat="44.6267" lon="5.20139">
        <ele>1035.8</ele>
        <time>2024-05-17T11:19:38Z</time>
      </trkpt>
      <trkpt lat="44.62671" lon="5.2014">
        <ele>1035.8</ele>
        <time>2024-05-17T11:19:39Z</time>
      </trkpt>
      <trkpt lat="44.62672" lon="5.2014">
        <ele>1035.7</ele>
        <time>2024-05-17T11:19:40Z</time>
      </trkpt>
      <trkpt lat="44.62674" lon="5.20141">
        <ele>1035.7</ele>
        <time>2024-05-17T11:38:04Z</time>
      </trkpt>
      <trkpt lat="44.62675" lon="5.20142">
        <ele>1035.6</ele>
        <time>2024-05-17T11:38:05Z</time>
      </trkpt>
      <trkpt lat="44.62676" lon="5.20142">
        <ele>1035.6</ele>
        <time>2024-05-17T11:38:06Z</time>
      </trkpt>
      <trkpt lat="44.62677" lon="5.20143">
        <ele>1035.6</ele>
        <time>2024-05-17T11:38:07Z</time>
      </trkpt>
      <trkpt lat="44.62679" lon="5.20145">
        <ele>1035.5</ele>
        <time>2024-05-17T11:38:08Z</time>
      </trkpt>
      <trkpt lat="44.62681" lon="5.20148">
        <ele>1035.4</ele>
        <time>2024-05-17T11:38:09Z</time>
      </trkpt>
      <trkpt lat="44.62683" lon="5.20149">
        <ele>1035.3</ele>
        <time>2024-05-17T11:38:10Z</time>
      </trkpt>
      <trkpt lat="44.62686" lon="5.20151">
        <ele>1035.2</ele>
        <time>2024-05-17T11:38:11Z</time>
      </trkpt>
      <trkpt lat="44.62689" lon="5.20154">
        <ele>1035.1</ele>
        <time>2024-05-17T11:38:12Z</time>
      </trkpt>
      <trkpt lat="44.62692" lon="5.20156">
        <ele>1035</ele>
        <time>2024-05-17T11:38:13Z</time>
      </trkpt>
      <trkpt lat="44.62695" lon="5.20159">
        <ele>1034.8</ele>
        <time>2024-05-17T11:38:14Z</time>
      </trkpt>
      <trkpt lat="44.62701" lon="5.20163">
        <ele>1034.6</ele>
        <time>2024-05-17T11:38:15Z</time>
      </trkpt>
      <trkpt lat="44.62703" lon="5.20165">
        <ele>1034.5</ele>
        <time>2024-05-17T11:38:16Z</time>
      </trkpt>
      <trkpt lat="44.62708" lon="5.20167">
        <ele>1034.4</ele>
        <time>2024-05-17T11:38:17Z</time>
      </trkpt>
      <trkpt lat="44.62716" lon="5.20171">
        <ele>1034.1</ele>
        <time>2024-05-17T11:38:18Z</time>
      </trkpt>
      <trkpt lat="44.62718" lon="5.20172">
        <ele>1034</ele>
        <time>2024-05-17T11:38:19Z</time>
      </trkpt>
      <trkpt lat="44.62726" lon="5.20177">
        <ele>1033.7</ele>
        <time>2024-05-17T11:38:20Z</time>
      </trkpt>
      <trkpt lat="44.62729" lon="5.20179">
        <ele>1033.6</ele>
        <time>2024-05-17T11:38:21Z</time>
      </trkpt>
      <trkpt lat="44.62738" lon="5.20184">
        <ele>1033.3</ele>
        <time>2024-05-17T11:38:22Z</time>
      </trkpt>
      <trkpt lat="44.62741" lon="5.20185">
        <ele>1033.2</ele>
        <time>2024-05-17T11:38:23Z</time>
      </trkpt>
      <trkpt lat="44.62751" lon="5.2019">
        <ele>1032.9</ele>
        <time>2024-05-17T11:38:24Z</time>
      </trkpt>
      <trkpt lat="44.62754" lon="5.20192">
        <ele>1032.8</ele>
        <time>2024-05-17T11:38:25Z</time>
      </trkpt>
      <trkpt lat="44.6276" lon="5.20196">
        <ele>1032.5</ele>
        <time>2024-05-17T11:38:26Z</time>
      </trkpt>
      <trkpt lat="44.62769" lon="5.20205">
        <ele>1032.2</ele>
        <time>2024-05-17T11:38:27Z</time>
      </trkpt>
      <trkpt lat="44.62772" lon="5.20208">
        <ele>1032</ele>
        <time>2024-05-17T11:38:28Z</time>
      </trkpt>
      <trkpt lat="44.62781" lon="5.20218">
        <ele>1031.7</ele>
        <time>2024-05-17T11:38:29Z</time>
      </trkpt>
      <trkpt lat="44.62784" lon="5.20222">
        <ele>1031.5</ele>
        <time>2024-05-17T11:38:30Z</time>
      </trkpt>
      <trkpt lat="44.62792" lon="5.20234">
        <ele>1031.1</ele>
        <time>2024-05-17T11:38:31Z</time>
      </trkpt>
      <trkpt lat="44.62795" lon="5.20238">
        <ele>1031</ele>
        <time>2024-05-17T11:38:32Z</time>
      </trkpt>
      <trkpt lat="44.628" lon="5.20246">
        <ele>1030.7</ele>
        <time>2024-05-17T11:38:33Z</time>
      </trkpt>
      <trkpt lat="44.62809" lon="5.20258">
        <ele>1030.3</ele>
        <time>2024-05-17T11:38:34Z</time>
      </trkpt>
      <trkpt lat="44.62812" lon="5.20262">
        <ele>1030.1</ele>
        <time>2024-05-17T11:38:35Z</time>
      </trkpt>
      <trkpt lat="44.62818" lon="5.2027">
        <ele>1029.8</ele>
        <time>2024-05-17T11:38:36Z</time>
      </trkpt>
      <trkpt lat="44.62828" lon="5.20283">
        <ele>1029.4</ele>
        <time>2024-05-17T11:38:37Z</time>
      </trkpt>
      <trkpt lat="44.62831" lon="5.20287">
        <ele>1029.2</ele>
        <time>2024-05-17T11:38:38Z</time>
      </trkpt>
      <trkpt lat="44.62837" lon="5.20296">
        <ele>1028.9</ele>
        <time>2024-05-17T11:38:39Z</time>
      </trkpt>
      <trkpt lat="44.62842" lon="5.20306">
        <ele>1028.7</ele>
        <time>2024-05-17T11:38:40Z</time>
      </trkpt>
      <trkpt lat="44.62848" lon="5.20322">
        <ele>1028.3</ele>
        <time>2024-05-17T11:38:41Z</time>
      </trkpt>
      <trkpt lat="44.62851" lon="5.20327">
        <ele>1028.1</ele>
        <time>2024-05-17T11:38:42Z</time>
      </trkpt>
      <trkpt lat="44.62855" lon="5.20337">
        <ele>1027.8</ele>
        <time>2024-05-17T11:38:43Z</time>
      </trkpt>
      <trkpt lat="44.62861" lon="5.20346">
        <ele>1027.5</ele>
        <time>2024-05-17T11:38:44Z</time>
      </trkpt>
      <trkpt lat="44.62867" lon="5.20354">
        <ele>1027.2</ele>
        <time>2024-05-17T11:38:45Z</time>
      </trkpt>
      <trkpt lat="44.62877" lon="5.20365">
        <ele>1026.7</ele>
        <time>2024-05-17T11:38:46Z</time>
      </trkpt>
      <trkpt lat="44.6288" lon="5.20369">
        <ele>1026.5</ele>
        <time>2024-05-17T11:38:47Z</time>
      </trkpt>
      <trkpt lat="44.6289" lon="5.2038">
        <ele>1026</ele>
        <time>2024-05-17T11:38:48Z</time>
      </trkpt>
      <trkpt lat="44.62893" lon="5.20384">
        <ele>1025.8</ele>
        <time>2024-05-17T11:38:49Z</time>
      </trkpt>
      <trkpt lat="44.62899" lon="5.20392">
        <ele>1025.4</ele>
        <time>2024-05-17T11:38:50Z</time>
      </trkpt>
      <trkpt lat="44.62907" lon="5.20405">
        <ele>1024.8</ele>
        <time>2024-05-17T11:38:51Z</time>
      </trkpt>
      <trkpt lat="44.6291" lon="5.2041">
        <ele>1024.5</ele>
        <time>2024-05-17T11:38:52Z</time>
      </trkpt>
      <trkpt lat="44.62914" lon="5.2042">
        <ele>1024</ele>
        <time>2024-05-17T11:38:53Z</time>
      </trkpt>
      <trkpt lat="44.62917" lon="5.20438">
        <ele>1023.2</ele>
        <time>2024-05-17T11:38:54Z</time>
      </trkpt>
      <trkpt lat="44.62918" lon="5.20444">
        <ele>1022.9</ele>
        <time>2024-05-17T11:38:55Z</time>
      </trkpt>
      <trkpt lat="44.62918" lon="5.20456">
        <ele>1022.2</ele>
        <time>2024-05-17T11:38:56Z</time>
      </trkpt>
      <trkpt lat="44.62919" lon="5.20467">
        <ele>1021.6</ele>
        <time>2024-05-17T11:38:57Z</time>
      </trkpt>
      <trkpt lat="44.6292" lon="5.20475">
        <ele>1021.1</ele>
        <time>2024-05-17T11:38:58Z</time>
      </trkpt>
      <trkpt lat="44.6292" lon="5.2048">
        <ele>1020.8</ele>
        <time>2024-05-17T11:38:59Z</time>
      </trkpt>
      <trkpt lat="44.6292" lon="5.20483">
        <ele>1020.6</ele>
        <time>2024-05-17T11:39:00Z</time>
      </trkpt>
      <trkpt lat="44.6292" lon="5.20485">
        <ele>1020.5</ele>
        <time>2024-05-17T11:39:01Z</time>
      </trkpt>
      <trkpt lat="44.62921" lon="5.20486">
        <ele>1020.4</ele>
        <time>2024-05-17T11:39:02Z</time>
      </trkpt>
      <trkpt lat="44.62922" lon="5.20487">
        <ele>1020.3</ele>
        <time>2024-05-17T11:39:03Z</time>
      </trkpt>
      <trkpt lat="44.62923" lon="5.20488">
        <ele>1020.2</ele>
        <time>2024-05-17T11:39:04Z</time>
      </trkpt>
      <trkpt lat="44.62924" lon="5.20488">
        <ele>1020.1</ele>
        <time>2024-05-17T11:39:39Z</time>
      </trkpt>
      <trkpt lat="44.62926" lon="5.20489">
        <ele>1020</ele>
        <time>2024-05-17T11:39:40Z</time>
      </trkpt>
      <trkpt lat="44.62929" lon="5.20493">
        <ele>1019.6</ele>
        <time>2024-05-17T11:39:41Z</time>
      </trkpt>
      <trkpt lat="44.62934" lon="5.20498">
        <ele>1019</ele>
        <time>2024-05-17T11:39:42Z</time>
      </trkpt>
      <trkpt lat="44.62937" lon="5.205">
        <ele>1018.8</ele>
        <time>2024-05-17T11:39:43Z</time>
      </trkpt>
      <trkpt lat="44.62944" lon="5.20506">
        <ele>1018.1</ele>
        <time>2024-05-17T11:39:44Z</time>
      </trkpt>
      <trkpt lat="44.62947" lon="5.20508">
        <ele>1017.8</ele>
        <time>2024-05-17T11:39:45Z</time>
      </trkpt>
      <trkpt lat="44.62955" lon="5.20514">
        <ele>1017</ele>
        <time>2024-05-17T11:39:46Z</time>
      </trkpt>
      <trkpt lat="44.62958" lon="5.20517">
        <ele>1016.7</ele>
        <time>2024-05-17T11:39:47Z</time>
      </trkpt>
      <trkpt lat="44.62964" lon="5.20522">
        <ele>1016.2</ele>
        <time>2024-05-17T11:39:48Z</time>
      </trkpt>
      <trkpt lat="44.62973" lon="5.20532">
        <ele>1015.3</ele>
        <time>2024-05-17T11:39:49Z</time>
      </trkpt>
      <trkpt lat="44.62976" lon="5.20535">
        <ele>1015</ele>
        <time>2024-05-17T11:39:50Z</time>
      </trkpt>
      <trkpt lat="44.62982" lon="5.20542">
        <ele>1014.5</ele>
        <time>2024-05-17T11:39:51Z</time>
      </trkpt>
      <trkpt lat="44.6299" lon="5.20555">
        <ele>1013.5</ele>
        <time>2024-05-17T11:39:52Z</time>
      </trkpt>
      <trkpt lat="44.62993" lon="5.2056">
        <ele>1013.2</ele>
        <time>2024-05-17T11:39:53Z</time>
      </trkpt>
      <trkpt lat="44.63" lon="5.20575">
        <ele>1012.2</ele>
        <time>2024-05-17T11:39:54Z</time>
      </trkpt>
      <trkpt lat="44.63003" lon="5.2058">
        <ele>1011.8</ele>
        <time>2024-05-17T11:39:55Z</time>
      </trkpt>
      <trkpt lat="44.63008" lon="5.20591">
        <ele>1011.1</ele>
        <time>2024-05-17T11:39:56Z</time>
      </trkpt>
      <trkpt lat="44.63014" lon="5.20601">
        <ele>1010.4</ele>
        <time>2024-05-17T11:39:57Z</time>
      </trkpt>
      <trkpt lat="44.63023" lon="5.20616">
        <ele>1009.3</ele>
        <time>2024-05-17T11:39:58Z</time>
      </trkpt>
      <trkpt lat="44.63025" lon="5.20622">
        <ele>1008.9</ele>
        <time>2024-05-17T11:39:59Z</time>
      </trkpt>
      <trkpt lat="44.6303" lon="5.20634">
        <ele>1008</ele>
        <time>2024-05-17T11:40:00Z</time>
      </trkpt>
      <trkpt lat="44.6303" lon="5.20655">
        <ele>1006.8</ele>
        <time>2024-05-17T11:40:01Z</time>
      </trkpt>
      <trkpt lat="44.6303" lon="5.20663">
        <ele>1006.3</ele>
        <time>2024-05-17T11:40:02Z</time>
      </trkpt>
      <trkpt lat="44.63029" lon="5.20685">
        <ele>1005</ele>
        <time>2024-05-17T11:40:03Z</time>
      </trkpt>
      <trkpt lat="44.63029" lon="5.20692">
        <ele>1004.5</ele>
        <time>2024-05-17T11:40:04Z</time>
      </trkpt>
      <trkpt lat="44.63029" lon="5.20707">
        <ele>1003.6</ele>
        <time>2024-05-17T11:40:05Z</time>
      </trkpt>
      <trkpt lat="44.6303" lon="5.20723">
        <ele>1002.7</ele>
        <time>2024-05-17T11:40:06Z</time>
      </trkpt>
      <trkpt lat="44.63032" lon="5.20738">
        <ele>1001.7</ele>
        <time>2024-05-17T11:40:07Z</time>
      </trkpt>
      <trkpt lat="44.63037" lon="5.20753">
        <ele>1000.8</ele>
        <time>2024-05-17T11:40:08Z</time>
      </trkpt>
      <trkpt lat="44.63041" lon="5.20768">
        <ele>999.8</ele>
        <time>2024-05-17T11:40:09Z</time>
      </trkpt>
      <trkpt lat="44.63047" lon="5.20782">
        <ele>998.9</ele>
        <time>2024-05-17T11:40:10Z</time>
      </trkpt>
      <trkpt lat="44.63054" lon="5.20795">
        <ele>998</ele>
        <time>2024-05-17T11:40:11Z</time>
      </trkpt>
      <trkpt lat="44.63066" lon="5.20813">
        <ele>996.7</ele>
        <time>2024-05-17T11:40:12Z</time>
      </trkpt>
      <trkpt lat="44.63071" lon="5.20818">
        <ele>996.2</ele>
        <time>2024-05-17T11:40:13Z</time>
      </trkpt>
      <trkpt lat="44.6308" lon="5.20829">
        <ele>995.3</ele>
        <time>2024-05-17T11:40:14Z</time>
      </trkpt>
      <trkpt lat="44.63095" lon="5.20843">
        <ele>994</ele>
        <time>2024-05-17T11:40:15Z</time>
      </trkpt>
      <trkpt lat="44.631" lon="5.20847">
        <ele>993.6</ele>
        <time>2024-05-17T11:40:16Z</time>
      </trkpt>
      <trkpt lat="44.63117" lon="5.20859">
        <ele>992.2</ele>
        <time>2024-05-17T11:40:17Z</time>
      </trkpt>
      <trkpt lat="44.63122" lon="5.20863">
        <ele>991.7</ele>
        <time>2024-05-17T11:40:18Z</time>
      </trkpt>
      <trkpt lat="44.63139" lon="5.20875">
        <ele>990</ele>
        <time>2024-05-17T11:40:19Z</time>
      </trkpt>
      <trkpt lat="44.63144" lon="5.2088">
        <ele>989.5</ele>
        <time>2024-05-17T11:40:20Z</time>
      </trkpt>
      <trkpt lat="44.63159" lon="5.20896">
        <ele>988</ele>
        <time>2024-05-17T11:40:21Z</time>
      </trkpt>
      <trkpt lat="44.63164" lon="5.20902">
        <ele>987.5</ele>
        <time>2024-05-17T11:40:22Z</time>
      </trkpt>
      <trkpt lat="44.6318" lon="5.20918">
        <ele>985.9</ele>
        <time>2024-05-17T11:40:23Z</time>
      </trkpt>
      <trkpt lat="44.63186" lon="5.20922">
        <ele>985.4</ele>
        <time>2024-05-17T11:40:24Z</time>
      </trkpt>
      <trkpt lat="44.63204" lon="5.20932">
        <ele>983.9</ele>
        <time>2024-05-17T11:40:25Z</time>
      </trkpt>
      <trkpt lat="44.6321" lon="5.20934">
        <ele>983.4</ele>
        <time>2024-05-17T11:40:26Z</time>
      </trkpt>
      <trkpt lat="44.63229" lon="5.20938">
        <ele>982</ele>
        <time>2024-05-17T11:40:27Z</time>
      </trkpt>
      <trkpt lat="44.63235" lon="5.20939">
        <ele>981.5</ele>
        <time>2024-05-17T11:40:28Z</time>
      </trkpt>
      <trkpt lat="44.63254" lon="5.20942">
        <ele>980.2</ele>
        <time>2024-05-17T11:40:29Z</time>
      </trkpt>
      <trkpt lat="44.63261" lon="5.20943">
        <ele>979.8</ele>
        <time>2024-05-17T11:40:30Z</time>
      </trkpt>
      <trkpt lat="44.63273" lon="5.20945">
        <ele>979</ele>
        <time>2024-05-17T11:40:31Z</time>
      </trkpt>
      <trkpt lat="44.63285" lon="5.20946">
        <ele>978.3</ele>
        <time>2024-05-17T11:40:32Z</time>
      </trkpt>
      <trkpt lat="44.63297" lon="5.20942">
        <ele>977.4</ele>
        <time>2024-05-17T11:40:33Z</time>
      </trkpt>
      <trkpt lat="44.633" lon="5.20941">
        <ele>977.2</ele>
        <time>2024-05-17T11:40:34Z</time>
      </trkpt>
      <trkpt lat="44.63306" lon="5.20938">
        <ele>976.8</ele>
        <time>2024-05-17T11:40:35Z</time>
      </trkpt>
      <trkpt lat="44.63309" lon="5.20936">
        <ele>976.6</ele>
        <time>2024-05-17T11:40:36Z</time>
      </trkpt>
      <trkpt lat="44.63311" lon="5.20935">
        <ele>976.5</ele>
        <time>2024-05-17T11:40:37Z</time>
      </trkpt>
      <trkpt lat="44.63313" lon="5.20932">
        <ele>976.3</ele>
        <time>2024-05-17T11:40:38Z</time>
      </trkpt>
      <trkpt lat="44.63315" lon="5.20931">
        <ele>976.2</ele>
        <time>2024-05-17T11:40:39Z</time>
      </trkpt>
      <trkpt lat="44.63317" lon="5.20929">
        <ele>976.1</ele>
        <time>2024-05-17T11:40:40Z</time>
      </trkpt>
      <trkpt lat="44.63318" lon="5.20927">
        <ele>976</ele>
        <time>2024-05-17T11:40:41Z</time>
      </trkpt>
      <trkpt lat="44.6332" lon="5.20925">
        <ele>975.9</ele>
        <time>2024-05-17T11:40:42Z</time>
      </trkpt>
      <trkpt lat="44.63321" lon="5.20923">
        <ele>975.8</ele>
        <time>2024-05-17T11:41:04Z</time>
      </trkpt>
      <trkpt lat="44.63323" lon="5.20921">
        <ele>975.7</ele>
        <time>2024-05-17T11:41:05Z</time>
      </trkpt>
      <trkpt lat="44.6333" lon="5.20918">
        <ele>975.3</ele>
        <time>2024-05-17T11:41:06Z</time>
      </trkpt>
      <trkpt lat="44.63332" lon="5.20918">
        <ele>975.2</ele>
        <time>2024-05-17T11:41:07Z</time>
      </trkpt>
      <trkpt lat="44.63341" lon="5.20918">
        <ele>974.7</ele>
        <time>2024-05-17T11:41:08Z</time>
      </trkpt>
      <trkpt lat="44.63343" lon="5.20919">
        <ele>974.6</ele>
        <time>2024-05-17T11:41:09Z</time>
      </trkpt>
      <trkpt lat="44.63352" lon="5.20924">
        <ele>974</ele>
        <time>2024-05-17T11:41:10Z</time>
      </trkpt>
      <trkpt lat="44.63355" lon="5.20926">
        <ele>973.7</ele>
        <time>2024-05-17T11:41:11Z</time>
      </trkpt>
      <trkpt lat="44.6336" lon="5.20932">
        <ele>973.2</ele>
        <time>2024-05-17T11:41:12Z</time>
      </trkpt>
      <trkpt lat="44.63366" lon="5.20938">
        <ele>972.6</ele>
        <time>2024-05-17T11:41:13Z</time>
      </trkpt>
      <trkpt lat="44.63376" lon="5.20948">
        <ele>971.6</ele>
        <time>2024-05-17T11:41:14Z</time>
      </trkpt>
      <trkpt lat="44.63379" lon="5.20952">
        <ele>971.3</ele>
        <time>2024-05-17T11:41:15Z</time>
      </trkpt>
      <trkpt lat="44.6339" lon="5.20964">
        <ele>970.2</ele>
        <time>2024-05-17T11:41:16Z</time>
      </trkpt>
      <trkpt lat="44.63394" lon="5.20968">
        <ele>969.8</ele>
        <time>2024-05-17T11:41:17Z</time>
      </trkpt>
      <trkpt lat="44.63407" lon="5.20977">
        <ele>968.7</ele>
        <time>2024-05-17T11:41:18Z</time>
      </trkpt>
      <trkpt lat="44.63412" lon="5.20979">
        <ele>968.3</ele>
        <time>2024-05-17T11:41:19Z</time>
      </trkpt>
      <trkpt lat="44.63426" lon="5.20981">
        <ele>967.1</ele>
        <time>2024-05-17T11:41:20Z</time>
      </trkpt>
      <trkpt lat="44.63431" lon="5.2098">
        <ele>966.7</ele>
        <time>2024-05-17T11:41:21Z</time>
      </trkpt>
      <trkpt lat="44.63447" lon="5.20977">
        <ele>965.3</ele>
        <time>2024-05-17T11:41:22Z</time>
      </trkpt>
      <trkpt lat="44.63452" lon="5.20976">
        <ele>964.8</ele>
        <time>2024-05-17T11:41:23Z</time>
      </trkpt>
      <trkpt lat="44.63463" lon="5.20974">
        <ele>963.8</ele>
        <time>2024-05-17T11:41:24Z</time>
      </trkpt>
      <trkpt lat="44.6348" lon="5.20972">
        <ele>962.4</ele>
        <time>2024-05-17T11:41:25Z</time>
      </trkpt>
      <trkpt lat="44.63486" lon="5.20972">
        <ele>961.9</ele>
        <time>2024-05-17T11:41:26Z</time>
      </trkpt>
      <trkpt lat="44.63503" lon="5.20971">
        <ele>960.7</ele>
        <time>2024-05-17T11:41:27Z</time>
      </trkpt>
      <trkpt lat="44.63508" lon="5.2097">
        <ele>960.3</ele>
        <time>2024-05-17T11:41:28Z</time>
      </trkpt>
      <trkpt lat="44.63525" lon="5.20967">
        <ele>959.1</ele>
        <time>2024-05-17T11:41:29Z</time>
      </trkpt>
      <trkpt lat="44.6353" lon="5.20965">
        <ele>958.7</ele>
        <time>2024-05-17T11:41:30Z</time>
      </trkpt>
      <trkpt lat="44.63547" lon="5.20959">
        <ele>957.5</ele>
        <time>2024-05-17T11:41:31Z</time>
      </trkpt>
      <trkpt lat="44.63553" lon="5.20959">
        <ele>957.1</ele>
        <time>2024-05-17T11:41:32Z</time>
      </trkpt>
      <trkpt lat="44.63565" lon="5.20957">
        <ele>956.2</ele>
        <time>2024-05-17T11:41:33Z</time>
      </trkpt>
      <trkpt lat="44.63581" lon="5.20965">
        <ele>954.8</ele>
        <time>2024-05-17T11:41:34Z</time>
      </trkpt>
      <trkpt lat="44.63586" lon="5.20969">
        <ele>954.3</ele>
        <time>2024-05-17T11:41:35Z</time>
      </trkpt>
      <trkpt lat="44.63601" lon="5.20981">
        <ele>952.8</ele>
        <time>2024-05-17T11:41:36Z</time>
      </trkpt>
      <trkpt lat="44.63606" lon="5.20984">
        <ele>952.2</ele>
        <time>2024-05-17T11:41:37Z</time>
      </trkpt>
      <trkpt lat="44.63617" lon="5.20991">
        <ele>951.1</ele>
        <time>2024-05-17T11:41:38Z</time>
      </trkpt>
      <trkpt lat="44.63628" lon="5.20993">
        <ele>950</ele>
        <time>2024-05-17T11:41:39Z</time>
      </trkpt>
      <trkpt lat="44.63641" lon="5.20992">
        <ele>948.9</ele>
        <time>2024-05-17T11:41:40Z</time>
      </trkpt>
      <trkpt lat="44.63659" lon="5.2099">
        <ele>947.5</ele>
        <time>2024-05-17T11:41:41Z</time>
      </trkpt>
      <trkpt lat="44.63665" lon="5.20989">
        <ele>947.1</ele>
        <time>2024-05-17T11:41:42Z</time>
      </trkpt>
      <trkpt lat="44.63677" lon="5.20988">
        <ele>946.2</ele>
        <time>2024-05-17T11:41:43Z</time>
      </trkpt>
      <trkpt lat="44.63689" lon="5.20991">
        <ele>945.2</ele>
        <time>2024-05-17T11:41:44Z</time>
      </trkpt>
      <trkpt lat="44.637" lon="5.20996">
        <ele>944.2</ele>
        <time>2024-05-17T11:41:45Z</time>
      </trkpt>
      <trkpt lat="44.63718" lon="5.21005">
        <ele>942.8</ele>
        <time>2024-05-17T11:41:46Z</time>
      </trkpt>
      <trkpt lat="44.63724" lon="5.21008">
        <ele>942.2</ele>
        <time>2024-05-17T11:41:47Z</time>
      </trkpt>
      <trkpt lat="44.63741" lon="5.21018">
        <ele>940.8</ele>
        <time>2024-05-17T11:41:48Z</time>
      </trkpt>
      <trkpt lat="44.63747" lon="5.21021">
        <ele>940.3</ele>
        <time>2024-05-17T11:41:49Z</time>
      </trkpt>
      <trkpt lat="44.63758" lon="5.21027">
        <ele>939.4</ele>
        <time>2024-05-17T11:41:50Z</time>
      </trkpt>
      <trkpt lat="44.6377" lon="5.21034">
        <ele>938.5</ele>
        <time>2024-05-17T11:41:51Z</time>
      </trkpt>
      <trkpt lat="44.63781" lon="5.21039">
        <ele>937.6</ele>
        <time>2024-05-17T11:41:52Z</time>
      </trkpt>
      <trkpt lat="44.63793" lon="5.21039">
        <ele>936.8</ele>
        <time>2024-05-17T11:41:53Z</time>
      </trkpt>
      <trkpt lat="44.63805" lon="5.21035">
        <ele>935.9</ele>
        <time>2024-05-17T11:41:54Z</time>
      </trkpt>
      <trkpt lat="44.63821" lon="5.21022">
        <ele>934.6</ele>
        <time>2024-05-17T11:41:55Z</time>
      </trkpt>
      <trkpt lat="44.63826" lon="5.21018">
        <ele>934.2</ele>
        <time>2024-05-17T11:41:56Z</time>
      </trkpt>
      <trkpt lat="44.63842" lon="5.21009">
        <ele>933.1</ele>
        <time>2024-05-17T11:41:57Z</time>
      </trkpt>
      <trkpt lat="44.63847" lon="5.21008">
        <ele>932.8</ele>
        <time>2024-05-17T11:41:58Z</time>
      </trkpt>
      <trkpt lat="44.63857" lon="5.21006">
        <ele>932.1</ele>
        <time>2024-05-17T11:41:59Z</time>
      </trkpt>
      <trkpt lat="44.6387" lon="5.21016">
        <ele>931</ele>
        <time>2024-05-17T11:42:00Z</time>
      </trkpt>
      <trkpt lat="44.63874" lon="5.2102">
        <ele>930.6</ele>
        <time>2024-05-17T11:42:01Z</time>
      </trkpt>
      <trkpt lat="44.63887" lon="5.21033">
        <ele>929.4</ele>
        <time>2024-05-17T11:42:02Z</time>
      </trkpt>
      <trkpt lat="44.63892" lon="5.21036">
        <ele>928.9</ele>
        <time>2024-05-17T11:42:03Z</time>
      </trkpt>
      <trkpt lat="44.63907" lon="5.21042">
        <ele>927.5</ele>
        <time>2024-05-17T11:42:04Z</time>
      </trkpt>
      <trkpt lat="44.63913" lon="5.21042">
        <ele>927.1</ele>
        <time>2024-05-17T11:42:05Z</time>
      </trkpt>
      <trkpt lat="44.6393" lon="5.21044">
        <ele>925.5</ele>
        <time>2024-05-17T11:42:06Z</time>
      </trkpt>
      <trkpt lat="44.63936" lon="5.21044">
        <ele>925</ele>
        <time>2024-05-17T11:42:07Z</time>
      </trkpt>
      <trkpt lat="44.63954" lon="5.21044">
        <ele>923.5</ele>
        <time>2024-05-17T11:42:08Z</time>
      </trkpt>
      <trkpt lat="44.6396" lon="5.21043">
        <ele>923</ele>
        <time>2024-05-17T11:42:09Z</time>
      </trkpt>
      <trkpt lat="44.63978" lon="5.21042">
        <ele>921.5</ele>
        <time>2024-05-17T11:42:10Z</time>
      </trkpt>
      <trkpt lat="44.63984" lon="5.21042">
        <ele>921</ele>
        <time>2024-05-17T11:42:11Z</time>
      </trkpt>
      <trkpt lat="44.63996" lon="5.21042">
        <ele>920</ele>
        <time>2024-05-17T11:42:12Z</time>
      </trkpt>
      <trkpt lat="44.64014" lon="5.21052">
        <ele>918.3</ele>
        <time>2024-05-17T11:42:13Z</time>
      </trkpt>
      <trkpt lat="44.64019" lon="5.21055">
        <ele>917.8</ele>
        <time>2024-05-17T11:42:14Z</time>
      </trkpt>
      <trkpt lat="44.64037" lon="5.21063">
        <ele>916.4</ele>
        <time>2024-05-17T11:42:15Z</time>
      </trkpt>
      <trkpt lat="44.64043" lon="5.21065">
        <ele>916</ele>
        <time>2024-05-17T11:42:16Z</time>
      </trkpt>
      <trkpt lat="44.64061" lon="5.21069">
        <ele>914.6</ele>
        <time>2024-05-17T11:42:17Z</time>
      </trkpt>
      <trkpt lat="44.64067" lon="5.2107">
        <ele>914.2</ele>
        <time>2024-05-17T11:42:18Z</time>
      </trkpt>
      <trkpt lat="44.64084" lon="5.21071">
        <ele>912.8</ele>
        <time>2024-05-17T11:42:19Z</time>
      </trkpt>
      <trkpt lat="44.6409" lon="5.2107">
        <ele>912.3</ele>
        <time>2024-05-17T11:42:20Z</time>
      </trkpt>
      <trkpt lat="44.64102" lon="5.21069">
        <ele>911.4</ele>
        <time>2024-05-17T11:42:21Z</time>
      </trkpt>
      <trkpt lat="44.64118" lon="5.21058">
        <ele>910</ele>
        <time>2024-05-17T11:42:22Z</time>
      </trkpt>
      <trkpt lat="44.64123" lon="5.21054">
        <ele>909.5</ele>
        <time>2024-05-17T11:42:23Z</time>
      </trkpt>
      <trkpt lat="44.64139" lon="5.21045">
        <ele>908.2</ele>
        <time>2024-05-17T11:42:24Z</time>
      </trkpt>
      <trkpt lat="44.64145" lon="5.21043">
        <ele>907.7</ele>
        <time>2024-05-17T11:42:25Z</time>
      </trkpt>
      <trkpt lat="44.64162" lon="5.21042">
        <ele>906.5</ele>
        <time>2024-05-17T11:42:26Z</time>
      </trkpt>
      <trkpt lat="44.64167" lon="5.21044">
        <ele>906</ele>
        <time>2024-05-17T11:42:27Z</time>
      </trkpt>
      <trkpt lat="44.64181" lon="5.21054">
        <ele>904.7</ele>
        <time>2024-05-17T11:42:28Z</time>
      </trkpt>
      <trkpt lat="44.64184" lon="5.21061">
        <ele>904.2</ele>
        <time>2024-05-17T11:42:29Z</time>
      </trkpt>
      <trkpt lat="44.6419" lon="5.21074">
        <ele>903.3</ele>
        <time>2024-05-17T11:42:30Z</time>
      </trkpt>
      <trkpt lat="44.64195" lon="5.21088">
        <ele>902.5</ele>
        <time>2024-05-17T11:42:31Z</time>
      </trkpt>
      <trkpt lat="44.64201" lon="5.21102">
        <ele>901.6</ele>
        <time>2024-05-17T11:42:32Z</time>
      </trkpt>
      <trkpt lat="44.64208" lon="5.21113">
        <ele>900.7</ele>
        <time>2024-05-17T11:42:33Z</time>
      </trkpt>
      <trkpt lat="44.64217" lon="5.21123">
        <ele>899.8</ele>
        <time>2024-05-17T11:42:34Z</time>
      </trkpt>
      <trkpt lat="44.64226" lon="5.21131">
        <ele>898.9</ele>
        <time>2024-05-17T11:42:35Z</time>
      </trkpt>
      <trkpt lat="44.64236" lon="5.21135">
        <ele>898.1</ele>
        <time>2024-05-17T11:42:36Z</time>
      </trkpt>
      <trkpt lat="44.64251" lon="5.21143">
        <ele>896.8</ele>
        <time>2024-05-17T11:42:37Z</time>
      </trkpt>
      <trkpt lat="44.64256" lon="5.21146">
        <ele>896.4</ele>
        <time>2024-05-17T11:42:38Z</time>
      </trkpt>
      <trkpt lat="44.64266" lon="5.21153">
        <ele>895.5</ele>
        <time>2024-05-17T11:42:39Z</time>
      </trkpt>
      <trkpt lat="44.6428" lon="5.21166">
        <ele>894.2</ele>
        <time>2024-05-17T11:42:40Z</time>
      </trkpt>
      <trkpt lat="44.64284" lon="5.21172">
        <ele>893.7</ele>
        <time>2024-05-17T11:42:41Z</time>
      </trkpt>
      <trkpt lat="44.64291" lon="5.21185">
        <ele>892.8</ele>
        <time>2024-05-17T11:42:42Z</time>
      </trkpt>
      <trkpt lat="44.64295" lon="5.21199">
        <ele>891.8</ele>
        <time>2024-05-17T11:42:43Z</time>
      </trkpt>
      <trkpt lat="44.64298" lon="5.21215">
        <ele>890.9</ele>
        <time>2024-05-17T11:42:44Z</time>
      </trkpt>
      <trkpt lat="44.64301" lon="5.21231">
        <ele>889.9</ele>
        <time>2024-05-17T11:42:45Z</time>
      </trkpt>
      <trkpt lat="44.64305" lon="5.21246">
        <ele>889</ele>
        <time>2024-05-17T11:42:46Z</time>
      </trkpt>
      <trkpt lat="44.64311" lon="5.21269">
        <ele>887.7</ele>
        <time>2024-05-17T11:42:47Z</time>
      </trkpt>
      <trkpt lat="44.64314" lon="5.21276">
        <ele>887.3</ele>
        <time>2024-05-17T11:42:48Z</time>
      </trkpt>
      <trkpt lat="44.64319" lon="5.21291">
        <ele>886.4</ele>
        <time>2024-05-17T11:42:49Z</time>
      </trkpt>
      <trkpt lat="44.64324" lon="5.21305">
        <ele>885.5</ele>
        <time>2024-05-17T11:42:50Z</time>
      </trkpt>
      <trkpt lat="44.64334" lon="5.21325">
        <ele>884.1</ele>
        <time>2024-05-17T11:42:51Z</time>
      </trkpt>
      <trkpt lat="44.64337" lon="5.21332">
        <ele>883.6</ele>
        <time>2024-05-17T11:42:52Z</time>
      </trkpt>
      <trkpt lat="44.64346" lon="5.21353">
        <ele>882</ele>
        <time>2024-05-17T11:42:53Z</time>
      </trkpt>
      <trkpt lat="44.64349" lon="5.2136">
        <ele>881.5</ele>
        <time>2024-05-17T11:42:54Z</time>
      </trkpt>
      <trkpt lat="44.64354" lon="5.21376">
        <ele>880.5</ele>
        <time>2024-05-17T11:42:55Z</time>
      </trkpt>
      <trkpt lat="44.64362" lon="5.21398">
        <ele>879.1</ele>
        <time>2024-05-17T11:42:56Z</time>
      </trkpt>
      <trkpt lat="44.64364" lon="5.21406">
        <ele>878.7</ele>
        <time>2024-05-17T11:42:57Z</time>
      </trkpt>
      <trkpt lat="44.64369" lon="5.21421">
        <ele>877.8</ele>
        <time>2024-05-17T11:42:58Z</time>
      </trkpt>
      <trkpt lat="44.64376" lon="5.21443">
        <ele>876.5</ele>
        <time>2024-05-17T11:42:59Z</time>
      </trkpt>
      <trkpt lat="44.64379" lon="5.21451">
        <ele>876</ele>
        <time>2024-05-17T11:43:00Z</time>
      </trkpt>
      <trkpt lat="44.6439" lon="5.2147">
        <ele>874.6</ele>
        <time>2024-05-17T11:43:01Z</time>
      </trkpt>
      <trkpt lat="44.64394" lon="5.21476">
        <ele>874.2</ele>
        <time>2024-05-17T11:43:02Z</time>
      </trkpt>
      <trkpt lat="44.64408" lon="5.21493">
        <ele>873</ele>
        <time>2024-05-17T11:43:03Z</time>
      </trkpt>
      <trkpt lat="44.64411" lon="5.21499">
        <ele>872.7</ele>
        <time>2024-05-17T11:43:04Z</time>
      </trkpt>
      <trkpt lat="44.64419" lon="5.21511">
        <ele>871.9</ele>
        <time>2024-05-17T11:43:05Z</time>
      </trkpt>
      <trkpt lat="44.64423" lon="5.21526">
        <ele>871</ele>
        <time>2024-05-17T11:43:06Z</time>
      </trkpt>
      <trkpt lat="44.64424" lon="5.21542">
        <ele>870.1</ele>
        <time>2024-05-17T11:43:07Z</time>
      </trkpt>
      <trkpt lat="44.64426" lon="5.21567">
        <ele>868.4</ele>
        <time>2024-05-17T11:43:08Z</time>
      </trkpt>
      <trkpt lat="44.64428" lon="5.21575">
        <ele>867.9</ele>
        <time>2024-05-17T11:43:09Z</time>
      </trkpt>
      <trkpt lat="44.64435" lon="5.21598">
        <ele>866.3</ele>
        <time>2024-05-17T11:43:10Z</time>
      </trkpt>
      <trkpt lat="44.64439" lon="5.21605">
        <ele>865.8</ele>
        <time>2024-05-17T11:43:11Z</time>
      </trkpt>
      <trkpt lat="44.64445" lon="5.21619">
        <ele>864.9</ele>
        <time>2024-05-17T11:43:12Z</time>
      </trkpt>
      <trkpt lat="44.64452" lon="5.21633">
        <ele>864.1</ele>
        <time>2024-05-17T11:43:13Z</time>
      </trkpt>
      <trkpt lat="44.64459" lon="5.21647">
        <ele>863.2</ele>
        <time>2024-05-17T11:43:14Z</time>
      </trkpt>
      <trkpt lat="44.64465" lon="5.21669">
        <ele>861.9</ele>
        <time>2024-05-17T11:43:15Z</time>
      </trkpt>
      <trkpt lat="44.64467" lon="5.21677">
        <ele>861.4</ele>
        <time>2024-05-17T11:43:16Z</time>
      </trkpt>
      <trkpt lat="44.6447" lon="5.21693">
        <ele>860.4</ele>
        <time>2024-05-17T11:43:17Z</time>
      </trkpt>
      <trkpt lat="44.64472" lon="5.21709">
        <ele>859.5</ele>
        <time>2024-05-17T11:43:18Z</time>
      </trkpt>
      <trkpt lat="44.64476" lon="5.21733">
        <ele>858.1</ele>
        <time>2024-05-17T11:43:19Z</time>
      </trkpt>
      <trkpt lat="44.64477" lon="5.21741">
        <ele>857.7</ele>
        <time>2024-05-17T11:43:20Z</time>
      </trkpt>
      <trkpt lat="44.64481" lon="5.21757">
        <ele>856.8</ele>
        <time>2024-05-17T11:43:21Z</time>
      </trkpt>
      <trkpt lat="44.64486" lon="5.2178">
        <ele>855.5</ele>
        <time>2024-05-17T11:43:22Z</time>
      </trkpt>
      <trkpt lat="44.64488" lon="5.21788">
        <ele>855</ele>
        <time>2024-05-17T11:43:23Z</time>
      </trkpt>
      <trkpt lat="44.64497" lon="5.21808">
        <ele>853.5</ele>
        <time>2024-05-17T11:43:24Z</time>
      </trkpt>
      <trkpt lat="44.64501" lon="5.21813">
        <ele>852.9</ele>
        <time>2024-05-17T11:43:25Z</time>
      </trkpt>
      <trkpt lat="44.64515" lon="5.21824">
        <ele>851.5</ele>
        <time>2024-05-17T11:43:26Z</time>
      </trkpt>
      <trkpt lat="44.6452" lon="5.21824">
        <ele>851</ele>
        <time>2024-05-17T11:43:27Z</time>
      </trkpt>
      <trkpt lat="44.64537" lon="5.21823">
        <ele>849.5</ele>
        <time>2024-05-17T11:43:28Z</time>
      </trkpt>
      <trkpt lat="44.64542" lon="5.2182">
        <ele>849</ele>
        <time>2024-05-17T11:43:29Z</time>
      </trkpt>
      <trkpt lat="44.64558" lon="5.2181">
        <ele>848</ele>
        <time>2024-05-17T11:43:30Z</time>
      </trkpt>
      <trkpt lat="44.64562" lon="5.21806">
        <ele>847.7</ele>
        <time>2024-05-17T11:43:31Z</time>
      </trkpt>
      <trkpt lat="44.64575" lon="5.2179">
        <ele>846.8</ele>
        <time>2024-05-17T11:43:32Z</time>
      </trkpt>
      <trkpt lat="44.64579" lon="5.21785">
        <ele>846.5</ele>
        <time>2024-05-17T11:43:33Z</time>
      </trkpt>
      <trkpt lat="44.6459" lon="5.21768">
        <ele>845.6</ele>
        <time>2024-05-17T11:43:34Z</time>
      </trkpt>
      <trkpt lat="44.64594" lon="5.21762">
        <ele>845.3</ele>
        <time>2024-05-17T11:43:35Z</time>
      </trkpt>
      <trkpt lat="44.64606" lon="5.21746">
        <ele>844.5</ele>
        <time>2024-05-17T11:43:36Z</time>
      </trkpt>
      <trkpt lat="44.6461" lon="5.21741">
        <ele>844.2</ele>
        <time>2024-05-17T11:43:37Z</time>
      </trkpt>
      <trkpt lat="44.64618" lon="5.2173">
        <ele>843.7</ele>
        <time>2024-05-17T11:43:38Z</time>
      </trkpt>
      <trkpt lat="44.6463" lon="5.21716">
        <ele>842.9</ele>
        <time>2024-05-17T11:43:39Z</time>
      </trkpt>
      <trkpt lat="44.64634" lon="5.21712">
        <ele>842.6</ele>
        <time>2024-05-17T11:43:40Z</time>
      </trkpt>
      <trkpt lat="44.64642" lon="5.21702">
        <ele>842</ele>
        <time>2024-05-17T11:43:41Z</time>
      </trkpt>
      <trkpt lat="44.64653" lon="5.21688">
        <ele>841.1</ele>
        <time>2024-05-17T11:43:42Z</time>
      </trkpt>
      <trkpt lat="44.64656" lon="5.21682">
        <ele>840.7</ele>
        <time>2024-05-17T11:43:43Z</time>
      </trkpt>
      <trkpt lat="44.64667" lon="5.21667">
        <ele>839.8</ele>
        <time>2024-05-17T11:43:44Z</time>
      </trkpt>
      <trkpt lat="44.64671" lon="5.21662">
        <ele>839.5</ele>
        <time>2024-05-17T11:43:45Z</time>
      </trkpt>
      <trkpt lat="44.64678" lon="5.21651">
        <ele>838.9</ele>
        <time>2024-05-17T11:43:46Z</time>
      </trkpt>
      <trkpt lat="44.64684" lon="5.2164">
        <ele>838.4</ele>
        <time>2024-05-17T11:43:47Z</time>
      </trkpt>
      <trkpt lat="44.64691" lon="5.21629">
        <ele>837.8</ele>
        <time>2024-05-17T11:43:48Z</time>
      </trkpt>
      <trkpt lat="44.647" lon="5.21613">
        <ele>837</ele>
        <time>2024-05-17T11:43:49Z</time>
      </trkpt>
      <trkpt lat="44.64703" lon="5.21607">
        <ele>836.7</ele>
        <time>2024-05-17T11:43:50Z</time>
      </trkpt>
      <trkpt lat="44.64712" lon="5.2159">
        <ele>836</ele>
        <time>2024-05-17T11:43:51Z</time>
      </trkpt>
      <trkpt lat="44.64715" lon="5.21584">
        <ele>835.7</ele>
        <time>2024-05-17T11:43:52Z</time>
      </trkpt>
      <trkpt lat="44.64724" lon="5.21567">
        <ele>835</ele>
        <time>2024-05-17T11:43:53Z</time>
      </trkpt>
      <trkpt lat="44.64727" lon="5.21562">
        <ele>834.8</ele>
        <time>2024-05-17T11:43:54Z</time>
      </trkpt>
      <trkpt lat="44.64733" lon="5.21551">
        <ele>834.3</ele>
        <time>2024-05-17T11:43:55Z</time>
      </trkpt>
      <trkpt lat="44.64743" lon="5.21535">
        <ele>833.6</ele>
        <time>2024-05-17T11:43:56Z</time>
      </trkpt>
      <trkpt lat="44.64747" lon="5.21531">
        <ele>833.4</ele>
        <time>2024-05-17T11:43:57Z</time>
      </trkpt>
      <trkpt lat="44.64755" lon="5.21523">
        <ele>832.9</ele>
        <time>2024-05-17T11:43:58Z</time>
      </trkpt>
      <trkpt lat="44.64768" lon="5.21513">
        <ele>832.1</ele>
        <time>2024-05-17T11:43:59Z</time>
      </trkpt>
      <trkpt lat="44.64772" lon="5.2151">
        <ele>831.8</ele>
        <time>2024-05-17T11:44:00Z</time>
      </trkpt>
      <trkpt lat="44.64782" lon="5.21504">
        <ele>831.2</ele>
        <time>2024-05-17T11:44:01Z</time>
      </trkpt>
      <trkpt lat="44.64796" lon="5.21496">
        <ele>830.2</ele>
        <time>2024-05-17T11:44:02Z</time>
      </trkpt>
      <trkpt lat="44.648" lon="5.21493">
        <ele>829.9</ele>
        <time>2024-05-17T11:44:03Z</time>
      </trkpt>
      <trkpt lat="44.64814" lon="5.21485">
        <ele>828.7</ele>
        <time>2024-05-17T11:44:04Z</time>
      </trkpt>
      <trkpt lat="44.64819" lon="5.21483">
        <ele>828.2</ele>
        <time>2024-05-17T11:44:05Z</time>
      </trkpt>
      <trkpt lat="44.64833" lon="5.21473">
        <ele>826.9</ele>
        <time>2024-05-17T11:44:06Z</time>
      </trkpt>
      <trkpt lat="44.64838" lon="5.21469">
        <ele>826.4</ele>
        <time>2024-05-17T11:44:07Z</time>
      </trkpt>
      <trkpt lat="44.64853" lon="5.21457">
        <ele>825.1</ele>
        <time>2024-05-17T11:44:08Z</time>
      </trkpt>
      <trkpt lat="44.64858" lon="5.21453">
        <ele>824.6</ele>
        <time>2024-05-17T11:44:09Z</time>
      </trkpt>
      <trkpt lat="44.64872" lon="5.2144">
        <ele>823.3</ele>
        <time>2024-05-17T11:44:10Z</time>
      </trkpt>
      <trkpt lat="44.64876" lon="5.21435">
        <ele>822.8</ele>
        <time>2024-05-17T11:44:11Z</time>
      </trkpt>
      <trkpt lat="44.64889" lon="5.21418">
        <ele>821.4</ele>
        <time>2024-05-17T11:44:12Z</time>
      </trkpt>
      <trkpt lat="44.64892" lon="5.21411">
        <ele>820.9</ele>
        <time>2024-05-17T11:44:13Z</time>
      </trkpt>
      <trkpt lat="44.64899" lon="5.21398">
        <ele>820</ele>
        <time>2024-05-17T11:44:14Z</time>
      </trkpt>
      <trkpt lat="44.6491" lon="5.21377">
        <ele>818.6</ele>
        <time>2024-05-17T11:44:15Z</time>
      </trkpt>
      <trkpt lat="44.64913" lon="5.2137">
        <ele>818.1</ele>
        <time>2024-05-17T11:44:16Z</time>
      </trkpt>
      <trkpt lat="44.64924" lon="5.21349">
        <ele>816.6</ele>
        <time>2024-05-17T11:44:17Z</time>
      </trkpt>
      <trkpt lat="44.64927" lon="5.21342">
        <ele>816.2</ele>
        <time>2024-05-17T11:44:18Z</time>
      </trkpt>
      <trkpt lat="44.64936" lon="5.21321">
        <ele>814.7</ele>
        <time>2024-05-17T11:44:19Z</time>
      </trkpt>
      <trkpt lat="44.64939" lon="5.21314">
        <ele>814.2</ele>
        <time>2024-05-17T11:44:20Z</time>
      </trkpt>
      <trkpt lat="44.64945" lon="5.213">
        <ele>813.2</ele>
        <time>2024-05-17T11:44:21Z</time>
      </trkpt>
      <trkpt lat="44.64955" lon="5.21279">
        <ele>811.6</ele>
        <time>2024-05-17T11:44:22Z</time>
      </trkpt>
      <trkpt lat="44.64958" lon="5.21272">
        <ele>811.1</ele>
        <time>2024-05-17T11:44:23Z</time>
      </trkpt>
      <trkpt lat="44.64965" lon="5.21258">
        <ele>810</ele>
        <time>2024-05-17T11:44:24Z</time>
      </trkpt>
      <trkpt lat="44.64977" lon="5.21239">
        <ele>808.4</ele>
        <time>2024-05-17T11:44:25Z</time>
      </trkpt>
      <trkpt lat="44.64982" lon="5.21233">
        <ele>807.9</ele>
        <time>2024-05-17T11:44:26Z</time>
      </trkpt>
      <trkpt lat="44.64995" lon="5.21215">
        <ele>806.3</ele>
        <time>2024-05-17T11:44:27Z</time>
      </trkpt>
      <trkpt lat="44.64998" lon="5.21208">
        <ele>805.8</ele>
        <time>2024-05-17T11:44:28Z</time>
      </trkpt>
      <trkpt lat="44.65005" lon="5.21194">
        <ele>804.9</ele>
        <time>2024-05-17T11:44:29Z</time>
      </trkpt>
      <trkpt lat="44.65008" lon="5.21178">
        <ele>804</ele>
        <time>2024-05-17T11:44:30Z</time>
      </trkpt>
      <trkpt lat="44.6501" lon="5.21156">
        <ele>802.8</ele>
        <time>2024-05-17T11:44:31Z</time>
      </trkpt>
      <trkpt lat="44.6501" lon="5.2115">
        <ele>802.5</ele>
        <time>2024-05-17T11:44:32Z</time>
      </trkpt>
      <trkpt lat="44.6501" lon="5.21137">
        <ele>801.9</ele>
        <time>2024-05-17T11:44:33Z</time>
      </trkpt>
      <trkpt lat="44.65015" lon="5.2113">
        <ele>801.3</ele>
        <time>2024-05-17T11:44:34Z</time>
      </trkpt>
      <trkpt lat="44.65017" lon="5.21129">
        <ele>801.1</ele>
        <time>2024-05-17T11:44:35Z</time>
      </trkpt>
      <trkpt lat="44.65022" lon="5.21139">
        <ele>800.3</ele>
        <time>2024-05-17T11:44:36Z</time>
      </trkpt>
      <trkpt lat="44.65023" lon="5.21143">
        <ele>799.9</ele>
        <time>2024-05-17T11:44:37Z</time>
      </trkpt>
      <trkpt lat="44.65027" lon="5.21158">
        <ele>798.8</ele>
        <time>2024-05-17T11:44:38Z</time>
      </trkpt>
      <trkpt lat="44.65028" lon="5.21164">
        <ele>798.4</ele>
        <time>2024-05-17T11:44:39Z</time>
      </trkpt>
      <trkpt lat="44.6503" lon="5.21176">
        <ele>797.5</ele>
        <time>2024-05-17T11:44:40Z</time>
      </trkpt>
      <trkpt lat="44.65032" lon="5.21189">
        <ele>796.6</ele>
        <time>2024-05-17T11:44:41Z</time>
      </trkpt>
      <trkpt lat="44.65034" lon="5.21203">
        <ele>795.7</ele>
        <time>2024-05-17T11:44:42Z</time>
      </trkpt>
      <trkpt lat="44.65036" lon="5.21216">
        <ele>794.9</ele>
        <time>2024-05-17T11:44:43Z</time>
      </trkpt>
      <trkpt lat="44.65039" lon="5.21239">
        <ele>793.3</ele>
        <time>2024-05-17T11:44:44Z</time>
      </trkpt>
      <trkpt lat="44.65041" lon="5.21246">
        <ele>792.8</ele>
        <time>2024-05-17T11:44:45Z</time>
      </trkpt>
      <trkpt lat="44.65044" lon="5.21262">
        <ele>791.6</ele>
        <time>2024-05-17T11:44:46Z</time>
      </trkpt>
      <trkpt lat="44.65047" lon="5.21277">
        <ele>790.4</ele>
        <time>2024-05-17T11:44:47Z</time>
      </trkpt>
      <trkpt lat="44.65053" lon="5.213">
        <ele>788.7</ele>
        <time>2024-05-17T11:44:48Z</time>
      </trkpt>
      <trkpt lat="44.65054" lon="5.21308">
        <ele>788.2</ele>
        <time>2024-05-17T11:44:49Z</time>
      </trkpt>
      <trkpt lat="44.65056" lon="5.2133">
        <ele>786.7</ele>
        <time>2024-05-17T11:44:50Z</time>
      </trkpt>
      <trkpt lat="44.65056" lon="5.21336">
        <ele>786.3</ele>
        <time>2024-05-17T11:44:51Z</time>
      </trkpt>
      <trkpt lat="44.65058" lon="5.21353">
        <ele>785.2</ele>
        <time>2024-05-17T11:44:52Z</time>
      </trkpt>
      <trkpt lat="44.6506" lon="5.21356">
        <ele>784.9</ele>
        <time>2024-05-17T11:44:53Z</time>
      </trkpt>
      <trkpt lat="44.65063" lon="5.21364">
        <ele>784.3</ele>
        <time>2024-05-17T11:44:54Z</time>
      </trkpt>
      <trkpt lat="44.6507" lon="5.21362">
        <ele>783.5</ele>
        <time>2024-05-17T11:44:55Z</time>
      </trkpt>
      <trkpt lat="44.6508" lon="5.21352">
        <ele>782.3</ele>
        <time>2024-05-17T11:44:56Z</time>
      </trkpt>
      <trkpt lat="44.65082" lon="5.21347">
        <ele>781.9</ele>
        <time>2024-05-17T11:44:57Z</time>
      </trkpt>
      <trkpt lat="44.65088" lon="5.21338">
        <ele>781</ele>
        <time>2024-05-17T11:44:58Z</time>
      </trkpt>
      <trkpt lat="44.65094" lon="5.21321">
        <ele>779.6</ele>
        <time>2024-05-17T11:44:59Z</time>
      </trkpt>
      <trkpt lat="44.65096" lon="5.21315">
        <ele>779.1</ele>
        <time>2024-05-17T11:45:00Z</time>
      </trkpt>
      <trkpt lat="44.65098" lon="5.21302">
        <ele>778.1</ele>
        <time>2024-05-17T11:45:01Z</time>
      </trkpt>
      <trkpt lat="44.65104" lon="5.21283">
        <ele>776.5</ele>
        <time>2024-05-17T11:45:02Z</time>
      </trkpt>
      <trkpt lat="44.65107" lon="5.21277">
        <ele>775.9</ele>
        <time>2024-05-17T11:45:03Z</time>
      </trkpt>
      <trkpt lat="44.65114" lon="5.21266">
        <ele>774.6</ele>
        <time>2024-05-17T11:45:04Z</time>
      </trkpt>
      <trkpt lat="44.65126" lon="5.2125">
        <ele>772.2</ele>
        <time>2024-05-17T11:45:05Z</time>
      </trkpt>
      <trkpt lat="44.6513" lon="5.21243">
        <ele>771.4</ele>
        <time>2024-05-17T11:45:06Z</time>
      </trkpt>
      <trkpt lat="44.65139" lon="5.21222">
        <ele>769.1</ele>
        <time>2024-05-17T11:45:07Z</time>
      </trkpt>
      <trkpt lat="44.6514" lon="5.21214">
        <ele>768.4</ele>
        <time>2024-05-17T11:45:08Z</time>
      </trkpt>
      <trkpt lat="44.65144" lon="5.21197">
        <ele>767.1</ele>
        <time>2024-05-17T11:45:09Z</time>
      </trkpt>
      <trkpt lat="44.65152" lon="5.21172">
        <ele>765.4</ele>
        <time>2024-05-17T11:45:10Z</time>
      </trkpt>
      <trkpt lat="44.65156" lon="5.21164">
        <ele>764.9</ele>
        <time>2024-05-17T11:45:11Z</time>
      </trkpt>
      <trkpt lat="44.65168" lon="5.21143">
        <ele>763.4</ele>
        <time>2024-05-17T11:45:12Z</time>
      </trkpt>
      <trkpt lat="44.65172" lon="5.21137">
        <ele>762.9</ele>
        <time>2024-05-17T11:45:13Z</time>
      </trkpt>
      <trkpt lat="44.65182" lon="5.21126">
        <ele>761.7</ele>
        <time>2024-05-17T11:45:14Z</time>
      </trkpt>
      <trkpt lat="44.65196" lon="5.21107">
        <ele>759.8</ele>
        <time>2024-05-17T11:45:15Z</time>
      </trkpt>
      <trkpt lat="44.65199" lon="5.21101">
        <ele>759.1</ele>
        <time>2024-05-17T11:45:16Z</time>
      </trkpt>
      <trkpt lat="44.65207" lon="5.21083">
        <ele>757.5</ele>
        <time>2024-05-17T11:45:17Z</time>
      </trkpt>
      <trkpt lat="44.65208" lon="5.21078">
        <ele>757.1</ele>
        <time>2024-05-17T11:45:18Z</time>
      </trkpt>
      <trkpt lat="44.65206" lon="5.21063">
        <ele>755.9</ele>
        <time>2024-05-17T11:45:19Z</time>
      </trkpt>
      <trkpt lat="44.65203" lon="5.21059">
        <ele>755.4</ele>
        <time>2024-05-17T11:45:20Z</time>
      </trkpt>
      <trkpt lat="44.65195" lon="5.21053">
        <ele>754.5</ele>
        <time>2024-05-17T11:45:21Z</time>
      </trkpt>
      <trkpt lat="44.65182" lon="5.21044">
        <ele>753.2</ele>
        <time>2024-05-17T11:45:22Z</time>
      </trkpt>
      <trkpt lat="44.65178" lon="5.21041">
        <ele>752.8</ele>
        <time>2024-05-17T11:45:23Z</time>
      </trkpt>
      <trkpt lat="44.65169" lon="5.21034">
        <ele>752</ele>
        <time>2024-05-17T11:45:24Z</time>
      </trkpt>
      <trkpt lat="44.65164" lon="5.21023">
        <ele>751.1</ele>
        <time>2024-05-17T11:45:25Z</time>
      </trkpt>
      <trkpt lat="44.65162" lon="5.21005">
        <ele>750.9</ele>
        <time>2024-05-17T11:45:26Z</time>
      </trkpt>
      <trkpt lat="44.65163" lon="5.20999">
        <ele>750.6</ele>
        <time>2024-05-17T11:45:27Z</time>
      </trkpt>
      <trkpt lat="44.65168" lon="5.20989">
        <ele>750.2</ele>
        <time>2024-05-17T11:45:28Z</time>
      </trkpt>
      <trkpt lat="44.65174" lon="5.2098">
        <ele>749.8</ele>
        <time>2024-05-17T11:45:29Z</time>
      </trkpt>
      <trkpt lat="44.65181" lon="5.20971">
        <ele>749.4</ele>
        <time>2024-05-17T11:45:30Z</time>
      </trkpt>
      <trkpt lat="44.6519" lon="5.20956">
        <ele>748.9</ele>
        <time>2024-05-17T11:45:31Z</time>
      </trkpt>
      <trkpt lat="44.65194" lon="5.20952">
        <ele>748.7</ele>
        <time>2024-05-17T11:45:32Z</time>
      </trkpt>
      <trkpt lat="44.65205" lon="5.20941">
        <ele>748.1</ele>
        <time>2024-05-17T11:45:33Z</time>
      </trkpt>
      <trkpt lat="44.6521" lon="5.20939">
        <ele>747.9</ele>
        <time>2024-05-17T11:45:34Z</time>
      </trkpt>
      <trkpt lat="44.65223" lon="5.20934">
        <ele>747.2</ele>
        <time>2024-05-17T11:45:35Z</time>
      </trkpt>
      <trkpt lat="44.65228" lon="5.20933">
        <ele>746.9</ele>
        <time>2024-05-17T11:45:36Z</time>
      </trkpt>
      <trkpt lat="44.65241" lon="5.20929">
        <ele>746.1</ele>
        <time>2024-05-17T11:45:37Z</time>
      </trkpt>
      <trkpt lat="44.65245" lon="5.20927">
        <ele>745.8</ele>
        <time>2024-05-17T11:45:38Z</time>
      </trkpt>
      <trkpt lat="44.65258" lon="5.20918">
        <ele>744.9</ele>
        <time>2024-05-17T11:45:39Z</time>
      </trkpt>
      <trkpt lat="44.65261" lon="5.20914">
        <ele>744.6</ele>
        <time>2024-05-17T11:45:40Z</time>
      </trkpt>
      <trkpt lat="44.65274" lon="5.20904">
        <ele>743.6</ele>
        <time>2024-05-17T11:45:41Z</time>
      </trkpt>
      <trkpt lat="44.65279" lon="5.20902">
        <ele>743.3</ele>
        <time>2024-05-17T11:45:42Z</time>
      </trkpt>
      <trkpt lat="44.65294" lon="5.20898">
        <ele>742.4</ele>
        <time>2024-05-17T11:45:43Z</time>
      </trkpt>
      <trkpt lat="44.65299" lon="5.20899">
        <ele>742.1</ele>
        <time>2024-05-17T11:45:44Z</time>
      </trkpt>
      <trkpt lat="44.65308" lon="5.20901">
        <ele>741.4</ele>
        <time>2024-05-17T11:45:45Z</time>
      </trkpt>
      <trkpt lat="44.65318" lon="5.209">
        <ele>740.8</ele>
        <time>2024-05-17T11:45:46Z</time>
      </trkpt>
      <trkpt lat="44.65327" lon="5.20898">
        <ele>740.1</ele>
        <time>2024-05-17T11:45:47Z</time>
      </trkpt>
      <trkpt lat="44.65337" lon="5.20892">
        <ele>739.4</ele>
        <time>2024-05-17T11:45:48Z</time>
      </trkpt>
      <trkpt lat="44.65346" lon="5.20885">
        <ele>738.8</ele>
        <time>2024-05-17T11:45:49Z</time>
      </trkpt>
      <trkpt lat="44.65355" lon="5.20877">
        <ele>738.2</ele>
        <time>2024-05-17T11:45:50Z</time>
      </trkpt>
      <trkpt lat="44.65363" lon="5.2086">
        <ele>737.3</ele>
        <time>2024-05-17T11:45:51Z</time>
      </trkpt>
      <trkpt lat="44.65366" lon="5.20853">
        <ele>737</ele>
        <time>2024-05-17T11:45:52Z</time>
      </trkpt>
      <trkpt lat="44.65372" lon="5.20835">
        <ele>736.1</ele>
        <time>2024-05-17T11:45:53Z</time>
      </trkpt>
      <trkpt lat="44.65373" lon="5.20828">
        <ele>735.9</ele>
        <time>2024-05-17T11:45:54Z</time>
      </trkpt>
      <trkpt lat="44.65376" lon="5.20815">
        <ele>735.3</ele>
        <time>2024-05-17T11:45:55Z</time>
      </trkpt>
      <trkpt lat="44.6538" lon="5.20796">
        <ele>734.5</ele>
        <time>2024-05-17T11:45:56Z</time>
      </trkpt>
      <trkpt lat="44.65382" lon="5.2079">
        <ele>734.2</ele>
        <time>2024-05-17T11:45:57Z</time>
      </trkpt>
      <trkpt lat="44.65387" lon="5.2077">
        <ele>733.4</ele>
        <time>2024-05-17T11:45:58Z</time>
      </trkpt>
      <trkpt lat="44.65389" lon="5.20764">
        <ele>733.1</ele>
        <time>2024-05-17T11:45:59Z</time>
      </trkpt>
      <trkpt lat="44.65392" lon="5.20751">
        <ele>732.6</ele>
        <time>2024-05-17T11:46:00Z</time>
      </trkpt>
      <trkpt lat="44.65398" lon="5.20732">
        <ele>731.7</ele>
        <time>2024-05-17T11:46:01Z</time>
      </trkpt>
      <trkpt lat="44.65401" lon="5.20725">
        <ele>731.4</ele>
        <time>2024-05-17T11:46:02Z</time>
      </trkpt>
      <trkpt lat="44.65406" lon="5.20713">
        <ele>730.7</ele>
        <time>2024-05-17T11:46:03Z</time>
      </trkpt>
      <trkpt lat="44.65411" lon="5.207">
        <ele>730.1</ele>
        <time>2024-05-17T11:46:04Z</time>
      </trkpt>
      <trkpt lat="44.65421" lon="5.20683">
        <ele>729.2</ele>
        <time>2024-05-17T11:46:05Z</time>
      </trkpt>
      <trkpt lat="44.65425" lon="5.20677">
        <ele>728.9</ele>
        <time>2024-05-17T11:46:06Z</time>
      </trkpt>
      <trkpt lat="44.65439" lon="5.20663">
        <ele>727.8</ele>
        <time>2024-05-17T11:46:07Z</time>
      </trkpt>
      <trkpt lat="44.65443" lon="5.20659">
        <ele>727.4</ele>
        <time>2024-05-17T11:46:08Z</time>
      </trkpt>
      <trkpt lat="44.65452" lon="5.20651">
        <ele>726.6</ele>
        <time>2024-05-17T11:46:09Z</time>
      </trkpt>
      <trkpt lat="44.6546" lon="5.20642">
        <ele>725.9</ele>
        <time>2024-05-17T11:46:10Z</time>
      </trkpt>
      <trkpt lat="44.65468" lon="5.20633">
        <ele>725.2</ele>
        <time>2024-05-17T11:46:11Z</time>
      </trkpt>
      <trkpt lat="44.65478" lon="5.20616">
        <ele>724.3</ele>
        <time>2024-05-17T11:46:12Z</time>
      </trkpt>
      <trkpt lat="44.6548" lon="5.20609">
        <ele>724</ele>
        <time>2024-05-17T11:46:13Z</time>
      </trkpt>
      <trkpt lat="44.65488" lon="5.20591">
        <ele>723</ele>
        <time>2024-05-17T11:46:14Z</time>
      </trkpt>
      <trkpt lat="44.6549" lon="5.20584">
        <ele>722.7</ele>
        <time>2024-05-17T11:46:15Z</time>
      </trkpt>
      <trkpt lat="44.65498" lon="5.20565">
        <ele>721.9</ele>
        <time>2024-05-17T11:46:16Z</time>
      </trkpt>
      <trkpt lat="44.655" lon="5.20559">
        <ele>721.6</ele>
        <time>2024-05-17T11:46:17Z</time>
      </trkpt>
      <trkpt lat="44.65508" lon="5.2054">
        <ele>721</ele>
        <time>2024-05-17T11:46:18Z</time>
      </trkpt>
      <trkpt lat="44.65511" lon="5.20534">
        <ele>720.8</ele>
        <time>2024-05-17T11:46:19Z</time>
      </trkpt>
      <trkpt lat="44.65521" lon="5.20517">
        <ele>720</ele>
        <time>2024-05-17T11:46:20Z</time>
      </trkpt>
      <trkpt lat="44.65525" lon="5.20513">
        <ele>719.8</ele>
        <time>2024-05-17T11:46:21Z</time>
      </trkpt>
      <trkpt lat="44.65533" lon="5.20504">
        <ele>719.1</ele>
        <time>2024-05-17T11:46:22Z</time>
      </trkpt>
      <trkpt lat="44.65546" lon="5.20492">
        <ele>718.1</ele>
        <time>2024-05-17T11:46:23Z</time>
      </trkpt>
      <trkpt lat="44.6555" lon="5.20488">
        <ele>717.8</ele>
        <time>2024-05-17T11:46:24Z</time>
      </trkpt>
      <trkpt lat="44.65563" lon="5.20476">
        <ele>716.9</ele>
        <time>2024-05-17T11:46:25Z</time>
      </trkpt>
      <trkpt lat="44.65567" lon="5.20471">
        <ele>716.6</ele>
        <time>2024-05-17T11:46:26Z</time>
      </trkpt>
      <trkpt lat="44.6558" lon="5.20458">
        <ele>715.8</ele>
        <time>2024-05-17T11:46:27Z</time>
      </trkpt>
      <trkpt lat="44.65584" lon="5.20454">
        <ele>715.5</ele>
        <time>2024-05-17T11:46:28Z</time>
      </trkpt>
      <trkpt lat="44.65593" lon="5.20446">
        <ele>715</ele>
        <time>2024-05-17T11:46:29Z</time>
      </trkpt>
      <trkpt lat="44.65607" lon="5.20436">
        <ele>714.2</ele>
        <time>2024-05-17T11:46:30Z</time>
      </trkpt>
      <trkpt lat="44.65611" lon="5.20433">
        <ele>713.9</ele>
        <time>2024-05-17T11:46:31Z</time>
      </trkpt>
      <trkpt lat="44.65621" lon="5.20427">
        <ele>713.2</ele>
        <time>2024-05-17T11:46:32Z</time>
      </trkpt>
      <trkpt lat="44.65636" lon="5.20418">
        <ele>712.2</ele>
        <time>2024-05-17T11:46:33Z</time>
      </trkpt>
      <trkpt lat="44.65641" lon="5.20415">
        <ele>711.8</ele>
        <time>2024-05-17T11:46:34Z</time>
      </trkpt>
      <trkpt lat="44.65656" lon="5.20406">
        <ele>710.9</ele>
        <time>2024-05-17T11:46:35Z</time>
      </trkpt>
      <trkpt lat="44.6566" lon="5.20403">
        <ele>710.7</ele>
        <time>2024-05-17T11:46:36Z</time>
      </trkpt>
      <trkpt lat="44.6567" lon="5.20398">
        <ele>710.1</ele>
        <time>2024-05-17T11:46:37Z</time>
      </trkpt>
      <trkpt lat="44.65679" lon="5.20391">
        <ele>709.5</ele>
        <time>2024-05-17T11:46:38Z</time>
      </trkpt>
      <trkpt lat="44.65689" lon="5.20385">
        <ele>708.9</ele>
        <time>2024-05-17T11:46:39Z</time>
      </trkpt>
      <trkpt lat="44.65703" lon="5.20377">
        <ele>708</ele>
        <time>2024-05-17T11:46:40Z</time>
      </trkpt>
      <trkpt lat="44.65708" lon="5.20375">
        <ele>707.7</ele>
        <time>2024-05-17T11:46:41Z</time>
      </trkpt>
      <trkpt lat="44.65723" lon="5.20368">
        <ele>706.8</ele>
        <time>2024-05-17T11:46:42Z</time>
      </trkpt>
      <trkpt lat="44.65728" lon="5.20365">
        <ele>706.5</ele>
        <time>2024-05-17T11:46:43Z</time>
      </trkpt>
      <trkpt lat="44.65741" lon="5.20355">
        <ele>705.6</ele>
        <time>2024-05-17T11:46:44Z</time>
      </trkpt>
      <trkpt lat="44.65745" lon="5.2035">
        <ele>705.4</ele>
        <time>2024-05-17T11:46:45Z</time>
      </trkpt>
      <trkpt lat="44.65754" lon="5.20333">
        <ele>704.8</ele>
        <time>2024-05-17T11:46:46Z</time>
      </trkpt>
      <trkpt lat="44.65756" lon="5.20327">
        <ele>704.7</ele>
        <time>2024-05-17T11:46:47Z</time>
      </trkpt>
      <trkpt lat="44.65759" lon="5.20313">
        <ele>704.4</ele>
        <time>2024-05-17T11:46:48Z</time>
      </trkpt>
      <trkpt lat="44.65762" lon="5.203">
        <ele>704.2</ele>
        <time>2024-05-17T11:46:49Z</time>
      </trkpt>
      <trkpt lat="44.65766" lon="5.20289">
        <ele>704.1</ele>
        <time>2024-05-17T11:46:50Z</time>
      </trkpt>
      <trkpt lat="44.65771" lon="5.2028">
        <ele>704</ele>
        <time>2024-05-17T11:46:51Z</time>
      </trkpt>
      <trkpt lat="44.65776" lon="5.20271">
        <ele>703.9</ele>
        <time>2024-05-17T11:46:52Z</time>
      </trkpt>
      <trkpt lat="44.65784" lon="5.20265">
        <ele>703.7</ele>
        <time>2024-05-17T11:46:53Z</time>
      </trkpt>
      <trkpt lat="44.65791" lon="5.20261">
        <ele>703.1</ele>
        <time>2024-05-17T11:46:54Z</time>
      </trkpt>
      <trkpt lat="44.658" lon="5.2026">
        <ele>702.6</ele>
        <time>2024-05-17T11:46:55Z</time>
      </trkpt>
      <trkpt lat="44.65812" lon="5.20258">
        <ele>701.7</ele>
        <time>2024-05-17T11:46:56Z</time>
      </trkpt>
      <trkpt lat="44.65817" lon="5.20256">
        <ele>701.3</ele>
        <time>2024-05-17T11:46:57Z</time>
      </trkpt>
      <trkpt lat="44.65829" lon="5.20249">
        <ele>700.4</ele>
        <time>2024-05-17T11:46:58Z</time>
      </trkpt>
      <trkpt lat="44.65833" lon="5.20245">
        <ele>700</ele>
        <time>2024-05-17T11:46:59Z</time>
      </trkpt>
      <trkpt lat="44.65846" lon="5.20236">
        <ele>699</ele>
        <time>2024-05-17T11:47:00Z</time>
      </trkpt>
      <trkpt lat="44.6585" lon="5.20232">
        <ele>698.7</ele>
        <time>2024-05-17T11:47:01Z</time>
      </trkpt>
      <trkpt lat="44.65864" lon="5.20223">
        <ele>697.7</ele>
        <time>2024-05-17T11:47:02Z</time>
      </trkpt>
      <trkpt lat="44.65869" lon="5.20219">
        <ele>697.4</ele>
        <time>2024-05-17T11:47:03Z</time>
      </trkpt>
      <trkpt lat="44.65883" lon="5.2021">
        <ele>696.5</ele>
        <time>2024-05-17T11:47:04Z</time>
      </trkpt>
      <trkpt lat="44.65887" lon="5.20207">
        <ele>696.3</ele>
        <time>2024-05-17T11:47:05Z</time>
      </trkpt>
      <trkpt lat="44.65901" lon="5.20197">
        <ele>695.5</ele>
        <time>2024-05-17T11:47:06Z</time>
      </trkpt>
      <trkpt lat="44.65905" lon="5.20193">
        <ele>695.3</ele>
        <time>2024-05-17T11:47:07Z</time>
      </trkpt>
      <trkpt lat="44.65917" lon="5.2018">
        <ele>694.6</ele>
        <time>2024-05-17T11:47:08Z</time>
      </trkpt>
      <trkpt lat="44.65921" lon="5.20175">
        <ele>694.3</ele>
        <time>2024-05-17T11:47:09Z</time>
      </trkpt>
      <trkpt lat="44.65932" lon="5.20161">
        <ele>693.6</ele>
        <time>2024-05-17T11:47:10Z</time>
      </trkpt>
      <trkpt lat="44.65936" lon="5.20156">
        <ele>693.3</ele>
        <time>2024-05-17T11:47:11Z</time>
      </trkpt>
      <trkpt lat="44.65942" lon="5.20146">
        <ele>692.9</ele>
        <time>2024-05-17T11:47:12Z</time>
      </trkpt>
      <trkpt lat="44.65953" lon="5.20132">
        <ele>692.2</ele>
        <time>2024-05-17T11:47:13Z</time>
      </trkpt>
      <trkpt lat="44.65957" lon="5.20128">
        <ele>691.9</ele>
        <time>2024-05-17T11:47:14Z</time>
      </trkpt>
      <trkpt lat="44.65964" lon="5.2012">
        <ele>691.4</ele>
        <time>2024-05-17T11:47:15Z</time>
      </trkpt>
      <trkpt lat="44.65972" lon="5.20113">
        <ele>690.9</ele>
        <time>2024-05-17T11:47:16Z</time>
      </trkpt>
      <trkpt lat="44.65979" lon="5.20105">
        <ele>690.4</ele>
        <time>2024-05-17T11:47:17Z</time>
      </trkpt>
      <trkpt lat="44.65989" lon="5.20094">
        <ele>689.7</ele>
        <time>2024-05-17T11:47:18Z</time>
      </trkpt>
      <trkpt lat="44.65992" lon="5.2009">
        <ele>689.4</ele>
        <time>2024-05-17T11:47:19Z</time>
      </trkpt>
      <trkpt lat="44.66" lon="5.20081">
        <ele>688.9</ele>
        <time>2024-05-17T11:47:20Z</time>
      </trkpt>
      <trkpt lat="44.66011" lon="5.2007">
        <ele>688.1</ele>
        <time>2024-05-17T11:47:21Z</time>
      </trkpt>
      <trkpt lat="44.66016" lon="5.20065">
        <ele>687.8</ele>
        <time>2024-05-17T11:47:22Z</time>
      </trkpt>
      <trkpt lat="44.66028" lon="5.2005">
        <ele>687</ele>
        <time>2024-05-17T11:47:23Z</time>
      </trkpt>
      <trkpt lat="44.66032" lon="5.20045">
        <ele>686.7</ele>
        <time>2024-05-17T11:47:24Z</time>
      </trkpt>
      <trkpt lat="44.66041" lon="5.20028">
        <ele>685.8</ele>
        <time>2024-05-17T11:47:25Z</time>
      </trkpt>
      <trkpt lat="44.66044" lon="5.20022">
        <ele>685.6</ele>
        <time>2024-05-17T11:47:26Z</time>
      </trkpt>
      <trkpt lat="44.6605" lon="5.20004">
        <ele>684.8</ele>
        <time>2024-05-17T11:47:27Z</time>
      </trkpt>
      <trkpt lat="44.66052" lon="5.19998">
        <ele>684.5</ele>
        <time>2024-05-17T11:47:28Z</time>
      </trkpt>
      <trkpt lat="44.66055" lon="5.19985">
        <ele>683.9</ele>
        <time>2024-05-17T11:47:29Z</time>
      </trkpt>
      <trkpt lat="44.66063" lon="5.19967">
        <ele>682.9</ele>
        <time>2024-05-17T11:47:30Z</time>
      </trkpt>
      <trkpt lat="44.66066" lon="5.19962">
        <ele>682.6</ele>
        <time>2024-05-17T11:47:31Z</time>
      </trkpt>
      <trkpt lat="44.66072" lon="5.19944">
        <ele>681.6</ele>
        <time>2024-05-17T11:47:32Z</time>
      </trkpt>
      <trkpt lat="44.66074" lon="5.19938">
        <ele>681.2</ele>
        <time>2024-05-17T11:47:33Z</time>
      </trkpt>
      <trkpt lat="44.66076" lon="5.19925">
        <ele>680.6</ele>
        <time>2024-05-17T11:47:34Z</time>
      </trkpt>
      <trkpt lat="44.66074" lon="5.19911">
        <ele>680</ele>
        <time>2024-05-17T11:47:35Z</time>
      </trkpt>
      <trkpt lat="44.66071" lon="5.19899">
        <ele>679.4</ele>
        <time>2024-05-17T11:47:36Z</time>
      </trkpt>
      <trkpt lat="44.66069" lon="5.19886">
        <ele>678.8</ele>
        <time>2024-05-17T11:47:37Z</time>
      </trkpt>
      <trkpt lat="44.66065" lon="5.19867">
        <ele>678</ele>
        <time>2024-05-17T11:47:38Z</time>
      </trkpt>
      <trkpt lat="44.66064" lon="5.19861">
        <ele>677.7</ele>
        <time>2024-05-17T11:47:39Z</time>
      </trkpt>
      <trkpt lat="44.6606" lon="5.19843">
        <ele>676.9</ele>
        <time>2024-05-17T11:47:40Z</time>
      </trkpt>
      <trkpt lat="44.66059" lon="5.19837">
        <ele>676.7</ele>
        <time>2024-05-17T11:47:41Z</time>
      </trkpt>
      <trkpt lat="44.66056" lon="5.19819">
        <ele>675.8</ele>
        <time>2024-05-17T11:47:42Z</time>
      </trkpt>
      <trkpt lat="44.66054" lon="5.19813">
        <ele>675.5</ele>
        <time>2024-05-17T11:47:43Z</time>
      </trkpt>
      <trkpt lat="44.6605" lon="5.19794">
        <ele>674.5</ele>
        <time>2024-05-17T11:47:44Z</time>
      </trkpt>
      <trkpt lat="44.66049" lon="5.19787">
        <ele>674.1</ele>
        <time>2024-05-17T11:47:45Z</time>
      </trkpt>
      <trkpt lat="44.66045" lon="5.19767">
        <ele>673.1</ele>
        <time>2024-05-17T11:47:46Z</time>
      </trkpt>
      <trkpt lat="44.66044" lon="5.19761">
        <ele>672.8</ele>
        <time>2024-05-17T11:47:47Z</time>
      </trkpt>
      <trkpt lat="44.66041" lon="5.19747">
        <ele>672.3</ele>
        <time>2024-05-17T11:47:48Z</time>
      </trkpt>
      <trkpt lat="44.66035" lon="5.19728">
        <ele>671.7</ele>
        <time>2024-05-17T11:47:49Z</time>
      </trkpt>
      <trkpt lat="44.66033" lon="5.19722">
        <ele>671.5</ele>
        <time>2024-05-17T11:47:50Z</time>
      </trkpt>
      <trkpt lat="44.66026" lon="5.19704">
        <ele>670.9</ele>
        <time>2024-05-17T11:47:51Z</time>
      </trkpt>
      <trkpt lat="44.66023" lon="5.19698">
        <ele>670.8</ele>
        <time>2024-05-17T11:47:52Z</time>
      </trkpt>
      <trkpt lat="44.66019" lon="5.19687">
        <ele>670.5</ele>
        <time>2024-05-17T11:47:53Z</time>
      </trkpt>
      <trkpt lat="44.66013" lon="5.19669">
        <ele>669.8</ele>
        <time>2024-05-17T11:47:54Z</time>
      </trkpt>
      <trkpt lat="44.66011" lon="5.19663">
        <ele>669.5</ele>
        <time>2024-05-17T11:47:55Z</time>
      </trkpt>
      <trkpt lat="44.66008" lon="5.19651">
        <ele>669</ele>
        <time>2024-05-17T11:47:56Z</time>
      </trkpt>
      <trkpt lat="44.66004" lon="5.19633">
        <ele>668.1</ele>
        <time>2024-05-17T11:47:57Z</time>
      </trkpt>
      <trkpt lat="44.66003" lon="5.19626">
        <ele>667.8</ele>
        <time>2024-05-17T11:47:58Z</time>
      </trkpt>
      <trkpt lat="44.66" lon="5.19614">
        <ele>667.2</ele>
        <time>2024-05-17T11:47:59Z</time>
      </trkpt>
      <trkpt lat="44.65996" lon="5.19602">
        <ele>666.7</ele>
        <time>2024-05-17T11:48:00Z</time>
      </trkpt>
      <trkpt lat="44.65989" lon="5.19583">
        <ele>665.9</ele>
        <time>2024-05-17T11:48:01Z</time>
      </trkpt>
      <trkpt lat="44.65987" lon="5.19577">
        <ele>665.7</ele>
        <time>2024-05-17T11:48:02Z</time>
      </trkpt>
      <trkpt lat="44.65983" lon="5.19565">
        <ele>665.2</ele>
        <time>2024-05-17T11:48:03Z</time>
      </trkpt>
      <trkpt lat="44.65978" lon="5.19553">
        <ele>664.8</ele>
        <time>2024-05-17T11:48:04Z</time>
      </trkpt>
      <trkpt lat="44.65975" lon="5.1954">
        <ele>664.3</ele>
        <time>2024-05-17T11:48:05Z</time>
      </trkpt>
      <trkpt lat="44.65973" lon="5.19526">
        <ele>663.8</ele>
        <time>2024-05-17T11:48:06Z</time>
      </trkpt>
      <trkpt lat="44.65967" lon="5.19508">
        <ele>663</ele>
        <time>2024-05-17T11:48:07Z</time>
      </trkpt>
      <trkpt lat="44.65964" lon="5.19502">
        <ele>662.7</ele>
        <time>2024-05-17T11:48:08Z</time>
      </trkpt>
      <trkpt lat="44.65956" lon="5.19485">
        <ele>661.8</ele>
        <time>2024-05-17T11:48:09Z</time>
      </trkpt>
      <trkpt lat="44.65953" lon="5.19479">
        <ele>661.4</ele>
        <time>2024-05-17T11:48:10Z</time>
      </trkpt>
      <trkpt lat="44.65948" lon="5.19468">
        <ele>660.7</ele>
        <time>2024-05-17T11:48:11Z</time>
      </trkpt>
      <trkpt lat="44.65947" lon="5.19454">
        <ele>659.9</ele>
        <time>2024-05-17T11:48:12Z</time>
      </trkpt>
      <trkpt lat="44.65953" lon="5.19434">
        <ele>658.8</ele>
        <time>2024-05-17T11:48:13Z</time>
      </trkpt>
      <trkpt lat="44.65956" lon="5.19428">
        <ele>658.4</ele>
        <time>2024-05-17T11:48:14Z</time>
      </trkpt>
      <trkpt lat="44.65962" lon="5.19417">
        <ele>657.6</ele>
        <time>2024-05-17T11:48:15Z</time>
      </trkpt>
      <trkpt lat="44.65966" lon="5.19396">
        <ele>656.6</ele>
        <time>2024-05-17T11:48:16Z</time>
      </trkpt>
      <trkpt lat="44.65967" lon="5.19389">
        <ele>656.3</ele>
        <time>2024-05-17T11:48:17Z</time>
      </trkpt>
      <trkpt lat="44.65969" lon="5.19368">
        <ele>655.4</ele>
        <time>2024-05-17T11:48:18Z</time>
      </trkpt>
      <trkpt lat="44.6597" lon="5.19361">
        <ele>655.2</ele>
        <time>2024-05-17T11:48:19Z</time>
      </trkpt>
      <trkpt lat="44.65973" lon="5.19349">
        <ele>654.7</ele>
        <time>2024-05-17T11:48:20Z</time>
      </trkpt>
      <trkpt lat="44.65978" lon="5.19338">
        <ele>654.3</ele>
        <time>2024-05-17T11:48:21Z</time>
      </trkpt>
      <trkpt lat="44.65986" lon="5.19329">
        <ele>653.8</ele>
        <time>2024-05-17T11:48:22Z</time>
      </trkpt>
      <trkpt lat="44.65997" lon="5.19317">
        <ele>653.1</ele>
        <time>2024-05-17T11:48:23Z</time>
      </trkpt>
      <trkpt lat="44.66001" lon="5.19313">
        <ele>652.9</ele>
        <time>2024-05-17T11:48:24Z</time>
      </trkpt>
      <trkpt lat="44.66012" lon="5.19302">
        <ele>652.1</ele>
        <time>2024-05-17T11:48:25Z</time>
      </trkpt>
      <trkpt lat="44.66016" lon="5.19298">
        <ele>651.8</ele>
        <time>2024-05-17T11:48:26Z</time>
      </trkpt>
      <trkpt lat="44.66027" lon="5.19284">
        <ele>651</ele>
        <time>2024-05-17T11:48:27Z</time>
      </trkpt>
      <trkpt lat="44.66031" lon="5.1928">
        <ele>650.7</ele>
        <time>2024-05-17T11:48:28Z</time>
      </trkpt>
      <trkpt lat="44.66042" lon="5.19266">
        <ele>650.2</ele>
        <time>2024-05-17T11:48:29Z</time>
      </trkpt>
      <trkpt lat="44.66045" lon="5.19261">
        <ele>650</ele>
        <time>2024-05-17T11:48:30Z</time>
      </trkpt>
      <trkpt lat="44.66052" lon="5.19252">
        <ele>649.7</ele>
        <time>2024-05-17T11:48:31Z</time>
      </trkpt>
      <trkpt lat="44.66066" lon="5.19243">
        <ele>649.2</ele>
        <time>2024-05-17T11:48:32Z</time>
      </trkpt>
      <trkpt lat="44.6607" lon="5.1924">
        <ele>649.1</ele>
        <time>2024-05-17T11:48:33Z</time>
      </trkpt>
      <trkpt lat="44.66079" lon="5.19237">
        <ele>648.9</ele>
        <time>2024-05-17T11:48:34Z</time>
      </trkpt>
      <trkpt lat="44.66093" lon="5.19234">
        <ele>648.6</ele>
        <time>2024-05-17T11:48:35Z</time>
      </trkpt>
      <trkpt lat="44.66097" lon="5.19232">
        <ele>648.5</ele>
        <time>2024-05-17T11:48:36Z</time>
      </trkpt>
      <trkpt lat="44.66105" lon="5.19229">
        <ele>648.3</ele>
        <time>2024-05-17T11:48:37Z</time>
      </trkpt>
      <trkpt lat="44.66117" lon="5.1922">
        <ele>647.9</ele>
        <time>2024-05-17T11:48:38Z</time>
      </trkpt>
      <trkpt lat="44.66121" lon="5.19217">
        <ele>647.8</ele>
        <time>2024-05-17T11:48:39Z</time>
      </trkpt>
      <trkpt lat="44.66128" lon="5.1921">
        <ele>647.5</ele>
        <time>2024-05-17T11:48:40Z</time>
      </trkpt>
      <trkpt lat="44.66138" lon="5.19199">
        <ele>647</ele>
        <time>2024-05-17T11:48:41Z</time>
      </trkpt>
      <trkpt lat="44.66142" lon="5.19195">
        <ele>646.9</ele>
        <time>2024-05-17T11:48:42Z</time>
      </trkpt>
      <trkpt lat="44.66152" lon="5.19183">
        <ele>646.4</ele>
        <time>2024-05-17T11:48:43Z</time>
      </trkpt>
      <trkpt lat="44.66155" lon="5.19179">
        <ele>646.2</ele>
        <time>2024-05-17T11:48:44Z</time>
      </trkpt>
      <trkpt lat="44.66164" lon="5.19166">
        <ele>645.7</ele>
        <time>2024-05-17T11:48:45Z</time>
      </trkpt>
      <trkpt lat="44.66167" lon="5.19161">
        <ele>645.5</ele>
        <time>2024-05-17T11:48:46Z</time>
      </trkpt>
      <trkpt lat="44.66173" lon="5.19152">
        <ele>645.1</ele>
        <time>2024-05-17T11:48:47Z</time>
      </trkpt>
      <trkpt lat="44.6618" lon="5.19144">
        <ele>644.7</ele>
        <time>2024-05-17T11:48:48Z</time>
      </trkpt>
      <trkpt lat="44.66187" lon="5.19137">
        <ele>644.3</ele>
        <time>2024-05-17T11:48:49Z</time>
      </trkpt>
      <trkpt lat="44.66194" lon="5.1913">
        <ele>644</ele>
        <time>2024-05-17T11:48:50Z</time>
      </trkpt>
      <trkpt lat="44.66202" lon="5.19125">
        <ele>643.6</ele>
        <time>2024-05-17T11:48:51Z</time>
      </trkpt>
      <trkpt lat="44.66214" lon="5.19119">
        <ele>643.2</ele>
        <time>2024-05-17T11:48:52Z</time>
      </trkpt>
      <trkpt lat="44.66218" lon="5.19117">
        <ele>643.1</ele>
        <time>2024-05-17T11:48:53Z</time>
      </trkpt>
      <trkpt lat="44.6623" lon="5.1911">
        <ele>642.7</ele>
        <time>2024-05-17T11:48:54Z</time>
      </trkpt>
      <trkpt lat="44.66234" lon="5.19108">
        <ele>642.6</ele>
        <time>2024-05-17T11:48:55Z</time>
      </trkpt>
      <trkpt lat="44.66242" lon="5.19105">
        <ele>642.4</ele>
        <time>2024-05-17T11:48:56Z</time>
      </trkpt>
      <trkpt lat="44.6625" lon="5.19101">
        <ele>642.2</ele>
        <time>2024-05-17T11:48:57Z</time>
      </trkpt>
      <trkpt lat="44.66258" lon="5.19097">
        <ele>641.9</ele>
        <time>2024-05-17T11:48:58Z</time>
      </trkpt>
      <trkpt lat="44.66265" lon="5.19094">
        <ele>641.7</ele>
        <time>2024-05-17T11:48:59Z</time>
      </trkpt>
      <trkpt lat="44.66273" lon="5.19091">
        <ele>641.4</ele>
        <time>2024-05-17T11:49:00Z</time>
      </trkpt>
      <trkpt lat="44.6628" lon="5.19087">
        <ele>641.1</ele>
        <time>2024-05-17T11:49:01Z</time>
      </trkpt>
      <trkpt lat="44.66287" lon="5.19082">
        <ele>640.7</ele>
        <time>2024-05-17T11:49:02Z</time>
      </trkpt>
      <trkpt lat="44.66294" lon="5.19075">
        <ele>640.2</ele>
        <time>2024-05-17T11:49:03Z</time>
      </trkpt>
      <trkpt lat="44.66301" lon="5.19061">
        <ele>639.2</ele>
        <time>2024-05-17T11:49:04Z</time>
      </trkpt>
      <trkpt lat="44.66302" lon="5.19056">
        <ele>638.8</ele>
        <time>2024-05-17T11:49:05Z</time>
      </trkpt>
      <trkpt lat="44.66307" lon="5.19039">
        <ele>637.4</ele>
        <time>2024-05-17T11:49:06Z</time>
      </trkpt>
      <trkpt lat="44.66308" lon="5.19032">
        <ele>637</ele>
        <time>2024-05-17T11:49:07Z</time>
      </trkpt>
      <trkpt lat="44.66311" lon="5.19013">
        <ele>635.5</ele>
        <time>2024-05-17T11:49:08Z</time>
      </trkpt>
      <trkpt lat="44.66311" lon="5.19006">
        <ele>635</ele>
        <time>2024-05-17T11:49:09Z</time>
      </trkpt>
      <trkpt lat="44.66313" lon="5.18986">
        <ele>633.5</ele>
        <time>2024-05-17T11:49:10Z</time>
      </trkpt>
      <trkpt lat="44.66314" lon="5.18979">
        <ele>633</ele>
        <time>2024-05-17T11:49:11Z</time>
      </trkpt>
      <trkpt lat="44.66314" lon="5.18958">
        <ele>631.6</ele>
        <time>2024-05-17T11:49:12Z</time>
      </trkpt>
      <trkpt lat="44.66315" lon="5.1895">
        <ele>631.2</ele>
        <time>2024-05-17T11:49:13Z</time>
      </trkpt>
      <trkpt lat="44.66314" lon="5.18928">
        <ele>629.7</ele>
        <time>2024-05-17T11:49:14Z</time>
      </trkpt>
      <trkpt lat="44.66314" lon="5.18921">
        <ele>629.2</ele>
        <time>2024-05-17T11:49:15Z</time>
      </trkpt>
      <trkpt lat="44.66316" lon="5.189">
        <ele>627.6</ele>
        <time>2024-05-17T11:49:16Z</time>
      </trkpt>
      <trkpt lat="44.66318" lon="5.18893">
        <ele>627.1</ele>
        <time>2024-05-17T11:49:17Z</time>
      </trkpt>
      <trkpt lat="44.66326" lon="5.18874">
        <ele>625.5</ele>
        <time>2024-05-17T11:49:18Z</time>
      </trkpt>
      <trkpt lat="44.6633" lon="5.18869">
        <ele>625</ele>
        <time>2024-05-17T11:49:19Z</time>
      </trkpt>
      <trkpt lat="44.66337" lon="5.18858">
        <ele>623.8</ele>
        <time>2024-05-17T11:49:20Z</time>
      </trkpt>
      <trkpt lat="44.66347" lon="5.18839">
        <ele>622.2</ele>
        <time>2024-05-17T11:49:21Z</time>
      </trkpt>
      <trkpt lat="44.66349" lon="5.18832">
        <ele>621.7</ele>
        <time>2024-05-17T11:49:22Z</time>
      </trkpt>
      <trkpt lat="44.66354" lon="5.18817">
        <ele>620.7</ele>
        <time>2024-05-17T11:49:23Z</time>
      </trkpt>
      <trkpt lat="44.66357" lon="5.18793">
        <ele>619.5</ele>
        <time>2024-05-17T11:49:24Z</time>
      </trkpt>
      <trkpt lat="44.66358" lon="5.18785">
        <ele>619.1</ele>
        <time>2024-05-17T11:49:25Z</time>
      </trkpt>
      <trkpt lat="44.66364" lon="5.18763">
        <ele>618</ele>
        <time>2024-05-17T11:49:26Z</time>
      </trkpt>
      <trkpt lat="44.66367" lon="5.18757">
        <ele>617.7</ele>
        <time>2024-05-17T11:49:27Z</time>
      </trkpt>
      <trkpt lat="44.66374" lon="5.18744">
        <ele>617</ele>
        <time>2024-05-17T11:49:28Z</time>
      </trkpt>
      <trkpt lat="44.66386" lon="5.18739">
        <ele>616.4</ele>
        <time>2024-05-17T11:49:29Z</time>
      </trkpt>
      <trkpt lat="44.6639" lon="5.1874">
        <ele>616.2</ele>
        <time>2024-05-17T11:49:30Z</time>
      </trkpt>
      <trkpt lat="44.66399" lon="5.18742">
        <ele>615.3</ele>
        <time>2024-05-17T11:49:31Z</time>
      </trkpt>
      <trkpt lat="44.66408" lon="5.18758">
        <ele>613.7</ele>
        <time>2024-05-17T11:49:32Z</time>
      </trkpt>
      <trkpt lat="44.6641" lon="5.18765">
        <ele>613.1</ele>
        <time>2024-05-17T11:49:33Z</time>
      </trkpt>
      <trkpt lat="44.66417" lon="5.18785">
        <ele>611.4</ele>
        <time>2024-05-17T11:49:34Z</time>
      </trkpt>
      <trkpt lat="44.6642" lon="5.18792">
        <ele>610.9</ele>
        <time>2024-05-17T11:49:35Z</time>
      </trkpt>
      <trkpt lat="44.66429" lon="5.1881">
        <ele>609.3</ele>
        <time>2024-05-17T11:49:36Z</time>
      </trkpt>
      <trkpt lat="44.66433" lon="5.18815">
        <ele>608.7</ele>
        <time>2024-05-17T11:49:37Z</time>
      </trkpt>
      <trkpt lat="44.66441" lon="5.18826">
        <ele>607.7</ele>
        <time>2024-05-17T11:49:38Z</time>
      </trkpt>
      <trkpt lat="44.6645" lon="5.18837">
        <ele>606.6</ele>
        <time>2024-05-17T11:49:39Z</time>
      </trkpt>
      <trkpt lat="44.66459" lon="5.18846">
        <ele>605.6</ele>
        <time>2024-05-17T11:49:40Z</time>
      </trkpt>
      <trkpt lat="44.66473" lon="5.1886">
        <ele>604</ele>
        <time>2024-05-17T11:49:41Z</time>
      </trkpt>
      <trkpt lat="44.66478" lon="5.18863">
        <ele>603.5</ele>
        <time>2024-05-17T11:49:42Z</time>
      </trkpt>
      <trkpt lat="44.66493" lon="5.18875">
        <ele>602</ele>
        <time>2024-05-17T11:49:43Z</time>
      </trkpt>
      <trkpt lat="44.66499" lon="5.18879">
        <ele>601.4</ele>
        <time>2024-05-17T11:49:44Z</time>
      </trkpt>
      <trkpt lat="44.66509" lon="5.18886">
        <ele>600.4</ele>
        <time>2024-05-17T11:49:45Z</time>
      </trkpt>
      <trkpt lat="44.6652" lon="5.18893">
        <ele>599.3</ele>
        <time>2024-05-17T11:49:46Z</time>
      </trkpt>
      <trkpt lat="44.6653" lon="5.189">
        <ele>598.2</ele>
        <time>2024-05-17T11:49:47Z</time>
      </trkpt>
      <trkpt lat="44.66546" lon="5.18905">
        <ele>596.6</ele>
        <time>2024-05-17T11:49:48Z</time>
      </trkpt>
      <trkpt lat="44.66551" lon="5.18905">
        <ele>596.1</ele>
        <time>2024-05-17T11:49:49Z</time>
      </trkpt>
      <trkpt lat="44.66561" lon="5.18905">
        <ele>595.1</ele>
        <time>2024-05-17T11:49:50Z</time>
      </trkpt>
      <trkpt lat="44.66571" lon="5.189">
        <ele>594</ele>
        <time>2024-05-17T11:49:51Z</time>
      </trkpt>
      <trkpt lat="44.66581" lon="5.18894">
        <ele>592.8</ele>
        <time>2024-05-17T11:49:52Z</time>
      </trkpt>
      <trkpt lat="44.66597" lon="5.18884">
        <ele>591</ele>
        <time>2024-05-17T11:49:53Z</time>
      </trkpt>
      <trkpt lat="44.66603" lon="5.18881">
        <ele>590.4</ele>
        <time>2024-05-17T11:49:54Z</time>
      </trkpt>
      <trkpt lat="44.66619" lon="5.18872">
        <ele>588.6</ele>
        <time>2024-05-17T11:49:55Z</time>
      </trkpt>
      <trkpt lat="44.66625" lon="5.18869">
        <ele>588</ele>
        <time>2024-05-17T11:49:56Z</time>
      </trkpt>
      <trkpt lat="44.66636" lon="5.18863">
        <ele>586.8</ele>
        <time>2024-05-17T11:49:57Z</time>
      </trkpt>
      <trkpt lat="44.6665" lon="5.18849">
        <ele>584.9</ele>
        <time>2024-05-17T11:49:58Z</time>
      </trkpt>
      <trkpt lat="44.66655" lon="5.18843">
        <ele>584.3</ele>
        <time>2024-05-17T11:49:59Z</time>
      </trkpt>
      <trkpt lat="44.66667" lon="5.18825">
        <ele>582.3</ele>
        <time>2024-05-17T11:50:00Z</time>
      </trkpt>
      <trkpt lat="44.66671" lon="5.18818">
        <ele>581.6</ele>
        <time>2024-05-17T11:50:01Z</time>
      </trkpt>
      <trkpt lat="44.66679" lon="5.18804">
        <ele>580.2</ele>
        <time>2024-05-17T11:50:02Z</time>
      </trkpt>
      <trkpt lat="44.66694" lon="5.18788">
        <ele>578.1</ele>
        <time>2024-05-17T11:50:03Z</time>
      </trkpt>
      <trkpt lat="44.667" lon="5.18783">
        <ele>577.3</ele>
        <time>2024-05-17T11:50:04Z</time>
      </trkpt>
      <trkpt lat="44.66711" lon="5.18773">
        <ele>575.9</ele>
        <time>2024-05-17T11:50:05Z</time>
      </trkpt>
      <trkpt lat="44.6673" lon="5.18763">
        <ele>573.7</ele>
        <time>2024-05-17T11:50:06Z</time>
      </trkpt>
      <trkpt lat="44.66736" lon="5.1876">
        <ele>572.9</ele>
        <time>2024-05-17T11:50:07Z</time>
      </trkpt>
      <trkpt lat="44.66755" lon="5.18751">
        <ele>570.7</ele>
        <time>2024-05-17T11:50:08Z</time>
      </trkpt>
      <trkpt lat="44.66762" lon="5.18748">
        <ele>569.9</ele>
        <time>2024-05-17T11:50:09Z</time>
      </trkpt>
      <trkpt lat="44.66782" lon="5.18741">
        <ele>567.7</ele>
        <time>2024-05-17T11:50:10Z</time>
      </trkpt>
      <trkpt lat="44.66789" lon="5.1874">
        <ele>567</ele>
        <time>2024-05-17T11:50:11Z</time>
      </trkpt>
      <trkpt lat="44.66809" lon="5.18736">
        <ele>564.6</ele>
        <time>2024-05-17T11:50:12Z</time>
      </trkpt>
      <trkpt lat="44.66816" lon="5.18735">
        <ele>563.8</ele>
        <time>2024-05-17T11:50:13Z</time>
      </trkpt>
      <trkpt lat="44.66829" lon="5.18733">
        <ele>562.2</ele>
        <time>2024-05-17T11:50:14Z</time>
      </trkpt>
      <trkpt lat="44.6685" lon="5.18727">
        <ele>559.8</ele>
        <time>2024-05-17T11:50:15Z</time>
      </trkpt>
      <trkpt lat="44.66857" lon="5.18726">
        <ele>559.1</ele>
        <time>2024-05-17T11:50:16Z</time>
      </trkpt>
      <trkpt lat="44.66877" lon="5.18719">
        <ele>557</ele>
        <time>2024-05-17T11:50:17Z</time>
      </trkpt>
      <trkpt lat="44.66884" lon="5.18716">
        <ele>556.4</ele>
        <time>2024-05-17T11:50:18Z</time>
      </trkpt>
      <trkpt lat="44.66896" lon="5.1871">
        <ele>555.2</ele>
        <time>2024-05-17T11:50:19Z</time>
      </trkpt>
      <trkpt lat="44.66909" lon="5.18701">
        <ele>554</ele>
        <time>2024-05-17T11:50:20Z</time>
      </trkpt>
      <trkpt lat="44.66921" lon="5.18693">
        <ele>552.9</ele>
        <time>2024-05-17T11:50:21Z</time>
      </trkpt>
      <trkpt lat="44.66934" lon="5.18686">
        <ele>551.7</ele>
        <time>2024-05-17T11:50:22Z</time>
      </trkpt>
      <trkpt lat="44.66953" lon="5.18676">
        <ele>550.1</ele>
        <time>2024-05-17T11:50:23Z</time>
      </trkpt>
      <trkpt lat="44.66958" lon="5.18672">
        <ele>549.5</ele>
        <time>2024-05-17T11:50:24Z</time>
      </trkpt>
      <trkpt lat="44.66975" lon="5.1866">
        <ele>547.9</ele>
        <time>2024-05-17T11:50:25Z</time>
      </trkpt>
      <trkpt lat="44.66981" lon="5.18655">
        <ele>547.3</ele>
        <time>2024-05-17T11:50:26Z</time>
      </trkpt>
      <trkpt lat="44.66991" lon="5.18646">
        <ele>546.2</ele>
        <time>2024-05-17T11:50:27Z</time>
      </trkpt>
      <trkpt lat="44.67002" lon="5.18636">
        <ele>545.1</ele>
        <time>2024-05-17T11:50:28Z</time>
      </trkpt>
      <trkpt lat="44.67012" lon="5.18627">
        <ele>544.1</ele>
        <time>2024-05-17T11:50:29Z</time>
      </trkpt>
      <trkpt lat="44.67023" lon="5.18618">
        <ele>543.1</ele>
        <time>2024-05-17T11:50:30Z</time>
      </trkpt>
      <trkpt lat="44.67039" lon="5.18604">
        <ele>541.6</ele>
        <time>2024-05-17T11:50:31Z</time>
      </trkpt>
      <trkpt lat="44.67044" lon="5.18599">
        <ele>541.1</ele>
        <time>2024-05-17T11:50:32Z</time>
      </trkpt>
      <trkpt lat="44.67061" lon="5.18586">
        <ele>539.6</ele>
        <time>2024-05-17T11:50:33Z</time>
      </trkpt>
      <trkpt lat="44.67067" lon="5.18582">
        <ele>539.1</ele>
        <time>2024-05-17T11:50:34Z</time>
      </trkpt>
      <trkpt lat="44.67083" lon="5.18571">
        <ele>537.6</ele>
        <time>2024-05-17T11:50:35Z</time>
      </trkpt>
      <trkpt lat="44.67089" lon="5.18568">
        <ele>537.1</ele>
        <time>2024-05-17T11:50:36Z</time>
      </trkpt>
      <trkpt lat="44.67104" lon="5.18559">
        <ele>535.6</ele>
        <time>2024-05-17T11:50:37Z</time>
      </trkpt>
      <trkpt lat="44.67109" lon="5.18555">
        <ele>535.1</ele>
        <time>2024-05-17T11:50:38Z</time>
      </trkpt>
      <trkpt lat="44.67117" lon="5.18547">
        <ele>534.2</ele>
        <time>2024-05-17T11:50:39Z</time>
      </trkpt>
      <trkpt lat="44.67122" lon="5.18535">
        <ele>533.2</ele>
        <time>2024-05-17T11:50:40Z</time>
      </trkpt>
      <trkpt lat="44.67124" lon="5.18521">
        <ele>532.2</ele>
        <time>2024-05-17T11:50:41Z</time>
      </trkpt>
      <trkpt lat="44.67128" lon="5.18507">
        <ele>531.2</ele>
        <time>2024-05-17T11:50:42Z</time>
      </trkpt>
      <trkpt lat="44.67134" lon="5.18494">
        <ele>530.2</ele>
        <time>2024-05-17T11:50:43Z</time>
      </trkpt>
      <trkpt lat="44.67143" lon="5.18484">
        <ele>529.1</ele>
        <time>2024-05-17T11:50:44Z</time>
      </trkpt>
      <trkpt lat="44.67158" lon="5.18475">
        <ele>527.5</ele>
        <time>2024-05-17T11:50:45Z</time>
      </trkpt>
      <trkpt lat="44.67163" lon="5.18475">
        <ele>526.9</ele>
        <time>2024-05-17T11:50:46Z</time>
      </trkpt>
      <trkpt lat="44.67174" lon="5.18473">
        <ele>525.8</ele>
        <time>2024-05-17T11:50:47Z</time>
      </trkpt>
      <trkpt lat="44.6719" lon="5.18478">
        <ele>524.2</ele>
        <time>2024-05-17T11:50:48Z</time>
      </trkpt>
      <trkpt lat="44.67195" lon="5.18481">
        <ele>523.6</ele>
        <time>2024-05-17T11:50:49Z</time>
      </trkpt>
      <trkpt lat="44.67208" lon="5.18495">
        <ele>522.1</ele>
        <time>2024-05-17T11:50:50Z</time>
      </trkpt>
      <trkpt lat="44.6721" lon="5.18502">
        <ele>521.5</ele>
        <time>2024-05-17T11:50:51Z</time>
      </trkpt>
      <trkpt lat="44.67217" lon="5.18523">
        <ele>519.8</ele>
        <time>2024-05-17T11:50:52Z</time>
      </trkpt>
      <trkpt lat="44.67218" lon="5.18531">
        <ele>519.2</ele>
        <time>2024-05-17T11:50:53Z</time>
      </trkpt>
      <trkpt lat="44.67221" lon="5.18547">
        <ele>517.9</ele>
        <time>2024-05-17T11:50:54Z</time>
      </trkpt>
      <trkpt lat="44.67224" lon="5.18563">
        <ele>516.6</ele>
        <time>2024-05-17T11:50:55Z</time>
      </trkpt>
      <trkpt lat="44.67228" lon="5.18578">
        <ele>515.3</ele>
        <time>2024-05-17T11:50:56Z</time>
      </trkpt>
      <trkpt lat="44.67241" lon="5.18598">
        <ele>513.1</ele>
        <time>2024-05-17T11:50:57Z</time>
      </trkpt>
      <trkpt lat="44.67246" lon="5.18603">
        <ele>512.5</ele>
        <time>2024-05-17T11:50:58Z</time>
      </trkpt>
      <trkpt lat="44.6726" lon="5.18618">
        <ele>511</ele>
        <time>2024-05-17T11:50:59Z</time>
      </trkpt>
      <trkpt lat="44.67264" lon="5.18624">
        <ele>510.7</ele>
        <time>2024-05-17T11:51:00Z</time>
      </trkpt>
      <trkpt lat="44.67274" lon="5.18641">
        <ele>509.8</ele>
        <time>2024-05-17T11:51:01Z</time>
      </trkpt>
      <trkpt lat="44.67276" lon="5.18648">
        <ele>509.3</ele>
        <time>2024-05-17T11:51:02Z</time>
      </trkpt>
      <trkpt lat="44.6728" lon="5.18663">
        <ele>508.3</ele>
        <time>2024-05-17T11:51:03Z</time>
      </trkpt>
      <trkpt lat="44.67282" lon="5.18678">
        <ele>507.3</ele>
        <time>2024-05-17T11:51:04Z</time>
      </trkpt>
      <trkpt lat="44.67286" lon="5.18693">
        <ele>506.3</ele>
        <time>2024-05-17T11:51:05Z</time>
      </trkpt>
      <trkpt lat="44.67291" lon="5.18707">
        <ele>505.2</ele>
        <time>2024-05-17T11:51:06Z</time>
      </trkpt>
      <trkpt lat="44.67298" lon="5.18718">
        <ele>504.1</ele>
        <time>2024-05-17T11:51:07Z</time>
      </trkpt>
      <trkpt lat="44.67308" lon="5.18726">
        <ele>503.1</ele>
        <time>2024-05-17T11:51:08Z</time>
      </trkpt>
      <trkpt lat="44.67318" lon="5.18731">
        <ele>502</ele>
        <time>2024-05-17T11:51:09Z</time>
      </trkpt>
      <trkpt lat="44.67329" lon="5.18735">
        <ele>501</ele>
        <time>2024-05-17T11:51:10Z</time>
      </trkpt>
      <trkpt lat="44.67341" lon="5.18738">
        <ele>499.9</ele>
        <time>2024-05-17T11:51:11Z</time>
      </trkpt>
      <trkpt lat="44.67352" lon="5.18742">
        <ele>498.8</ele>
        <time>2024-05-17T11:51:12Z</time>
      </trkpt>
      <trkpt lat="44.6737" lon="5.18746">
        <ele>497.2</ele>
        <time>2024-05-17T11:51:13Z</time>
      </trkpt>
      <trkpt lat="44.67376" lon="5.18748">
        <ele>496.6</ele>
        <time>2024-05-17T11:51:14Z</time>
      </trkpt>
      <trkpt lat="44.67394" lon="5.18753">
        <ele>494.9</ele>
        <time>2024-05-17T11:51:15Z</time>
      </trkpt>
      <trkpt lat="44.674" lon="5.18754">
        <ele>494.3</ele>
        <time>2024-05-17T11:51:16Z</time>
      </trkpt>
      <trkpt lat="44.67418" lon="5.1876">
        <ele>492.6</ele>
        <time>2024-05-17T11:51:17Z</time>
      </trkpt>
      <trkpt lat="44.67424" lon="5.18762">
        <ele>492.1</ele>
        <time>2024-05-17T11:51:18Z</time>
      </trkpt>
      <trkpt lat="44.67443" lon="5.18768">
        <ele>490.6</ele>
        <time>2024-05-17T11:51:19Z</time>
      </trkpt>
      <trkpt lat="44.67449" lon="5.18771">
        <ele>490</ele>
        <time>2024-05-17T11:51:20Z</time>
      </trkpt>
      <trkpt lat="44.67461" lon="5.18775">
        <ele>488.9</ele>
        <time>2024-05-17T11:51:21Z</time>
      </trkpt>
      <trkpt lat="44.67479" lon="5.18772">
        <ele>487.3</ele>
        <time>2024-05-17T11:51:22Z</time>
      </trkpt>
      <trkpt lat="44.67486" lon="5.18769">
        <ele>486.7</ele>
        <time>2024-05-17T11:51:23Z</time>
      </trkpt>
      <trkpt lat="44.67504" lon="5.18763">
        <ele>484.9</ele>
        <time>2024-05-17T11:51:24Z</time>
      </trkpt>
      <trkpt lat="44.67511" lon="5.18761">
        <ele>484.4</ele>
        <time>2024-05-17T11:51:25Z</time>
      </trkpt>
      <trkpt lat="44.67531" lon="5.18758">
        <ele>482.7</ele>
        <time>2024-05-17T11:51:26Z</time>
      </trkpt>
      <trkpt lat="44.67537" lon="5.18757">
        <ele>482.2</ele>
        <time>2024-05-17T11:51:27Z</time>
      </trkpt>
      <trkpt lat="44.67557" lon="5.18757">
        <ele>480.7</ele>
        <time>2024-05-17T11:51:28Z</time>
      </trkpt>
      <trkpt lat="44.67563" lon="5.18756">
        <ele>480.1</ele>
        <time>2024-05-17T11:51:29Z</time>
      </trkpt>
      <trkpt lat="44.67577" lon="5.18756">
        <ele>479</ele>
        <time>2024-05-17T11:51:30Z</time>
      </trkpt>
      <trkpt lat="44.67596" lon="5.18756">
        <ele>477.4</ele>
        <time>2024-05-17T11:51:31Z</time>
      </trkpt>
      <trkpt lat="44.67603" lon="5.18756">
        <ele>476.8</ele>
        <time>2024-05-17T11:51:32Z</time>
      </trkpt>
      <trkpt lat="44.67623" lon="5.18756">
        <ele>475</ele>
        <time>2024-05-17T11:51:33Z</time>
      </trkpt>
      <trkpt lat="44.6763" lon="5.18755">
        <ele>474.4</ele>
        <time>2024-05-17T11:51:34Z</time>
      </trkpt>
      <trkpt lat="44.6765" lon="5.18754">
        <ele>472.7</ele>
        <time>2024-05-17T11:51:35Z</time>
      </trkpt>
      <trkpt lat="44.67656" lon="5.18753">
        <ele>472.2</ele>
        <time>2024-05-17T11:51:36Z</time>
      </trkpt>
      <trkpt lat="44.6767" lon="5.18751">
        <ele>471.2</ele>
        <time>2024-05-17T11:51:37Z</time>
      </trkpt>
      <trkpt lat="44.6769" lon="5.18749">
        <ele>469.6</ele>
        <time>2024-05-17T11:51:38Z</time>
      </trkpt>
      <trkpt lat="44.67696" lon="5.18749">
        <ele>469.1</ele>
        <time>2024-05-17T11:51:39Z</time>
      </trkpt>
      <trkpt lat="44.67716" lon="5.18751">
        <ele>467.6</ele>
        <time>2024-05-17T11:51:40Z</time>
      </trkpt>
      <trkpt lat="44.67723" lon="5.18753">
        <ele>467.2</ele>
        <time>2024-05-17T11:51:41Z</time>
      </trkpt>
      <trkpt lat="44.67742" lon="5.1876">
        <ele>466.2</ele>
        <time>2024-05-17T11:51:42Z</time>
      </trkpt>
      <trkpt lat="44.67747" lon="5.18765">
        <ele>465.9</ele>
        <time>2024-05-17T11:51:43Z</time>
      </trkpt>
      <trkpt lat="44.67759" lon="5.18773">
        <ele>465.3</ele>
        <time>2024-05-17T11:51:44Z</time>
      </trkpt>
      <trkpt lat="44.67774" lon="5.18781">
        <ele>464.5</ele>
        <time>2024-05-17T11:51:45Z</time>
      </trkpt>
      <trkpt lat="44.6778" lon="5.18781">
        <ele>464.2</ele>
        <time>2024-05-17T11:51:46Z</time>
      </trkpt>
      <trkpt lat="44.67791" lon="5.18783">
        <ele>463.5</ele>
        <time>2024-05-17T11:51:47Z</time>
      </trkpt>
      <trkpt lat="44.67802" lon="5.18782">
        <ele>462.8</ele>
        <time>2024-05-17T11:51:48Z</time>
      </trkpt>
      <trkpt lat="44.67813" lon="5.18779">
        <ele>462.1</ele>
        <time>2024-05-17T11:51:49Z</time>
      </trkpt>
      <trkpt lat="44.67823" lon="5.18774">
        <ele>461.4</ele>
        <time>2024-05-17T11:51:50Z</time>
      </trkpt>
      <trkpt lat="44.67833" lon="5.18768">
        <ele>460.8</ele>
        <time>2024-05-17T11:51:51Z</time>
      </trkpt>
      <trkpt lat="44.67843" lon="5.18765">
        <ele>460.2</ele>
        <time>2024-05-17T11:51:52Z</time>
      </trkpt>
      <trkpt lat="44.67852" lon="5.18765">
        <ele>459.6</ele>
        <time>2024-05-17T11:51:53Z</time>
      </trkpt>
      <trkpt lat="44.67861" lon="5.1877">
        <ele>459</ele>
        <time>2024-05-17T11:51:54Z</time>
      </trkpt>
      <trkpt lat="44.67872" lon="5.18783">
        <ele>458</ele>
        <time>2024-05-17T11:51:55Z</time>
      </trkpt>
      <trkpt lat="44.67875" lon="5.18788">
        <ele>457.6</ele>
        <time>2024-05-17T11:51:56Z</time>
      </trkpt>
      <trkpt lat="44.67885" lon="5.18802">
        <ele>456.6</ele>
        <time>2024-05-17T11:51:57Z</time>
      </trkpt>
      <trkpt lat="44.67888" lon="5.18807">
        <ele>456.3</ele>
        <time>2024-05-17T11:51:58Z</time>
      </trkpt>
      <trkpt lat="44.67899" lon="5.18821">
        <ele>455.2</ele>
        <time>2024-05-17T11:51:59Z</time>
      </trkpt>
      <trkpt lat="44.67902" lon="5.18826">
        <ele>454.8</ele>
        <time>2024-05-17T11:52:00Z</time>
      </trkpt>
      <trkpt lat="44.67913" lon="5.18841">
        <ele>453.6</ele>
        <time>2024-05-17T11:52:01Z</time>
      </trkpt>
      <trkpt lat="44.67917" lon="5.18845">
        <ele>453.2</ele>
        <time>2024-05-17T11:52:02Z</time>
      </trkpt>
      <trkpt lat="44.67929" lon="5.1886">
        <ele>451.9</ele>
        <time>2024-05-17T11:52:03Z</time>
      </trkpt>
      <trkpt lat="44.67933" lon="5.18865">
        <ele>451.5</ele>
        <time>2024-05-17T11:52:04Z</time>
      </trkpt>
      <trkpt lat="44.67941" lon="5.18875">
        <ele>450.6</ele>
        <time>2024-05-17T11:52:05Z</time>
      </trkpt>
      <trkpt lat="44.67953" lon="5.18891">
        <ele>449.3</ele>
        <time>2024-05-17T11:52:06Z</time>
      </trkpt>
      <trkpt lat="44.67957" lon="5.18896">
        <ele>448.9</ele>
        <time>2024-05-17T11:52:07Z</time>
      </trkpt>
      <trkpt lat="44.67965" lon="5.18908">
        <ele>448</ele>
        <time>2024-05-17T11:52:08Z</time>
      </trkpt>
      <trkpt lat="44.67977" lon="5.18923">
        <ele>446.7</ele>
        <time>2024-05-17T11:52:09Z</time>
      </trkpt>
      <trkpt lat="44.67981" lon="5.18927">
        <ele>446.2</ele>
        <time>2024-05-17T11:52:10Z</time>
      </trkpt>
      <trkpt lat="44.6799" lon="5.18936">
        <ele>445.4</ele>
        <time>2024-05-17T11:52:11Z</time>
      </trkpt>
      <trkpt lat="44.68" lon="5.18938">
        <ele>444.7</ele>
        <time>2024-05-17T11:52:12Z</time>
      </trkpt>
      <trkpt lat="44.6801" lon="5.18936">
        <ele>443.9</ele>
        <time>2024-05-17T11:52:13Z</time>
      </trkpt>
      <trkpt lat="44.68021" lon="5.18932">
        <ele>443.1</ele>
        <time>2024-05-17T11:52:14Z</time>
      </trkpt>
      <trkpt lat="44.68031" lon="5.18929">
        <ele>442.4</ele>
        <time>2024-05-17T11:52:15Z</time>
      </trkpt>
      <trkpt lat="44.68042" lon="5.18931">
        <ele>441.6</ele>
        <time>2024-05-17T11:52:16Z</time>
      </trkpt>
      <trkpt lat="44.68051" lon="5.18938">
        <ele>440.8</ele>
        <time>2024-05-17T11:52:17Z</time>
      </trkpt>
      <trkpt lat="44.6806" lon="5.18954">
        <ele>439.6</ele>
        <time>2024-05-17T11:52:18Z</time>
      </trkpt>
      <trkpt lat="44.68062" lon="5.18961">
        <ele>439.2</ele>
        <time>2024-05-17T11:52:19Z</time>
      </trkpt>
      <trkpt lat="44.68065" lon="5.18981">
        <ele>438</ele>
        <time>2024-05-17T11:52:20Z</time>
      </trkpt>
      <trkpt lat="44.68064" lon="5.18988">
        <ele>437.5</ele>
        <time>2024-05-17T11:52:21Z</time>
      </trkpt>
      <trkpt lat="44.68063" lon="5.19002">
        <ele>436.6</ele>
        <time>2024-05-17T11:52:22Z</time>
      </trkpt>
      <trkpt lat="44.6806" lon="5.19024">
        <ele>435.2</ele>
        <time>2024-05-17T11:52:23Z</time>
      </trkpt>
      <trkpt lat="44.68059" lon="5.19031">
        <ele>434.8</ele>
        <time>2024-05-17T11:52:24Z</time>
      </trkpt>
      <trkpt lat="44.6806" lon="5.19053">
        <ele>433.5</ele>
        <time>2024-05-17T11:52:25Z</time>
      </trkpt>
      <trkpt lat="44.68061" lon="5.1906">
        <ele>433.1</ele>
        <time>2024-05-17T11:52:26Z</time>
      </trkpt>
      <trkpt lat="44.68069" lon="5.19079">
        <ele>431.9</ele>
        <time>2024-05-17T11:52:27Z</time>
      </trkpt>
      <trkpt lat="44.68073" lon="5.19083">
        <ele>431.4</ele>
        <time>2024-05-17T11:52:28Z</time>
      </trkpt>
      <trkpt lat="44.68081" lon="5.19093">
        <ele>430.4</ele>
        <time>2024-05-17T11:52:29Z</time>
      </trkpt>
      <trkpt lat="44.6809" lon="5.19101">
        <ele>429.5</ele>
        <time>2024-05-17T11:52:30Z</time>
      </trkpt>
      <trkpt lat="44.681" lon="5.19107">
        <ele>428.5</ele>
        <time>2024-05-17T11:52:31Z</time>
      </trkpt>
      <trkpt lat="44.68111" lon="5.19113">
        <ele>427.6</ele>
        <time>2024-05-17T11:52:32Z</time>
      </trkpt>
      <trkpt lat="44.68127" lon="5.1912">
        <ele>426.1</ele>
        <time>2024-05-17T11:52:33Z</time>
      </trkpt>
      <trkpt lat="44.68132" lon="5.19122">
        <ele>425.6</ele>
        <time>2024-05-17T11:52:34Z</time>
      </trkpt>
      <trkpt lat="44.68149" lon="5.19129">
        <ele>424.2</ele>
        <time>2024-05-17T11:52:35Z</time>
      </trkpt>
      <trkpt lat="44.68154" lon="5.19132">
        <ele>423.8</ele>
        <time>2024-05-17T11:52:36Z</time>
      </trkpt>
      <trkpt lat="44.68165" lon="5.19137">
        <ele>422.9</ele>
        <time>2024-05-17T11:52:37Z</time>
      </trkpt>
      <trkpt lat="44.68176" lon="5.19143">
        <ele>422</ele>
        <time>2024-05-17T11:52:38Z</time>
      </trkpt>
      <trkpt lat="44.68193" lon="5.19152">
        <ele>420.8</ele>
        <time>2024-05-17T11:52:39Z</time>
      </trkpt>
      <trkpt lat="44.68198" lon="5.19155">
        <ele>420.3</ele>
        <time>2024-05-17T11:52:40Z</time>
      </trkpt>
      <trkpt lat="44.68213" lon="5.19168">
        <ele>419.1</ele>
        <time>2024-05-17T11:52:41Z</time>
      </trkpt>
      <trkpt lat="44.68217" lon="5.19174">
        <ele>418.7</ele>
        <time>2024-05-17T11:52:42Z</time>
      </trkpt>
      <trkpt lat="44.68228" lon="5.19194">
        <ele>417.4</ele>
        <time>2024-05-17T11:52:43Z</time>
      </trkpt>
      <trkpt lat="44.6823" lon="5.19201">
        <ele>417</ele>
        <time>2024-05-17T11:52:44Z</time>
      </trkpt>
      <trkpt lat="44.68238" lon="5.19223">
        <ele>415.8</ele>
        <time>2024-05-17T11:52:45Z</time>
      </trkpt>
      <trkpt lat="44.6824" lon="5.19231">
        <ele>415.4</ele>
        <time>2024-05-17T11:52:46Z</time>
      </trkpt>
      <trkpt lat="44.68246" lon="5.19252">
        <ele>414.1</ele>
        <time>2024-05-17T11:52:47Z</time>
      </trkpt>
      <trkpt lat="44.68249" lon="5.19258">
        <ele>413.7</ele>
        <time>2024-05-17T11:52:48Z</time>
      </trkpt>
      <trkpt lat="44.68258" lon="5.19271">
        <ele>412.7</ele>
        <time>2024-05-17T11:52:49Z</time>
      </trkpt>
      <trkpt lat="44.68261" lon="5.19271">
        <ele>412.3</ele>
        <time>2024-05-17T11:52:50Z</time>
      </trkpt>
      <trkpt lat="44.68273" lon="5.19269">
        <ele>411.2</ele>
        <time>2024-05-17T11:52:51Z</time>
      </trkpt>
      <trkpt lat="44.68277" lon="5.19266">
        <ele>410.8</ele>
        <time>2024-05-17T11:52:52Z</time>
      </trkpt>
      <trkpt lat="44.68285" lon="5.19259">
        <ele>410</ele>
        <time>2024-05-17T11:52:53Z</time>
      </trkpt>
      <trkpt lat="44.68294" lon="5.19243">
        <ele>409</ele>
        <time>2024-05-17T11:52:54Z</time>
      </trkpt>
      <trkpt lat="44.68296" lon="5.19237">
        <ele>408.6</ele>
        <time>2024-05-17T11:52:55Z</time>
      </trkpt>
      <trkpt lat="44.68301" lon="5.19225">
        <ele>408</ele>
        <time>2024-05-17T11:52:56Z</time>
      </trkpt>
      <trkpt lat="44.68305" lon="5.19213">
        <ele>407.3</ele>
        <time>2024-05-17T11:52:57Z</time>
      </trkpt>
      <trkpt lat="44.68309" lon="5.19201">
        <ele>406.7</ele>
        <time>2024-05-17T11:52:58Z</time>
      </trkpt>
      <trkpt lat="44.68319" lon="5.19195">
        <ele>405.9</ele>
        <time>2024-05-17T11:52:59Z</time>
      </trkpt>
      <trkpt lat="44.68323" lon="5.19196">
        <ele>405.6</ele>
        <time>2024-05-17T11:53:00Z</time>
      </trkpt>
      <trkpt lat="44.68331" lon="5.19198">
        <ele>405</ele>
        <time>2024-05-17T11:53:01Z</time>
      </trkpt>
      <trkpt lat="44.68337" lon="5.19207">
        <ele>404.3</ele>
        <time>2024-05-17T11:53:02Z</time>
      </trkpt>
      <trkpt lat="44.6834" lon="5.19218">
        <ele>403.6</ele>
        <time>2024-05-17T11:53:03Z</time>
      </trkpt>
      <trkpt lat="44.68339" lon="5.19236">
        <ele>402.4</ele>
        <time>2024-05-17T11:53:04Z</time>
      </trkpt>
      <trkpt lat="44.68339" lon="5.19242">
        <ele>402</ele>
        <time>2024-05-17T11:53:05Z</time>
      </trkpt>
      <trkpt lat="44.68338" lon="5.19255">
        <ele>401.2</ele>
        <time>2024-05-17T11:53:06Z</time>
      </trkpt>
      <trkpt lat="44.68334" lon="5.19275">
        <ele>399.9</ele>
        <time>2024-05-17T11:53:07Z</time>
      </trkpt>
      <trkpt lat="44.68333" lon="5.19282">
        <ele>399.4</ele>
        <time>2024-05-17T11:53:08Z</time>
      </trkpt>
      <trkpt lat="44.68329" lon="5.19303">
        <ele>398.1</ele>
        <time>2024-05-17T11:53:09Z</time>
      </trkpt>
      <trkpt lat="44.68329" lon="5.1931">
        <ele>397.6</ele>
        <time>2024-05-17T11:53:10Z</time>
      </trkpt>
      <trkpt lat="44.68329" lon="5.19331">
        <ele>396.2</ele>
        <time>2024-05-17T11:53:11Z</time>
      </trkpt>
      <trkpt lat="44.68331" lon="5.19338">
        <ele>395.8</ele>
        <time>2024-05-17T11:53:12Z</time>
      </trkpt>
      <trkpt lat="44.68336" lon="5.19351">
        <ele>394.8</ele>
        <time>2024-05-17T11:53:13Z</time>
      </trkpt>
      <trkpt lat="44.68343" lon="5.19362">
        <ele>393.8</ele>
        <time>2024-05-17T11:53:14Z</time>
      </trkpt>
      <trkpt lat="44.68354" lon="5.19366">
        <ele>392.9</ele>
        <time>2024-05-17T11:53:15Z</time>
      </trkpt>
      <trkpt lat="44.68369" lon="5.1937">
        <ele>391.6</ele>
        <time>2024-05-17T11:53:16Z</time>
      </trkpt>
      <trkpt lat="44.68374" lon="5.19369">
        <ele>391.1</ele>
        <time>2024-05-17T11:53:17Z</time>
      </trkpt>
      <trkpt lat="44.68385" lon="5.19368">
        <ele>390.3</ele>
        <time>2024-05-17T11:53:18Z</time>
      </trkpt>
      <trkpt lat="44.68401" lon="5.19364">
        <ele>389</ele>
        <time>2024-05-17T11:53:19Z</time>
      </trkpt>
      <trkpt lat="44.68407" lon="5.19363">
        <ele>388.6</ele>
        <time>2024-05-17T11:53:20Z</time>
      </trkpt>
      <trkpt lat="44.68417" lon="5.1936">
        <ele>387.7</ele>
        <time>2024-05-17T11:53:21Z</time>
      </trkpt>
      <trkpt lat="44.68434" lon="5.19355">
        <ele>386.3</ele>
        <time>2024-05-17T11:53:22Z</time>
      </trkpt>
      <trkpt lat="44.68439" lon="5.19353">
        <ele>385.9</ele>
        <time>2024-05-17T11:53:23Z</time>
      </trkpt>
      <trkpt lat="44.6845" lon="5.19349">
        <ele>385</ele>
        <time>2024-05-17T11:53:24Z</time>
      </trkpt>
      <trkpt lat="44.68461" lon="5.19345">
        <ele>384.1</ele>
        <time>2024-05-17T11:53:25Z</time>
      </trkpt>
      <trkpt lat="44.68472" lon="5.19342">
        <ele>383.1</ele>
        <time>2024-05-17T11:53:26Z</time>
      </trkpt>
      <trkpt lat="44.68483" lon="5.1934">
        <ele>382.3</ele>
        <time>2024-05-17T11:53:27Z</time>
      </trkpt>
      <trkpt lat="44.68493" lon="5.19339">
        <ele>381.4</ele>
        <time>2024-05-17T11:53:28Z</time>
      </trkpt>
      <trkpt lat="44.6851" lon="5.19336">
        <ele>380</ele>
        <time>2024-05-17T11:53:29Z</time>
      </trkpt>
      <trkpt lat="44.68515" lon="5.19335">
        <ele>379.6</ele>
        <time>2024-05-17T11:53:30Z</time>
      </trkpt>
      <trkpt lat="44.68526" lon="5.19332">
        <ele>378.7</ele>
        <time>2024-05-17T11:53:31Z</time>
      </trkpt>
      <trkpt lat="44.68543" lon="5.19328">
        <ele>377.3</ele>
        <time>2024-05-17T11:53:32Z</time>
      </trkpt>
      <trkpt lat="44.68548" lon="5.19327">
        <ele>376.9</ele>
        <time>2024-05-17T11:53:33Z</time>
      </trkpt>
      <trkpt lat="44.68559" lon="5.19325">
        <ele>375.9</ele>
        <time>2024-05-17T11:53:34Z</time>
      </trkpt>
      <trkpt lat="44.68571" lon="5.19326">
        <ele>375</ele>
        <time>2024-05-17T11:53:35Z</time>
      </trkpt>
      <trkpt lat="44.68587" lon="5.19329">
        <ele>373.7</ele>
        <time>2024-05-17T11:53:36Z</time>
      </trkpt>
      <trkpt lat="44.68593" lon="5.1933">
        <ele>373.2</ele>
        <time>2024-05-17T11:53:37Z</time>
      </trkpt>
      <trkpt lat="44.68604" lon="5.19333">
        <ele>372.3</ele>
        <time>2024-05-17T11:53:38Z</time>
      </trkpt>
      <trkpt lat="44.68621" lon="5.19338">
        <ele>370.9</ele>
        <time>2024-05-17T11:53:39Z</time>
      </trkpt>
      <trkpt lat="44.68626" lon="5.1934">
        <ele>370.5</ele>
        <time>2024-05-17T11:53:40Z</time>
      </trkpt>
      <trkpt lat="44.68637" lon="5.19344">
        <ele>369.5</ele>
        <time>2024-05-17T11:53:41Z</time>
      </trkpt>
      <trkpt lat="44.68654" lon="5.19349">
        <ele>368</ele>
        <time>2024-05-17T11:53:42Z</time>
      </trkpt>
      <trkpt lat="44.6866" lon="5.19351">
        <ele>367.5</ele>
        <time>2024-05-17T11:53:43Z</time>
      </trkpt>
      <trkpt lat="44.68677" lon="5.19355">
        <ele>366</ele>
        <time>2024-05-17T11:53:44Z</time>
      </trkpt>
      <trkpt lat="44.68683" lon="5.19356">
        <ele>365.5</ele>
        <time>2024-05-17T11:53:45Z</time>
      </trkpt>
      <trkpt lat="44.68694" lon="5.19358">
        <ele>364.5</ele>
        <time>2024-05-17T11:53:46Z</time>
      </trkpt>
      <trkpt lat="44.68706" lon="5.19359">
        <ele>363.6</ele>
        <time>2024-05-17T11:53:47Z</time>
      </trkpt>
      <trkpt lat="44.68717" lon="5.1936">
        <ele>362.7</ele>
        <time>2024-05-17T11:53:48Z</time>
      </trkpt>
      <trkpt lat="44.68735" lon="5.19362">
        <ele>361.4</ele>
        <time>2024-05-17T11:53:49Z</time>
      </trkpt>
      <trkpt lat="44.6874" lon="5.19363">
        <ele>360.9</ele>
        <time>2024-05-17T11:53:50Z</time>
      </trkpt>
      <trkpt lat="44.68757" lon="5.19366">
        <ele>359.6</ele>
        <time>2024-05-17T11:53:51Z</time>
      </trkpt>
      <trkpt lat="44.68763" lon="5.19367">
        <ele>359.2</ele>
        <time>2024-05-17T11:53:52Z</time>
      </trkpt>
      <trkpt lat="44.68779" lon="5.19373">
        <ele>357.9</ele>
        <time>2024-05-17T11:53:53Z</time>
      </trkpt>
      <trkpt lat="44.68785" lon="5.19376">
        <ele>357.5</ele>
        <time>2024-05-17T11:53:54Z</time>
      </trkpt>
      <trkpt lat="44.68795" lon="5.19381">
        <ele>356.7</ele>
        <time>2024-05-17T11:53:55Z</time>
      </trkpt>
      <trkpt lat="44.68805" lon="5.19386">
        <ele>355.8</ele>
        <time>2024-05-17T11:53:56Z</time>
      </trkpt>
      <trkpt lat="44.68816" lon="5.1939">
        <ele>355</ele>
        <time>2024-05-17T11:53:57Z</time>
      </trkpt>
      <trkpt lat="44.68831" lon="5.19396">
        <ele>353.6</ele>
        <time>2024-05-17T11:53:58Z</time>
      </trkpt>
      <trkpt lat="44.68837" lon="5.19397">
        <ele>353.2</ele>
        <time>2024-05-17T11:53:59Z</time>
      </trkpt>
      <trkpt lat="44.68853" lon="5.194">
        <ele>351.8</ele>
        <time>2024-05-17T11:54:00Z</time>
      </trkpt>
      <trkpt lat="44.68858" lon="5.19401">
        <ele>351.3</ele>
        <time>2024-05-17T11:54:01Z</time>
      </trkpt>
      <trkpt lat="44.68869" lon="5.19402">
        <ele>350.3</ele>
        <time>2024-05-17T11:54:02Z</time>
      </trkpt>
      <trkpt lat="44.68881" lon="5.19404">
        <ele>349.4</ele>
        <time>2024-05-17T11:54:03Z</time>
      </trkpt>
      <trkpt lat="44.68892" lon="5.19407">
        <ele>348.6</ele>
        <time>2024-05-17T11:54:04Z</time>
      </trkpt>
      <trkpt lat="44.68902" lon="5.19414">
        <ele>347.8</ele>
        <time>2024-05-17T11:54:05Z</time>
      </trkpt>
      <trkpt lat="44.68917" lon="5.19425">
        <ele>346.5</ele>
        <time>2024-05-17T11:54:06Z</time>
      </trkpt>
      <trkpt lat="44.68921" lon="5.1943">
        <ele>346.1</ele>
        <time>2024-05-17T11:54:07Z</time>
      </trkpt>
      <trkpt lat="44.68935" lon="5.19445">
        <ele>344.7</ele>
        <time>2024-05-17T11:54:08Z</time>
      </trkpt>
      <trkpt lat="44.68939" lon="5.1945">
        <ele>344.2</ele>
        <time>2024-05-17T11:54:09Z</time>
      </trkpt>
      <trkpt lat="44.68948" lon="5.1946">
        <ele>343.4</ele>
        <time>2024-05-17T11:54:10Z</time>
      </trkpt>
      <trkpt lat="44.68957" lon="5.1947">
        <ele>342.6</ele>
        <time>2024-05-17T11:54:11Z</time>
      </trkpt>
      <trkpt lat="44.6897" lon="5.19484">
        <ele>341.2</ele>
        <time>2024-05-17T11:54:12Z</time>
      </trkpt>
      <trkpt lat="44.68975" lon="5.19488">
        <ele>340.8</ele>
        <time>2024-05-17T11:54:13Z</time>
      </trkpt>
      <trkpt lat="44.68984" lon="5.19498">
        <ele>339.8</ele>
        <time>2024-05-17T11:54:14Z</time>
      </trkpt>
      <trkpt lat="44.68998" lon="5.19501">
        <ele>338.5</ele>
        <time>2024-05-17T11:54:15Z</time>
      </trkpt>
      <trkpt lat="44.69003" lon="5.195">
        <ele>338</ele>
        <time>2024-05-17T11:54:16Z</time>
      </trkpt>
      <trkpt lat="44.69016" lon="5.19493">
        <ele>336.6</ele>
        <time>2024-05-17T11:54:17Z</time>
      </trkpt>
      <trkpt lat="44.6902" lon="5.19488">
        <ele>336.1</ele>
        <time>2024-05-17T11:54:18Z</time>
      </trkpt>
      <trkpt lat="44.69031" lon="5.19472">
        <ele>334.8</ele>
        <time>2024-05-17T11:54:19Z</time>
      </trkpt>
      <trkpt lat="44.69035" lon="5.19466">
        <ele>334.3</ele>
        <time>2024-05-17T11:54:20Z</time>
      </trkpt>
      <trkpt lat="44.69041" lon="5.19454">
        <ele>333.5</ele>
        <time>2024-05-17T11:54:21Z</time>
      </trkpt>
      <trkpt lat="44.6905" lon="5.19436">
        <ele>332.5</ele>
        <time>2024-05-17T11:54:22Z</time>
      </trkpt>
      <trkpt lat="44.69052" lon="5.19429">
        <ele>332.3</ele>
        <time>2024-05-17T11:54:23Z</time>
      </trkpt>
      <trkpt lat="44.69057" lon="5.19417">
        <ele>331.7</ele>
        <time>2024-05-17T11:54:24Z</time>
      </trkpt>
      <trkpt lat="44.69064" lon="5.19407">
        <ele>331.1</ele>
        <time>2024-05-17T11:54:25Z</time>
      </trkpt>
      <trkpt lat="44.69067" lon="5.19406">
        <ele>330.9</ele>
        <time>2024-05-17T11:54:26Z</time>
      </trkpt>
      <trkpt lat="44.69073" lon="5.19408">
        <ele>330.3</ele>
        <time>2024-05-17T11:54:27Z</time>
      </trkpt>
      <trkpt lat="44.69073" lon="5.19412">
        <ele>330</ele>
        <time>2024-05-17T11:54:28Z</time>
      </trkpt>
      <trkpt lat="44.69073" lon="5.1942">
        <ele>329.4</ele>
        <time>2024-05-17T11:54:29Z</time>
      </trkpt>
      <trkpt lat="44.69068" lon="5.19435">
        <ele>328.2</ele>
        <time>2024-05-17T11:54:30Z</time>
      </trkpt>
      <trkpt lat="44.69067" lon="5.1944">
        <ele>327.8</ele>
        <time>2024-05-17T11:54:31Z</time>
      </trkpt>
      <trkpt lat="44.69065" lon="5.19451">
        <ele>327</ele>
        <time>2024-05-17T11:54:32Z</time>
      </trkpt>
      <trkpt lat="44.69062" lon="5.19469">
        <ele>325.8</ele>
        <time>2024-05-17T11:54:33Z</time>
      </trkpt>
      <trkpt lat="44.69061" lon="5.19475">
        <ele>325.4</ele>
        <time>2024-05-17T11:54:34Z</time>
      </trkpt>
      <trkpt lat="44.69058" lon="5.19494">
        <ele>324.2</ele>
        <time>2024-05-17T11:54:35Z</time>
      </trkpt>
      <trkpt lat="44.69057" lon="5.195">
        <ele>323.8</ele>
        <time>2024-05-17T11:54:36Z</time>
      </trkpt>
      <trkpt lat="44.69055" lon="5.1952">
        <ele>322.5</ele>
        <time>2024-05-17T11:54:37Z</time>
      </trkpt>
      <trkpt lat="44.69054" lon="5.19527">
        <ele>322.1</ele>
        <time>2024-05-17T11:54:38Z</time>
      </trkpt>
      <trkpt lat="44.69053" lon="5.19541">
        <ele>321.1</ele>
        <time>2024-05-17T11:54:39Z</time>
      </trkpt>
      <trkpt lat="44.69055" lon="5.19554">
        <ele>320.2</ele>
        <time>2024-05-17T11:54:40Z</time>
      </trkpt>
      <trkpt lat="44.6906" lon="5.19567">
        <ele>319.2</ele>
        <time>2024-05-17T11:54:41Z</time>
      </trkpt>
      <trkpt lat="44.69068" lon="5.19577">
        <ele>318.3</ele>
        <time>2024-05-17T11:54:42Z</time>
      </trkpt>
      <trkpt lat="44.69078" lon="5.19583">
        <ele>317.4</ele>
        <time>2024-05-17T11:54:43Z</time>
      </trkpt>
      <trkpt lat="44.69087" lon="5.19588">
        <ele>316.5</ele>
        <time>2024-05-17T11:54:44Z</time>
      </trkpt>
      <trkpt lat="44.69097" lon="5.19594">
        <ele>315.7</ele>
        <time>2024-05-17T11:54:45Z</time>
      </trkpt>
      <trkpt lat="44.69107" lon="5.19601">
        <ele>314.8</ele>
        <time>2024-05-17T11:54:46Z</time>
      </trkpt>
      <trkpt lat="44.69121" lon="5.19613">
        <ele>313.5</ele>
        <time>2024-05-17T11:54:47Z</time>
      </trkpt>
      <trkpt lat="44.69126" lon="5.19617">
        <ele>313.1</ele>
        <time>2024-05-17T11:54:48Z</time>
      </trkpt>
      <trkpt lat="44.6914" lon="5.1963">
        <ele>311.7</ele>
        <time>2024-05-17T11:54:49Z</time>
      </trkpt>
      <trkpt lat="44.69144" lon="5.19634">
        <ele>311.3</ele>
        <time>2024-05-17T11:54:50Z</time>
      </trkpt>
      <trkpt lat="44.69155" lon="5.19651">
        <ele>309.9</ele>
        <time>2024-05-17T11:54:51Z</time>
      </trkpt>
      <trkpt lat="44.69157" lon="5.19658">
        <ele>309.5</ele>
        <time>2024-05-17T11:54:52Z</time>
      </trkpt>
      <trkpt lat="44.69161" lon="5.19671">
        <ele>308.5</ele>
        <time>2024-05-17T11:54:53Z</time>
      </trkpt>
      <trkpt lat="44.69163" lon="5.19687">
        <ele>307.5</ele>
        <time>2024-05-17T11:54:54Z</time>
      </trkpt>
      <trkpt lat="44.69164" lon="5.19711">
        <ele>306.2</ele>
        <time>2024-05-17T11:54:55Z</time>
      </trkpt>
      <trkpt lat="44.69165" lon="5.1972">
        <ele>305.8</ele>
        <time>2024-05-17T11:54:56Z</time>
      </trkpt>
      <trkpt lat="44.69165" lon="5.19736">
        <ele>304.9</ele>
        <time>2024-05-17T11:54:57Z</time>
      </trkpt>
      <trkpt lat="44.69164" lon="5.19761">
        <ele>303.7</ele>
        <time>2024-05-17T11:54:58Z</time>
      </trkpt>
      <trkpt lat="44.69164" lon="5.19768">
        <ele>303.3</ele>
        <time>2024-05-17T11:54:59Z</time>
      </trkpt>
      <trkpt lat="44.69163" lon="5.19791">
        <ele>302.2</ele>
        <time>2024-05-17T11:55:00Z</time>
      </trkpt>
      <trkpt lat="44.69163" lon="5.19797">
        <ele>301.9</ele>
        <time>2024-05-17T11:55:01Z</time>
      </trkpt>
      <trkpt lat="44.69162" lon="5.1981">
        <ele>301.2</ele>
        <time>2024-05-17T11:55:02Z</time>
      </trkpt>
      <trkpt lat="44.69166" lon="5.19826">
        <ele>300.5</ele>
        <time>2024-05-17T11:55:03Z</time>
      </trkpt>
      <trkpt lat="44.69168" lon="5.1983">
        <ele>300.3</ele>
        <time>2024-05-17T11:55:04Z</time>
      </trkpt>
      <trkpt lat="44.69173" lon="5.19838">
        <ele>299.9</ele>
        <time>2024-05-17T11:55:05Z</time>
      </trkpt>
      <trkpt lat="44.69184" lon="5.19843">
        <ele>299.3</ele>
        <time>2024-05-17T11:55:06Z</time>
      </trkpt>
      <trkpt lat="44.69188" lon="5.19843">
        <ele>299.1</ele>
        <time>2024-05-17T11:55:07Z</time>
      </trkpt>
      <trkpt lat="44.692" lon="5.19845">
        <ele>298.7</ele>
        <time>2024-05-17T11:55:08Z</time>
      </trkpt>
      <trkpt lat="44.69204" lon="5.19845">
        <ele>298.5</ele>
        <time>2024-05-17T11:55:09Z</time>
      </trkpt>
      <trkpt lat="44.69216" lon="5.19845">
        <ele>298.2</ele>
        <time>2024-05-17T11:55:10Z</time>
      </trkpt>
      <trkpt lat="44.6922" lon="5.19845">
        <ele>298</ele>
        <time>2024-05-17T11:55:11Z</time>
      </trkpt>
      <trkpt lat="44.69232" lon="5.19845">
        <ele>297.7</ele>
        <time>2024-05-17T11:55:12Z</time>
      </trkpt>
      <trkpt lat="44.69236" lon="5.19846">
        <ele>297.6</ele>
        <time>2024-05-17T11:55:13Z</time>
      </trkpt>
      <trkpt lat="44.69244" lon="5.19846">
        <ele>297.4</ele>
        <time>2024-05-17T11:55:14Z</time>
      </trkpt>
      <trkpt lat="44.69256" lon="5.19847">
        <ele>297.1</ele>
        <time>2024-05-17T11:55:15Z</time>
      </trkpt>
      <trkpt lat="44.6926" lon="5.19847">
        <ele>297</ele>
        <time>2024-05-17T11:55:16Z</time>
      </trkpt>
      <trkpt lat="44.69272" lon="5.19848">
        <ele>296.5</ele>
        <time>2024-05-17T11:55:17Z</time>
      </trkpt>
      <trkpt lat="44.69276" lon="5.19848">
        <ele>296.3</ele>
        <time>2024-05-17T11:55:18Z</time>
      </trkpt>
      <trkpt lat="44.69288" lon="5.19849">
        <ele>295.8</ele>
        <time>2024-05-17T11:55:19Z</time>
      </trkpt>
      <trkpt lat="44.69292" lon="5.1985">
        <ele>295.5</ele>
        <time>2024-05-17T11:55:20Z</time>
      </trkpt>
      <trkpt lat="44.69301" lon="5.19851">
        <ele>295.1</ele>
        <time>2024-05-17T11:55:21Z</time>
      </trkpt>
      <trkpt lat="44.6931" lon="5.19852">
        <ele>294.5</ele>
        <time>2024-05-17T11:55:22Z</time>
      </trkpt>
      <trkpt lat="44.69323" lon="5.19853">
        <ele>293.5</ele>
        <time>2024-05-17T11:55:23Z</time>
      </trkpt>
      <trkpt lat="44.69328" lon="5.19853">
        <ele>293.1</ele>
        <time>2024-05-17T11:55:24Z</time>
      </trkpt>
      <trkpt lat="44.69337" lon="5.19853">
        <ele>292.4</ele>
        <time>2024-05-17T11:55:25Z</time>
      </trkpt>
      <trkpt lat="44.69347" lon="5.19854">
        <ele>291.6</ele>
        <time>2024-05-17T11:55:26Z</time>
      </trkpt>
      <trkpt lat="44.69361" lon="5.19856">
        <ele>290.4</ele>
        <time>2024-05-17T11:55:27Z</time>
      </trkpt>
      <trkpt lat="44.69366" lon="5.19857">
        <ele>290.1</ele>
        <time>2024-05-17T11:55:28Z</time>
      </trkpt>
      <trkpt lat="44.69381" lon="5.19861">
        <ele>288.8</ele>
        <time>2024-05-17T11:55:29Z</time>
      </trkpt>
      <trkpt lat="44.69386" lon="5.19863">
        <ele>288.4</ele>
        <time>2024-05-17T11:55:30Z</time>
      </trkpt>
      <trkpt lat="44.69401" lon="5.19868">
        <ele>287.1</ele>
        <time>2024-05-17T11:55:31Z</time>
      </trkpt>
      <trkpt lat="44.69406" lon="5.1987">
        <ele>286.7</ele>
        <time>2024-05-17T11:55:32Z</time>
      </trkpt>
      <trkpt lat="44.69421" lon="5.19877">
        <ele>285.5</ele>
        <time>2024-05-17T11:55:33Z</time>
      </trkpt>
      <trkpt lat="44.69426" lon="5.1988">
        <ele>285.1</ele>
        <time>2024-05-17T11:55:34Z</time>
      </trkpt>
      <trkpt lat="44.6944" lon="5.19889">
        <ele>284.1</ele>
        <time>2024-05-17T11:55:35Z</time>
      </trkpt>
      <trkpt lat="44.69445" lon="5.19893">
        <ele>283.9</ele>
        <time>2024-05-17T11:55:36Z</time>
      </trkpt>
      <trkpt lat="44.69458" lon="5.19906">
        <ele>283.3</ele>
        <time>2024-05-17T11:55:37Z</time>
      </trkpt>
      <trkpt lat="44.69461" lon="5.19912">
        <ele>283.4</ele>
        <time>2024-05-17T11:55:38Z</time>
      </trkpt>
      <trkpt lat="44.69468" lon="5.19923">
        <ele>283.2</ele>
        <time>2024-05-17T11:55:39Z</time>
      </trkpt>
      <trkpt lat="44.69471" lon="5.19943">
        <ele>283.1</ele>
        <time>2024-05-17T11:55:40Z</time>
      </trkpt>
      <trkpt lat="44.69471" lon="5.19949">
        <ele>283</ele>
        <time>2024-05-17T11:55:41Z</time>
      </trkpt>
      <trkpt lat="44.69474" lon="5.19967">
        <ele>283.1</ele>
        <time>2024-05-17T11:55:42Z</time>
      </trkpt>
      <trkpt lat="44.69475" lon="5.19972">
        <ele>283.1</ele>
        <time>2024-05-17T11:55:43Z</time>
      </trkpt>
      <trkpt lat="44.6948" lon="5.19985">
        <ele>283.1</ele>
        <time>2024-05-17T11:55:44Z</time>
      </trkpt>
      <trkpt lat="44.69483" lon="5.19989">
        <ele>283</ele>
        <time>2024-05-17T11:55:45Z</time>
      </trkpt>
      <trkpt lat="44.69487" lon="5.19997">
        <ele>282.9</ele>
        <time>2024-05-17T11:55:46Z</time>
      </trkpt>
      <trkpt lat="44.69493" lon="5.20009">
        <ele>282.7</ele>
        <time>2024-05-17T11:55:47Z</time>
      </trkpt>
      <trkpt lat="44.69495" lon="5.20012">
        <ele>282.6</ele>
        <time>2024-05-17T11:55:48Z</time>
      </trkpt>
      <trkpt lat="44.69499" lon="5.2002">
        <ele>282.4</ele>
        <time>2024-05-17T11:55:49Z</time>
      </trkpt>
      <trkpt lat="44.69503" lon="5.20033">
        <ele>281.9</ele>
        <time>2024-05-17T11:55:50Z</time>
      </trkpt>
      <trkpt lat="44.69504" lon="5.20038">
        <ele>281.8</ele>
        <time>2024-05-17T11:55:51Z</time>
      </trkpt>
      <trkpt lat="44.69505" lon="5.20053">
        <ele>280.9</ele>
        <time>2024-05-17T11:55:52Z</time>
      </trkpt>
      <trkpt lat="44.69504" lon="5.20059">
        <ele>280.7</ele>
        <time>2024-05-17T11:55:53Z</time>
      </trkpt>
      <trkpt lat="44.69503" lon="5.2007">
        <ele>280.1</ele>
        <time>2024-05-17T11:55:54Z</time>
      </trkpt>
      <trkpt lat="44.69498" lon="5.20079">
        <ele>279.7</ele>
        <time>2024-05-17T11:55:55Z</time>
      </trkpt>
      <trkpt lat="44.69493" lon="5.20086">
        <ele>279.4</ele>
        <time>2024-05-17T11:55:56Z</time>
      </trkpt>
      <trkpt lat="44.69485" lon="5.2009">
        <ele>279</ele>
        <time>2024-05-17T11:55:57Z</time>
      </trkpt>
      <trkpt lat="44.69482" lon="5.2009">
        <ele>278.9</ele>
        <time>2024-05-17T11:55:58Z</time>
      </trkpt>
      <trkpt lat="44.69479" lon="5.20084">
        <ele>278.7</ele>
        <time>2024-05-17T11:55:59Z</time>
      </trkpt>
      <trkpt lat="44.69478" lon="5.20082">
        <ele>278.6</ele>
        <time>2024-05-17T11:56:00Z</time>
      </trkpt>
      <trkpt lat="44.69478" lon="5.20078">
        <ele>278.5</ele>
        <time>2024-05-17T11:56:01Z</time>
      </trkpt>
      <trkpt lat="44.69478" lon="5.20074">
        <ele>278.4</ele>
        <time>2024-05-17T11:56:02Z</time>
      </trkpt>
      <trkpt lat="44.69478" lon="5.2007">
        <ele>278.4</ele>
        <time>2024-05-17T11:56:03Z</time>
      </trkpt>
      <trkpt lat="44.6948" lon="5.20066">
        <ele>278.3</ele>
        <time>2024-05-17T11:56:04Z</time>
      </trkpt>
      <trkpt lat="44.69481" lon="5.20061">
        <ele>278.2</ele>
        <time>2024-05-17T11:56:05Z</time>
      </trkpt>
      <trkpt lat="44.69482" lon="5.20056">
        <ele>278</ele>
        <time>2024-05-17T11:56:06Z</time>
      </trkpt>
      <trkpt lat="44.69484" lon="5.20051">
        <ele>277.9</ele>
        <time>2024-05-17T11:56:07Z</time>
      </trkpt>
      <trkpt lat="44.69485" lon="5.20045">
        <ele>277.8</ele>
        <time>2024-05-17T11:56:08Z</time>
      </trkpt>
      <trkpt lat="44.69487" lon="5.2004">
        <ele>277.7</ele>
        <time>2024-05-17T11:56:09Z</time>
      </trkpt>
      <trkpt lat="44.69489" lon="5.20034">
        <ele>277.6</ele>
        <time>2024-05-17T11:56:10Z</time>
      </trkpt>
      <trkpt lat="44.69491" lon="5.20027">
        <ele>277.5</ele>
        <time>2024-05-17T11:56:11Z</time>
      </trkpt>
      <trkpt lat="44.69492" lon="5.20021">
        <ele>277.3</ele>
        <time>2024-05-17T11:56:12Z</time>
      </trkpt>
      <trkpt lat="44.69495" lon="5.20011">
        <ele>277.1</ele>
        <time>2024-05-17T11:56:13Z</time>
      </trkpt>
      <trkpt lat="44.69496" lon="5.20007">
        <ele>277.1</ele>
        <time>2024-05-17T11:56:14Z</time>
      </trkpt>
      <trkpt lat="44.69498" lon="5.19996">
        <ele>276.8</ele>
        <time>2024-05-17T11:56:15Z</time>
      </trkpt>
      <trkpt lat="44.69499" lon="5.19993">
        <ele>276.8</ele>
        <time>2024-05-17T11:56:16Z</time>
      </trkpt>
      <trkpt lat="44.69501" lon="5.19981">
        <ele>276.6</ele>
        <time>2024-05-17T11:56:17Z</time>
      </trkpt>
      <trkpt lat="44.69501" lon="5.19978">
        <ele>276.5</ele>
        <time>2024-05-17T11:56:18Z</time>
      </trkpt>
      <trkpt lat="44.69503" lon="5.19966">
        <ele>276.3</ele>
        <time>2024-05-17T11:56:19Z</time>
      </trkpt>
      <trkpt lat="44.69504" lon="5.19962">
        <ele>276.2</ele>
        <time>2024-05-17T11:56:20Z</time>
      </trkpt>
      <trkpt lat="44.69505" lon="5.19954">
        <ele>276</ele>
        <time>2024-05-17T11:56:21Z</time>
      </trkpt>
      <trkpt lat="44.69507" lon="5.19943">
        <ele>275.8</ele>
        <time>2024-05-17T11:56:22Z</time>
      </trkpt>
      <trkpt lat="44.69508" lon="5.19939">
        <ele>275.7</ele>
        <time>2024-05-17T11:56:23Z</time>
      </trkpt>
      <trkpt lat="44.69509" lon="5.19927">
        <ele>275.4</ele>
        <time>2024-05-17T11:56:24Z</time>
      </trkpt>
      <trkpt lat="44.69509" lon="5.19923">
        <ele>275.3</ele>
        <time>2024-05-17T11:56:25Z</time>
      </trkpt>
      <trkpt lat="44.69509" lon="5.1991">
        <ele>275</ele>
        <time>2024-05-17T11:56:26Z</time>
      </trkpt>
      <trkpt lat="44.69509" lon="5.19906">
        <ele>274.9</ele>
        <time>2024-05-17T11:56:27Z</time>
      </trkpt>
      <trkpt lat="44.69509" lon="5.19898">
        <ele>274.7</ele>
        <time>2024-05-17T11:56:28Z</time>
      </trkpt>
      <trkpt lat="44.69509" lon="5.19885">
        <ele>274.3</ele>
        <time>2024-05-17T11:56:29Z</time>
      </trkpt>
      <trkpt lat="44.69509" lon="5.19881">
        <ele>274.2</ele>
        <time>2024-05-17T11:56:30Z</time>
      </trkpt>
      <trkpt lat="44.69509" lon="5.19872">
        <ele>273.9</ele>
        <time>2024-05-17T11:56:31Z</time>
      </trkpt>
      <trkpt lat="44.69508" lon="5.19858">
        <ele>273.4</ele>
        <time>2024-05-17T11:56:32Z</time>
      </trkpt>
      <trkpt lat="44.69508" lon="5.19853">
        <ele>273.3</ele>
        <time>2024-05-17T11:56:33Z</time>
      </trkpt>
      <trkpt lat="44.69508" lon="5.19839">
        <ele>272.8</ele>
        <time>2024-05-17T11:56:34Z</time>
      </trkpt>
      <trkpt lat="44.69507" lon="5.19834">
        <ele>272.7</ele>
        <time>2024-05-17T11:56:35Z</time>
      </trkpt>
      <trkpt lat="44.69507" lon="5.19824">
        <ele>272.4</ele>
        <time>2024-05-17T11:56:36Z</time>
      </trkpt>
      <trkpt lat="44.69506" lon="5.19814">
        <ele>272.1</ele>
        <time>2024-05-17T11:56:37Z</time>
      </trkpt>
      <trkpt lat="44.69506" lon="5.19804">
        <ele>271.9</ele>
        <time>2024-05-17T11:56:38Z</time>
      </trkpt>
      <trkpt lat="44.69505" lon="5.19789">
        <ele>271.6</ele>
        <time>2024-05-17T11:56:39Z</time>
      </trkpt>
      <trkpt lat="44.69505" lon="5.19784">
        <ele>271.6</ele>
        <time>2024-05-17T11:56:40Z</time>
      </trkpt>
      <trkpt lat="44.69505" lon="5.19769">
        <ele>271.6</ele>
        <time>2024-05-17T11:56:41Z</time>
      </trkpt>
      <trkpt lat="44.69505" lon="5.19765">
        <ele>271.6</ele>
        <time>2024-05-17T11:56:42Z</time>
      </trkpt>
      <trkpt lat="44.69505" lon="5.19753">
        <ele>271.4</ele>
        <time>2024-05-17T11:56:43Z</time>
      </trkpt>
      <trkpt lat="44.69506" lon="5.19749">
        <ele>271.3</ele>
        <time>2024-05-17T11:56:44Z</time>
      </trkpt>
      <trkpt lat="44.69507" lon="5.19741">
        <ele>271</ele>
        <time>2024-05-17T11:56:45Z</time>
      </trkpt>
      <trkpt lat="44.69508" lon="5.19734">
        <ele>270.8</ele>
        <time>2024-05-17T11:56:46Z</time>
      </trkpt>
      <trkpt lat="44.6951" lon="5.19729">
        <ele>270.5</ele>
        <time>2024-05-17T11:56:47Z</time>
      </trkpt>
      <trkpt lat="44.69512" lon="5.19723">
        <ele>269.9</ele>
        <time>2024-05-17T11:56:48Z</time>
      </trkpt>
      <trkpt lat="44.69516" lon="5.19719">
        <ele>269.4</ele>
        <time>2024-05-17T11:56:49Z</time>
      </trkpt>
      <trkpt lat="44.6952" lon="5.19717">
        <ele>268.8</ele>
        <time>2024-05-17T11:56:50Z</time>
      </trkpt>
      <trkpt lat="44.69523" lon="5.19716">
        <ele>268.5</ele>
        <time>2024-05-17T11:56:51Z</time>
      </trkpt>
      <trkpt lat="44.69525" lon="5.19716">
        <ele>268.5</ele>
        <time>2024-05-17T11:56:52Z</time>
      </trkpt>
      <trkpt lat="44.69527" lon="5.19715">
        <ele>268.3</ele>
        <time>2024-05-17T11:56:53Z</time>
      </trkpt>
      <trkpt lat="44.6953" lon="5.19716">
        <ele>268.1</ele>
        <time>2024-05-17T11:56:54Z</time>
      </trkpt>
      <trkpt lat="44.69535" lon="5.19716">
        <ele>267.8</ele>
        <time>2024-05-17T11:56:55Z</time>
      </trkpt>
      <trkpt lat="44.69536" lon="5.19717">
        <ele>267.7</ele>
        <time>2024-05-17T11:56:56Z</time>
      </trkpt>
      <trkpt lat="44.69541" lon="5.19717">
        <ele>267.4</ele>
        <time>2024-05-17T11:56:57Z</time>
      </trkpt>
      <trkpt lat="44.69542" lon="5.19718">
        <ele>267.3</ele>
        <time>2024-05-17T11:56:58Z</time>
      </trkpt>
      <trkpt lat="44.69545" lon="5.19719">
        <ele>267.1</ele>
        <time>2024-05-17T11:56:59Z</time>
      </trkpt>
      <trkpt lat="44.69547" lon="5.19719">
        <ele>267</ele>
        <time>2024-05-17T11:57:00Z</time>
      </trkpt>
      <trkpt lat="44.69549" lon="5.1972">
        <ele>266.9</ele>
        <time>2024-05-17T11:57:01Z</time>
      </trkpt>
      <trkpt lat="44.69553" lon="5.1972">
        <ele>266.6</ele>
        <time>2024-05-17T11:57:02Z</time>
      </trkpt>
      <trkpt lat="44.69555" lon="5.1972">
        <ele>266.6</ele>
        <time>2024-05-17T11:57:03Z</time>
      </trkpt>
      <trkpt lat="44.69557" lon="5.1972">
        <ele>266.4</ele>
        <time>2024-05-17T11:57:04Z</time>
      </trkpt>
      <trkpt lat="44.69561" lon="5.1972">
        <ele>266.3</ele>
        <time>2024-05-17T11:57:05Z</time>
      </trkpt>
      <trkpt lat="44.69562" lon="5.1972">
        <ele>266.2</ele>
        <time>2024-05-17T11:57:06Z</time>
      </trkpt>
      <trkpt lat="44.69565" lon="5.19721">
        <ele>266.1</ele>
        <time>2024-05-17T11:57:07Z</time>
      </trkpt>
      <trkpt lat="44.69567" lon="5.19721">
        <ele>266</ele>
        <time>2024-05-17T11:57:08Z</time>
      </trkpt>
      <trkpt lat="44.69569" lon="5.19721">
        <ele>266</ele>
        <time>2024-05-17T11:57:09Z</time>
      </trkpt>
      <trkpt lat="44.69573" lon="5.19722">
        <ele>266</ele>
        <time>2024-05-17T11:57:10Z</time>
      </trkpt>
      <trkpt lat="44.69575" lon="5.19722">
        <ele>265.9</ele>
        <time>2024-05-17T11:57:11Z</time>
      </trkpt>
      <trkpt lat="44.69577" lon="5.19723">
        <ele>265.9</ele>
        <time>2024-05-17T11:57:12Z</time>
      </trkpt>
      <trkpt lat="44.69579" lon="5.19722">
        <ele>265.9</ele>
        <time>2024-05-17T11:57:13Z</time>
      </trkpt>
      <trkpt lat="44.69581" lon="5.19722">
        <ele>265.9</ele>
        <time>2024-05-17T11:57:14Z</time>
      </trkpt>
      <trkpt lat="44.69584" lon="5.19722">
        <ele>265.9</ele>
        <time>2024-05-17T11:57:15Z</time>
      </trkpt>
      <trkpt lat="44.69585" lon="5.19722">
        <ele>265.9</ele>
        <time>2024-05-17T11:57:16Z</time>
      </trkpt>
      <trkpt lat="44.69588" lon="5.19721">
        <ele>265.9</ele>
        <time>2024-05-17T11:57:17Z</time>
      </trkpt>
      <trkpt lat="44.69592" lon="5.1972">
        <ele>266</ele>
        <time>2024-05-17T11:57:18Z</time>
      </trkpt>
      <trkpt lat="44.69593" lon="5.1972">
        <ele>266</ele>
        <time>2024-05-17T11:57:19Z</time>
      </trkpt>
      <trkpt lat="44.69595" lon="5.1972">
        <ele>266</ele>
        <time>2024-05-17T11:57:20Z</time>
      </trkpt>
      <trkpt lat="44.69598" lon="5.19719">
        <ele>266</ele>
        <time>2024-05-17T11:57:21Z</time>
      </trkpt>
      <trkpt lat="44.696" lon="5.19719">
        <ele>266</ele>
        <time>2024-05-17T11:57:22Z</time>
      </trkpt>
      <trkpt lat="44.69602" lon="5.19718">
        <ele>266</ele>
        <time>2024-05-17T11:57:23Z</time>
      </trkpt>
      <trkpt lat="44.69604" lon="5.19718">
        <ele>266.1</ele>
        <time>2024-05-17T11:57:24Z</time>
      </trkpt>
      <trkpt lat="44.69605" lon="5.19718">
        <ele>266.1</ele>
        <time>2024-05-17T11:57:25Z</time>
      </trkpt>
      <trkpt lat="44.69607" lon="5.19719">
        <ele>266.1</ele>
        <time>2024-05-17T11:57:26Z</time>
      </trkpt>
      <trkpt lat="44.69608" lon="5.19718">
        <ele>266.1</ele>
        <time>2024-05-17T11:57:27Z</time>
      </trkpt>
      <trkpt lat="44.69609" lon="5.19717">
        <ele>266.2</ele>
        <time>2024-05-17T11:57:28Z</time>
      </trkpt>
      <trkpt lat="44.6961" lon="5.19716">
        <ele>266.2</ele>
        <time>2024-05-17T11:57:29Z</time>
      </trkpt>
      <trkpt lat="44.69613" lon="5.19717">
        <ele>266.2</ele>
        <time>2024-05-17T11:57:30Z</time>
      </trkpt>
      <trkpt lat="44.69614" lon="5.19716">
        <ele>266.3</ele>
        <time>2024-05-17T11:57:31Z</time>
      </trkpt>
      <trkpt lat="44.69616" lon="5.19716">
        <ele>266.3</ele>
        <time>2024-05-17T11:57:32Z</time>
      </trkpt>
      <trkpt lat="44.69617" lon="5.19716">
        <ele>266.3</ele>
        <time>2024-05-17T12:24:17Z</time>
      </trkpt>
      <trkpt lat="44.69618" lon="5.19716">
        <ele>266.3</ele>
        <time>2024-05-17T12:24:18Z</time>
      </trkpt>
      <trkpt lat="44.6962" lon="5.19713">
        <ele>266.4</ele>
        <time>2024-05-17T12:24:19Z</time>
      </trkpt>
      <trkpt lat="44.69624" lon="5.19711">
        <ele>266.5</ele>
        <time>2024-05-17T12:24:20Z</time>
      </trkpt>
      <trkpt lat="44.69625" lon="5.1971">
        <ele>266.5</ele>
        <time>2024-05-17T12:24:21Z</time>
      </trkpt>
      <trkpt lat="44.69627" lon="5.19708">
        <ele>266.6</ele>
        <time>2024-05-17T12:24:22Z</time>
      </trkpt>
      <trkpt lat="44.69628" lon="5.19707">
        <ele>266.6</ele>
        <time>2024-05-17T12:24:23Z</time>
      </trkpt>
      <trkpt lat="44.69631" lon="5.19705">
        <ele>266.7</ele>
        <time>2024-05-17T12:24:24Z</time>
      </trkpt>
      <trkpt lat="44.69632" lon="5.19704">
        <ele>266.7</ele>
        <time>2024-05-17T12:24:25Z</time>
      </trkpt>
      <trkpt lat="44.69635" lon="5.19704">
        <ele>266.8</ele>
        <time>2024-05-17T12:24:26Z</time>
      </trkpt>
      <trkpt lat="44.69636" lon="5.19703">
        <ele>266.9</ele>
        <time>2024-05-17T12:24:27Z</time>
      </trkpt>
      <trkpt lat="44.6964" lon="5.19702">
        <ele>267</ele>
        <time>2024-05-17T12:24:28Z</time>
      </trkpt>
      <trkpt lat="44.69642" lon="5.19701">
        <ele>267</ele>
        <time>2024-05-17T12:24:29Z</time>
      </trkpt>
      <trkpt lat="44.69645" lon="5.197">
        <ele>267.1</ele>
        <time>2024-05-17T12:24:30Z</time>
      </trkpt>
      <trkpt lat="44.69649" lon="5.19699">
        <ele>267.2</ele>
        <time>2024-05-17T12:24:31Z</time>
      </trkpt>
      <trkpt lat="44.6965" lon="5.19699">
        <ele>267.2</ele>
        <time>2024-05-17T12:24:32Z</time>
      </trkpt>
      <trkpt lat="44.69652" lon="5.19698">
        <ele>267.2</ele>
        <time>2024-05-17T12:24:33Z</time>
      </trkpt>
      <trkpt lat="44.69653" lon="5.19697">
        <ele>267.2</ele>
        <time>2024-05-17T12:24:34Z</time>
      </trkpt>
      <trkpt lat="44.69654" lon="5.19691">
        <ele>267.2</ele>
        <time>2024-05-17T12:24:35Z</time>
      </trkpt>
      <trkpt lat="44.69655" lon="5.19689">
        <ele>267.1</ele>
        <time>2024-05-17T12:24:36Z</time>
      </trkpt>
      <trkpt lat="44.69655" lon="5.19685">
        <ele>267</ele>
        <time>2024-05-17T12:24:37Z</time>
      </trkpt>
      <trkpt lat="44.69654" lon="5.1968">
        <ele>266.9</ele>
        <time>2024-05-17T12:24:38Z</time>
      </trkpt>
      <trkpt lat="44.69653" lon="5.19676">
        <ele>266.8</ele>
        <time>2024-05-17T12:24:39Z</time>
      </trkpt>
      <trkpt lat="44.69652" lon="5.19671">
        <ele>266.7</ele>
        <time>2024-05-17T12:24:40Z</time>
      </trkpt>
      <trkpt lat="44.69651" lon="5.19666">
        <ele>266.6</ele>
        <time>2024-05-17T12:24:41Z</time>
      </trkpt>
      <trkpt lat="44.6965" lon="5.19661">
        <ele>266.5</ele>
        <time>2024-05-17T12:24:42Z</time>
      </trkpt>
      <trkpt lat="44.69648" lon="5.19656">
        <ele>266.4</ele>
        <time>2024-05-17T12:24:43Z</time>
      </trkpt>
      <trkpt lat="44.69647" lon="5.1965">
        <ele>266.3</ele>
        <time>2024-05-17T12:24:44Z</time>
      </trkpt>
      <trkpt lat="44.69648" lon="5.19645">
        <ele>266.3</ele>
        <time>2024-05-17T12:24:45Z</time>
      </trkpt>
      <trkpt lat="44.69647" lon="5.1964">
        <ele>266.2</ele>
        <time>2024-05-17T12:24:46Z</time>
      </trkpt>
      <trkpt lat="44.69646" lon="5.19632">
        <ele>266.1</ele>
        <time>2024-05-17T12:24:47Z</time>
      </trkpt>
      <trkpt lat="44.69647" lon="5.19629">
        <ele>266</ele>
        <time>2024-05-17T12:24:48Z</time>
      </trkpt>
      <trkpt lat="44.69649" lon="5.19619">
        <ele>265.9</ele>
        <time>2024-05-17T12:24:49Z</time>
      </trkpt>
      <trkpt lat="44.6965" lon="5.19616">
        <ele>265.9</ele>
        <time>2024-05-17T12:24:50Z</time>
      </trkpt>
      <trkpt lat="44.69651" lon="5.1961">
        <ele>265.8</ele>
        <time>2024-05-17T12:24:51Z</time>
      </trkpt>
      <trkpt lat="44.69653" lon="5.19603">
        <ele>265.8</ele>
        <time>2024-05-17T12:24:52Z</time>
      </trkpt>
      <trkpt lat="44.69655" lon="5.19597">
        <ele>265.7</ele>
        <time>2024-05-17T12:24:53Z</time>
      </trkpt>
      <trkpt lat="44.69659" lon="5.19587">
        <ele>265.6</ele>
        <time>2024-05-17T12:24:54Z</time>
      </trkpt>
      <trkpt lat="44.6966" lon="5.19584">
        <ele>265.6</ele>
        <time>2024-05-17T12:24:55Z</time>
      </trkpt>
      <trkpt lat="44.69662" lon="5.19574">
        <ele>265.5</ele>
        <time>2024-05-17T12:24:56Z</time>
      </trkpt>
      <trkpt lat="44.69662" lon="5.19571">
        <ele>265.5</ele>
        <time>2024-05-17T12:24:57Z</time>
      </trkpt>
      <trkpt lat="44.69663" lon="5.19562">
        <ele>265.5</ele>
        <time>2024-05-17T12:24:58Z</time>
      </trkpt>
      <trkpt lat="44.69663" lon="5.19559">
        <ele>265.4</ele>
        <time>2024-05-17T12:24:59Z</time>
      </trkpt>
      <trkpt lat="44.69664" lon="5.19551">
        <ele>265.4</ele>
        <time>2024-05-17T12:25:00Z</time>
      </trkpt>
      <trkpt lat="44.69664" lon="5.19548">
        <ele>265.4</ele>
        <time>2024-05-17T12:25:01Z</time>
      </trkpt>
      <trkpt lat="44.69665" lon="5.19542">
        <ele>265.3</ele>
        <time>2024-05-17T12:25:02Z</time>
      </trkpt>
      <trkpt lat="44.69666" lon="5.19533">
        <ele>265.3</ele>
        <time>2024-05-17T12:25:03Z</time>
      </trkpt>
      <trkpt lat="44.69666" lon="5.1953">
        <ele>265.2</ele>
        <time>2024-05-17T12:25:04Z</time>
      </trkpt>
      <trkpt lat="44.69664" lon="5.19523">
        <ele>265.2</ele>
        <time>2024-05-17T12:25:05Z</time>
      </trkpt>
      <trkpt lat="44.69664" lon="5.1952">
        <ele>265.1</ele>
        <time>2024-05-17T12:25:06Z</time>
      </trkpt>
      <trkpt lat="44.69661" lon="5.19511">
        <ele>265</ele>
        <time>2024-05-17T12:25:07Z</time>
      </trkpt>
      <trkpt lat="44.6966" lon="5.19507">
        <ele>264.9</ele>
        <time>2024-05-17T12:25:08Z</time>
      </trkpt>
      <trkpt lat="44.69658" lon="5.19497">
        <ele>264.8</ele>
        <time>2024-05-17T12:25:09Z</time>
      </trkpt>
      <trkpt lat="44.69657" lon="5.19493">
        <ele>264.7</ele>
        <time>2024-05-17T12:25:10Z</time>
      </trkpt>
      <trkpt lat="44.69655" lon="5.19486">
        <ele>264.7</ele>
        <time>2024-05-17T12:25:11Z</time>
      </trkpt>
      <trkpt lat="44.69654" lon="5.1948">
        <ele>264.6</ele>
        <time>2024-05-17T12:25:12Z</time>
      </trkpt>
      <trkpt lat="44.69652" lon="5.19473">
        <ele>264.6</ele>
        <time>2024-05-17T12:25:13Z</time>
      </trkpt>
      <trkpt lat="44.69648" lon="5.19465">
        <ele>264.6</ele>
        <time>2024-05-17T12:25:14Z</time>
      </trkpt>
      <trkpt lat="44.69647" lon="5.19462">
        <ele>264.6</ele>
        <time>2024-05-17T12:25:15Z</time>
      </trkpt>
      <trkpt lat="44.69646" lon="5.19453">
        <ele>264.6</ele>
        <time>2024-05-17T12:25:16Z</time>
      </trkpt>
      <trkpt lat="44.69645" lon="5.19451">
        <ele>264.6</ele>
        <time>2024-05-17T12:25:17Z</time>
      </trkpt>
      <trkpt lat="44.69643" lon="5.19443">
        <ele>264.6</ele>
        <time>2024-05-17T12:25:18Z</time>
      </trkpt>
      <trkpt lat="44.69642" lon="5.19441">
        <ele>264.6</ele>
        <time>2024-05-17T12:25:19Z</time>
      </trkpt>
      <trkpt lat="44.6964" lon="5.19436">
        <ele>264.7</ele>
        <time>2024-05-17T12:25:20Z</time>
      </trkpt>
      <trkpt lat="44.69637" lon="5.19431">
        <ele>264.7</ele>
        <time>2024-05-17T12:25:21Z</time>
      </trkpt>
      <trkpt lat="44.69635" lon="5.19426">
        <ele>264.8</ele>
        <time>2024-05-17T12:25:22Z</time>
      </trkpt>
      <trkpt lat="44.69633" lon="5.19422">
        <ele>264.9</ele>
        <time>2024-05-17T12:25:23Z</time>
      </trkpt>
      <trkpt lat="44.69631" lon="5.19417">
        <ele>264.9</ele>
        <time>2024-05-17T12:25:24Z</time>
      </trkpt>
      <trkpt lat="44.69628" lon="5.19412">
        <ele>265</ele>
        <time>2024-05-17T12:25:25Z</time>
      </trkpt>
      <trkpt lat="44.69626" lon="5.19408">
        <ele>265</ele>
        <time>2024-05-17T12:25:26Z</time>
      </trkpt>
      <trkpt lat="44.69625" lon="5.19404">
        <ele>265.1</ele>
        <time>2024-05-17T12:25:27Z</time>
      </trkpt>
      <trkpt lat="44.69623" lon="5.19399">
        <ele>265.1</ele>
        <time>2024-05-17T12:25:28Z</time>
      </trkpt>
      <trkpt lat="44.69622" lon="5.19394">
        <ele>265.1</ele>
        <time>2024-05-17T12:25:29Z</time>
      </trkpt>
      <trkpt lat="44.6962" lon="5.19388">
        <ele>265.2</ele>
        <time>2024-05-17T12:25:30Z</time>
      </trkpt>
      <trkpt lat="44.69619" lon="5.19385">
        <ele>265.2</ele>
        <time>2024-05-17T12:25:31Z</time>
      </trkpt>
      <trkpt lat="44.69616" lon="5.19378">
        <ele>265.2</ele>
        <time>2024-05-17T12:25:32Z</time>
      </trkpt>
      <trkpt lat="44.69615" lon="5.19375">
        <ele>265.2</ele>
        <time>2024-05-17T12:25:33Z</time>
      </trkpt>
      <trkpt lat="44.69612" lon="5.19367">
        <ele>265.3</ele>
        <time>2024-05-17T12:25:34Z</time>
      </trkpt>
      <trkpt lat="44.69612" lon="5.19365">
        <ele>265.3</ele>
        <time>2024-05-17T12:25:35Z</time>
      </trkpt>
      <trkpt lat="44.6961" lon="5.19356">
        <ele>265.3</ele>
        <time>2024-05-17T12:25:36Z</time>
      </trkpt>
      <trkpt lat="44.6961" lon="5.19353">
        <ele>265.3</ele>
        <time>2024-05-17T12:25:37Z</time>
      </trkpt>
      <trkpt lat="44.69608" lon="5.19345">
        <ele>265.3</ele>
        <time>2024-05-17T12:25:38Z</time>
      </trkpt>
      <trkpt lat="44.69608" lon="5.19342">
        <ele>265.3</ele>
        <time>2024-05-17T12:25:39Z</time>
      </trkpt>
      <trkpt lat="44.69606" lon="5.19333">
        <ele>265.3</ele>
        <time>2024-05-17T12:25:40Z</time>
      </trkpt>
      <trkpt lat="44.69606" lon="5.19331">
        <ele>265.3</ele>
        <time>2024-05-17T12:25:41Z</time>
      </trkpt>
      <trkpt lat="44.69604" lon="5.19325">
        <ele>265.3</ele>
        <time>2024-05-17T12:25:42Z</time>
      </trkpt>
      <trkpt lat="44.69602" lon="5.19319">
        <ele>265.3</ele>
        <time>2024-05-17T12:25:43Z</time>
      </trkpt>
      <trkpt lat="44.696" lon="5.19313">
        <ele>265.3</ele>
        <time>2024-05-17T12:25:44Z</time>
      </trkpt>
      <trkpt lat="44.69598" lon="5.19303">
        <ele>265.2</ele>
        <time>2024-05-17T12:25:45Z</time>
      </trkpt>
      <trkpt lat="44.69598" lon="5.193">
        <ele>265.2</ele>
        <time>2024-05-17T12:25:46Z</time>
      </trkpt>
      <trkpt lat="44.69596" lon="5.1929">
        <ele>265.2</ele>
        <time>2024-05-17T12:25:47Z</time>
      </trkpt>
      <trkpt lat="44.69595" lon="5.19287">
        <ele>265.2</ele>
        <time>2024-05-17T12:25:48Z</time>
      </trkpt>
      <trkpt lat="44.69594" lon="5.19277">
        <ele>265.1</ele>
        <time>2024-05-17T12:25:49Z</time>
      </trkpt>
      <trkpt lat="44.69593" lon="5.19274">
        <ele>265.1</ele>
        <time>2024-05-17T12:25:50Z</time>
      </trkpt>
      <trkpt lat="44.69592" lon="5.19267">
        <ele>265.1</ele>
        <time>2024-05-17T12:25:51Z</time>
      </trkpt>
      <trkpt lat="44.69592" lon="5.1926">
        <ele>265</ele>
        <time>2024-05-17T12:25:52Z</time>
      </trkpt>
      <trkpt lat="44.69591" lon="5.19253">
        <ele>265</ele>
        <time>2024-05-17T12:25:53Z</time>
      </trkpt>
      <trkpt lat="44.6959" lon="5.19246">
        <ele>265</ele>
        <time>2024-05-17T12:25:54Z</time>
      </trkpt>
      <trkpt lat="44.69588" lon="5.19239">
        <ele>264.9</ele>
        <time>2024-05-17T12:25:55Z</time>
      </trkpt>
      <trkpt lat="44.69587" lon="5.19232">
        <ele>264.8</ele>
        <time>2024-05-17T12:25:56Z</time>
      </trkpt>
      <trkpt lat="44.69584" lon="5.19222">
        <ele>264.7</ele>
        <time>2024-05-17T12:25:57Z</time>
      </trkpt>
      <trkpt lat="44.69583" lon="5.19218">
        <ele>264.7</ele>
        <time>2024-05-17T12:25:58Z</time>
      </trkpt>
      <trkpt lat="44.69581" lon="5.19208">
        <ele>264.6</ele>
        <time>2024-05-17T12:25:59Z</time>
      </trkpt>
      <trkpt lat="44.69581" lon="5.19204">
        <ele>264.6</ele>
        <time>2024-05-17T12:26:00Z</time>
      </trkpt>
      <trkpt lat="44.69578" lon="5.19194">
        <ele>264.4</ele>
        <time>2024-05-17T12:26:01Z</time>
      </trkpt>
      <trkpt lat="44.69578" lon="5.1919">
        <ele>264.4</ele>
        <time>2024-05-17T12:26:02Z</time>
      </trkpt>
      <trkpt lat="44.69576" lon="5.19183">
        <ele>264.3</ele>
        <time>2024-05-17T12:26:03Z</time>
      </trkpt>
      <trkpt lat="44.69574" lon="5.19175">
        <ele>264.2</ele>
        <time>2024-05-17T12:26:04Z</time>
      </trkpt>
      <trkpt lat="44.69573" lon="5.19168">
        <ele>264.1</ele>
        <time>2024-05-17T12:26:05Z</time>
      </trkpt>
      <trkpt lat="44.69571" lon="5.1916">
        <ele>264</ele>
        <time>2024-05-17T12:26:06Z</time>
      </trkpt>
      <trkpt lat="44.69569" lon="5.19153">
        <ele>264</ele>
        <time>2024-05-17T12:26:07Z</time>
      </trkpt>
      <trkpt lat="44.69567" lon="5.19146">
        <ele>263.9</ele>
        <time>2024-05-17T12:26:08Z</time>
      </trkpt>
      <trkpt lat="44.69565" lon="5.19138">
        <ele>263.9</ele>
        <time>2024-05-17T12:26:09Z</time>
      </trkpt>
      <trkpt lat="44.69562" lon="5.19127">
        <ele>263.9</ele>
        <time>2024-05-17T12:26:10Z</time>
      </trkpt>
      <trkpt lat="44.69562" lon="5.19123">
        <ele>263.9</ele>
        <time>2024-05-17T12:26:11Z</time>
      </trkpt>
      <trkpt lat="44.69561" lon="5.19116">
        <ele>263.9</ele>
        <time>2024-05-17T12:26:12Z</time>
      </trkpt>
      <trkpt lat="44.6956" lon="5.19105">
        <ele>264</ele>
        <time>2024-05-17T12:26:13Z</time>
      </trkpt>
      <trkpt lat="44.6956" lon="5.19102">
        <ele>264</ele>
        <time>2024-05-17T12:26:14Z</time>
      </trkpt>
      <trkpt lat="44.69559" lon="5.19092">
        <ele>264</ele>
        <time>2024-05-17T12:26:15Z</time>
      </trkpt>
      <trkpt lat="44.69558" lon="5.19089">
        <ele>264</ele>
        <time>2024-05-17T12:26:16Z</time>
      </trkpt>
      <trkpt lat="44.69556" lon="5.19079">
        <ele>264</ele>
        <time>2024-05-17T12:26:17Z</time>
      </trkpt>
      <trkpt lat="44.69556" lon="5.19076">
        <ele>264</ele>
        <time>2024-05-17T12:26:18Z</time>
      </trkpt>
      <trkpt lat="44.69553" lon="5.19066">
        <ele>264</ele>
        <time>2024-05-17T12:26:19Z</time>
      </trkpt>
      <trkpt lat="44.69553" lon="5.19062">
        <ele>264</ele>
        <time>2024-05-17T12:26:20Z</time>
      </trkpt>
      <trkpt lat="44.6955" lon="5.19052">
        <ele>263.9</ele>
        <time>2024-05-17T12:26:21Z</time>
      </trkpt>
      <trkpt lat="44.69549" lon="5.19049">
        <ele>263.8</ele>
        <time>2024-05-17T12:26:22Z</time>
      </trkpt>
      <trkpt lat="44.69547" lon="5.19038">
        <ele>263.7</ele>
        <time>2024-05-17T12:26:23Z</time>
      </trkpt>
      <trkpt lat="44.69546" lon="5.19035">
        <ele>263.6</ele>
        <time>2024-05-17T12:26:24Z</time>
      </trkpt>
      <trkpt lat="44.69545" lon="5.19027">
        <ele>263.5</ele>
        <time>2024-05-17T12:26:25Z</time>
      </trkpt>
      <trkpt lat="44.69543" lon="5.1902">
        <ele>263.4</ele>
        <time>2024-05-17T12:26:26Z</time>
      </trkpt>
      <trkpt lat="44.69541" lon="5.19012">
        <ele>263.3</ele>
        <time>2024-05-17T12:26:27Z</time>
      </trkpt>
      <trkpt lat="44.69539" lon="5.19005">
        <ele>263.2</ele>
        <time>2024-05-17T12:26:28Z</time>
      </trkpt>
      <trkpt lat="44.69536" lon="5.18998">
        <ele>263</ele>
        <time>2024-05-17T12:26:29Z</time>
      </trkpt>
      <trkpt lat="44.69533" lon="5.18991">
        <ele>262.9</ele>
        <time>2024-05-17T12:26:30Z</time>
      </trkpt>
      <trkpt lat="44.69529" lon="5.1898">
        <ele>262.7</ele>
        <time>2024-05-17T12:26:31Z</time>
      </trkpt>
      <trkpt lat="44.69528" lon="5.18976">
        <ele>262.6</ele>
        <time>2024-05-17T12:26:32Z</time>
      </trkpt>
      <trkpt lat="44.69524" lon="5.18964">
        <ele>262.4</ele>
        <time>2024-05-17T12:26:33Z</time>
      </trkpt>
      <trkpt lat="44.69523" lon="5.1896">
        <ele>262.3</ele>
        <time>2024-05-17T12:26:34Z</time>
      </trkpt>
      <trkpt lat="44.6952" lon="5.18948">
        <ele>262.1</ele>
        <time>2024-05-17T12:26:35Z</time>
      </trkpt>
      <trkpt lat="44.69519" lon="5.18944">
        <ele>262</ele>
        <time>2024-05-17T12:26:36Z</time>
      </trkpt>
      <trkpt lat="44.69518" lon="5.18935">
        <ele>261.9</ele>
        <time>2024-05-17T12:26:37Z</time>
      </trkpt>
      <trkpt lat="44.69516" lon="5.18926">
        <ele>261.8</ele>
        <time>2024-05-17T12:26:38Z</time>
      </trkpt>
      <trkpt lat="44.69515" lon="5.18918">
        <ele>261.7</ele>
        <time>2024-05-17T12:26:39Z</time>
      </trkpt>
      <trkpt lat="44.69514" lon="5.18905">
        <ele>261.6</ele>
        <time>2024-05-17T12:26:40Z</time>
      </trkpt>
      <trkpt lat="44.69513" lon="5.189">
        <ele>261.5</ele>
        <time>2024-05-17T12:26:41Z</time>
      </trkpt>
      <trkpt lat="44.69512" lon="5.18887">
        <ele>261.4</ele>
        <time>2024-05-17T12:26:42Z</time>
      </trkpt>
      <trkpt lat="44.69512" lon="5.18882">
        <ele>261.4</ele>
        <time>2024-05-17T12:26:43Z</time>
      </trkpt>
      <trkpt lat="44.6951" lon="5.18869">
        <ele>261.3</ele>
        <time>2024-05-17T12:26:44Z</time>
      </trkpt>
      <trkpt lat="44.69509" lon="5.18865">
        <ele>261.3</ele>
        <time>2024-05-17T12:26:45Z</time>
      </trkpt>
      <trkpt lat="44.69508" lon="5.18857">
        <ele>261.3</ele>
        <time>2024-05-17T12:26:46Z</time>
      </trkpt>
      <trkpt lat="44.69506" lon="5.18848">
        <ele>261.3</ele>
        <time>2024-05-17T12:26:47Z</time>
      </trkpt>
      <trkpt lat="44.69504" lon="5.18836">
        <ele>261.3</ele>
        <time>2024-05-17T12:26:48Z</time>
      </trkpt>
      <trkpt lat="44.69503" lon="5.18832">
        <ele>261.3</ele>
        <time>2024-05-17T12:26:49Z</time>
      </trkpt>
      <trkpt lat="44.69501" lon="5.18825">
        <ele>261.3</ele>
        <time>2024-05-17T12:26:50Z</time>
      </trkpt>
      <trkpt lat="44.69499" lon="5.18817">
        <ele>261.4</ele>
        <time>2024-05-17T12:26:51Z</time>
      </trkpt>
      <trkpt lat="44.69497" lon="5.1881">
        <ele>261.4</ele>
        <time>2024-05-17T12:26:52Z</time>
      </trkpt>
      <trkpt lat="44.69496" lon="5.18802">
        <ele>261.4</ele>
        <time>2024-05-17T12:26:53Z</time>
      </trkpt>
      <trkpt lat="44.69494" lon="5.18795">
        <ele>261.5</ele>
        <time>2024-05-17T12:26:54Z</time>
      </trkpt>
      <trkpt lat="44.69492" lon="5.18789">
        <ele>261.5</ele>
        <time>2024-05-17T12:26:55Z</time>
      </trkpt>
      <trkpt lat="44.69489" lon="5.18779">
        <ele>261.6</ele>
        <time>2024-05-17T12:26:56Z</time>
      </trkpt>
      <trkpt lat="44.69489" lon="5.18775">
        <ele>261.6</ele>
        <time>2024-05-17T12:26:57Z</time>
      </trkpt>
      <trkpt lat="44.69486" lon="5.18765">
        <ele>261.6</ele>
        <time>2024-05-17T12:26:58Z</time>
      </trkpt>
      <trkpt lat="44.69486" lon="5.18762">
        <ele>261.6</ele>
        <time>2024-05-17T12:26:59Z</time>
      </trkpt>
      <trkpt lat="44.69483" lon="5.18752">
        <ele>261.6</ele>
        <time>2024-05-17T12:27:00Z</time>
      </trkpt>
      <trkpt lat="44.69482" lon="5.18749">
        <ele>261.6</ele>
        <time>2024-05-17T12:27:01Z</time>
      </trkpt>
      <trkpt lat="44.69479" lon="5.18739">
        <ele>261.6</ele>
        <time>2024-05-17T12:27:02Z</time>
      </trkpt>
      <trkpt lat="44.69478" lon="5.18735">
        <ele>261.6</ele>
        <time>2024-05-17T12:27:03Z</time>
      </trkpt>
      <trkpt lat="44.69475" lon="5.18725">
        <ele>261.6</ele>
        <time>2024-05-17T12:27:04Z</time>
      </trkpt>
      <trkpt lat="44.69474" lon="5.18722">
        <ele>261.6</ele>
        <time>2024-05-17T12:27:05Z</time>
      </trkpt>
      <trkpt lat="44.69471" lon="5.18711">
        <ele>261.5</ele>
        <time>2024-05-17T12:27:06Z</time>
      </trkpt>
      <trkpt lat="44.6947" lon="5.18708">
        <ele>261.5</ele>
        <time>2024-05-17T12:27:07Z</time>
      </trkpt>
      <trkpt lat="44.69468" lon="5.18701">
        <ele>261.4</ele>
        <time>2024-05-17T12:27:08Z</time>
      </trkpt>
      <trkpt lat="44.69466" lon="5.18694">
        <ele>261.3</ele>
        <time>2024-05-17T12:27:09Z</time>
      </trkpt>
      <trkpt lat="44.69464" lon="5.18686">
        <ele>261.2</ele>
        <time>2024-05-17T12:27:10Z</time>
      </trkpt>
      <trkpt lat="44.69461" lon="5.18675">
        <ele>261.1</ele>
        <time>2024-05-17T12:27:11Z</time>
      </trkpt>
      <trkpt lat="44.6946" lon="5.18671">
        <ele>261</ele>
        <time>2024-05-17T12:27:12Z</time>
      </trkpt>
      <trkpt lat="44.69459" lon="5.18659">
        <ele>260.8</ele>
        <time>2024-05-17T12:27:13Z</time>
      </trkpt>
      <trkpt lat="44.69458" lon="5.18654">
        <ele>260.7</ele>
        <time>2024-05-17T12:27:14Z</time>
      </trkpt>
      <trkpt lat="44.69457" lon="5.18642">
        <ele>260.5</ele>
        <time>2024-05-17T12:27:15Z</time>
      </trkpt>
      <trkpt lat="44.69457" lon="5.18637">
        <ele>260.4</ele>
        <time>2024-05-17T12:27:16Z</time>
      </trkpt>
      <trkpt lat="44.69456" lon="5.18624">
        <ele>260.2</ele>
        <time>2024-05-17T12:27:17Z</time>
      </trkpt>
      <trkpt lat="44.69456" lon="5.1862">
        <ele>260.1</ele>
        <time>2024-05-17T12:27:18Z</time>
      </trkpt>
      <trkpt lat="44.69455" lon="5.18611">
        <ele>259.9</ele>
        <time>2024-05-17T12:27:19Z</time>
      </trkpt>
      <trkpt lat="44.69454" lon="5.18602">
        <ele>259.8</ele>
        <time>2024-05-17T12:27:20Z</time>
      </trkpt>
      <trkpt lat="44.69454" lon="5.18594">
        <ele>259.7</ele>
        <time>2024-05-17T12:27:21Z</time>
      </trkpt>
      <trkpt lat="44.69453" lon="5.1858">
        <ele>259.5</ele>
        <time>2024-05-17T12:27:22Z</time>
      </trkpt>
      <trkpt lat="44.69452" lon="5.18576">
        <ele>259.4</ele>
        <time>2024-05-17T12:27:23Z</time>
      </trkpt>
      <trkpt lat="44.69451" lon="5.18562">
        <ele>259.2</ele>
        <time>2024-05-17T12:27:24Z</time>
      </trkpt>
      <trkpt lat="44.69451" lon="5.18557">
        <ele>259.1</ele>
        <time>2024-05-17T12:27:25Z</time>
      </trkpt>
      <trkpt lat="44.6945" lon="5.18548">
        <ele>259</ele>
        <time>2024-05-17T12:27:26Z</time>
      </trkpt>
      <trkpt lat="44.69449" lon="5.18534">
        <ele>258.9</ele>
        <time>2024-05-17T12:27:27Z</time>
      </trkpt>
      <trkpt lat="44.69449" lon="5.1853">
        <ele>258.9</ele>
        <time>2024-05-17T12:27:28Z</time>
      </trkpt>
      <trkpt lat="44.69448" lon="5.18521">
        <ele>258.8</ele>
        <time>2024-05-17T12:27:29Z</time>
      </trkpt>
      <trkpt lat="44.69448" lon="5.18507">
        <ele>258.8</ele>
        <time>2024-05-17T12:27:30Z</time>
      </trkpt>
      <trkpt lat="44.69448" lon="5.18503">
        <ele>258.8</ele>
        <time>2024-05-17T12:27:31Z</time>
      </trkpt>
      <trkpt lat="44.69448" lon="5.18494">
        <ele>258.8</ele>
        <time>2024-05-17T12:27:32Z</time>
      </trkpt>
      <trkpt lat="44.69449" lon="5.18486">
        <ele>258.8</ele>
        <time>2024-05-17T12:27:33Z</time>
      </trkpt>
      <trkpt lat="44.6945" lon="5.18478">
        <ele>258.8</ele>
        <time>2024-05-17T12:27:34Z</time>
      </trkpt>
      <trkpt lat="44.6945" lon="5.1847">
        <ele>258.8</ele>
        <time>2024-05-17T12:27:35Z</time>
      </trkpt>
      <trkpt lat="44.69451" lon="5.18463">
        <ele>258.9</ele>
        <time>2024-05-17T12:27:36Z</time>
      </trkpt>
      <trkpt lat="44.69452" lon="5.18455">
        <ele>259</ele>
        <time>2024-05-17T12:27:37Z</time>
      </trkpt>
      <trkpt lat="44.69453" lon="5.18448">
        <ele>259.1</ele>
        <time>2024-05-17T12:27:38Z</time>
      </trkpt>
      <trkpt lat="44.69456" lon="5.18439">
        <ele>259.2</ele>
        <time>2024-05-17T12:27:39Z</time>
      </trkpt>
      <trkpt lat="44.69456" lon="5.18436">
        <ele>259.2</ele>
        <time>2024-05-17T12:27:40Z</time>
      </trkpt>
      <trkpt lat="44.69459" lon="5.18427">
        <ele>259.3</ele>
        <time>2024-05-17T12:27:41Z</time>
      </trkpt>
      <trkpt lat="44.6946" lon="5.18424">
        <ele>259.4</ele>
        <time>2024-05-17T12:27:42Z</time>
      </trkpt>
      <trkpt lat="44.69462" lon="5.18416">
        <ele>259.4</ele>
        <time>2024-05-17T12:27:43Z</time>
      </trkpt>
      <trkpt lat="44.69463" lon="5.18413">
        <ele>259.5</ele>
        <time>2024-05-17T12:27:44Z</time>
      </trkpt>
      <trkpt lat="44.69466" lon="5.18405">
        <ele>259.5</ele>
        <time>2024-05-17T12:27:45Z</time>
      </trkpt>
      <trkpt lat="44.69467" lon="5.18402">
        <ele>259.5</ele>
        <time>2024-05-17T12:27:46Z</time>
      </trkpt>
      <trkpt lat="44.6947" lon="5.18394">
        <ele>259.6</ele>
        <time>2024-05-17T12:27:47Z</time>
      </trkpt>
      <trkpt lat="44.69471" lon="5.18392">
        <ele>259.6</ele>
        <time>2024-05-17T12:27:48Z</time>
      </trkpt>
      <trkpt lat="44.69475" lon="5.18384">
        <ele>259.8</ele>
        <time>2024-05-17T12:27:49Z</time>
      </trkpt>
      <trkpt lat="44.69477" lon="5.18381">
        <ele>259.8</ele>
        <time>2024-05-17T12:27:50Z</time>
      </trkpt>
      <trkpt lat="44.69481" lon="5.18375">
        <ele>259.9</ele>
        <time>2024-05-17T12:27:51Z</time>
      </trkpt>
      <trkpt lat="44.69482" lon="5.18373">
        <ele>260</ele>
        <time>2024-05-17T12:27:52Z</time>
      </trkpt>
      <trkpt lat="44.69485" lon="5.18369">
        <ele>260</ele>
        <time>2024-05-17T12:27:53Z</time>
      </trkpt>
      <trkpt lat="44.6949" lon="5.18365">
        <ele>260.1</ele>
        <time>2024-05-17T12:27:54Z</time>
      </trkpt>
      <trkpt lat="44.69492" lon="5.18364">
        <ele>260.1</ele>
        <time>2024-05-17T12:27:55Z</time>
      </trkpt>
      <trkpt lat="44.69497" lon="5.18362">
        <ele>260.2</ele>
        <time>2024-05-17T12:27:56Z</time>
      </trkpt>
      <trkpt lat="44.69499" lon="5.18361">
        <ele>260.3</ele>
        <time>2024-05-17T12:27:57Z</time>
      </trkpt>
      <trkpt lat="44.69506" lon="5.1836">
        <ele>260.4</ele>
        <time>2024-05-17T12:27:58Z</time>
      </trkpt>
      <trkpt lat="44.69508" lon="5.1836">
        <ele>260.5</ele>
        <time>2024-05-17T12:27:59Z</time>
      </trkpt>
      <trkpt lat="44.69514" lon="5.18359">
        <ele>260.6</ele>
        <time>2024-05-17T12:28:00Z</time>
      </trkpt>
      <trkpt lat="44.69516" lon="5.18359">
        <ele>260.7</ele>
        <time>2024-05-17T12:28:01Z</time>
      </trkpt>
      <trkpt lat="44.69522" lon="5.18358">
        <ele>260.9</ele>
        <time>2024-05-17T12:28:02Z</time>
      </trkpt>
      <trkpt lat="44.69524" lon="5.18358">
        <ele>260.9</ele>
        <time>2024-05-17T12:28:03Z</time>
      </trkpt>
      <trkpt lat="44.69528" lon="5.18357">
        <ele>261.1</ele>
        <time>2024-05-17T12:28:04Z</time>
      </trkpt>
      <trkpt lat="44.69533" lon="5.18357">
        <ele>261.3</ele>
        <time>2024-05-17T12:28:05Z</time>
      </trkpt>
      <trkpt lat="44.69535" lon="5.18357">
        <ele>261.4</ele>
        <time>2024-05-17T12:28:06Z</time>
      </trkpt>
      <trkpt lat="44.69541" lon="5.18357">
        <ele>261.6</ele>
        <time>2024-05-17T12:28:07Z</time>
      </trkpt>
      <trkpt lat="44.69543" lon="5.18357">
        <ele>261.7</ele>
        <time>2024-05-17T12:28:08Z</time>
      </trkpt>
      <trkpt lat="44.69549" lon="5.18357">
        <ele>261.9</ele>
        <time>2024-05-17T12:28:09Z</time>
      </trkpt>
      <trkpt lat="44.69551" lon="5.18356">
        <ele>262</ele>
        <time>2024-05-17T12:28:10Z</time>
      </trkpt>
      <trkpt lat="44.69554" lon="5.18356">
        <ele>262.2</ele>
        <time>2024-05-17T12:28:11Z</time>
      </trkpt>
      <trkpt lat="44.69559" lon="5.18356">
        <ele>262.4</ele>
        <time>2024-05-17T12:28:12Z</time>
      </trkpt>
      <trkpt lat="44.69563" lon="5.18356">
        <ele>262.7</ele>
        <time>2024-05-17T12:28:13Z</time>
      </trkpt>
      <trkpt lat="44.69567" lon="5.18357">
        <ele>262.9</ele>
        <time>2024-05-17T12:28:14Z</time>
      </trkpt>
      <trkpt lat="44.6957" lon="5.18358">
        <ele>263.1</ele>
        <time>2024-05-17T12:28:15Z</time>
      </trkpt>
      <trkpt lat="44.69573" lon="5.18357">
        <ele>263.3</ele>
        <time>2024-05-17T12:28:16Z</time>
      </trkpt>
      <trkpt lat="44.69575" lon="5.18355">
        <ele>263.3</ele>
        <time>2024-05-17T12:28:17Z</time>
      </trkpt>
      <trkpt lat="44.69576" lon="5.18353">
        <ele>263.2</ele>
        <time>2024-05-17T12:28:18Z</time>
      </trkpt>
      <trkpt lat="44.69578" lon="5.1835">
        <ele>263.2</ele>
        <time>2024-05-17T12:28:19Z</time>
      </trkpt>
      <trkpt lat="44.69578" lon="5.18346">
        <ele>263.1</ele>
        <time>2024-05-17T12:28:20Z</time>
      </trkpt>
      <trkpt lat="44.69578" lon="5.18338">
        <ele>263.1</ele>
        <time>2024-05-17T12:28:21Z</time>
      </trkpt>
      <trkpt lat="44.69578" lon="5.18336">
        <ele>263</ele>
        <time>2024-05-17T12:28:22Z</time>
      </trkpt>
      <trkpt lat="44.69578" lon="5.18327">
        <ele>263</ele>
        <time>2024-05-17T12:28:23Z</time>
      </trkpt>
      <trkpt lat="44.69577" lon="5.18324">
        <ele>262.9</ele>
        <time>2024-05-17T12:28:24Z</time>
      </trkpt>
      <trkpt lat="44.69577" lon="5.18314">
        <ele>262.8</ele>
        <time>2024-05-17T12:28:25Z</time>
      </trkpt>
      <trkpt lat="44.69576" lon="5.18311">
        <ele>262.8</ele>
        <time>2024-05-17T12:28:26Z</time>
      </trkpt>
      <trkpt lat="44.69575" lon="5.18301">
        <ele>262.7</ele>
        <time>2024-05-17T12:28:27Z</time>
      </trkpt>
      <trkpt lat="44.69575" lon="5.18297">
        <ele>262.6</ele>
        <time>2024-05-17T12:28:28Z</time>
      </trkpt>
      <trkpt lat="44.69574" lon="5.18287">
        <ele>262.6</ele>
        <time>2024-05-17T12:28:29Z</time>
      </trkpt>
      <trkpt lat="44.69574" lon="5.18283">
        <ele>262.5</ele>
        <time>2024-05-17T12:28:30Z</time>
      </trkpt>
      <trkpt lat="44.69573" lon="5.18276">
        <ele>262.5</ele>
        <time>2024-05-17T12:28:31Z</time>
      </trkpt>
      <trkpt lat="44.69572" lon="5.18269">
        <ele>262.4</ele>
        <time>2024-05-17T12:28:32Z</time>
      </trkpt>
      <trkpt lat="44.69572" lon="5.18262">
        <ele>262.4</ele>
        <time>2024-05-17T12:28:33Z</time>
      </trkpt>
      <trkpt lat="44.69571" lon="5.18255">
        <ele>262.3</ele>
        <time>2024-05-17T12:28:34Z</time>
      </trkpt>
      <trkpt lat="44.6957" lon="5.18247">
        <ele>262.3</ele>
        <time>2024-05-17T12:28:35Z</time>
      </trkpt>
      <trkpt lat="44.69569" lon="5.1824">
        <ele>262.2</ele>
        <time>2024-05-17T12:28:36Z</time>
      </trkpt>
      <trkpt lat="44.69569" lon="5.18232">
        <ele>262.2</ele>
        <time>2024-05-17T12:28:37Z</time>
      </trkpt>
      <trkpt lat="44.69568" lon="5.1822">
        <ele>262.1</ele>
        <time>2024-05-17T12:28:38Z</time>
      </trkpt>
      <trkpt lat="44.69567" lon="5.18217">
        <ele>262.1</ele>
        <time>2024-05-17T12:28:39Z</time>
      </trkpt>
      <trkpt lat="44.69566" lon="5.18205">
        <ele>262.1</ele>
        <time>2024-05-17T12:28:40Z</time>
      </trkpt>
      <trkpt lat="44.69565" lon="5.18201">
        <ele>262.1</ele>
        <time>2024-05-17T12:28:41Z</time>
      </trkpt>
      <trkpt lat="44.69564" lon="5.18189">
        <ele>262.1</ele>
        <time>2024-05-17T12:28:42Z</time>
      </trkpt>
      <trkpt lat="44.69564" lon="5.18185">
        <ele>262</ele>
        <time>2024-05-17T12:28:43Z</time>
      </trkpt>
      <trkpt lat="44.69563" lon="5.18173">
        <ele>262</ele>
        <time>2024-05-17T12:28:44Z</time>
      </trkpt>
      <trkpt lat="44.69563" lon="5.18169">
        <ele>262</ele>
        <time>2024-05-17T12:28:45Z</time>
      </trkpt>
      <trkpt lat="44.69562" lon="5.18161">
        <ele>262</ele>
        <time>2024-05-17T12:28:46Z</time>
      </trkpt>
      <trkpt lat="44.69562" lon="5.18153">
        <ele>262</ele>
        <time>2024-05-17T12:28:47Z</time>
      </trkpt>
      <trkpt lat="44.69561" lon="5.18145">
        <ele>262</ele>
        <time>2024-05-17T12:28:48Z</time>
      </trkpt>
      <trkpt lat="44.6956" lon="5.18134">
        <ele>262</ele>
        <time>2024-05-17T12:28:49Z</time>
      </trkpt>
      <trkpt lat="44.6956" lon="5.1813">
        <ele>262</ele>
        <time>2024-05-17T12:28:50Z</time>
      </trkpt>
      <trkpt lat="44.69558" lon="5.18119">
        <ele>261.9</ele>
        <time>2024-05-17T12:28:51Z</time>
      </trkpt>
      <trkpt lat="44.69558" lon="5.18115">
        <ele>261.9</ele>
        <time>2024-05-17T12:28:52Z</time>
      </trkpt>
      <trkpt lat="44.69557" lon="5.18103">
        <ele>261.8</ele>
        <time>2024-05-17T12:28:53Z</time>
      </trkpt>
      <trkpt lat="44.69556" lon="5.18099">
        <ele>261.8</ele>
        <time>2024-05-17T12:28:54Z</time>
      </trkpt>
      <trkpt lat="44.69556" lon="5.18091">
        <ele>261.8</ele>
        <time>2024-05-17T12:28:55Z</time>
      </trkpt>
      <trkpt lat="44.69556" lon="5.18083">
        <ele>261.7</ele>
        <time>2024-05-17T12:28:56Z</time>
      </trkpt>
      <trkpt lat="44.69555" lon="5.18076">
        <ele>261.7</ele>
        <time>2024-05-17T12:28:57Z</time>
      </trkpt>
      <trkpt lat="44.69554" lon="5.18068">
        <ele>261.6</ele>
        <time>2024-05-17T12:28:58Z</time>
      </trkpt>
      <trkpt lat="44.69553" lon="5.1806">
        <ele>261.6</ele>
        <time>2024-05-17T12:28:59Z</time>
      </trkpt>
      <trkpt lat="44.69552" lon="5.18048">
        <ele>261.5</ele>
        <time>2024-05-17T12:29:00Z</time>
      </trkpt>
      <trkpt lat="44.69552" lon="5.18044">
        <ele>261.5</ele>
        <time>2024-05-17T12:29:01Z</time>
      </trkpt>
      <trkpt lat="44.69551" lon="5.18036">
        <ele>261.5</ele>
        <time>2024-05-17T12:29:02Z</time>
      </trkpt>
      <trkpt lat="44.6955" lon="5.18028">
        <ele>261.4</ele>
        <time>2024-05-17T12:29:03Z</time>
      </trkpt>
      <trkpt lat="44.69549" lon="5.18016">
        <ele>261.4</ele>
        <time>2024-05-17T12:29:04Z</time>
      </trkpt>
      <trkpt lat="44.69549" lon="5.18012">
        <ele>261.4</ele>
        <time>2024-05-17T12:29:05Z</time>
      </trkpt>
      <trkpt lat="44.69547" lon="5.18">
        <ele>261.3</ele>
        <time>2024-05-17T12:29:06Z</time>
      </trkpt>
      <trkpt lat="44.69547" lon="5.17996">
        <ele>261.3</ele>
        <time>2024-05-17T12:29:07Z</time>
      </trkpt>
      <trkpt lat="44.69546" lon="5.17984">
        <ele>261.3</ele>
        <time>2024-05-17T12:29:08Z</time>
      </trkpt>
      <trkpt lat="44.69545" lon="5.1798">
        <ele>261.3</ele>
        <time>2024-05-17T12:29:09Z</time>
      </trkpt>
      <trkpt lat="44.69544" lon="5.17972">
        <ele>261.2</ele>
        <time>2024-05-17T12:29:10Z</time>
      </trkpt>
      <trkpt lat="44.69543" lon="5.1796">
        <ele>261.2</ele>
        <time>2024-05-17T12:29:11Z</time>
      </trkpt>
      <trkpt lat="44.69542" lon="5.17956">
        <ele>261.2</ele>
        <time>2024-05-17T12:29:12Z</time>
      </trkpt>
      <trkpt lat="44.69541" lon="5.17944">
        <ele>261.2</ele>
        <time>2024-05-17T12:29:13Z</time>
      </trkpt>
      <trkpt lat="44.69541" lon="5.1794">
        <ele>261.2</ele>
        <time>2024-05-17T12:29:14Z</time>
      </trkpt>
      <trkpt lat="44.69539" lon="5.17927">
        <ele>261.1</ele>
        <time>2024-05-17T12:29:15Z</time>
      </trkpt>
      <trkpt lat="44.69539" lon="5.17923">
        <ele>261.1</ele>
        <time>2024-05-17T12:29:16Z</time>
      </trkpt>
      <trkpt lat="44.69538" lon="5.17915">
        <ele>261.1</ele>
        <time>2024-05-17T12:29:17Z</time>
      </trkpt>
      <trkpt lat="44.69537" lon="5.17907">
        <ele>261</ele>
        <time>2024-05-17T12:29:18Z</time>
      </trkpt>
      <trkpt lat="44.69536" lon="5.17899">
        <ele>261</ele>
        <time>2024-05-17T12:29:19Z</time>
      </trkpt>
      <trkpt lat="44.69535" lon="5.17887">
        <ele>261</ele>
        <time>2024-05-17T12:29:20Z</time>
      </trkpt>
      <trkpt lat="44.69534" lon="5.17882">
        <ele>261</ele>
        <time>2024-05-17T12:29:21Z</time>
      </trkpt>
      <trkpt lat="44.69533" lon="5.1787">
        <ele>261</ele>
        <time>2024-05-17T12:29:22Z</time>
      </trkpt>
      <trkpt lat="44.69533" lon="5.17866">
        <ele>261</ele>
        <time>2024-05-17T12:29:23Z</time>
      </trkpt>
      <trkpt lat="44.69532" lon="5.17853">
        <ele>260.9</ele>
        <time>2024-05-17T12:29:24Z</time>
      </trkpt>
      <trkpt lat="44.69531" lon="5.17849">
        <ele>260.9</ele>
        <time>2024-05-17T12:29:25Z</time>
      </trkpt>
      <trkpt lat="44.6953" lon="5.17837">
        <ele>260.8</ele>
        <time>2024-05-17T12:29:26Z</time>
      </trkpt>
      <trkpt lat="44.6953" lon="5.17832">
        <ele>260.8</ele>
        <time>2024-05-17T12:29:27Z</time>
      </trkpt>
      <trkpt lat="44.69529" lon="5.17824">
        <ele>260.7</ele>
        <time>2024-05-17T12:29:28Z</time>
      </trkpt>
      <trkpt lat="44.69528" lon="5.17816">
        <ele>260.7</ele>
        <time>2024-05-17T12:29:29Z</time>
      </trkpt>
      <trkpt lat="44.69528" lon="5.17807">
        <ele>260.6</ele>
        <time>2024-05-17T12:29:30Z</time>
      </trkpt>
      <trkpt lat="44.69527" lon="5.17794">
        <ele>260.5</ele>
        <time>2024-05-17T12:29:31Z</time>
      </trkpt>
      <trkpt lat="44.69527" lon="5.1779">
        <ele>260.5</ele>
        <time>2024-05-17T12:29:32Z</time>
      </trkpt>
      <trkpt lat="44.69526" lon="5.17777">
        <ele>260.4</ele>
        <time>2024-05-17T12:29:33Z</time>
      </trkpt>
      <trkpt lat="44.69525" lon="5.17773">
        <ele>260.4</ele>
        <time>2024-05-17T12:29:34Z</time>
      </trkpt>
      <trkpt lat="44.69524" lon="5.1776">
        <ele>260.3</ele>
        <time>2024-05-17T12:29:35Z</time>
      </trkpt>
      <trkpt lat="44.69524" lon="5.17756">
        <ele>260.3</ele>
        <time>2024-05-17T12:29:36Z</time>
      </trkpt>
      <trkpt lat="44.69523" lon="5.17747">
        <ele>260.2</ele>
        <time>2024-05-17T12:29:37Z</time>
      </trkpt>
      <trkpt lat="44.69522" lon="5.17739">
        <ele>260.2</ele>
        <time>2024-05-17T12:29:38Z</time>
      </trkpt>
      <trkpt lat="44.69521" lon="5.1773">
        <ele>260.1</ele>
        <time>2024-05-17T12:29:39Z</time>
      </trkpt>
      <trkpt lat="44.6952" lon="5.17722">
        <ele>260</ele>
        <time>2024-05-17T12:29:40Z</time>
      </trkpt>
      <trkpt lat="44.6952" lon="5.17714">
        <ele>260</ele>
        <time>2024-05-17T12:29:41Z</time>
      </trkpt>
      <trkpt lat="44.69519" lon="5.17705">
        <ele>259.9</ele>
        <time>2024-05-17T12:29:42Z</time>
      </trkpt>
      <trkpt lat="44.69518" lon="5.17696">
        <ele>259.8</ele>
        <time>2024-05-17T12:29:43Z</time>
      </trkpt>
      <trkpt lat="44.69517" lon="5.17688">
        <ele>259.7</ele>
        <time>2024-05-17T12:29:44Z</time>
      </trkpt>
      <trkpt lat="44.69516" lon="5.17679">
        <ele>259.7</ele>
        <time>2024-05-17T12:29:45Z</time>
      </trkpt>
      <trkpt lat="44.69515" lon="5.17671">
        <ele>259.6</ele>
        <time>2024-05-17T12:29:46Z</time>
      </trkpt>
      <trkpt lat="44.69514" lon="5.17659">
        <ele>259.6</ele>
        <time>2024-05-17T12:29:47Z</time>
      </trkpt>
      <trkpt lat="44.69513" lon="5.17655">
        <ele>259.6</ele>
        <time>2024-05-17T12:29:48Z</time>
      </trkpt>
      <trkpt lat="44.69512" lon="5.17642">
        <ele>259.6</ele>
        <time>2024-05-17T12:29:49Z</time>
      </trkpt>
      <trkpt lat="44.69512" lon="5.17638">
        <ele>259.6</ele>
        <time>2024-05-17T12:29:50Z</time>
      </trkpt>
      <trkpt lat="44.69511" lon="5.17625">
        <ele>259.6</ele>
        <time>2024-05-17T12:29:51Z</time>
      </trkpt>
      <trkpt lat="44.6951" lon="5.17621">
        <ele>259.6</ele>
        <time>2024-05-17T12:29:52Z</time>
      </trkpt>
      <trkpt lat="44.69509" lon="5.17608">
        <ele>259.5</ele>
        <time>2024-05-17T12:29:53Z</time>
      </trkpt>
      <trkpt lat="44.69509" lon="5.17604">
        <ele>259.5</ele>
        <time>2024-05-17T12:29:54Z</time>
      </trkpt>
      <trkpt lat="44.69508" lon="5.17591">
        <ele>259.5</ele>
        <time>2024-05-17T12:29:55Z</time>
      </trkpt>
      <trkpt lat="44.69507" lon="5.17587">
        <ele>259.5</ele>
        <time>2024-05-17T12:29:56Z</time>
      </trkpt>
      <trkpt lat="44.69506" lon="5.17578">
        <ele>259.5</ele>
        <time>2024-05-17T12:29:57Z</time>
      </trkpt>
      <trkpt lat="44.69505" lon="5.1757">
        <ele>259.5</ele>
        <time>2024-05-17T12:29:58Z</time>
      </trkpt>
      <trkpt lat="44.69503" lon="5.17562">
        <ele>259.4</ele>
        <time>2024-05-17T12:29:59Z</time>
      </trkpt>
      <trkpt lat="44.69501" lon="5.1755">
        <ele>259.4</ele>
        <time>2024-05-17T12:30:00Z</time>
      </trkpt>
      <trkpt lat="44.695" lon="5.17546">
        <ele>259.4</ele>
        <time>2024-05-17T12:30:01Z</time>
      </trkpt>
      <trkpt lat="44.69498" lon="5.17534">
        <ele>259.4</ele>
        <time>2024-05-17T12:30:02Z</time>
      </trkpt>
      <trkpt lat="44.69497" lon="5.1753">
        <ele>259.4</ele>
        <time>2024-05-17T12:30:03Z</time>
      </trkpt>
      <trkpt lat="44.69495" lon="5.17518">
        <ele>259.4</ele>
        <time>2024-05-17T12:30:04Z</time>
      </trkpt>
      <trkpt lat="44.69494" lon="5.17514">
        <ele>259.4</ele>
        <time>2024-05-17T12:30:05Z</time>
      </trkpt>
      <trkpt lat="44.69491" lon="5.17502">
        <ele>259.4</ele>
        <time>2024-05-17T12:30:06Z</time>
      </trkpt>
      <trkpt lat="44.6949" lon="5.17498">
        <ele>259.4</ele>
        <time>2024-05-17T12:30:07Z</time>
      </trkpt>
      <trkpt lat="44.69488" lon="5.17486">
        <ele>259.4</ele>
        <time>2024-05-17T12:30:08Z</time>
      </trkpt>
      <trkpt lat="44.69487" lon="5.17482">
        <ele>259.4</ele>
        <time>2024-05-17T12:30:09Z</time>
      </trkpt>
      <trkpt lat="44.69485" lon="5.17475">
        <ele>259.4</ele>
        <time>2024-05-17T12:30:10Z</time>
      </trkpt>
      <trkpt lat="44.69483" lon="5.17467">
        <ele>259.4</ele>
        <time>2024-05-17T12:30:11Z</time>
      </trkpt>
      <trkpt lat="44.69481" lon="5.17459">
        <ele>259.4</ele>
        <time>2024-05-17T12:30:12Z</time>
      </trkpt>
      <trkpt lat="44.69478" lon="5.17447">
        <ele>259.4</ele>
        <time>2024-05-17T12:30:13Z</time>
      </trkpt>
      <trkpt lat="44.69477" lon="5.17443">
        <ele>259.4</ele>
        <time>2024-05-17T12:30:14Z</time>
      </trkpt>
      <trkpt lat="44.69475" lon="5.17431">
        <ele>259.4</ele>
        <time>2024-05-17T12:30:15Z</time>
      </trkpt>
      <trkpt lat="44.69474" lon="5.17427">
        <ele>259.4</ele>
        <time>2024-05-17T12:30:16Z</time>
      </trkpt>
      <trkpt lat="44.69471" lon="5.17415">
        <ele>259.4</ele>
        <time>2024-05-17T12:30:17Z</time>
      </trkpt>
      <trkpt lat="44.69471" lon="5.17411">
        <ele>259.4</ele>
        <time>2024-05-17T12:30:18Z</time>
      </trkpt>
      <trkpt lat="44.69469" lon="5.17402">
        <ele>259.4</ele>
        <time>2024-05-17T12:30:19Z</time>
      </trkpt>
      <trkpt lat="44.69467" lon="5.17394">
        <ele>259.3</ele>
        <time>2024-05-17T12:30:20Z</time>
      </trkpt>
      <trkpt lat="44.69465" lon="5.17386">
        <ele>259.3</ele>
        <time>2024-05-17T12:30:21Z</time>
      </trkpt>
      <trkpt lat="44.69464" lon="5.17379">
        <ele>259.3</ele>
        <time>2024-05-17T12:30:22Z</time>
      </trkpt>
      <trkpt lat="44.69462" lon="5.17371">
        <ele>259.3</ele>
        <time>2024-05-17T12:30:23Z</time>
      </trkpt>
      <trkpt lat="44.69461" lon="5.17363">
        <ele>259.3</ele>
        <time>2024-05-17T12:30:24Z</time>
      </trkpt>
      <trkpt lat="44.69459" lon="5.17356">
        <ele>259.3</ele>
        <time>2024-05-17T12:30:25Z</time>
      </trkpt>
      <trkpt lat="44.69458" lon="5.17348">
        <ele>259.3</ele>
        <time>2024-05-17T12:30:26Z</time>
      </trkpt>
      <trkpt lat="44.69456" lon="5.17341">
        <ele>259.3</ele>
        <time>2024-05-17T12:30:27Z</time>
      </trkpt>
      <trkpt lat="44.69455" lon="5.17333">
        <ele>259.3</ele>
        <time>2024-05-17T12:30:28Z</time>
      </trkpt>
      <trkpt lat="44.69453" lon="5.17322">
        <ele>259.3</ele>
        <time>2024-05-17T12:30:29Z</time>
      </trkpt>
      <trkpt lat="44.69452" lon="5.17319">
        <ele>259.3</ele>
        <time>2024-05-17T12:30:30Z</time>
      </trkpt>
      <trkpt lat="44.6945" lon="5.17308">
        <ele>259.3</ele>
        <time>2024-05-17T12:30:31Z</time>
      </trkpt>
      <trkpt lat="44.69449" lon="5.17304">
        <ele>259.3</ele>
        <time>2024-05-17T12:30:32Z</time>
      </trkpt>
      <trkpt lat="44.69447" lon="5.17293">
        <ele>259.2</ele>
        <time>2024-05-17T12:30:33Z</time>
      </trkpt>
      <trkpt lat="44.69446" lon="5.1729">
        <ele>259.2</ele>
        <time>2024-05-17T12:30:34Z</time>
      </trkpt>
      <trkpt lat="44.69444" lon="5.17279">
        <ele>259.2</ele>
        <time>2024-05-17T12:30:35Z</time>
      </trkpt>
      <trkpt lat="44.69443" lon="5.17275">
        <ele>259.2</ele>
        <time>2024-05-17T12:30:36Z</time>
      </trkpt>
      <trkpt lat="44.69441" lon="5.17265">
        <ele>259.2</ele>
        <time>2024-05-17T12:30:37Z</time>
      </trkpt>
      <trkpt lat="44.6944" lon="5.17261">
        <ele>259.2</ele>
        <time>2024-05-17T12:30:38Z</time>
      </trkpt>
      <trkpt lat="44.69437" lon="5.1725">
        <ele>259.1</ele>
        <time>2024-05-17T12:30:39Z</time>
      </trkpt>
      <trkpt lat="44.69437" lon="5.17247">
        <ele>259.1</ele>
        <time>2024-05-17T12:30:40Z</time>
      </trkpt>
      <trkpt lat="44.69435" lon="5.17236">
        <ele>259.1</ele>
        <time>2024-05-17T12:30:41Z</time>
      </trkpt>
      <trkpt lat="44.69434" lon="5.17232">
        <ele>259.1</ele>
        <time>2024-05-17T12:30:42Z</time>
      </trkpt>
      <trkpt lat="44.69432" lon="5.17222">
        <ele>259.1</ele>
        <time>2024-05-17T12:30:43Z</time>
      </trkpt>
      <trkpt lat="44.69431" lon="5.17219">
        <ele>259.1</ele>
        <time>2024-05-17T12:30:44Z</time>
      </trkpt>
      <trkpt lat="44.69428" lon="5.17208">
        <ele>259.1</ele>
        <time>2024-05-17T12:30:45Z</time>
      </trkpt>
      <trkpt lat="44.69427" lon="5.17205">
        <ele>259.1</ele>
        <time>2024-05-17T12:30:46Z</time>
      </trkpt>
      <trkpt lat="44.69425" lon="5.17195">
        <ele>259</ele>
        <time>2024-05-17T12:30:47Z</time>
      </trkpt>
      <trkpt lat="44.69424" lon="5.17191">
        <ele>259</ele>
        <time>2024-05-17T12:30:48Z</time>
      </trkpt>
      <trkpt lat="44.69422" lon="5.17181">
        <ele>259</ele>
        <time>2024-05-17T12:30:49Z</time>
      </trkpt>
      <trkpt lat="44.69421" lon="5.17178">
        <ele>259</ele>
        <time>2024-05-17T12:30:50Z</time>
      </trkpt>
      <trkpt lat="44.69419" lon="5.17171">
        <ele>259</ele>
        <time>2024-05-17T12:30:51Z</time>
      </trkpt>
      <trkpt lat="44.69418" lon="5.17164">
        <ele>259</ele>
        <time>2024-05-17T12:30:52Z</time>
      </trkpt>
      <trkpt lat="44.69416" lon="5.17157">
        <ele>259</ele>
        <time>2024-05-17T12:30:53Z</time>
      </trkpt>
      <trkpt lat="44.69415" lon="5.1715">
        <ele>258.9</ele>
        <time>2024-05-17T12:30:54Z</time>
      </trkpt>
      <trkpt lat="44.69414" lon="5.17143">
        <ele>258.9</ele>
        <time>2024-05-17T12:30:55Z</time>
      </trkpt>
      <trkpt lat="44.69413" lon="5.17134">
        <ele>258.9</ele>
        <time>2024-05-17T12:30:56Z</time>
      </trkpt>
      <trkpt lat="44.69412" lon="5.1713">
        <ele>258.9</ele>
        <time>2024-05-17T12:30:57Z</time>
      </trkpt>
      <trkpt lat="44.69411" lon="5.17121">
        <ele>258.9</ele>
        <time>2024-05-17T12:30:58Z</time>
      </trkpt>
      <trkpt lat="44.69411" lon="5.17117">
        <ele>258.9</ele>
        <time>2024-05-17T12:30:59Z</time>
      </trkpt>
      <trkpt lat="44.6941" lon="5.17108">
        <ele>258.8</ele>
        <time>2024-05-17T12:31:00Z</time>
      </trkpt>
      <trkpt lat="44.69409" lon="5.17104">
        <ele>258.8</ele>
        <time>2024-05-17T12:31:01Z</time>
      </trkpt>
      <trkpt lat="44.69409" lon="5.17098">
        <ele>258.8</ele>
        <time>2024-05-17T12:31:02Z</time>
      </trkpt>
      <trkpt lat="44.69408" lon="5.17091">
        <ele>258.7</ele>
        <time>2024-05-17T12:31:03Z</time>
      </trkpt>
      <trkpt lat="44.69407" lon="5.17085">
        <ele>258.6</ele>
        <time>2024-05-17T12:31:04Z</time>
      </trkpt>
      <trkpt lat="44.69407" lon="5.17078">
        <ele>258.5</ele>
        <time>2024-05-17T12:31:05Z</time>
      </trkpt>
      <trkpt lat="44.69406" lon="5.17071">
        <ele>258.4</ele>
        <time>2024-05-17T12:31:06Z</time>
      </trkpt>
      <trkpt lat="44.69405" lon="5.17064">
        <ele>258.2</ele>
        <time>2024-05-17T12:31:07Z</time>
      </trkpt>
      <trkpt lat="44.69404" lon="5.17058">
        <ele>258.1</ele>
        <time>2024-05-17T12:31:08Z</time>
      </trkpt>
      <trkpt lat="44.69403" lon="5.17051">
        <ele>258</ele>
        <time>2024-05-17T12:31:09Z</time>
      </trkpt>
      <trkpt lat="44.69403" lon="5.17043">
        <ele>257.8</ele>
        <time>2024-05-17T12:31:10Z</time>
      </trkpt>
      <trkpt lat="44.69402" lon="5.17036">
        <ele>257.7</ele>
        <time>2024-05-17T12:31:11Z</time>
      </trkpt>
      <trkpt lat="44.694" lon="5.17025">
        <ele>257.7</ele>
        <time>2024-05-17T12:31:12Z</time>
      </trkpt>
      <trkpt lat="44.694" lon="5.17022">
        <ele>257.7</ele>
        <time>2024-05-17T12:31:13Z</time>
      </trkpt>
      <trkpt lat="44.69396" lon="5.17013">
        <ele>257.7</ele>
        <time>2024-05-17T12:31:14Z</time>
      </trkpt>
      <trkpt lat="44.69394" lon="5.1701">
        <ele>257.7</ele>
        <time>2024-05-17T12:31:15Z</time>
      </trkpt>
      <trkpt lat="44.69391" lon="5.17006">
        <ele>257.6</ele>
        <time>2024-05-17T12:31:16Z</time>
      </trkpt>
      <trkpt lat="44.69386" lon="5.17003">
        <ele>257.6</ele>
        <time>2024-05-17T12:31:17Z</time>
      </trkpt>
      <trkpt lat="44.69379" lon="5.17003">
        <ele>257.5</ele>
        <time>2024-05-17T12:31:18Z</time>
      </trkpt>
      <trkpt lat="44.69376" lon="5.17004">
        <ele>257.5</ele>
        <time>2024-05-17T12:31:19Z</time>
      </trkpt>
      <trkpt lat="44.6937" lon="5.17009">
        <ele>257.4</ele>
        <time>2024-05-17T12:31:20Z</time>
      </trkpt>
      <trkpt lat="44.69368" lon="5.17011">
        <ele>257.4</ele>
        <time>2024-05-17T12:31:21Z</time>
      </trkpt>
      <trkpt lat="44.69363" lon="5.17019">
        <ele>257.4</ele>
        <time>2024-05-17T12:31:22Z</time>
      </trkpt>
      <trkpt lat="44.69362" lon="5.17023">
        <ele>257.4</ele>
        <time>2024-05-17T12:31:23Z</time>
      </trkpt>
      <trkpt lat="44.69361" lon="5.1703">
        <ele>257.3</ele>
        <time>2024-05-17T12:31:24Z</time>
      </trkpt>
      <trkpt lat="44.6936" lon="5.17038">
        <ele>257.3</ele>
        <time>2024-05-17T12:31:25Z</time>
      </trkpt>
      <trkpt lat="44.6936" lon="5.17046">
        <ele>257.2</ele>
        <time>2024-05-17T12:31:26Z</time>
      </trkpt>
      <trkpt lat="44.69359" lon="5.17059">
        <ele>257.2</ele>
        <time>2024-05-17T12:31:27Z</time>
      </trkpt>
      <trkpt lat="44.69358" lon="5.17063">
        <ele>257.2</ele>
        <time>2024-05-17T12:31:28Z</time>
      </trkpt>
      <trkpt lat="44.69357" lon="5.17076">
        <ele>257.1</ele>
        <time>2024-05-17T12:31:29Z</time>
      </trkpt>
      <trkpt lat="44.69356" lon="5.1708">
        <ele>257.1</ele>
        <time>2024-05-17T12:31:30Z</time>
      </trkpt>
      <trkpt lat="44.69353" lon="5.17093">
        <ele>257</ele>
        <time>2024-05-17T12:31:31Z</time>
      </trkpt>
      <trkpt lat="44.69352" lon="5.17097">
        <ele>257</ele>
        <time>2024-05-17T12:31:32Z</time>
      </trkpt>
      <trkpt lat="44.69349" lon="5.1711">
        <ele>256.9</ele>
        <time>2024-05-17T12:31:33Z</time>
      </trkpt>
      <trkpt lat="44.69348" lon="5.17114">
        <ele>256.9</ele>
        <time>2024-05-17T12:31:34Z</time>
      </trkpt>
      <trkpt lat="44.69345" lon="5.17126">
        <ele>256.8</ele>
        <time>2024-05-17T12:31:35Z</time>
      </trkpt>
      <trkpt lat="44.69344" lon="5.1713">
        <ele>256.8</ele>
        <time>2024-05-17T12:31:36Z</time>
      </trkpt>
      <trkpt lat="44.69341" lon="5.17139">
        <ele>256.7</ele>
        <time>2024-05-17T12:31:37Z</time>
      </trkpt>
      <trkpt lat="44.69338" lon="5.17152">
        <ele>256.7</ele>
        <time>2024-05-17T12:31:38Z</time>
      </trkpt>
      <trkpt lat="44.69337" lon="5.17156">
        <ele>256.6</ele>
        <time>2024-05-17T12:31:39Z</time>
      </trkpt>
      <trkpt lat="44.69333" lon="5.17169">
        <ele>256.6</ele>
        <time>2024-05-17T12:31:40Z</time>
      </trkpt>
      <trkpt lat="44.69331" lon="5.17173">
        <ele>256.5</ele>
        <time>2024-05-17T12:31:41Z</time>
      </trkpt>
      <trkpt lat="44.69329" lon="5.17182">
        <ele>256.5</ele>
        <time>2024-05-17T12:31:42Z</time>
      </trkpt>
      <trkpt lat="44.69325" lon="5.17195">
        <ele>256.4</ele>
        <time>2024-05-17T12:31:43Z</time>
      </trkpt>
      <trkpt lat="44.69324" lon="5.17199">
        <ele>256.4</ele>
        <time>2024-05-17T12:31:44Z</time>
      </trkpt>
      <trkpt lat="44.69321" lon="5.17208">
        <ele>256.3</ele>
        <time>2024-05-17T12:31:45Z</time>
      </trkpt>
      <trkpt lat="44.69319" lon="5.17217">
        <ele>256.3</ele>
        <time>2024-05-17T12:31:46Z</time>
      </trkpt>
      <trkpt lat="44.69317" lon="5.17225">
        <ele>256.2</ele>
        <time>2024-05-17T12:31:47Z</time>
      </trkpt>
      <trkpt lat="44.69314" lon="5.17234">
        <ele>256.2</ele>
        <time>2024-05-17T12:31:48Z</time>
      </trkpt>
      <trkpt lat="44.69312" lon="5.17243">
        <ele>256.1</ele>
        <time>2024-05-17T12:31:49Z</time>
      </trkpt>
      <trkpt lat="44.6931" lon="5.17252">
        <ele>256.1</ele>
        <time>2024-05-17T12:31:50Z</time>
      </trkpt>
      <trkpt lat="44.69307" lon="5.17265">
        <ele>256.1</ele>
        <time>2024-05-17T12:31:51Z</time>
      </trkpt>
      <trkpt lat="44.69306" lon="5.17269">
        <ele>256.1</ele>
        <time>2024-05-17T12:31:52Z</time>
      </trkpt>
      <trkpt lat="44.69304" lon="5.17278">
        <ele>256.1</ele>
        <time>2024-05-17T12:31:53Z</time>
      </trkpt>
      <trkpt lat="44.69302" lon="5.17287">
        <ele>256.1</ele>
        <time>2024-05-17T12:31:54Z</time>
      </trkpt>
      <trkpt lat="44.693" lon="5.173">
        <ele>256</ele>
        <time>2024-05-17T12:31:55Z</time>
      </trkpt>
      <trkpt lat="44.69299" lon="5.17305">
        <ele>256</ele>
        <time>2024-05-17T12:31:56Z</time>
      </trkpt>
      <trkpt lat="44.69296" lon="5.17318">
        <ele>255.9</ele>
        <time>2024-05-17T12:31:57Z</time>
      </trkpt>
      <trkpt lat="44.69295" lon="5.17323">
        <ele>255.8</ele>
        <time>2024-05-17T12:31:58Z</time>
      </trkpt>
      <trkpt lat="44.69293" lon="5.17336">
        <ele>255.8</ele>
        <time>2024-05-17T12:31:59Z</time>
      </trkpt>
      <trkpt lat="44.69292" lon="5.17341">
        <ele>255.7</ele>
        <time>2024-05-17T12:32:00Z</time>
      </trkpt>
      <trkpt lat="44.69289" lon="5.17354">
        <ele>255.7</ele>
        <time>2024-05-17T12:32:01Z</time>
      </trkpt>
      <trkpt lat="44.69288" lon="5.17358">
        <ele>255.7</ele>
        <time>2024-05-17T12:32:02Z</time>
      </trkpt>
      <trkpt lat="44.69286" lon="5.17371">
        <ele>255.6</ele>
        <time>2024-05-17T12:32:03Z</time>
      </trkpt>
      <trkpt lat="44.69285" lon="5.17376">
        <ele>255.6</ele>
        <time>2024-05-17T12:32:04Z</time>
      </trkpt>
      <trkpt lat="44.69283" lon="5.17389">
        <ele>255.5</ele>
        <time>2024-05-17T12:32:05Z</time>
      </trkpt>
      <trkpt lat="44.69283" lon="5.17393">
        <ele>255.5</ele>
        <time>2024-05-17T12:32:06Z</time>
      </trkpt>
      <trkpt lat="44.69281" lon="5.17406">
        <ele>255.4</ele>
        <time>2024-05-17T12:32:07Z</time>
      </trkpt>
      <trkpt lat="44.69281" lon="5.1741">
        <ele>255.4</ele>
        <time>2024-05-17T12:32:08Z</time>
      </trkpt>
      <trkpt lat="44.6928" lon="5.17419">
        <ele>255.3</ele>
        <time>2024-05-17T12:32:09Z</time>
      </trkpt>
      <trkpt lat="44.69279" lon="5.17432">
        <ele>255.2</ele>
        <time>2024-05-17T12:32:10Z</time>
      </trkpt>
      <trkpt lat="44.69278" lon="5.17437">
        <ele>255.2</ele>
        <time>2024-05-17T12:32:11Z</time>
      </trkpt>
      <trkpt lat="44.69276" lon="5.1745">
        <ele>255.1</ele>
        <time>2024-05-17T12:32:12Z</time>
      </trkpt>
      <trkpt lat="44.69275" lon="5.17455">
        <ele>255.1</ele>
        <time>2024-05-17T12:32:13Z</time>
      </trkpt>
      <trkpt lat="44.69274" lon="5.17469">
        <ele>255</ele>
        <time>2024-05-17T12:32:14Z</time>
      </trkpt>
      <trkpt lat="44.69273" lon="5.17474">
        <ele>255</ele>
        <time>2024-05-17T12:32:15Z</time>
      </trkpt>
      <trkpt lat="44.69271" lon="5.17488">
        <ele>254.9</ele>
        <time>2024-05-17T12:32:16Z</time>
      </trkpt>
      <trkpt lat="44.6927" lon="5.17493">
        <ele>254.9</ele>
        <time>2024-05-17T12:32:17Z</time>
      </trkpt>
      <trkpt lat="44.69268" lon="5.17507">
        <ele>254.8</ele>
        <time>2024-05-17T12:32:18Z</time>
      </trkpt>
      <trkpt lat="44.69268" lon="5.17512">
        <ele>254.8</ele>
        <time>2024-05-17T12:32:19Z</time>
      </trkpt>
      <trkpt lat="44.69267" lon="5.17522">
        <ele>254.8</ele>
        <time>2024-05-17T12:32:20Z</time>
      </trkpt>
      <trkpt lat="44.69265" lon="5.17536">
        <ele>254.9</ele>
        <time>2024-05-17T12:32:21Z</time>
      </trkpt>
      <trkpt lat="44.69264" lon="5.17541">
        <ele>254.9</ele>
        <time>2024-05-17T12:32:22Z</time>
      </trkpt>
      <trkpt lat="44.69263" lon="5.17555">
        <ele>255</ele>
        <time>2024-05-17T12:32:23Z</time>
      </trkpt>
      <trkpt lat="44.69262" lon="5.17559">
        <ele>255</ele>
        <time>2024-05-17T12:32:24Z</time>
      </trkpt>
      <trkpt lat="44.69259" lon="5.17573">
        <ele>255.1</ele>
        <time>2024-05-17T12:32:25Z</time>
      </trkpt>
      <trkpt lat="44.69257" lon="5.17577">
        <ele>255.2</ele>
        <time>2024-05-17T12:32:26Z</time>
      </trkpt>
      <trkpt lat="44.69251" lon="5.17581">
        <ele>255.3</ele>
        <time>2024-05-17T12:32:27Z</time>
      </trkpt>
      <trkpt lat="44.69246" lon="5.17579">
        <ele>255.3</ele>
        <time>2024-05-17T12:32:28Z</time>
      </trkpt>
      <trkpt lat="44.69243" lon="5.17573">
        <ele>255.3</ele>
        <time>2024-05-17T12:32:29Z</time>
      </trkpt>
      <trkpt lat="44.69242" lon="5.17566">
        <ele>255.3</ele>
        <time>2024-05-17T12:32:30Z</time>
      </trkpt>
      <trkpt lat="44.69243" lon="5.17559">
        <ele>255.3</ele>
        <time>2024-05-17T12:32:31Z</time>
      </trkpt>
      <trkpt lat="44.69245" lon="5.17552">
        <ele>255.3</ele>
        <time>2024-05-17T12:32:32Z</time>
      </trkpt>
      <trkpt lat="44.69246" lon="5.17545">
        <ele>255.3</ele>
        <time>2024-05-17T12:32:33Z</time>
      </trkpt>
      <trkpt lat="44.69248" lon="5.17538">
        <ele>255.3</ele>
        <time>2024-05-17T12:32:34Z</time>
      </trkpt>
      <trkpt lat="44.69248" lon="5.1753">
        <ele>255.3</ele>
        <time>2024-05-17T12:32:35Z</time>
      </trkpt>
      <trkpt lat="44.69249" lon="5.17523">
        <ele>255.4</ele>
        <time>2024-05-17T12:32:36Z</time>
      </trkpt>
      <trkpt lat="44.69248" lon="5.17512">
        <ele>255.3</ele>
        <time>2024-05-17T12:32:37Z</time>
      </trkpt>
      <trkpt lat="44.69248" lon="5.17508">
        <ele>255.3</ele>
        <time>2024-05-17T12:32:38Z</time>
      </trkpt>
      <trkpt lat="44.69246" lon="5.17497">
        <ele>255.3</ele>
        <time>2024-05-17T12:32:39Z</time>
      </trkpt>
      <trkpt lat="44.69246" lon="5.17493">
        <ele>255.3</ele>
        <time>2024-05-17T12:32:40Z</time>
      </trkpt>
      <trkpt lat="44.69244" lon="5.17482">
        <ele>255.2</ele>
        <time>2024-05-17T12:32:41Z</time>
      </trkpt>
      <trkpt lat="44.69244" lon="5.17478">
        <ele>255.2</ele>
        <time>2024-05-17T12:32:42Z</time>
      </trkpt>
      <trkpt lat="44.69242" lon="5.17467">
        <ele>255.2</ele>
        <time>2024-05-17T12:32:43Z</time>
      </trkpt>
      <trkpt lat="44.69242" lon="5.17464">
        <ele>255.1</ele>
        <time>2024-05-17T12:32:44Z</time>
      </trkpt>
      <trkpt lat="44.6924" lon="5.17453">
        <ele>255.1</ele>
        <time>2024-05-17T12:32:45Z</time>
      </trkpt>
      <trkpt lat="44.6924" lon="5.17449">
        <ele>255.1</ele>
        <time>2024-05-17T12:32:46Z</time>
      </trkpt>
      <trkpt lat="44.69238" lon="5.17439">
        <ele>255.1</ele>
        <time>2024-05-17T12:32:47Z</time>
      </trkpt>
      <trkpt lat="44.69238" lon="5.17435">
        <ele>255.1</ele>
        <time>2024-05-17T12:32:48Z</time>
      </trkpt>
      <trkpt lat="44.69236" lon="5.17424">
        <ele>255.1</ele>
        <time>2024-05-17T12:32:49Z</time>
      </trkpt>
      <trkpt lat="44.69236" lon="5.17421">
        <ele>255.1</ele>
        <time>2024-05-17T12:32:50Z</time>
      </trkpt>
      <trkpt lat="44.69234" lon="5.17409">
        <ele>255.1</ele>
        <time>2024-05-17T12:32:51Z</time>
      </trkpt>
      <trkpt lat="44.69233" lon="5.17406">
        <ele>255.1</ele>
        <time>2024-05-17T12:32:52Z</time>
      </trkpt>
      <trkpt lat="44.69233" lon="5.17399">
        <ele>255.1</ele>
        <time>2024-05-17T12:32:53Z</time>
      </trkpt>
      <trkpt lat="44.69231" lon="5.17388">
        <ele>255.1</ele>
        <time>2024-05-17T12:32:54Z</time>
      </trkpt>
      <trkpt lat="44.6923" lon="5.17385">
        <ele>255.1</ele>
        <time>2024-05-17T12:32:55Z</time>
      </trkpt>
      <trkpt lat="44.69228" lon="5.17374">
        <ele>255.1</ele>
        <time>2024-05-17T12:32:56Z</time>
      </trkpt>
      <trkpt lat="44.69227" lon="5.17371">
        <ele>255.1</ele>
        <time>2024-05-17T12:32:57Z</time>
      </trkpt>
      <trkpt lat="44.69225" lon="5.17361">
        <ele>255.1</ele>
        <time>2024-05-17T12:32:58Z</time>
      </trkpt>
      <trkpt lat="44.69224" lon="5.17357">
        <ele>255.1</ele>
        <time>2024-05-17T12:32:59Z</time>
      </trkpt>
      <trkpt lat="44.69222" lon="5.17347">
        <ele>255.1</ele>
        <time>2024-05-17T12:33:00Z</time>
      </trkpt>
      <trkpt lat="44.69221" lon="5.17343">
        <ele>255.1</ele>
        <time>2024-05-17T12:33:01Z</time>
      </trkpt>
      <trkpt lat="44.69219" lon="5.17332">
        <ele>255</ele>
        <time>2024-05-17T12:33:02Z</time>
      </trkpt>
      <trkpt lat="44.69219" lon="5.17328">
        <ele>255</ele>
        <time>2024-05-17T12:33:03Z</time>
      </trkpt>
      <trkpt lat="44.69218" lon="5.1732">
        <ele>254.9</ele>
        <time>2024-05-17T12:33:04Z</time>
      </trkpt>
      <trkpt lat="44.69218" lon="5.17307">
        <ele>254.8</ele>
        <time>2024-05-17T12:33:05Z</time>
      </trkpt>
      <trkpt lat="44.69218" lon="5.17303">
        <ele>254.8</ele>
        <time>2024-05-17T12:33:06Z</time>
      </trkpt>
      <trkpt lat="44.6922" lon="5.1729">
        <ele>254.8</ele>
        <time>2024-05-17T12:33:07Z</time>
      </trkpt>
      <trkpt lat="44.6922" lon="5.17286">
        <ele>254.7</ele>
        <time>2024-05-17T12:33:08Z</time>
      </trkpt>
      <trkpt lat="44.69222" lon="5.17274">
        <ele>254.7</ele>
        <time>2024-05-17T12:33:09Z</time>
      </trkpt>
      <trkpt lat="44.69222" lon="5.1727">
        <ele>254.6</ele>
        <time>2024-05-17T12:33:10Z</time>
      </trkpt>
      <trkpt lat="44.69222" lon="5.17261">
        <ele>254.6</ele>
        <time>2024-05-17T12:33:11Z</time>
      </trkpt>
      <trkpt lat="44.69222" lon="5.17252">
        <ele>254.6</ele>
        <time>2024-05-17T12:33:12Z</time>
      </trkpt>
      <trkpt lat="44.69221" lon="5.17244">
        <ele>254.5</ele>
        <time>2024-05-17T12:33:13Z</time>
      </trkpt>
      <trkpt lat="44.69221" lon="5.17235">
        <ele>254.5</ele>
        <time>2024-05-17T12:33:14Z</time>
      </trkpt>
      <trkpt lat="44.6922" lon="5.17223">
        <ele>254.4</ele>
        <time>2024-05-17T12:33:15Z</time>
      </trkpt>
      <trkpt lat="44.6922" lon="5.17219">
        <ele>254.4</ele>
        <time>2024-05-17T12:33:16Z</time>
      </trkpt>
      <trkpt lat="44.69219" lon="5.1721">
        <ele>254.4</ele>
        <time>2024-05-17T12:33:17Z</time>
      </trkpt>
      <trkpt lat="44.69219" lon="5.17202">
        <ele>254.4</ele>
        <time>2024-05-17T12:33:18Z</time>
      </trkpt>
      <trkpt lat="44.69218" lon="5.17194">
        <ele>254.4</ele>
        <time>2024-05-17T12:33:19Z</time>
      </trkpt>
      <trkpt lat="44.69218" lon="5.17186">
        <ele>254.4</ele>
        <time>2024-05-17T12:33:20Z</time>
      </trkpt>
      <trkpt lat="44.69217" lon="5.17174">
        <ele>254.3</ele>
        <time>2024-05-17T12:33:21Z</time>
      </trkpt>
      <trkpt lat="44.69217" lon="5.1717">
        <ele>254.3</ele>
        <time>2024-05-17T12:33:22Z</time>
      </trkpt>
      <trkpt lat="44.69216" lon="5.17158">
        <ele>254.3</ele>
        <time>2024-05-17T12:33:23Z</time>
      </trkpt>
      <trkpt lat="44.69215" lon="5.17154">
        <ele>254.3</ele>
        <time>2024-05-17T12:33:24Z</time>
      </trkpt>
      <trkpt lat="44.69215" lon="5.17146">
        <ele>254.4</ele>
        <time>2024-05-17T12:33:25Z</time>
      </trkpt>
      <trkpt lat="44.69214" lon="5.17138">
        <ele>254.4</ele>
        <time>2024-05-17T12:33:26Z</time>
      </trkpt>
      <trkpt lat="44.69213" lon="5.17126">
        <ele>254.4</ele>
        <time>2024-05-17T12:33:27Z</time>
      </trkpt>
      <trkpt lat="44.69213" lon="5.17123">
        <ele>254.4</ele>
        <time>2024-05-17T12:33:28Z</time>
      </trkpt>
      <trkpt lat="44.69213" lon="5.17111">
        <ele>254.5</ele>
        <time>2024-05-17T12:33:29Z</time>
      </trkpt>
      <trkpt lat="44.69213" lon="5.17107">
        <ele>254.5</ele>
        <time>2024-05-17T12:33:30Z</time>
      </trkpt>
      <trkpt lat="44.69213" lon="5.17096">
        <ele>254.5</ele>
        <time>2024-05-17T12:33:31Z</time>
      </trkpt>
      <trkpt lat="44.69214" lon="5.17092">
        <ele>254.6</ele>
        <time>2024-05-17T12:33:32Z</time>
      </trkpt>
      <trkpt lat="44.69215" lon="5.17085">
        <ele>254.6</ele>
        <time>2024-05-17T12:33:33Z</time>
      </trkpt>
      <trkpt lat="44.69216" lon="5.17078">
        <ele>254.6</ele>
        <time>2024-05-17T12:33:34Z</time>
      </trkpt>
      <trkpt lat="44.69217" lon="5.1707">
        <ele>254.6</ele>
        <time>2024-05-17T12:33:35Z</time>
      </trkpt>
      <trkpt lat="44.69219" lon="5.1706">
        <ele>254.7</ele>
        <time>2024-05-17T12:33:36Z</time>
      </trkpt>
      <trkpt lat="44.69219" lon="5.17056">
        <ele>254.7</ele>
        <time>2024-05-17T12:33:37Z</time>
      </trkpt>
      <trkpt lat="44.69221" lon="5.17046">
        <ele>254.8</ele>
        <time>2024-05-17T12:33:38Z</time>
      </trkpt>
      <trkpt lat="44.69222" lon="5.17043">
        <ele>254.8</ele>
        <time>2024-05-17T12:33:39Z</time>
      </trkpt>
      <trkpt lat="44.69223" lon="5.17033">
        <ele>254.8</ele>
        <time>2024-05-17T12:33:40Z</time>
      </trkpt>
      <trkpt lat="44.69224" lon="5.1703">
        <ele>254.8</ele>
        <time>2024-05-17T12:33:41Z</time>
      </trkpt>
      <trkpt lat="44.69225" lon="5.1702">
        <ele>254.9</ele>
        <time>2024-05-17T12:33:42Z</time>
      </trkpt>
      <trkpt lat="44.69225" lon="5.17016">
        <ele>254.9</ele>
        <time>2024-05-17T12:33:43Z</time>
      </trkpt>
      <trkpt lat="44.69226" lon="5.1701">
        <ele>254.9</ele>
        <time>2024-05-17T12:33:44Z</time>
      </trkpt>
      <trkpt lat="44.69227" lon="5.17003">
        <ele>254.9</ele>
        <time>2024-05-17T12:33:45Z</time>
      </trkpt>
      <trkpt lat="44.69228" lon="5.16997">
        <ele>254.9</ele>
        <time>2024-05-17T12:33:46Z</time>
      </trkpt>
      <trkpt lat="44.6923" lon="5.16987">
        <ele>254.9</ele>
        <time>2024-05-17T12:33:47Z</time>
      </trkpt>
      <trkpt lat="44.6923" lon="5.16983">
        <ele>255</ele>
        <time>2024-05-17T12:33:48Z</time>
      </trkpt>
      <trkpt lat="44.69232" lon="5.16973">
        <ele>255</ele>
        <time>2024-05-17T12:33:49Z</time>
      </trkpt>
      <trkpt lat="44.69232" lon="5.1697">
        <ele>255</ele>
        <time>2024-05-17T12:33:50Z</time>
      </trkpt>
      <trkpt lat="44.69234" lon="5.1696">
        <ele>255</ele>
        <time>2024-05-17T12:33:51Z</time>
      </trkpt>
      <trkpt lat="44.69235" lon="5.16957">
        <ele>255</ele>
        <time>2024-05-17T12:33:52Z</time>
      </trkpt>
      <trkpt lat="44.69236" lon="5.1695">
        <ele>255.1</ele>
        <time>2024-05-17T12:33:53Z</time>
      </trkpt>
      <trkpt lat="44.69237" lon="5.16943">
        <ele>255.1</ele>
        <time>2024-05-17T12:33:54Z</time>
      </trkpt>
      <trkpt lat="44.69238" lon="5.16937">
        <ele>255</ele>
        <time>2024-05-17T12:33:55Z</time>
      </trkpt>
      <trkpt lat="44.69239" lon="5.1693">
        <ele>255</ele>
        <time>2024-05-17T12:33:56Z</time>
      </trkpt>
      <trkpt lat="44.6924" lon="5.1692">
        <ele>255</ele>
        <time>2024-05-17T12:33:57Z</time>
      </trkpt>
      <trkpt lat="44.6924" lon="5.16917">
        <ele>255</ele>
        <time>2024-05-17T12:33:58Z</time>
      </trkpt>
      <trkpt lat="44.69241" lon="5.1691">
        <ele>255</ele>
        <time>2024-05-17T12:33:59Z</time>
      </trkpt>
      <trkpt lat="44.69242" lon="5.16903">
        <ele>255</ele>
        <time>2024-05-17T12:34:00Z</time>
      </trkpt>
      <trkpt lat="44.69243" lon="5.16896">
        <ele>254.9</ele>
        <time>2024-05-17T12:34:01Z</time>
      </trkpt>
      <trkpt lat="44.69244" lon="5.16888">
        <ele>254.9</ele>
        <time>2024-05-17T12:34:02Z</time>
      </trkpt>
      <trkpt lat="44.69247" lon="5.16877">
        <ele>254.8</ele>
        <time>2024-05-17T12:34:03Z</time>
      </trkpt>
      <trkpt lat="44.69247" lon="5.16873">
        <ele>254.8</ele>
        <time>2024-05-17T12:34:04Z</time>
      </trkpt>
      <trkpt lat="44.6925" lon="5.16862">
        <ele>254.7</ele>
        <time>2024-05-17T12:34:05Z</time>
      </trkpt>
      <trkpt lat="44.69252" lon="5.16859">
        <ele>254.6</ele>
        <time>2024-05-17T12:34:06Z</time>
      </trkpt>
      <trkpt lat="44.69256" lon="5.16848">
        <ele>254.5</ele>
        <time>2024-05-17T12:34:07Z</time>
      </trkpt>
      <trkpt lat="44.69257" lon="5.16845">
        <ele>254.4</ele>
        <time>2024-05-17T12:34:08Z</time>
      </trkpt>
      <trkpt lat="44.69262" lon="5.16835">
        <ele>254.2</ele>
        <time>2024-05-17T12:34:09Z</time>
      </trkpt>
      <trkpt lat="44.69264" lon="5.16832">
        <ele>254.2</ele>
        <time>2024-05-17T12:34:10Z</time>
      </trkpt>
      <trkpt lat="44.6927" lon="5.16823">
        <ele>254</ele>
        <time>2024-05-17T12:34:11Z</time>
      </trkpt>
      <trkpt lat="44.69272" lon="5.1682">
        <ele>253.9</ele>
        <time>2024-05-17T12:34:12Z</time>
      </trkpt>
      <trkpt lat="44.69278" lon="5.16812">
        <ele>253.7</ele>
        <time>2024-05-17T12:34:13Z</time>
      </trkpt>
      <trkpt lat="44.6928" lon="5.16809">
        <ele>253.6</ele>
        <time>2024-05-17T12:34:14Z</time>
      </trkpt>
      <trkpt lat="44.69288" lon="5.16801">
        <ele>253.3</ele>
        <time>2024-05-17T12:34:15Z</time>
      </trkpt>
      <trkpt lat="44.6929" lon="5.16798">
        <ele>253.2</ele>
        <time>2024-05-17T12:34:16Z</time>
      </trkpt>
      <trkpt lat="44.69295" lon="5.16793">
        <ele>253</ele>
        <time>2024-05-17T12:34:17Z</time>
      </trkpt>
      <trkpt lat="44.69303" lon="5.16784">
        <ele>252.7</ele>
        <time>2024-05-17T12:34:18Z</time>
      </trkpt>
      <trkpt lat="44.69306" lon="5.1678">
        <ele>252.6</ele>
        <time>2024-05-17T12:34:19Z</time>
      </trkpt>
      <trkpt lat="44.69314" lon="5.16771">
        <ele>252.3</ele>
        <time>2024-05-17T12:34:20Z</time>
      </trkpt>
      <trkpt lat="44.69317" lon="5.16767">
        <ele>252.2</ele>
        <time>2024-05-17T12:34:21Z</time>
      </trkpt>
      <trkpt lat="44.69324" lon="5.16756">
        <ele>251.9</ele>
        <time>2024-05-17T12:34:22Z</time>
      </trkpt>
      <trkpt lat="44.69326" lon="5.16752">
        <ele>251.8</ele>
        <time>2024-05-17T12:34:23Z</time>
      </trkpt>
      <trkpt lat="44.69332" lon="5.1674">
        <ele>251.6</ele>
        <time>2024-05-17T12:34:24Z</time>
      </trkpt>
      <trkpt lat="44.69334" lon="5.16736">
        <ele>251.6</ele>
        <time>2024-05-17T12:34:25Z</time>
      </trkpt>
      <trkpt lat="44.69339" lon="5.16723">
        <ele>251.4</ele>
        <time>2024-05-17T12:34:26Z</time>
      </trkpt>
      <trkpt lat="44.69341" lon="5.16719">
        <ele>251.3</ele>
        <time>2024-05-17T12:34:27Z</time>
      </trkpt>
      <trkpt lat="44.69344" lon="5.1671">
        <ele>251.1</ele>
        <time>2024-05-17T12:34:28Z</time>
      </trkpt>
      <trkpt lat="44.69348" lon="5.16696">
        <ele>250.9</ele>
        <time>2024-05-17T12:34:29Z</time>
      </trkpt>
      <trkpt lat="44.6935" lon="5.16692">
        <ele>250.8</ele>
        <time>2024-05-17T12:34:30Z</time>
      </trkpt>
      <trkpt lat="44.69353" lon="5.16683">
        <ele>250.8</ele>
        <time>2024-05-17T12:34:31Z</time>
      </trkpt>
      <trkpt lat="44.69357" lon="5.1667">
        <ele>250.7</ele>
        <time>2024-05-17T12:34:32Z</time>
      </trkpt>
      <trkpt lat="44.69359" lon="5.16666">
        <ele>250.6</ele>
        <time>2024-05-17T12:34:33Z</time>
      </trkpt>
      <trkpt lat="44.69363" lon="5.16653">
        <ele>250.6</ele>
        <time>2024-05-17T12:34:34Z</time>
      </trkpt>
      <trkpt lat="44.69364" lon="5.16649">
        <ele>250.5</ele>
        <time>2024-05-17T12:34:35Z</time>
      </trkpt>
      <trkpt lat="44.69367" lon="5.16636">
        <ele>250.5</ele>
        <time>2024-05-17T12:34:36Z</time>
      </trkpt>
      <trkpt lat="44.69368" lon="5.16632">
        <ele>250.5</ele>
        <time>2024-05-17T12:34:37Z</time>
      </trkpt>
      <trkpt lat="44.6937" lon="5.16623">
        <ele>250.4</ele>
        <time>2024-05-17T12:34:38Z</time>
      </trkpt>
      <trkpt lat="44.69371" lon="5.16614">
        <ele>250.3</ele>
        <time>2024-05-17T12:34:39Z</time>
      </trkpt>
      <trkpt lat="44.69373" lon="5.16605">
        <ele>250.2</ele>
        <time>2024-05-17T12:34:40Z</time>
      </trkpt>
      <trkpt lat="44.69374" lon="5.16597">
        <ele>250.2</ele>
        <time>2024-05-17T12:34:41Z</time>
      </trkpt>
      <trkpt lat="44.69376" lon="5.16588">
        <ele>250.1</ele>
        <time>2024-05-17T12:34:42Z</time>
      </trkpt>
      <trkpt lat="44.69377" lon="5.16579">
        <ele>250.1</ele>
        <time>2024-05-17T12:34:43Z</time>
      </trkpt>
      <trkpt lat="44.69378" lon="5.1657">
        <ele>250</ele>
        <time>2024-05-17T12:34:44Z</time>
      </trkpt>
      <trkpt lat="44.69379" lon="5.16561">
        <ele>250</ele>
        <time>2024-05-17T12:34:45Z</time>
      </trkpt>
      <trkpt lat="44.69381" lon="5.16548">
        <ele>250</ele>
        <time>2024-05-17T12:34:46Z</time>
      </trkpt>
      <trkpt lat="44.69381" lon="5.16544">
        <ele>250</ele>
        <time>2024-05-17T12:34:47Z</time>
      </trkpt>
      <trkpt lat="44.69383" lon="5.16531">
        <ele>250</ele>
        <time>2024-05-17T12:34:48Z</time>
      </trkpt>
      <trkpt lat="44.69384" lon="5.16527">
        <ele>250</ele>
        <time>2024-05-17T12:34:49Z</time>
      </trkpt>
      <trkpt lat="44.69386" lon="5.16515">
        <ele>250</ele>
        <time>2024-05-17T12:34:50Z</time>
      </trkpt>
      <trkpt lat="44.69386" lon="5.16511">
        <ele>250</ele>
        <time>2024-05-17T12:34:51Z</time>
      </trkpt>
      <trkpt lat="44.69388" lon="5.16498">
        <ele>250</ele>
        <time>2024-05-17T12:34:52Z</time>
      </trkpt>
      <trkpt lat="44.69388" lon="5.16494">
        <ele>250</ele>
        <time>2024-05-17T12:34:53Z</time>
      </trkpt>
      <trkpt lat="44.6939" lon="5.16482">
        <ele>250</ele>
        <time>2024-05-17T12:34:54Z</time>
      </trkpt>
      <trkpt lat="44.6939" lon="5.16477">
        <ele>250</ele>
        <time>2024-05-17T12:34:55Z</time>
      </trkpt>
      <trkpt lat="44.69391" lon="5.16465">
        <ele>250</ele>
        <time>2024-05-17T12:34:56Z</time>
      </trkpt>
      <trkpt lat="44.69391" lon="5.16461">
        <ele>250</ele>
        <time>2024-05-17T12:34:57Z</time>
      </trkpt>
      <trkpt lat="44.69392" lon="5.16452">
        <ele>250</ele>
        <time>2024-05-17T12:34:58Z</time>
      </trkpt>
      <trkpt lat="44.69392" lon="5.16444">
        <ele>249.9</ele>
        <time>2024-05-17T12:34:59Z</time>
      </trkpt>
      <trkpt lat="44.69392" lon="5.16435">
        <ele>249.9</ele>
        <time>2024-05-17T12:35:00Z</time>
      </trkpt>
      <trkpt lat="44.69393" lon="5.16423">
        <ele>249.9</ele>
        <time>2024-05-17T12:35:01Z</time>
      </trkpt>
      <trkpt lat="44.69393" lon="5.16418">
        <ele>249.9</ele>
        <time>2024-05-17T12:35:02Z</time>
      </trkpt>
      <trkpt lat="44.69393" lon="5.16405">
        <ele>249.8</ele>
        <time>2024-05-17T12:35:03Z</time>
      </trkpt>
      <trkpt lat="44.69393" lon="5.164">
        <ele>249.8</ele>
        <time>2024-05-17T12:35:04Z</time>
      </trkpt>
      <trkpt lat="44.69392" lon="5.16387">
        <ele>249.7</ele>
        <time>2024-05-17T12:35:05Z</time>
      </trkpt>
      <trkpt lat="44.69392" lon="5.16383">
        <ele>249.7</ele>
        <time>2024-05-17T12:35:06Z</time>
      </trkpt>
      <trkpt lat="44.69391" lon="5.16369">
        <ele>249.6</ele>
        <time>2024-05-17T12:35:07Z</time>
      </trkpt>
      <trkpt lat="44.69391" lon="5.16364">
        <ele>249.6</ele>
        <time>2024-05-17T12:35:08Z</time>
      </trkpt>
      <trkpt lat="44.69391" lon="5.16355">
        <ele>249.6</ele>
        <time>2024-05-17T12:35:09Z</time>
      </trkpt>
      <trkpt lat="44.69391" lon="5.16342">
        <ele>249.6</ele>
        <time>2024-05-17T12:35:10Z</time>
      </trkpt>
      <trkpt lat="44.69391" lon="5.16337">
        <ele>249.6</ele>
        <time>2024-05-17T12:35:11Z</time>
      </trkpt>
      <trkpt lat="44.69391" lon="5.16329">
        <ele>249.6</ele>
        <time>2024-05-17T12:35:12Z</time>
      </trkpt>
      <trkpt lat="44.69392" lon="5.1632">
        <ele>249.7</ele>
        <time>2024-05-17T12:35:13Z</time>
      </trkpt>
      <trkpt lat="44.69392" lon="5.16312">
        <ele>249.7</ele>
        <time>2024-05-17T12:35:14Z</time>
      </trkpt>
      <trkpt lat="44.69393" lon="5.16304">
        <ele>249.8</ele>
        <time>2024-05-17T12:35:15Z</time>
      </trkpt>
      <trkpt lat="44.69394" lon="5.16292">
        <ele>249.9</ele>
        <time>2024-05-17T12:35:16Z</time>
      </trkpt>
      <trkpt lat="44.69394" lon="5.16288">
        <ele>249.9</ele>
        <time>2024-05-17T12:35:17Z</time>
      </trkpt>
      <trkpt lat="44.69396" lon="5.16276">
        <ele>250</ele>
        <time>2024-05-17T12:35:18Z</time>
      </trkpt>
      <trkpt lat="44.69396" lon="5.16272">
        <ele>250</ele>
        <time>2024-05-17T12:35:19Z</time>
      </trkpt>
      <trkpt lat="44.69398" lon="5.16264">
        <ele>250.1</ele>
        <time>2024-05-17T12:35:20Z</time>
      </trkpt>
      <trkpt lat="44.694" lon="5.16256">
        <ele>250.1</ele>
        <time>2024-05-17T12:35:21Z</time>
      </trkpt>
      <trkpt lat="44.69401" lon="5.16249">
        <ele>250.2</ele>
        <time>2024-05-17T12:35:22Z</time>
      </trkpt>
      <trkpt lat="44.69402" lon="5.16241">
        <ele>250.2</ele>
        <time>2024-05-17T12:35:23Z</time>
      </trkpt>
      <trkpt lat="44.69403" lon="5.16233">
        <ele>250.3</ele>
        <time>2024-05-17T12:35:24Z</time>
      </trkpt>
      <trkpt lat="44.69405" lon="5.16226">
        <ele>250.3</ele>
        <time>2024-05-17T12:35:25Z</time>
      </trkpt>
      <trkpt lat="44.69406" lon="5.16218">
        <ele>250.4</ele>
        <time>2024-05-17T12:35:26Z</time>
      </trkpt>
      <trkpt lat="44.69407" lon="5.16211">
        <ele>250.4</ele>
        <time>2024-05-17T12:35:27Z</time>
      </trkpt>
      <trkpt lat="44.69408" lon="5.16203">
        <ele>250.5</ele>
        <time>2024-05-17T12:35:28Z</time>
      </trkpt>
      <trkpt lat="44.69409" lon="5.16196">
        <ele>250.5</ele>
        <time>2024-05-17T12:35:29Z</time>
      </trkpt>
      <trkpt lat="44.6941" lon="5.16185">
        <ele>250.6</ele>
        <time>2024-05-17T12:35:30Z</time>
      </trkpt>
      <trkpt lat="44.69411" lon="5.16181">
        <ele>250.6</ele>
        <time>2024-05-17T12:35:31Z</time>
      </trkpt>
      <trkpt lat="44.69411" lon="5.1617">
        <ele>250.7</ele>
        <time>2024-05-17T12:35:32Z</time>
      </trkpt>
      <trkpt lat="44.69412" lon="5.16166">
        <ele>250.7</ele>
        <time>2024-05-17T12:35:33Z</time>
      </trkpt>
      <trkpt lat="44.69413" lon="5.16155">
        <ele>250.7</ele>
        <time>2024-05-17T12:35:34Z</time>
      </trkpt>
      <trkpt lat="44.69413" lon="5.16151">
        <ele>250.7</ele>
        <time>2024-05-17T12:35:35Z</time>
      </trkpt>
      <trkpt lat="44.69413" lon="5.1614">
        <ele>250.8</ele>
        <time>2024-05-17T12:35:36Z</time>
      </trkpt>
      <trkpt lat="44.69414" lon="5.16137">
        <ele>250.8</ele>
        <time>2024-05-17T12:35:37Z</time>
      </trkpt>
      <trkpt lat="44.69414" lon="5.16126">
        <ele>250.8</ele>
        <time>2024-05-17T12:35:38Z</time>
      </trkpt>
      <trkpt lat="44.69415" lon="5.16122">
        <ele>250.8</ele>
        <time>2024-05-17T12:35:39Z</time>
      </trkpt>
      <trkpt lat="44.69416" lon="5.16111">
        <ele>250.9</ele>
        <time>2024-05-17T12:35:40Z</time>
      </trkpt>
      <trkpt lat="44.69416" lon="5.16107">
        <ele>250.9</ele>
        <time>2024-05-17T12:35:41Z</time>
      </trkpt>
      <trkpt lat="44.69417" lon="5.161">
        <ele>251</ele>
        <time>2024-05-17T12:35:42Z</time>
      </trkpt>
      <trkpt lat="44.69418" lon="5.16092">
        <ele>251</ele>
        <time>2024-05-17T12:35:43Z</time>
      </trkpt>
      <trkpt lat="44.69418" lon="5.16085">
        <ele>251</ele>
        <time>2024-05-17T12:35:44Z</time>
      </trkpt>
      <trkpt lat="44.6942" lon="5.16073">
        <ele>251.1</ele>
        <time>2024-05-17T12:35:45Z</time>
      </trkpt>
      <trkpt lat="44.69421" lon="5.1607">
        <ele>251.2</ele>
        <time>2024-05-17T12:35:46Z</time>
      </trkpt>
      <trkpt lat="44.69423" lon="5.16058">
        <ele>251.3</ele>
        <time>2024-05-17T12:35:47Z</time>
      </trkpt>
      <trkpt lat="44.69423" lon="5.16055">
        <ele>251.3</ele>
        <time>2024-05-17T12:35:48Z</time>
      </trkpt>
      <trkpt lat="44.69426" lon="5.16043">
        <ele>251.4</ele>
        <time>2024-05-17T12:35:49Z</time>
      </trkpt>
      <trkpt lat="44.69426" lon="5.1604">
        <ele>251.4</ele>
        <time>2024-05-17T12:35:50Z</time>
      </trkpt>
      <trkpt lat="44.69428" lon="5.16033">
        <ele>251.4</ele>
        <time>2024-05-17T12:35:51Z</time>
      </trkpt>
      <trkpt lat="44.6943" lon="5.16025">
        <ele>251.5</ele>
        <time>2024-05-17T12:35:52Z</time>
      </trkpt>
      <trkpt lat="44.69431" lon="5.16018">
        <ele>251.5</ele>
        <time>2024-05-17T12:35:53Z</time>
      </trkpt>
      <trkpt lat="44.69433" lon="5.16011">
        <ele>251.6</ele>
        <time>2024-05-17T12:35:54Z</time>
      </trkpt>
      <trkpt lat="44.69435" lon="5.16004">
        <ele>251.7</ele>
        <time>2024-05-17T12:35:55Z</time>
      </trkpt>
      <trkpt lat="44.69437" lon="5.15994">
        <ele>251.8</ele>
        <time>2024-05-17T12:35:56Z</time>
      </trkpt>
      <trkpt lat="44.69438" lon="5.1599">
        <ele>251.8</ele>
        <time>2024-05-17T12:35:57Z</time>
      </trkpt>
      <trkpt lat="44.6944" lon="5.1598">
        <ele>252</ele>
        <time>2024-05-17T12:35:58Z</time>
      </trkpt>
      <trkpt lat="44.69441" lon="5.15977">
        <ele>252</ele>
        <time>2024-05-17T12:35:59Z</time>
      </trkpt>
      <trkpt lat="44.69443" lon="5.15966">
        <ele>252.1</ele>
        <time>2024-05-17T12:36:00Z</time>
      </trkpt>
      <trkpt lat="44.69443" lon="5.15963">
        <ele>252.2</ele>
        <time>2024-05-17T12:36:01Z</time>
      </trkpt>
      <trkpt lat="44.69444" lon="5.15956">
        <ele>252.2</ele>
        <time>2024-05-17T12:36:02Z</time>
      </trkpt>
      <trkpt lat="44.69445" lon="5.15949">
        <ele>252.3</ele>
        <time>2024-05-17T12:36:03Z</time>
      </trkpt>
      <trkpt lat="44.69445" lon="5.15942">
        <ele>252.3</ele>
        <time>2024-05-17T12:36:04Z</time>
      </trkpt>
      <trkpt lat="44.69445" lon="5.15936">
        <ele>252.4</ele>
        <time>2024-05-17T12:36:05Z</time>
      </trkpt>
      <trkpt lat="44.69446" lon="5.15929">
        <ele>252.4</ele>
        <time>2024-05-17T12:36:06Z</time>
      </trkpt>
      <trkpt lat="44.69446" lon="5.15922">
        <ele>252.4</ele>
        <time>2024-05-17T12:36:07Z</time>
      </trkpt>
      <trkpt lat="44.69446" lon="5.15916">
        <ele>252.5</ele>
        <time>2024-05-17T12:36:08Z</time>
      </trkpt>
      <trkpt lat="44.69447" lon="5.1591">
        <ele>252.5</ele>
        <time>2024-05-17T12:36:09Z</time>
      </trkpt>
      <trkpt lat="44.69447" lon="5.15903">
        <ele>252.5</ele>
        <time>2024-05-17T12:36:10Z</time>
      </trkpt>
      <trkpt lat="44.69448" lon="5.15897">
        <ele>252.5</ele>
        <time>2024-05-17T12:36:11Z</time>
      </trkpt>
      <trkpt lat="44.6945" lon="5.15886">
        <ele>252.5</ele>
        <time>2024-05-17T12:36:12Z</time>
      </trkpt>
      <trkpt lat="44.69451" lon="5.15883">
        <ele>252.5</ele>
        <time>2024-05-17T12:36:13Z</time>
      </trkpt>
      <trkpt lat="44.69453" lon="5.15873">
        <ele>252.4</ele>
        <time>2024-05-17T12:36:14Z</time>
      </trkpt>
      <trkpt lat="44.69454" lon="5.15869">
        <ele>252.4</ele>
        <time>2024-05-17T12:36:15Z</time>
      </trkpt>
      <trkpt lat="44.69457" lon="5.15859">
        <ele>252.5</ele>
        <time>2024-05-17T12:36:16Z</time>
      </trkpt>
      <trkpt lat="44.69457" lon="5.15856">
        <ele>252.5</ele>
        <time>2024-05-17T12:36:17Z</time>
      </trkpt>
      <trkpt lat="44.6946" lon="5.15846">
        <ele>252.6</ele>
        <time>2024-05-17T12:36:18Z</time>
      </trkpt>
      <trkpt lat="44.6946" lon="5.15842">
        <ele>252.6</ele>
        <time>2024-05-17T12:36:19Z</time>
      </trkpt>
      <trkpt lat="44.69462" lon="5.15832">
        <ele>252.7</ele>
        <time>2024-05-17T12:36:20Z</time>
      </trkpt>
      <trkpt lat="44.69463" lon="5.15829">
        <ele>252.7</ele>
        <time>2024-05-17T12:36:21Z</time>
      </trkpt>
      <trkpt lat="44.69465" lon="5.15819">
        <ele>252.8</ele>
        <time>2024-05-17T12:36:22Z</time>
      </trkpt>
      <trkpt lat="44.69465" lon="5.15816">
        <ele>252.9</ele>
        <time>2024-05-17T12:36:23Z</time>
      </trkpt>
      <trkpt lat="44.69467" lon="5.1581">
        <ele>253</ele>
        <time>2024-05-17T12:36:24Z</time>
      </trkpt>
      <trkpt lat="44.69468" lon="5.158">
        <ele>253.1</ele>
        <time>2024-05-17T12:36:25Z</time>
      </trkpt>
      <trkpt lat="44.69469" lon="5.15797">
        <ele>253.1</ele>
        <time>2024-05-17T12:36:26Z</time>
      </trkpt>
      <trkpt lat="44.69469" lon="5.15791">
        <ele>253.2</ele>
        <time>2024-05-17T12:36:27Z</time>
      </trkpt>
      <trkpt lat="44.69469" lon="5.15784">
        <ele>253.3</ele>
        <time>2024-05-17T12:36:28Z</time>
      </trkpt>
      <trkpt lat="44.69468" lon="5.15778">
        <ele>253.4</ele>
        <time>2024-05-17T12:36:29Z</time>
      </trkpt>
      <trkpt lat="44.69464" lon="5.1577">
        <ele>253.4</ele>
        <time>2024-05-17T12:36:30Z</time>
      </trkpt>
      <trkpt lat="44.69463" lon="5.15767">
        <ele>253.4</ele>
        <time>2024-05-17T12:36:31Z</time>
      </trkpt>
      <trkpt lat="44.69458" lon="5.15759">
        <ele>253.5</ele>
        <time>2024-05-17T12:36:32Z</time>
      </trkpt>
      <trkpt lat="44.69456" lon="5.15756">
        <ele>253.5</ele>
        <time>2024-05-17T12:36:33Z</time>
      </trkpt>
      <trkpt lat="44.69451" lon="5.15749">
        <ele>253.6</ele>
        <time>2024-05-17T12:36:34Z</time>
      </trkpt>
      <trkpt lat="44.69449" lon="5.15746">
        <ele>253.7</ele>
        <time>2024-05-17T12:36:35Z</time>
      </trkpt>
      <trkpt lat="44.69444" lon="5.15739">
        <ele>253.8</ele>
        <time>2024-05-17T12:36:36Z</time>
      </trkpt>
      <trkpt lat="44.69442" lon="5.15737">
        <ele>253.8</ele>
        <time>2024-05-17T12:36:37Z</time>
      </trkpt>
      <trkpt lat="44.69438" lon="5.15732">
        <ele>253.9</ele>
        <time>2024-05-17T12:36:38Z</time>
      </trkpt>
      <trkpt lat="44.69433" lon="5.15724">
        <ele>254.1</ele>
        <time>2024-05-17T12:36:39Z</time>
      </trkpt>
      <trkpt lat="44.69431" lon="5.15721">
        <ele>254.2</ele>
        <time>2024-05-17T12:36:40Z</time>
      </trkpt>
      <trkpt lat="44.69426" lon="5.15713">
        <ele>254.4</ele>
        <time>2024-05-17T12:36:41Z</time>
      </trkpt>
      <trkpt lat="44.69425" lon="5.1571">
        <ele>254.4</ele>
        <time>2024-05-17T12:36:42Z</time>
      </trkpt>
      <trkpt lat="44.6942" lon="5.15701">
        <ele>254.6</ele>
        <time>2024-05-17T12:36:43Z</time>
      </trkpt>
      <trkpt lat="44.69419" lon="5.15698">
        <ele>254.7</ele>
        <time>2024-05-17T12:36:44Z</time>
      </trkpt>
      <trkpt lat="44.69414" lon="5.1569">
        <ele>254.8</ele>
        <time>2024-05-17T12:36:45Z</time>
      </trkpt>
      <trkpt lat="44.69413" lon="5.15687">
        <ele>254.9</ele>
        <time>2024-05-17T12:36:46Z</time>
      </trkpt>
      <trkpt lat="44.69409" lon="5.15678">
        <ele>255</ele>
        <time>2024-05-17T12:36:47Z</time>
      </trkpt>
      <trkpt lat="44.69408" lon="5.15676">
        <ele>255.1</ele>
        <time>2024-05-17T12:36:48Z</time>
      </trkpt>
      <trkpt lat="44.69405" lon="5.15671">
        <ele>255.2</ele>
        <time>2024-05-17T12:36:49Z</time>
      </trkpt>
      <trkpt lat="44.69401" lon="5.15666">
        <ele>255.2</ele>
        <time>2024-05-17T12:36:50Z</time>
      </trkpt>
      <trkpt lat="44.69398" lon="5.1566">
        <ele>255.3</ele>
        <time>2024-05-17T12:36:51Z</time>
      </trkpt>
      <trkpt lat="44.69395" lon="5.15655">
        <ele>255.4</ele>
        <time>2024-05-17T12:36:52Z</time>
      </trkpt>
      <trkpt lat="44.69392" lon="5.1565">
        <ele>255.4</ele>
        <time>2024-05-17T12:36:53Z</time>
      </trkpt>
      <trkpt lat="44.6939" lon="5.15644">
        <ele>255.5</ele>
        <time>2024-05-17T12:36:54Z</time>
      </trkpt>
      <trkpt lat="44.69387" lon="5.15639">
        <ele>255.5</ele>
        <time>2024-05-17T12:36:55Z</time>
      </trkpt>
      <trkpt lat="44.69384" lon="5.15634">
        <ele>255.6</ele>
        <time>2024-05-17T12:36:56Z</time>
      </trkpt>
      <trkpt lat="44.6938" lon="5.15626">
        <ele>255.6</ele>
        <time>2024-05-17T12:36:57Z</time>
      </trkpt>
      <trkpt lat="44.69378" lon="5.15624">
        <ele>255.6</ele>
        <time>2024-05-17T12:36:58Z</time>
      </trkpt>
      <trkpt lat="44.69373" lon="5.15617">
        <ele>255.7</ele>
        <time>2024-05-17T12:36:59Z</time>
      </trkpt>
      <trkpt lat="44.69372" lon="5.15615">
        <ele>255.7</ele>
        <time>2024-05-17T12:37:00Z</time>
      </trkpt>
      <trkpt lat="44.69367" lon="5.15607">
        <ele>255.8</ele>
        <time>2024-05-17T12:37:01Z</time>
      </trkpt>
      <trkpt lat="44.69365" lon="5.15604">
        <ele>255.8</ele>
        <time>2024-05-17T12:37:02Z</time>
      </trkpt>
      <trkpt lat="44.69362" lon="5.15598">
        <ele>255.8</ele>
        <time>2024-05-17T12:37:03Z</time>
      </trkpt>
      <trkpt lat="44.69359" lon="5.15592">
        <ele>255.8</ele>
        <time>2024-05-17T12:37:04Z</time>
      </trkpt>
      <trkpt lat="44.69354" lon="5.15583">
        <ele>255.8</ele>
        <time>2024-05-17T12:37:05Z</time>
      </trkpt>
      <trkpt lat="44.69352" lon="5.1558">
        <ele>255.8</ele>
        <time>2024-05-17T12:37:06Z</time>
      </trkpt>
      <trkpt lat="44.69347" lon="5.15572">
        <ele>255.8</ele>
        <time>2024-05-17T12:37:07Z</time>
      </trkpt>
      <trkpt lat="44.69345" lon="5.1557">
        <ele>255.8</ele>
        <time>2024-05-17T12:37:08Z</time>
      </trkpt>
      <trkpt lat="44.69343" lon="5.15564">
        <ele>255.8</ele>
        <time>2024-05-17T12:37:09Z</time>
      </trkpt>
      <trkpt lat="44.69338" lon="5.15555">
        <ele>255.7</ele>
        <time>2024-05-17T12:37:10Z</time>
      </trkpt>
      <trkpt lat="44.69337" lon="5.15552">
        <ele>255.7</ele>
        <time>2024-05-17T12:37:11Z</time>
      </trkpt>
      <trkpt lat="44.69334" lon="5.15542">
        <ele>255.7</ele>
        <time>2024-05-17T12:37:12Z</time>
      </trkpt>
      <trkpt lat="44.69332" lon="5.15539">
        <ele>255.7</ele>
        <time>2024-05-17T12:37:13Z</time>
      </trkpt>
      <trkpt lat="44.69329" lon="5.15528">
        <ele>255.6</ele>
        <time>2024-05-17T12:37:14Z</time>
      </trkpt>
      <trkpt lat="44.69327" lon="5.15525">
        <ele>255.6</ele>
        <time>2024-05-17T12:37:15Z</time>
      </trkpt>
      <trkpt lat="44.69323" lon="5.15514">
        <ele>255.5</ele>
        <time>2024-05-17T12:37:16Z</time>
      </trkpt>
      <trkpt lat="44.69322" lon="5.15511">
        <ele>255.5</ele>
        <time>2024-05-17T12:37:17Z</time>
      </trkpt>
      <trkpt lat="44.69319" lon="5.155">
        <ele>255.5</ele>
        <time>2024-05-17T12:37:18Z</time>
      </trkpt>
      <trkpt lat="44.69317" lon="5.15496">
        <ele>255.4</ele>
        <time>2024-05-17T12:37:19Z</time>
      </trkpt>
      <trkpt lat="44.69315" lon="5.15489">
        <ele>255.4</ele>
        <time>2024-05-17T12:37:20Z</time>
      </trkpt>
      <trkpt lat="44.69312" lon="5.15481">
        <ele>255.3</ele>
        <time>2024-05-17T12:37:21Z</time>
      </trkpt>
      <trkpt lat="44.69311" lon="5.15473">
        <ele>255.3</ele>
        <time>2024-05-17T12:37:22Z</time>
      </trkpt>
      <trkpt lat="44.69309" lon="5.15461">
        <ele>255.2</ele>
        <time>2024-05-17T12:37:23Z</time>
      </trkpt>
      <trkpt lat="44.69308" lon="5.15457">
        <ele>255.1</ele>
        <time>2024-05-17T12:37:24Z</time>
      </trkpt>
      <trkpt lat="44.69305" lon="5.15445">
        <ele>255.1</ele>
        <time>2024-05-17T12:37:25Z</time>
      </trkpt>
      <trkpt lat="44.69304" lon="5.15441">
        <ele>255</ele>
        <time>2024-05-17T12:37:26Z</time>
      </trkpt>
      <trkpt lat="44.69303" lon="5.15428">
        <ele>255</ele>
        <time>2024-05-17T12:37:27Z</time>
      </trkpt>
      <trkpt lat="44.69302" lon="5.15423">
        <ele>254.9</ele>
        <time>2024-05-17T12:37:28Z</time>
      </trkpt>
      <trkpt lat="44.69301" lon="5.15415">
        <ele>254.9</ele>
        <time>2024-05-17T12:37:29Z</time>
      </trkpt>
      <trkpt lat="44.693" lon="5.15406">
        <ele>254.8</ele>
        <time>2024-05-17T12:37:30Z</time>
      </trkpt>
      <trkpt lat="44.69299" lon="5.15398">
        <ele>254.7</ele>
        <time>2024-05-17T12:37:31Z</time>
      </trkpt>
      <trkpt lat="44.69299" lon="5.15389">
        <ele>254.7</ele>
        <time>2024-05-17T12:37:32Z</time>
      </trkpt>
      <trkpt lat="44.69299" lon="5.15381">
        <ele>254.6</ele>
        <time>2024-05-17T12:37:33Z</time>
      </trkpt>
      <trkpt lat="44.69298" lon="5.15372">
        <ele>254.6</ele>
        <time>2024-05-17T12:37:34Z</time>
      </trkpt>
      <trkpt lat="44.69298" lon="5.15364">
        <ele>254.5</ele>
        <time>2024-05-17T12:37:35Z</time>
      </trkpt>
      <trkpt lat="44.69298" lon="5.15356">
        <ele>254.4</ele>
        <time>2024-05-17T12:37:36Z</time>
      </trkpt>
      <trkpt lat="44.69298" lon="5.15347">
        <ele>254.4</ele>
        <time>2024-05-17T12:37:37Z</time>
      </trkpt>
      <trkpt lat="44.69297" lon="5.15339">
        <ele>254.3</ele>
        <time>2024-05-17T12:37:38Z</time>
      </trkpt>
      <trkpt lat="44.69297" lon="5.15326">
        <ele>254.2</ele>
        <time>2024-05-17T12:37:39Z</time>
      </trkpt>
      <trkpt lat="44.69296" lon="5.15322">
        <ele>254.1</ele>
        <time>2024-05-17T12:37:40Z</time>
      </trkpt>
      <trkpt lat="44.69295" lon="5.15309">
        <ele>254</ele>
        <time>2024-05-17T12:37:41Z</time>
      </trkpt>
      <trkpt lat="44.69295" lon="5.15305">
        <ele>254</ele>
        <time>2024-05-17T12:37:42Z</time>
      </trkpt>
      <trkpt lat="44.69293" lon="5.15292">
        <ele>253.9</ele>
        <time>2024-05-17T12:37:43Z</time>
      </trkpt>
      <trkpt lat="44.69292" lon="5.15288">
        <ele>253.8</ele>
        <time>2024-05-17T12:37:44Z</time>
      </trkpt>
      <trkpt lat="44.69289" lon="5.15275">
        <ele>253.7</ele>
        <time>2024-05-17T12:37:45Z</time>
      </trkpt>
      <trkpt lat="44.69288" lon="5.1527">
        <ele>253.7</ele>
        <time>2024-05-17T12:37:46Z</time>
      </trkpt>
      <trkpt lat="44.69284" lon="5.15258">
        <ele>253.7</ele>
        <time>2024-05-17T12:37:47Z</time>
      </trkpt>
      <trkpt lat="44.69283" lon="5.15253">
        <ele>253.6</ele>
        <time>2024-05-17T12:37:48Z</time>
      </trkpt>
      <trkpt lat="44.69278" lon="5.15241">
        <ele>253.6</ele>
        <time>2024-05-17T12:37:49Z</time>
      </trkpt>
      <trkpt lat="44.69277" lon="5.15237">
        <ele>253.6</ele>
        <time>2024-05-17T12:37:50Z</time>
      </trkpt>
      <trkpt lat="44.69273" lon="5.15226">
        <ele>253.5</ele>
        <time>2024-05-17T12:37:51Z</time>
      </trkpt>
      <trkpt lat="44.69271" lon="5.15222">
        <ele>253.5</ele>
        <time>2024-05-17T12:37:52Z</time>
      </trkpt>
      <trkpt lat="44.69268" lon="5.15214">
        <ele>253.5</ele>
        <time>2024-05-17T12:37:53Z</time>
      </trkpt>
      <trkpt lat="44.69263" lon="5.15202">
        <ele>253.4</ele>
        <time>2024-05-17T12:37:54Z</time>
      </trkpt>
      <trkpt lat="44.69261" lon="5.15198">
        <ele>253.4</ele>
        <time>2024-05-17T12:37:55Z</time>
      </trkpt>
      <trkpt lat="44.69257" lon="5.15186">
        <ele>253.3</ele>
        <time>2024-05-17T12:37:56Z</time>
      </trkpt>
      <trkpt lat="44.69255" lon="5.15181">
        <ele>253.3</ele>
        <time>2024-05-17T12:37:57Z</time>
      </trkpt>
      <trkpt lat="44.69251" lon="5.15169">
        <ele>253.2</ele>
        <time>2024-05-17T12:37:58Z</time>
      </trkpt>
      <trkpt lat="44.6925" lon="5.15165">
        <ele>253.2</ele>
        <time>2024-05-17T12:37:59Z</time>
      </trkpt>
      <trkpt lat="44.69245" lon="5.15152">
        <ele>253.2</ele>
        <time>2024-05-17T12:38:00Z</time>
      </trkpt>
      <trkpt lat="44.69244" lon="5.15148">
        <ele>253.3</ele>
        <time>2024-05-17T12:38:01Z</time>
      </trkpt>
      <trkpt lat="44.69242" lon="5.15137">
        <ele>253.3</ele>
        <time>2024-05-17T12:38:02Z</time>
      </trkpt>
      <trkpt lat="44.69242" lon="5.15133">
        <ele>253.3</ele>
        <time>2024-05-17T12:38:03Z</time>
      </trkpt>
      <trkpt lat="44.69241" lon="5.15129">
        <ele>253.4</ele>
        <time>2024-05-17T12:38:04Z</time>
      </trkpt>
      <trkpt lat="44.6924" lon="5.15119">
        <ele>253.4</ele>
        <time>2024-05-17T12:38:05Z</time>
      </trkpt>
      <trkpt lat="44.6924" lon="5.15114">
        <ele>253.4</ele>
        <time>2024-05-17T12:38:06Z</time>
      </trkpt>
      <trkpt lat="44.69239" lon="5.15101">
        <ele>253.5</ele>
        <time>2024-05-17T12:38:07Z</time>
      </trkpt>
      <trkpt lat="44.69239" lon="5.15096">
        <ele>253.4</ele>
        <time>2024-05-17T12:38:08Z</time>
      </trkpt>
      <trkpt lat="44.69238" lon="5.15081">
        <ele>253.4</ele>
        <time>2024-05-17T12:38:09Z</time>
      </trkpt>
      <trkpt lat="44.69238" lon="5.15076">
        <ele>253.3</ele>
        <time>2024-05-17T12:38:10Z</time>
      </trkpt>
      <trkpt lat="44.69237" lon="5.15066">
        <ele>253.3</ele>
        <time>2024-05-17T12:38:11Z</time>
      </trkpt>
      <trkpt lat="44.69237" lon="5.15056">
        <ele>253.2</ele>
        <time>2024-05-17T12:38:12Z</time>
      </trkpt>
      <trkpt lat="44.69237" lon="5.15046">
        <ele>253.2</ele>
        <time>2024-05-17T12:38:13Z</time>
      </trkpt>
      <trkpt lat="44.69238" lon="5.15037">
        <ele>253.2</ele>
        <time>2024-05-17T12:38:14Z</time>
      </trkpt>
      <trkpt lat="44.69238" lon="5.15027">
        <ele>253.2</ele>
        <time>2024-05-17T12:38:15Z</time>
      </trkpt>
      <trkpt lat="44.69239" lon="5.15018">
        <ele>253.2</ele>
        <time>2024-05-17T12:38:16Z</time>
      </trkpt>
      <trkpt lat="44.69239" lon="5.15008">
        <ele>253.2</ele>
        <time>2024-05-17T12:38:17Z</time>
      </trkpt>
      <trkpt lat="44.6924" lon="5.14995">
        <ele>253.3</ele>
        <time>2024-05-17T12:38:18Z</time>
      </trkpt>
      <trkpt lat="44.6924" lon="5.14991">
        <ele>253.3</ele>
        <time>2024-05-17T12:38:19Z</time>
      </trkpt>
      <trkpt lat="44.69241" lon="5.14982">
        <ele>253.3</ele>
        <time>2024-05-17T12:38:20Z</time>
      </trkpt>
      <trkpt lat="44.69242" lon="5.1497">
        <ele>253.4</ele>
        <time>2024-05-17T12:38:21Z</time>
      </trkpt>
      <trkpt lat="44.69242" lon="5.14965">
        <ele>253.4</ele>
        <time>2024-05-17T12:38:22Z</time>
      </trkpt>
      <trkpt lat="44.69243" lon="5.14953">
        <ele>253.4</ele>
        <time>2024-05-17T12:38:23Z</time>
      </trkpt>
      <trkpt lat="44.69243" lon="5.14948">
        <ele>253.4</ele>
        <time>2024-05-17T12:38:24Z</time>
      </trkpt>
      <trkpt lat="44.69244" lon="5.1494">
        <ele>253.4</ele>
        <time>2024-05-17T12:38:25Z</time>
      </trkpt>
      <trkpt lat="44.69245" lon="5.14931">
        <ele>253.4</ele>
        <time>2024-05-17T12:38:26Z</time>
      </trkpt>
      <trkpt lat="44.69246" lon="5.14918">
        <ele>253.4</ele>
        <time>2024-05-17T12:38:27Z</time>
      </trkpt>
      <trkpt lat="44.69246" lon="5.14914">
        <ele>253.4</ele>
        <time>2024-05-17T12:38:28Z</time>
      </trkpt>
      <trkpt lat="44.69247" lon="5.14901">
        <ele>253.5</ele>
        <time>2024-05-17T12:38:29Z</time>
      </trkpt>
      <trkpt lat="44.69246" lon="5.14897">
        <ele>253.5</ele>
        <time>2024-05-17T12:38:30Z</time>
      </trkpt>
      <trkpt lat="44.69246" lon="5.14884">
        <ele>253.6</ele>
        <time>2024-05-17T12:38:31Z</time>
      </trkpt>
      <trkpt lat="44.69245" lon="5.14879">
        <ele>253.6</ele>
        <time>2024-05-17T12:38:32Z</time>
      </trkpt>
      <trkpt lat="44.69245" lon="5.14871">
        <ele>253.7</ele>
        <time>2024-05-17T12:38:33Z</time>
      </trkpt>
      <trkpt lat="44.69244" lon="5.14859">
        <ele>253.8</ele>
        <time>2024-05-17T12:38:34Z</time>
      </trkpt>
      <trkpt lat="44.69244" lon="5.14855">
        <ele>253.8</ele>
        <time>2024-05-17T12:38:35Z</time>
      </trkpt>
      <trkpt lat="44.69243" lon="5.14847">
        <ele>253.8</ele>
        <time>2024-05-17T12:38:36Z</time>
      </trkpt>
      <trkpt lat="44.69244" lon="5.14835">
        <ele>253.8</ele>
        <time>2024-05-17T12:38:37Z</time>
      </trkpt>
      <trkpt lat="44.69244" lon="5.14831">
        <ele>253.8</ele>
        <time>2024-05-17T12:38:38Z</time>
      </trkpt>
      <trkpt lat="44.69245" lon="5.1482">
        <ele>253.8</ele>
        <time>2024-05-17T12:38:39Z</time>
      </trkpt>
      <trkpt lat="44.69245" lon="5.14816">
        <ele>253.8</ele>
        <time>2024-05-17T12:38:40Z</time>
      </trkpt>
      <trkpt lat="44.69246" lon="5.14808">
        <ele>253.7</ele>
        <time>2024-05-17T12:38:41Z</time>
      </trkpt>
      <trkpt lat="44.69247" lon="5.148">
        <ele>253.7</ele>
        <time>2024-05-17T12:38:42Z</time>
      </trkpt>
      <trkpt lat="44.69248" lon="5.14792">
        <ele>253.7</ele>
        <time>2024-05-17T12:38:43Z</time>
      </trkpt>
      <trkpt lat="44.6925" lon="5.1478">
        <ele>253.6</ele>
        <time>2024-05-17T12:38:44Z</time>
      </trkpt>
      <trkpt lat="44.69251" lon="5.14776">
        <ele>253.6</ele>
        <time>2024-05-17T12:38:45Z</time>
      </trkpt>
      <trkpt lat="44.69252" lon="5.14768">
        <ele>253.5</ele>
        <time>2024-05-17T12:38:46Z</time>
      </trkpt>
      <trkpt lat="44.69254" lon="5.14755">
        <ele>253.5</ele>
        <time>2024-05-17T12:38:47Z</time>
      </trkpt>
      <trkpt lat="44.69255" lon="5.14751">
        <ele>253.4</ele>
        <time>2024-05-17T12:38:48Z</time>
      </trkpt>
      <trkpt lat="44.69256" lon="5.14742">
        <ele>253.4</ele>
        <time>2024-05-17T12:38:49Z</time>
      </trkpt>
      <trkpt lat="44.69257" lon="5.14729">
        <ele>253.4</ele>
        <time>2024-05-17T12:38:50Z</time>
      </trkpt>
      <trkpt lat="44.69258" lon="5.14725">
        <ele>253.4</ele>
        <time>2024-05-17T12:38:51Z</time>
      </trkpt>
      <trkpt lat="44.6926" lon="5.14712">
        <ele>253.4</ele>
        <time>2024-05-17T12:38:52Z</time>
      </trkpt>
      <trkpt lat="44.69261" lon="5.14708">
        <ele>253.4</ele>
        <time>2024-05-17T12:38:53Z</time>
      </trkpt>
      <trkpt lat="44.69262" lon="5.14699">
        <ele>253.4</ele>
        <time>2024-05-17T12:38:54Z</time>
      </trkpt>
      <trkpt lat="44.69263" lon="5.14691">
        <ele>253.3</ele>
        <time>2024-05-17T12:38:55Z</time>
      </trkpt>
      <trkpt lat="44.69264" lon="5.14682">
        <ele>253.3</ele>
        <time>2024-05-17T12:38:56Z</time>
      </trkpt>
      <trkpt lat="44.69265" lon="5.14674">
        <ele>253.3</ele>
        <time>2024-05-17T12:38:57Z</time>
      </trkpt>
      <trkpt lat="44.69265" lon="5.1466">
        <ele>253.4</ele>
        <time>2024-05-17T12:38:58Z</time>
      </trkpt>
      <trkpt lat="44.69266" lon="5.14656">
        <ele>253.4</ele>
        <time>2024-05-17T12:38:59Z</time>
      </trkpt>
      <trkpt lat="44.69266" lon="5.14647">
        <ele>253.4</ele>
        <time>2024-05-17T12:39:00Z</time>
      </trkpt>
      <trkpt lat="44.69267" lon="5.14638">
        <ele>253.4</ele>
        <time>2024-05-17T12:39:01Z</time>
      </trkpt>
      <trkpt lat="44.69267" lon="5.1463">
        <ele>253.4</ele>
        <time>2024-05-17T12:39:02Z</time>
      </trkpt>
      <trkpt lat="44.69267" lon="5.14622">
        <ele>253.4</ele>
        <time>2024-05-17T12:39:03Z</time>
      </trkpt>
      <trkpt lat="44.69268" lon="5.14609">
        <ele>253.4</ele>
        <time>2024-05-17T12:39:04Z</time>
      </trkpt>
      <trkpt lat="44.69268" lon="5.14605">
        <ele>253.4</ele>
        <time>2024-05-17T12:39:05Z</time>
      </trkpt>
      <trkpt lat="44.69269" lon="5.14597">
        <ele>253.4</ele>
        <time>2024-05-17T12:39:06Z</time>
      </trkpt>
      <trkpt lat="44.69269" lon="5.14584">
        <ele>253.4</ele>
        <time>2024-05-17T12:39:07Z</time>
      </trkpt>
      <trkpt lat="44.69269" lon="5.14579">
        <ele>253.4</ele>
        <time>2024-05-17T12:39:08Z</time>
      </trkpt>
      <trkpt lat="44.69269" lon="5.14566">
        <ele>253.4</ele>
        <time>2024-05-17T12:39:09Z</time>
      </trkpt>
      <trkpt lat="44.69269" lon="5.14561">
        <ele>253.4</ele>
        <time>2024-05-17T12:39:10Z</time>
      </trkpt>
      <trkpt lat="44.69268" lon="5.14547">
        <ele>253.3</ele>
        <time>2024-05-17T12:39:11Z</time>
      </trkpt>
      <trkpt lat="44.69268" lon="5.14542">
        <ele>253.3</ele>
        <time>2024-05-17T12:39:12Z</time>
      </trkpt>
      <trkpt lat="44.69267" lon="5.14528">
        <ele>253.3</ele>
        <time>2024-05-17T12:39:13Z</time>
      </trkpt>
      <trkpt lat="44.69267" lon="5.14524">
        <ele>253.4</ele>
        <time>2024-05-17T12:39:14Z</time>
      </trkpt>
      <trkpt lat="44.69267" lon="5.14511">
        <ele>253.5</ele>
        <time>2024-05-17T12:39:15Z</time>
      </trkpt>
      <trkpt lat="44.69267" lon="5.14507">
        <ele>253.5</ele>
        <time>2024-05-17T12:39:16Z</time>
      </trkpt>
      <trkpt lat="44.69268" lon="5.14494">
        <ele>253.6</ele>
        <time>2024-05-17T12:39:17Z</time>
      </trkpt>
      <trkpt lat="44.69269" lon="5.1449">
        <ele>253.7</ele>
        <time>2024-05-17T12:39:18Z</time>
      </trkpt>
      <trkpt lat="44.6927" lon="5.14481">
        <ele>253.8</ele>
        <time>2024-05-17T12:39:19Z</time>
      </trkpt>
      <trkpt lat="44.6927" lon="5.14469">
        <ele>253.9</ele>
        <time>2024-05-17T12:39:20Z</time>
      </trkpt>
      <trkpt lat="44.69271" lon="5.14465">
        <ele>254</ele>
        <time>2024-05-17T12:39:21Z</time>
      </trkpt>
      <trkpt lat="44.69271" lon="5.14453">
        <ele>254.1</ele>
        <time>2024-05-17T12:39:22Z</time>
      </trkpt>
      <trkpt lat="44.69272" lon="5.14448">
        <ele>254.2</ele>
        <time>2024-05-17T12:39:23Z</time>
      </trkpt>
      <trkpt lat="44.69272" lon="5.14436">
        <ele>254.3</ele>
        <time>2024-05-17T12:39:24Z</time>
      </trkpt>
      <trkpt lat="44.69273" lon="5.14432">
        <ele>254.3</ele>
        <time>2024-05-17T12:39:25Z</time>
      </trkpt>
      <trkpt lat="44.69273" lon="5.1442">
        <ele>254.4</ele>
        <time>2024-05-17T12:39:26Z</time>
      </trkpt>
      <trkpt lat="44.69273" lon="5.14416">
        <ele>254.4</ele>
        <time>2024-05-17T12:39:27Z</time>
      </trkpt>
      <trkpt lat="44.69274" lon="5.14409">
        <ele>254.5</ele>
        <time>2024-05-17T12:39:28Z</time>
      </trkpt>
      <trkpt lat="44.69275" lon="5.14397">
        <ele>254.6</ele>
        <time>2024-05-17T12:39:29Z</time>
      </trkpt>
      <trkpt lat="44.69275" lon="5.14394">
        <ele>254.6</ele>
        <time>2024-05-17T12:39:30Z</time>
      </trkpt>
      <trkpt lat="44.69276" lon="5.14386">
        <ele>254.7</ele>
        <time>2024-05-17T12:39:31Z</time>
      </trkpt>
      <trkpt lat="44.69278" lon="5.14376">
        <ele>254.8</ele>
        <time>2024-05-17T12:39:32Z</time>
      </trkpt>
      <trkpt lat="44.69278" lon="5.14372">
        <ele>254.8</ele>
        <time>2024-05-17T12:39:33Z</time>
      </trkpt>
      <trkpt lat="44.69279" lon="5.14362">
        <ele>254.8</ele>
        <time>2024-05-17T12:39:34Z</time>
      </trkpt>
      <trkpt lat="44.6928" lon="5.14358">
        <ele>254.8</ele>
        <time>2024-05-17T12:39:35Z</time>
      </trkpt>
      <trkpt lat="44.69281" lon="5.14347">
        <ele>254.8</ele>
        <time>2024-05-17T12:39:36Z</time>
      </trkpt>
      <trkpt lat="44.69281" lon="5.14344">
        <ele>254.7</ele>
        <time>2024-05-17T12:39:37Z</time>
      </trkpt>
      <trkpt lat="44.69282" lon="5.14336">
        <ele>254.7</ele>
        <time>2024-05-17T12:39:38Z</time>
      </trkpt>
      <trkpt lat="44.69282" lon="5.14329">
        <ele>254.7</ele>
        <time>2024-05-17T12:39:39Z</time>
      </trkpt>
      <trkpt lat="44.69282" lon="5.14321">
        <ele>254.7</ele>
        <time>2024-05-17T12:39:40Z</time>
      </trkpt>
      <trkpt lat="44.69282" lon="5.14314">
        <ele>254.6</ele>
        <time>2024-05-17T12:39:41Z</time>
      </trkpt>
      <trkpt lat="44.69282" lon="5.14306">
        <ele>254.6</ele>
        <time>2024-05-17T12:39:42Z</time>
      </trkpt>
      <trkpt lat="44.69282" lon="5.14298">
        <ele>254.6</ele>
        <time>2024-05-17T12:39:43Z</time>
      </trkpt>
      <trkpt lat="44.69282" lon="5.1429">
        <ele>254.6</ele>
        <time>2024-05-17T12:39:44Z</time>
      </trkpt>
      <trkpt lat="44.69281" lon="5.14283">
        <ele>254.6</ele>
        <time>2024-05-17T12:39:45Z</time>
      </trkpt>
      <trkpt lat="44.69281" lon="5.14275">
        <ele>254.6</ele>
        <time>2024-05-17T12:39:46Z</time>
      </trkpt>
      <trkpt lat="44.69281" lon="5.14267">
        <ele>254.6</ele>
        <time>2024-05-17T12:39:47Z</time>
      </trkpt>
      <trkpt lat="44.6928" lon="5.14256">
        <ele>254.5</ele>
        <time>2024-05-17T12:39:48Z</time>
      </trkpt>
      <trkpt lat="44.6928" lon="5.14252">
        <ele>254.5</ele>
        <time>2024-05-17T12:39:49Z</time>
      </trkpt>
      <trkpt lat="44.6928" lon="5.14244">
        <ele>254.4</ele>
        <time>2024-05-17T12:39:50Z</time>
      </trkpt>
      <trkpt lat="44.6928" lon="5.14236">
        <ele>254.4</ele>
        <time>2024-05-17T12:39:51Z</time>
      </trkpt>
      <trkpt lat="44.6928" lon="5.14224">
        <ele>254.3</ele>
        <time>2024-05-17T12:39:52Z</time>
      </trkpt>
      <trkpt lat="44.6928" lon="5.1422">
        <ele>254.2</ele>
        <time>2024-05-17T12:39:53Z</time>
      </trkpt>
      <trkpt lat="44.6928" lon="5.14208">
        <ele>254.2</ele>
        <time>2024-05-17T12:39:54Z</time>
      </trkpt>
      <trkpt lat="44.6928" lon="5.14204">
        <ele>254.1</ele>
        <time>2024-05-17T12:39:55Z</time>
      </trkpt>
      <trkpt lat="44.69279" lon="5.14192">
        <ele>254.1</ele>
        <time>2024-05-17T12:39:56Z</time>
      </trkpt>
      <trkpt lat="44.69279" lon="5.14188">
        <ele>254</ele>
        <time>2024-05-17T12:39:57Z</time>
      </trkpt>
      <trkpt lat="44.69279" lon="5.14176">
        <ele>253.9</ele>
        <time>2024-05-17T12:39:58Z</time>
      </trkpt>
      <trkpt lat="44.69279" lon="5.14172">
        <ele>253.9</ele>
        <time>2024-05-17T12:39:59Z</time>
      </trkpt>
      <trkpt lat="44.69279" lon="5.14164">
        <ele>253.8</ele>
        <time>2024-05-17T12:40:00Z</time>
      </trkpt>
      <trkpt lat="44.69278" lon="5.14156">
        <ele>253.7</ele>
        <time>2024-05-17T12:40:01Z</time>
      </trkpt>
      <trkpt lat="44.69278" lon="5.14148">
        <ele>253.6</ele>
        <time>2024-05-17T12:40:02Z</time>
      </trkpt>
      <trkpt lat="44.69278" lon="5.14139">
        <ele>253.5</ele>
        <time>2024-05-17T12:40:03Z</time>
      </trkpt>
      <trkpt lat="44.69278" lon="5.14131">
        <ele>253.4</ele>
        <time>2024-05-17T12:40:04Z</time>
      </trkpt>
      <trkpt lat="44.69278" lon="5.14123">
        <ele>253.3</ele>
        <time>2024-05-17T12:40:05Z</time>
      </trkpt>
      <trkpt lat="44.69277" lon="5.1411">
        <ele>253.2</ele>
        <time>2024-05-17T12:40:06Z</time>
      </trkpt>
      <trkpt lat="44.69277" lon="5.14106">
        <ele>253.2</ele>
        <time>2024-05-17T12:40:07Z</time>
      </trkpt>
      <trkpt lat="44.69276" lon="5.14094">
        <ele>253.1</ele>
        <time>2024-05-17T12:40:08Z</time>
      </trkpt>
      <trkpt lat="44.69276" lon="5.1409">
        <ele>253.1</ele>
        <time>2024-05-17T12:40:09Z</time>
      </trkpt>
      <trkpt lat="44.69276" lon="5.14078">
        <ele>253</ele>
        <time>2024-05-17T12:40:10Z</time>
      </trkpt>
      <trkpt lat="44.69276" lon="5.14074">
        <ele>252.9</ele>
        <time>2024-05-17T12:40:11Z</time>
      </trkpt>
      <trkpt lat="44.69277" lon="5.14065">
        <ele>252.9</ele>
        <time>2024-05-17T12:40:12Z</time>
      </trkpt>
      <trkpt lat="44.69278" lon="5.14057">
        <ele>252.8</ele>
        <time>2024-05-17T12:40:13Z</time>
      </trkpt>
      <trkpt lat="44.69278" lon="5.14049">
        <ele>252.7</ele>
        <time>2024-05-17T12:40:14Z</time>
      </trkpt>
      <trkpt lat="44.69278" lon="5.14038">
        <ele>252.6</ele>
        <time>2024-05-17T12:40:15Z</time>
      </trkpt>
      <trkpt lat="44.69278" lon="5.14034">
        <ele>252.6</ele>
        <time>2024-05-17T12:40:16Z</time>
      </trkpt>
      <trkpt lat="44.69279" lon="5.14024">
        <ele>252.4</ele>
        <time>2024-05-17T12:40:17Z</time>
      </trkpt>
      <trkpt lat="44.69279" lon="5.1402">
        <ele>252.4</ele>
        <time>2024-05-17T12:40:18Z</time>
      </trkpt>
      <trkpt lat="44.6928" lon="5.1401">
        <ele>252.2</ele>
        <time>2024-05-17T12:40:19Z</time>
      </trkpt>
      <trkpt lat="44.6928" lon="5.14006">
        <ele>252.1</ele>
        <time>2024-05-17T12:40:20Z</time>
      </trkpt>
      <trkpt lat="44.6928" lon="5.13999">
        <ele>252</ele>
        <time>2024-05-17T12:40:21Z</time>
      </trkpt>
      <trkpt lat="44.69281" lon="5.13992">
        <ele>251.7</ele>
        <time>2024-05-17T12:40:22Z</time>
      </trkpt>
      <trkpt lat="44.69283" lon="5.13986">
        <ele>251.5</ele>
        <time>2024-05-17T12:40:23Z</time>
      </trkpt>
      <trkpt lat="44.69284" lon="5.13979">
        <ele>251.3</ele>
        <time>2024-05-17T12:40:24Z</time>
      </trkpt>
      <trkpt lat="44.69287" lon="5.13972">
        <ele>251</ele>
        <time>2024-05-17T12:40:25Z</time>
      </trkpt>
      <trkpt lat="44.69289" lon="5.13965">
        <ele>250.7</ele>
        <time>2024-05-17T12:40:26Z</time>
      </trkpt>
      <trkpt lat="44.69291" lon="5.13957">
        <ele>250.4</ele>
        <time>2024-05-17T12:40:27Z</time>
      </trkpt>
      <trkpt lat="44.69294" lon="5.13949">
        <ele>250</ele>
        <time>2024-05-17T12:40:28Z</time>
      </trkpt>
      <trkpt lat="44.69297" lon="5.13941">
        <ele>249.7</ele>
        <time>2024-05-17T12:40:29Z</time>
      </trkpt>
      <trkpt lat="44.69301" lon="5.13933">
        <ele>249.3</ele>
        <time>2024-05-17T12:40:30Z</time>
      </trkpt>
      <trkpt lat="44.69306" lon="5.1392">
        <ele>248.7</ele>
        <time>2024-05-17T12:40:31Z</time>
      </trkpt>
      <trkpt lat="44.69308" lon="5.13916">
        <ele>248.5</ele>
        <time>2024-05-17T12:40:32Z</time>
      </trkpt>
      <trkpt lat="44.69313" lon="5.13903">
        <ele>247.9</ele>
        <time>2024-05-17T12:40:33Z</time>
      </trkpt>
      <trkpt lat="44.69315" lon="5.13898">
        <ele>247.7</ele>
        <time>2024-05-17T12:40:34Z</time>
      </trkpt>
      <trkpt lat="44.69321" lon="5.13885">
        <ele>247</ele>
        <time>2024-05-17T12:40:35Z</time>
      </trkpt>
      <trkpt lat="44.69323" lon="5.1388">
        <ele>246.8</ele>
        <time>2024-05-17T12:40:36Z</time>
      </trkpt>
      <trkpt lat="44.6933" lon="5.13867">
        <ele>246.2</ele>
        <time>2024-05-17T12:40:37Z</time>
      </trkpt>
      <trkpt lat="44.69333" lon="5.13864">
        <ele>246</ele>
        <time>2024-05-17T12:40:38Z</time>
      </trkpt>
      <trkpt lat="44.69343" lon="5.13853">
        <ele>245.3</ele>
        <time>2024-05-17T12:40:39Z</time>
      </trkpt>
      <trkpt lat="44.69346" lon="5.1385">
        <ele>245.1</ele>
        <time>2024-05-17T12:40:40Z</time>
      </trkpt>
      <trkpt lat="44.69357" lon="5.13841">
        <ele>244.8</ele>
        <time>2024-05-17T12:40:41Z</time>
      </trkpt>
      <trkpt lat="44.69361" lon="5.13838">
        <ele>244.7</ele>
        <time>2024-05-17T12:40:42Z</time>
      </trkpt>
      <trkpt lat="44.69368" lon="5.13832">
        <ele>244.5</ele>
        <time>2024-05-17T12:40:43Z</time>
      </trkpt>
      <trkpt lat="44.69372" lon="5.13817">
        <ele>244</ele>
        <time>2024-05-17T12:40:44Z</time>
      </trkpt>
      <trkpt lat="44.69373" lon="5.13812">
        <ele>243.8</ele>
        <time>2024-05-17T12:40:45Z</time>
      </trkpt>
      <trkpt lat="44.69373" lon="5.13801">
        <ele>243.5</ele>
        <time>2024-05-17T12:40:46Z</time>
      </trkpt>
      <trkpt lat="44.69372" lon="5.13785">
        <ele>243</ele>
        <time>2024-05-17T12:40:47Z</time>
      </trkpt>
      <trkpt lat="44.69371" lon="5.13779">
        <ele>242.9</ele>
        <time>2024-05-17T12:40:48Z</time>
      </trkpt>
      <trkpt lat="44.6937" lon="5.13762">
        <ele>242.6</ele>
        <time>2024-05-17T12:40:49Z</time>
      </trkpt>
      <trkpt lat="44.69371" lon="5.13756">
        <ele>242.5</ele>
        <time>2024-05-17T12:40:50Z</time>
      </trkpt>
      <trkpt lat="44.69372" lon="5.13739">
        <ele>242.3</ele>
        <time>2024-05-17T12:40:51Z</time>
      </trkpt>
      <trkpt lat="44.69372" lon="5.13734">
        <ele>242.3</ele>
        <time>2024-05-17T12:40:52Z</time>
      </trkpt>
      <trkpt lat="44.69375" lon="5.13718">
        <ele>242.1</ele>
        <time>2024-05-17T12:40:53Z</time>
      </trkpt>
      <trkpt lat="44.69376" lon="5.13713">
        <ele>242</ele>
        <time>2024-05-17T12:40:54Z</time>
      </trkpt>
      <trkpt lat="44.69377" lon="5.13702">
        <ele>241.9</ele>
        <time>2024-05-17T12:40:55Z</time>
      </trkpt>
      <trkpt lat="44.6938" lon="5.13688">
        <ele>241.8</ele>
        <time>2024-05-17T12:40:56Z</time>
      </trkpt>
      <trkpt lat="44.69381" lon="5.13683">
        <ele>241.8</ele>
        <time>2024-05-17T12:40:57Z</time>
      </trkpt>
      <trkpt lat="44.69382" lon="5.13673">
        <ele>241.7</ele>
        <time>2024-05-17T12:40:58Z</time>
      </trkpt>
      <trkpt lat="44.69384" lon="5.13658">
        <ele>241.5</ele>
        <time>2024-05-17T12:40:59Z</time>
      </trkpt>
      <trkpt lat="44.69385" lon="5.13654">
        <ele>241.5</ele>
        <time>2024-05-17T12:41:00Z</time>
      </trkpt>
      <trkpt lat="44.69387" lon="5.13639">
        <ele>241.3</ele>
        <time>2024-05-17T12:41:01Z</time>
      </trkpt>
      <trkpt lat="44.69388" lon="5.13634">
        <ele>241.3</ele>
        <time>2024-05-17T12:41:02Z</time>
      </trkpt>
      <trkpt lat="44.6939" lon="5.13619">
        <ele>241.1</ele>
        <time>2024-05-17T12:41:03Z</time>
      </trkpt>
      <trkpt lat="44.69391" lon="5.13614">
        <ele>241</ele>
        <time>2024-05-17T12:41:04Z</time>
      </trkpt>
      <trkpt lat="44.69392" lon="5.13605">
        <ele>240.9</ele>
        <time>2024-05-17T12:41:05Z</time>
      </trkpt>
      <trkpt lat="44.69393" lon="5.13595">
        <ele>240.8</ele>
        <time>2024-05-17T12:41:06Z</time>
      </trkpt>
      <trkpt lat="44.69395" lon="5.13585">
        <ele>240.7</ele>
        <time>2024-05-17T12:41:07Z</time>
      </trkpt>
      <trkpt lat="44.69396" lon="5.13575">
        <ele>240.6</ele>
        <time>2024-05-17T12:41:08Z</time>
      </trkpt>
      <trkpt lat="44.69397" lon="5.13565">
        <ele>240.5</ele>
        <time>2024-05-17T12:41:09Z</time>
      </trkpt>
      <trkpt lat="44.69398" lon="5.13556">
        <ele>240.5</ele>
        <time>2024-05-17T12:41:10Z</time>
      </trkpt>
      <trkpt lat="44.694" lon="5.13546">
        <ele>240.5</ele>
        <time>2024-05-17T12:41:11Z</time>
      </trkpt>
      <trkpt lat="44.69401" lon="5.13537">
        <ele>240.5</ele>
        <time>2024-05-17T12:41:12Z</time>
      </trkpt>
      <trkpt lat="44.69403" lon="5.13527">
        <ele>240.5</ele>
        <time>2024-05-17T12:41:13Z</time>
      </trkpt>
      <trkpt lat="44.69404" lon="5.13518">
        <ele>240.5</ele>
        <time>2024-05-17T12:41:14Z</time>
      </trkpt>
      <trkpt lat="44.69406" lon="5.13505">
        <ele>240.5</ele>
        <time>2024-05-17T12:41:15Z</time>
      </trkpt>
      <trkpt lat="44.69407" lon="5.135">
        <ele>240.5</ele>
        <time>2024-05-17T12:41:16Z</time>
      </trkpt>
      <trkpt lat="44.69409" lon="5.13487">
        <ele>240.5</ele>
        <time>2024-05-17T12:41:17Z</time>
      </trkpt>
      <trkpt lat="44.69409" lon="5.13482">
        <ele>240.5</ele>
        <time>2024-05-17T12:41:18Z</time>
      </trkpt>
      <trkpt lat="44.69411" lon="5.13469">
        <ele>240.5</ele>
        <time>2024-05-17T12:41:19Z</time>
      </trkpt>
      <trkpt lat="44.69412" lon="5.13464">
        <ele>240.5</ele>
        <time>2024-05-17T12:41:20Z</time>
      </trkpt>
      <trkpt lat="44.69414" lon="5.13451">
        <ele>240.5</ele>
        <time>2024-05-17T12:41:21Z</time>
      </trkpt>
      <trkpt lat="44.69414" lon="5.13446">
        <ele>240.5</ele>
        <time>2024-05-17T12:41:22Z</time>
      </trkpt>
      <trkpt lat="44.69416" lon="5.13432">
        <ele>240.5</ele>
        <time>2024-05-17T12:41:23Z</time>
      </trkpt>
      <trkpt lat="44.69416" lon="5.13428">
        <ele>240.5</ele>
        <time>2024-05-17T12:41:24Z</time>
      </trkpt>
      <trkpt lat="44.69418" lon="5.13414">
        <ele>240.6</ele>
        <time>2024-05-17T12:41:25Z</time>
      </trkpt>
      <trkpt lat="44.69419" lon="5.1341">
        <ele>240.6</ele>
        <time>2024-05-17T12:41:26Z</time>
      </trkpt>
      <trkpt lat="44.6942" lon="5.13401">
        <ele>240.6</ele>
        <time>2024-05-17T12:41:27Z</time>
      </trkpt>
      <trkpt lat="44.69422" lon="5.13388">
        <ele>240.6</ele>
        <time>2024-05-17T12:41:28Z</time>
      </trkpt>
      <trkpt lat="44.69422" lon="5.13384">
        <ele>240.6</ele>
        <time>2024-05-17T12:41:29Z</time>
      </trkpt>
      <trkpt lat="44.69424" lon="5.13371">
        <ele>240.6</ele>
        <time>2024-05-17T12:41:30Z</time>
      </trkpt>
      <trkpt lat="44.69425" lon="5.13366">
        <ele>240.6</ele>
        <time>2024-05-17T12:41:31Z</time>
      </trkpt>
      <trkpt lat="44.69427" lon="5.13353">
        <ele>240.7</ele>
        <time>2024-05-17T12:41:32Z</time>
      </trkpt>
      <trkpt lat="44.69427" lon="5.13349">
        <ele>240.7</ele>
        <time>2024-05-17T12:41:33Z</time>
      </trkpt>
      <trkpt lat="44.69429" lon="5.13336">
        <ele>240.7</ele>
        <time>2024-05-17T12:41:34Z</time>
      </trkpt>
      <trkpt lat="44.6943" lon="5.13332">
        <ele>240.7</ele>
        <time>2024-05-17T12:41:35Z</time>
      </trkpt>
      <trkpt lat="44.69432" lon="5.13319">
        <ele>240.8</ele>
        <time>2024-05-17T12:41:36Z</time>
      </trkpt>
      <trkpt lat="44.69432" lon="5.13315">
        <ele>240.8</ele>
        <time>2024-05-17T12:41:37Z</time>
      </trkpt>
      <trkpt lat="44.69434" lon="5.13307">
        <ele>240.8</ele>
        <time>2024-05-17T12:41:38Z</time>
      </trkpt>
      <trkpt lat="44.69436" lon="5.13295">
        <ele>240.9</ele>
        <time>2024-05-17T12:41:39Z</time>
      </trkpt>
      <trkpt lat="44.69437" lon="5.13291">
        <ele>240.9</ele>
        <time>2024-05-17T12:41:40Z</time>
      </trkpt>
      <trkpt lat="44.69439" lon="5.13282">
        <ele>240.9</ele>
        <time>2024-05-17T12:41:41Z</time>
      </trkpt>
      <trkpt lat="44.69442" lon="5.13269">
        <ele>240.9</ele>
        <time>2024-05-17T12:41:42Z</time>
      </trkpt>
      <trkpt lat="44.69442" lon="5.13265">
        <ele>240.9</ele>
        <time>2024-05-17T12:41:43Z</time>
      </trkpt>
      <trkpt lat="44.69445" lon="5.13252">
        <ele>240.8</ele>
        <time>2024-05-17T12:41:44Z</time>
      </trkpt>
      <trkpt lat="44.69446" lon="5.13248">
        <ele>240.8</ele>
        <time>2024-05-17T12:41:45Z</time>
      </trkpt>
      <trkpt lat="44.69449" lon="5.13236">
        <ele>240.8</ele>
        <time>2024-05-17T12:41:46Z</time>
      </trkpt>
      <trkpt lat="44.6945" lon="5.13232">
        <ele>240.8</ele>
        <time>2024-05-17T12:41:47Z</time>
      </trkpt>
      <trkpt lat="44.69452" lon="5.13224">
        <ele>240.8</ele>
        <time>2024-05-17T12:41:48Z</time>
      </trkpt>
      <trkpt lat="44.69454" lon="5.13217">
        <ele>240.7</ele>
        <time>2024-05-17T12:41:49Z</time>
      </trkpt>
      <trkpt lat="44.69457" lon="5.13209">
        <ele>240.7</ele>
        <time>2024-05-17T12:41:50Z</time>
      </trkpt>
      <trkpt lat="44.69459" lon="5.13201">
        <ele>240.7</ele>
        <time>2024-05-17T12:41:51Z</time>
      </trkpt>
      <trkpt lat="44.69462" lon="5.13193">
        <ele>240.7</ele>
        <time>2024-05-17T12:41:52Z</time>
      </trkpt>
      <trkpt lat="44.69464" lon="5.13185">
        <ele>240.6</ele>
        <time>2024-05-17T12:41:53Z</time>
      </trkpt>
      <trkpt lat="44.69467" lon="5.13176">
        <ele>240.6</ele>
        <time>2024-05-17T12:41:54Z</time>
      </trkpt>
      <trkpt lat="44.69469" lon="5.13168">
        <ele>240.6</ele>
        <time>2024-05-17T12:41:55Z</time>
      </trkpt>
      <trkpt lat="44.69471" lon="5.1316">
        <ele>240.5</ele>
        <time>2024-05-17T12:41:56Z</time>
      </trkpt>
      <trkpt lat="44.69473" lon="5.13152">
        <ele>240.5</ele>
        <time>2024-05-17T12:41:57Z</time>
      </trkpt>
      <trkpt lat="44.69475" lon="5.13139">
        <ele>240.5</ele>
        <time>2024-05-17T12:41:58Z</time>
      </trkpt>
      <trkpt lat="44.69476" lon="5.13134">
        <ele>240.5</ele>
        <time>2024-05-17T12:41:59Z</time>
      </trkpt>
      <trkpt lat="44.69478" lon="5.13122">
        <ele>240.4</ele>
        <time>2024-05-17T12:42:00Z</time>
      </trkpt>
      <trkpt lat="44.69479" lon="5.13117">
        <ele>240.4</ele>
        <time>2024-05-17T12:42:01Z</time>
      </trkpt>
      <trkpt lat="44.69481" lon="5.13105">
        <ele>240.4</ele>
        <time>2024-05-17T12:42:02Z</time>
      </trkpt>
      <trkpt lat="44.69482" lon="5.131">
        <ele>240.4</ele>
        <time>2024-05-17T12:42:03Z</time>
      </trkpt>
      <trkpt lat="44.69484" lon="5.13087">
        <ele>240.3</ele>
        <time>2024-05-17T12:42:04Z</time>
      </trkpt>
      <trkpt lat="44.69484" lon="5.13083">
        <ele>240.3</ele>
        <time>2024-05-17T12:42:05Z</time>
      </trkpt>
      <trkpt lat="44.69486" lon="5.13069">
        <ele>240.3</ele>
        <time>2024-05-17T12:42:06Z</time>
      </trkpt>
      <trkpt lat="44.69487" lon="5.13065">
        <ele>240.3</ele>
        <time>2024-05-17T12:42:07Z</time>
      </trkpt>
      <trkpt lat="44.6949" lon="5.13052">
        <ele>240.2</ele>
        <time>2024-05-17T12:42:08Z</time>
      </trkpt>
      <trkpt lat="44.69491" lon="5.13048">
        <ele>240.2</ele>
        <time>2024-05-17T12:42:09Z</time>
      </trkpt>
      <trkpt lat="44.69494" lon="5.1304">
        <ele>240.2</ele>
        <time>2024-05-17T12:42:10Z</time>
      </trkpt>
      <trkpt lat="44.69497" lon="5.13028">
        <ele>240.2</ele>
        <time>2024-05-17T12:42:11Z</time>
      </trkpt>
      <trkpt lat="44.69499" lon="5.13024">
        <ele>240.1</ele>
        <time>2024-05-17T12:42:12Z</time>
      </trkpt>
      <trkpt lat="44.69502" lon="5.13013">
        <ele>240.1</ele>
        <time>2024-05-17T12:42:13Z</time>
      </trkpt>
      <trkpt lat="44.69503" lon="5.13009">
        <ele>240</ele>
        <time>2024-05-17T12:42:14Z</time>
      </trkpt>
      <trkpt lat="44.69507" lon="5.12998">
        <ele>240</ele>
        <time>2024-05-17T12:42:15Z</time>
      </trkpt>
      <trkpt lat="44.69507" lon="5.12994">
        <ele>240</ele>
        <time>2024-05-17T12:42:16Z</time>
      </trkpt>
      <trkpt lat="44.6951" lon="5.12983">
        <ele>239.9</ele>
        <time>2024-05-17T12:42:17Z</time>
      </trkpt>
      <trkpt lat="44.69511" lon="5.12979">
        <ele>239.9</ele>
        <time>2024-05-17T12:42:18Z</time>
      </trkpt>
      <trkpt lat="44.69513" lon="5.12968">
        <ele>239.9</ele>
        <time>2024-05-17T12:42:19Z</time>
      </trkpt>
      <trkpt lat="44.69514" lon="5.12964">
        <ele>239.9</ele>
        <time>2024-05-17T12:42:20Z</time>
      </trkpt>
      <trkpt lat="44.69515" lon="5.12957">
        <ele>239.8</ele>
        <time>2024-05-17T12:42:21Z</time>
      </trkpt>
      <trkpt lat="44.69516" lon="5.12946">
        <ele>239.8</ele>
        <time>2024-05-17T12:42:22Z</time>
      </trkpt>
      <trkpt lat="44.69517" lon="5.12942">
        <ele>239.8</ele>
        <time>2024-05-17T12:42:23Z</time>
      </trkpt>
      <trkpt lat="44.69518" lon="5.12931">
        <ele>239.7</ele>
        <time>2024-05-17T12:42:24Z</time>
      </trkpt>
      <trkpt lat="44.69518" lon="5.12927">
        <ele>239.7</ele>
        <time>2024-05-17T12:42:25Z</time>
      </trkpt>
      <trkpt lat="44.69519" lon="5.12916">
        <ele>239.7</ele>
        <time>2024-05-17T12:42:26Z</time>
      </trkpt>
      <trkpt lat="44.69519" lon="5.12912">
        <ele>239.7</ele>
        <time>2024-05-17T12:42:27Z</time>
      </trkpt>
      <trkpt lat="44.69519" lon="5.129">
        <ele>239.6</ele>
        <time>2024-05-17T12:42:28Z</time>
      </trkpt>
      <trkpt lat="44.6952" lon="5.12897">
        <ele>239.6</ele>
        <time>2024-05-17T12:42:29Z</time>
      </trkpt>
      <trkpt lat="44.6952" lon="5.12889">
        <ele>239.6</ele>
        <time>2024-05-17T12:42:30Z</time>
      </trkpt>
      <trkpt lat="44.6952" lon="5.12881">
        <ele>239.5</ele>
        <time>2024-05-17T12:42:31Z</time>
      </trkpt>
      <trkpt lat="44.69521" lon="5.12874">
        <ele>239.4</ele>
        <time>2024-05-17T12:42:32Z</time>
      </trkpt>
      <trkpt lat="44.69521" lon="5.12866">
        <ele>239.4</ele>
        <time>2024-05-17T12:42:33Z</time>
      </trkpt>
      <trkpt lat="44.69521" lon="5.12858">
        <ele>239.3</ele>
        <time>2024-05-17T12:42:34Z</time>
      </trkpt>
      <trkpt lat="44.69522" lon="5.12851">
        <ele>239.3</ele>
        <time>2024-05-17T12:42:35Z</time>
      </trkpt>
      <trkpt lat="44.69522" lon="5.12843">
        <ele>239.2</ele>
        <time>2024-05-17T12:42:36Z</time>
      </trkpt>
      <trkpt lat="44.69522" lon="5.12835">
        <ele>239.1</ele>
        <time>2024-05-17T12:42:37Z</time>
      </trkpt>
      <trkpt lat="44.69523" lon="5.12827">
        <ele>239</ele>
        <time>2024-05-17T12:42:38Z</time>
      </trkpt>
      <trkpt lat="44.69523" lon="5.12819">
        <ele>239</ele>
        <time>2024-05-17T12:42:39Z</time>
      </trkpt>
      <trkpt lat="44.69523" lon="5.12806">
        <ele>238.9</ele>
        <time>2024-05-17T12:42:40Z</time>
      </trkpt>
      <trkpt lat="44.69523" lon="5.12802">
        <ele>238.8</ele>
        <time>2024-05-17T12:42:41Z</time>
      </trkpt>
      <trkpt lat="44.69524" lon="5.1279">
        <ele>238.7</ele>
        <time>2024-05-17T12:42:42Z</time>
      </trkpt>
      <trkpt lat="44.69524" lon="5.12785">
        <ele>238.7</ele>
        <time>2024-05-17T12:42:43Z</time>
      </trkpt>
      <trkpt lat="44.69524" lon="5.12772">
        <ele>238.6</ele>
        <time>2024-05-17T12:42:44Z</time>
      </trkpt>
      <trkpt lat="44.69524" lon="5.12768">
        <ele>238.6</ele>
        <time>2024-05-17T12:42:45Z</time>
      </trkpt>
      <trkpt lat="44.69525" lon="5.12755">
        <ele>238.5</ele>
        <time>2024-05-17T12:42:46Z</time>
      </trkpt>
      <trkpt lat="44.69525" lon="5.12751">
        <ele>238.5</ele>
        <time>2024-05-17T12:42:47Z</time>
      </trkpt>
      <trkpt lat="44.69525" lon="5.12738">
        <ele>238.4</ele>
        <time>2024-05-17T12:42:48Z</time>
      </trkpt>
      <trkpt lat="44.69525" lon="5.12734">
        <ele>238.3</ele>
        <time>2024-05-17T12:42:49Z</time>
      </trkpt>
      <trkpt lat="44.69526" lon="5.12722">
        <ele>238.3</ele>
        <time>2024-05-17T12:42:50Z</time>
      </trkpt>
      <trkpt lat="44.69526" lon="5.12718">
        <ele>238.2</ele>
        <time>2024-05-17T12:42:51Z</time>
      </trkpt>
      <trkpt lat="44.69526" lon="5.12705">
        <ele>238.1</ele>
        <time>2024-05-17T12:42:52Z</time>
      </trkpt>
      <trkpt lat="44.69526" lon="5.12701">
        <ele>238.1</ele>
        <time>2024-05-17T12:42:53Z</time>
      </trkpt>
      <trkpt lat="44.69527" lon="5.12693">
        <ele>238</ele>
        <time>2024-05-17T12:42:54Z</time>
      </trkpt>
      <trkpt lat="44.69527" lon="5.1268">
        <ele>237.9</ele>
        <time>2024-05-17T12:42:55Z</time>
      </trkpt>
      <trkpt lat="44.69527" lon="5.12676">
        <ele>237.8</ele>
        <time>2024-05-17T12:42:56Z</time>
      </trkpt>
      <trkpt lat="44.69527" lon="5.12663">
        <ele>237.7</ele>
        <time>2024-05-17T12:42:57Z</time>
      </trkpt>
      <trkpt lat="44.69526" lon="5.12659">
        <ele>237.7</ele>
        <time>2024-05-17T12:42:58Z</time>
      </trkpt>
      <trkpt lat="44.69526" lon="5.12646">
        <ele>237.5</ele>
        <time>2024-05-17T12:42:59Z</time>
      </trkpt>
      <trkpt lat="44.69526" lon="5.12642">
        <ele>237.5</ele>
        <time>2024-05-17T12:43:00Z</time>
      </trkpt>
      <trkpt lat="44.69525" lon="5.12629">
        <ele>237.4</ele>
        <time>2024-05-17T12:43:01Z</time>
      </trkpt>
      <trkpt lat="44.69524" lon="5.12624">
        <ele>237.4</ele>
        <time>2024-05-17T12:43:02Z</time>
      </trkpt>
      <trkpt lat="44.69523" lon="5.12615">
        <ele>237.3</ele>
        <time>2024-05-17T12:43:03Z</time>
      </trkpt>
      <trkpt lat="44.69521" lon="5.12602">
        <ele>237.2</ele>
        <time>2024-05-17T12:43:04Z</time>
      </trkpt>
      <trkpt lat="44.6952" lon="5.12597">
        <ele>237.1</ele>
        <time>2024-05-17T12:43:05Z</time>
      </trkpt>
      <trkpt lat="44.69518" lon="5.12589">
        <ele>237.1</ele>
        <time>2024-05-17T12:43:06Z</time>
      </trkpt>
      <trkpt lat="44.69516" lon="5.12575">
        <ele>237.1</ele>
        <time>2024-05-17T12:43:07Z</time>
      </trkpt>
      <trkpt lat="44.69516" lon="5.12571">
        <ele>237.1</ele>
        <time>2024-05-17T12:43:08Z</time>
      </trkpt>
      <trkpt lat="44.69514" lon="5.12557">
        <ele>237.1</ele>
        <time>2024-05-17T12:43:09Z</time>
      </trkpt>
      <trkpt lat="44.69514" lon="5.12553">
        <ele>237.1</ele>
        <time>2024-05-17T12:43:10Z</time>
      </trkpt>
      <trkpt lat="44.69513" lon="5.1254">
        <ele>237.1</ele>
        <time>2024-05-17T12:43:11Z</time>
      </trkpt>
      <trkpt lat="44.69512" lon="5.12535">
        <ele>237.1</ele>
        <time>2024-05-17T12:43:12Z</time>
      </trkpt>
      <trkpt lat="44.69512" lon="5.12527">
        <ele>237</ele>
        <time>2024-05-17T12:43:13Z</time>
      </trkpt>
      <trkpt lat="44.69512" lon="5.12518">
        <ele>237</ele>
        <time>2024-05-17T12:43:14Z</time>
      </trkpt>
      <trkpt lat="44.69511" lon="5.1251">
        <ele>236.9</ele>
        <time>2024-05-17T12:43:15Z</time>
      </trkpt>
      <trkpt lat="44.69511" lon="5.12501">
        <ele>236.8</ele>
        <time>2024-05-17T12:43:16Z</time>
      </trkpt>
      <trkpt lat="44.69511" lon="5.12492">
        <ele>236.7</ele>
        <time>2024-05-17T12:43:17Z</time>
      </trkpt>
      <trkpt lat="44.69511" lon="5.12483">
        <ele>236.6</ele>
        <time>2024-05-17T12:43:18Z</time>
      </trkpt>
      <trkpt lat="44.69511" lon="5.1247">
        <ele>236.4</ele>
        <time>2024-05-17T12:43:19Z</time>
      </trkpt>
      <trkpt lat="44.69511" lon="5.12465">
        <ele>236.3</ele>
        <time>2024-05-17T12:43:20Z</time>
      </trkpt>
      <trkpt lat="44.69512" lon="5.12456">
        <ele>236.2</ele>
        <time>2024-05-17T12:43:21Z</time>
      </trkpt>
      <trkpt lat="44.69512" lon="5.12446">
        <ele>236.1</ele>
        <time>2024-05-17T12:43:22Z</time>
      </trkpt>
      <trkpt lat="44.69513" lon="5.12432">
        <ele>236</ele>
        <time>2024-05-17T12:43:23Z</time>
      </trkpt>
      <trkpt lat="44.69513" lon="5.12427">
        <ele>235.9</ele>
        <time>2024-05-17T12:43:24Z</time>
      </trkpt>
      <trkpt lat="44.69513" lon="5.12412">
        <ele>235.8</ele>
        <time>2024-05-17T12:43:25Z</time>
      </trkpt>
      <trkpt lat="44.69514" lon="5.12407">
        <ele>235.7</ele>
        <time>2024-05-17T12:43:26Z</time>
      </trkpt>
      <trkpt lat="44.69514" lon="5.12393">
        <ele>235.5</ele>
        <time>2024-05-17T12:43:27Z</time>
      </trkpt>
      <trkpt lat="44.69514" lon="5.12388">
        <ele>235.5</ele>
        <time>2024-05-17T12:43:28Z</time>
      </trkpt>
      <trkpt lat="44.69515" lon="5.12373">
        <ele>235.3</ele>
        <time>2024-05-17T12:43:29Z</time>
      </trkpt>
      <trkpt lat="44.69515" lon="5.12368">
        <ele>235.3</ele>
        <time>2024-05-17T12:43:30Z</time>
      </trkpt>
      <trkpt lat="44.69515" lon="5.12353">
        <ele>235.2</ele>
        <time>2024-05-17T12:43:31Z</time>
      </trkpt>
      <trkpt lat="44.69515" lon="5.12349">
        <ele>235.2</ele>
        <time>2024-05-17T12:43:32Z</time>
      </trkpt>
      <trkpt lat="44.69516" lon="5.12334">
        <ele>235.1</ele>
        <time>2024-05-17T12:43:33Z</time>
      </trkpt>
      <trkpt lat="44.69516" lon="5.12329">
        <ele>235</ele>
        <time>2024-05-17T12:43:34Z</time>
      </trkpt>
      <trkpt lat="44.69516" lon="5.12319">
        <ele>235</ele>
        <time>2024-05-17T12:43:35Z</time>
      </trkpt>
      <trkpt lat="44.69517" lon="5.12305">
        <ele>234.9</ele>
        <time>2024-05-17T12:43:36Z</time>
      </trkpt>
      <trkpt lat="44.69517" lon="5.123">
        <ele>234.9</ele>
        <time>2024-05-17T12:43:37Z</time>
      </trkpt>
      <trkpt lat="44.69518" lon="5.12291">
        <ele>234.8</ele>
        <time>2024-05-17T12:43:38Z</time>
      </trkpt>
      <trkpt lat="44.69518" lon="5.12281">
        <ele>234.8</ele>
        <time>2024-05-17T12:43:39Z</time>
      </trkpt>
      <trkpt lat="44.69519" lon="5.12267">
        <ele>234.7</ele>
        <time>2024-05-17T12:43:40Z</time>
      </trkpt>
      <trkpt lat="44.69519" lon="5.12263">
        <ele>234.7</ele>
        <time>2024-05-17T12:43:41Z</time>
      </trkpt>
      <trkpt lat="44.69519" lon="5.12249">
        <ele>234.6</ele>
        <time>2024-05-17T12:43:42Z</time>
      </trkpt>
      <trkpt lat="44.69519" lon="5.12244">
        <ele>234.6</ele>
        <time>2024-05-17T12:43:43Z</time>
      </trkpt>
      <trkpt lat="44.6952" lon="5.1223">
        <ele>234.5</ele>
        <time>2024-05-17T12:43:44Z</time>
      </trkpt>
      <trkpt lat="44.6952" lon="5.12226">
        <ele>234.5</ele>
        <time>2024-05-17T12:43:45Z</time>
      </trkpt>
      <trkpt lat="44.69521" lon="5.12217">
        <ele>234.4</ele>
        <time>2024-05-17T12:43:46Z</time>
      </trkpt>
      <trkpt lat="44.69523" lon="5.12203">
        <ele>234.3</ele>
        <time>2024-05-17T12:43:47Z</time>
      </trkpt>
      <trkpt lat="44.69523" lon="5.12199">
        <ele>234.2</ele>
        <time>2024-05-17T12:43:48Z</time>
      </trkpt>
      <trkpt lat="44.69524" lon="5.1219">
        <ele>234.1</ele>
        <time>2024-05-17T12:43:49Z</time>
      </trkpt>
      <trkpt lat="44.69527" lon="5.12177">
        <ele>234</ele>
        <time>2024-05-17T12:43:50Z</time>
      </trkpt>
      <trkpt lat="44.69528" lon="5.12173">
        <ele>234</ele>
        <time>2024-05-17T12:43:51Z</time>
      </trkpt>
      <trkpt lat="44.69532" lon="5.12159">
        <ele>233.9</ele>
        <time>2024-05-17T12:43:52Z</time>
      </trkpt>
      <trkpt lat="44.69533" lon="5.12155">
        <ele>233.9</ele>
        <time>2024-05-17T12:43:53Z</time>
      </trkpt>
      <trkpt lat="44.69537" lon="5.12143">
        <ele>233.8</ele>
        <time>2024-05-17T12:43:54Z</time>
      </trkpt>
      <trkpt lat="44.69538" lon="5.12139">
        <ele>233.8</ele>
        <time>2024-05-17T12:43:55Z</time>
      </trkpt>
      <trkpt lat="44.6954" lon="5.1213">
        <ele>233.7</ele>
        <time>2024-05-17T12:43:56Z</time>
      </trkpt>
      <trkpt lat="44.69543" lon="5.12122">
        <ele>233.7</ele>
        <time>2024-05-17T12:43:57Z</time>
      </trkpt>
      <trkpt lat="44.69545" lon="5.12114">
        <ele>233.6</ele>
        <time>2024-05-17T12:43:58Z</time>
      </trkpt>
      <trkpt lat="44.69548" lon="5.12106">
        <ele>233.6</ele>
        <time>2024-05-17T12:43:59Z</time>
      </trkpt>
      <trkpt lat="44.69551" lon="5.12098">
        <ele>233.5</ele>
        <time>2024-05-17T12:44:00Z</time>
      </trkpt>
      <trkpt lat="44.69554" lon="5.1209">
        <ele>233.4</ele>
        <time>2024-05-17T12:44:01Z</time>
      </trkpt>
      <trkpt lat="44.69556" lon="5.12082">
        <ele>233.4</ele>
        <time>2024-05-17T12:44:02Z</time>
      </trkpt>
      <trkpt lat="44.69559" lon="5.12073">
        <ele>233.2</ele>
        <time>2024-05-17T12:44:03Z</time>
      </trkpt>
      <trkpt lat="44.69563" lon="5.1206">
        <ele>233</ele>
        <time>2024-05-17T12:44:04Z</time>
      </trkpt>
      <trkpt lat="44.69565" lon="5.12056">
        <ele>232.9</ele>
        <time>2024-05-17T12:44:05Z</time>
      </trkpt>
      <trkpt lat="44.69569" lon="5.12043">
        <ele>232.7</ele>
        <time>2024-05-17T12:44:06Z</time>
      </trkpt>
      <trkpt lat="44.69571" lon="5.12039">
        <ele>232.6</ele>
        <time>2024-05-17T12:44:07Z</time>
      </trkpt>
      <trkpt lat="44.69576" lon="5.12026">
        <ele>232.4</ele>
        <time>2024-05-17T12:44:08Z</time>
      </trkpt>
      <trkpt lat="44.69578" lon="5.12021">
        <ele>232.3</ele>
        <time>2024-05-17T12:44:09Z</time>
      </trkpt>
      <trkpt lat="44.69583" lon="5.12009">
        <ele>232.1</ele>
        <time>2024-05-17T12:44:10Z</time>
      </trkpt>
      <trkpt lat="44.69585" lon="5.12004">
        <ele>232</ele>
        <time>2024-05-17T12:44:11Z</time>
      </trkpt>
      <trkpt lat="44.69591" lon="5.11991">
        <ele>231.8</ele>
        <time>2024-05-17T12:44:12Z</time>
      </trkpt>
      <trkpt lat="44.69593" lon="5.11987">
        <ele>231.8</ele>
        <time>2024-05-17T12:44:13Z</time>
      </trkpt>
      <trkpt lat="44.69599" lon="5.11974">
        <ele>231.6</ele>
        <time>2024-05-17T12:44:14Z</time>
      </trkpt>
      <trkpt lat="44.69601" lon="5.1197">
        <ele>231.6</ele>
        <time>2024-05-17T12:44:15Z</time>
      </trkpt>
      <trkpt lat="44.69606" lon="5.11962">
        <ele>231.5</ele>
        <time>2024-05-17T12:44:16Z</time>
      </trkpt>
      <trkpt lat="44.69612" lon="5.1195">
        <ele>231.5</ele>
        <time>2024-05-17T12:44:17Z</time>
      </trkpt>
      <trkpt lat="44.69614" lon="5.11946">
        <ele>231.5</ele>
        <time>2024-05-17T12:44:18Z</time>
      </trkpt>
      <trkpt lat="44.69618" lon="5.11939">
        <ele>231.5</ele>
        <time>2024-05-17T12:44:19Z</time>
      </trkpt>
      <trkpt lat="44.69622" lon="5.11931">
        <ele>231.5</ele>
        <time>2024-05-17T12:44:20Z</time>
      </trkpt>
      <trkpt lat="44.69626" lon="5.11923">
        <ele>231.5</ele>
        <time>2024-05-17T12:44:21Z</time>
      </trkpt>
      <trkpt lat="44.6963" lon="5.11916">
        <ele>231.5</ele>
        <time>2024-05-17T12:44:22Z</time>
      </trkpt>
      <trkpt lat="44.69633" lon="5.11909">
        <ele>231.5</ele>
        <time>2024-05-17T12:44:23Z</time>
      </trkpt>
      <trkpt lat="44.69637" lon="5.11902">
        <ele>231.6</ele>
        <time>2024-05-17T12:44:24Z</time>
      </trkpt>
      <trkpt lat="44.69642" lon="5.11892">
        <ele>231.6</ele>
        <time>2024-05-17T12:44:25Z</time>
      </trkpt>
      <trkpt lat="44.69644" lon="5.11889">
        <ele>231.6</ele>
        <time>2024-05-17T12:44:26Z</time>
      </trkpt>
      <trkpt lat="44.6965" lon="5.11879">
        <ele>231.7</ele>
        <time>2024-05-17T12:44:27Z</time>
      </trkpt>
      <trkpt lat="44.69652" lon="5.11876">
        <ele>231.7</ele>
        <time>2024-05-17T12:44:28Z</time>
      </trkpt>
      <trkpt lat="44.69655" lon="5.1187">
        <ele>231.8</ele>
        <time>2024-05-17T12:44:29Z</time>
      </trkpt>
      <trkpt lat="44.69661" lon="5.1186">
        <ele>231.9</ele>
        <time>2024-05-17T12:44:30Z</time>
      </trkpt>
      <trkpt lat="44.69662" lon="5.11857">
        <ele>232</ele>
        <time>2024-05-17T12:44:31Z</time>
      </trkpt>
      <trkpt lat="44.69666" lon="5.11851">
        <ele>232</ele>
        <time>2024-05-17T12:44:32Z</time>
      </trkpt>
      <trkpt lat="44.69671" lon="5.11841">
        <ele>232.1</ele>
        <time>2024-05-17T12:44:33Z</time>
      </trkpt>
      <trkpt lat="44.69673" lon="5.11838">
        <ele>232.2</ele>
        <time>2024-05-17T12:44:34Z</time>
      </trkpt>
      <trkpt lat="44.69678" lon="5.11829">
        <ele>232.4</ele>
        <time>2024-05-17T12:44:35Z</time>
      </trkpt>
      <trkpt lat="44.69679" lon="5.11826">
        <ele>232.4</ele>
        <time>2024-05-17T12:44:36Z</time>
      </trkpt>
      <trkpt lat="44.69682" lon="5.1182">
        <ele>232.5</ele>
        <time>2024-05-17T12:44:37Z</time>
      </trkpt>
      <trkpt lat="44.69686" lon="5.11814">
        <ele>232.6</ele>
        <time>2024-05-17T12:44:38Z</time>
      </trkpt>
      <trkpt lat="44.6969" lon="5.11805">
        <ele>232.8</ele>
        <time>2024-05-17T12:44:39Z</time>
      </trkpt>
      <trkpt lat="44.69692" lon="5.11802">
        <ele>232.8</ele>
        <time>2024-05-17T12:44:40Z</time>
      </trkpt>
      <trkpt lat="44.69697" lon="5.11794">
        <ele>233</ele>
        <time>2024-05-17T12:44:41Z</time>
      </trkpt>
      <trkpt lat="44.69698" lon="5.11791">
        <ele>233.1</ele>
        <time>2024-05-17T12:44:42Z</time>
      </trkpt>
      <trkpt lat="44.69701" lon="5.11785">
        <ele>233.2</ele>
        <time>2024-05-17T12:44:43Z</time>
      </trkpt>
      <trkpt lat="44.69705" lon="5.1178">
        <ele>233.3</ele>
        <time>2024-05-17T12:44:44Z</time>
      </trkpt>
      <trkpt lat="44.69708" lon="5.11774">
        <ele>233.4</ele>
        <time>2024-05-17T12:44:45Z</time>
      </trkpt>
      <trkpt lat="44.69712" lon="5.11769">
        <ele>233.5</ele>
        <time>2024-05-17T12:44:46Z</time>
      </trkpt>
      <trkpt lat="44.69717" lon="5.1176">
        <ele>233.6</ele>
        <time>2024-05-17T12:44:47Z</time>
      </trkpt>
      <trkpt lat="44.69718" lon="5.11757">
        <ele>233.7</ele>
        <time>2024-05-17T12:44:48Z</time>
      </trkpt>
      <trkpt lat="44.69723" lon="5.11749">
        <ele>233.8</ele>
        <time>2024-05-17T12:44:49Z</time>
      </trkpt>
      <trkpt lat="44.69724" lon="5.11746">
        <ele>233.8</ele>
        <time>2024-05-17T12:44:50Z</time>
      </trkpt>
      <trkpt lat="44.69729" lon="5.11738">
        <ele>233.9</ele>
        <time>2024-05-17T12:44:51Z</time>
      </trkpt>
      <trkpt lat="44.6973" lon="5.11735">
        <ele>234</ele>
        <time>2024-05-17T12:44:52Z</time>
      </trkpt>
      <trkpt lat="44.69735" lon="5.11727">
        <ele>234.1</ele>
        <time>2024-05-17T12:44:53Z</time>
      </trkpt>
      <trkpt lat="44.69736" lon="5.11725">
        <ele>234.1</ele>
        <time>2024-05-17T12:44:54Z</time>
      </trkpt>
      <trkpt lat="44.6974" lon="5.11718">
        <ele>234.2</ele>
        <time>2024-05-17T12:44:55Z</time>
      </trkpt>
      <trkpt lat="44.69742" lon="5.11715">
        <ele>234.2</ele>
        <time>2024-05-17T12:44:56Z</time>
      </trkpt>
      <trkpt lat="44.69746" lon="5.11708">
        <ele>234.3</ele>
        <time>2024-05-17T12:44:57Z</time>
      </trkpt>
      <trkpt lat="44.69747" lon="5.11705">
        <ele>234.4</ele>
        <time>2024-05-17T12:44:58Z</time>
      </trkpt>
      <trkpt lat="44.69751" lon="5.11697">
        <ele>234.4</ele>
        <time>2024-05-17T12:44:59Z</time>
      </trkpt>
      <trkpt lat="44.69753" lon="5.11695">
        <ele>234.5</ele>
        <time>2024-05-17T12:45:00Z</time>
      </trkpt>
      <trkpt lat="44.69755" lon="5.11689">
        <ele>234.5</ele>
        <time>2024-05-17T12:45:01Z</time>
      </trkpt>
      <trkpt lat="44.6976" lon="5.11681">
        <ele>234.6</ele>
        <time>2024-05-17T12:45:02Z</time>
      </trkpt>
      <trkpt lat="44.69761" lon="5.11678">
        <ele>234.6</ele>
        <time>2024-05-17T12:45:03Z</time>
      </trkpt>
      <trkpt lat="44.69765" lon="5.1167">
        <ele>234.6</ele>
        <time>2024-05-17T12:45:04Z</time>
      </trkpt>
      <trkpt lat="44.69766" lon="5.11668">
        <ele>234.6</ele>
        <time>2024-05-17T12:45:05Z</time>
      </trkpt>
      <trkpt lat="44.6977" lon="5.11659">
        <ele>234.6</ele>
        <time>2024-05-17T12:45:06Z</time>
      </trkpt>
      <trkpt lat="44.69771" lon="5.11656">
        <ele>234.6</ele>
        <time>2024-05-17T12:45:07Z</time>
      </trkpt>
      <trkpt lat="44.69775" lon="5.11648">
        <ele>234.7</ele>
        <time>2024-05-17T12:45:08Z</time>
      </trkpt>
      <trkpt lat="44.69777" lon="5.11645">
        <ele>234.7</ele>
        <time>2024-05-17T12:45:09Z</time>
      </trkpt>
      <trkpt lat="44.6978" lon="5.11636">
        <ele>234.7</ele>
        <time>2024-05-17T12:45:10Z</time>
      </trkpt>
      <trkpt lat="44.69782" lon="5.11633">
        <ele>234.7</ele>
        <time>2024-05-17T12:45:11Z</time>
      </trkpt>
      <trkpt lat="44.69784" lon="5.11626">
        <ele>234.7</ele>
        <time>2024-05-17T12:45:12Z</time>
      </trkpt>
      <trkpt lat="44.69786" lon="5.1162">
        <ele>234.7</ele>
        <time>2024-05-17T12:45:13Z</time>
      </trkpt>
      <trkpt lat="44.69789" lon="5.11613">
        <ele>234.7</ele>
        <time>2024-05-17T12:45:14Z</time>
      </trkpt>
      <trkpt lat="44.69793" lon="5.11603">
        <ele>234.6</ele>
        <time>2024-05-17T12:45:15Z</time>
      </trkpt>
      <trkpt lat="44.69795" lon="5.116">
        <ele>234.6</ele>
        <time>2024-05-17T12:45:16Z</time>
      </trkpt>
      <trkpt lat="44.69799" lon="5.1159">
        <ele>234.6</ele>
        <time>2024-05-17T12:45:17Z</time>
      </trkpt>
      <trkpt lat="44.698" lon="5.11587">
        <ele>234.6</ele>
        <time>2024-05-17T12:45:18Z</time>
      </trkpt>
      <trkpt lat="44.69805" lon="5.11577">
        <ele>234.5</ele>
        <time>2024-05-17T12:45:19Z</time>
      </trkpt>
      <trkpt lat="44.69806" lon="5.11573">
        <ele>234.5</ele>
        <time>2024-05-17T12:45:20Z</time>
      </trkpt>
      <trkpt lat="44.69811" lon="5.11563">
        <ele>234.4</ele>
        <time>2024-05-17T12:45:21Z</time>
      </trkpt>
      <trkpt lat="44.69812" lon="5.11559">
        <ele>234.4</ele>
        <time>2024-05-17T12:45:22Z</time>
      </trkpt>
      <trkpt lat="44.69815" lon="5.11552">
        <ele>234.4</ele>
        <time>2024-05-17T12:45:23Z</time>
      </trkpt>
      <trkpt lat="44.69818" lon="5.11545">
        <ele>234.3</ele>
        <time>2024-05-17T12:45:24Z</time>
      </trkpt>
      <trkpt lat="44.69821" lon="5.11537">
        <ele>234.2</ele>
        <time>2024-05-17T12:45:25Z</time>
      </trkpt>
      <trkpt lat="44.69824" lon="5.1153">
        <ele>234.2</ele>
        <time>2024-05-17T12:45:26Z</time>
      </trkpt>
      <trkpt lat="44.69827" lon="5.11522">
        <ele>234.1</ele>
        <time>2024-05-17T12:45:27Z</time>
      </trkpt>
      <trkpt lat="44.69829" lon="5.11515">
        <ele>234</ele>
        <time>2024-05-17T12:45:28Z</time>
      </trkpt>
      <trkpt lat="44.69832" lon="5.11507">
        <ele>233.9</ele>
        <time>2024-05-17T12:45:29Z</time>
      </trkpt>
      <trkpt lat="44.69835" lon="5.11499">
        <ele>233.9</ele>
        <time>2024-05-17T12:45:30Z</time>
      </trkpt>
      <trkpt lat="44.69838" lon="5.11487">
        <ele>233.8</ele>
        <time>2024-05-17T12:45:31Z</time>
      </trkpt>
      <trkpt lat="44.6984" lon="5.11483">
        <ele>233.8</ele>
        <time>2024-05-17T12:45:32Z</time>
      </trkpt>
      <trkpt lat="44.69844" lon="5.11471">
        <ele>233.6</ele>
        <time>2024-05-17T12:45:33Z</time>
      </trkpt>
      <trkpt lat="44.69845" lon="5.11467">
        <ele>233.6</ele>
        <time>2024-05-17T12:45:34Z</time>
      </trkpt>
      <trkpt lat="44.69847" lon="5.11459">
        <ele>233.5</ele>
        <time>2024-05-17T12:45:35Z</time>
      </trkpt>
      <trkpt lat="44.6985" lon="5.11451">
        <ele>233.3</ele>
        <time>2024-05-17T12:45:36Z</time>
      </trkpt>
      <trkpt lat="44.69854" lon="5.11439">
        <ele>233.1</ele>
        <time>2024-05-17T12:45:37Z</time>
      </trkpt>
      <trkpt lat="44.69856" lon="5.11435">
        <ele>233.1</ele>
        <time>2024-05-17T12:45:38Z</time>
      </trkpt>
      <trkpt lat="44.69859" lon="5.11423">
        <ele>233</ele>
        <time>2024-05-17T12:45:39Z</time>
      </trkpt>
      <trkpt lat="44.6986" lon="5.11419">
        <ele>232.9</ele>
        <time>2024-05-17T12:45:40Z</time>
      </trkpt>
      <trkpt lat="44.69863" lon="5.11406">
        <ele>232.8</ele>
        <time>2024-05-17T12:45:41Z</time>
      </trkpt>
      <trkpt lat="44.69864" lon="5.11402">
        <ele>232.7</ele>
        <time>2024-05-17T12:45:42Z</time>
      </trkpt>
      <trkpt lat="44.69866" lon="5.11394">
        <ele>232.6</ele>
        <time>2024-05-17T12:45:43Z</time>
      </trkpt>
      <trkpt lat="44.69868" lon="5.1138">
        <ele>232.5</ele>
        <time>2024-05-17T12:45:44Z</time>
      </trkpt>
      <trkpt lat="44.69868" lon="5.11375">
        <ele>232.4</ele>
        <time>2024-05-17T12:45:45Z</time>
      </trkpt>
      <trkpt lat="44.69869" lon="5.11366">
        <ele>232.4</ele>
        <time>2024-05-17T12:45:46Z</time>
      </trkpt>
      <trkpt lat="44.69871" lon="5.11352">
        <ele>232.3</ele>
        <time>2024-05-17T12:45:47Z</time>
      </trkpt>
      <trkpt lat="44.69871" lon="5.11348">
        <ele>232.2</ele>
        <time>2024-05-17T12:45:48Z</time>
      </trkpt>
      <trkpt lat="44.69873" lon="5.11334">
        <ele>232.1</ele>
        <time>2024-05-17T12:45:49Z</time>
      </trkpt>
      <trkpt lat="44.69873" lon="5.11329">
        <ele>232.1</ele>
        <time>2024-05-17T12:45:50Z</time>
      </trkpt>
      <trkpt lat="44.69874" lon="5.11315">
        <ele>232</ele>
        <time>2024-05-17T12:45:51Z</time>
      </trkpt>
      <trkpt lat="44.69875" lon="5.1131">
        <ele>231.9</ele>
        <time>2024-05-17T12:45:52Z</time>
      </trkpt>
      <trkpt lat="44.69876" lon="5.11296">
        <ele>231.8</ele>
        <time>2024-05-17T12:45:53Z</time>
      </trkpt>
      <trkpt lat="44.69877" lon="5.11292">
        <ele>231.8</ele>
        <time>2024-05-17T12:45:54Z</time>
      </trkpt>
      <trkpt lat="44.69878" lon="5.11283">
        <ele>231.8</ele>
        <time>2024-05-17T12:45:55Z</time>
      </trkpt>
      <trkpt lat="44.6988" lon="5.1127">
        <ele>231.8</ele>
        <time>2024-05-17T12:45:56Z</time>
      </trkpt>
      <trkpt lat="44.69881" lon="5.11265">
        <ele>231.8</ele>
        <time>2024-05-17T12:45:57Z</time>
      </trkpt>
      <trkpt lat="44.69882" lon="5.11257">
        <ele>231.8</ele>
        <time>2024-05-17T12:45:58Z</time>
      </trkpt>
      <trkpt lat="44.69883" lon="5.11244">
        <ele>231.9</ele>
        <time>2024-05-17T12:45:59Z</time>
      </trkpt>
      <trkpt lat="44.69883" lon="5.1124">
        <ele>231.9</ele>
        <time>2024-05-17T12:46:00Z</time>
      </trkpt>
      <trkpt lat="44.69885" lon="5.11228">
        <ele>232</ele>
        <time>2024-05-17T12:46:01Z</time>
      </trkpt>
      <trkpt lat="44.69885" lon="5.11225">
        <ele>232</ele>
        <time>2024-05-17T12:46:02Z</time>
      </trkpt>
      <trkpt lat="44.69886" lon="5.11213">
        <ele>232</ele>
        <time>2024-05-17T12:46:03Z</time>
      </trkpt>
      <trkpt lat="44.69886" lon="5.11209">
        <ele>232.1</ele>
        <time>2024-05-17T12:46:04Z</time>
      </trkpt>
      <trkpt lat="44.69887" lon="5.11197">
        <ele>232.1</ele>
        <time>2024-05-17T12:46:05Z</time>
      </trkpt>
      <trkpt lat="44.69888" lon="5.11194">
        <ele>232.1</ele>
        <time>2024-05-17T12:46:06Z</time>
      </trkpt>
      <trkpt lat="44.69889" lon="5.11186">
        <ele>232.2</ele>
        <time>2024-05-17T12:46:07Z</time>
      </trkpt>
      <trkpt lat="44.69891" lon="5.11179">
        <ele>232.2</ele>
        <time>2024-05-17T12:46:08Z</time>
      </trkpt>
      <trkpt lat="44.69894" lon="5.11169">
        <ele>232.3</ele>
        <time>2024-05-17T12:46:09Z</time>
      </trkpt>
      <trkpt lat="44.69895" lon="5.11165">
        <ele>232.4</ele>
        <time>2024-05-17T12:46:10Z</time>
      </trkpt>
      <trkpt lat="44.69898" lon="5.11159">
        <ele>232.4</ele>
        <time>2024-05-17T12:46:11Z</time>
      </trkpt>
      <trkpt lat="44.699" lon="5.11153">
        <ele>232.5</ele>
        <time>2024-05-17T12:46:12Z</time>
      </trkpt>
      <trkpt lat="44.69902" lon="5.11147">
        <ele>232.6</ele>
        <time>2024-05-17T12:46:13Z</time>
      </trkpt>
      <trkpt lat="44.69905" lon="5.1114">
        <ele>232.6</ele>
        <time>2024-05-17T12:46:14Z</time>
      </trkpt>
      <trkpt lat="44.69908" lon="5.11132">
        <ele>232.7</ele>
        <time>2024-05-17T12:46:15Z</time>
      </trkpt>
      <trkpt lat="44.69909" lon="5.11129">
        <ele>232.8</ele>
        <time>2024-05-17T12:46:16Z</time>
      </trkpt>
      <trkpt lat="44.69913" lon="5.1112">
        <ele>232.9</ele>
        <time>2024-05-17T12:46:17Z</time>
      </trkpt>
      <trkpt lat="44.69914" lon="5.11117">
        <ele>232.9</ele>
        <time>2024-05-17T12:46:18Z</time>
      </trkpt>
      <trkpt lat="44.69918" lon="5.11108">
        <ele>233</ele>
        <time>2024-05-17T12:46:19Z</time>
      </trkpt>
      <trkpt lat="44.69919" lon="5.11105">
        <ele>233</ele>
        <time>2024-05-17T12:46:20Z</time>
      </trkpt>
      <trkpt lat="44.69923" lon="5.11097">
        <ele>233.2</ele>
        <time>2024-05-17T12:46:21Z</time>
      </trkpt>
      <trkpt lat="44.69924" lon="5.11094">
        <ele>233.2</ele>
        <time>2024-05-17T12:46:22Z</time>
      </trkpt>
      <trkpt lat="44.69927" lon="5.11086">
        <ele>233.3</ele>
        <time>2024-05-17T12:46:23Z</time>
      </trkpt>
      <trkpt lat="44.69928" lon="5.11083">
        <ele>233.3</ele>
        <time>2024-05-17T12:46:24Z</time>
      </trkpt>
      <trkpt lat="44.69932" lon="5.11075">
        <ele>233.4</ele>
        <time>2024-05-17T12:46:25Z</time>
      </trkpt>
      <trkpt lat="44.69933" lon="5.11073">
        <ele>233.4</ele>
        <time>2024-05-17T12:46:26Z</time>
      </trkpt>
      <trkpt lat="44.69935" lon="5.11067">
        <ele>233.4</ele>
        <time>2024-05-17T12:46:27Z</time>
      </trkpt>
      <trkpt lat="44.69937" lon="5.11062">
        <ele>233.5</ele>
        <time>2024-05-17T12:46:28Z</time>
      </trkpt>
      <trkpt lat="44.6994" lon="5.11057">
        <ele>233.5</ele>
        <time>2024-05-17T12:46:29Z</time>
      </trkpt>
      <trkpt lat="44.69942" lon="5.11049">
        <ele>233.6</ele>
        <time>2024-05-17T12:46:30Z</time>
      </trkpt>
      <trkpt lat="44.69943" lon="5.11046">
        <ele>233.6</ele>
        <time>2024-05-17T12:46:31Z</time>
      </trkpt>
      <trkpt lat="44.69946" lon="5.11037">
        <ele>233.6</ele>
        <time>2024-05-17T12:46:32Z</time>
      </trkpt>
      <trkpt lat="44.69947" lon="5.11034">
        <ele>233.6</ele>
        <time>2024-05-17T12:46:33Z</time>
      </trkpt>
      <trkpt lat="44.6995" lon="5.11026">
        <ele>233.6</ele>
        <time>2024-05-17T12:46:34Z</time>
      </trkpt>
      <trkpt lat="44.69951" lon="5.11023">
        <ele>233.6</ele>
        <time>2024-05-17T12:46:35Z</time>
      </trkpt>
      <trkpt lat="44.69954" lon="5.11014">
        <ele>233.6</ele>
        <time>2024-05-17T12:46:36Z</time>
      </trkpt>
      <trkpt lat="44.69955" lon="5.11012">
        <ele>233.7</ele>
        <time>2024-05-17T12:46:37Z</time>
      </trkpt>
      <trkpt lat="44.69957" lon="5.11006">
        <ele>233.7</ele>
        <time>2024-05-17T12:46:38Z</time>
      </trkpt>
      <trkpt lat="44.6996" lon="5.10998">
        <ele>233.6</ele>
        <time>2024-05-17T12:46:39Z</time>
      </trkpt>
      <trkpt lat="44.69961" lon="5.10995">
        <ele>233.6</ele>
        <time>2024-05-17T12:46:40Z</time>
      </trkpt>
      <trkpt lat="44.69963" lon="5.10989">
        <ele>233.6</ele>
        <time>2024-05-17T12:46:41Z</time>
      </trkpt>
      <trkpt lat="44.69966" lon="5.1098">
        <ele>233.5</ele>
        <time>2024-05-17T12:46:42Z</time>
      </trkpt>
      <trkpt lat="44.69967" lon="5.10977">
        <ele>233.5</ele>
        <time>2024-05-17T12:46:43Z</time>
      </trkpt>
      <trkpt lat="44.6997" lon="5.10968">
        <ele>233.4</ele>
        <time>2024-05-17T12:46:44Z</time>
      </trkpt>
      <trkpt lat="44.69971" lon="5.10966">
        <ele>233.4</ele>
        <time>2024-05-17T12:46:45Z</time>
      </trkpt>
      <trkpt lat="44.69975" lon="5.10957">
        <ele>233.3</ele>
        <time>2024-05-17T12:46:46Z</time>
      </trkpt>
      <trkpt lat="44.69976" lon="5.10954">
        <ele>233.3</ele>
        <time>2024-05-17T12:46:47Z</time>
      </trkpt>
      <trkpt lat="44.69978" lon="5.10948">
        <ele>233.2</ele>
        <time>2024-05-17T12:46:48Z</time>
      </trkpt>
      <trkpt lat="44.69981" lon="5.10942">
        <ele>233.1</ele>
        <time>2024-05-17T12:46:49Z</time>
      </trkpt>
      <trkpt lat="44.69983" lon="5.10936">
        <ele>233.1</ele>
        <time>2024-05-17T12:46:50Z</time>
      </trkpt>
      <trkpt lat="44.69985" lon="5.10929">
        <ele>233</ele>
        <time>2024-05-17T12:46:51Z</time>
      </trkpt>
      <trkpt lat="44.69987" lon="5.10923">
        <ele>232.9</ele>
        <time>2024-05-17T12:46:52Z</time>
      </trkpt>
      <trkpt lat="44.69989" lon="5.10916">
        <ele>232.8</ele>
        <time>2024-05-17T12:46:53Z</time>
      </trkpt>
      <trkpt lat="44.69991" lon="5.1091">
        <ele>232.8</ele>
        <time>2024-05-17T12:46:54Z</time>
      </trkpt>
      <trkpt lat="44.69994" lon="5.10903">
        <ele>232.6</ele>
        <time>2024-05-17T12:46:55Z</time>
      </trkpt>
      <trkpt lat="44.69996" lon="5.10896">
        <ele>232.5</ele>
        <time>2024-05-17T12:46:56Z</time>
      </trkpt>
      <trkpt lat="44.69998" lon="5.1089">
        <ele>232.4</ele>
        <time>2024-05-17T12:46:57Z</time>
      </trkpt>
      <trkpt lat="44.7" lon="5.10883">
        <ele>232.3</ele>
        <time>2024-05-17T12:46:58Z</time>
      </trkpt>
      <trkpt lat="44.70003" lon="5.10876">
        <ele>232.2</ele>
        <time>2024-05-17T12:46:59Z</time>
      </trkpt>
      <trkpt lat="44.70005" lon="5.10869">
        <ele>232.1</ele>
        <time>2024-05-17T12:47:00Z</time>
      </trkpt>
      <trkpt lat="44.70007" lon="5.10861">
        <ele>232</ele>
        <time>2024-05-17T12:47:01Z</time>
      </trkpt>
      <trkpt lat="44.70009" lon="5.10854">
        <ele>231.9</ele>
        <time>2024-05-17T12:47:02Z</time>
      </trkpt>
      <trkpt lat="44.70012" lon="5.10842">
        <ele>231.7</ele>
        <time>2024-05-17T12:47:03Z</time>
      </trkpt>
      <trkpt lat="44.70012" lon="5.10838">
        <ele>231.7</ele>
        <time>2024-05-17T12:47:04Z</time>
      </trkpt>
      <trkpt lat="44.70015" lon="5.10826">
        <ele>231.5</ele>
        <time>2024-05-17T12:47:05Z</time>
      </trkpt>
      <trkpt lat="44.70016" lon="5.10823">
        <ele>231.5</ele>
        <time>2024-05-17T12:47:06Z</time>
      </trkpt>
      <trkpt lat="44.70019" lon="5.10811">
        <ele>231.3</ele>
        <time>2024-05-17T12:47:07Z</time>
      </trkpt>
      <trkpt lat="44.7002" lon="5.10807">
        <ele>231.3</ele>
        <time>2024-05-17T12:47:08Z</time>
      </trkpt>
      <trkpt lat="44.70022" lon="5.108">
        <ele>231.2</ele>
        <time>2024-05-17T12:47:09Z</time>
      </trkpt>
      <trkpt lat="44.70024" lon="5.10788">
        <ele>231.1</ele>
        <time>2024-05-17T12:47:10Z</time>
      </trkpt>
      <trkpt lat="44.70025" lon="5.10784">
        <ele>231</ele>
        <time>2024-05-17T12:47:11Z</time>
      </trkpt>
      <trkpt lat="44.70027" lon="5.10777">
        <ele>230.9</ele>
        <time>2024-05-17T12:47:12Z</time>
      </trkpt>
      <trkpt lat="44.70029" lon="5.10765">
        <ele>230.8</ele>
        <time>2024-05-17T12:47:13Z</time>
      </trkpt>
      <trkpt lat="44.7003" lon="5.10761">
        <ele>230.7</ele>
        <time>2024-05-17T12:47:14Z</time>
      </trkpt>
      <trkpt lat="44.70033" lon="5.10749">
        <ele>230.6</ele>
        <time>2024-05-17T12:47:15Z</time>
      </trkpt>
      <trkpt lat="44.70034" lon="5.10744">
        <ele>230.6</ele>
        <time>2024-05-17T12:47:16Z</time>
      </trkpt>
      <trkpt lat="44.70036" lon="5.10732">
        <ele>230.4</ele>
        <time>2024-05-17T12:47:17Z</time>
      </trkpt>
      <trkpt lat="44.70037" lon="5.10728">
        <ele>230.4</ele>
        <time>2024-05-17T12:47:18Z</time>
      </trkpt>
      <trkpt lat="44.7004" lon="5.10716">
        <ele>230.3</ele>
        <time>2024-05-17T12:47:19Z</time>
      </trkpt>
      <trkpt lat="44.7004" lon="5.10712">
        <ele>230.3</ele>
        <time>2024-05-17T12:47:20Z</time>
      </trkpt>
      <trkpt lat="44.70043" lon="5.107">
        <ele>230.2</ele>
        <time>2024-05-17T12:47:21Z</time>
      </trkpt>
      <trkpt lat="44.70043" lon="5.10696">
        <ele>230.2</ele>
        <time>2024-05-17T12:47:22Z</time>
      </trkpt>
      <trkpt lat="44.70045" lon="5.10688">
        <ele>230.1</ele>
        <time>2024-05-17T12:47:23Z</time>
      </trkpt>
      <trkpt lat="44.70047" lon="5.10677">
        <ele>230</ele>
        <time>2024-05-17T12:47:24Z</time>
      </trkpt>
      <trkpt lat="44.70048" lon="5.10673">
        <ele>230</ele>
        <time>2024-05-17T12:47:25Z</time>
      </trkpt>
      <trkpt lat="44.70051" lon="5.10661">
        <ele>229.9</ele>
        <time>2024-05-17T12:47:26Z</time>
      </trkpt>
      <trkpt lat="44.70051" lon="5.10658">
        <ele>229.9</ele>
        <time>2024-05-17T12:47:27Z</time>
      </trkpt>
      <trkpt lat="44.70054" lon="5.10646">
        <ele>229.8</ele>
        <time>2024-05-17T12:47:28Z</time>
      </trkpt>
      <trkpt lat="44.70054" lon="5.10642">
        <ele>229.8</ele>
        <time>2024-05-17T12:47:29Z</time>
      </trkpt>
      <trkpt lat="44.70056" lon="5.1063">
        <ele>229.7</ele>
        <time>2024-05-17T12:47:30Z</time>
      </trkpt>
      <trkpt lat="44.70057" lon="5.10627">
        <ele>229.6</ele>
        <time>2024-05-17T12:47:31Z</time>
      </trkpt>
      <trkpt lat="44.70059" lon="5.10615">
        <ele>229.5</ele>
        <time>2024-05-17T12:47:32Z</time>
      </trkpt>
      <trkpt lat="44.7006" lon="5.10611">
        <ele>229.5</ele>
        <time>2024-05-17T12:47:33Z</time>
      </trkpt>
      <trkpt lat="44.70062" lon="5.10604">
        <ele>229.4</ele>
        <time>2024-05-17T12:47:34Z</time>
      </trkpt>
      <trkpt lat="44.70064" lon="5.10596">
        <ele>229.4</ele>
        <time>2024-05-17T12:47:35Z</time>
      </trkpt>
      <trkpt lat="44.70065" lon="5.10589">
        <ele>229.3</ele>
        <time>2024-05-17T12:47:36Z</time>
      </trkpt>
      <trkpt lat="44.70067" lon="5.10581">
        <ele>229.2</ele>
        <time>2024-05-17T12:47:37Z</time>
      </trkpt>
      <trkpt lat="44.70069" lon="5.10574">
        <ele>229.2</ele>
        <time>2024-05-17T12:47:38Z</time>
      </trkpt>
      <trkpt lat="44.70071" lon="5.10566">
        <ele>229.1</ele>
        <time>2024-05-17T12:47:39Z</time>
      </trkpt>
      <trkpt lat="44.70073" lon="5.10558">
        <ele>229.1</ele>
        <time>2024-05-17T12:47:40Z</time>
      </trkpt>
      <trkpt lat="44.70074" lon="5.10551">
        <ele>229</ele>
        <time>2024-05-17T12:47:41Z</time>
      </trkpt>
      <trkpt lat="44.70077" lon="5.10539">
        <ele>228.9</ele>
        <time>2024-05-17T12:47:42Z</time>
      </trkpt>
      <trkpt lat="44.70078" lon="5.10535">
        <ele>228.8</ele>
        <time>2024-05-17T12:47:43Z</time>
      </trkpt>
      <trkpt lat="44.7008" lon="5.10524">
        <ele>228.7</ele>
        <time>2024-05-17T12:47:44Z</time>
      </trkpt>
      <trkpt lat="44.70081" lon="5.1052">
        <ele>228.7</ele>
        <time>2024-05-17T12:47:45Z</time>
      </trkpt>
      <trkpt lat="44.70083" lon="5.10512">
        <ele>228.6</ele>
        <time>2024-05-17T12:47:46Z</time>
      </trkpt>
      <trkpt lat="44.70084" lon="5.10504">
        <ele>228.6</ele>
        <time>2024-05-17T12:47:47Z</time>
      </trkpt>
      <trkpt lat="44.70087" lon="5.10493">
        <ele>228.5</ele>
        <time>2024-05-17T12:47:48Z</time>
      </trkpt>
      <trkpt lat="44.70088" lon="5.10489">
        <ele>228.5</ele>
        <time>2024-05-17T12:47:49Z</time>
      </trkpt>
      <trkpt lat="44.70091" lon="5.10477">
        <ele>228.4</ele>
        <time>2024-05-17T12:47:50Z</time>
      </trkpt>
      <trkpt lat="44.70091" lon="5.10473">
        <ele>228.4</ele>
        <time>2024-05-17T12:47:51Z</time>
      </trkpt>
      <trkpt lat="44.70094" lon="5.10461">
        <ele>228.3</ele>
        <time>2024-05-17T12:47:52Z</time>
      </trkpt>
      <trkpt lat="44.70095" lon="5.10457">
        <ele>228.3</ele>
        <time>2024-05-17T12:47:53Z</time>
      </trkpt>
      <trkpt lat="44.70096" lon="5.10449">
        <ele>228.3</ele>
        <time>2024-05-17T12:47:54Z</time>
      </trkpt>
      <trkpt lat="44.70099" lon="5.10437">
        <ele>228.2</ele>
        <time>2024-05-17T12:47:55Z</time>
      </trkpt>
      <trkpt lat="44.70099" lon="5.10433">
        <ele>228.2</ele>
        <time>2024-05-17T12:47:56Z</time>
      </trkpt>
      <trkpt lat="44.70101" lon="5.10425">
        <ele>228.2</ele>
        <time>2024-05-17T12:47:57Z</time>
      </trkpt>
      <trkpt lat="44.70103" lon="5.10414">
        <ele>228.2</ele>
        <time>2024-05-17T12:47:58Z</time>
      </trkpt>
      <trkpt lat="44.70104" lon="5.1041">
        <ele>228.2</ele>
        <time>2024-05-17T12:47:59Z</time>
      </trkpt>
      <trkpt lat="44.70107" lon="5.10399">
        <ele>228.1</ele>
        <time>2024-05-17T12:48:00Z</time>
      </trkpt>
      <trkpt lat="44.70108" lon="5.10395">
        <ele>228.1</ele>
        <time>2024-05-17T12:48:01Z</time>
      </trkpt>
      <trkpt lat="44.70111" lon="5.10384">
        <ele>228.1</ele>
        <time>2024-05-17T12:48:02Z</time>
      </trkpt>
      <trkpt lat="44.70112" lon="5.1038">
        <ele>228.1</ele>
        <time>2024-05-17T12:48:03Z</time>
      </trkpt>
      <trkpt lat="44.70114" lon="5.10369">
        <ele>228</ele>
        <time>2024-05-17T12:48:04Z</time>
      </trkpt>
      <trkpt lat="44.70115" lon="5.10365">
        <ele>228</ele>
        <time>2024-05-17T12:48:05Z</time>
      </trkpt>
      <trkpt lat="44.70117" lon="5.10358">
        <ele>228</ele>
        <time>2024-05-17T12:48:06Z</time>
      </trkpt>
      <trkpt lat="44.70119" lon="5.10347">
        <ele>227.9</ele>
        <time>2024-05-17T12:48:07Z</time>
      </trkpt>
      <trkpt lat="44.7012" lon="5.10343">
        <ele>227.9</ele>
        <time>2024-05-17T12:48:08Z</time>
      </trkpt>
      <trkpt lat="44.70122" lon="5.10336">
        <ele>227.9</ele>
        <time>2024-05-17T12:48:09Z</time>
      </trkpt>
      <trkpt lat="44.70126" lon="5.10325">
        <ele>227.9</ele>
        <time>2024-05-17T12:48:10Z</time>
      </trkpt>
      <trkpt lat="44.70127" lon="5.10321">
        <ele>227.9</ele>
        <time>2024-05-17T12:48:11Z</time>
      </trkpt>
      <trkpt lat="44.7013" lon="5.10311">
        <ele>227.8</ele>
        <time>2024-05-17T12:48:12Z</time>
      </trkpt>
      <trkpt lat="44.70132" lon="5.10307">
        <ele>227.8</ele>
        <time>2024-05-17T12:48:13Z</time>
      </trkpt>
      <trkpt lat="44.70135" lon="5.10296">
        <ele>227.8</ele>
        <time>2024-05-17T12:48:14Z</time>
      </trkpt>
      <trkpt lat="44.70137" lon="5.10293">
        <ele>227.8</ele>
        <time>2024-05-17T12:48:15Z</time>
      </trkpt>
      <trkpt lat="44.70139" lon="5.10286">
        <ele>227.8</ele>
        <time>2024-05-17T12:48:16Z</time>
      </trkpt>
      <trkpt lat="44.70142" lon="5.10279">
        <ele>227.8</ele>
        <time>2024-05-17T12:48:17Z</time>
      </trkpt>
      <trkpt lat="44.70144" lon="5.10272">
        <ele>227.8</ele>
        <time>2024-05-17T12:48:18Z</time>
      </trkpt>
      <trkpt lat="44.70147" lon="5.10264">
        <ele>227.8</ele>
        <time>2024-05-17T12:48:19Z</time>
      </trkpt>
      <trkpt lat="44.70149" lon="5.10257">
        <ele>227.7</ele>
        <time>2024-05-17T12:48:20Z</time>
      </trkpt>
      <trkpt lat="44.70152" lon="5.1025">
        <ele>227.7</ele>
        <time>2024-05-17T12:48:21Z</time>
      </trkpt>
      <trkpt lat="44.70155" lon="5.10243">
        <ele>227.7</ele>
        <time>2024-05-17T12:48:22Z</time>
      </trkpt>
      <trkpt lat="44.70157" lon="5.10236">
        <ele>227.6</ele>
        <time>2024-05-17T12:48:23Z</time>
      </trkpt>
      <trkpt lat="44.70161" lon="5.10225">
        <ele>227.6</ele>
        <time>2024-05-17T12:48:24Z</time>
      </trkpt>
      <trkpt lat="44.70162" lon="5.10221">
        <ele>227.6</ele>
        <time>2024-05-17T12:48:25Z</time>
      </trkpt>
      <trkpt lat="44.70166" lon="5.10211">
        <ele>227.5</ele>
        <time>2024-05-17T12:48:26Z</time>
      </trkpt>
      <trkpt lat="44.70167" lon="5.10207">
        <ele>227.5</ele>
        <time>2024-05-17T12:48:27Z</time>
      </trkpt>
      <trkpt lat="44.70171" lon="5.10196">
        <ele>227.4</ele>
        <time>2024-05-17T12:48:28Z</time>
      </trkpt>
      <trkpt lat="44.70172" lon="5.10192">
        <ele>227.4</ele>
        <time>2024-05-17T12:48:29Z</time>
      </trkpt>
      <trkpt lat="44.70175" lon="5.10181">
        <ele>227.3</ele>
        <time>2024-05-17T12:48:30Z</time>
      </trkpt>
      <trkpt lat="44.70176" lon="5.10178">
        <ele>227.3</ele>
        <time>2024-05-17T12:48:31Z</time>
      </trkpt>
      <trkpt lat="44.70179" lon="5.10168">
        <ele>227.2</ele>
        <time>2024-05-17T12:48:32Z</time>
      </trkpt>
      <trkpt lat="44.7018" lon="5.10164">
        <ele>227.2</ele>
        <time>2024-05-17T12:48:33Z</time>
      </trkpt>
      <trkpt lat="44.70183" lon="5.10154">
        <ele>227.1</ele>
        <time>2024-05-17T12:48:34Z</time>
      </trkpt>
      <trkpt lat="44.70185" lon="5.10151">
        <ele>227.1</ele>
        <time>2024-05-17T12:48:35Z</time>
      </trkpt>
      <trkpt lat="44.70188" lon="5.10142">
        <ele>227.1</ele>
        <time>2024-05-17T12:48:36Z</time>
      </trkpt>
      <trkpt lat="44.70189" lon="5.10139">
        <ele>227.1</ele>
        <time>2024-05-17T12:48:37Z</time>
      </trkpt>
      <trkpt lat="44.7019" lon="5.10133">
        <ele>227</ele>
        <time>2024-05-17T12:48:38Z</time>
      </trkpt>
      <trkpt lat="44.70193" lon="5.10123">
        <ele>227</ele>
        <time>2024-05-17T12:48:39Z</time>
      </trkpt>
      <trkpt lat="44.70194" lon="5.1012">
        <ele>227</ele>
        <time>2024-05-17T12:48:40Z</time>
      </trkpt>
      <trkpt lat="44.70196" lon="5.10111">
        <ele>227</ele>
        <time>2024-05-17T12:48:41Z</time>
      </trkpt>
      <trkpt lat="44.70197" lon="5.10108">
        <ele>227</ele>
        <time>2024-05-17T12:48:42Z</time>
      </trkpt>
      <trkpt lat="44.70199" lon="5.10099">
        <ele>227</ele>
        <time>2024-05-17T12:48:43Z</time>
      </trkpt>
      <trkpt lat="44.702" lon="5.10096">
        <ele>227</ele>
        <time>2024-05-17T12:48:44Z</time>
      </trkpt>
      <trkpt lat="44.70202" lon="5.10086">
        <ele>227</ele>
        <time>2024-05-17T12:48:45Z</time>
      </trkpt>
      <trkpt lat="44.70203" lon="5.10083">
        <ele>227</ele>
        <time>2024-05-17T12:48:46Z</time>
      </trkpt>
      <trkpt lat="44.70205" lon="5.10073">
        <ele>227</ele>
        <time>2024-05-17T12:48:47Z</time>
      </trkpt>
      <trkpt lat="44.70205" lon="5.1007">
        <ele>226.9</ele>
        <time>2024-05-17T12:48:48Z</time>
      </trkpt>
      <trkpt lat="44.70207" lon="5.10064">
        <ele>226.9</ele>
        <time>2024-05-17T12:48:49Z</time>
      </trkpt>
      <trkpt lat="44.70208" lon="5.10055">
        <ele>226.9</ele>
        <time>2024-05-17T12:48:50Z</time>
      </trkpt>
      <trkpt lat="44.70209" lon="5.10051">
        <ele>226.9</ele>
        <time>2024-05-17T12:48:51Z</time>
      </trkpt>
      <trkpt lat="44.7021" lon="5.10042">
        <ele>226.8</ele>
        <time>2024-05-17T12:48:52Z</time>
      </trkpt>
      <trkpt lat="44.70211" lon="5.10038">
        <ele>226.8</ele>
        <time>2024-05-17T12:48:53Z</time>
      </trkpt>
      <trkpt lat="44.70212" lon="5.10028">
        <ele>226.7</ele>
        <time>2024-05-17T12:48:54Z</time>
      </trkpt>
      <trkpt lat="44.70212" lon="5.10025">
        <ele>226.7</ele>
        <time>2024-05-17T12:48:55Z</time>
      </trkpt>
      <trkpt lat="44.70213" lon="5.10015">
        <ele>226.7</ele>
        <time>2024-05-17T12:48:56Z</time>
      </trkpt>
      <trkpt lat="44.70213" lon="5.10012">
        <ele>226.6</ele>
        <time>2024-05-17T12:48:57Z</time>
      </trkpt>
      <trkpt lat="44.70213" lon="5.10005">
        <ele>226.6</ele>
        <time>2024-05-17T12:48:58Z</time>
      </trkpt>
      <trkpt lat="44.70214" lon="5.09998">
        <ele>226.6</ele>
        <time>2024-05-17T12:48:59Z</time>
      </trkpt>
      <trkpt lat="44.70214" lon="5.09992">
        <ele>226.5</ele>
        <time>2024-05-17T12:49:00Z</time>
      </trkpt>
      <trkpt lat="44.70215" lon="5.09985">
        <ele>226.5</ele>
        <time>2024-05-17T12:49:01Z</time>
      </trkpt>
      <trkpt lat="44.70215" lon="5.09979">
        <ele>226.4</ele>
        <time>2024-05-17T12:49:02Z</time>
      </trkpt>
      <trkpt lat="44.70216" lon="5.09972">
        <ele>226.3</ele>
        <time>2024-05-17T12:49:03Z</time>
      </trkpt>
      <trkpt lat="44.70217" lon="5.09966">
        <ele>226.3</ele>
        <time>2024-05-17T12:49:04Z</time>
      </trkpt>
      <trkpt lat="44.70218" lon="5.09959">
        <ele>226.2</ele>
        <time>2024-05-17T12:49:05Z</time>
      </trkpt>
      <trkpt lat="44.70219" lon="5.09952">
        <ele>226.1</ele>
        <time>2024-05-17T12:49:06Z</time>
      </trkpt>
      <trkpt lat="44.70221" lon="5.09945">
        <ele>226</ele>
        <time>2024-05-17T12:49:07Z</time>
      </trkpt>
      <trkpt lat="44.70222" lon="5.09934">
        <ele>225.8</ele>
        <time>2024-05-17T12:49:08Z</time>
      </trkpt>
      <trkpt lat="44.70222" lon="5.0993">
        <ele>225.8</ele>
        <time>2024-05-17T12:49:09Z</time>
      </trkpt>
      <trkpt lat="44.7022" lon="5.0992">
        <ele>225.8</ele>
        <time>2024-05-17T12:49:10Z</time>
      </trkpt>
      <trkpt lat="44.70219" lon="5.09916">
        <ele>225.8</ele>
        <time>2024-05-17T12:49:11Z</time>
      </trkpt>
      <trkpt lat="44.70216" lon="5.09906">
        <ele>225.7</ele>
        <time>2024-05-17T12:49:12Z</time>
      </trkpt>
      <trkpt lat="44.70215" lon="5.09903">
        <ele>225.7</ele>
        <time>2024-05-17T12:49:13Z</time>
      </trkpt>
      <trkpt lat="44.70212" lon="5.09894">
        <ele>225.7</ele>
        <time>2024-05-17T12:49:14Z</time>
      </trkpt>
      <trkpt lat="44.70211" lon="5.09891">
        <ele>225.7</ele>
        <time>2024-05-17T12:49:15Z</time>
      </trkpt>
      <trkpt lat="44.70209" lon="5.09881">
        <ele>225.6</ele>
        <time>2024-05-17T12:49:16Z</time>
      </trkpt>
      <trkpt lat="44.70209" lon="5.09878">
        <ele>225.6</ele>
        <time>2024-05-17T12:49:17Z</time>
      </trkpt>
      <trkpt lat="44.70208" lon="5.09869">
        <ele>225.6</ele>
        <time>2024-05-17T12:49:18Z</time>
      </trkpt>
      <trkpt lat="44.70208" lon="5.09866">
        <ele>225.5</ele>
        <time>2024-05-17T12:49:19Z</time>
      </trkpt>
      <trkpt lat="44.70207" lon="5.0986">
        <ele>225.5</ele>
        <time>2024-05-17T12:49:20Z</time>
      </trkpt>
      <trkpt lat="44.70206" lon="5.09851">
        <ele>225.4</ele>
        <time>2024-05-17T12:49:21Z</time>
      </trkpt>
      <trkpt lat="44.70206" lon="5.09848">
        <ele>225.4</ele>
        <time>2024-05-17T12:49:22Z</time>
      </trkpt>
      <trkpt lat="44.70206" lon="5.09842">
        <ele>225.3</ele>
        <time>2024-05-17T12:49:23Z</time>
      </trkpt>
      <trkpt lat="44.70208" lon="5.09832">
        <ele>225.2</ele>
        <time>2024-05-17T12:49:24Z</time>
      </trkpt>
      <trkpt lat="44.70209" lon="5.09828">
        <ele>225.2</ele>
        <time>2024-05-17T12:49:25Z</time>
      </trkpt>
      <trkpt lat="44.70211" lon="5.09818">
        <ele>225</ele>
        <time>2024-05-17T12:49:26Z</time>
      </trkpt>
      <trkpt lat="44.70212" lon="5.09814">
        <ele>225</ele>
        <time>2024-05-17T12:49:27Z</time>
      </trkpt>
      <trkpt lat="44.70215" lon="5.09802">
        <ele>224.8</ele>
        <time>2024-05-17T12:49:28Z</time>
      </trkpt>
      <trkpt lat="44.70216" lon="5.09798">
        <ele>224.8</ele>
        <time>2024-05-17T12:49:29Z</time>
      </trkpt>
      <trkpt lat="44.70219" lon="5.09786">
        <ele>224.6</ele>
        <time>2024-05-17T12:49:30Z</time>
      </trkpt>
      <trkpt lat="44.7022" lon="5.09782">
        <ele>224.6</ele>
        <time>2024-05-17T12:49:31Z</time>
      </trkpt>
      <trkpt lat="44.70222" lon="5.09774">
        <ele>224.6</ele>
        <time>2024-05-17T12:49:32Z</time>
      </trkpt>
      <trkpt lat="44.70224" lon="5.09762">
        <ele>224.5</ele>
        <time>2024-05-17T12:49:33Z</time>
      </trkpt>
      <trkpt lat="44.70225" lon="5.09758">
        <ele>224.4</ele>
        <time>2024-05-17T12:49:34Z</time>
      </trkpt>
      <trkpt lat="44.70227" lon="5.0975">
        <ele>224.4</ele>
        <time>2024-05-17T12:49:35Z</time>
      </trkpt>
      <trkpt lat="44.70229" lon="5.09742">
        <ele>224.3</ele>
        <time>2024-05-17T12:49:36Z</time>
      </trkpt>
      <trkpt lat="44.7023" lon="5.09735">
        <ele>224.3</ele>
        <time>2024-05-17T12:49:37Z</time>
      </trkpt>
      <trkpt lat="44.70232" lon="5.09727">
        <ele>224.2</ele>
        <time>2024-05-17T12:49:38Z</time>
      </trkpt>
      <trkpt lat="44.70234" lon="5.09719">
        <ele>224.1</ele>
        <time>2024-05-17T12:49:39Z</time>
      </trkpt>
      <trkpt lat="44.70237" lon="5.09708">
        <ele>224</ele>
        <time>2024-05-17T12:49:40Z</time>
      </trkpt>
      <trkpt lat="44.70239" lon="5.09705">
        <ele>223.9</ele>
        <time>2024-05-17T12:49:41Z</time>
      </trkpt>
      <trkpt lat="44.70243" lon="5.09694">
        <ele>223.8</ele>
        <time>2024-05-17T12:49:42Z</time>
      </trkpt>
      <trkpt lat="44.70245" lon="5.09691">
        <ele>223.8</ele>
        <time>2024-05-17T12:49:43Z</time>
      </trkpt>
      <trkpt lat="44.70248" lon="5.09684">
        <ele>223.7</ele>
        <time>2024-05-17T12:49:44Z</time>
      </trkpt>
      <trkpt lat="44.70252" lon="5.09677">
        <ele>223.6</ele>
        <time>2024-05-17T12:49:45Z</time>
      </trkpt>
      <trkpt lat="44.70255" lon="5.0967">
        <ele>223.5</ele>
        <time>2024-05-17T12:49:46Z</time>
      </trkpt>
      <trkpt lat="44.70259" lon="5.09662">
        <ele>223.5</ele>
        <time>2024-05-17T12:49:47Z</time>
      </trkpt>
      <trkpt lat="44.70262" lon="5.09655">
        <ele>223.4</ele>
        <time>2024-05-17T12:49:48Z</time>
      </trkpt>
      <trkpt lat="44.70265" lon="5.09648">
        <ele>223.4</ele>
        <time>2024-05-17T12:49:49Z</time>
      </trkpt>
      <trkpt lat="44.70269" lon="5.09641">
        <ele>223.4</ele>
        <time>2024-05-17T12:49:50Z</time>
      </trkpt>
      <trkpt lat="44.70272" lon="5.09634">
        <ele>223.3</ele>
        <time>2024-05-17T12:49:51Z</time>
      </trkpt>
      <trkpt lat="44.70277" lon="5.09625">
        <ele>223.3</ele>
        <time>2024-05-17T12:49:52Z</time>
      </trkpt>
      <trkpt lat="44.70279" lon="5.09622">
        <ele>223.2</ele>
        <time>2024-05-17T12:49:53Z</time>
      </trkpt>
      <trkpt lat="44.70283" lon="5.09612">
        <ele>223.2</ele>
        <time>2024-05-17T12:49:54Z</time>
      </trkpt>
      <trkpt lat="44.70285" lon="5.09609">
        <ele>223.1</ele>
        <time>2024-05-17T12:49:55Z</time>
      </trkpt>
      <trkpt lat="44.7029" lon="5.09599">
        <ele>223.1</ele>
        <time>2024-05-17T12:49:56Z</time>
      </trkpt>
      <trkpt lat="44.70291" lon="5.09596">
        <ele>223</ele>
        <time>2024-05-17T12:49:57Z</time>
      </trkpt>
      <trkpt lat="44.70296" lon="5.09586">
        <ele>223</ele>
        <time>2024-05-17T12:49:58Z</time>
      </trkpt>
      <trkpt lat="44.70297" lon="5.09583">
        <ele>223</ele>
        <time>2024-05-17T12:49:59Z</time>
      </trkpt>
      <trkpt lat="44.70302" lon="5.09573">
        <ele>223</ele>
        <time>2024-05-17T12:50:00Z</time>
      </trkpt>
      <trkpt lat="44.70304" lon="5.0957">
        <ele>222.9</ele>
        <time>2024-05-17T12:50:01Z</time>
      </trkpt>
      <trkpt lat="44.70308" lon="5.0956">
        <ele>222.9</ele>
        <time>2024-05-17T12:50:02Z</time>
      </trkpt>
      <trkpt lat="44.7031" lon="5.09557">
        <ele>222.9</ele>
        <time>2024-05-17T12:50:03Z</time>
      </trkpt>
      <trkpt lat="44.70313" lon="5.09551">
        <ele>222.9</ele>
        <time>2024-05-17T12:50:04Z</time>
      </trkpt>
      <trkpt lat="44.70318" lon="5.09541">
        <ele>222.9</ele>
        <time>2024-05-17T12:50:05Z</time>
      </trkpt>
      <trkpt lat="44.7032" lon="5.09538">
        <ele>222.9</ele>
        <time>2024-05-17T12:50:06Z</time>
      </trkpt>
      <trkpt lat="44.70326" lon="5.09528">
        <ele>222.9</ele>
        <time>2024-05-17T12:50:07Z</time>
      </trkpt>
      <trkpt lat="44.70328" lon="5.09525">
        <ele>222.9</ele>
        <time>2024-05-17T12:50:08Z</time>
      </trkpt>
      <trkpt lat="44.70333" lon="5.09516">
        <ele>222.9</ele>
        <time>2024-05-17T12:50:09Z</time>
      </trkpt>
      <trkpt lat="44.70335" lon="5.09512">
        <ele>222.9</ele>
        <time>2024-05-17T12:50:10Z</time>
      </trkpt>
      <trkpt lat="44.70339" lon="5.09502">
        <ele>222.8</ele>
        <time>2024-05-17T12:50:11Z</time>
      </trkpt>
      <trkpt lat="44.70341" lon="5.09499">
        <ele>222.8</ele>
        <time>2024-05-17T12:50:12Z</time>
      </trkpt>
      <trkpt lat="44.70344" lon="5.09488">
        <ele>222.7</ele>
        <time>2024-05-17T12:50:13Z</time>
      </trkpt>
      <trkpt lat="44.70346" lon="5.09485">
        <ele>222.7</ele>
        <time>2024-05-17T12:50:14Z</time>
      </trkpt>
      <trkpt lat="44.70348" lon="5.09477">
        <ele>222.6</ele>
        <time>2024-05-17T12:50:15Z</time>
      </trkpt>
      <trkpt lat="44.7035" lon="5.09467">
        <ele>222.6</ele>
        <time>2024-05-17T12:50:16Z</time>
      </trkpt>
      <trkpt lat="44.70351" lon="5.09463">
        <ele>222.5</ele>
        <time>2024-05-17T12:50:17Z</time>
      </trkpt>
      <trkpt lat="44.70353" lon="5.09456">
        <ele>222.5</ele>
        <time>2024-05-17T12:50:18Z</time>
      </trkpt>
      <trkpt lat="44.70356" lon="5.09445">
        <ele>222.4</ele>
        <time>2024-05-17T12:50:19Z</time>
      </trkpt>
      <trkpt lat="44.70356" lon="5.09441">
        <ele>222.3</ele>
        <time>2024-05-17T12:50:20Z</time>
      </trkpt>
      <trkpt lat="44.70358" lon="5.09429">
        <ele>222.2</ele>
        <time>2024-05-17T12:50:21Z</time>
      </trkpt>
      <trkpt lat="44.70358" lon="5.09425">
        <ele>222.1</ele>
        <time>2024-05-17T12:50:22Z</time>
      </trkpt>
      <trkpt lat="44.70359" lon="5.09413">
        <ele>222</ele>
        <time>2024-05-17T12:50:23Z</time>
      </trkpt>
      <trkpt lat="44.70359" lon="5.09408">
        <ele>221.9</ele>
        <time>2024-05-17T12:50:24Z</time>
      </trkpt>
      <trkpt lat="44.7036" lon="5.09396">
        <ele>221.8</ele>
        <time>2024-05-17T12:50:25Z</time>
      </trkpt>
      <trkpt lat="44.7036" lon="5.09392">
        <ele>221.7</ele>
        <time>2024-05-17T12:50:26Z</time>
      </trkpt>
      <trkpt lat="44.7036" lon="5.09383">
        <ele>221.6</ele>
        <time>2024-05-17T12:50:27Z</time>
      </trkpt>
      <trkpt lat="44.70361" lon="5.09375">
        <ele>221.6</ele>
        <time>2024-05-17T12:50:28Z</time>
      </trkpt>
      <trkpt lat="44.70361" lon="5.09367">
        <ele>221.5</ele>
        <time>2024-05-17T12:50:29Z</time>
      </trkpt>
      <trkpt lat="44.70361" lon="5.09359">
        <ele>221.4</ele>
        <time>2024-05-17T12:50:30Z</time>
      </trkpt>
      <trkpt lat="44.70362" lon="5.09351">
        <ele>221.3</ele>
        <time>2024-05-17T12:50:31Z</time>
      </trkpt>
      <trkpt lat="44.70362" lon="5.09343">
        <ele>221.3</ele>
        <time>2024-05-17T12:50:32Z</time>
      </trkpt>
      <trkpt lat="44.70363" lon="5.09335">
        <ele>221.2</ele>
        <time>2024-05-17T12:50:33Z</time>
      </trkpt>
      <trkpt lat="44.70363" lon="5.09327">
        <ele>221.2</ele>
        <time>2024-05-17T12:50:34Z</time>
      </trkpt>
      <trkpt lat="44.70363" lon="5.09315">
        <ele>221.2</ele>
        <time>2024-05-17T12:50:35Z</time>
      </trkpt>
      <trkpt lat="44.70364" lon="5.09311">
        <ele>221.1</ele>
        <time>2024-05-17T12:50:36Z</time>
      </trkpt>
      <trkpt lat="44.70364" lon="5.09299">
        <ele>221.1</ele>
        <time>2024-05-17T12:50:37Z</time>
      </trkpt>
      <trkpt lat="44.70364" lon="5.09295">
        <ele>221.1</ele>
        <time>2024-05-17T12:50:38Z</time>
      </trkpt>
      <trkpt lat="44.70365" lon="5.09283">
        <ele>221.1</ele>
        <time>2024-05-17T12:50:39Z</time>
      </trkpt>
      <trkpt lat="44.70365" lon="5.09279">
        <ele>221.1</ele>
        <time>2024-05-17T12:50:40Z</time>
      </trkpt>
      <trkpt lat="44.70366" lon="5.09267">
        <ele>221.1</ele>
        <time>2024-05-17T12:50:41Z</time>
      </trkpt>
      <trkpt lat="44.70366" lon="5.09263">
        <ele>221.1</ele>
        <time>2024-05-17T12:50:42Z</time>
      </trkpt>
      <trkpt lat="44.70366" lon="5.09251">
        <ele>221.1</ele>
        <time>2024-05-17T12:50:43Z</time>
      </trkpt>
      <trkpt lat="44.70366" lon="5.09248">
        <ele>221.1</ele>
        <time>2024-05-17T12:50:44Z</time>
      </trkpt>
      <trkpt lat="44.70367" lon="5.09236">
        <ele>221.2</ele>
        <time>2024-05-17T12:50:45Z</time>
      </trkpt>
      <trkpt lat="44.70367" lon="5.09233">
        <ele>221.2</ele>
        <time>2024-05-17T12:50:46Z</time>
      </trkpt>
      <trkpt lat="44.70367" lon="5.09226">
        <ele>221.2</ele>
        <time>2024-05-17T12:50:47Z</time>
      </trkpt>
      <trkpt lat="44.70368" lon="5.09215">
        <ele>221.2</ele>
        <time>2024-05-17T12:50:48Z</time>
      </trkpt>
      <trkpt lat="44.70369" lon="5.09211">
        <ele>221.3</ele>
        <time>2024-05-17T12:50:49Z</time>
      </trkpt>
      <trkpt lat="44.70369" lon="5.092">
        <ele>221.3</ele>
        <time>2024-05-17T12:50:50Z</time>
      </trkpt>
      <trkpt lat="44.70369" lon="5.09196">
        <ele>221.4</ele>
        <time>2024-05-17T12:50:51Z</time>
      </trkpt>
      <trkpt lat="44.7037" lon="5.09185">
        <ele>221.5</ele>
        <time>2024-05-17T12:50:52Z</time>
      </trkpt>
      <trkpt lat="44.7037" lon="5.09182">
        <ele>221.5</ele>
        <time>2024-05-17T12:50:53Z</time>
      </trkpt>
      <trkpt lat="44.7037" lon="5.09171">
        <ele>221.7</ele>
        <time>2024-05-17T12:50:54Z</time>
      </trkpt>
      <trkpt lat="44.7037" lon="5.09168">
        <ele>221.7</ele>
        <time>2024-05-17T12:50:55Z</time>
      </trkpt>
      <trkpt lat="44.70371" lon="5.09158">
        <ele>221.9</ele>
        <time>2024-05-17T12:50:56Z</time>
      </trkpt>
      <trkpt lat="44.70371" lon="5.09155">
        <ele>221.9</ele>
        <time>2024-05-17T12:50:57Z</time>
      </trkpt>
      <trkpt lat="44.70372" lon="5.09148">
        <ele>222</ele>
        <time>2024-05-17T12:50:58Z</time>
      </trkpt>
      <trkpt lat="44.70373" lon="5.09139">
        <ele>222.1</ele>
        <time>2024-05-17T12:50:59Z</time>
      </trkpt>
      <trkpt lat="44.70374" lon="5.09136">
        <ele>222.1</ele>
        <time>2024-05-17T12:51:00Z</time>
      </trkpt>
      <trkpt lat="44.70376" lon="5.0913">
        <ele>222.2</ele>
        <time>2024-05-17T12:51:01Z</time>
      </trkpt>
      <trkpt lat="44.70378" lon="5.09121">
        <ele>222.2</ele>
        <time>2024-05-17T12:51:02Z</time>
      </trkpt>
      <trkpt lat="44.70379" lon="5.09118">
        <ele>222.2</ele>
        <time>2024-05-17T12:51:03Z</time>
      </trkpt>
      <trkpt lat="44.70382" lon="5.09109">
        <ele>222.2</ele>
        <time>2024-05-17T12:51:04Z</time>
      </trkpt>
      <trkpt lat="44.70382" lon="5.09106">
        <ele>222.3</ele>
        <time>2024-05-17T12:51:05Z</time>
      </trkpt>
      <trkpt lat="44.70385" lon="5.09097">
        <ele>222.3</ele>
        <time>2024-05-17T12:51:06Z</time>
      </trkpt>
      <trkpt lat="44.70386" lon="5.09094">
        <ele>222.3</ele>
        <time>2024-05-17T12:51:07Z</time>
      </trkpt>
      <trkpt lat="44.70389" lon="5.09085">
        <ele>222.3</ele>
        <time>2024-05-17T12:51:08Z</time>
      </trkpt>
      <trkpt lat="44.7039" lon="5.09082">
        <ele>222.3</ele>
        <time>2024-05-17T12:51:09Z</time>
      </trkpt>
      <trkpt lat="44.70392" lon="5.09075">
        <ele>222.4</ele>
        <time>2024-05-17T12:51:10Z</time>
      </trkpt>
      <trkpt lat="44.70393" lon="5.09069">
        <ele>222.4</ele>
        <time>2024-05-17T12:51:11Z</time>
      </trkpt>
      <trkpt lat="44.70395" lon="5.09063">
        <ele>222.4</ele>
        <time>2024-05-17T12:51:12Z</time>
      </trkpt>
      <trkpt lat="44.70396" lon="5.09057">
        <ele>222.4</ele>
        <time>2024-05-17T12:51:13Z</time>
      </trkpt>
      <trkpt lat="44.70398" lon="5.09051">
        <ele>222.4</ele>
        <time>2024-05-17T12:51:14Z</time>
      </trkpt>
      <trkpt lat="44.704" lon="5.09045">
        <ele>222.4</ele>
        <time>2024-05-17T12:51:15Z</time>
      </trkpt>
      <trkpt lat="44.70402" lon="5.09039">
        <ele>222.3</ele>
        <time>2024-05-17T12:51:16Z</time>
      </trkpt>
      <trkpt lat="44.70403" lon="5.09033">
        <ele>222.3</ele>
        <time>2024-05-17T12:51:17Z</time>
      </trkpt>
      <trkpt lat="44.70406" lon="5.09024">
        <ele>222.3</ele>
        <time>2024-05-17T12:51:18Z</time>
      </trkpt>
      <trkpt lat="44.70406" lon="5.09021">
        <ele>222.3</ele>
        <time>2024-05-17T12:51:19Z</time>
      </trkpt>
      <trkpt lat="44.70409" lon="5.09011">
        <ele>222.4</ele>
        <time>2024-05-17T12:51:20Z</time>
      </trkpt>
      <trkpt lat="44.7041" lon="5.09008">
        <ele>222.4</ele>
        <time>2024-05-17T12:51:21Z</time>
      </trkpt>
      <trkpt lat="44.70412" lon="5.08999">
        <ele>222.4</ele>
        <time>2024-05-17T12:51:22Z</time>
      </trkpt>
      <trkpt lat="44.70413" lon="5.08996">
        <ele>222.4</ele>
        <time>2024-05-17T12:51:23Z</time>
      </trkpt>
      <trkpt lat="44.70416" lon="5.08987">
        <ele>222.4</ele>
        <time>2024-05-17T12:51:24Z</time>
      </trkpt>
      <trkpt lat="44.70417" lon="5.08984">
        <ele>222.4</ele>
        <time>2024-05-17T12:51:25Z</time>
      </trkpt>
      <trkpt lat="44.70419" lon="5.08974">
        <ele>222.4</ele>
        <time>2024-05-17T12:51:26Z</time>
      </trkpt>
      <trkpt lat="44.7042" lon="5.08971">
        <ele>222.4</ele>
        <time>2024-05-17T12:51:27Z</time>
      </trkpt>
      <trkpt lat="44.70423" lon="5.08963">
        <ele>222.4</ele>
        <time>2024-05-17T12:51:28Z</time>
      </trkpt>
      <trkpt lat="44.70424" lon="5.0896">
        <ele>222.4</ele>
        <time>2024-05-17T12:51:29Z</time>
      </trkpt>
      <trkpt lat="44.70426" lon="5.08954">
        <ele>222.4</ele>
        <time>2024-05-17T12:51:30Z</time>
      </trkpt>
      <trkpt lat="44.70429" lon="5.08945">
        <ele>222.4</ele>
        <time>2024-05-17T12:51:31Z</time>
      </trkpt>
      <trkpt lat="44.7043" lon="5.08942">
        <ele>222.4</ele>
        <time>2024-05-17T12:51:32Z</time>
      </trkpt>
      <trkpt lat="44.70432" lon="5.08934">
        <ele>222.4</ele>
        <time>2024-05-17T12:51:33Z</time>
      </trkpt>
      <trkpt lat="44.70433" lon="5.08931">
        <ele>222.4</ele>
        <time>2024-05-17T12:51:34Z</time>
      </trkpt>
      <trkpt lat="44.70435" lon="5.08922">
        <ele>222.5</ele>
        <time>2024-05-17T12:51:35Z</time>
      </trkpt>
      <trkpt lat="44.70436" lon="5.0892">
        <ele>222.5</ele>
        <time>2024-05-17T12:51:36Z</time>
      </trkpt>
      <trkpt lat="44.70438" lon="5.08912">
        <ele>222.5</ele>
        <time>2024-05-17T12:51:37Z</time>
      </trkpt>
      <trkpt lat="44.70439" lon="5.08909">
        <ele>222.5</ele>
        <time>2024-05-17T12:51:38Z</time>
      </trkpt>
      <trkpt lat="44.70441" lon="5.08901">
        <ele>222.5</ele>
        <time>2024-05-17T12:51:39Z</time>
      </trkpt>
      <trkpt lat="44.70442" lon="5.08898">
        <ele>222.5</ele>
        <time>2024-05-17T12:51:40Z</time>
      </trkpt>
      <trkpt lat="44.70444" lon="5.08892">
        <ele>222.5</ele>
        <time>2024-05-17T12:51:41Z</time>
      </trkpt>
      <trkpt lat="44.70446" lon="5.08884">
        <ele>222.6</ele>
        <time>2024-05-17T12:51:42Z</time>
      </trkpt>
      <trkpt lat="44.70447" lon="5.08882">
        <ele>222.6</ele>
        <time>2024-05-17T12:51:43Z</time>
      </trkpt>
      <trkpt lat="44.70449" lon="5.08878">
        <ele>222.6</ele>
        <time>2024-05-17T12:51:44Z</time>
      </trkpt>
      <trkpt lat="44.70453" lon="5.08874">
        <ele>222.5</ele>
        <time>2024-05-17T12:51:45Z</time>
      </trkpt>
      <trkpt lat="44.70455" lon="5.08873">
        <ele>222.5</ele>
        <time>2024-05-17T12:51:46Z</time>
      </trkpt>
      <trkpt lat="44.70458" lon="5.08872">
        <ele>222.4</ele>
        <time>2024-05-17T12:51:47Z</time>
      </trkpt>
      <trkpt lat="44.7046" lon="5.08872">
        <ele>222.4</ele>
        <time>2024-05-17T12:51:48Z</time>
      </trkpt>
      <trkpt lat="44.70462" lon="5.08873">
        <ele>222.3</ele>
        <time>2024-05-17T12:51:49Z</time>
      </trkpt>
      <trkpt lat="44.70464" lon="5.08874">
        <ele>222.3</ele>
        <time>2024-05-17T12:51:50Z</time>
      </trkpt>
      <trkpt lat="44.70466" lon="5.08875">
        <ele>222.2</ele>
        <time>2024-05-17T12:51:51Z</time>
      </trkpt>
      <trkpt lat="44.70468" lon="5.08877">
        <ele>222.2</ele>
        <time>2024-05-17T12:51:52Z</time>
      </trkpt>
      <trkpt lat="44.70471" lon="5.08879">
        <ele>222.2</ele>
        <time>2024-05-17T12:51:53Z</time>
      </trkpt>
      <trkpt lat="44.70474" lon="5.08882">
        <ele>222.2</ele>
        <time>2024-05-17T12:51:54Z</time>
      </trkpt>
      <trkpt lat="44.70478" lon="5.08884">
        <ele>222.2</ele>
        <time>2024-05-17T12:51:55Z</time>
      </trkpt>
      <trkpt lat="44.70484" lon="5.08885">
        <ele>222.1</ele>
        <time>2024-05-17T12:51:56Z</time>
      </trkpt>
      <trkpt lat="44.70486" lon="5.08885">
        <ele>222.1</ele>
        <time>2024-05-17T12:51:57Z</time>
      </trkpt>
      <trkpt lat="44.70492" lon="5.08881">
        <ele>222</ele>
        <time>2024-05-17T12:51:58Z</time>
      </trkpt>
      <trkpt lat="44.70493" lon="5.08879">
        <ele>221.9</ele>
        <time>2024-05-17T12:51:59Z</time>
      </trkpt>
      <trkpt lat="44.70496" lon="5.0887">
        <ele>221.7</ele>
        <time>2024-05-17T12:52:00Z</time>
      </trkpt>
      <trkpt lat="44.70497" lon="5.08867">
        <ele>221.7</ele>
        <time>2024-05-17T12:52:01Z</time>
      </trkpt>
      <trkpt lat="44.70497" lon="5.08857">
        <ele>221.7</ele>
        <time>2024-05-17T12:52:02Z</time>
      </trkpt>
      <trkpt lat="44.70497" lon="5.08854">
        <ele>221.7</ele>
        <time>2024-05-17T12:52:03Z</time>
      </trkpt>
      <trkpt lat="44.70497" lon="5.08844">
        <ele>221.6</ele>
        <time>2024-05-17T12:52:04Z</time>
      </trkpt>
      <trkpt lat="44.70497" lon="5.08841">
        <ele>221.6</ele>
        <time>2024-05-17T12:52:05Z</time>
      </trkpt>
      <trkpt lat="44.705" lon="5.08831">
        <ele>221.6</ele>
        <time>2024-05-17T12:52:06Z</time>
      </trkpt>
      <trkpt lat="44.70501" lon="5.08828">
        <ele>221.6</ele>
        <time>2024-05-17T12:52:07Z</time>
      </trkpt>
      <trkpt lat="44.70504" lon="5.08818">
        <ele>221.5</ele>
        <time>2024-05-17T12:52:08Z</time>
      </trkpt>
      <trkpt lat="44.70505" lon="5.08815">
        <ele>221.5</ele>
        <time>2024-05-17T12:52:09Z</time>
      </trkpt>
      <trkpt lat="44.70508" lon="5.08805">
        <ele>221.5</ele>
        <time>2024-05-17T12:52:10Z</time>
      </trkpt>
      <trkpt lat="44.70509" lon="5.08801">
        <ele>221.5</ele>
        <time>2024-05-17T12:52:11Z</time>
      </trkpt>
      <trkpt lat="44.70511" lon="5.08794">
        <ele>221.4</ele>
        <time>2024-05-17T12:52:12Z</time>
      </trkpt>
      <trkpt lat="44.70514" lon="5.08783">
        <ele>221.3</ele>
        <time>2024-05-17T12:52:13Z</time>
      </trkpt>
      <trkpt lat="44.70515" lon="5.0878">
        <ele>221.2</ele>
        <time>2024-05-17T12:52:14Z</time>
      </trkpt>
      <trkpt lat="44.70517" lon="5.08772">
        <ele>221.1</ele>
        <time>2024-05-17T12:52:15Z</time>
      </trkpt>
      <trkpt lat="44.7052" lon="5.08761">
        <ele>220.9</ele>
        <time>2024-05-17T12:52:16Z</time>
      </trkpt>
      <trkpt lat="44.70521" lon="5.08757">
        <ele>220.9</ele>
        <time>2024-05-17T12:52:17Z</time>
      </trkpt>
      <trkpt lat="44.70525" lon="5.08745">
        <ele>220.7</ele>
        <time>2024-05-17T12:52:18Z</time>
      </trkpt>
      <trkpt lat="44.70526" lon="5.08741">
        <ele>220.6</ele>
        <time>2024-05-17T12:52:19Z</time>
      </trkpt>
      <trkpt lat="44.70529" lon="5.0873">
        <ele>220.5</ele>
        <time>2024-05-17T12:52:20Z</time>
      </trkpt>
      <trkpt lat="44.7053" lon="5.08726">
        <ele>220.4</ele>
        <time>2024-05-17T12:52:21Z</time>
      </trkpt>
      <trkpt lat="44.70533" lon="5.08714">
        <ele>220.3</ele>
        <time>2024-05-17T12:52:22Z</time>
      </trkpt>
      <trkpt lat="44.70534" lon="5.0871">
        <ele>220.3</ele>
        <time>2024-05-17T12:52:23Z</time>
      </trkpt>
      <trkpt lat="44.70537" lon="5.08699">
        <ele>220.2</ele>
        <time>2024-05-17T12:52:24Z</time>
      </trkpt>
      <trkpt lat="44.70538" lon="5.08695">
        <ele>220.2</ele>
        <time>2024-05-17T12:52:25Z</time>
      </trkpt>
      <trkpt lat="44.70541" lon="5.08687">
        <ele>220.2</ele>
        <time>2024-05-17T12:52:26Z</time>
      </trkpt>
      <trkpt lat="44.70544" lon="5.08676">
        <ele>220.1</ele>
        <time>2024-05-17T12:52:27Z</time>
      </trkpt>
      <trkpt lat="44.70545" lon="5.08672">
        <ele>220.1</ele>
        <time>2024-05-17T12:52:28Z</time>
      </trkpt>
      <trkpt lat="44.70548" lon="5.08661">
        <ele>220</ele>
        <time>2024-05-17T12:52:29Z</time>
      </trkpt>
      <trkpt lat="44.70549" lon="5.08657">
        <ele>220</ele>
        <time>2024-05-17T12:52:30Z</time>
      </trkpt>
      <trkpt lat="44.70551" lon="5.0865">
        <ele>220</ele>
        <time>2024-05-17T12:52:31Z</time>
      </trkpt>
      <trkpt lat="44.70554" lon="5.08638">
        <ele>219.9</ele>
        <time>2024-05-17T12:52:32Z</time>
      </trkpt>
      <trkpt lat="44.70555" lon="5.08635">
        <ele>219.9</ele>
        <time>2024-05-17T12:52:33Z</time>
      </trkpt>
      <trkpt lat="44.70558" lon="5.08624">
        <ele>219.9</ele>
        <time>2024-05-17T12:52:34Z</time>
      </trkpt>
      <trkpt lat="44.70559" lon="5.0862">
        <ele>219.9</ele>
        <time>2024-05-17T12:52:35Z</time>
      </trkpt>
      <trkpt lat="44.70561" lon="5.08613">
        <ele>219.9</ele>
        <time>2024-05-17T12:52:36Z</time>
      </trkpt>
      <trkpt lat="44.70563" lon="5.08605">
        <ele>219.9</ele>
        <time>2024-05-17T12:52:37Z</time>
      </trkpt>
      <trkpt lat="44.70565" lon="5.08598">
        <ele>219.8</ele>
        <time>2024-05-17T12:52:38Z</time>
      </trkpt>
      <trkpt lat="44.70567" lon="5.08591">
        <ele>219.8</ele>
        <time>2024-05-17T12:52:39Z</time>
      </trkpt>
      <trkpt lat="44.70569" lon="5.08583">
        <ele>219.8</ele>
        <time>2024-05-17T12:52:40Z</time>
      </trkpt>
      <trkpt lat="44.70571" lon="5.08576">
        <ele>219.8</ele>
        <time>2024-05-17T12:52:41Z</time>
      </trkpt>
      <trkpt lat="44.70574" lon="5.08565">
        <ele>219.8</ele>
        <time>2024-05-17T12:52:42Z</time>
      </trkpt>
      <trkpt lat="44.70575" lon="5.08561">
        <ele>219.8</ele>
        <time>2024-05-17T12:52:43Z</time>
      </trkpt>
      <trkpt lat="44.70578" lon="5.0855">
        <ele>219.8</ele>
        <time>2024-05-17T12:52:44Z</time>
      </trkpt>
      <trkpt lat="44.70579" lon="5.08547">
        <ele>219.8</ele>
        <time>2024-05-17T12:52:45Z</time>
      </trkpt>
      <trkpt lat="44.70583" lon="5.08536">
        <ele>219.7</ele>
        <time>2024-05-17T12:52:46Z</time>
      </trkpt>
      <trkpt lat="44.70584" lon="5.08532">
        <ele>219.7</ele>
        <time>2024-05-17T12:52:47Z</time>
      </trkpt>
      <trkpt lat="44.70586" lon="5.08524">
        <ele>219.7</ele>
        <time>2024-05-17T12:52:48Z</time>
      </trkpt>
      <trkpt lat="44.70588" lon="5.08516">
        <ele>219.7</ele>
        <time>2024-05-17T12:52:49Z</time>
      </trkpt>
      <trkpt lat="44.70589" lon="5.08509">
        <ele>219.7</ele>
        <time>2024-05-17T12:52:50Z</time>
      </trkpt>
      <trkpt lat="44.70592" lon="5.08497">
        <ele>219.7</ele>
        <time>2024-05-17T12:52:51Z</time>
      </trkpt>
      <trkpt lat="44.70593" lon="5.08493">
        <ele>219.6</ele>
        <time>2024-05-17T12:52:52Z</time>
      </trkpt>
      <trkpt lat="44.70595" lon="5.08485">
        <ele>219.6</ele>
        <time>2024-05-17T12:52:53Z</time>
      </trkpt>
      <trkpt lat="44.70597" lon="5.08473">
        <ele>219.6</ele>
        <time>2024-05-17T12:52:54Z</time>
      </trkpt>
      <trkpt lat="44.70598" lon="5.08469">
        <ele>219.6</ele>
        <time>2024-05-17T12:52:55Z</time>
      </trkpt>
      <trkpt lat="44.706" lon="5.08461">
        <ele>219.6</ele>
        <time>2024-05-17T12:52:56Z</time>
      </trkpt>
      <trkpt lat="44.70602" lon="5.08449">
        <ele>219.6</ele>
        <time>2024-05-17T12:52:57Z</time>
      </trkpt>
      <trkpt lat="44.70603" lon="5.08445">
        <ele>219.6</ele>
        <time>2024-05-17T12:52:58Z</time>
      </trkpt>
      <trkpt lat="44.70604" lon="5.08437">
        <ele>219.6</ele>
        <time>2024-05-17T12:52:59Z</time>
      </trkpt>
      <trkpt lat="44.70607" lon="5.08425">
        <ele>219.6</ele>
        <time>2024-05-17T12:53:00Z</time>
      </trkpt>
      <trkpt lat="44.70608" lon="5.08421">
        <ele>219.6</ele>
        <time>2024-05-17T12:53:01Z</time>
      </trkpt>
      <trkpt lat="44.70611" lon="5.08409">
        <ele>219.6</ele>
        <time>2024-05-17T12:53:02Z</time>
      </trkpt>
      <trkpt lat="44.70611" lon="5.08404">
        <ele>219.6</ele>
        <time>2024-05-17T12:53:03Z</time>
      </trkpt>
      <trkpt lat="44.70613" lon="5.08392">
        <ele>219.6</ele>
        <time>2024-05-17T12:53:04Z</time>
      </trkpt>
      <trkpt lat="44.70614" lon="5.08388">
        <ele>219.6</ele>
        <time>2024-05-17T12:53:05Z</time>
      </trkpt>
      <trkpt lat="44.70616" lon="5.08375">
        <ele>219.6</ele>
        <time>2024-05-17T12:53:06Z</time>
      </trkpt>
      <trkpt lat="44.70617" lon="5.08371">
        <ele>219.6</ele>
        <time>2024-05-17T12:53:07Z</time>
      </trkpt>
      <trkpt lat="44.70618" lon="5.08363">
        <ele>219.6</ele>
        <time>2024-05-17T12:53:08Z</time>
      </trkpt>
      <trkpt lat="44.7062" lon="5.08351">
        <ele>219.6</ele>
        <time>2024-05-17T12:53:09Z</time>
      </trkpt>
      <trkpt lat="44.70621" lon="5.08347">
        <ele>219.7</ele>
        <time>2024-05-17T12:53:10Z</time>
      </trkpt>
      <trkpt lat="44.70623" lon="5.0834">
        <ele>219.7</ele>
        <time>2024-05-17T12:53:11Z</time>
      </trkpt>
      <trkpt lat="44.70625" lon="5.08328">
        <ele>219.8</ele>
        <time>2024-05-17T12:53:12Z</time>
      </trkpt>
      <trkpt lat="44.70626" lon="5.08324">
        <ele>219.8</ele>
        <time>2024-05-17T12:53:13Z</time>
      </trkpt>
      <trkpt lat="44.70628" lon="5.08313">
        <ele>219.8</ele>
        <time>2024-05-17T12:53:14Z</time>
      </trkpt>
      <trkpt lat="44.70629" lon="5.08309">
        <ele>219.8</ele>
        <time>2024-05-17T12:53:15Z</time>
      </trkpt>
      <trkpt lat="44.70631" lon="5.08298">
        <ele>219.9</ele>
        <time>2024-05-17T12:53:16Z</time>
      </trkpt>
      <trkpt lat="44.70632" lon="5.08294">
        <ele>219.9</ele>
        <time>2024-05-17T12:53:17Z</time>
      </trkpt>
      <trkpt lat="44.70635" lon="5.08282">
        <ele>220</ele>
        <time>2024-05-17T12:53:18Z</time>
      </trkpt>
      <trkpt lat="44.70636" lon="5.08278">
        <ele>220</ele>
        <time>2024-05-17T12:53:19Z</time>
      </trkpt>
      <trkpt lat="44.70638" lon="5.08271">
        <ele>220</ele>
        <time>2024-05-17T12:53:20Z</time>
      </trkpt>
      <trkpt lat="44.7064" lon="5.08263">
        <ele>220.1</ele>
        <time>2024-05-17T12:53:21Z</time>
      </trkpt>
      <trkpt lat="44.70642" lon="5.08255">
        <ele>220.1</ele>
        <time>2024-05-17T12:53:22Z</time>
      </trkpt>
      <trkpt lat="44.70645" lon="5.08248">
        <ele>220.1</ele>
        <time>2024-05-17T12:53:23Z</time>
      </trkpt>
      <trkpt lat="44.70647" lon="5.0824">
        <ele>220.1</ele>
        <time>2024-05-17T12:53:24Z</time>
      </trkpt>
      <trkpt lat="44.7065" lon="5.08233">
        <ele>220.1</ele>
        <time>2024-05-17T12:53:25Z</time>
      </trkpt>
      <trkpt lat="44.70654" lon="5.08222">
        <ele>220.1</ele>
        <time>2024-05-17T12:53:26Z</time>
      </trkpt>
      <trkpt lat="44.70655" lon="5.08218">
        <ele>220.2</ele>
        <time>2024-05-17T12:53:27Z</time>
      </trkpt>
      <trkpt lat="44.70659" lon="5.08207">
        <ele>220.2</ele>
        <time>2024-05-17T12:53:28Z</time>
      </trkpt>
      <trkpt lat="44.7066" lon="5.08204">
        <ele>220.2</ele>
        <time>2024-05-17T12:53:29Z</time>
      </trkpt>
      <trkpt lat="44.70665" lon="5.08194">
        <ele>220.2</ele>
        <time>2024-05-17T12:53:30Z</time>
      </trkpt>
      <trkpt lat="44.70666" lon="5.0819">
        <ele>220.3</ele>
        <time>2024-05-17T12:53:31Z</time>
      </trkpt>
      <trkpt lat="44.70671" lon="5.0818">
        <ele>220.3</ele>
        <time>2024-05-17T12:53:32Z</time>
      </trkpt>
      <trkpt lat="44.70672" lon="5.08176">
        <ele>220.3</ele>
        <time>2024-05-17T12:53:33Z</time>
      </trkpt>
      <trkpt lat="44.70677" lon="5.08166">
        <ele>220.3</ele>
        <time>2024-05-17T12:53:34Z</time>
      </trkpt>
      <trkpt lat="44.70678" lon="5.08163">
        <ele>220.3</ele>
        <time>2024-05-17T12:53:35Z</time>
      </trkpt>
      <trkpt lat="44.70683" lon="5.08153">
        <ele>220.3</ele>
        <time>2024-05-17T12:53:36Z</time>
      </trkpt>
      <trkpt lat="44.70684" lon="5.0815">
        <ele>220.3</ele>
        <time>2024-05-17T12:53:37Z</time>
      </trkpt>
      <trkpt lat="44.70687" lon="5.08143">
        <ele>220.2</ele>
        <time>2024-05-17T12:53:38Z</time>
      </trkpt>
      <trkpt lat="44.70691" lon="5.08134">
        <ele>220.2</ele>
        <time>2024-05-17T12:53:39Z</time>
      </trkpt>
      <trkpt lat="44.70692" lon="5.08131">
        <ele>220.2</ele>
        <time>2024-05-17T12:53:40Z</time>
      </trkpt>
      <trkpt lat="44.70697" lon="5.08122">
        <ele>220.1</ele>
        <time>2024-05-17T12:53:41Z</time>
      </trkpt>
      <trkpt lat="44.70698" lon="5.08118">
        <ele>220.1</ele>
        <time>2024-05-17T12:53:42Z</time>
      </trkpt>
      <trkpt lat="44.70703" lon="5.08109">
        <ele>220</ele>
        <time>2024-05-17T12:53:43Z</time>
      </trkpt>
      <trkpt lat="44.70705" lon="5.08106">
        <ele>220</ele>
        <time>2024-05-17T12:53:44Z</time>
      </trkpt>
      <trkpt lat="44.7071" lon="5.08097">
        <ele>219.9</ele>
        <time>2024-05-17T12:53:45Z</time>
      </trkpt>
      <trkpt lat="44.70712" lon="5.08093">
        <ele>219.8</ele>
        <time>2024-05-17T12:53:46Z</time>
      </trkpt>
      <trkpt lat="44.70717" lon="5.08084">
        <ele>219.7</ele>
        <time>2024-05-17T12:53:47Z</time>
      </trkpt>
      <trkpt lat="44.70718" lon="5.08081">
        <ele>219.7</ele>
        <time>2024-05-17T12:53:48Z</time>
      </trkpt>
      <trkpt lat="44.70723" lon="5.08072">
        <ele>219.6</ele>
        <time>2024-05-17T12:53:49Z</time>
      </trkpt>
      <trkpt lat="44.70724" lon="5.08069">
        <ele>219.5</ele>
        <time>2024-05-17T12:53:50Z</time>
      </trkpt>
      <trkpt lat="44.70727" lon="5.08062">
        <ele>219.5</ele>
        <time>2024-05-17T12:53:51Z</time>
      </trkpt>
      <trkpt lat="44.70732" lon="5.08053">
        <ele>219.4</ele>
        <time>2024-05-17T12:53:52Z</time>
      </trkpt>
      <trkpt lat="44.70734" lon="5.0805">
        <ele>219.4</ele>
        <time>2024-05-17T12:53:53Z</time>
      </trkpt>
      <trkpt lat="44.70739" lon="5.0804">
        <ele>219.3</ele>
        <time>2024-05-17T12:53:54Z</time>
      </trkpt>
      <trkpt lat="44.70741" lon="5.08037">
        <ele>219.2</ele>
        <time>2024-05-17T12:53:55Z</time>
      </trkpt>
      <trkpt lat="44.70746" lon="5.08027">
        <ele>219</ele>
        <time>2024-05-17T12:53:56Z</time>
      </trkpt>
      <trkpt lat="44.70747" lon="5.08024">
        <ele>219</ele>
        <time>2024-05-17T12:53:57Z</time>
      </trkpt>
      <trkpt lat="44.70753" lon="5.08013">
        <ele>218.7</ele>
        <time>2024-05-17T12:53:58Z</time>
      </trkpt>
      <trkpt lat="44.70754" lon="5.08009">
        <ele>218.7</ele>
        <time>2024-05-17T12:53:59Z</time>
      </trkpt>
      <trkpt lat="44.70758" lon="5.08002">
        <ele>218.5</ele>
        <time>2024-05-17T12:54:00Z</time>
      </trkpt>
      <trkpt lat="44.70763" lon="5.07991">
        <ele>218.3</ele>
        <time>2024-05-17T12:54:01Z</time>
      </trkpt>
      <trkpt lat="44.70765" lon="5.07987">
        <ele>218.2</ele>
        <time>2024-05-17T12:54:02Z</time>
      </trkpt>
      <trkpt lat="44.70769" lon="5.07979">
        <ele>218</ele>
        <time>2024-05-17T12:54:03Z</time>
      </trkpt>
      <trkpt lat="44.70773" lon="5.07971">
        <ele>217.8</ele>
        <time>2024-05-17T12:54:04Z</time>
      </trkpt>
      <trkpt lat="44.70776" lon="5.07963">
        <ele>217.6</ele>
        <time>2024-05-17T12:54:05Z</time>
      </trkpt>
      <trkpt lat="44.7078" lon="5.07955">
        <ele>217.5</ele>
        <time>2024-05-17T12:54:06Z</time>
      </trkpt>
      <trkpt lat="44.70784" lon="5.07947">
        <ele>217.3</ele>
        <time>2024-05-17T12:54:07Z</time>
      </trkpt>
      <trkpt lat="44.70787" lon="5.07939">
        <ele>217.1</ele>
        <time>2024-05-17T12:54:08Z</time>
      </trkpt>
      <trkpt lat="44.7079" lon="5.07931">
        <ele>216.9</ele>
        <time>2024-05-17T12:54:09Z</time>
      </trkpt>
      <trkpt lat="44.70793" lon="5.07923">
        <ele>216.7</ele>
        <time>2024-05-17T12:54:10Z</time>
      </trkpt>
      <trkpt lat="44.70798" lon="5.0791">
        <ele>216.4</ele>
        <time>2024-05-17T12:54:11Z</time>
      </trkpt>
      <trkpt lat="44.708" lon="5.07906">
        <ele>216.4</ele>
        <time>2024-05-17T12:54:12Z</time>
      </trkpt>
      <trkpt lat="44.70805" lon="5.07894">
        <ele>216.1</ele>
        <time>2024-05-17T12:54:13Z</time>
      </trkpt>
      <trkpt lat="44.70806" lon="5.0789">
        <ele>216</ele>
        <time>2024-05-17T12:54:14Z</time>
      </trkpt>
      <trkpt lat="44.70811" lon="5.07878">
        <ele>215.8</ele>
        <time>2024-05-17T12:54:15Z</time>
      </trkpt>
      <trkpt lat="44.70812" lon="5.07874">
        <ele>215.7</ele>
        <time>2024-05-17T12:54:16Z</time>
      </trkpt>
      <trkpt lat="44.70817" lon="5.07861">
        <ele>215.5</ele>
        <time>2024-05-17T12:54:17Z</time>
      </trkpt>
      <trkpt lat="44.70818" lon="5.07857">
        <ele>215.4</ele>
        <time>2024-05-17T12:54:18Z</time>
      </trkpt>
      <trkpt lat="44.70822" lon="5.07844">
        <ele>215.3</ele>
        <time>2024-05-17T12:54:19Z</time>
      </trkpt>
      <trkpt lat="44.70824" lon="5.0784">
        <ele>215.2</ele>
        <time>2024-05-17T12:54:20Z</time>
      </trkpt>
      <trkpt lat="44.70828" lon="5.07827">
        <ele>215</ele>
        <time>2024-05-17T12:54:21Z</time>
      </trkpt>
      <trkpt lat="44.70829" lon="5.07823">
        <ele>215</ele>
        <time>2024-05-17T12:54:22Z</time>
      </trkpt>
      <trkpt lat="44.70831" lon="5.07815">
        <ele>214.9</ele>
        <time>2024-05-17T12:54:23Z</time>
      </trkpt>
      <trkpt lat="44.70835" lon="5.07803">
        <ele>214.7</ele>
        <time>2024-05-17T12:54:24Z</time>
      </trkpt>
      <trkpt lat="44.70836" lon="5.07799">
        <ele>214.6</ele>
        <time>2024-05-17T12:54:25Z</time>
      </trkpt>
      <trkpt lat="44.7084" lon="5.07787">
        <ele>214.5</ele>
        <time>2024-05-17T12:54:26Z</time>
      </trkpt>
      <trkpt lat="44.70841" lon="5.07783">
        <ele>214.5</ele>
        <time>2024-05-17T12:54:27Z</time>
      </trkpt>
      <trkpt lat="44.70845" lon="5.07771">
        <ele>214.4</ele>
        <time>2024-05-17T12:54:28Z</time>
      </trkpt>
      <trkpt lat="44.70846" lon="5.07767">
        <ele>214.3</ele>
        <time>2024-05-17T12:54:29Z</time>
      </trkpt>
      <trkpt lat="44.7085" lon="5.07755">
        <ele>214.2</ele>
        <time>2024-05-17T12:54:30Z</time>
      </trkpt>
      <trkpt lat="44.70851" lon="5.07751">
        <ele>214.2</ele>
        <time>2024-05-17T12:54:31Z</time>
      </trkpt>
      <trkpt lat="44.70855" lon="5.07739">
        <ele>214.1</ele>
        <time>2024-05-17T12:54:32Z</time>
      </trkpt>
      <trkpt lat="44.70856" lon="5.07735">
        <ele>214.1</ele>
        <time>2024-05-17T12:54:33Z</time>
      </trkpt>
      <trkpt lat="44.70858" lon="5.07727">
        <ele>214</ele>
        <time>2024-05-17T12:54:34Z</time>
      </trkpt>
      <trkpt lat="44.70862" lon="5.07716">
        <ele>214</ele>
        <time>2024-05-17T12:54:35Z</time>
      </trkpt>
      <trkpt lat="44.70863" lon="5.07713">
        <ele>213.9</ele>
        <time>2024-05-17T12:54:36Z</time>
      </trkpt>
      <trkpt lat="44.70865" lon="5.07706">
        <ele>213.9</ele>
        <time>2024-05-17T12:54:37Z</time>
      </trkpt>
      <trkpt lat="44.70867" lon="5.07696">
        <ele>213.8</ele>
        <time>2024-05-17T12:54:38Z</time>
      </trkpt>
      <trkpt lat="44.70867" lon="5.07693">
        <ele>213.8</ele>
        <time>2024-05-17T12:54:39Z</time>
      </trkpt>
      <trkpt lat="44.70869" lon="5.07684">
        <ele>213.8</ele>
        <time>2024-05-17T12:54:40Z</time>
      </trkpt>
      <trkpt lat="44.7087" lon="5.07681">
        <ele>213.8</ele>
        <time>2024-05-17T12:54:41Z</time>
      </trkpt>
      <trkpt lat="44.70871" lon="5.07675">
        <ele>213.8</ele>
        <time>2024-05-17T12:54:42Z</time>
      </trkpt>
      <trkpt lat="44.70872" lon="5.07673">
        <ele>213.7</ele>
        <time>2024-05-17T12:54:43Z</time>
      </trkpt>
      <trkpt lat="44.70873" lon="5.07669">
        <ele>213.7</ele>
        <time>2024-05-17T12:54:44Z</time>
      </trkpt>
      <trkpt lat="44.70873" lon="5.07668">
        <ele>213.7</ele>
        <time>2024-05-17T12:54:45Z</time>
      </trkpt>
      <trkpt lat="44.70873" lon="5.07666">
        <ele>213.7</ele>
        <time>2024-05-17T12:54:46Z</time>
      </trkpt>
      <trkpt lat="44.70874" lon="5.07665">
        <ele>213.7</ele>
        <time>2024-05-17T12:54:47Z</time>
      </trkpt>
      <trkpt lat="44.70874" lon="5.07664">
        <ele>213.7</ele>
        <time>2024-05-17T12:54:48Z</time>
      </trkpt>
      <trkpt lat="44.70874" lon="5.07662">
        <ele>213.7</ele>
        <time>2024-05-17T12:54:49Z</time>
      </trkpt>
      <trkpt lat="44.70875" lon="5.07661">
        <ele>213.7</ele>
        <time>2024-05-17T12:55:50Z</time>
      </trkpt>
      <trkpt lat="44.70875" lon="5.0766">
        <ele>213.7</ele>
        <time>2024-05-17T12:55:51Z</time>
      </trkpt>
      <trkpt lat="44.70875" lon="5.07658">
        <ele>213.7</ele>
        <time>2024-05-17T12:55:52Z</time>
      </trkpt>
      <trkpt lat="44.70876" lon="5.07653">
        <ele>213.7</ele>
        <time>2024-05-17T12:55:53Z</time>
      </trkpt>
      <trkpt lat="44.70877" lon="5.07651">
        <ele>213.6</ele>
        <time>2024-05-17T12:55:54Z</time>
      </trkpt>
      <trkpt lat="44.70878" lon="5.07647">
        <ele>213.6</ele>
        <time>2024-05-17T12:55:55Z</time>
      </trkpt>
      <trkpt lat="44.70879" lon="5.07642">
        <ele>213.6</ele>
        <time>2024-05-17T12:55:56Z</time>
      </trkpt>
      <trkpt lat="44.7088" lon="5.07635">
        <ele>213.6</ele>
        <time>2024-05-17T12:55:57Z</time>
      </trkpt>
      <trkpt lat="44.70881" lon="5.07632">
        <ele>213.6</ele>
        <time>2024-05-17T12:55:58Z</time>
      </trkpt>
      <trkpt lat="44.70882" lon="5.07622">
        <ele>213.5</ele>
        <time>2024-05-17T12:55:59Z</time>
      </trkpt>
      <trkpt lat="44.70883" lon="5.07619">
        <ele>213.5</ele>
        <time>2024-05-17T12:56:00Z</time>
      </trkpt>
      <trkpt lat="44.70885" lon="5.07609">
        <ele>213.5</ele>
        <time>2024-05-17T12:56:01Z</time>
      </trkpt>
      <trkpt lat="44.70886" lon="5.07606">
        <ele>213.5</ele>
        <time>2024-05-17T12:56:02Z</time>
      </trkpt>
      <trkpt lat="44.70887" lon="5.07598">
        <ele>213.5</ele>
        <time>2024-05-17T12:56:03Z</time>
      </trkpt>
      <trkpt lat="44.70889" lon="5.07587">
        <ele>213.5</ele>
        <time>2024-05-17T12:56:04Z</time>
      </trkpt>
      <trkpt lat="44.70889" lon="5.07584">
        <ele>213.5</ele>
        <time>2024-05-17T12:56:05Z</time>
      </trkpt>
      <trkpt lat="44.70891" lon="5.07572">
        <ele>213.5</ele>
        <time>2024-05-17T12:56:06Z</time>
      </trkpt>
      <trkpt lat="44.70891" lon="5.07569">
        <ele>213.5</ele>
        <time>2024-05-17T12:56:07Z</time>
      </trkpt>
      <trkpt lat="44.70892" lon="5.07558">
        <ele>213.5</ele>
        <time>2024-05-17T12:56:08Z</time>
      </trkpt>
      <trkpt lat="44.70893" lon="5.07555">
        <ele>213.5</ele>
        <time>2024-05-17T12:56:09Z</time>
      </trkpt>
      <trkpt lat="44.70893" lon="5.07548">
        <ele>213.5</ele>
        <time>2024-05-17T12:56:10Z</time>
      </trkpt>
      <trkpt lat="44.70894" lon="5.07536">
        <ele>213.5</ele>
        <time>2024-05-17T12:56:11Z</time>
      </trkpt>
      <trkpt lat="44.70895" lon="5.07532">
        <ele>213.5</ele>
        <time>2024-05-17T12:56:12Z</time>
      </trkpt>
      <trkpt lat="44.70895" lon="5.07521">
        <ele>213.4</ele>
        <time>2024-05-17T12:56:13Z</time>
      </trkpt>
      <trkpt lat="44.70896" lon="5.07517">
        <ele>213.4</ele>
        <time>2024-05-17T12:56:14Z</time>
      </trkpt>
      <trkpt lat="44.70896" lon="5.0751">
        <ele>213.4</ele>
        <time>2024-05-17T12:56:15Z</time>
      </trkpt>
      <trkpt lat="44.70897" lon="5.07498">
        <ele>213.4</ele>
        <time>2024-05-17T12:56:16Z</time>
      </trkpt>
      <trkpt lat="44.70897" lon="5.07494">
        <ele>213.3</ele>
        <time>2024-05-17T12:56:17Z</time>
      </trkpt>
      <trkpt lat="44.70897" lon="5.07482">
        <ele>213.3</ele>
        <time>2024-05-17T12:56:18Z</time>
      </trkpt>
      <trkpt lat="44.70897" lon="5.07478">
        <ele>213.3</ele>
        <time>2024-05-17T12:56:19Z</time>
      </trkpt>
      <trkpt lat="44.70898" lon="5.07466">
        <ele>213.3</ele>
        <time>2024-05-17T12:56:20Z</time>
      </trkpt>
      <trkpt lat="44.70898" lon="5.07463">
        <ele>213.2</ele>
        <time>2024-05-17T12:56:21Z</time>
      </trkpt>
      <trkpt lat="44.70898" lon="5.07451">
        <ele>213.2</ele>
        <time>2024-05-17T12:56:22Z</time>
      </trkpt>
      <trkpt lat="44.70898" lon="5.07447">
        <ele>213.2</ele>
        <time>2024-05-17T12:56:23Z</time>
      </trkpt>
      <trkpt lat="44.70898" lon="5.07436">
        <ele>213.2</ele>
        <time>2024-05-17T12:56:24Z</time>
      </trkpt>
      <trkpt lat="44.70898" lon="5.07433">
        <ele>213.1</ele>
        <time>2024-05-17T12:56:25Z</time>
      </trkpt>
      <trkpt lat="44.70899" lon="5.07426">
        <ele>213.1</ele>
        <time>2024-05-17T12:56:26Z</time>
      </trkpt>
      <trkpt lat="44.70899" lon="5.07419">
        <ele>213.1</ele>
        <time>2024-05-17T12:56:27Z</time>
      </trkpt>
      <trkpt lat="44.70899" lon="5.07412">
        <ele>213.1</ele>
        <time>2024-05-17T12:56:28Z</time>
      </trkpt>
      <trkpt lat="44.70899" lon="5.07406">
        <ele>213.1</ele>
        <time>2024-05-17T12:56:29Z</time>
      </trkpt>
      <trkpt lat="44.709" lon="5.07399">
        <ele>213.1</ele>
        <time>2024-05-17T12:56:30Z</time>
      </trkpt>
      <trkpt lat="44.709" lon="5.07392">
        <ele>213.1</ele>
        <time>2024-05-17T12:56:31Z</time>
      </trkpt>
      <trkpt lat="44.709" lon="5.07385">
        <ele>213.1</ele>
        <time>2024-05-17T12:56:32Z</time>
      </trkpt>
      <trkpt lat="44.709" lon="5.07379">
        <ele>213.1</ele>
        <time>2024-05-17T12:56:33Z</time>
      </trkpt>
      <trkpt lat="44.709" lon="5.07368">
        <ele>213.1</ele>
        <time>2024-05-17T12:56:34Z</time>
      </trkpt>
      <trkpt lat="44.709" lon="5.07365">
        <ele>213.1</ele>
        <time>2024-05-17T12:56:35Z</time>
      </trkpt>
      <trkpt lat="44.70901" lon="5.07354">
        <ele>213.1</ele>
        <time>2024-05-17T12:56:36Z</time>
      </trkpt>
      <trkpt lat="44.70901" lon="5.07351">
        <ele>213.1</ele>
        <time>2024-05-17T12:56:37Z</time>
      </trkpt>
      <trkpt lat="44.70901" lon="5.0734">
        <ele>213</ele>
        <time>2024-05-17T12:56:38Z</time>
      </trkpt>
      <trkpt lat="44.70901" lon="5.07336">
        <ele>213</ele>
        <time>2024-05-17T12:56:39Z</time>
      </trkpt>
      <trkpt lat="44.70901" lon="5.07326">
        <ele>213</ele>
        <time>2024-05-17T12:56:40Z</time>
      </trkpt>
      <trkpt lat="44.70901" lon="5.07322">
        <ele>213</ele>
        <time>2024-05-17T12:56:41Z</time>
      </trkpt>
      <trkpt lat="44.70901" lon="5.07311">
        <ele>212.9</ele>
        <time>2024-05-17T12:56:42Z</time>
      </trkpt>
      <trkpt lat="44.70901" lon="5.07308">
        <ele>212.9</ele>
        <time>2024-05-17T12:56:43Z</time>
      </trkpt>
      <trkpt lat="44.70901" lon="5.07297">
        <ele>212.9</ele>
        <time>2024-05-17T12:56:44Z</time>
      </trkpt>
      <trkpt lat="44.70901" lon="5.07294">
        <ele>212.9</ele>
        <time>2024-05-17T12:56:45Z</time>
      </trkpt>
      <trkpt lat="44.70902" lon="5.07286">
        <ele>212.9</ele>
        <time>2024-05-17T12:56:46Z</time>
      </trkpt>
      <trkpt lat="44.70901" lon="5.07275">
        <ele>213</ele>
        <time>2024-05-17T12:56:47Z</time>
      </trkpt>
      <trkpt lat="44.70901" lon="5.07272">
        <ele>213</ele>
        <time>2024-05-17T12:56:48Z</time>
      </trkpt>
      <trkpt lat="44.70901" lon="5.0726">
        <ele>213</ele>
        <time>2024-05-17T12:56:49Z</time>
      </trkpt>
      <trkpt lat="44.70901" lon="5.07256">
        <ele>213</ele>
        <time>2024-05-17T12:56:50Z</time>
      </trkpt>
      <trkpt lat="44.70902" lon="5.07245">
        <ele>213.1</ele>
        <time>2024-05-17T12:56:51Z</time>
      </trkpt>
      <trkpt lat="44.70902" lon="5.07241">
        <ele>213.1</ele>
        <time>2024-05-17T12:56:52Z</time>
      </trkpt>
      <trkpt lat="44.70902" lon="5.07229">
        <ele>213.1</ele>
        <time>2024-05-17T12:56:53Z</time>
      </trkpt>
      <trkpt lat="44.70902" lon="5.07226">
        <ele>213.1</ele>
        <time>2024-05-17T12:56:54Z</time>
      </trkpt>
      <trkpt lat="44.70902" lon="5.07214">
        <ele>213.2</ele>
        <time>2024-05-17T12:56:55Z</time>
      </trkpt>
      <trkpt lat="44.70902" lon="5.0721">
        <ele>213.2</ele>
        <time>2024-05-17T12:56:56Z</time>
      </trkpt>
      <trkpt lat="44.70902" lon="5.07203">
        <ele>213.2</ele>
        <time>2024-05-17T12:56:57Z</time>
      </trkpt>
      <trkpt lat="44.70902" lon="5.07191">
        <ele>213.2</ele>
        <time>2024-05-17T12:56:58Z</time>
      </trkpt>
      <trkpt lat="44.70902" lon="5.07188">
        <ele>213.2</ele>
        <time>2024-05-17T12:56:59Z</time>
      </trkpt>
      <trkpt lat="44.70903" lon="5.0718">
        <ele>213.3</ele>
        <time>2024-05-17T12:57:00Z</time>
      </trkpt>
      <trkpt lat="44.70903" lon="5.07169">
        <ele>213.3</ele>
        <time>2024-05-17T12:57:01Z</time>
      </trkpt>
      <trkpt lat="44.70903" lon="5.07165">
        <ele>213.3</ele>
        <time>2024-05-17T12:57:02Z</time>
      </trkpt>
      <trkpt lat="44.70903" lon="5.07157">
        <ele>213.3</ele>
        <time>2024-05-17T12:57:03Z</time>
      </trkpt>
      <trkpt lat="44.70903" lon="5.07146">
        <ele>213.4</ele>
        <time>2024-05-17T12:57:04Z</time>
      </trkpt>
      <trkpt lat="44.70903" lon="5.07143">
        <ele>213.4</ele>
        <time>2024-05-17T12:57:05Z</time>
      </trkpt>
      <trkpt lat="44.70904" lon="5.07132">
        <ele>213.4</ele>
        <time>2024-05-17T12:57:06Z</time>
      </trkpt>
      <trkpt lat="44.70904" lon="5.07128">
        <ele>213.4</ele>
        <time>2024-05-17T12:57:07Z</time>
      </trkpt>
      <trkpt lat="44.70904" lon="5.07121">
        <ele>213.5</ele>
        <time>2024-05-17T12:57:08Z</time>
      </trkpt>
      <trkpt lat="44.70904" lon="5.07114">
        <ele>213.5</ele>
        <time>2024-05-17T12:57:09Z</time>
      </trkpt>
      <trkpt lat="44.70904" lon="5.07108">
        <ele>213.6</ele>
        <time>2024-05-17T12:57:10Z</time>
      </trkpt>
      <trkpt lat="44.70904" lon="5.07101">
        <ele>213.6</ele>
        <time>2024-05-17T12:57:11Z</time>
      </trkpt>
      <trkpt lat="44.70905" lon="5.07094">
        <ele>213.6</ele>
        <time>2024-05-17T12:57:12Z</time>
      </trkpt>
      <trkpt lat="44.70905" lon="5.07088">
        <ele>213.7</ele>
        <time>2024-05-17T12:57:13Z</time>
      </trkpt>
      <trkpt lat="44.70905" lon="5.07081">
        <ele>213.7</ele>
        <time>2024-05-17T12:57:14Z</time>
      </trkpt>
      <trkpt lat="44.70905" lon="5.07075">
        <ele>213.7</ele>
        <time>2024-05-17T12:57:15Z</time>
      </trkpt>
      <trkpt lat="44.70905" lon="5.07065">
        <ele>213.8</ele>
        <time>2024-05-17T12:57:16Z</time>
      </trkpt>
      <trkpt lat="44.70905" lon="5.07062">
        <ele>213.8</ele>
        <time>2024-05-17T12:57:17Z</time>
      </trkpt>
      <trkpt lat="44.70905" lon="5.07053">
        <ele>213.8</ele>
        <time>2024-05-17T12:57:18Z</time>
      </trkpt>
      <trkpt lat="44.70906" lon="5.0705">
        <ele>213.8</ele>
        <time>2024-05-17T12:57:19Z</time>
      </trkpt>
      <trkpt lat="44.70906" lon="5.0704">
        <ele>213.9</ele>
        <time>2024-05-17T12:57:20Z</time>
      </trkpt>
      <trkpt lat="44.70906" lon="5.07037">
        <ele>213.9</ele>
        <time>2024-05-17T12:57:21Z</time>
      </trkpt>
      <trkpt lat="44.70906" lon="5.07028">
        <ele>213.9</ele>
        <time>2024-05-17T12:57:22Z</time>
      </trkpt>
      <trkpt lat="44.70906" lon="5.07025">
        <ele>214</ele>
        <time>2024-05-17T12:57:23Z</time>
      </trkpt>
      <trkpt lat="44.70907" lon="5.07016">
        <ele>214</ele>
        <time>2024-05-17T12:57:24Z</time>
      </trkpt>
      <trkpt lat="44.70907" lon="5.07013">
        <ele>214</ele>
        <time>2024-05-17T12:57:25Z</time>
      </trkpt>
      <trkpt lat="44.70907" lon="5.07003">
        <ele>214</ele>
        <time>2024-05-17T12:57:26Z</time>
      </trkpt>
      <trkpt lat="44.70907" lon="5.07">
        <ele>214</ele>
        <time>2024-05-17T12:57:27Z</time>
      </trkpt>
      <trkpt lat="44.70907" lon="5.06994">
        <ele>214</ele>
        <time>2024-05-17T12:57:28Z</time>
      </trkpt>
      <trkpt lat="44.70909" lon="5.06984">
        <ele>214</ele>
        <time>2024-05-17T12:57:29Z</time>
      </trkpt>
      <trkpt lat="44.70909" lon="5.0698">
        <ele>214</ele>
        <time>2024-05-17T12:57:30Z</time>
      </trkpt>
      <trkpt lat="44.70909" lon="5.0697">
        <ele>214</ele>
        <time>2024-05-17T12:57:31Z</time>
      </trkpt>
      <trkpt lat="44.70909" lon="5.06967">
        <ele>214</ele>
        <time>2024-05-17T12:57:32Z</time>
      </trkpt>
      <trkpt lat="44.7091" lon="5.0696">
        <ele>214</ele>
        <time>2024-05-17T12:57:33Z</time>
      </trkpt>
      <trkpt lat="44.7091" lon="5.0695">
        <ele>213.9</ele>
        <time>2024-05-17T12:57:34Z</time>
      </trkpt>
      <trkpt lat="44.7091" lon="5.06947">
        <ele>213.9</ele>
        <time>2024-05-17T12:57:35Z</time>
      </trkpt>
      <trkpt lat="44.70911" lon="5.06937">
        <ele>213.8</ele>
        <time>2024-05-17T12:57:36Z</time>
      </trkpt>
      <trkpt lat="44.70911" lon="5.06933">
        <ele>213.8</ele>
        <time>2024-05-17T12:57:37Z</time>
      </trkpt>
      <trkpt lat="44.70912" lon="5.06927">
        <ele>213.7</ele>
        <time>2024-05-17T12:57:38Z</time>
      </trkpt>
      <trkpt lat="44.70913" lon="5.0692">
        <ele>213.7</ele>
        <time>2024-05-17T12:57:39Z</time>
      </trkpt>
      <trkpt lat="44.70914" lon="5.06909">
        <ele>213.5</ele>
        <time>2024-05-17T12:57:40Z</time>
      </trkpt>
      <trkpt lat="44.70914" lon="5.06905">
        <ele>213.5</ele>
        <time>2024-05-17T12:57:41Z</time>
      </trkpt>
      <trkpt lat="44.70915" lon="5.06898">
        <ele>213.4</ele>
        <time>2024-05-17T12:57:42Z</time>
      </trkpt>
      <trkpt lat="44.70916" lon="5.06888">
        <ele>213.3</ele>
        <time>2024-05-17T12:57:43Z</time>
      </trkpt>
      <trkpt lat="44.70916" lon="5.06884">
        <ele>213.3</ele>
        <time>2024-05-17T12:57:44Z</time>
      </trkpt>
      <trkpt lat="44.70917" lon="5.06873">
        <ele>213.1</ele>
        <time>2024-05-17T12:57:45Z</time>
      </trkpt>
      <trkpt lat="44.70918" lon="5.0687">
        <ele>213.1</ele>
        <time>2024-05-17T12:57:46Z</time>
      </trkpt>
      <trkpt lat="44.70919" lon="5.06859">
        <ele>213</ele>
        <time>2024-05-17T12:57:47Z</time>
      </trkpt>
      <trkpt lat="44.70919" lon="5.06855">
        <ele>212.9</ele>
        <time>2024-05-17T12:57:48Z</time>
      </trkpt>
      <trkpt lat="44.7092" lon="5.06844">
        <ele>212.7</ele>
        <time>2024-05-17T12:57:49Z</time>
      </trkpt>
      <trkpt lat="44.70921" lon="5.06841">
        <ele>212.7</ele>
        <time>2024-05-17T12:57:50Z</time>
      </trkpt>
      <trkpt lat="44.70922" lon="5.06833">
        <ele>212.6</ele>
        <time>2024-05-17T12:57:51Z</time>
      </trkpt>
      <trkpt lat="44.70924" lon="5.06822">
        <ele>212.4</ele>
        <time>2024-05-17T12:57:52Z</time>
      </trkpt>
      <trkpt lat="44.70924" lon="5.06818">
        <ele>212.3</ele>
        <time>2024-05-17T12:57:53Z</time>
      </trkpt>
      <trkpt lat="44.70927" lon="5.06806">
        <ele>212.2</ele>
        <time>2024-05-17T12:57:54Z</time>
      </trkpt>
      <trkpt lat="44.70927" lon="5.06802">
        <ele>212.1</ele>
        <time>2024-05-17T12:57:55Z</time>
      </trkpt>
      <trkpt lat="44.70929" lon="5.06795">
        <ele>212</ele>
        <time>2024-05-17T12:57:56Z</time>
      </trkpt>
      <trkpt lat="44.7093" lon="5.06787">
        <ele>211.9</ele>
        <time>2024-05-17T12:57:57Z</time>
      </trkpt>
      <trkpt lat="44.70932" lon="5.06776">
        <ele>211.7</ele>
        <time>2024-05-17T12:57:58Z</time>
      </trkpt>
      <trkpt lat="44.70933" lon="5.06772">
        <ele>211.7</ele>
        <time>2024-05-17T12:57:59Z</time>
      </trkpt>
      <trkpt lat="44.70935" lon="5.06761">
        <ele>211.6</ele>
        <time>2024-05-17T12:58:00Z</time>
      </trkpt>
      <trkpt lat="44.70936" lon="5.06757">
        <ele>211.5</ele>
        <time>2024-05-17T12:58:01Z</time>
      </trkpt>
      <trkpt lat="44.70938" lon="5.06746">
        <ele>211.4</ele>
        <time>2024-05-17T12:58:02Z</time>
      </trkpt>
      <trkpt lat="44.70938" lon="5.06742">
        <ele>211.3</ele>
        <time>2024-05-17T12:58:03Z</time>
      </trkpt>
      <trkpt lat="44.70941" lon="5.06731">
        <ele>211.2</ele>
        <time>2024-05-17T12:58:04Z</time>
      </trkpt>
      <trkpt lat="44.70941" lon="5.06727">
        <ele>211.1</ele>
        <time>2024-05-17T12:58:05Z</time>
      </trkpt>
      <trkpt lat="44.70944" lon="5.06716">
        <ele>211</ele>
        <time>2024-05-17T12:58:06Z</time>
      </trkpt>
      <trkpt lat="44.70944" lon="5.06712">
        <ele>210.9</ele>
        <time>2024-05-17T12:58:07Z</time>
      </trkpt>
      <trkpt lat="44.70947" lon="5.06701">
        <ele>210.8</ele>
        <time>2024-05-17T12:58:08Z</time>
      </trkpt>
      <trkpt lat="44.70947" lon="5.06697">
        <ele>210.8</ele>
        <time>2024-05-17T12:58:09Z</time>
      </trkpt>
      <trkpt lat="44.70949" lon="5.0669">
        <ele>210.7</ele>
        <time>2024-05-17T12:58:10Z</time>
      </trkpt>
      <trkpt lat="44.70951" lon="5.06679">
        <ele>210.6</ele>
        <time>2024-05-17T12:58:11Z</time>
      </trkpt>
      <trkpt lat="44.70952" lon="5.06675">
        <ele>210.6</ele>
        <time>2024-05-17T12:58:12Z</time>
      </trkpt>
      <trkpt lat="44.70954" lon="5.06663">
        <ele>210.5</ele>
        <time>2024-05-17T12:58:13Z</time>
      </trkpt>
      <trkpt lat="44.70954" lon="5.06659">
        <ele>210.5</ele>
        <time>2024-05-17T12:58:14Z</time>
      </trkpt>
      <trkpt lat="44.70956" lon="5.06648">
        <ele>210.4</ele>
        <time>2024-05-17T12:58:15Z</time>
      </trkpt>
      <trkpt lat="44.70957" lon="5.06644">
        <ele>210.3</ele>
        <time>2024-05-17T12:58:16Z</time>
      </trkpt>
      <trkpt lat="44.70959" lon="5.06632">
        <ele>210.2</ele>
        <time>2024-05-17T12:58:17Z</time>
      </trkpt>
      <trkpt lat="44.70959" lon="5.06628">
        <ele>210.2</ele>
        <time>2024-05-17T12:58:18Z</time>
      </trkpt>
      <trkpt lat="44.70961" lon="5.06615">
        <ele>210.1</ele>
        <time>2024-05-17T12:58:19Z</time>
      </trkpt>
      <trkpt lat="44.70962" lon="5.06611">
        <ele>210.1</ele>
        <time>2024-05-17T12:58:20Z</time>
      </trkpt>
      <trkpt lat="44.70963" lon="5.06599">
        <ele>210</ele>
        <time>2024-05-17T12:58:21Z</time>
      </trkpt>
      <trkpt lat="44.70963" lon="5.06594">
        <ele>210</ele>
        <time>2024-05-17T12:58:22Z</time>
      </trkpt>
      <trkpt lat="44.70964" lon="5.06586">
        <ele>209.9</ele>
        <time>2024-05-17T12:58:23Z</time>
      </trkpt>
      <trkpt lat="44.70965" lon="5.06573">
        <ele>209.9</ele>
        <time>2024-05-17T12:58:24Z</time>
      </trkpt>
      <trkpt lat="44.70965" lon="5.06569">
        <ele>209.9</ele>
        <time>2024-05-17T12:58:25Z</time>
      </trkpt>
      <trkpt lat="44.70966" lon="5.06561">
        <ele>209.8</ele>
        <time>2024-05-17T12:58:26Z</time>
      </trkpt>
      <trkpt lat="44.70967" lon="5.06549">
        <ele>209.8</ele>
        <time>2024-05-17T12:58:27Z</time>
      </trkpt>
      <trkpt lat="44.70967" lon="5.06545">
        <ele>209.7</ele>
        <time>2024-05-17T12:58:28Z</time>
      </trkpt>
      <trkpt lat="44.70968" lon="5.06533">
        <ele>209.7</ele>
        <time>2024-05-17T12:58:29Z</time>
      </trkpt>
      <trkpt lat="44.70968" lon="5.06529">
        <ele>209.7</ele>
        <time>2024-05-17T12:58:30Z</time>
      </trkpt>
      <trkpt lat="44.70968" lon="5.06519">
        <ele>209.6</ele>
        <time>2024-05-17T12:58:31Z</time>
      </trkpt>
      <trkpt lat="44.70968" lon="5.06515">
        <ele>209.6</ele>
        <time>2024-05-17T12:58:32Z</time>
      </trkpt>
      <trkpt lat="44.70968" lon="5.06504">
        <ele>209.6</ele>
        <time>2024-05-17T12:58:33Z</time>
      </trkpt>
      <trkpt lat="44.70968" lon="5.065">
        <ele>209.5</ele>
        <time>2024-05-17T12:58:34Z</time>
      </trkpt>
      <trkpt lat="44.70968" lon="5.06493">
        <ele>209.5</ele>
        <time>2024-05-17T12:58:35Z</time>
      </trkpt>
      <trkpt lat="44.70968" lon="5.06485">
        <ele>209.5</ele>
        <time>2024-05-17T12:58:36Z</time>
      </trkpt>
      <trkpt lat="44.70968" lon="5.06478">
        <ele>209.5</ele>
        <time>2024-05-17T12:58:37Z</time>
      </trkpt>
      <trkpt lat="44.70968" lon="5.0647">
        <ele>209.4</ele>
        <time>2024-05-17T12:58:38Z</time>
      </trkpt>
      <trkpt lat="44.70968" lon="5.06462">
        <ele>209.4</ele>
        <time>2024-05-17T12:58:39Z</time>
      </trkpt>
      <trkpt lat="44.70967" lon="5.06454">
        <ele>209.4</ele>
        <time>2024-05-17T12:58:40Z</time>
      </trkpt>
      <trkpt lat="44.70967" lon="5.06446">
        <ele>209.3</ele>
        <time>2024-05-17T12:58:41Z</time>
      </trkpt>
      <trkpt lat="44.70966" lon="5.06438">
        <ele>209.2</ele>
        <time>2024-05-17T12:58:42Z</time>
      </trkpt>
      <trkpt lat="44.70965" lon="5.06425">
        <ele>209.2</ele>
        <time>2024-05-17T12:58:43Z</time>
      </trkpt>
      <trkpt lat="44.70965" lon="5.06421">
        <ele>209.1</ele>
        <time>2024-05-17T12:58:44Z</time>
      </trkpt>
      <trkpt lat="44.70964" lon="5.06409">
        <ele>209</ele>
        <time>2024-05-17T12:58:45Z</time>
      </trkpt>
      <trkpt lat="44.70964" lon="5.06404">
        <ele>209</ele>
        <time>2024-05-17T12:58:46Z</time>
      </trkpt>
      <trkpt lat="44.70963" lon="5.06392">
        <ele>208.9</ele>
        <time>2024-05-17T12:58:47Z</time>
      </trkpt>
      <trkpt lat="44.70963" lon="5.06388">
        <ele>208.9</ele>
        <time>2024-05-17T12:58:48Z</time>
      </trkpt>
      <trkpt lat="44.70962" lon="5.06375">
        <ele>208.8</ele>
        <time>2024-05-17T12:58:49Z</time>
      </trkpt>
      <trkpt lat="44.70962" lon="5.0637">
        <ele>208.7</ele>
        <time>2024-05-17T12:58:50Z</time>
      </trkpt>
      <trkpt lat="44.70961" lon="5.06362">
        <ele>208.7</ele>
        <time>2024-05-17T12:58:51Z</time>
      </trkpt>
      <trkpt lat="44.70961" lon="5.06353">
        <ele>208.6</ele>
        <time>2024-05-17T12:58:52Z</time>
      </trkpt>
      <trkpt lat="44.7096" lon="5.06339">
        <ele>208.5</ele>
        <time>2024-05-17T12:58:53Z</time>
      </trkpt>
      <trkpt lat="44.7096" lon="5.06335">
        <ele>208.5</ele>
        <time>2024-05-17T12:58:54Z</time>
      </trkpt>
      <trkpt lat="44.70959" lon="5.06321">
        <ele>208.4</ele>
        <time>2024-05-17T12:58:55Z</time>
      </trkpt>
      <trkpt lat="44.70959" lon="5.06317">
        <ele>208.3</ele>
        <time>2024-05-17T12:58:56Z</time>
      </trkpt>
      <trkpt lat="44.70958" lon="5.06304">
        <ele>208.2</ele>
        <time>2024-05-17T12:58:57Z</time>
      </trkpt>
      <trkpt lat="44.70958" lon="5.063">
        <ele>208.2</ele>
        <time>2024-05-17T12:58:58Z</time>
      </trkpt>
      <trkpt lat="44.70957" lon="5.06291">
        <ele>208.1</ele>
        <time>2024-05-17T12:58:59Z</time>
      </trkpt>
      <trkpt lat="44.70957" lon="5.06278">
        <ele>208.1</ele>
        <time>2024-05-17T12:59:00Z</time>
      </trkpt>
      <trkpt lat="44.70956" lon="5.06274">
        <ele>208</ele>
        <time>2024-05-17T12:59:01Z</time>
      </trkpt>
      <trkpt lat="44.70956" lon="5.06261">
        <ele>208</ele>
        <time>2024-05-17T12:59:02Z</time>
      </trkpt>
      <trkpt lat="44.70955" lon="5.06257">
        <ele>208</ele>
        <time>2024-05-17T12:59:03Z</time>
      </trkpt>
      <trkpt lat="44.70955" lon="5.06244">
        <ele>208</ele>
        <time>2024-05-17T12:59:04Z</time>
      </trkpt>
      <trkpt lat="44.70954" lon="5.0624">
        <ele>208</ele>
        <time>2024-05-17T12:59:05Z</time>
      </trkpt>
      <trkpt lat="44.70954" lon="5.06232">
        <ele>208</ele>
        <time>2024-05-17T12:59:06Z</time>
      </trkpt>
      <trkpt lat="44.70953" lon="5.06219">
        <ele>208</ele>
        <time>2024-05-17T12:59:07Z</time>
      </trkpt>
      <trkpt lat="44.70953" lon="5.06215">
        <ele>208</ele>
        <time>2024-05-17T12:59:08Z</time>
      </trkpt>
      <trkpt lat="44.70952" lon="5.06206">
        <ele>208</ele>
        <time>2024-05-17T12:59:09Z</time>
      </trkpt>
      <trkpt lat="44.70952" lon="5.06194">
        <ele>208</ele>
        <time>2024-05-17T12:59:10Z</time>
      </trkpt>
      <trkpt lat="44.70951" lon="5.0619">
        <ele>208</ele>
        <time>2024-05-17T12:59:11Z</time>
      </trkpt>
      <trkpt lat="44.70951" lon="5.06178">
        <ele>208.1</ele>
        <time>2024-05-17T12:59:12Z</time>
      </trkpt>
      <trkpt lat="44.70951" lon="5.06174">
        <ele>208.1</ele>
        <time>2024-05-17T12:59:13Z</time>
      </trkpt>
      <trkpt lat="44.7095" lon="5.06162">
        <ele>208.1</ele>
        <time>2024-05-17T12:59:14Z</time>
      </trkpt>
      <trkpt lat="44.7095" lon="5.06158">
        <ele>208.1</ele>
        <time>2024-05-17T12:59:15Z</time>
      </trkpt>
      <trkpt lat="44.7095" lon="5.06146">
        <ele>208.2</ele>
        <time>2024-05-17T12:59:16Z</time>
      </trkpt>
      <trkpt lat="44.7095" lon="5.06142">
        <ele>208.2</ele>
        <time>2024-05-17T12:59:17Z</time>
      </trkpt>
      <trkpt lat="44.7095" lon="5.06134">
        <ele>208.2</ele>
        <time>2024-05-17T12:59:18Z</time>
      </trkpt>
      <trkpt lat="44.70949" lon="5.06127">
        <ele>208.3</ele>
        <time>2024-05-17T12:59:19Z</time>
      </trkpt>
      <trkpt lat="44.70949" lon="5.06119">
        <ele>208.3</ele>
        <time>2024-05-17T12:59:20Z</time>
      </trkpt>
      <trkpt lat="44.7095" lon="5.06111">
        <ele>208.3</ele>
        <time>2024-05-17T12:59:21Z</time>
      </trkpt>
      <trkpt lat="44.7095" lon="5.06103">
        <ele>208.4</ele>
        <time>2024-05-17T12:59:22Z</time>
      </trkpt>
      <trkpt lat="44.7095" lon="5.06096">
        <ele>208.4</ele>
        <time>2024-05-17T12:59:23Z</time>
      </trkpt>
      <trkpt lat="44.7095" lon="5.06088">
        <ele>208.4</ele>
        <time>2024-05-17T12:59:24Z</time>
      </trkpt>
      <trkpt lat="44.7095" lon="5.06081">
        <ele>208.5</ele>
        <time>2024-05-17T12:59:25Z</time>
      </trkpt>
      <trkpt lat="44.7095" lon="5.0607">
        <ele>208.5</ele>
        <time>2024-05-17T12:59:26Z</time>
      </trkpt>
      <trkpt lat="44.7095" lon="5.06066">
        <ele>208.5</ele>
        <time>2024-05-17T12:59:27Z</time>
      </trkpt>
      <trkpt lat="44.70951" lon="5.06055">
        <ele>208.6</ele>
        <time>2024-05-17T12:59:28Z</time>
      </trkpt>
      <trkpt lat="44.70951" lon="5.06052">
        <ele>208.6</ele>
        <time>2024-05-17T12:59:29Z</time>
      </trkpt>
      <trkpt lat="44.70952" lon="5.06045">
        <ele>208.6</ele>
        <time>2024-05-17T12:59:30Z</time>
      </trkpt>
      <trkpt lat="44.70953" lon="5.06038">
        <ele>208.6</ele>
        <time>2024-05-17T12:59:31Z</time>
      </trkpt>
      <trkpt lat="44.70954" lon="5.06031">
        <ele>208.6</ele>
        <time>2024-05-17T12:59:32Z</time>
      </trkpt>
      <trkpt lat="44.70956" lon="5.06025">
        <ele>208.7</ele>
        <time>2024-05-17T12:59:33Z</time>
      </trkpt>
      <trkpt lat="44.70958" lon="5.06015">
        <ele>208.7</ele>
        <time>2024-05-17T12:59:34Z</time>
      </trkpt>
      <trkpt lat="44.70958" lon="5.06011">
        <ele>208.7</ele>
        <time>2024-05-17T12:59:35Z</time>
      </trkpt>
      <trkpt lat="44.7096" lon="5.06001">
        <ele>208.7</ele>
        <time>2024-05-17T12:59:36Z</time>
      </trkpt>
      <trkpt lat="44.70961" lon="5.05998">
        <ele>208.7</ele>
        <time>2024-05-17T12:59:37Z</time>
      </trkpt>
      <trkpt lat="44.70962" lon="5.05991">
        <ele>208.7</ele>
        <time>2024-05-17T12:59:38Z</time>
      </trkpt>
      <trkpt lat="44.70965" lon="5.05981">
        <ele>208.7</ele>
        <time>2024-05-17T12:59:39Z</time>
      </trkpt>
      <trkpt lat="44.70966" lon="5.05978">
        <ele>208.8</ele>
        <time>2024-05-17T12:59:40Z</time>
      </trkpt>
      <trkpt lat="44.70968" lon="5.05968">
        <ele>208.8</ele>
        <time>2024-05-17T12:59:41Z</time>
      </trkpt>
      <trkpt lat="44.70969" lon="5.05964">
        <ele>208.8</ele>
        <time>2024-05-17T12:59:42Z</time>
      </trkpt>
      <trkpt lat="44.70971" lon="5.05954">
        <ele>208.8</ele>
        <time>2024-05-17T12:59:43Z</time>
      </trkpt>
      <trkpt lat="44.70972" lon="5.05951">
        <ele>208.8</ele>
        <time>2024-05-17T12:59:44Z</time>
      </trkpt>
      <trkpt lat="44.70975" lon="5.05941">
        <ele>208.9</ele>
        <time>2024-05-17T12:59:45Z</time>
      </trkpt>
      <trkpt lat="44.70976" lon="5.05938">
        <ele>208.9</ele>
        <time>2024-05-17T12:59:46Z</time>
      </trkpt>
      <trkpt lat="44.70978" lon="5.05929">
        <ele>208.9</ele>
        <time>2024-05-17T12:59:47Z</time>
      </trkpt>
      <trkpt lat="44.70979" lon="5.05926">
        <ele>208.9</ele>
        <time>2024-05-17T12:59:48Z</time>
      </trkpt>
      <trkpt lat="44.70981" lon="5.05917">
        <ele>209</ele>
        <time>2024-05-17T12:59:49Z</time>
      </trkpt>
      <trkpt lat="44.70982" lon="5.05914">
        <ele>209</ele>
        <time>2024-05-17T12:59:50Z</time>
      </trkpt>
      <trkpt lat="44.70985" lon="5.05904">
        <ele>209</ele>
        <time>2024-05-17T12:59:51Z</time>
      </trkpt>
      <trkpt lat="44.70986" lon="5.05901">
        <ele>209.1</ele>
        <time>2024-05-17T12:59:52Z</time>
      </trkpt>
      <trkpt lat="44.70987" lon="5.05895">
        <ele>209.2</ele>
        <time>2024-05-17T12:59:53Z</time>
      </trkpt>
      <trkpt lat="44.7099" lon="5.05885">
        <ele>209.5</ele>
        <time>2024-05-17T12:59:54Z</time>
      </trkpt>
      <trkpt lat="44.70991" lon="5.05882">
        <ele>209.5</ele>
        <time>2024-05-17T12:59:55Z</time>
      </trkpt>
      <trkpt lat="44.70995" lon="5.05874">
        <ele>209.8</ele>
        <time>2024-05-17T12:59:56Z</time>
      </trkpt>
      <trkpt lat="44.70997" lon="5.05871">
        <ele>209.8</ele>
        <time>2024-05-17T12:59:57Z</time>
      </trkpt>
      <trkpt lat="44.71001" lon="5.05862">
        <ele>209.9</ele>
        <time>2024-05-17T12:59:58Z</time>
      </trkpt>
      <trkpt lat="44.71003" lon="5.0586">
        <ele>209.9</ele>
        <time>2024-05-17T12:59:59Z</time>
      </trkpt>
      <trkpt lat="44.71008" lon="5.05852">
        <ele>209.6</ele>
        <time>2024-05-17T13:00:00Z</time>
      </trkpt>
      <trkpt lat="44.71009" lon="5.05849">
        <ele>209.5</ele>
        <time>2024-05-17T13:00:01Z</time>
      </trkpt>
      <trkpt lat="44.71012" lon="5.05842">
        <ele>209.1</ele>
        <time>2024-05-17T13:00:02Z</time>
      </trkpt>
      <trkpt lat="44.71012" lon="5.05835">
        <ele>208.8</ele>
        <time>2024-05-17T13:00:03Z</time>
      </trkpt>
      <trkpt lat="44.7101" lon="5.05828">
        <ele>208.6</ele>
        <time>2024-05-17T13:00:04Z</time>
      </trkpt>
      <trkpt lat="44.71006" lon="5.05823">
        <ele>208.5</ele>
        <time>2024-05-17T13:00:05Z</time>
      </trkpt>
      <trkpt lat="44.71003" lon="5.0582">
        <ele>208.3</ele>
        <time>2024-05-17T13:00:06Z</time>
      </trkpt>
      <trkpt lat="44.70998" lon="5.05819">
        <ele>208.4</ele>
        <time>2024-05-17T13:00:07Z</time>
      </trkpt>
      <trkpt lat="44.70992" lon="5.0582">
        <ele>208.5</ele>
        <time>2024-05-17T13:00:08Z</time>
      </trkpt>
      <trkpt lat="44.7099" lon="5.05821">
        <ele>208.6</ele>
        <time>2024-05-17T13:00:09Z</time>
      </trkpt>
      <trkpt lat="44.70984" lon="5.05824">
        <ele>208.7</ele>
        <time>2024-05-17T13:00:10Z</time>
      </trkpt>
      <trkpt lat="44.70982" lon="5.05825">
        <ele>208.8</ele>
        <time>2024-05-17T13:00:11Z</time>
      </trkpt>
      <trkpt lat="44.70977" lon="5.05827">
        <ele>209.2</ele>
        <time>2024-05-17T13:00:12Z</time>
      </trkpt>
      <trkpt lat="44.70975" lon="5.05827">
        <ele>209.3</ele>
        <time>2024-05-17T13:00:13Z</time>
      </trkpt>
      <trkpt lat="44.70969" lon="5.05829">
        <ele>209.7</ele>
        <time>2024-05-17T13:00:14Z</time>
      </trkpt>
      <trkpt lat="44.70967" lon="5.0583">
        <ele>209.8</ele>
        <time>2024-05-17T13:00:15Z</time>
      </trkpt>
      <trkpt lat="44.70962" lon="5.05832">
        <ele>210.2</ele>
        <time>2024-05-17T13:00:16Z</time>
      </trkpt>
      <trkpt lat="44.7096" lon="5.05832">
        <ele>210.3</ele>
        <time>2024-05-17T13:00:17Z</time>
      </trkpt>
      <trkpt lat="44.70954" lon="5.05834">
        <ele>210.6</ele>
        <time>2024-05-17T13:00:18Z</time>
      </trkpt>
      <trkpt lat="44.70952" lon="5.05834">
        <ele>210.7</ele>
        <time>2024-05-17T13:00:19Z</time>
      </trkpt>
      <trkpt lat="44.70949" lon="5.05835">
        <ele>210.8</ele>
        <time>2024-05-17T13:00:20Z</time>
      </trkpt>
      <trkpt lat="44.70943" lon="5.05836">
        <ele>211</ele>
        <time>2024-05-17T13:00:21Z</time>
      </trkpt>
      <trkpt lat="44.70941" lon="5.05837">
        <ele>211.1</ele>
        <time>2024-05-17T13:00:22Z</time>
      </trkpt>
      <trkpt lat="44.70936" lon="5.05838">
        <ele>211.3</ele>
        <time>2024-05-17T13:00:23Z</time>
      </trkpt>
      <trkpt lat="44.70934" lon="5.05839">
        <ele>211.3</ele>
        <time>2024-05-17T13:00:24Z</time>
      </trkpt>
      <trkpt lat="44.70928" lon="5.05841">
        <ele>211.5</ele>
        <time>2024-05-17T13:00:25Z</time>
      </trkpt>
      <trkpt lat="44.70927" lon="5.05842">
        <ele>211.6</ele>
        <time>2024-05-17T13:00:26Z</time>
      </trkpt>
      <trkpt lat="44.70923" lon="5.05843">
        <ele>211.7</ele>
        <time>2024-05-17T13:00:27Z</time>
      </trkpt>
      <trkpt lat="44.70919" lon="5.05845">
        <ele>211.8</ele>
        <time>2024-05-17T13:00:28Z</time>
      </trkpt>
      <trkpt lat="44.70916" lon="5.05846">
        <ele>212</ele>
        <time>2024-05-17T13:00:29Z</time>
      </trkpt>
      <trkpt lat="44.7091" lon="5.05848">
        <ele>212.2</ele>
        <time>2024-05-17T13:00:30Z</time>
      </trkpt>
      <trkpt lat="44.70908" lon="5.05849">
        <ele>212.3</ele>
        <time>2024-05-17T13:00:31Z</time>
      </trkpt>
      <trkpt lat="44.70902" lon="5.0585">
        <ele>212.5</ele>
        <time>2024-05-17T13:00:32Z</time>
      </trkpt>
      <trkpt lat="44.709" lon="5.05851">
        <ele>212.6</ele>
        <time>2024-05-17T13:00:33Z</time>
      </trkpt>
      <trkpt lat="44.70896" lon="5.05853">
        <ele>212.7</ele>
        <time>2024-05-17T13:00:34Z</time>
      </trkpt>
      <trkpt lat="44.7089" lon="5.05855">
        <ele>212.8</ele>
        <time>2024-05-17T13:00:35Z</time>
      </trkpt>
      <trkpt lat="44.70888" lon="5.05856">
        <ele>212.8</ele>
        <time>2024-05-17T13:00:36Z</time>
      </trkpt>
      <trkpt lat="44.70883" lon="5.05858">
        <ele>213</ele>
        <time>2024-05-17T13:00:37Z</time>
      </trkpt>
      <trkpt lat="44.70881" lon="5.05859">
        <ele>213</ele>
        <time>2024-05-17T13:00:38Z</time>
      </trkpt>
      <trkpt lat="44.70875" lon="5.05862">
        <ele>213.2</ele>
        <time>2024-05-17T13:00:39Z</time>
      </trkpt>
      <trkpt lat="44.70873" lon="5.05862">
        <ele>213.2</ele>
        <time>2024-05-17T13:00:40Z</time>
      </trkpt>
      <trkpt lat="44.70867" lon="5.05864">
        <ele>213.4</ele>
        <time>2024-05-17T13:00:41Z</time>
      </trkpt>
      <trkpt lat="44.70865" lon="5.05865">
        <ele>213.4</ele>
        <time>2024-05-17T13:00:42Z</time>
      </trkpt>
      <trkpt lat="44.7086" lon="5.05867">
        <ele>213.6</ele>
        <time>2024-05-17T13:00:43Z</time>
      </trkpt>
      <trkpt lat="44.70858" lon="5.05867">
        <ele>213.6</ele>
        <time>2024-05-17T13:00:44Z</time>
      </trkpt>
      <trkpt lat="44.70854" lon="5.05868">
        <ele>213.8</ele>
        <time>2024-05-17T13:00:45Z</time>
      </trkpt>
      <trkpt lat="44.7085" lon="5.0587">
        <ele>213.8</ele>
        <time>2024-05-17T13:00:46Z</time>
      </trkpt>
      <trkpt lat="44.70846" lon="5.0587">
        <ele>213.9</ele>
        <time>2024-05-17T13:00:47Z</time>
      </trkpt>
      <trkpt lat="44.70842" lon="5.05871">
        <ele>214</ele>
        <time>2024-05-17T13:00:48Z</time>
      </trkpt>
      <trkpt lat="44.70839" lon="5.05872">
        <ele>214.1</ele>
        <time>2024-05-17T13:00:49Z</time>
      </trkpt>
      <trkpt lat="44.70835" lon="5.05873">
        <ele>214.3</ele>
        <time>2024-05-17T13:00:50Z</time>
      </trkpt>
      <trkpt lat="44.70829" lon="5.05875">
        <ele>214.4</ele>
        <time>2024-05-17T13:00:51Z</time>
      </trkpt>
      <trkpt lat="44.70827" lon="5.05875">
        <ele>214.5</ele>
        <time>2024-05-17T13:00:52Z</time>
      </trkpt>
      <trkpt lat="44.70822" lon="5.05876">
        <ele>214.6</ele>
        <time>2024-05-17T13:00:53Z</time>
      </trkpt>
      <trkpt lat="44.7082" lon="5.05877">
        <ele>214.7</ele>
        <time>2024-05-17T13:00:54Z</time>
      </trkpt>
      <trkpt lat="44.70815" lon="5.05878">
        <ele>214.8</ele>
        <time>2024-05-17T13:00:55Z</time>
      </trkpt>
      <trkpt lat="44.70813" lon="5.05879">
        <ele>214.9</ele>
        <time>2024-05-17T13:00:56Z</time>
      </trkpt>
      <trkpt lat="44.70807" lon="5.0588">
        <ele>215</ele>
        <time>2024-05-17T13:00:57Z</time>
      </trkpt>
      <trkpt lat="44.70805" lon="5.05881">
        <ele>215.1</ele>
        <time>2024-05-17T13:00:58Z</time>
      </trkpt>
      <trkpt lat="44.70799" lon="5.05883">
        <ele>215.2</ele>
        <time>2024-05-17T13:00:59Z</time>
      </trkpt>
      <trkpt lat="44.70797" lon="5.05884">
        <ele>215.3</ele>
        <time>2024-05-17T13:01:00Z</time>
      </trkpt>
      <trkpt lat="44.70791" lon="5.05885">
        <ele>215.4</ele>
        <time>2024-05-17T13:01:01Z</time>
      </trkpt>
      <trkpt lat="44.70789" lon="5.05885">
        <ele>215.5</ele>
        <time>2024-05-17T13:01:02Z</time>
      </trkpt>
      <trkpt lat="44.70785" lon="5.05886">
        <ele>215.6</ele>
        <time>2024-05-17T13:01:03Z</time>
      </trkpt>
      <trkpt lat="44.70779" lon="5.05887">
        <ele>215.7</ele>
        <time>2024-05-17T13:01:04Z</time>
      </trkpt>
      <trkpt lat="44.70777" lon="5.05888">
        <ele>215.7</ele>
        <time>2024-05-17T13:01:05Z</time>
      </trkpt>
      <trkpt lat="44.70771" lon="5.05888">
        <ele>215.8</ele>
        <time>2024-05-17T13:01:06Z</time>
      </trkpt>
      <trkpt lat="44.70769" lon="5.05888">
        <ele>215.9</ele>
        <time>2024-05-17T13:01:07Z</time>
      </trkpt>
      <trkpt lat="44.70766" lon="5.05889">
        <ele>216</ele>
        <time>2024-05-17T13:01:08Z</time>
      </trkpt>
      <trkpt lat="44.7076" lon="5.05889">
        <ele>216.1</ele>
        <time>2024-05-17T13:01:09Z</time>
      </trkpt>
      <trkpt lat="44.70758" lon="5.0589">
        <ele>216.1</ele>
        <time>2024-05-17T13:01:10Z</time>
      </trkpt>
      <trkpt lat="44.70752" lon="5.0589">
        <ele>216.3</ele>
        <time>2024-05-17T13:01:11Z</time>
      </trkpt>
      <trkpt lat="44.7075" lon="5.0589">
        <ele>216.3</ele>
        <time>2024-05-17T13:01:12Z</time>
      </trkpt>
      <trkpt lat="44.70745" lon="5.05892">
        <ele>216.5</ele>
        <time>2024-05-17T13:01:13Z</time>
      </trkpt>
      <trkpt lat="44.70743" lon="5.05892">
        <ele>216.5</ele>
        <time>2024-05-17T13:01:14Z</time>
      </trkpt>
      <trkpt lat="44.70737" lon="5.05893">
        <ele>216.7</ele>
        <time>2024-05-17T13:01:15Z</time>
      </trkpt>
      <trkpt lat="44.70735" lon="5.05894">
        <ele>216.8</ele>
        <time>2024-05-17T13:01:16Z</time>
      </trkpt>
      <trkpt lat="44.70729" lon="5.05895">
        <ele>217</ele>
        <time>2024-05-17T13:01:17Z</time>
      </trkpt>
      <trkpt lat="44.70727" lon="5.05895">
        <ele>217</ele>
        <time>2024-05-17T13:01:18Z</time>
      </trkpt>
      <trkpt lat="44.70723" lon="5.05896">
        <ele>217.2</ele>
        <time>2024-05-17T13:01:19Z</time>
      </trkpt>
      <trkpt lat="44.70717" lon="5.05897">
        <ele>217.4</ele>
        <time>2024-05-17T13:01:20Z</time>
      </trkpt>
      <trkpt lat="44.70715" lon="5.05898">
        <ele>217.5</ele>
        <time>2024-05-17T13:01:21Z</time>
      </trkpt>
      <trkpt lat="44.7071" lon="5.05899">
        <ele>217.7</ele>
        <time>2024-05-17T13:01:22Z</time>
      </trkpt>
      <trkpt lat="44.70708" lon="5.059">
        <ele>217.8</ele>
        <time>2024-05-17T13:01:23Z</time>
      </trkpt>
      <trkpt lat="44.70702" lon="5.05901">
        <ele>217.9</ele>
        <time>2024-05-17T13:01:24Z</time>
      </trkpt>
      <trkpt lat="44.70701" lon="5.05902">
        <ele>218</ele>
        <time>2024-05-17T13:01:25Z</time>
      </trkpt>
      <trkpt lat="44.70695" lon="5.05903">
        <ele>218.1</ele>
        <time>2024-05-17T13:01:26Z</time>
      </trkpt>
      <trkpt lat="44.70693" lon="5.05904">
        <ele>218.1</ele>
        <time>2024-05-17T13:01:27Z</time>
      </trkpt>
      <trkpt lat="44.7069" lon="5.05905">
        <ele>218.2</ele>
        <time>2024-05-17T13:01:28Z</time>
      </trkpt>
      <trkpt lat="44.70686" lon="5.05906">
        <ele>218.3</ele>
        <time>2024-05-17T13:01:29Z</time>
      </trkpt>
      <trkpt lat="44.70682" lon="5.05907">
        <ele>218.4</ele>
        <time>2024-05-17T13:01:30Z</time>
      </trkpt>
      <trkpt lat="44.70679" lon="5.05909">
        <ele>218.5</ele>
        <time>2024-05-17T13:01:31Z</time>
      </trkpt>
      <trkpt lat="44.70676" lon="5.0591">
        <ele>218.6</ele>
        <time>2024-05-17T13:01:32Z</time>
      </trkpt>
      <trkpt lat="44.70672" lon="5.05912">
        <ele>218.7</ele>
        <time>2024-05-17T13:01:33Z</time>
      </trkpt>
      <trkpt lat="44.70667" lon="5.05914">
        <ele>218.9</ele>
        <time>2024-05-17T13:01:34Z</time>
      </trkpt>
      <trkpt lat="44.70665" lon="5.05915">
        <ele>218.9</ele>
        <time>2024-05-17T13:01:35Z</time>
      </trkpt>
      <trkpt lat="44.70659" lon="5.05916">
        <ele>219.1</ele>
        <time>2024-05-17T13:01:36Z</time>
      </trkpt>
      <trkpt lat="44.70657" lon="5.05917">
        <ele>219.1</ele>
        <time>2024-05-17T13:01:37Z</time>
      </trkpt>
      <trkpt lat="44.70651" lon="5.05919">
        <ele>219.3</ele>
        <time>2024-05-17T13:01:38Z</time>
      </trkpt>
      <trkpt lat="44.70649" lon="5.0592">
        <ele>219.4</ele>
        <time>2024-05-17T13:01:39Z</time>
      </trkpt>
      <trkpt lat="44.70642" lon="5.05922">
        <ele>219.5</ele>
        <time>2024-05-17T13:01:40Z</time>
      </trkpt>
      <trkpt lat="44.7064" lon="5.05923">
        <ele>219.6</ele>
        <time>2024-05-17T13:01:41Z</time>
      </trkpt>
      <trkpt lat="44.70634" lon="5.05924">
        <ele>219.8</ele>
        <time>2024-05-17T13:01:42Z</time>
      </trkpt>
      <trkpt lat="44.70632" lon="5.05925">
        <ele>219.9</ele>
        <time>2024-05-17T13:01:43Z</time>
      </trkpt>
      <trkpt lat="44.70628" lon="5.05926">
        <ele>220</ele>
        <time>2024-05-17T13:01:44Z</time>
      </trkpt>
      <trkpt lat="44.70622" lon="5.05927">
        <ele>220.2</ele>
        <time>2024-05-17T13:01:45Z</time>
      </trkpt>
      <trkpt lat="44.7062" lon="5.05928">
        <ele>220.3</ele>
        <time>2024-05-17T13:01:46Z</time>
      </trkpt>
      <trkpt lat="44.70617" lon="5.05929">
        <ele>220.4</ele>
        <time>2024-05-17T13:01:47Z</time>
      </trkpt>
      <trkpt lat="44.70611" lon="5.0593">
        <ele>220.6</ele>
        <time>2024-05-17T13:01:48Z</time>
      </trkpt>
      <trkpt lat="44.70609" lon="5.0593">
        <ele>220.7</ele>
        <time>2024-05-17T13:01:49Z</time>
      </trkpt>
      <trkpt lat="44.70604" lon="5.05931">
        <ele>220.8</ele>
        <time>2024-05-17T13:01:50Z</time>
      </trkpt>
      <trkpt lat="44.70602" lon="5.05932">
        <ele>220.9</ele>
        <time>2024-05-17T13:01:51Z</time>
      </trkpt>
      <trkpt lat="44.70597" lon="5.05933">
        <ele>221</ele>
        <time>2024-05-17T13:01:52Z</time>
      </trkpt>
      <trkpt lat="44.70595" lon="5.05934">
        <ele>221.1</ele>
        <time>2024-05-17T13:01:53Z</time>
      </trkpt>
      <trkpt lat="44.7059" lon="5.05935">
        <ele>221.2</ele>
        <time>2024-05-17T13:01:54Z</time>
      </trkpt>
      <trkpt lat="44.70589" lon="5.05935">
        <ele>221.3</ele>
        <time>2024-05-17T13:01:55Z</time>
      </trkpt>
      <trkpt lat="44.70584" lon="5.05937">
        <ele>221.4</ele>
        <time>2024-05-17T13:01:56Z</time>
      </trkpt>
      <trkpt lat="44.70582" lon="5.05937">
        <ele>221.5</ele>
        <time>2024-05-17T13:01:57Z</time>
      </trkpt>
      <trkpt lat="44.70576" lon="5.05939">
        <ele>221.6</ele>
        <time>2024-05-17T13:01:58Z</time>
      </trkpt>
      <trkpt lat="44.70575" lon="5.0594">
        <ele>221.6</ele>
        <time>2024-05-17T13:01:59Z</time>
      </trkpt>
      <trkpt lat="44.70569" lon="5.05942">
        <ele>221.8</ele>
        <time>2024-05-17T13:02:00Z</time>
      </trkpt>
      <trkpt lat="44.70567" lon="5.05942">
        <ele>221.8</ele>
        <time>2024-05-17T13:02:01Z</time>
      </trkpt>
      <trkpt lat="44.70561" lon="5.05944">
        <ele>221.9</ele>
        <time>2024-05-17T13:02:02Z</time>
      </trkpt>
      <trkpt lat="44.70559" lon="5.05945">
        <ele>221.9</ele>
        <time>2024-05-17T13:02:03Z</time>
      </trkpt>
      <trkpt lat="44.70555" lon="5.05945">
        <ele>222</ele>
        <time>2024-05-17T13:02:04Z</time>
      </trkpt>
      <trkpt lat="44.70549" lon="5.05947">
        <ele>222.1</ele>
        <time>2024-05-17T13:02:05Z</time>
      </trkpt>
      <trkpt lat="44.70547" lon="5.05947">
        <ele>222.1</ele>
        <time>2024-05-17T13:02:06Z</time>
      </trkpt>
      <trkpt lat="44.70541" lon="5.05948">
        <ele>222.2</ele>
        <time>2024-05-17T13:02:07Z</time>
      </trkpt>
      <trkpt lat="44.70539" lon="5.05949">
        <ele>222.2</ele>
        <time>2024-05-17T13:02:08Z</time>
      </trkpt>
      <trkpt lat="44.70533" lon="5.0595">
        <ele>222.3</ele>
        <time>2024-05-17T13:02:09Z</time>
      </trkpt>
      <trkpt lat="44.70531" lon="5.05951">
        <ele>222.3</ele>
        <time>2024-05-17T13:02:10Z</time>
      </trkpt>
      <trkpt lat="44.70527" lon="5.05951">
        <ele>222.4</ele>
        <time>2024-05-17T13:02:11Z</time>
      </trkpt>
      <trkpt lat="44.70523" lon="5.05952">
        <ele>222.4</ele>
        <time>2024-05-17T13:02:12Z</time>
      </trkpt>
      <trkpt lat="44.70519" lon="5.05953">
        <ele>222.5</ele>
        <time>2024-05-17T13:02:13Z</time>
      </trkpt>
      <trkpt lat="44.70513" lon="5.05954">
        <ele>222.6</ele>
        <time>2024-05-17T13:02:14Z</time>
      </trkpt>
      <trkpt lat="44.70511" lon="5.05955">
        <ele>222.7</ele>
        <time>2024-05-17T13:02:15Z</time>
      </trkpt>
      <trkpt lat="44.70507" lon="5.05956">
        <ele>222.8</ele>
        <time>2024-05-17T13:02:16Z</time>
      </trkpt>
      <trkpt lat="44.70501" lon="5.05957">
        <ele>222.9</ele>
        <time>2024-05-17T13:02:17Z</time>
      </trkpt>
      <trkpt lat="44.70499" lon="5.05958">
        <ele>222.9</ele>
        <time>2024-05-17T13:02:18Z</time>
      </trkpt>
      <trkpt lat="44.70493" lon="5.05959">
        <ele>223.1</ele>
        <time>2024-05-17T13:02:19Z</time>
      </trkpt>
      <trkpt lat="44.70491" lon="5.0596">
        <ele>223.1</ele>
        <time>2024-05-17T13:02:20Z</time>
      </trkpt>
      <trkpt lat="44.70488" lon="5.05961">
        <ele>223.2</ele>
        <time>2024-05-17T13:02:21Z</time>
      </trkpt>
      <trkpt lat="44.70484" lon="5.05962">
        <ele>223.4</ele>
        <time>2024-05-17T13:02:22Z</time>
      </trkpt>
      <trkpt lat="44.70478" lon="5.05964">
        <ele>223.6</ele>
        <time>2024-05-17T13:02:23Z</time>
      </trkpt>
      <trkpt lat="44.70476" lon="5.05964">
        <ele>223.6</ele>
        <time>2024-05-17T13:02:24Z</time>
      </trkpt>
      <trkpt lat="44.70471" lon="5.05965">
        <ele>223.8</ele>
        <time>2024-05-17T13:02:25Z</time>
      </trkpt>
      <trkpt lat="44.70469" lon="5.05966">
        <ele>223.9</ele>
        <time>2024-05-17T13:02:26Z</time>
      </trkpt>
      <trkpt lat="44.70463" lon="5.05967">
        <ele>224.2</ele>
        <time>2024-05-17T13:02:27Z</time>
      </trkpt>
      <trkpt lat="44.7046" lon="5.05967">
        <ele>224.3</ele>
        <time>2024-05-17T13:02:28Z</time>
      </trkpt>
      <trkpt lat="44.70456" lon="5.05966">
        <ele>224.4</ele>
        <time>2024-05-17T13:02:29Z</time>
      </trkpt>
      <trkpt lat="44.7045" lon="5.05966">
        <ele>224.7</ele>
        <time>2024-05-17T13:02:30Z</time>
      </trkpt>
      <trkpt lat="44.70448" lon="5.05966">
        <ele>224.7</ele>
        <time>2024-05-17T13:02:31Z</time>
      </trkpt>
      <trkpt lat="44.70442" lon="5.05966">
        <ele>225</ele>
        <time>2024-05-17T13:02:32Z</time>
      </trkpt>
      <trkpt lat="44.7044" lon="5.05966">
        <ele>225.1</ele>
        <time>2024-05-17T13:02:33Z</time>
      </trkpt>
      <trkpt lat="44.70433" lon="5.05965">
        <ele>225.4</ele>
        <time>2024-05-17T13:02:34Z</time>
      </trkpt>
      <trkpt lat="44.70431" lon="5.05965">
        <ele>225.5</ele>
        <time>2024-05-17T13:02:35Z</time>
      </trkpt>
      <trkpt lat="44.70427" lon="5.05965">
        <ele>225.7</ele>
        <time>2024-05-17T13:02:36Z</time>
      </trkpt>
      <trkpt lat="44.70421" lon="5.05964">
        <ele>226</ele>
        <time>2024-05-17T13:02:37Z</time>
      </trkpt>
      <trkpt lat="44.70419" lon="5.05964">
        <ele>226.1</ele>
        <time>2024-05-17T13:02:38Z</time>
      </trkpt>
      <trkpt lat="44.70413" lon="5.05964">
        <ele>226.4</ele>
        <time>2024-05-17T13:02:39Z</time>
      </trkpt>
      <trkpt lat="44.70411" lon="5.05964">
        <ele>226.5</ele>
        <time>2024-05-17T13:02:40Z</time>
      </trkpt>
      <trkpt lat="44.70405" lon="5.05964">
        <ele>226.6</ele>
        <time>2024-05-17T13:02:41Z</time>
      </trkpt>
      <trkpt lat="44.70403" lon="5.05964">
        <ele>226.7</ele>
        <time>2024-05-17T13:02:42Z</time>
      </trkpt>
      <trkpt lat="44.70396" lon="5.05963">
        <ele>226.8</ele>
        <time>2024-05-17T13:02:43Z</time>
      </trkpt>
      <trkpt lat="44.70394" lon="5.05963">
        <ele>226.8</ele>
        <time>2024-05-17T13:02:44Z</time>
      </trkpt>
      <trkpt lat="44.70389" lon="5.05963">
        <ele>226.9</ele>
        <time>2024-05-17T13:02:45Z</time>
      </trkpt>
      <trkpt lat="44.70383" lon="5.05962">
        <ele>227</ele>
        <time>2024-05-17T13:02:46Z</time>
      </trkpt>
      <trkpt lat="44.70381" lon="5.05962">
        <ele>227.1</ele>
        <time>2024-05-17T13:02:47Z</time>
      </trkpt>
      <trkpt lat="44.70375" lon="5.05961">
        <ele>227.3</ele>
        <time>2024-05-17T13:02:48Z</time>
      </trkpt>
      <trkpt lat="44.70373" lon="5.05961">
        <ele>227.3</ele>
        <time>2024-05-17T13:02:49Z</time>
      </trkpt>
      <trkpt lat="44.70366" lon="5.0596">
        <ele>227.5</ele>
        <time>2024-05-17T13:02:50Z</time>
      </trkpt>
      <trkpt lat="44.70364" lon="5.0596">
        <ele>227.6</ele>
        <time>2024-05-17T13:02:51Z</time>
      </trkpt>
      <trkpt lat="44.70357" lon="5.0596">
        <ele>227.8</ele>
        <time>2024-05-17T13:02:52Z</time>
      </trkpt>
      <trkpt lat="44.70355" lon="5.0596">
        <ele>227.8</ele>
        <time>2024-05-17T13:02:53Z</time>
      </trkpt>
      <trkpt lat="44.70351" lon="5.0596">
        <ele>228</ele>
        <time>2024-05-17T13:02:54Z</time>
      </trkpt>
      <trkpt lat="44.70347" lon="5.0596">
        <ele>228.1</ele>
        <time>2024-05-17T13:02:55Z</time>
      </trkpt>
      <trkpt lat="44.70343" lon="5.0596">
        <ele>228.2</ele>
        <time>2024-05-17T13:02:56Z</time>
      </trkpt>
      <trkpt lat="44.7034" lon="5.0596">
        <ele>228.3</ele>
        <time>2024-05-17T13:02:57Z</time>
      </trkpt>
      <trkpt lat="44.70335" lon="5.0596">
        <ele>228.4</ele>
        <time>2024-05-17T13:02:58Z</time>
      </trkpt>
      <trkpt lat="44.70331" lon="5.0596">
        <ele>228.5</ele>
        <time>2024-05-17T13:02:59Z</time>
      </trkpt>
      <trkpt lat="44.70325" lon="5.05959">
        <ele>228.7</ele>
        <time>2024-05-17T13:03:00Z</time>
      </trkpt>
      <trkpt lat="44.70323" lon="5.05958">
        <ele>228.8</ele>
        <time>2024-05-17T13:03:01Z</time>
      </trkpt>
      <trkpt lat="44.70317" lon="5.05956">
        <ele>228.9</ele>
        <time>2024-05-17T13:03:02Z</time>
      </trkpt>
      <trkpt lat="44.70315" lon="5.05955">
        <ele>228.9</ele>
        <time>2024-05-17T13:03:03Z</time>
      </trkpt>
      <trkpt lat="44.70309" lon="5.05952">
        <ele>229</ele>
        <time>2024-05-17T13:03:04Z</time>
      </trkpt>
      <trkpt lat="44.70307" lon="5.05951">
        <ele>229</ele>
        <time>2024-05-17T13:03:05Z</time>
      </trkpt>
      <trkpt lat="44.703" lon="5.05947">
        <ele>229.1</ele>
        <time>2024-05-17T13:03:06Z</time>
      </trkpt>
      <trkpt lat="44.70299" lon="5.05946">
        <ele>229.1</ele>
        <time>2024-05-17T13:03:07Z</time>
      </trkpt>
      <trkpt lat="44.70293" lon="5.05942">
        <ele>229.3</ele>
        <time>2024-05-17T13:03:08Z</time>
      </trkpt>
      <trkpt lat="44.70291" lon="5.05941">
        <ele>229.4</ele>
        <time>2024-05-17T13:03:09Z</time>
      </trkpt>
      <trkpt lat="44.70286" lon="5.05937">
        <ele>229.6</ele>
        <time>2024-05-17T13:03:10Z</time>
      </trkpt>
      <trkpt lat="44.70285" lon="5.05936">
        <ele>229.7</ele>
        <time>2024-05-17T13:03:11Z</time>
      </trkpt>
      <trkpt lat="44.7028" lon="5.05933">
        <ele>229.9</ele>
        <time>2024-05-17T13:03:12Z</time>
      </trkpt>
      <trkpt lat="44.70278" lon="5.05931">
        <ele>230</ele>
        <time>2024-05-17T13:03:13Z</time>
      </trkpt>
      <trkpt lat="44.70274" lon="5.05929">
        <ele>230.1</ele>
        <time>2024-05-17T13:03:14Z</time>
      </trkpt>
      <trkpt lat="44.70269" lon="5.05926">
        <ele>230.4</ele>
        <time>2024-05-17T13:03:15Z</time>
      </trkpt>
      <trkpt lat="44.70267" lon="5.05925">
        <ele>230.4</ele>
        <time>2024-05-17T13:03:16Z</time>
      </trkpt>
      <trkpt lat="44.70261" lon="5.05921">
        <ele>230.6</ele>
        <time>2024-05-17T13:03:17Z</time>
      </trkpt>
      <trkpt lat="44.70259" lon="5.05919">
        <ele>230.7</ele>
        <time>2024-05-17T13:03:18Z</time>
      </trkpt>
      <trkpt lat="44.70253" lon="5.05916">
        <ele>230.9</ele>
        <time>2024-05-17T13:03:19Z</time>
      </trkpt>
      <trkpt lat="44.70251" lon="5.05915">
        <ele>231</ele>
        <time>2024-05-17T13:03:20Z</time>
      </trkpt>
      <trkpt lat="44.70246" lon="5.05911">
        <ele>231.1</ele>
        <time>2024-05-17T13:03:21Z</time>
      </trkpt>
      <trkpt lat="44.70244" lon="5.0591">
        <ele>231.2</ele>
        <time>2024-05-17T13:03:22Z</time>
      </trkpt>
      <trkpt lat="44.70239" lon="5.05906">
        <ele>231.3</ele>
        <time>2024-05-17T13:03:23Z</time>
      </trkpt>
      <trkpt lat="44.70237" lon="5.05905">
        <ele>231.3</ele>
        <time>2024-05-17T13:03:24Z</time>
      </trkpt>
      <trkpt lat="44.70232" lon="5.05901">
        <ele>231.3</ele>
        <time>2024-05-17T13:03:25Z</time>
      </trkpt>
      <trkpt lat="44.7023" lon="5.059">
        <ele>231.3</ele>
        <time>2024-05-17T13:03:26Z</time>
      </trkpt>
      <trkpt lat="44.70224" lon="5.05896">
        <ele>231.3</ele>
        <time>2024-05-17T13:03:27Z</time>
      </trkpt>
      <trkpt lat="44.70223" lon="5.05894">
        <ele>231.3</ele>
        <time>2024-05-17T13:03:28Z</time>
      </trkpt>
      <trkpt lat="44.70219" lon="5.05892">
        <ele>231.2</ele>
        <time>2024-05-17T13:03:29Z</time>
      </trkpt>
      <trkpt lat="44.70213" lon="5.05887">
        <ele>231</ele>
        <time>2024-05-17T13:03:30Z</time>
      </trkpt>
      <trkpt lat="44.70211" lon="5.05886">
        <ele>230.9</ele>
        <time>2024-05-17T13:03:31Z</time>
      </trkpt>
      <trkpt lat="44.70204" lon="5.05881">
        <ele>230.6</ele>
        <time>2024-05-17T13:03:32Z</time>
      </trkpt>
      <trkpt lat="44.70201" lon="5.05879">
        <ele>230.5</ele>
        <time>2024-05-17T13:03:33Z</time>
      </trkpt>
      <trkpt lat="44.70193" lon="5.05875">
        <ele>230.2</ele>
        <time>2024-05-17T13:03:34Z</time>
      </trkpt>
      <trkpt lat="44.70191" lon="5.05874">
        <ele>230</ele>
        <time>2024-05-17T13:03:35Z</time>
      </trkpt>
      <trkpt lat="44.70185" lon="5.05871">
        <ele>229.8</ele>
        <time>2024-05-17T13:03:36Z</time>
      </trkpt>
      <trkpt lat="44.70179" lon="5.05869">
        <ele>229.6</ele>
        <time>2024-05-17T13:03:37Z</time>
      </trkpt>
      <trkpt lat="44.70173" lon="5.05867">
        <ele>229.4</ele>
        <time>2024-05-17T13:03:38Z</time>
      </trkpt>
      <trkpt lat="44.70167" lon="5.05865">
        <ele>229.2</ele>
        <time>2024-05-17T13:03:39Z</time>
      </trkpt>
      <trkpt lat="44.70162" lon="5.05863">
        <ele>229</ele>
        <time>2024-05-17T13:03:40Z</time>
      </trkpt>
      <trkpt lat="44.70156" lon="5.05862">
        <ele>228.9</ele>
        <time>2024-05-17T13:03:41Z</time>
      </trkpt>
      <trkpt lat="44.7015" lon="5.05861">
        <ele>228.8</ele>
        <time>2024-05-17T13:03:42Z</time>
      </trkpt>
      <trkpt lat="44.70144" lon="5.0586">
        <ele>228.8</ele>
        <time>2024-05-17T13:03:43Z</time>
      </trkpt>
      <trkpt lat="44.70135" lon="5.05856">
        <ele>228.7</ele>
        <time>2024-05-17T13:03:44Z</time>
      </trkpt>
      <trkpt lat="44.70133" lon="5.05854">
        <ele>228.7</ele>
        <time>2024-05-17T13:03:45Z</time>
      </trkpt>
      <trkpt lat="44.70125" lon="5.05849">
        <ele>228.8</ele>
        <time>2024-05-17T13:03:46Z</time>
      </trkpt>
      <trkpt lat="44.70123" lon="5.05847">
        <ele>228.8</ele>
        <time>2024-05-17T13:03:47Z</time>
      </trkpt>
      <trkpt lat="44.70116" lon="5.05841">
        <ele>228.9</ele>
        <time>2024-05-17T13:03:48Z</time>
      </trkpt>
      <trkpt lat="44.70114" lon="5.05839">
        <ele>229</ele>
        <time>2024-05-17T13:03:49Z</time>
      </trkpt>
      <trkpt lat="44.70108" lon="5.05834">
        <ele>229.2</ele>
        <time>2024-05-17T13:03:50Z</time>
      </trkpt>
      <trkpt lat="44.70106" lon="5.05832">
        <ele>229.3</ele>
        <time>2024-05-17T13:03:51Z</time>
      </trkpt>
      <trkpt lat="44.70102" lon="5.05829">
        <ele>229.5</ele>
        <time>2024-05-17T13:03:52Z</time>
      </trkpt>
      <trkpt lat="44.70097" lon="5.05825">
        <ele>229.8</ele>
        <time>2024-05-17T13:03:53Z</time>
      </trkpt>
      <trkpt lat="44.70095" lon="5.05823">
        <ele>229.9</ele>
        <time>2024-05-17T13:03:54Z</time>
      </trkpt>
      <trkpt lat="44.70091" lon="5.0582">
        <ele>230.1</ele>
        <time>2024-05-17T13:03:55Z</time>
      </trkpt>
      <trkpt lat="44.70086" lon="5.05816">
        <ele>230.4</ele>
        <time>2024-05-17T13:03:56Z</time>
      </trkpt>
      <trkpt lat="44.70084" lon="5.05814">
        <ele>230.5</ele>
        <time>2024-05-17T13:03:57Z</time>
      </trkpt>
      <trkpt lat="44.70079" lon="5.05811">
        <ele>230.9</ele>
        <time>2024-05-17T13:03:58Z</time>
      </trkpt>
      <trkpt lat="44.70077" lon="5.0581">
        <ele>231</ele>
        <time>2024-05-17T13:03:59Z</time>
      </trkpt>
      <trkpt lat="44.70071" lon="5.05807">
        <ele>231.3</ele>
        <time>2024-05-17T13:04:00Z</time>
      </trkpt>
      <trkpt lat="44.70069" lon="5.05806">
        <ele>231.4</ele>
        <time>2024-05-17T13:04:01Z</time>
      </trkpt>
      <trkpt lat="44.70063" lon="5.05803">
        <ele>231.7</ele>
        <time>2024-05-17T13:04:02Z</time>
      </trkpt>
      <trkpt lat="44.70061" lon="5.05801">
        <ele>231.8</ele>
        <time>2024-05-17T13:04:03Z</time>
      </trkpt>
      <trkpt lat="44.70055" lon="5.05797">
        <ele>232.1</ele>
        <time>2024-05-17T13:04:04Z</time>
      </trkpt>
      <trkpt lat="44.70053" lon="5.05796">
        <ele>232.2</ele>
        <time>2024-05-17T13:04:05Z</time>
      </trkpt>
      <trkpt lat="44.70047" lon="5.05792">
        <ele>232.4</ele>
        <time>2024-05-17T13:04:06Z</time>
      </trkpt>
      <trkpt lat="44.70045" lon="5.0579">
        <ele>232.5</ele>
        <time>2024-05-17T13:04:07Z</time>
      </trkpt>
      <trkpt lat="44.70039" lon="5.05787">
        <ele>232.7</ele>
        <time>2024-05-17T13:04:08Z</time>
      </trkpt>
      <trkpt lat="44.70038" lon="5.05786">
        <ele>232.8</ele>
        <time>2024-05-17T13:04:09Z</time>
      </trkpt>
      <trkpt lat="44.70032" lon="5.05783">
        <ele>233</ele>
        <time>2024-05-17T13:04:10Z</time>
      </trkpt>
      <trkpt lat="44.7003" lon="5.05782">
        <ele>233</ele>
        <time>2024-05-17T13:04:11Z</time>
      </trkpt>
      <trkpt lat="44.70024" lon="5.05779">
        <ele>233.2</ele>
        <time>2024-05-17T13:04:12Z</time>
      </trkpt>
      <trkpt lat="44.70022" lon="5.05778">
        <ele>233.3</ele>
        <time>2024-05-17T13:04:13Z</time>
      </trkpt>
      <trkpt lat="44.70016" lon="5.05775">
        <ele>233.5</ele>
        <time>2024-05-17T13:04:14Z</time>
      </trkpt>
      <trkpt lat="44.70014" lon="5.05774">
        <ele>233.5</ele>
        <time>2024-05-17T13:04:15Z</time>
      </trkpt>
      <trkpt lat="44.70008" lon="5.05772">
        <ele>233.7</ele>
        <time>2024-05-17T13:04:16Z</time>
      </trkpt>
      <trkpt lat="44.70006" lon="5.05771">
        <ele>233.8</ele>
        <time>2024-05-17T13:04:17Z</time>
      </trkpt>
      <trkpt lat="44.70001" lon="5.05768">
        <ele>234</ele>
        <time>2024-05-17T13:04:18Z</time>
      </trkpt>
      <trkpt lat="44.69999" lon="5.05768">
        <ele>234</ele>
        <time>2024-05-17T13:04:19Z</time>
      </trkpt>
      <trkpt lat="44.69993" lon="5.05765">
        <ele>234.2</ele>
        <time>2024-05-17T13:04:20Z</time>
      </trkpt>
      <trkpt lat="44.69991" lon="5.05764">
        <ele>234.3</ele>
        <time>2024-05-17T13:04:21Z</time>
      </trkpt>
      <trkpt lat="44.69988" lon="5.05761">
        <ele>234.4</ele>
        <time>2024-05-17T13:04:22Z</time>
      </trkpt>
      <trkpt lat="44.69984" lon="5.05759">
        <ele>234.5</ele>
        <time>2024-05-17T13:04:23Z</time>
      </trkpt>
      <trkpt lat="44.69981" lon="5.05757">
        <ele>234.6</ele>
        <time>2024-05-17T13:04:24Z</time>
      </trkpt>
      <trkpt lat="44.69976" lon="5.05754">
        <ele>234.8</ele>
        <time>2024-05-17T13:04:25Z</time>
      </trkpt>
      <trkpt lat="44.69974" lon="5.05754">
        <ele>234.9</ele>
        <time>2024-05-17T13:04:26Z</time>
      </trkpt>
      <trkpt lat="44.69969" lon="5.05751">
        <ele>235.1</ele>
        <time>2024-05-17T13:04:27Z</time>
      </trkpt>
      <trkpt lat="44.69968" lon="5.0575">
        <ele>235.1</ele>
        <time>2024-05-17T13:04:28Z</time>
      </trkpt>
      <trkpt lat="44.69962" lon="5.05746">
        <ele>235.3</ele>
        <time>2024-05-17T13:04:29Z</time>
      </trkpt>
      <trkpt lat="44.69961" lon="5.05746">
        <ele>235.4</ele>
        <time>2024-05-17T13:04:30Z</time>
      </trkpt>
      <trkpt lat="44.69955" lon="5.05743">
        <ele>235.6</ele>
        <time>2024-05-17T13:04:31Z</time>
      </trkpt>
      <trkpt lat="44.69953" lon="5.05743">
        <ele>235.7</ele>
        <time>2024-05-17T13:04:32Z</time>
      </trkpt>
      <trkpt lat="44.69948" lon="5.05741">
        <ele>235.9</ele>
        <time>2024-05-17T13:04:33Z</time>
      </trkpt>
      <trkpt lat="44.69946" lon="5.05741">
        <ele>235.9</ele>
        <time>2024-05-17T13:04:34Z</time>
      </trkpt>
      <trkpt lat="44.6994" lon="5.0574">
        <ele>236.1</ele>
        <time>2024-05-17T13:04:35Z</time>
      </trkpt>
      <trkpt lat="44.69938" lon="5.0574">
        <ele>236.2</ele>
        <time>2024-05-17T13:04:36Z</time>
      </trkpt>
      <trkpt lat="44.69932" lon="5.0574">
        <ele>236.4</ele>
        <time>2024-05-17T13:04:37Z</time>
      </trkpt>
      <trkpt lat="44.6993" lon="5.0574">
        <ele>236.5</ele>
        <time>2024-05-17T13:04:38Z</time>
      </trkpt>
      <trkpt lat="44.69924" lon="5.05739">
        <ele>236.7</ele>
        <time>2024-05-17T13:04:39Z</time>
      </trkpt>
      <trkpt lat="44.69922" lon="5.05739">
        <ele>236.7</ele>
        <time>2024-05-17T13:04:40Z</time>
      </trkpt>
      <trkpt lat="44.69916" lon="5.05738">
        <ele>236.9</ele>
        <time>2024-05-17T13:04:41Z</time>
      </trkpt>
      <trkpt lat="44.69914" lon="5.05738">
        <ele>237</ele>
        <time>2024-05-17T13:04:42Z</time>
      </trkpt>
      <trkpt lat="44.69908" lon="5.05738">
        <ele>237.2</ele>
        <time>2024-05-17T13:04:43Z</time>
      </trkpt>
      <trkpt lat="44.69906" lon="5.05738">
        <ele>237.2</ele>
        <time>2024-05-17T13:04:44Z</time>
      </trkpt>
      <trkpt lat="44.69902" lon="5.05737">
        <ele>237.4</ele>
        <time>2024-05-17T13:04:45Z</time>
      </trkpt>
      <trkpt lat="44.69898" lon="5.05737">
        <ele>237.5</ele>
        <time>2024-05-17T13:04:46Z</time>
      </trkpt>
      <trkpt lat="44.69894" lon="5.05737">
        <ele>237.7</ele>
        <time>2024-05-17T13:04:47Z</time>
      </trkpt>
      <trkpt lat="44.69887" lon="5.05737">
        <ele>237.9</ele>
        <time>2024-05-17T13:04:48Z</time>
      </trkpt>
      <trkpt lat="44.69885" lon="5.05736">
        <ele>238</ele>
        <time>2024-05-17T13:04:49Z</time>
      </trkpt>
      <trkpt lat="44.6988" lon="5.05735">
        <ele>238.2</ele>
        <time>2024-05-17T13:04:50Z</time>
      </trkpt>
      <trkpt lat="44.69878" lon="5.05735">
        <ele>238.3</ele>
        <time>2024-05-17T13:04:51Z</time>
      </trkpt>
      <trkpt lat="44.69872" lon="5.05734">
        <ele>238.5</ele>
        <time>2024-05-17T13:04:52Z</time>
      </trkpt>
      <trkpt lat="44.6987" lon="5.05734">
        <ele>238.5</ele>
        <time>2024-05-17T13:04:53Z</time>
      </trkpt>
      <trkpt lat="44.69866" lon="5.05734">
        <ele>238.7</ele>
        <time>2024-05-17T13:04:54Z</time>
      </trkpt>
      <trkpt lat="44.6986" lon="5.05734">
        <ele>238.9</ele>
        <time>2024-05-17T13:04:55Z</time>
      </trkpt>
      <trkpt lat="44.69858" lon="5.05734">
        <ele>239</ele>
        <time>2024-05-17T13:04:56Z</time>
      </trkpt>
      <trkpt lat="44.69852" lon="5.05734">
        <ele>239.2</ele>
        <time>2024-05-17T13:04:57Z</time>
      </trkpt>
      <trkpt lat="44.6985" lon="5.05734">
        <ele>239.2</ele>
        <time>2024-05-17T13:04:58Z</time>
      </trkpt>
      <trkpt lat="44.69843" lon="5.05733">
        <ele>239.4</ele>
        <time>2024-05-17T13:04:59Z</time>
      </trkpt>
      <trkpt lat="44.69841" lon="5.05733">
        <ele>239.5</ele>
        <time>2024-05-17T13:05:00Z</time>
      </trkpt>
      <trkpt lat="44.69835" lon="5.05733">
        <ele>239.7</ele>
        <time>2024-05-17T13:05:01Z</time>
      </trkpt>
      <trkpt lat="44.69833" lon="5.05733">
        <ele>239.7</ele>
        <time>2024-05-17T13:05:02Z</time>
      </trkpt>
      <trkpt lat="44.69829" lon="5.05732">
        <ele>239.9</ele>
        <time>2024-05-17T13:05:03Z</time>
      </trkpt>
      <trkpt lat="44.69825" lon="5.05732">
        <ele>240</ele>
        <time>2024-05-17T13:05:04Z</time>
      </trkpt>
      <trkpt lat="44.69821" lon="5.05732">
        <ele>240.1</ele>
        <time>2024-05-17T13:05:05Z</time>
      </trkpt>
      <trkpt lat="44.69817" lon="5.05731">
        <ele>240.2</ele>
        <time>2024-05-17T13:05:06Z</time>
      </trkpt>
      <trkpt lat="44.6981" lon="5.05731">
        <ele>240.3</ele>
        <time>2024-05-17T13:05:07Z</time>
      </trkpt>
      <trkpt lat="44.69808" lon="5.05731">
        <ele>240.4</ele>
        <time>2024-05-17T13:05:08Z</time>
      </trkpt>
      <trkpt lat="44.69802" lon="5.05731">
        <ele>240.5</ele>
        <time>2024-05-17T13:05:09Z</time>
      </trkpt>
      <trkpt lat="44.698" lon="5.05732">
        <ele>240.6</ele>
        <time>2024-05-17T13:05:10Z</time>
      </trkpt>
      <trkpt lat="44.69796" lon="5.05731">
        <ele>240.7</ele>
        <time>2024-05-17T13:05:11Z</time>
      </trkpt>
      <trkpt lat="44.69792" lon="5.05731">
        <ele>240.8</ele>
        <time>2024-05-17T13:05:12Z</time>
      </trkpt>
      <trkpt lat="44.69788" lon="5.0573">
        <ele>240.9</ele>
        <time>2024-05-17T13:05:13Z</time>
      </trkpt>
      <trkpt lat="44.69784" lon="5.0573">
        <ele>241</ele>
        <time>2024-05-17T13:05:14Z</time>
      </trkpt>
      <trkpt lat="44.69778" lon="5.05729">
        <ele>241.2</ele>
        <time>2024-05-17T13:05:15Z</time>
      </trkpt>
      <trkpt lat="44.69776" lon="5.05729">
        <ele>241.3</ele>
        <time>2024-05-17T13:05:16Z</time>
      </trkpt>
      <trkpt lat="44.69769" lon="5.05727">
        <ele>241.5</ele>
        <time>2024-05-17T13:05:17Z</time>
      </trkpt>
      <trkpt lat="44.69767" lon="5.05727">
        <ele>241.5</ele>
        <time>2024-05-17T13:05:18Z</time>
      </trkpt>
      <trkpt lat="44.69761" lon="5.05725">
        <ele>241.7</ele>
        <time>2024-05-17T13:05:19Z</time>
      </trkpt>
      <trkpt lat="44.69759" lon="5.05724">
        <ele>241.8</ele>
        <time>2024-05-17T13:05:20Z</time>
      </trkpt>
      <trkpt lat="44.69753" lon="5.05721">
        <ele>242</ele>
        <time>2024-05-17T13:05:21Z</time>
      </trkpt>
      <trkpt lat="44.69751" lon="5.0572">
        <ele>242</ele>
        <time>2024-05-17T13:05:22Z</time>
      </trkpt>
      <trkpt lat="44.69745" lon="5.05716">
        <ele>242.3</ele>
        <time>2024-05-17T13:05:23Z</time>
      </trkpt>
      <trkpt lat="44.69743" lon="5.05715">
        <ele>242.3</ele>
        <time>2024-05-17T13:05:24Z</time>
      </trkpt>
      <trkpt lat="44.69737" lon="5.0571">
        <ele>242.6</ele>
        <time>2024-05-17T13:05:25Z</time>
      </trkpt>
      <trkpt lat="44.69735" lon="5.05709">
        <ele>242.6</ele>
        <time>2024-05-17T13:05:26Z</time>
      </trkpt>
      <trkpt lat="44.69729" lon="5.05705">
        <ele>242.8</ele>
        <time>2024-05-17T13:05:27Z</time>
      </trkpt>
      <trkpt lat="44.69727" lon="5.05703">
        <ele>242.9</ele>
        <time>2024-05-17T13:05:28Z</time>
      </trkpt>
      <trkpt lat="44.69721" lon="5.05699">
        <ele>243.1</ele>
        <time>2024-05-17T13:05:29Z</time>
      </trkpt>
      <trkpt lat="44.69719" lon="5.05698">
        <ele>243.1</ele>
        <time>2024-05-17T13:05:30Z</time>
      </trkpt>
      <trkpt lat="44.69713" lon="5.05694">
        <ele>243.3</ele>
        <time>2024-05-17T13:05:31Z</time>
      </trkpt>
      <trkpt lat="44.69712" lon="5.05693">
        <ele>243.4</ele>
        <time>2024-05-17T13:05:32Z</time>
      </trkpt>
      <trkpt lat="44.69706" lon="5.05688">
        <ele>243.6</ele>
        <time>2024-05-17T13:05:33Z</time>
      </trkpt>
      <trkpt lat="44.69704" lon="5.05687">
        <ele>243.7</ele>
        <time>2024-05-17T13:05:34Z</time>
      </trkpt>
      <trkpt lat="44.69698" lon="5.05682">
        <ele>243.9</ele>
        <time>2024-05-17T13:05:35Z</time>
      </trkpt>
      <trkpt lat="44.69696" lon="5.05681">
        <ele>243.9</ele>
        <time>2024-05-17T13:05:36Z</time>
      </trkpt>
      <trkpt lat="44.6969" lon="5.05677">
        <ele>244.1</ele>
        <time>2024-05-17T13:05:37Z</time>
      </trkpt>
      <trkpt lat="44.69689" lon="5.05676">
        <ele>244.2</ele>
        <time>2024-05-17T13:05:38Z</time>
      </trkpt>
      <trkpt lat="44.69683" lon="5.05672">
        <ele>244.4</ele>
        <time>2024-05-17T13:05:39Z</time>
      </trkpt>
      <trkpt lat="44.69681" lon="5.05671">
        <ele>244.5</ele>
        <time>2024-05-17T13:05:40Z</time>
      </trkpt>
      <trkpt lat="44.69677" lon="5.05668">
        <ele>244.6</ele>
        <time>2024-05-17T13:05:41Z</time>
      </trkpt>
      <trkpt lat="44.69672" lon="5.05665">
        <ele>244.8</ele>
        <time>2024-05-17T13:05:42Z</time>
      </trkpt>
      <trkpt lat="44.6967" lon="5.05664">
        <ele>244.9</ele>
        <time>2024-05-17T13:05:43Z</time>
      </trkpt>
      <trkpt lat="44.69665" lon="5.05659">
        <ele>245.1</ele>
        <time>2024-05-17T13:05:44Z</time>
      </trkpt>
      <trkpt lat="44.69663" lon="5.05658">
        <ele>245.2</ele>
        <time>2024-05-17T13:05:45Z</time>
      </trkpt>
      <trkpt lat="44.69659" lon="5.05656">
        <ele>245.3</ele>
        <time>2024-05-17T13:05:46Z</time>
      </trkpt>
      <trkpt lat="44.69656" lon="5.05654">
        <ele>245.4</ele>
        <time>2024-05-17T13:05:47Z</time>
      </trkpt>
      <trkpt lat="44.69652" lon="5.05652">
        <ele>245.5</ele>
        <time>2024-05-17T13:05:48Z</time>
      </trkpt>
      <trkpt lat="44.69648" lon="5.0565">
        <ele>245.7</ele>
        <time>2024-05-17T13:05:49Z</time>
      </trkpt>
      <trkpt lat="44.69645" lon="5.05649">
        <ele>245.8</ele>
        <time>2024-05-17T13:05:50Z</time>
      </trkpt>
      <trkpt lat="44.69639" lon="5.05646">
        <ele>246</ele>
        <time>2024-05-17T13:05:51Z</time>
      </trkpt>
      <trkpt lat="44.69637" lon="5.05646">
        <ele>246.1</ele>
        <time>2024-05-17T13:05:52Z</time>
      </trkpt>
      <trkpt lat="44.69633" lon="5.05644">
        <ele>246.3</ele>
        <time>2024-05-17T13:05:53Z</time>
      </trkpt>
      <trkpt lat="44.69627" lon="5.05642">
        <ele>246.5</ele>
        <time>2024-05-17T13:05:54Z</time>
      </trkpt>
      <trkpt lat="44.69625" lon="5.05641">
        <ele>246.5</ele>
        <time>2024-05-17T13:05:55Z</time>
      </trkpt>
      <trkpt lat="44.69618" lon="5.05639">
        <ele>246.8</ele>
        <time>2024-05-17T13:05:56Z</time>
      </trkpt>
      <trkpt lat="44.69616" lon="5.05639">
        <ele>246.8</ele>
        <time>2024-05-17T13:05:57Z</time>
      </trkpt>
      <trkpt lat="44.6961" lon="5.05638">
        <ele>247</ele>
        <time>2024-05-17T13:05:58Z</time>
      </trkpt>
      <trkpt lat="44.69607" lon="5.05637">
        <ele>247.1</ele>
        <time>2024-05-17T13:05:59Z</time>
      </trkpt>
      <trkpt lat="44.69601" lon="5.05636">
        <ele>247.3</ele>
        <time>2024-05-17T13:06:00Z</time>
      </trkpt>
      <trkpt lat="44.69599" lon="5.05636">
        <ele>247.3</ele>
        <time>2024-05-17T13:06:01Z</time>
      </trkpt>
      <trkpt lat="44.69592" lon="5.05635">
        <ele>247.5</ele>
        <time>2024-05-17T13:06:02Z</time>
      </trkpt>
      <trkpt lat="44.6959" lon="5.05635">
        <ele>247.5</ele>
        <time>2024-05-17T13:06:03Z</time>
      </trkpt>
      <trkpt lat="44.69584" lon="5.05634">
        <ele>247.7</ele>
        <time>2024-05-17T13:06:04Z</time>
      </trkpt>
      <trkpt lat="44.69581" lon="5.05634">
        <ele>247.8</ele>
        <time>2024-05-17T13:06:05Z</time>
      </trkpt>
      <trkpt lat="44.69575" lon="5.05633">
        <ele>247.9</ele>
        <time>2024-05-17T13:06:06Z</time>
      </trkpt>
      <trkpt lat="44.69572" lon="5.05633">
        <ele>248</ele>
        <time>2024-05-17T13:06:07Z</time>
      </trkpt>
      <trkpt lat="44.69566" lon="5.05633">
        <ele>248.1</ele>
        <time>2024-05-17T13:06:08Z</time>
      </trkpt>
      <trkpt lat="44.69564" lon="5.05633">
        <ele>248.2</ele>
        <time>2024-05-17T13:06:09Z</time>
      </trkpt>
      <trkpt lat="44.69557" lon="5.05632">
        <ele>248.4</ele>
        <time>2024-05-17T13:06:10Z</time>
      </trkpt>
      <trkpt lat="44.69554" lon="5.05632">
        <ele>248.4</ele>
        <time>2024-05-17T13:06:11Z</time>
      </trkpt>
      <trkpt lat="44.6955" lon="5.05631">
        <ele>248.6</ele>
        <time>2024-05-17T13:06:12Z</time>
      </trkpt>
      <trkpt lat="44.69543" lon="5.05631">
        <ele>248.7</ele>
        <time>2024-05-17T13:06:13Z</time>
      </trkpt>
      <trkpt lat="44.6954" lon="5.05631">
        <ele>248.8</ele>
        <time>2024-05-17T13:06:14Z</time>
      </trkpt>
      <trkpt lat="44.69533" lon="5.0563">
        <ele>249</ele>
        <time>2024-05-17T13:06:15Z</time>
      </trkpt>
      <trkpt lat="44.69531" lon="5.0563">
        <ele>249</ele>
        <time>2024-05-17T13:06:16Z</time>
      </trkpt>
      <trkpt lat="44.69525" lon="5.0563">
        <ele>249.2</ele>
        <time>2024-05-17T13:06:17Z</time>
      </trkpt>
      <trkpt lat="44.69522" lon="5.0563">
        <ele>249.2</ele>
        <time>2024-05-17T13:06:18Z</time>
      </trkpt>
      <trkpt lat="44.69516" lon="5.05629">
        <ele>249.4</ele>
        <time>2024-05-17T13:06:19Z</time>
      </trkpt>
      <trkpt lat="44.69514" lon="5.05629">
        <ele>249.5</ele>
        <time>2024-05-17T13:06:20Z</time>
      </trkpt>
      <trkpt lat="44.69506" lon="5.05629">
        <ele>249.7</ele>
        <time>2024-05-17T13:06:21Z</time>
      </trkpt>
      <trkpt lat="44.69504" lon="5.05629">
        <ele>249.8</ele>
        <time>2024-05-17T13:06:22Z</time>
      </trkpt>
      <trkpt lat="44.69496" lon="5.05629">
        <ele>250</ele>
        <time>2024-05-17T13:06:23Z</time>
      </trkpt>
      <trkpt lat="44.69494" lon="5.05629">
        <ele>250.1</ele>
        <time>2024-05-17T13:06:24Z</time>
      </trkpt>
      <trkpt lat="44.69486" lon="5.05629">
        <ele>250.4</ele>
        <time>2024-05-17T13:06:25Z</time>
      </trkpt>
      <trkpt lat="44.69484" lon="5.05629">
        <ele>250.4</ele>
        <time>2024-05-17T13:06:26Z</time>
      </trkpt>
      <trkpt lat="44.69477" lon="5.05628">
        <ele>250.7</ele>
        <time>2024-05-17T13:06:27Z</time>
      </trkpt>
      <trkpt lat="44.69474" lon="5.05628">
        <ele>250.7</ele>
        <time>2024-05-17T13:06:28Z</time>
      </trkpt>
      <trkpt lat="44.6947" lon="5.05627">
        <ele>250.9</ele>
        <time>2024-05-17T13:06:29Z</time>
      </trkpt>
      <trkpt lat="44.69465" lon="5.05626">
        <ele>251</ele>
        <time>2024-05-17T13:06:30Z</time>
      </trkpt>
      <trkpt lat="44.6946" lon="5.05626">
        <ele>251.2</ele>
        <time>2024-05-17T13:06:31Z</time>
      </trkpt>
      <trkpt lat="44.69455" lon="5.05625">
        <ele>251.3</ele>
        <time>2024-05-17T13:06:32Z</time>
      </trkpt>
      <trkpt lat="44.6945" lon="5.05625">
        <ele>251.5</ele>
        <time>2024-05-17T13:06:33Z</time>
      </trkpt>
      <trkpt lat="44.69446" lon="5.05624">
        <ele>251.7</ele>
        <time>2024-05-17T13:06:34Z</time>
      </trkpt>
      <trkpt lat="44.69439" lon="5.05623">
        <ele>252</ele>
        <time>2024-05-17T13:06:35Z</time>
      </trkpt>
      <trkpt lat="44.69436" lon="5.05623">
        <ele>252.1</ele>
        <time>2024-05-17T13:06:36Z</time>
      </trkpt>
      <trkpt lat="44.69429" lon="5.05621">
        <ele>252.3</ele>
        <time>2024-05-17T13:06:37Z</time>
      </trkpt>
      <trkpt lat="44.69427" lon="5.05621">
        <ele>252.4</ele>
        <time>2024-05-17T13:06:38Z</time>
      </trkpt>
      <trkpt lat="44.6942" lon="5.0562">
        <ele>252.6</ele>
        <time>2024-05-17T13:06:39Z</time>
      </trkpt>
      <trkpt lat="44.69418" lon="5.05619">
        <ele>252.7</ele>
        <time>2024-05-17T13:06:40Z</time>
      </trkpt>
      <trkpt lat="44.69412" lon="5.05618">
        <ele>252.9</ele>
        <time>2024-05-17T13:06:41Z</time>
      </trkpt>
      <trkpt lat="44.69409" lon="5.05618">
        <ele>252.9</ele>
        <time>2024-05-17T13:06:42Z</time>
      </trkpt>
      <trkpt lat="44.69405" lon="5.05616">
        <ele>253.1</ele>
        <time>2024-05-17T13:06:43Z</time>
      </trkpt>
      <trkpt lat="44.69398" lon="5.05613">
        <ele>253.3</ele>
        <time>2024-05-17T13:06:44Z</time>
      </trkpt>
      <trkpt lat="44.69396" lon="5.05613">
        <ele>253.3</ele>
        <time>2024-05-17T13:06:45Z</time>
      </trkpt>
      <trkpt lat="44.69389" lon="5.0561">
        <ele>253.5</ele>
        <time>2024-05-17T13:06:46Z</time>
      </trkpt>
      <trkpt lat="44.69387" lon="5.05609">
        <ele>253.5</ele>
        <time>2024-05-17T13:06:47Z</time>
      </trkpt>
      <trkpt lat="44.6938" lon="5.05606">
        <ele>253.7</ele>
        <time>2024-05-17T13:06:48Z</time>
      </trkpt>
      <trkpt lat="44.69377" lon="5.05605">
        <ele>253.7</ele>
        <time>2024-05-17T13:06:49Z</time>
      </trkpt>
      <trkpt lat="44.6937" lon="5.05602">
        <ele>253.8</ele>
        <time>2024-05-17T13:06:50Z</time>
      </trkpt>
      <trkpt lat="44.69367" lon="5.05601">
        <ele>253.9</ele>
        <time>2024-05-17T13:06:51Z</time>
      </trkpt>
      <trkpt lat="44.6936" lon="5.05598">
        <ele>254</ele>
        <time>2024-05-17T13:06:52Z</time>
      </trkpt>
      <trkpt lat="44.69358" lon="5.05598">
        <ele>254</ele>
        <time>2024-05-17T13:06:53Z</time>
      </trkpt>
      <trkpt lat="44.6935" lon="5.05595">
        <ele>254.1</ele>
        <time>2024-05-17T13:06:54Z</time>
      </trkpt>
      <trkpt lat="44.69348" lon="5.05594">
        <ele>254.1</ele>
        <time>2024-05-17T13:06:55Z</time>
      </trkpt>
      <trkpt lat="44.6934" lon="5.05592">
        <ele>254.2</ele>
        <time>2024-05-17T13:06:56Z</time>
      </trkpt>
      <trkpt lat="44.69337" lon="5.05591">
        <ele>254.2</ele>
        <time>2024-05-17T13:06:57Z</time>
      </trkpt>
      <trkpt lat="44.6933" lon="5.05589">
        <ele>254.2</ele>
        <time>2024-05-17T13:06:58Z</time>
      </trkpt>
      <trkpt lat="44.69327" lon="5.05588">
        <ele>254.2</ele>
        <time>2024-05-17T13:06:59Z</time>
      </trkpt>
      <trkpt lat="44.69319" lon="5.05585">
        <ele>254.2</ele>
        <time>2024-05-17T13:07:00Z</time>
      </trkpt>
      <trkpt lat="44.69316" lon="5.05584">
        <ele>254.2</ele>
        <time>2024-05-17T13:07:01Z</time>
      </trkpt>
      <trkpt lat="44.69308" lon="5.05581">
        <ele>254.3</ele>
        <time>2024-05-17T13:07:02Z</time>
      </trkpt>
      <trkpt lat="44.69305" lon="5.0558">
        <ele>254.3</ele>
        <time>2024-05-17T13:07:03Z</time>
      </trkpt>
      <trkpt lat="44.69297" lon="5.05577">
        <ele>254.4</ele>
        <time>2024-05-17T13:07:04Z</time>
      </trkpt>
      <trkpt lat="44.69294" lon="5.05576">
        <ele>254.4</ele>
        <time>2024-05-17T13:07:05Z</time>
      </trkpt>
      <trkpt lat="44.69289" lon="5.05575">
        <ele>254.4</ele>
        <time>2024-05-17T13:07:06Z</time>
      </trkpt>
      <trkpt lat="44.69281" lon="5.05572">
        <ele>254.5</ele>
        <time>2024-05-17T13:07:07Z</time>
      </trkpt>
      <trkpt lat="44.69279" lon="5.05571">
        <ele>254.6</ele>
        <time>2024-05-17T13:07:08Z</time>
      </trkpt>
      <trkpt lat="44.69272" lon="5.05569">
        <ele>254.7</ele>
        <time>2024-05-17T13:07:09Z</time>
      </trkpt>
      <trkpt lat="44.69269" lon="5.05568">
        <ele>254.7</ele>
        <time>2024-05-17T13:07:10Z</time>
      </trkpt>
      <trkpt lat="44.69264" lon="5.05566">
        <ele>254.7</ele>
        <time>2024-05-17T13:07:11Z</time>
      </trkpt>
      <trkpt lat="44.69259" lon="5.05564">
        <ele>254.8</ele>
        <time>2024-05-17T13:07:12Z</time>
      </trkpt>
      <trkpt lat="44.69254" lon="5.05562">
        <ele>254.9</ele>
        <time>2024-05-17T13:07:13Z</time>
      </trkpt>
      <trkpt lat="44.69249" lon="5.0556">
        <ele>255</ele>
        <time>2024-05-17T13:07:14Z</time>
      </trkpt>
      <trkpt lat="44.69244" lon="5.05558">
        <ele>255.1</ele>
        <time>2024-05-17T13:07:15Z</time>
      </trkpt>
      <trkpt lat="44.6924" lon="5.05557">
        <ele>255.3</ele>
        <time>2024-05-17T13:07:16Z</time>
      </trkpt>
      <trkpt lat="44.69235" lon="5.05555">
        <ele>255.4</ele>
        <time>2024-05-17T13:07:17Z</time>
      </trkpt>
      <trkpt lat="44.6923" lon="5.05554">
        <ele>255.6</ele>
        <time>2024-05-17T13:07:18Z</time>
      </trkpt>
      <trkpt lat="44.69222" lon="5.05553">
        <ele>255.8</ele>
        <time>2024-05-17T13:07:19Z</time>
      </trkpt>
      <trkpt lat="44.6922" lon="5.05553">
        <ele>255.9</ele>
        <time>2024-05-17T13:07:20Z</time>
      </trkpt>
      <trkpt lat="44.69213" lon="5.05555">
        <ele>256.1</ele>
        <time>2024-05-17T13:07:21Z</time>
      </trkpt>
      <trkpt lat="44.6921" lon="5.05556">
        <ele>256.1</ele>
        <time>2024-05-17T13:07:22Z</time>
      </trkpt>
      <trkpt lat="44.69203" lon="5.05559">
        <ele>256.3</ele>
        <time>2024-05-17T13:07:23Z</time>
      </trkpt>
      <trkpt lat="44.692" lon="5.0556">
        <ele>256.3</ele>
        <time>2024-05-17T13:07:24Z</time>
      </trkpt>
      <trkpt lat="44.69194" lon="5.05565">
        <ele>256.4</ele>
        <time>2024-05-17T13:07:25Z</time>
      </trkpt>
      <trkpt lat="44.69191" lon="5.05568">
        <ele>256.4</ele>
        <time>2024-05-17T13:07:26Z</time>
      </trkpt>
      <trkpt lat="44.69184" lon="5.05575">
        <ele>256.5</ele>
        <time>2024-05-17T13:07:27Z</time>
      </trkpt>
      <trkpt lat="44.69182" lon="5.05577">
        <ele>256.5</ele>
        <time>2024-05-17T13:07:28Z</time>
      </trkpt>
      <trkpt lat="44.69175" lon="5.05584">
        <ele>256.6</ele>
        <time>2024-05-17T13:07:29Z</time>
      </trkpt>
      <trkpt lat="44.69173" lon="5.05586">
        <ele>256.6</ele>
        <time>2024-05-17T13:07:30Z</time>
      </trkpt>
      <trkpt lat="44.69166" lon="5.05593">
        <ele>256.7</ele>
        <time>2024-05-17T13:07:31Z</time>
      </trkpt>
      <trkpt lat="44.69164" lon="5.05596">
        <ele>256.8</ele>
        <time>2024-05-17T13:07:32Z</time>
      </trkpt>
      <trkpt lat="44.69157" lon="5.05602">
        <ele>256.9</ele>
        <time>2024-05-17T13:07:33Z</time>
      </trkpt>
      <trkpt lat="44.69155" lon="5.05604">
        <ele>256.9</ele>
        <time>2024-05-17T13:07:34Z</time>
      </trkpt>
      <trkpt lat="44.69149" lon="5.05611">
        <ele>257.1</ele>
        <time>2024-05-17T13:07:35Z</time>
      </trkpt>
      <trkpt lat="44.69147" lon="5.05613">
        <ele>257.1</ele>
        <time>2024-05-17T13:07:36Z</time>
      </trkpt>
      <trkpt lat="44.69141" lon="5.0562">
        <ele>257.3</ele>
        <time>2024-05-17T13:07:37Z</time>
      </trkpt>
      <trkpt lat="44.69139" lon="5.05622">
        <ele>257.3</ele>
        <time>2024-05-17T13:07:38Z</time>
      </trkpt>
      <trkpt lat="44.69133" lon="5.05629">
        <ele>257.5</ele>
        <time>2024-05-17T13:07:39Z</time>
      </trkpt>
      <trkpt lat="44.69131" lon="5.05632">
        <ele>257.5</ele>
        <time>2024-05-17T13:07:40Z</time>
      </trkpt>
      <trkpt lat="44.69127" lon="5.05636">
        <ele>257.6</ele>
        <time>2024-05-17T13:07:41Z</time>
      </trkpt>
      <trkpt lat="44.69121" lon="5.05643">
        <ele>257.7</ele>
        <time>2024-05-17T13:07:42Z</time>
      </trkpt>
      <trkpt lat="44.69119" lon="5.05645">
        <ele>257.8</ele>
        <time>2024-05-17T13:07:43Z</time>
      </trkpt>
      <trkpt lat="44.69113" lon="5.05652">
        <ele>257.9</ele>
        <time>2024-05-17T13:07:44Z</time>
      </trkpt>
      <trkpt lat="44.6911" lon="5.05655">
        <ele>257.9</ele>
        <time>2024-05-17T13:07:45Z</time>
      </trkpt>
      <trkpt lat="44.69104" lon="5.05662">
        <ele>258</ele>
        <time>2024-05-17T13:07:46Z</time>
      </trkpt>
      <trkpt lat="44.69102" lon="5.05664">
        <ele>258</ele>
        <time>2024-05-17T13:07:47Z</time>
      </trkpt>
      <trkpt lat="44.69096" lon="5.05671">
        <ele>258.2</ele>
        <time>2024-05-17T13:07:48Z</time>
      </trkpt>
      <trkpt lat="44.69094" lon="5.05673">
        <ele>258.2</ele>
        <time>2024-05-17T13:07:49Z</time>
      </trkpt>
      <trkpt lat="44.6909" lon="5.05678">
        <ele>258.3</ele>
        <time>2024-05-17T13:07:50Z</time>
      </trkpt>
      <trkpt lat="44.69083" lon="5.05684">
        <ele>258.5</ele>
        <time>2024-05-17T13:07:51Z</time>
      </trkpt>
      <trkpt lat="44.69081" lon="5.05687">
        <ele>258.6</ele>
        <time>2024-05-17T13:07:52Z</time>
      </trkpt>
      <trkpt lat="44.69077" lon="5.0569">
        <ele>258.7</ele>
        <time>2024-05-17T13:07:53Z</time>
      </trkpt>
      <trkpt lat="44.69073" lon="5.05694">
        <ele>258.8</ele>
        <time>2024-05-17T13:07:54Z</time>
      </trkpt>
      <trkpt lat="44.69069" lon="5.05697">
        <ele>259</ele>
        <time>2024-05-17T13:07:55Z</time>
      </trkpt>
      <trkpt lat="44.69065" lon="5.057">
        <ele>259.1</ele>
        <time>2024-05-17T13:07:56Z</time>
      </trkpt>
      <trkpt lat="44.6906" lon="5.05703">
        <ele>259.3</ele>
        <time>2024-05-17T13:07:57Z</time>
      </trkpt>
      <trkpt lat="44.69056" lon="5.05706">
        <ele>259.5</ele>
        <time>2024-05-17T13:07:58Z</time>
      </trkpt>
      <trkpt lat="44.69052" lon="5.05709">
        <ele>259.6</ele>
        <time>2024-05-17T13:07:59Z</time>
      </trkpt>
      <trkpt lat="44.69049" lon="5.05712">
        <ele>259.8</ele>
        <time>2024-05-17T13:08:00Z</time>
      </trkpt>
      <trkpt lat="44.69044" lon="5.05717">
        <ele>260</ele>
        <time>2024-05-17T13:08:01Z</time>
      </trkpt>
      <trkpt lat="44.69042" lon="5.05718">
        <ele>260.1</ele>
        <time>2024-05-17T13:08:02Z</time>
      </trkpt>
      <trkpt lat="44.69037" lon="5.05723">
        <ele>260.3</ele>
        <time>2024-05-17T13:08:03Z</time>
      </trkpt>
      <trkpt lat="44.69035" lon="5.05724">
        <ele>260.3</ele>
        <time>2024-05-17T13:08:04Z</time>
      </trkpt>
      <trkpt lat="44.69032" lon="5.05727">
        <ele>260.5</ele>
        <time>2024-05-17T13:08:05Z</time>
      </trkpt>
      <trkpt lat="44.69028" lon="5.0573">
        <ele>260.6</ele>
        <time>2024-05-17T13:08:06Z</time>
      </trkpt>
      <trkpt lat="44.69023" lon="5.05734">
        <ele>260.7</ele>
        <time>2024-05-17T13:08:07Z</time>
      </trkpt>
      <trkpt lat="44.69021" lon="5.05736">
        <ele>260.8</ele>
        <time>2024-05-17T13:08:08Z</time>
      </trkpt>
      <trkpt lat="44.69016" lon="5.0574">
        <ele>260.9</ele>
        <time>2024-05-17T13:08:09Z</time>
      </trkpt>
      <trkpt lat="44.69014" lon="5.05742">
        <ele>261</ele>
        <time>2024-05-17T13:08:10Z</time>
      </trkpt>
      <trkpt lat="44.69009" lon="5.05747">
        <ele>261.1</ele>
        <time>2024-05-17T13:08:11Z</time>
      </trkpt>
      <trkpt lat="44.69007" lon="5.05749">
        <ele>261.1</ele>
        <time>2024-05-17T13:08:12Z</time>
      </trkpt>
      <trkpt lat="44.69002" lon="5.05753">
        <ele>261.3</ele>
        <time>2024-05-17T13:08:13Z</time>
      </trkpt>
      <trkpt lat="44.69" lon="5.05755">
        <ele>261.4</ele>
        <time>2024-05-17T13:08:14Z</time>
      </trkpt>
      <trkpt lat="44.68995" lon="5.0576">
        <ele>261.5</ele>
        <time>2024-05-17T13:08:15Z</time>
      </trkpt>
      <trkpt lat="44.68993" lon="5.05762">
        <ele>261.6</ele>
        <time>2024-05-17T13:08:16Z</time>
      </trkpt>
      <trkpt lat="44.68988" lon="5.05767">
        <ele>261.8</ele>
        <time>2024-05-17T13:08:17Z</time>
      </trkpt>
      <trkpt lat="44.68986" lon="5.05768">
        <ele>261.8</ele>
        <time>2024-05-17T13:08:18Z</time>
      </trkpt>
      <trkpt lat="44.68981" lon="5.05773">
        <ele>262</ele>
        <time>2024-05-17T13:08:19Z</time>
      </trkpt>
      <trkpt lat="44.68979" lon="5.05775">
        <ele>262</ele>
        <time>2024-05-17T13:08:20Z</time>
      </trkpt>
      <trkpt lat="44.68973" lon="5.0578">
        <ele>262.2</ele>
        <time>2024-05-17T13:08:21Z</time>
      </trkpt>
      <trkpt lat="44.68971" lon="5.05782">
        <ele>262.3</ele>
        <time>2024-05-17T13:08:22Z</time>
      </trkpt>
      <trkpt lat="44.68965" lon="5.05787">
        <ele>262.4</ele>
        <time>2024-05-17T13:08:23Z</time>
      </trkpt>
      <trkpt lat="44.68963" lon="5.05788">
        <ele>262.5</ele>
        <time>2024-05-17T13:08:24Z</time>
      </trkpt>
      <trkpt lat="44.68957" lon="5.05794">
        <ele>262.7</ele>
        <time>2024-05-17T13:08:25Z</time>
      </trkpt>
      <trkpt lat="44.68955" lon="5.05795">
        <ele>262.8</ele>
        <time>2024-05-17T13:08:26Z</time>
      </trkpt>
      <trkpt lat="44.68949" lon="5.058">
        <ele>263</ele>
        <time>2024-05-17T13:08:27Z</time>
      </trkpt>
      <trkpt lat="44.68947" lon="5.05801">
        <ele>263.1</ele>
        <time>2024-05-17T13:08:28Z</time>
      </trkpt>
      <trkpt lat="44.68941" lon="5.05806">
        <ele>263.3</ele>
        <time>2024-05-17T13:08:29Z</time>
      </trkpt>
      <trkpt lat="44.68939" lon="5.05807">
        <ele>263.4</ele>
        <time>2024-05-17T13:08:30Z</time>
      </trkpt>
      <trkpt lat="44.68935" lon="5.05811">
        <ele>263.5</ele>
        <time>2024-05-17T13:08:31Z</time>
      </trkpt>
      <trkpt lat="44.6893" lon="5.05815">
        <ele>263.7</ele>
        <time>2024-05-17T13:08:32Z</time>
      </trkpt>
      <trkpt lat="44.68928" lon="5.05817">
        <ele>263.8</ele>
        <time>2024-05-17T13:08:33Z</time>
      </trkpt>
      <trkpt lat="44.68922" lon="5.0582">
        <ele>263.9</ele>
        <time>2024-05-17T13:08:34Z</time>
      </trkpt>
      <trkpt lat="44.6892" lon="5.05822">
        <ele>264</ele>
        <time>2024-05-17T13:08:35Z</time>
      </trkpt>
      <trkpt lat="44.68916" lon="5.05824">
        <ele>264.1</ele>
        <time>2024-05-17T13:08:36Z</time>
      </trkpt>
      <trkpt lat="44.68912" lon="5.05827">
        <ele>264.2</ele>
        <time>2024-05-17T13:08:37Z</time>
      </trkpt>
      <trkpt lat="44.68909" lon="5.0583">
        <ele>264.3</ele>
        <time>2024-05-17T13:08:38Z</time>
      </trkpt>
      <trkpt lat="44.68905" lon="5.05832">
        <ele>264.5</ele>
        <time>2024-05-17T13:08:39Z</time>
      </trkpt>
      <trkpt lat="44.68901" lon="5.05835">
        <ele>264.6</ele>
        <time>2024-05-17T13:08:40Z</time>
      </trkpt>
      <trkpt lat="44.68897" lon="5.05837">
        <ele>264.7</ele>
        <time>2024-05-17T13:08:41Z</time>
      </trkpt>
      <trkpt lat="44.68894" lon="5.0584">
        <ele>264.9</ele>
        <time>2024-05-17T13:08:42Z</time>
      </trkpt>
      <trkpt lat="44.6889" lon="5.05842">
        <ele>265</ele>
        <time>2024-05-17T13:08:43Z</time>
      </trkpt>
      <trkpt lat="44.68884" lon="5.05845">
        <ele>265.2</ele>
        <time>2024-05-17T13:08:44Z</time>
      </trkpt>
      <trkpt lat="44.68883" lon="5.05846">
        <ele>265.2</ele>
        <time>2024-05-17T13:08:45Z</time>
      </trkpt>
      <trkpt lat="44.68877" lon="5.05848">
        <ele>265.4</ele>
        <time>2024-05-17T13:08:46Z</time>
      </trkpt>
      <trkpt lat="44.68875" lon="5.05849">
        <ele>265.5</ele>
        <time>2024-05-17T13:08:47Z</time>
      </trkpt>
      <trkpt lat="44.68871" lon="5.05851">
        <ele>265.6</ele>
        <time>2024-05-17T13:08:48Z</time>
      </trkpt>
      <trkpt lat="44.68867" lon="5.05852">
        <ele>265.7</ele>
        <time>2024-05-17T13:08:49Z</time>
      </trkpt>
      <trkpt lat="44.68862" lon="5.05855">
        <ele>265.9</ele>
        <time>2024-05-17T13:08:50Z</time>
      </trkpt>
      <trkpt lat="44.6886" lon="5.05856">
        <ele>265.9</ele>
        <time>2024-05-17T13:08:51Z</time>
      </trkpt>
      <trkpt lat="44.68856" lon="5.05858">
        <ele>266</ele>
        <time>2024-05-17T13:08:52Z</time>
      </trkpt>
      <trkpt lat="44.68852" lon="5.0586">
        <ele>266.2</ele>
        <time>2024-05-17T13:08:53Z</time>
      </trkpt>
      <trkpt lat="44.68846" lon="5.05863">
        <ele>266.4</ele>
        <time>2024-05-17T13:08:54Z</time>
      </trkpt>
      <trkpt lat="44.68844" lon="5.05864">
        <ele>266.4</ele>
        <time>2024-05-17T13:08:55Z</time>
      </trkpt>
      <trkpt lat="44.68839" lon="5.05867">
        <ele>266.6</ele>
        <time>2024-05-17T13:08:56Z</time>
      </trkpt>
      <trkpt lat="44.68837" lon="5.05868">
        <ele>266.7</ele>
        <time>2024-05-17T13:08:57Z</time>
      </trkpt>
      <trkpt lat="44.68831" lon="5.05871">
        <ele>267</ele>
        <time>2024-05-17T13:08:58Z</time>
      </trkpt>
      <trkpt lat="44.68829" lon="5.05872">
        <ele>267</ele>
        <time>2024-05-17T13:08:59Z</time>
      </trkpt>
      <trkpt lat="44.68823" lon="5.05875">
        <ele>267.2</ele>
        <time>2024-05-17T13:09:00Z</time>
      </trkpt>
      <trkpt lat="44.68822" lon="5.05876">
        <ele>267.3</ele>
        <time>2024-05-17T13:09:01Z</time>
      </trkpt>
      <trkpt lat="44.68818" lon="5.05879">
        <ele>267.5</ele>
        <time>2024-05-17T13:09:02Z</time>
      </trkpt>
      <trkpt lat="44.68812" lon="5.05883">
        <ele>267.7</ele>
        <time>2024-05-17T13:09:03Z</time>
      </trkpt>
      <trkpt lat="44.68811" lon="5.05885">
        <ele>267.7</ele>
        <time>2024-05-17T13:09:04Z</time>
      </trkpt>
      <trkpt lat="44.68806" lon="5.0589">
        <ele>267.9</ele>
        <time>2024-05-17T13:09:05Z</time>
      </trkpt>
      <trkpt lat="44.68804" lon="5.05892">
        <ele>268</ele>
        <time>2024-05-17T13:09:06Z</time>
      </trkpt>
      <trkpt lat="44.68799" lon="5.05898">
        <ele>268.2</ele>
        <time>2024-05-17T13:09:07Z</time>
      </trkpt>
      <trkpt lat="44.68798" lon="5.059">
        <ele>268.3</ele>
        <time>2024-05-17T13:09:08Z</time>
      </trkpt>
      <trkpt lat="44.68794" lon="5.05906">
        <ele>268.5</ele>
        <time>2024-05-17T13:09:09Z</time>
      </trkpt>
      <trkpt lat="44.68792" lon="5.05909">
        <ele>268.6</ele>
        <time>2024-05-17T13:09:10Z</time>
      </trkpt>
      <trkpt lat="44.6879" lon="5.05913">
        <ele>268.7</ele>
        <time>2024-05-17T13:09:11Z</time>
      </trkpt>
      <trkpt lat="44.68787" lon="5.05918">
        <ele>268.9</ele>
        <time>2024-05-17T13:09:12Z</time>
      </trkpt>
      <trkpt lat="44.68785" lon="5.05923">
        <ele>269</ele>
        <time>2024-05-17T13:09:13Z</time>
      </trkpt>
      <trkpt lat="44.68781" lon="5.0593">
        <ele>269.2</ele>
        <time>2024-05-17T13:09:14Z</time>
      </trkpt>
      <trkpt lat="44.6878" lon="5.05932">
        <ele>269.2</ele>
        <time>2024-05-17T13:09:15Z</time>
      </trkpt>
      <trkpt lat="44.68777" lon="5.0594">
        <ele>269.4</ele>
        <time>2024-05-17T13:09:16Z</time>
      </trkpt>
      <trkpt lat="44.68776" lon="5.05942">
        <ele>269.5</ele>
        <time>2024-05-17T13:09:17Z</time>
      </trkpt>
      <trkpt lat="44.68774" lon="5.05947">
        <ele>269.6</ele>
        <time>2024-05-17T13:09:18Z</time>
      </trkpt>
      <trkpt lat="44.68772" lon="5.05952">
        <ele>269.8</ele>
        <time>2024-05-17T13:09:19Z</time>
      </trkpt>
      <trkpt lat="44.68769" lon="5.05956">
        <ele>269.9</ele>
        <time>2024-05-17T13:09:20Z</time>
      </trkpt>
      <trkpt lat="44.68766" lon="5.05961">
        <ele>270</ele>
        <time>2024-05-17T13:09:21Z</time>
      </trkpt>
      <trkpt lat="44.68763" lon="5.05964">
        <ele>270.1</ele>
        <time>2024-05-17T13:09:22Z</time>
      </trkpt>
      <trkpt lat="44.68759" lon="5.05967">
        <ele>270.3</ele>
        <time>2024-05-17T13:09:23Z</time>
      </trkpt>
      <trkpt lat="44.68755" lon="5.05968">
        <ele>270.4</ele>
        <time>2024-05-17T13:09:24Z</time>
      </trkpt>
      <trkpt lat="44.6875" lon="5.05968">
        <ele>270.5</ele>
        <time>2024-05-17T13:09:25Z</time>
      </trkpt>
      <trkpt lat="44.68744" lon="5.05966">
        <ele>270.7</ele>
        <time>2024-05-17T13:09:26Z</time>
      </trkpt>
      <trkpt lat="44.68742" lon="5.05965">
        <ele>270.8</ele>
        <time>2024-05-17T13:09:27Z</time>
      </trkpt>
      <trkpt lat="44.68736" lon="5.0596">
        <ele>270.9</ele>
        <time>2024-05-17T13:09:28Z</time>
      </trkpt>
      <trkpt lat="44.68734" lon="5.05958">
        <ele>271</ele>
        <time>2024-05-17T13:09:29Z</time>
      </trkpt>
      <trkpt lat="44.68731" lon="5.05953">
        <ele>271.1</ele>
        <time>2024-05-17T13:09:30Z</time>
      </trkpt>
      <trkpt lat="44.68728" lon="5.05949">
        <ele>271.2</ele>
        <time>2024-05-17T13:09:31Z</time>
      </trkpt>
      <trkpt lat="44.68724" lon="5.05943">
        <ele>271.3</ele>
        <time>2024-05-17T13:09:32Z</time>
      </trkpt>
      <trkpt lat="44.68722" lon="5.05941">
        <ele>271.4</ele>
        <time>2024-05-17T13:09:33Z</time>
      </trkpt>
      <trkpt lat="44.68718" lon="5.05935">
        <ele>271.6</ele>
        <time>2024-05-17T13:09:34Z</time>
      </trkpt>
      <trkpt lat="44.68716" lon="5.05933">
        <ele>271.7</ele>
        <time>2024-05-17T13:09:35Z</time>
      </trkpt>
      <trkpt lat="44.68712" lon="5.05928">
        <ele>272</ele>
        <time>2024-05-17T13:09:36Z</time>
      </trkpt>
      <trkpt lat="44.68711" lon="5.05926">
        <ele>272.1</ele>
        <time>2024-05-17T13:09:37Z</time>
      </trkpt>
      <trkpt lat="44.68707" lon="5.0592">
        <ele>272.4</ele>
        <time>2024-05-17T13:09:38Z</time>
      </trkpt>
      <trkpt lat="44.68705" lon="5.05918">
        <ele>272.5</ele>
        <time>2024-05-17T13:09:39Z</time>
      </trkpt>
      <trkpt lat="44.68701" lon="5.05913">
        <ele>272.7</ele>
        <time>2024-05-17T13:09:40Z</time>
      </trkpt>
      <trkpt lat="44.68699" lon="5.05911">
        <ele>272.8</ele>
        <time>2024-05-17T13:09:41Z</time>
      </trkpt>
      <trkpt lat="44.68695" lon="5.05906">
        <ele>273.1</ele>
        <time>2024-05-17T13:09:42Z</time>
      </trkpt>
      <trkpt lat="44.68693" lon="5.05905">
        <ele>273.2</ele>
        <time>2024-05-17T13:09:43Z</time>
      </trkpt>
      <trkpt lat="44.68688" lon="5.05901">
        <ele>273.5</ele>
        <time>2024-05-17T13:09:44Z</time>
      </trkpt>
      <trkpt lat="44.68687" lon="5.059">
        <ele>273.6</ele>
        <time>2024-05-17T13:09:45Z</time>
      </trkpt>
      <trkpt lat="44.68683" lon="5.05898">
        <ele>273.8</ele>
        <time>2024-05-17T13:09:46Z</time>
      </trkpt>
      <trkpt lat="44.6868" lon="5.05896">
        <ele>274</ele>
        <time>2024-05-17T13:09:47Z</time>
      </trkpt>
      <trkpt lat="44.68677" lon="5.05895">
        <ele>274.2</ele>
        <time>2024-05-17T13:09:48Z</time>
      </trkpt>
      <trkpt lat="44.68673" lon="5.05893">
        <ele>274.4</ele>
        <time>2024-05-17T13:09:49Z</time>
      </trkpt>
      <trkpt lat="44.6867" lon="5.05891">
        <ele>274.5</ele>
        <time>2024-05-17T13:09:50Z</time>
      </trkpt>
      <trkpt lat="44.68665" lon="5.05889">
        <ele>274.8</ele>
        <time>2024-05-17T13:09:51Z</time>
      </trkpt>
      <trkpt lat="44.68663" lon="5.05889">
        <ele>274.9</ele>
        <time>2024-05-17T13:09:52Z</time>
      </trkpt>
      <trkpt lat="44.68658" lon="5.05887">
        <ele>275.2</ele>
        <time>2024-05-17T13:09:53Z</time>
      </trkpt>
      <trkpt lat="44.68657" lon="5.05886">
        <ele>275.3</ele>
        <time>2024-05-17T13:09:54Z</time>
      </trkpt>
      <trkpt lat="44.68651" lon="5.05885">
        <ele>275.6</ele>
        <time>2024-05-17T13:09:55Z</time>
      </trkpt>
      <trkpt lat="44.6865" lon="5.05884">
        <ele>275.7</ele>
        <time>2024-05-17T13:09:56Z</time>
      </trkpt>
      <trkpt lat="44.68645" lon="5.05883">
        <ele>276</ele>
        <time>2024-05-17T13:09:57Z</time>
      </trkpt>
      <trkpt lat="44.68643" lon="5.05883">
        <ele>276.1</ele>
        <time>2024-05-17T13:09:58Z</time>
      </trkpt>
      <trkpt lat="44.6864" lon="5.05882">
        <ele>276.3</ele>
        <time>2024-05-17T13:09:59Z</time>
      </trkpt>
      <trkpt lat="44.68637" lon="5.05882">
        <ele>276.5</ele>
        <time>2024-05-17T13:10:00Z</time>
      </trkpt>
      <trkpt lat="44.68634" lon="5.05881">
        <ele>276.8</ele>
        <time>2024-05-17T13:10:01Z</time>
      </trkpt>
      <trkpt lat="44.6863" lon="5.05881">
        <ele>277</ele>
        <time>2024-05-17T13:10:02Z</time>
      </trkpt>
      <trkpt lat="44.68627" lon="5.05881">
        <ele>277.3</ele>
        <time>2024-05-17T13:10:03Z</time>
      </trkpt>
      <trkpt lat="44.68623" lon="5.05881">
        <ele>277.5</ele>
        <time>2024-05-17T13:10:04Z</time>
      </trkpt>
      <trkpt lat="44.68619" lon="5.0588">
        <ele>277.7</ele>
        <time>2024-05-17T13:10:05Z</time>
      </trkpt>
      <trkpt lat="44.68615" lon="5.05879">
        <ele>278</ele>
        <time>2024-05-17T13:10:06Z</time>
      </trkpt>
      <trkpt lat="44.68611" lon="5.05878">
        <ele>278.2</ele>
        <time>2024-05-17T13:10:07Z</time>
      </trkpt>
      <trkpt lat="44.68607" lon="5.05878">
        <ele>278.4</ele>
        <time>2024-05-17T13:10:08Z</time>
      </trkpt>
      <trkpt lat="44.68602" lon="5.05877">
        <ele>278.7</ele>
        <time>2024-05-17T13:10:09Z</time>
      </trkpt>
      <trkpt lat="44.686" lon="5.05877">
        <ele>278.8</ele>
        <time>2024-05-17T13:10:10Z</time>
      </trkpt>
      <trkpt lat="44.68595" lon="5.05877">
        <ele>279.1</ele>
        <time>2024-05-17T13:10:11Z</time>
      </trkpt>
      <trkpt lat="44.68593" lon="5.05877">
        <ele>279.2</ele>
        <time>2024-05-17T13:10:12Z</time>
      </trkpt>
      <trkpt lat="44.6859" lon="5.05877">
        <ele>279.4</ele>
        <time>2024-05-17T13:10:13Z</time>
      </trkpt>
      <trkpt lat="44.68586" lon="5.05877">
        <ele>279.5</ele>
        <time>2024-05-17T13:10:14Z</time>
      </trkpt>
      <trkpt lat="44.68581" lon="5.05878">
        <ele>279.8</ele>
        <time>2024-05-17T13:10:15Z</time>
      </trkpt>
      <trkpt lat="44.68579" lon="5.05879">
        <ele>279.9</ele>
        <time>2024-05-17T13:10:16Z</time>
      </trkpt>
      <trkpt lat="44.68573" lon="5.05879">
        <ele>280.1</ele>
        <time>2024-05-17T13:10:17Z</time>
      </trkpt>
      <trkpt lat="44.68571" lon="5.0588">
        <ele>280.2</ele>
        <time>2024-05-17T13:10:18Z</time>
      </trkpt>
      <trkpt lat="44.68565" lon="5.05881">
        <ele>280.4</ele>
        <time>2024-05-17T13:10:19Z</time>
      </trkpt>
      <trkpt lat="44.68563" lon="5.05882">
        <ele>280.5</ele>
        <time>2024-05-17T13:10:20Z</time>
      </trkpt>
      <trkpt lat="44.68557" lon="5.05885">
        <ele>280.7</ele>
        <time>2024-05-17T13:10:21Z</time>
      </trkpt>
      <trkpt lat="44.68555" lon="5.05886">
        <ele>280.8</ele>
        <time>2024-05-17T13:10:22Z</time>
      </trkpt>
      <trkpt lat="44.68549" lon="5.05889">
        <ele>281</ele>
        <time>2024-05-17T13:10:23Z</time>
      </trkpt>
      <trkpt lat="44.68547" lon="5.0589">
        <ele>281.1</ele>
        <time>2024-05-17T13:10:24Z</time>
      </trkpt>
      <trkpt lat="44.68541" lon="5.05894">
        <ele>281.2</ele>
        <time>2024-05-17T13:10:25Z</time>
      </trkpt>
      <trkpt lat="44.68539" lon="5.05895">
        <ele>281.3</ele>
        <time>2024-05-17T13:10:26Z</time>
      </trkpt>
      <trkpt lat="44.68533" lon="5.059">
        <ele>281.5</ele>
        <time>2024-05-17T13:10:27Z</time>
      </trkpt>
      <trkpt lat="44.68531" lon="5.05902">
        <ele>281.6</ele>
        <time>2024-05-17T13:10:28Z</time>
      </trkpt>
      <trkpt lat="44.68526" lon="5.05907">
        <ele>281.7</ele>
        <time>2024-05-17T13:10:29Z</time>
      </trkpt>
      <trkpt lat="44.68524" lon="5.05908">
        <ele>281.8</ele>
        <time>2024-05-17T13:10:30Z</time>
      </trkpt>
      <trkpt lat="44.6852" lon="5.05913">
        <ele>281.9</ele>
        <time>2024-05-17T13:10:31Z</time>
      </trkpt>
      <trkpt lat="44.68515" lon="5.0592">
        <ele>282.1</ele>
        <time>2024-05-17T13:10:32Z</time>
      </trkpt>
      <trkpt lat="44.68514" lon="5.05923">
        <ele>282.2</ele>
        <time>2024-05-17T13:10:33Z</time>
      </trkpt>
      <trkpt lat="44.68511" lon="5.05928">
        <ele>282.3</ele>
        <time>2024-05-17T13:10:34Z</time>
      </trkpt>
      <trkpt lat="44.68506" lon="5.05937">
        <ele>282.5</ele>
        <time>2024-05-17T13:10:35Z</time>
      </trkpt>
      <trkpt lat="44.68505" lon="5.0594">
        <ele>282.6</ele>
        <time>2024-05-17T13:10:36Z</time>
      </trkpt>
      <trkpt lat="44.685" lon="5.05949">
        <ele>282.8</ele>
        <time>2024-05-17T13:10:37Z</time>
      </trkpt>
      <trkpt lat="44.68499" lon="5.05952">
        <ele>282.9</ele>
        <time>2024-05-17T13:10:38Z</time>
      </trkpt>
      <trkpt lat="44.68494" lon="5.0596">
        <ele>283.1</ele>
        <time>2024-05-17T13:10:39Z</time>
      </trkpt>
      <trkpt lat="44.68493" lon="5.05963">
        <ele>283.1</ele>
        <time>2024-05-17T13:10:40Z</time>
      </trkpt>
      <trkpt lat="44.68488" lon="5.05972">
        <ele>283.3</ele>
        <time>2024-05-17T13:10:41Z</time>
      </trkpt>
      <trkpt lat="44.68486" lon="5.05975">
        <ele>283.4</ele>
        <time>2024-05-17T13:10:42Z</time>
      </trkpt>
      <trkpt lat="44.68483" lon="5.0598">
        <ele>283.5</ele>
        <time>2024-05-17T13:10:43Z</time>
      </trkpt>
      <trkpt lat="44.6848" lon="5.05985">
        <ele>283.7</ele>
        <time>2024-05-17T13:10:44Z</time>
      </trkpt>
      <trkpt lat="44.68478" lon="5.05991">
        <ele>283.8</ele>
        <time>2024-05-17T13:10:45Z</time>
      </trkpt>
      <trkpt lat="44.68475" lon="5.05996">
        <ele>284</ele>
        <time>2024-05-17T13:10:46Z</time>
      </trkpt>
      <trkpt lat="44.68472" lon="5.06002">
        <ele>284.1</ele>
        <time>2024-05-17T13:10:47Z</time>
      </trkpt>
      <trkpt lat="44.68469" lon="5.06006">
        <ele>284.3</ele>
        <time>2024-05-17T13:10:48Z</time>
      </trkpt>
      <trkpt lat="44.68465" lon="5.06011">
        <ele>284.4</ele>
        <time>2024-05-17T13:10:49Z</time>
      </trkpt>
      <trkpt lat="44.68462" lon="5.06015">
        <ele>284.6</ele>
        <time>2024-05-17T13:10:50Z</time>
      </trkpt>
      <trkpt lat="44.68456" lon="5.06022">
        <ele>284.8</ele>
        <time>2024-05-17T13:10:51Z</time>
      </trkpt>
      <trkpt lat="44.68454" lon="5.06024">
        <ele>284.8</ele>
        <time>2024-05-17T13:10:52Z</time>
      </trkpt>
      <trkpt lat="44.68449" lon="5.0603">
        <ele>285</ele>
        <time>2024-05-17T13:10:53Z</time>
      </trkpt>
      <trkpt lat="44.68447" lon="5.06032">
        <ele>285.1</ele>
        <time>2024-05-17T13:10:54Z</time>
      </trkpt>
      <trkpt lat="44.68442" lon="5.06038">
        <ele>285.3</ele>
        <time>2024-05-17T13:10:55Z</time>
      </trkpt>
      <trkpt lat="44.6844" lon="5.0604">
        <ele>285.3</ele>
        <time>2024-05-17T13:10:56Z</time>
      </trkpt>
      <trkpt lat="44.68435" lon="5.06046">
        <ele>285.5</ele>
        <time>2024-05-17T13:10:57Z</time>
      </trkpt>
      <trkpt lat="44.68434" lon="5.06048">
        <ele>285.6</ele>
        <time>2024-05-17T13:10:58Z</time>
      </trkpt>
      <trkpt lat="44.68428" lon="5.06054">
        <ele>285.7</ele>
        <time>2024-05-17T13:10:59Z</time>
      </trkpt>
      <trkpt lat="44.68426" lon="5.06056">
        <ele>285.8</ele>
        <time>2024-05-17T13:11:00Z</time>
      </trkpt>
      <trkpt lat="44.68422" lon="5.0606">
        <ele>285.9</ele>
        <time>2024-05-17T13:11:01Z</time>
      </trkpt>
      <trkpt lat="44.68417" lon="5.06066">
        <ele>286</ele>
        <time>2024-05-17T13:11:02Z</time>
      </trkpt>
      <trkpt lat="44.68415" lon="5.06068">
        <ele>286</ele>
        <time>2024-05-17T13:11:03Z</time>
      </trkpt>
      <trkpt lat="44.6841" lon="5.06074">
        <ele>286.1</ele>
        <time>2024-05-17T13:11:04Z</time>
      </trkpt>
      <trkpt lat="44.68408" lon="5.06076">
        <ele>286.1</ele>
        <time>2024-05-17T13:11:05Z</time>
      </trkpt>
      <trkpt lat="44.68402" lon="5.06083">
        <ele>286.1</ele>
        <time>2024-05-17T13:11:06Z</time>
      </trkpt>
      <trkpt lat="44.684" lon="5.06085">
        <ele>286.1</ele>
        <time>2024-05-17T13:11:07Z</time>
      </trkpt>
      <trkpt lat="44.68393" lon="5.06091">
        <ele>286</ele>
        <time>2024-05-17T13:11:08Z</time>
      </trkpt>
      <trkpt lat="44.68391" lon="5.06094">
        <ele>286</ele>
        <time>2024-05-17T13:11:09Z</time>
      </trkpt>
      <trkpt lat="44.68384" lon="5.061">
        <ele>286</ele>
        <time>2024-05-17T13:11:10Z</time>
      </trkpt>
      <trkpt lat="44.68382" lon="5.06103">
        <ele>285.9</ele>
        <time>2024-05-17T13:11:11Z</time>
      </trkpt>
      <trkpt lat="44.68375" lon="5.06111">
        <ele>285.8</ele>
        <time>2024-05-17T13:11:12Z</time>
      </trkpt>
      <trkpt lat="44.68373" lon="5.06113">
        <ele>285.8</ele>
        <time>2024-05-17T13:11:13Z</time>
      </trkpt>
      <trkpt lat="44.68368" lon="5.06119">
        <ele>285.7</ele>
        <time>2024-05-17T13:11:14Z</time>
      </trkpt>
      <trkpt lat="44.68361" lon="5.06126">
        <ele>285.7</ele>
        <time>2024-05-17T13:11:15Z</time>
      </trkpt>
      <trkpt lat="44.68359" lon="5.06129">
        <ele>285.6</ele>
        <time>2024-05-17T13:11:16Z</time>
      </trkpt>
      <trkpt lat="44.68352" lon="5.06137">
        <ele>285.6</ele>
        <time>2024-05-17T13:11:17Z</time>
      </trkpt>
      <trkpt lat="44.68349" lon="5.06139">
        <ele>285.6</ele>
        <time>2024-05-17T13:11:18Z</time>
      </trkpt>
      <trkpt lat="44.68342" lon="5.06147">
        <ele>285.5</ele>
        <time>2024-05-17T13:11:19Z</time>
      </trkpt>
      <trkpt lat="44.68339" lon="5.0615">
        <ele>285.5</ele>
        <time>2024-05-17T13:11:20Z</time>
      </trkpt>
      <trkpt lat="44.68332" lon="5.06157">
        <ele>285.4</ele>
        <time>2024-05-17T13:11:21Z</time>
      </trkpt>
      <trkpt lat="44.68329" lon="5.0616">
        <ele>285.4</ele>
        <time>2024-05-17T13:11:22Z</time>
      </trkpt>
      <trkpt lat="44.68325" lon="5.06165">
        <ele>285.4</ele>
        <time>2024-05-17T13:11:23Z</time>
      </trkpt>
      <trkpt lat="44.68318" lon="5.06173">
        <ele>285.4</ele>
        <time>2024-05-17T13:11:24Z</time>
      </trkpt>
      <trkpt lat="44.68315" lon="5.06175">
        <ele>285.4</ele>
        <time>2024-05-17T13:11:25Z</time>
      </trkpt>
      <trkpt lat="44.68308" lon="5.06183">
        <ele>285.5</ele>
        <time>2024-05-17T13:11:26Z</time>
      </trkpt>
      <trkpt lat="44.68305" lon="5.06185">
        <ele>285.6</ele>
        <time>2024-05-17T13:11:27Z</time>
      </trkpt>
      <trkpt lat="44.683" lon="5.0619">
        <ele>285.7</ele>
        <time>2024-05-17T13:11:28Z</time>
      </trkpt>
      <trkpt lat="44.68295" lon="5.06195">
        <ele>285.8</ele>
        <time>2024-05-17T13:11:29Z</time>
      </trkpt>
      <trkpt lat="44.68291" lon="5.06199">
        <ele>285.9</ele>
        <time>2024-05-17T13:11:30Z</time>
      </trkpt>
      <trkpt lat="44.68286" lon="5.06204">
        <ele>286.1</ele>
        <time>2024-05-17T13:11:31Z</time>
      </trkpt>
      <trkpt lat="44.68282" lon="5.06208">
        <ele>286.3</ele>
        <time>2024-05-17T13:11:32Z</time>
      </trkpt>
      <trkpt lat="44.68278" lon="5.06212">
        <ele>286.4</ele>
        <time>2024-05-17T13:11:33Z</time>
      </trkpt>
      <trkpt lat="44.68272" lon="5.06218">
        <ele>286.7</ele>
        <time>2024-05-17T13:11:34Z</time>
      </trkpt>
      <trkpt lat="44.6827" lon="5.0622">
        <ele>286.8</ele>
        <time>2024-05-17T13:11:35Z</time>
      </trkpt>
      <trkpt lat="44.68264" lon="5.06226">
        <ele>287.1</ele>
        <time>2024-05-17T13:11:36Z</time>
      </trkpt>
      <trkpt lat="44.68262" lon="5.06228">
        <ele>287.2</ele>
        <time>2024-05-17T13:11:37Z</time>
      </trkpt>
      <trkpt lat="44.68258" lon="5.06232">
        <ele>287.4</ele>
        <time>2024-05-17T13:11:38Z</time>
      </trkpt>
      <trkpt lat="44.68254" lon="5.06236">
        <ele>287.6</ele>
        <time>2024-05-17T13:11:39Z</time>
      </trkpt>
      <trkpt lat="44.68248" lon="5.06242">
        <ele>287.7</ele>
        <time>2024-05-17T13:11:40Z</time>
      </trkpt>
      <trkpt lat="44.68247" lon="5.06244">
        <ele>287.7</ele>
        <time>2024-05-17T13:11:41Z</time>
      </trkpt>
      <trkpt lat="44.68243" lon="5.06248">
        <ele>287.8</ele>
        <time>2024-05-17T13:11:42Z</time>
      </trkpt>
      <trkpt lat="44.68237" lon="5.06253">
        <ele>288.2</ele>
        <time>2024-05-17T13:11:43Z</time>
      </trkpt>
      <trkpt lat="44.68235" lon="5.06255">
        <ele>288.3</ele>
        <time>2024-05-17T13:11:44Z</time>
      </trkpt>
      <trkpt lat="44.68228" lon="5.06261">
        <ele>288.7</ele>
        <time>2024-05-17T13:11:45Z</time>
      </trkpt>
      <trkpt lat="44.68226" lon="5.06263">
        <ele>288.8</ele>
        <time>2024-05-17T13:11:46Z</time>
      </trkpt>
      <trkpt lat="44.6822" lon="5.0627">
        <ele>289.3</ele>
        <time>2024-05-17T13:11:47Z</time>
      </trkpt>
      <trkpt lat="44.68218" lon="5.06272">
        <ele>289.4</ele>
        <time>2024-05-17T13:11:48Z</time>
      </trkpt>
      <trkpt lat="44.68212" lon="5.06277">
        <ele>289.8</ele>
        <time>2024-05-17T13:11:49Z</time>
      </trkpt>
      <trkpt lat="44.6821" lon="5.06279">
        <ele>290</ele>
        <time>2024-05-17T13:11:50Z</time>
      </trkpt>
      <trkpt lat="44.68206" lon="5.06283">
        <ele>290.3</ele>
        <time>2024-05-17T13:11:51Z</time>
      </trkpt>
      <trkpt lat="44.68201" lon="5.06289">
        <ele>290.7</ele>
        <time>2024-05-17T13:11:52Z</time>
      </trkpt>
      <trkpt lat="44.68199" lon="5.06292">
        <ele>290.9</ele>
        <time>2024-05-17T13:11:53Z</time>
      </trkpt>
      <trkpt lat="44.68193" lon="5.06298">
        <ele>291.3</ele>
        <time>2024-05-17T13:11:54Z</time>
      </trkpt>
      <trkpt lat="44.68191" lon="5.063">
        <ele>291.5</ele>
        <time>2024-05-17T13:11:55Z</time>
      </trkpt>
      <trkpt lat="44.68184" lon="5.06306">
        <ele>292</ele>
        <time>2024-05-17T13:11:56Z</time>
      </trkpt>
      <trkpt lat="44.68182" lon="5.06307">
        <ele>292.1</ele>
        <time>2024-05-17T13:11:57Z</time>
      </trkpt>
      <trkpt lat="44.68177" lon="5.06313">
        <ele>292.5</ele>
        <time>2024-05-17T13:11:58Z</time>
      </trkpt>
      <trkpt lat="44.68175" lon="5.06315">
        <ele>292.7</ele>
        <time>2024-05-17T13:11:59Z</time>
      </trkpt>
      <trkpt lat="44.68172" lon="5.06318">
        <ele>292.9</ele>
        <time>2024-05-17T13:12:00Z</time>
      </trkpt>
      <trkpt lat="44.68167" lon="5.06324">
        <ele>293.3</ele>
        <time>2024-05-17T13:12:01Z</time>
      </trkpt>
      <trkpt lat="44.68165" lon="5.06325">
        <ele>293.4</ele>
        <time>2024-05-17T13:12:02Z</time>
      </trkpt>
      <trkpt lat="44.6816" lon="5.06332">
        <ele>293.8</ele>
        <time>2024-05-17T13:12:03Z</time>
      </trkpt>
      <trkpt lat="44.68158" lon="5.06334">
        <ele>293.9</ele>
        <time>2024-05-17T13:12:04Z</time>
      </trkpt>
      <trkpt lat="44.68153" lon="5.0634">
        <ele>294.2</ele>
        <time>2024-05-17T13:12:05Z</time>
      </trkpt>
      <trkpt lat="44.68151" lon="5.06343">
        <ele>294.3</ele>
        <time>2024-05-17T13:12:06Z</time>
      </trkpt>
      <trkpt lat="44.68145" lon="5.06349">
        <ele>294.7</ele>
        <time>2024-05-17T13:12:07Z</time>
      </trkpt>
      <trkpt lat="44.68143" lon="5.06351">
        <ele>294.8</ele>
        <time>2024-05-17T13:12:08Z</time>
      </trkpt>
      <trkpt lat="44.68136" lon="5.06357">
        <ele>295</ele>
        <time>2024-05-17T13:12:09Z</time>
      </trkpt>
      <trkpt lat="44.68134" lon="5.06359">
        <ele>295.1</ele>
        <time>2024-05-17T13:12:10Z</time>
      </trkpt>
      <trkpt lat="44.6813" lon="5.06363">
        <ele>295.3</ele>
        <time>2024-05-17T13:12:11Z</time>
      </trkpt>
      <trkpt lat="44.68126" lon="5.06367">
        <ele>295.4</ele>
        <time>2024-05-17T13:12:12Z</time>
      </trkpt>
      <trkpt lat="44.68122" lon="5.06372">
        <ele>295.5</ele>
        <time>2024-05-17T13:12:13Z</time>
      </trkpt>
      <trkpt lat="44.68118" lon="5.06376">
        <ele>295.6</ele>
        <time>2024-05-17T13:12:14Z</time>
      </trkpt>
      <trkpt lat="44.68114" lon="5.06381">
        <ele>295.7</ele>
        <time>2024-05-17T13:12:15Z</time>
      </trkpt>
      <trkpt lat="44.6811" lon="5.06386">
        <ele>295.8</ele>
        <time>2024-05-17T13:12:16Z</time>
      </trkpt>
      <trkpt lat="44.68104" lon="5.06393">
        <ele>295.8</ele>
        <time>2024-05-17T13:12:17Z</time>
      </trkpt>
      <trkpt lat="44.68101" lon="5.06396">
        <ele>295.9</ele>
        <time>2024-05-17T13:12:18Z</time>
      </trkpt>
      <trkpt lat="44.68097" lon="5.06401">
        <ele>295.9</ele>
        <time>2024-05-17T13:12:19Z</time>
      </trkpt>
      <trkpt lat="44.68093" lon="5.06406">
        <ele>296</ele>
        <time>2024-05-17T13:12:20Z</time>
      </trkpt>
      <trkpt lat="44.68087" lon="5.06414">
        <ele>296</ele>
        <time>2024-05-17T13:12:21Z</time>
      </trkpt>
      <trkpt lat="44.68085" lon="5.06416">
        <ele>296</ele>
        <time>2024-05-17T13:12:22Z</time>
      </trkpt>
      <trkpt lat="44.68079" lon="5.06424">
        <ele>296.1</ele>
        <time>2024-05-17T13:12:23Z</time>
      </trkpt>
      <trkpt lat="44.68077" lon="5.06426">
        <ele>296.1</ele>
        <time>2024-05-17T13:12:24Z</time>
      </trkpt>
      <trkpt lat="44.68071" lon="5.06434">
        <ele>296.1</ele>
        <time>2024-05-17T13:12:25Z</time>
      </trkpt>
      <trkpt lat="44.68069" lon="5.06437">
        <ele>296.1</ele>
        <time>2024-05-17T13:12:26Z</time>
      </trkpt>
      <trkpt lat="44.68063" lon="5.06444">
        <ele>296.2</ele>
        <time>2024-05-17T13:12:27Z</time>
      </trkpt>
      <trkpt lat="44.68061" lon="5.06447">
        <ele>296.2</ele>
        <time>2024-05-17T13:12:28Z</time>
      </trkpt>
      <trkpt lat="44.68054" lon="5.06454">
        <ele>296.3</ele>
        <time>2024-05-17T13:12:29Z</time>
      </trkpt>
      <trkpt lat="44.68052" lon="5.06457">
        <ele>296.3</ele>
        <time>2024-05-17T13:12:30Z</time>
      </trkpt>
      <trkpt lat="44.68045" lon="5.06465">
        <ele>296.4</ele>
        <time>2024-05-17T13:12:31Z</time>
      </trkpt>
      <trkpt lat="44.68043" lon="5.06468">
        <ele>296.4</ele>
        <time>2024-05-17T13:12:32Z</time>
      </trkpt>
      <trkpt lat="44.68037" lon="5.06477">
        <ele>296.6</ele>
        <time>2024-05-17T13:12:33Z</time>
      </trkpt>
      <trkpt lat="44.68036" lon="5.06481">
        <ele>296.6</ele>
        <time>2024-05-17T13:12:34Z</time>
      </trkpt>
      <trkpt lat="44.68031" lon="5.0649">
        <ele>296.8</ele>
        <time>2024-05-17T13:12:35Z</time>
      </trkpt>
      <trkpt lat="44.68029" lon="5.06494">
        <ele>296.9</ele>
        <time>2024-05-17T13:12:36Z</time>
      </trkpt>
      <trkpt lat="44.68024" lon="5.06504">
        <ele>297.1</ele>
        <time>2024-05-17T13:12:37Z</time>
      </trkpt>
      <trkpt lat="44.68023" lon="5.06507">
        <ele>297.1</ele>
        <time>2024-05-17T13:12:38Z</time>
      </trkpt>
      <trkpt lat="44.68018" lon="5.06517">
        <ele>297.3</ele>
        <time>2024-05-17T13:12:39Z</time>
      </trkpt>
      <trkpt lat="44.68017" lon="5.0652">
        <ele>297.4</ele>
        <time>2024-05-17T13:12:40Z</time>
      </trkpt>
      <trkpt lat="44.68012" lon="5.0653">
        <ele>297.7</ele>
        <time>2024-05-17T13:12:41Z</time>
      </trkpt>
      <trkpt lat="44.6801" lon="5.06533">
        <ele>297.7</ele>
        <time>2024-05-17T13:12:42Z</time>
      </trkpt>
      <trkpt lat="44.68005" lon="5.06543">
        <ele>298</ele>
        <time>2024-05-17T13:12:43Z</time>
      </trkpt>
      <trkpt lat="44.68004" lon="5.06546">
        <ele>298.1</ele>
        <time>2024-05-17T13:12:44Z</time>
      </trkpt>
      <trkpt lat="44.67999" lon="5.06554">
        <ele>298.5</ele>
        <time>2024-05-17T13:12:45Z</time>
      </trkpt>
      <trkpt lat="44.67997" lon="5.06557">
        <ele>298.6</ele>
        <time>2024-05-17T13:12:46Z</time>
      </trkpt>
      <trkpt lat="44.67991" lon="5.06564">
        <ele>299</ele>
        <time>2024-05-17T13:12:47Z</time>
      </trkpt>
      <trkpt lat="44.6799" lon="5.06566">
        <ele>299.1</ele>
        <time>2024-05-17T13:12:48Z</time>
      </trkpt>
      <trkpt lat="44.67986" lon="5.0657">
        <ele>299.4</ele>
        <time>2024-05-17T13:12:49Z</time>
      </trkpt>
      <trkpt lat="44.67983" lon="5.06575">
        <ele>299.7</ele>
        <time>2024-05-17T13:12:50Z</time>
      </trkpt>
      <trkpt lat="44.67978" lon="5.06583">
        <ele>300.2</ele>
        <time>2024-05-17T13:12:51Z</time>
      </trkpt>
      <trkpt lat="44.67976" lon="5.06585">
        <ele>300.3</ele>
        <time>2024-05-17T13:12:52Z</time>
      </trkpt>
      <trkpt lat="44.67972" lon="5.06591">
        <ele>300.7</ele>
        <time>2024-05-17T13:12:53Z</time>
      </trkpt>
      <trkpt lat="44.67968" lon="5.06596">
        <ele>301.1</ele>
        <time>2024-05-17T13:12:54Z</time>
      </trkpt>
      <trkpt lat="44.67965" lon="5.06602">
        <ele>301.5</ele>
        <time>2024-05-17T13:12:55Z</time>
      </trkpt>
      <trkpt lat="44.67963" lon="5.06607">
        <ele>301.9</ele>
        <time>2024-05-17T13:12:56Z</time>
      </trkpt>
      <trkpt lat="44.67961" lon="5.06612">
        <ele>302.2</ele>
        <time>2024-05-17T13:12:57Z</time>
      </trkpt>
      <trkpt lat="44.6796" lon="5.06618">
        <ele>302.5</ele>
        <time>2024-05-17T13:12:58Z</time>
      </trkpt>
      <trkpt lat="44.67958" lon="5.06623">
        <ele>302.8</ele>
        <time>2024-05-17T13:12:59Z</time>
      </trkpt>
      <trkpt lat="44.67956" lon="5.06632">
        <ele>303.3</ele>
        <time>2024-05-17T13:13:00Z</time>
      </trkpt>
      <trkpt lat="44.67956" lon="5.06635">
        <ele>303.4</ele>
        <time>2024-05-17T13:13:01Z</time>
      </trkpt>
      <trkpt lat="44.67953" lon="5.06644">
        <ele>303.9</ele>
        <time>2024-05-17T13:13:02Z</time>
      </trkpt>
      <trkpt lat="44.67952" lon="5.06647">
        <ele>304.1</ele>
        <time>2024-05-17T13:13:03Z</time>
      </trkpt>
      <trkpt lat="44.6795" lon="5.06653">
        <ele>304.4</ele>
        <time>2024-05-17T13:13:04Z</time>
      </trkpt>
      <trkpt lat="44.67947" lon="5.06661">
        <ele>304.8</ele>
        <time>2024-05-17T13:13:05Z</time>
      </trkpt>
      <trkpt lat="44.67946" lon="5.06664">
        <ele>304.9</ele>
        <time>2024-05-17T13:13:06Z</time>
      </trkpt>
      <trkpt lat="44.67944" lon="5.06668">
        <ele>305.2</ele>
        <time>2024-05-17T13:13:07Z</time>
      </trkpt>
      <trkpt lat="44.67942" lon="5.06673">
        <ele>305.4</ele>
        <time>2024-05-17T13:13:08Z</time>
      </trkpt>
      <trkpt lat="44.6794" lon="5.06678">
        <ele>305.7</ele>
        <time>2024-05-17T13:13:09Z</time>
      </trkpt>
      <trkpt lat="44.67939" lon="5.06682">
        <ele>305.9</ele>
        <time>2024-05-17T13:13:10Z</time>
      </trkpt>
      <trkpt lat="44.67937" lon="5.06686">
        <ele>306.1</ele>
        <time>2024-05-17T13:13:11Z</time>
      </trkpt>
      <trkpt lat="44.67934" lon="5.06692">
        <ele>306.5</ele>
        <time>2024-05-17T13:13:12Z</time>
      </trkpt>
      <trkpt lat="44.67933" lon="5.06694">
        <ele>306.7</ele>
        <time>2024-05-17T13:13:13Z</time>
      </trkpt>
      <trkpt lat="44.6793" lon="5.06701">
        <ele>307</ele>
        <time>2024-05-17T13:13:14Z</time>
      </trkpt>
      <trkpt lat="44.67929" lon="5.06703">
        <ele>307.2</ele>
        <time>2024-05-17T13:13:15Z</time>
      </trkpt>
      <trkpt lat="44.67928" lon="5.06707">
        <ele>307.4</ele>
        <time>2024-05-17T13:13:16Z</time>
      </trkpt>
      <trkpt lat="44.67927" lon="5.06712">
        <ele>307.7</ele>
        <time>2024-05-17T13:13:17Z</time>
      </trkpt>
      <trkpt lat="44.67926" lon="5.06717">
        <ele>307.9</ele>
        <time>2024-05-17T13:13:18Z</time>
      </trkpt>
      <trkpt lat="44.67925" lon="5.06721">
        <ele>308.1</ele>
        <time>2024-05-17T13:13:19Z</time>
      </trkpt>
      <trkpt lat="44.67924" lon="5.06726">
        <ele>308.4</ele>
        <time>2024-05-17T13:13:20Z</time>
      </trkpt>
      <trkpt lat="44.67923" lon="5.0673">
        <ele>308.6</ele>
        <time>2024-05-17T13:13:21Z</time>
      </trkpt>
      <trkpt lat="44.67922" lon="5.06735">
        <ele>308.8</ele>
        <time>2024-05-17T13:13:22Z</time>
      </trkpt>
      <trkpt lat="44.67921" lon="5.06742">
        <ele>309.2</ele>
        <time>2024-05-17T13:13:23Z</time>
      </trkpt>
      <trkpt lat="44.67921" lon="5.06744">
        <ele>309.3</ele>
        <time>2024-05-17T13:13:24Z</time>
      </trkpt>
      <trkpt lat="44.6792" lon="5.06749">
        <ele>309.5</ele>
        <time>2024-05-17T13:13:25Z</time>
      </trkpt>
      <trkpt lat="44.67919" lon="5.06754">
        <ele>309.7</ele>
        <time>2024-05-17T13:13:26Z</time>
      </trkpt>
      <trkpt lat="44.67918" lon="5.06759">
        <ele>310</ele>
        <time>2024-05-17T13:13:27Z</time>
      </trkpt>
      <trkpt lat="44.67918" lon="5.06766">
        <ele>310.3</ele>
        <time>2024-05-17T13:13:28Z</time>
      </trkpt>
      <trkpt lat="44.67917" lon="5.06768">
        <ele>310.4</ele>
        <time>2024-05-17T13:13:29Z</time>
      </trkpt>
      <trkpt lat="44.67916" lon="5.06775">
        <ele>310.8</ele>
        <time>2024-05-17T13:13:30Z</time>
      </trkpt>
      <trkpt lat="44.67916" lon="5.06777">
        <ele>310.9</ele>
        <time>2024-05-17T13:13:31Z</time>
      </trkpt>
      <trkpt lat="44.67915" lon="5.06782">
        <ele>311.1</ele>
        <time>2024-05-17T13:13:32Z</time>
      </trkpt>
      <trkpt lat="44.67914" lon="5.06787">
        <ele>311.4</ele>
        <time>2024-05-17T13:13:33Z</time>
      </trkpt>
      <trkpt lat="44.67913" lon="5.06792">
        <ele>311.6</ele>
        <time>2024-05-17T13:13:34Z</time>
      </trkpt>
      <trkpt lat="44.67912" lon="5.06797">
        <ele>311.8</ele>
        <time>2024-05-17T13:13:35Z</time>
      </trkpt>
      <trkpt lat="44.67911" lon="5.06802">
        <ele>312.1</ele>
        <time>2024-05-17T13:13:36Z</time>
      </trkpt>
      <trkpt lat="44.6791" lon="5.06806">
        <ele>312.3</ele>
        <time>2024-05-17T13:13:37Z</time>
      </trkpt>
      <trkpt lat="44.6791" lon="5.06811">
        <ele>312.5</ele>
        <time>2024-05-17T13:13:38Z</time>
      </trkpt>
      <trkpt lat="44.67909" lon="5.06816">
        <ele>312.7</ele>
        <time>2024-05-17T13:13:39Z</time>
      </trkpt>
      <trkpt lat="44.67908" lon="5.06821">
        <ele>312.9</ele>
        <time>2024-05-17T13:13:40Z</time>
      </trkpt>
      <trkpt lat="44.67907" lon="5.06826">
        <ele>313.1</ele>
        <time>2024-05-17T13:13:41Z</time>
      </trkpt>
      <trkpt lat="44.67906" lon="5.06831">
        <ele>313.3</ele>
        <time>2024-05-17T13:13:42Z</time>
      </trkpt>
      <trkpt lat="44.67904" lon="5.06837">
        <ele>313.6</ele>
        <time>2024-05-17T13:13:43Z</time>
      </trkpt>
      <trkpt lat="44.67903" lon="5.0684">
        <ele>313.7</ele>
        <time>2024-05-17T13:13:44Z</time>
      </trkpt>
      <trkpt lat="44.679" lon="5.06846">
        <ele>314</ele>
        <time>2024-05-17T13:13:45Z</time>
      </trkpt>
      <trkpt lat="44.67899" lon="5.06848">
        <ele>314.1</ele>
        <time>2024-05-17T13:13:46Z</time>
      </trkpt>
      <trkpt lat="44.67895" lon="5.06852">
        <ele>314.2</ele>
        <time>2024-05-17T13:13:47Z</time>
      </trkpt>
      <trkpt lat="44.67891" lon="5.06854">
        <ele>314.4</ele>
        <time>2024-05-17T13:13:48Z</time>
      </trkpt>
      <trkpt lat="44.67885" lon="5.06854">
        <ele>314.6</ele>
        <time>2024-05-17T13:13:49Z</time>
      </trkpt>
      <trkpt lat="44.67883" lon="5.06854">
        <ele>314.6</ele>
        <time>2024-05-17T13:13:50Z</time>
      </trkpt>
      <trkpt lat="44.67876" lon="5.0685">
        <ele>314.7</ele>
        <time>2024-05-17T13:13:51Z</time>
      </trkpt>
      <trkpt lat="44.67875" lon="5.06849">
        <ele>314.8</ele>
        <time>2024-05-17T13:13:52Z</time>
      </trkpt>
      <trkpt lat="44.67872" lon="5.06844">
        <ele>315</ele>
        <time>2024-05-17T13:13:53Z</time>
      </trkpt>
      <trkpt lat="44.6787" lon="5.06837">
        <ele>315.3</ele>
        <time>2024-05-17T13:13:54Z</time>
      </trkpt>
      <trkpt lat="44.67869" lon="5.06834">
        <ele>315.4</ele>
        <time>2024-05-17T13:13:55Z</time>
      </trkpt>
      <trkpt lat="44.67869" lon="5.0683">
        <ele>315.5</ele>
        <time>2024-05-17T13:13:56Z</time>
      </trkpt>
      <trkpt lat="44.67869" lon="5.06822">
        <ele>315.9</ele>
        <time>2024-05-17T13:13:57Z</time>
      </trkpt>
      <trkpt lat="44.67869" lon="5.0682">
        <ele>316</ele>
        <time>2024-05-17T13:13:58Z</time>
      </trkpt>
      <trkpt lat="44.67869" lon="5.06816">
        <ele>316.2</ele>
        <time>2024-05-17T13:13:59Z</time>
      </trkpt>
      <trkpt lat="44.67869" lon="5.06811">
        <ele>316.4</ele>
        <time>2024-05-17T13:14:00Z</time>
      </trkpt>
      <trkpt lat="44.67869" lon="5.06807">
        <ele>316.7</ele>
        <time>2024-05-17T13:14:01Z</time>
      </trkpt>
      <trkpt lat="44.67869" lon="5.06802">
        <ele>316.9</ele>
        <time>2024-05-17T13:14:02Z</time>
      </trkpt>
      <trkpt lat="44.67869" lon="5.06798">
        <ele>317.2</ele>
        <time>2024-05-17T13:14:03Z</time>
      </trkpt>
      <trkpt lat="44.67869" lon="5.06794">
        <ele>317.4</ele>
        <time>2024-05-17T13:14:04Z</time>
      </trkpt>
      <trkpt lat="44.67868" lon="5.06789">
        <ele>317.7</ele>
        <time>2024-05-17T13:14:05Z</time>
      </trkpt>
      <trkpt lat="44.67868" lon="5.06781">
        <ele>318.2</ele>
        <time>2024-05-17T13:14:06Z</time>
      </trkpt>
      <trkpt lat="44.67868" lon="5.06779">
        <ele>318.4</ele>
        <time>2024-05-17T13:14:07Z</time>
      </trkpt>
      <trkpt lat="44.67869" lon="5.06772">
        <ele>318.9</ele>
        <time>2024-05-17T13:14:08Z</time>
      </trkpt>
      <trkpt lat="44.67869" lon="5.06769">
        <ele>319</ele>
        <time>2024-05-17T13:14:09Z</time>
      </trkpt>
      <trkpt lat="44.67869" lon="5.06764">
        <ele>319.4</ele>
        <time>2024-05-17T13:14:10Z</time>
      </trkpt>
      <trkpt lat="44.67869" lon="5.06757">
        <ele>319.9</ele>
        <time>2024-05-17T13:14:11Z</time>
      </trkpt>
      <trkpt lat="44.67869" lon="5.06754">
        <ele>320.1</ele>
        <time>2024-05-17T13:14:12Z</time>
      </trkpt>
      <trkpt lat="44.67868" lon="5.06747">
        <ele>320.6</ele>
        <time>2024-05-17T13:14:13Z</time>
      </trkpt>
      <trkpt lat="44.67868" lon="5.06745">
        <ele>320.7</ele>
        <time>2024-05-17T13:14:14Z</time>
      </trkpt>
      <trkpt lat="44.67867" lon="5.06738">
        <ele>321.2</ele>
        <time>2024-05-17T13:14:15Z</time>
      </trkpt>
      <trkpt lat="44.67866" lon="5.06735">
        <ele>321.4</ele>
        <time>2024-05-17T13:14:16Z</time>
      </trkpt>
      <trkpt lat="44.67866" lon="5.06732">
        <ele>321.7</ele>
        <time>2024-05-17T13:14:17Z</time>
      </trkpt>
      <trkpt lat="44.67864" lon="5.06728">
        <ele>321.9</ele>
        <time>2024-05-17T13:14:18Z</time>
      </trkpt>
      <trkpt lat="44.67862" lon="5.06725">
        <ele>322.2</ele>
        <time>2024-05-17T13:14:19Z</time>
      </trkpt>
      <trkpt lat="44.6786" lon="5.06723">
        <ele>322.4</ele>
        <time>2024-05-17T13:14:20Z</time>
      </trkpt>
      <trkpt lat="44.67857" lon="5.06722">
        <ele>322.7</ele>
        <time>2024-05-17T13:14:21Z</time>
      </trkpt>
      <trkpt lat="44.67854" lon="5.0672">
        <ele>322.9</ele>
        <time>2024-05-17T13:14:22Z</time>
      </trkpt>
      <trkpt lat="44.6785" lon="5.0672">
        <ele>323.2</ele>
        <time>2024-05-17T13:14:23Z</time>
      </trkpt>
      <trkpt lat="44.67847" lon="5.0672">
        <ele>323.4</ele>
        <time>2024-05-17T13:14:24Z</time>
      </trkpt>
      <trkpt lat="44.67843" lon="5.06721">
        <ele>323.8</ele>
        <time>2024-05-17T13:14:25Z</time>
      </trkpt>
      <trkpt lat="44.67841" lon="5.06722">
        <ele>323.9</ele>
        <time>2024-05-17T13:14:26Z</time>
      </trkpt>
      <trkpt lat="44.67837" lon="5.06723">
        <ele>324.2</ele>
        <time>2024-05-17T13:14:27Z</time>
      </trkpt>
      <trkpt lat="44.67836" lon="5.06723">
        <ele>324.3</ele>
        <time>2024-05-17T13:14:28Z</time>
      </trkpt>
      <trkpt lat="44.67832" lon="5.06723">
        <ele>324.6</ele>
        <time>2024-05-17T13:14:29Z</time>
      </trkpt>
      <trkpt lat="44.6783" lon="5.06724">
        <ele>324.7</ele>
        <time>2024-05-17T13:14:30Z</time>
      </trkpt>
      <trkpt lat="44.67826" lon="5.06724">
        <ele>325</ele>
        <time>2024-05-17T13:14:31Z</time>
      </trkpt>
      <trkpt lat="44.67825" lon="5.06725">
        <ele>325.1</ele>
        <time>2024-05-17T13:14:32Z</time>
      </trkpt>
      <trkpt lat="44.67822" lon="5.06725">
        <ele>325.3</ele>
        <time>2024-05-17T13:14:33Z</time>
      </trkpt>
      <trkpt lat="44.6782" lon="5.06726">
        <ele>325.4</ele>
        <time>2024-05-17T13:14:34Z</time>
      </trkpt>
      <trkpt lat="44.67818" lon="5.06726">
        <ele>325.6</ele>
        <time>2024-05-17T13:14:35Z</time>
      </trkpt>
      <trkpt lat="44.67814" lon="5.06726">
        <ele>325.9</ele>
        <time>2024-05-17T13:14:36Z</time>
      </trkpt>
      <trkpt lat="44.67812" lon="5.06727">
        <ele>326</ele>
        <time>2024-05-17T13:14:37Z</time>
      </trkpt>
      <trkpt lat="44.6781" lon="5.06727">
        <ele>326.2</ele>
        <time>2024-05-17T13:14:38Z</time>
      </trkpt>
      <trkpt lat="44.67808" lon="5.06728">
        <ele>326.4</ele>
        <time>2024-05-17T13:14:39Z</time>
      </trkpt>
      <trkpt lat="44.67805" lon="5.06729">
        <ele>326.6</ele>
        <time>2024-05-17T13:14:40Z</time>
      </trkpt>
      <trkpt lat="44.67802" lon="5.0673">
        <ele>326.9</ele>
        <time>2024-05-17T13:14:41Z</time>
      </trkpt>
      <trkpt lat="44.67801" lon="5.0673">
        <ele>327</ele>
        <time>2024-05-17T13:14:42Z</time>
      </trkpt>
      <trkpt lat="44.67798" lon="5.06731">
        <ele>327.2</ele>
        <time>2024-05-17T13:14:43Z</time>
      </trkpt>
      <trkpt lat="44.67796" lon="5.06731">
        <ele>327.4</ele>
        <time>2024-05-17T13:14:44Z</time>
      </trkpt>
      <trkpt lat="44.67794" lon="5.06732">
        <ele>327.6</ele>
        <time>2024-05-17T13:14:45Z</time>
      </trkpt>
      <trkpt lat="44.67791" lon="5.06732">
        <ele>327.8</ele>
        <time>2024-05-17T13:14:46Z</time>
      </trkpt>
      <trkpt lat="44.67789" lon="5.06732">
        <ele>328</ele>
        <time>2024-05-17T13:14:47Z</time>
      </trkpt>
      <trkpt lat="44.67786" lon="5.06733">
        <ele>328.2</ele>
        <time>2024-05-17T13:14:48Z</time>
      </trkpt>
      <trkpt lat="44.67784" lon="5.06733">
        <ele>328.4</ele>
        <time>2024-05-17T13:14:49Z</time>
      </trkpt>
      <trkpt lat="44.67781" lon="5.06734">
        <ele>328.6</ele>
        <time>2024-05-17T13:14:50Z</time>
      </trkpt>
      <trkpt lat="44.67778" lon="5.06735">
        <ele>328.9</ele>
        <time>2024-05-17T13:14:51Z</time>
      </trkpt>
      <trkpt lat="44.67777" lon="5.06735">
        <ele>329</ele>
        <time>2024-05-17T13:14:52Z</time>
      </trkpt>
      <trkpt lat="44.67773" lon="5.06736">
        <ele>329.4</ele>
        <time>2024-05-17T13:14:53Z</time>
      </trkpt>
      <trkpt lat="44.67772" lon="5.06736">
        <ele>329.5</ele>
        <time>2024-05-17T13:14:54Z</time>
      </trkpt>
      <trkpt lat="44.67768" lon="5.06737">
        <ele>329.8</ele>
        <time>2024-05-17T13:14:55Z</time>
      </trkpt>
      <trkpt lat="44.67767" lon="5.06738">
        <ele>329.9</ele>
        <time>2024-05-17T13:14:56Z</time>
      </trkpt>
      <trkpt lat="44.67763" lon="5.06738">
        <ele>330.2</ele>
        <time>2024-05-17T13:14:57Z</time>
      </trkpt>
      <trkpt lat="44.67762" lon="5.06739">
        <ele>330.3</ele>
        <time>2024-05-17T13:14:58Z</time>
      </trkpt>
      <trkpt lat="44.6776" lon="5.06739">
        <ele>330.5</ele>
        <time>2024-05-17T13:14:59Z</time>
      </trkpt>
      <trkpt lat="44.67757" lon="5.0674">
        <ele>330.7</ele>
        <time>2024-05-17T13:15:00Z</time>
      </trkpt>
      <trkpt lat="44.67755" lon="5.0674">
        <ele>330.9</ele>
        <time>2024-05-17T13:15:01Z</time>
      </trkpt>
      <trkpt lat="44.67753" lon="5.06741">
        <ele>331.1</ele>
        <time>2024-05-17T13:15:02Z</time>
      </trkpt>
      <trkpt lat="44.6775" lon="5.06742">
        <ele>331.3</ele>
        <time>2024-05-17T13:15:03Z</time>
      </trkpt>
      <trkpt lat="44.67748" lon="5.06743">
        <ele>331.5</ele>
        <time>2024-05-17T13:15:04Z</time>
      </trkpt>
      <trkpt lat="44.67745" lon="5.06744">
        <ele>331.7</ele>
        <time>2024-05-17T13:15:05Z</time>
      </trkpt>
      <trkpt lat="44.67743" lon="5.06744">
        <ele>331.8</ele>
        <time>2024-05-17T13:15:06Z</time>
      </trkpt>
      <trkpt lat="44.67741" lon="5.06745">
        <ele>332</ele>
        <time>2024-05-17T13:15:07Z</time>
      </trkpt>
      <trkpt lat="44.67738" lon="5.06746">
        <ele>332.1</ele>
        <time>2024-05-17T13:15:08Z</time>
      </trkpt>
      <trkpt lat="44.67735" lon="5.06748">
        <ele>332.4</ele>
        <time>2024-05-17T13:15:09Z</time>
      </trkpt>
      <trkpt lat="44.67733" lon="5.06749">
        <ele>332.5</ele>
        <time>2024-05-17T13:15:10Z</time>
      </trkpt>
      <trkpt lat="44.6773" lon="5.06753">
        <ele>332.7</ele>
        <time>2024-05-17T13:15:11Z</time>
      </trkpt>
      <trkpt lat="44.67729" lon="5.06754">
        <ele>332.8</ele>
        <time>2024-05-17T13:15:12Z</time>
      </trkpt>
      <trkpt lat="44.67726" lon="5.06759">
        <ele>333</ele>
        <time>2024-05-17T13:15:13Z</time>
      </trkpt>
      <trkpt lat="44.67725" lon="5.0676">
        <ele>333.1</ele>
        <time>2024-05-17T13:15:14Z</time>
      </trkpt>
      <trkpt lat="44.67723" lon="5.06764">
        <ele>333.3</ele>
        <time>2024-05-17T13:15:15Z</time>
      </trkpt>
      <trkpt lat="44.67722" lon="5.06768">
        <ele>333.4</ele>
        <time>2024-05-17T13:15:16Z</time>
      </trkpt>
      <trkpt lat="44.67721" lon="5.06772">
        <ele>333.6</ele>
        <time>2024-05-17T13:15:17Z</time>
      </trkpt>
      <trkpt lat="44.67721" lon="5.06776">
        <ele>333.7</ele>
        <time>2024-05-17T13:15:18Z</time>
      </trkpt>
      <trkpt lat="44.6772" lon="5.06781">
        <ele>333.9</ele>
        <time>2024-05-17T13:15:19Z</time>
      </trkpt>
      <trkpt lat="44.6772" lon="5.06785">
        <ele>334</ele>
        <time>2024-05-17T13:15:20Z</time>
      </trkpt>
      <trkpt lat="44.67719" lon="5.06792">
        <ele>334.2</ele>
        <time>2024-05-17T13:15:21Z</time>
      </trkpt>
      <trkpt lat="44.67719" lon="5.06794">
        <ele>334.3</ele>
        <time>2024-05-17T13:15:22Z</time>
      </trkpt>
      <trkpt lat="44.67718" lon="5.068">
        <ele>334.5</ele>
        <time>2024-05-17T13:15:23Z</time>
      </trkpt>
      <trkpt lat="44.67718" lon="5.06802">
        <ele>334.5</ele>
        <time>2024-05-17T13:15:24Z</time>
      </trkpt>
      <trkpt lat="44.67716" lon="5.06806">
        <ele>334.6</ele>
        <time>2024-05-17T13:15:25Z</time>
      </trkpt>
      <trkpt lat="44.67713" lon="5.06812">
        <ele>334.8</ele>
        <time>2024-05-17T13:15:26Z</time>
      </trkpt>
      <trkpt lat="44.67712" lon="5.06814">
        <ele>334.8</ele>
        <time>2024-05-17T13:15:27Z</time>
      </trkpt>
      <trkpt lat="44.67709" lon="5.06816">
        <ele>334.9</ele>
        <time>2024-05-17T13:15:28Z</time>
      </trkpt>
      <trkpt lat="44.67706" lon="5.06817">
        <ele>335</ele>
        <time>2024-05-17T13:15:29Z</time>
      </trkpt>
      <trkpt lat="44.67702" lon="5.06816">
        <ele>335.1</ele>
        <time>2024-05-17T13:15:30Z</time>
      </trkpt>
      <trkpt lat="44.67698" lon="5.06815">
        <ele>335.2</ele>
        <time>2024-05-17T13:15:31Z</time>
      </trkpt>
      <trkpt lat="44.67695" lon="5.06814">
        <ele>335.3</ele>
        <time>2024-05-17T13:15:32Z</time>
      </trkpt>
      <trkpt lat="44.67691" lon="5.06811">
        <ele>335.4</ele>
        <time>2024-05-17T13:15:33Z</time>
      </trkpt>
      <trkpt lat="44.67688" lon="5.06808">
        <ele>335.6</ele>
        <time>2024-05-17T13:15:34Z</time>
      </trkpt>
      <trkpt lat="44.67685" lon="5.06805">
        <ele>335.7</ele>
        <time>2024-05-17T13:15:35Z</time>
      </trkpt>
      <trkpt lat="44.67683" lon="5.06802">
        <ele>335.9</ele>
        <time>2024-05-17T13:15:36Z</time>
      </trkpt>
      <trkpt lat="44.6768" lon="5.06797">
        <ele>336.1</ele>
        <time>2024-05-17T13:15:37Z</time>
      </trkpt>
      <trkpt lat="44.6768" lon="5.06796">
        <ele>336.2</ele>
        <time>2024-05-17T13:15:38Z</time>
      </trkpt>
      <trkpt lat="44.67678" lon="5.0679">
        <ele>336.4</ele>
        <time>2024-05-17T13:15:39Z</time>
      </trkpt>
      <trkpt lat="44.67677" lon="5.06788">
        <ele>336.5</ele>
        <time>2024-05-17T13:15:40Z</time>
      </trkpt>
      <trkpt lat="44.67675" lon="5.06782">
        <ele>336.8</ele>
        <time>2024-05-17T13:15:41Z</time>
      </trkpt>
      <trkpt lat="44.67674" lon="5.0678">
        <ele>336.9</ele>
        <time>2024-05-17T13:15:42Z</time>
      </trkpt>
      <trkpt lat="44.67672" lon="5.06776">
        <ele>337.1</ele>
        <time>2024-05-17T13:15:43Z</time>
      </trkpt>
      <trkpt lat="44.67671" lon="5.06772">
        <ele>337.2</ele>
        <time>2024-05-17T13:15:44Z</time>
      </trkpt>
      <trkpt lat="44.67669" lon="5.06768">
        <ele>337.4</ele>
        <time>2024-05-17T13:15:45Z</time>
      </trkpt>
      <trkpt lat="44.67667" lon="5.06765">
        <ele>337.6</ele>
        <time>2024-05-17T13:15:46Z</time>
      </trkpt>
      <trkpt lat="44.67665" lon="5.06762">
        <ele>337.8</ele>
        <time>2024-05-17T13:15:47Z</time>
      </trkpt>
      <trkpt lat="44.67662" lon="5.0676">
        <ele>338</ele>
        <time>2024-05-17T13:15:48Z</time>
      </trkpt>
      <trkpt lat="44.67659" lon="5.06758">
        <ele>338.1</ele>
        <time>2024-05-17T13:15:49Z</time>
      </trkpt>
      <trkpt lat="44.67656" lon="5.06756">
        <ele>338.3</ele>
        <time>2024-05-17T13:15:50Z</time>
      </trkpt>
      <trkpt lat="44.67652" lon="5.06754">
        <ele>338.6</ele>
        <time>2024-05-17T13:15:51Z</time>
      </trkpt>
      <trkpt lat="44.6765" lon="5.06753">
        <ele>338.6</ele>
        <time>2024-05-17T13:15:52Z</time>
      </trkpt>
      <trkpt lat="44.67647" lon="5.06752">
        <ele>338.8</ele>
        <time>2024-05-17T13:15:53Z</time>
      </trkpt>
      <trkpt lat="44.67644" lon="5.06751">
        <ele>339</ele>
        <time>2024-05-17T13:15:54Z</time>
      </trkpt>
      <trkpt lat="44.6764" lon="5.0675">
        <ele>339.1</ele>
        <time>2024-05-17T13:15:55Z</time>
      </trkpt>
      <trkpt lat="44.67637" lon="5.06748">
        <ele>339.3</ele>
        <time>2024-05-17T13:15:56Z</time>
      </trkpt>
      <trkpt lat="44.67632" lon="5.06747">
        <ele>339.5</ele>
        <time>2024-05-17T13:15:57Z</time>
      </trkpt>
      <trkpt lat="44.6763" lon="5.06746">
        <ele>339.6</ele>
        <time>2024-05-17T13:15:58Z</time>
      </trkpt>
      <trkpt lat="44.67625" lon="5.06745">
        <ele>339.8</ele>
        <time>2024-05-17T13:15:59Z</time>
      </trkpt>
      <trkpt lat="44.67623" lon="5.06744">
        <ele>339.9</ele>
        <time>2024-05-17T13:16:00Z</time>
      </trkpt>
      <trkpt lat="44.67618" lon="5.06741">
        <ele>340.2</ele>
        <time>2024-05-17T13:16:01Z</time>
      </trkpt>
      <trkpt lat="44.67616" lon="5.06741">
        <ele>340.3</ele>
        <time>2024-05-17T13:16:02Z</time>
      </trkpt>
      <trkpt lat="44.67612" lon="5.06739">
        <ele>340.4</ele>
        <time>2024-05-17T13:16:03Z</time>
      </trkpt>
      <trkpt lat="44.67609" lon="5.06738">
        <ele>340.6</ele>
        <time>2024-05-17T13:16:04Z</time>
      </trkpt>
      <trkpt lat="44.67603" lon="5.06736">
        <ele>340.8</ele>
        <time>2024-05-17T13:16:05Z</time>
      </trkpt>
      <trkpt lat="44.67602" lon="5.06736">
        <ele>340.9</ele>
        <time>2024-05-17T13:16:06Z</time>
      </trkpt>
      <trkpt lat="44.67598" lon="5.06734">
        <ele>341.1</ele>
        <time>2024-05-17T13:16:07Z</time>
      </trkpt>
      <trkpt lat="44.67595" lon="5.06733">
        <ele>341.2</ele>
        <time>2024-05-17T13:16:08Z</time>
      </trkpt>
      <trkpt lat="44.67591" lon="5.06732">
        <ele>341.4</ele>
        <time>2024-05-17T13:16:09Z</time>
      </trkpt>
      <trkpt lat="44.67587" lon="5.06731">
        <ele>341.5</ele>
        <time>2024-05-17T13:16:10Z</time>
      </trkpt>
      <trkpt lat="44.67584" lon="5.06729">
        <ele>341.7</ele>
        <time>2024-05-17T13:16:11Z</time>
      </trkpt>
      <trkpt lat="44.6758" lon="5.06728">
        <ele>341.8</ele>
        <time>2024-05-17T13:16:12Z</time>
      </trkpt>
      <trkpt lat="44.67577" lon="5.06728">
        <ele>342</ele>
        <time>2024-05-17T13:16:13Z</time>
      </trkpt>
      <trkpt lat="44.67571" lon="5.06726">
        <ele>342.2</ele>
        <time>2024-05-17T13:16:14Z</time>
      </trkpt>
      <trkpt lat="44.6757" lon="5.06726">
        <ele>342.3</ele>
        <time>2024-05-17T13:16:15Z</time>
      </trkpt>
      <trkpt lat="44.67566" lon="5.06725">
        <ele>342.4</ele>
        <time>2024-05-17T13:16:16Z</time>
      </trkpt>
      <trkpt lat="44.67562" lon="5.06725">
        <ele>342.5</ele>
        <time>2024-05-17T13:16:17Z</time>
      </trkpt>
      <trkpt lat="44.67559" lon="5.06726">
        <ele>342.7</ele>
        <time>2024-05-17T13:16:18Z</time>
      </trkpt>
      <trkpt lat="44.67554" lon="5.06727">
        <ele>342.9</ele>
        <time>2024-05-17T13:16:19Z</time>
      </trkpt>
      <trkpt lat="44.67552" lon="5.06728">
        <ele>343</ele>
        <time>2024-05-17T13:16:20Z</time>
      </trkpt>
      <trkpt lat="44.67549" lon="5.06728">
        <ele>343.1</ele>
        <time>2024-05-17T13:16:21Z</time>
      </trkpt>
      <trkpt lat="44.67544" lon="5.06729">
        <ele>343.4</ele>
        <time>2024-05-17T13:16:22Z</time>
      </trkpt>
      <trkpt lat="44.67542" lon="5.0673">
        <ele>343.4</ele>
        <time>2024-05-17T13:16:23Z</time>
      </trkpt>
      <trkpt lat="44.67539" lon="5.06731">
        <ele>343.6</ele>
        <time>2024-05-17T13:16:24Z</time>
      </trkpt>
      <trkpt lat="44.67536" lon="5.06732">
        <ele>343.7</ele>
        <time>2024-05-17T13:16:25Z</time>
      </trkpt>
      <trkpt lat="44.67532" lon="5.06734">
        <ele>343.9</ele>
        <time>2024-05-17T13:16:26Z</time>
      </trkpt>
      <trkpt lat="44.67529" lon="5.06735">
        <ele>344.1</ele>
        <time>2024-05-17T13:16:27Z</time>
      </trkpt>
      <trkpt lat="44.67525" lon="5.06736">
        <ele>344.2</ele>
        <time>2024-05-17T13:16:28Z</time>
      </trkpt>
      <trkpt lat="44.67521" lon="5.06736">
        <ele>344.4</ele>
        <time>2024-05-17T13:16:29Z</time>
      </trkpt>
      <trkpt lat="44.67518" lon="5.06737">
        <ele>344.6</ele>
        <time>2024-05-17T13:16:30Z</time>
      </trkpt>
      <trkpt lat="44.67514" lon="5.06738">
        <ele>344.8</ele>
        <time>2024-05-17T13:16:31Z</time>
      </trkpt>
      <trkpt lat="44.6751" lon="5.06738">
        <ele>345</ele>
        <time>2024-05-17T13:16:32Z</time>
      </trkpt>
      <trkpt lat="44.67506" lon="5.06738">
        <ele>345.1</ele>
        <time>2024-05-17T13:16:33Z</time>
      </trkpt>
      <trkpt lat="44.67501" lon="5.06738">
        <ele>345.4</ele>
        <time>2024-05-17T13:16:34Z</time>
      </trkpt>
      <trkpt lat="44.67499" lon="5.06738">
        <ele>345.5</ele>
        <time>2024-05-17T13:16:35Z</time>
      </trkpt>
      <trkpt lat="44.67493" lon="5.06738">
        <ele>345.8</ele>
        <time>2024-05-17T13:16:36Z</time>
      </trkpt>
      <trkpt lat="44.67492" lon="5.06738">
        <ele>345.9</ele>
        <time>2024-05-17T13:16:37Z</time>
      </trkpt>
      <trkpt lat="44.67486" lon="5.06736">
        <ele>346.2</ele>
        <time>2024-05-17T13:16:38Z</time>
      </trkpt>
      <trkpt lat="44.67484" lon="5.06736">
        <ele>346.2</ele>
        <time>2024-05-17T13:16:39Z</time>
      </trkpt>
      <trkpt lat="44.67481" lon="5.06736">
        <ele>346.4</ele>
        <time>2024-05-17T13:16:40Z</time>
      </trkpt>
      <trkpt lat="44.67477" lon="5.06735">
        <ele>346.6</ele>
        <time>2024-05-17T13:16:41Z</time>
      </trkpt>
      <trkpt lat="44.67474" lon="5.06733">
        <ele>346.8</ele>
        <time>2024-05-17T13:16:42Z</time>
      </trkpt>
      <trkpt lat="44.67471" lon="5.06732">
        <ele>347</ele>
        <time>2024-05-17T13:16:43Z</time>
      </trkpt>
      <trkpt lat="44.67468" lon="5.06731">
        <ele>347.2</ele>
        <time>2024-05-17T13:16:44Z</time>
      </trkpt>
      <trkpt lat="44.67463" lon="5.0673">
        <ele>347.5</ele>
        <time>2024-05-17T13:16:45Z</time>
      </trkpt>
      <trkpt lat="44.67461" lon="5.0673">
        <ele>347.6</ele>
        <time>2024-05-17T13:16:46Z</time>
      </trkpt>
      <trkpt lat="44.67458" lon="5.0673">
        <ele>347.7</ele>
        <time>2024-05-17T13:16:47Z</time>
      </trkpt>
      <trkpt lat="44.67455" lon="5.0673">
        <ele>347.9</ele>
        <time>2024-05-17T13:16:48Z</time>
      </trkpt>
      <trkpt lat="44.67452" lon="5.0673">
        <ele>348.1</ele>
        <time>2024-05-17T13:16:49Z</time>
      </trkpt>
      <trkpt lat="44.67449" lon="5.06731">
        <ele>348.2</ele>
        <time>2024-05-17T13:16:50Z</time>
      </trkpt>
      <trkpt lat="44.67445" lon="5.06732">
        <ele>348.3</ele>
        <time>2024-05-17T13:16:51Z</time>
      </trkpt>
      <trkpt lat="44.67442" lon="5.06734">
        <ele>348.5</ele>
        <time>2024-05-17T13:16:52Z</time>
      </trkpt>
      <trkpt lat="44.67436" lon="5.06735">
        <ele>348.6</ele>
        <time>2024-05-17T13:16:53Z</time>
      </trkpt>
      <trkpt lat="44.67434" lon="5.06736">
        <ele>348.7</ele>
        <time>2024-05-17T13:16:54Z</time>
      </trkpt>
      <trkpt lat="44.6743" lon="5.06737">
        <ele>348.8</ele>
        <time>2024-05-17T13:16:55Z</time>
      </trkpt>
      <trkpt lat="44.67426" lon="5.06738">
        <ele>348.9</ele>
        <time>2024-05-17T13:16:56Z</time>
      </trkpt>
      <trkpt lat="44.6742" lon="5.0674">
        <ele>349</ele>
        <time>2024-05-17T13:16:57Z</time>
      </trkpt>
      <trkpt lat="44.67418" lon="5.0674">
        <ele>349.1</ele>
        <time>2024-05-17T13:16:58Z</time>
      </trkpt>
      <trkpt lat="44.67411" lon="5.06742">
        <ele>349.2</ele>
        <time>2024-05-17T13:16:59Z</time>
      </trkpt>
      <trkpt lat="44.67409" lon="5.06743">
        <ele>349.2</ele>
        <time>2024-05-17T13:17:00Z</time>
      </trkpt>
      <trkpt lat="44.67403" lon="5.06745">
        <ele>349.3</ele>
        <time>2024-05-17T13:17:01Z</time>
      </trkpt>
      <trkpt lat="44.67401" lon="5.06746">
        <ele>349.4</ele>
        <time>2024-05-17T13:17:02Z</time>
      </trkpt>
      <trkpt lat="44.67395" lon="5.06748">
        <ele>349.5</ele>
        <time>2024-05-17T13:17:03Z</time>
      </trkpt>
      <trkpt lat="44.67393" lon="5.06749">
        <ele>349.5</ele>
        <time>2024-05-17T13:17:04Z</time>
      </trkpt>
      <trkpt lat="44.67387" lon="5.0675">
        <ele>349.6</ele>
        <time>2024-05-17T13:17:05Z</time>
      </trkpt>
      <trkpt lat="44.67385" lon="5.0675">
        <ele>349.7</ele>
        <time>2024-05-17T13:17:06Z</time>
      </trkpt>
      <trkpt lat="44.67377" lon="5.06752">
        <ele>349.9</ele>
        <time>2024-05-17T13:17:07Z</time>
      </trkpt>
      <trkpt lat="44.67375" lon="5.06752">
        <ele>349.9</ele>
        <time>2024-05-17T13:17:08Z</time>
      </trkpt>
      <trkpt lat="44.67371" lon="5.06754">
        <ele>350</ele>
        <time>2024-05-17T13:17:09Z</time>
      </trkpt>
      <trkpt lat="44.67367" lon="5.06755">
        <ele>350.1</ele>
        <time>2024-05-17T13:17:10Z</time>
      </trkpt>
      <trkpt lat="44.67362" lon="5.06756">
        <ele>350.2</ele>
        <time>2024-05-17T13:17:11Z</time>
      </trkpt>
      <trkpt lat="44.67358" lon="5.06758">
        <ele>350.4</ele>
        <time>2024-05-17T13:17:12Z</time>
      </trkpt>
      <trkpt lat="44.67354" lon="5.0676">
        <ele>350.5</ele>
        <time>2024-05-17T13:17:13Z</time>
      </trkpt>
      <trkpt lat="44.6735" lon="5.06762">
        <ele>350.6</ele>
        <time>2024-05-17T13:17:14Z</time>
      </trkpt>
      <trkpt lat="44.67344" lon="5.06765">
        <ele>350.9</ele>
        <time>2024-05-17T13:17:15Z</time>
      </trkpt>
      <trkpt lat="44.67343" lon="5.06766">
        <ele>351</ele>
        <time>2024-05-17T13:17:16Z</time>
      </trkpt>
      <trkpt lat="44.67337" lon="5.06769">
        <ele>351.3</ele>
        <time>2024-05-17T13:17:17Z</time>
      </trkpt>
      <trkpt lat="44.67335" lon="5.0677">
        <ele>351.4</ele>
        <time>2024-05-17T13:17:18Z</time>
      </trkpt>
      <trkpt lat="44.6733" lon="5.06773">
        <ele>351.7</ele>
        <time>2024-05-17T13:17:19Z</time>
      </trkpt>
      <trkpt lat="44.67328" lon="5.06774">
        <ele>351.8</ele>
        <time>2024-05-17T13:17:20Z</time>
      </trkpt>
      <trkpt lat="44.67325" lon="5.06775">
        <ele>352.1</ele>
        <time>2024-05-17T13:17:21Z</time>
      </trkpt>
      <trkpt lat="44.67321" lon="5.06777">
        <ele>352.3</ele>
        <time>2024-05-17T13:17:22Z</time>
      </trkpt>
      <trkpt lat="44.67315" lon="5.06779">
        <ele>352.7</ele>
        <time>2024-05-17T13:17:23Z</time>
      </trkpt>
      <trkpt lat="44.67313" lon="5.06779">
        <ele>352.8</ele>
        <time>2024-05-17T13:17:24Z</time>
      </trkpt>
      <trkpt lat="44.6731" lon="5.06781">
        <ele>353</ele>
        <time>2024-05-17T13:17:25Z</time>
      </trkpt>
      <trkpt lat="44.67307" lon="5.06782">
        <ele>353.3</ele>
        <time>2024-05-17T13:17:26Z</time>
      </trkpt>
      <trkpt lat="44.67304" lon="5.06783">
        <ele>353.5</ele>
        <time>2024-05-17T13:17:27Z</time>
      </trkpt>
      <trkpt lat="44.673" lon="5.06785">
        <ele>353.8</ele>
        <time>2024-05-17T13:17:28Z</time>
      </trkpt>
      <trkpt lat="44.67298" lon="5.06786">
        <ele>353.9</ele>
        <time>2024-05-17T13:17:29Z</time>
      </trkpt>
      <trkpt lat="44.67294" lon="5.06789">
        <ele>354.2</ele>
        <time>2024-05-17T13:17:30Z</time>
      </trkpt>
      <trkpt lat="44.67292" lon="5.0679">
        <ele>354.3</ele>
        <time>2024-05-17T13:17:31Z</time>
      </trkpt>
      <trkpt lat="44.67289" lon="5.06792">
        <ele>354.5</ele>
        <time>2024-05-17T13:17:32Z</time>
      </trkpt>
      <trkpt lat="44.67287" lon="5.06794">
        <ele>354.7</ele>
        <time>2024-05-17T13:17:33Z</time>
      </trkpt>
      <trkpt lat="44.67283" lon="5.06796">
        <ele>354.9</ele>
        <time>2024-05-17T13:17:34Z</time>
      </trkpt>
      <trkpt lat="44.6728" lon="5.06798">
        <ele>355.1</ele>
        <time>2024-05-17T13:17:35Z</time>
      </trkpt>
      <trkpt lat="44.67277" lon="5.068">
        <ele>355.2</ele>
        <time>2024-05-17T13:17:36Z</time>
      </trkpt>
      <trkpt lat="44.67275" lon="5.06801">
        <ele>355.4</ele>
        <time>2024-05-17T13:17:37Z</time>
      </trkpt>
      <trkpt lat="44.67272" lon="5.06803">
        <ele>355.6</ele>
        <time>2024-05-17T13:17:38Z</time>
      </trkpt>
      <trkpt lat="44.67269" lon="5.06804">
        <ele>355.8</ele>
        <time>2024-05-17T13:17:39Z</time>
      </trkpt>
      <trkpt lat="44.67265" lon="5.06806">
        <ele>356</ele>
        <time>2024-05-17T13:17:40Z</time>
      </trkpt>
      <trkpt lat="44.67263" lon="5.06808">
        <ele>356.2</ele>
        <time>2024-05-17T13:17:41Z</time>
      </trkpt>
      <trkpt lat="44.6726" lon="5.0681">
        <ele>356.4</ele>
        <time>2024-05-17T13:17:42Z</time>
      </trkpt>
      <trkpt lat="44.67257" lon="5.06812">
        <ele>356.6</ele>
        <time>2024-05-17T13:17:43Z</time>
      </trkpt>
      <trkpt lat="44.67254" lon="5.06814">
        <ele>356.7</ele>
        <time>2024-05-17T13:17:44Z</time>
      </trkpt>
      <trkpt lat="44.67251" lon="5.06816">
        <ele>357</ele>
        <time>2024-05-17T13:17:45Z</time>
      </trkpt>
      <trkpt lat="44.67248" lon="5.06818">
        <ele>357.2</ele>
        <time>2024-05-17T13:17:46Z</time>
      </trkpt>
      <trkpt lat="44.67245" lon="5.06819">
        <ele>357.4</ele>
        <time>2024-05-17T13:17:47Z</time>
      </trkpt>
      <trkpt lat="44.67241" lon="5.06822">
        <ele>357.6</ele>
        <time>2024-05-17T13:17:48Z</time>
      </trkpt>
      <trkpt lat="44.6724" lon="5.06823">
        <ele>357.7</ele>
        <time>2024-05-17T13:17:49Z</time>
      </trkpt>
      <trkpt lat="44.67236" lon="5.06826">
        <ele>358</ele>
        <time>2024-05-17T13:17:50Z</time>
      </trkpt>
      <trkpt lat="44.67234" lon="5.06827">
        <ele>358.1</ele>
        <time>2024-05-17T13:17:51Z</time>
      </trkpt>
      <trkpt lat="44.6723" lon="5.06829">
        <ele>358.4</ele>
        <time>2024-05-17T13:17:52Z</time>
      </trkpt>
      <trkpt lat="44.67229" lon="5.0683">
        <ele>358.4</ele>
        <time>2024-05-17T13:17:53Z</time>
      </trkpt>
      <trkpt lat="44.67227" lon="5.06832">
        <ele>358.6</ele>
        <time>2024-05-17T13:17:54Z</time>
      </trkpt>
      <trkpt lat="44.67225" lon="5.06834">
        <ele>358.8</ele>
        <time>2024-05-17T13:17:55Z</time>
      </trkpt>
      <trkpt lat="44.67222" lon="5.06836">
        <ele>358.9</ele>
        <time>2024-05-17T13:17:56Z</time>
      </trkpt>
      <trkpt lat="44.6722" lon="5.06838">
        <ele>359.1</ele>
        <time>2024-05-17T13:17:57Z</time>
      </trkpt>
      <trkpt lat="44.67216" lon="5.0684">
        <ele>359.3</ele>
        <time>2024-05-17T13:17:58Z</time>
      </trkpt>
      <trkpt lat="44.67215" lon="5.06841">
        <ele>359.4</ele>
        <time>2024-05-17T13:17:59Z</time>
      </trkpt>
      <trkpt lat="44.67211" lon="5.06844">
        <ele>359.7</ele>
        <time>2024-05-17T13:18:00Z</time>
      </trkpt>
      <trkpt lat="44.6721" lon="5.06845">
        <ele>359.8</ele>
        <time>2024-05-17T13:18:01Z</time>
      </trkpt>
      <trkpt lat="44.67206" lon="5.06848">
        <ele>360</ele>
        <time>2024-05-17T13:18:02Z</time>
      </trkpt>
      <trkpt lat="44.67205" lon="5.06849">
        <ele>360.1</ele>
        <time>2024-05-17T13:18:03Z</time>
      </trkpt>
      <trkpt lat="44.67201" lon="5.06852">
        <ele>360.4</ele>
        <time>2024-05-17T13:18:04Z</time>
      </trkpt>
      <trkpt lat="44.67199" lon="5.06853">
        <ele>360.5</ele>
        <time>2024-05-17T13:18:05Z</time>
      </trkpt>
      <trkpt lat="44.67196" lon="5.06855">
        <ele>360.7</ele>
        <time>2024-05-17T13:18:06Z</time>
      </trkpt>
      <trkpt lat="44.67193" lon="5.06856">
        <ele>360.9</ele>
        <time>2024-05-17T13:18:07Z</time>
      </trkpt>
      <trkpt lat="44.67191" lon="5.06858">
        <ele>361.1</ele>
        <time>2024-05-17T13:18:08Z</time>
      </trkpt>
      <trkpt lat="44.67188" lon="5.06859">
        <ele>361.3</ele>
        <time>2024-05-17T13:18:09Z</time>
      </trkpt>
      <trkpt lat="44.67185" lon="5.0686">
        <ele>361.5</ele>
        <time>2024-05-17T13:18:10Z</time>
      </trkpt>
      <trkpt lat="44.67181" lon="5.06862">
        <ele>361.8</ele>
        <time>2024-05-17T13:18:11Z</time>
      </trkpt>
      <trkpt lat="44.6718" lon="5.06863">
        <ele>361.9</ele>
        <time>2024-05-17T13:18:12Z</time>
      </trkpt>
      <trkpt lat="44.67176" lon="5.06864">
        <ele>362.2</ele>
        <time>2024-05-17T13:18:13Z</time>
      </trkpt>
      <trkpt lat="44.67175" lon="5.06865">
        <ele>362.3</ele>
        <time>2024-05-17T13:18:14Z</time>
      </trkpt>
      <trkpt lat="44.67172" lon="5.06865">
        <ele>362.5</ele>
        <time>2024-05-17T13:18:15Z</time>
      </trkpt>
      <trkpt lat="44.67169" lon="5.06866">
        <ele>362.7</ele>
        <time>2024-05-17T13:18:16Z</time>
      </trkpt>
      <trkpt lat="44.67166" lon="5.06866">
        <ele>362.9</ele>
        <time>2024-05-17T13:18:17Z</time>
      </trkpt>
      <trkpt lat="44.67162" lon="5.06867">
        <ele>363.3</ele>
        <time>2024-05-17T13:18:18Z</time>
      </trkpt>
      <trkpt lat="44.67161" lon="5.06867">
        <ele>363.4</ele>
        <time>2024-05-17T13:18:19Z</time>
      </trkpt>
      <trkpt lat="44.67157" lon="5.06868">
        <ele>363.7</ele>
        <time>2024-05-17T13:18:20Z</time>
      </trkpt>
      <trkpt lat="44.67156" lon="5.06869">
        <ele>363.8</ele>
        <time>2024-05-17T13:18:21Z</time>
      </trkpt>
      <trkpt lat="44.67153" lon="5.0687">
        <ele>364</ele>
        <time>2024-05-17T13:18:22Z</time>
      </trkpt>
      <trkpt lat="44.6715" lon="5.06871">
        <ele>364.2</ele>
        <time>2024-05-17T13:18:23Z</time>
      </trkpt>
      <trkpt lat="44.67148" lon="5.06871">
        <ele>364.5</ele>
        <time>2024-05-17T13:18:24Z</time>
      </trkpt>
      <trkpt lat="44.67145" lon="5.06872">
        <ele>364.7</ele>
        <time>2024-05-17T13:18:25Z</time>
      </trkpt>
      <trkpt lat="44.67142" lon="5.06873">
        <ele>364.9</ele>
        <time>2024-05-17T13:18:26Z</time>
      </trkpt>
      <trkpt lat="44.6714" lon="5.06875">
        <ele>365.1</ele>
        <time>2024-05-17T13:18:27Z</time>
      </trkpt>
      <trkpt lat="44.67137" lon="5.06876">
        <ele>365.4</ele>
        <time>2024-05-17T13:18:28Z</time>
      </trkpt>
      <trkpt lat="44.67132" lon="5.06877">
        <ele>365.8</ele>
        <time>2024-05-17T13:18:29Z</time>
      </trkpt>
      <trkpt lat="44.67131" lon="5.06878">
        <ele>365.9</ele>
        <time>2024-05-17T13:18:30Z</time>
      </trkpt>
      <trkpt lat="44.67128" lon="5.06879">
        <ele>366.1</ele>
        <time>2024-05-17T13:18:31Z</time>
      </trkpt>
      <trkpt lat="44.67125" lon="5.0688">
        <ele>366.3</ele>
        <time>2024-05-17T13:18:32Z</time>
      </trkpt>
      <trkpt lat="44.67123" lon="5.06881">
        <ele>366.5</ele>
        <time>2024-05-17T13:18:33Z</time>
      </trkpt>
      <trkpt lat="44.67121" lon="5.06882">
        <ele>366.7</ele>
        <time>2024-05-17T13:18:34Z</time>
      </trkpt>
      <trkpt lat="44.67119" lon="5.06882">
        <ele>366.9</ele>
        <time>2024-05-17T13:18:35Z</time>
      </trkpt>
      <trkpt lat="44.67116" lon="5.06883">
        <ele>367</ele>
        <time>2024-05-17T13:18:36Z</time>
      </trkpt>
      <trkpt lat="44.67114" lon="5.06884">
        <ele>367.2</ele>
        <time>2024-05-17T13:18:37Z</time>
      </trkpt>
      <trkpt lat="44.67111" lon="5.06884">
        <ele>367.4</ele>
        <time>2024-05-17T13:18:38Z</time>
      </trkpt>
      <trkpt lat="44.67109" lon="5.06885">
        <ele>367.6</ele>
        <time>2024-05-17T13:18:39Z</time>
      </trkpt>
      <trkpt lat="44.67106" lon="5.06886">
        <ele>367.9</ele>
        <time>2024-05-17T13:18:40Z</time>
      </trkpt>
      <trkpt lat="44.67102" lon="5.06886">
        <ele>368.2</ele>
        <time>2024-05-17T13:18:41Z</time>
      </trkpt>
      <trkpt lat="44.67101" lon="5.06886">
        <ele>368.3</ele>
        <time>2024-05-17T13:18:42Z</time>
      </trkpt>
      <trkpt lat="44.67099" lon="5.06886">
        <ele>368.4</ele>
        <time>2024-05-17T13:18:43Z</time>
      </trkpt>
      <trkpt lat="44.67097" lon="5.06886">
        <ele>368.6</ele>
        <time>2024-05-17T13:18:44Z</time>
      </trkpt>
      <trkpt lat="44.67094" lon="5.06885">
        <ele>368.8</ele>
        <time>2024-05-17T13:18:45Z</time>
      </trkpt>
      <trkpt lat="44.67092" lon="5.06885">
        <ele>369</ele>
        <time>2024-05-17T13:18:46Z</time>
      </trkpt>
      <trkpt lat="44.67089" lon="5.06885">
        <ele>369.3</ele>
        <time>2024-05-17T13:18:47Z</time>
      </trkpt>
      <trkpt lat="44.67088" lon="5.06885">
        <ele>369.4</ele>
        <time>2024-05-17T13:18:48Z</time>
      </trkpt>
      <trkpt lat="44.67086" lon="5.06885">
        <ele>369.5</ele>
        <time>2024-05-17T13:18:49Z</time>
      </trkpt>
      <trkpt lat="44.67084" lon="5.06885">
        <ele>369.7</ele>
        <time>2024-05-17T13:18:50Z</time>
      </trkpt>
      <trkpt lat="44.67081" lon="5.06885">
        <ele>369.9</ele>
        <time>2024-05-17T13:18:51Z</time>
      </trkpt>
      <trkpt lat="44.67079" lon="5.06885">
        <ele>370.1</ele>
        <time>2024-05-17T13:18:52Z</time>
      </trkpt>
      <trkpt lat="44.67077" lon="5.06884">
        <ele>370.3</ele>
        <time>2024-05-17T13:18:53Z</time>
      </trkpt>
      <trkpt lat="44.67074" lon="5.06883">
        <ele>370.5</ele>
        <time>2024-05-17T13:18:54Z</time>
      </trkpt>
      <trkpt lat="44.67072" lon="5.06883">
        <ele>370.7</ele>
        <time>2024-05-17T13:18:55Z</time>
      </trkpt>
      <trkpt lat="44.6707" lon="5.06883">
        <ele>370.9</ele>
        <time>2024-05-17T13:18:56Z</time>
      </trkpt>
      <trkpt lat="44.67068" lon="5.06883">
        <ele>371.1</ele>
        <time>2024-05-17T13:18:57Z</time>
      </trkpt>
      <trkpt lat="44.67066" lon="5.06882">
        <ele>371.3</ele>
        <time>2024-05-17T13:18:58Z</time>
      </trkpt>
      <trkpt lat="44.67064" lon="5.06882">
        <ele>371.4</ele>
        <time>2024-05-17T13:18:59Z</time>
      </trkpt>
      <trkpt lat="44.67062" lon="5.06882">
        <ele>371.6</ele>
        <time>2024-05-17T13:19:00Z</time>
      </trkpt>
      <trkpt lat="44.6706" lon="5.06882">
        <ele>371.7</ele>
        <time>2024-05-17T13:19:01Z</time>
      </trkpt>
      <trkpt lat="44.67059" lon="5.06882">
        <ele>371.9</ele>
        <time>2024-05-17T13:19:02Z</time>
      </trkpt>
      <trkpt lat="44.67056" lon="5.06881">
        <ele>372.1</ele>
        <time>2024-05-17T13:19:03Z</time>
      </trkpt>
      <trkpt lat="44.67054" lon="5.0688">
        <ele>372.3</ele>
        <time>2024-05-17T13:19:04Z</time>
      </trkpt>
      <trkpt lat="44.67052" lon="5.0688">
        <ele>372.5</ele>
        <time>2024-05-17T13:19:05Z</time>
      </trkpt>
      <trkpt lat="44.67051" lon="5.0688">
        <ele>372.6</ele>
        <time>2024-05-17T13:19:06Z</time>
      </trkpt>
      <trkpt lat="44.67049" lon="5.0688">
        <ele>372.8</ele>
        <time>2024-05-17T13:19:07Z</time>
      </trkpt>
      <trkpt lat="44.67046" lon="5.0688">
        <ele>373</ele>
        <time>2024-05-17T13:19:08Z</time>
      </trkpt>
      <trkpt lat="44.67044" lon="5.0688">
        <ele>373.2</ele>
        <time>2024-05-17T13:19:09Z</time>
      </trkpt>
      <trkpt lat="44.67041" lon="5.0688">
        <ele>373.4</ele>
        <time>2024-05-17T13:19:10Z</time>
      </trkpt>
      <trkpt lat="44.67039" lon="5.06879">
        <ele>373.6</ele>
        <time>2024-05-17T13:19:11Z</time>
      </trkpt>
      <trkpt lat="44.67036" lon="5.06879">
        <ele>373.8</ele>
        <time>2024-05-17T13:19:12Z</time>
      </trkpt>
      <trkpt lat="44.67032" lon="5.06878">
        <ele>374.2</ele>
        <time>2024-05-17T13:19:13Z</time>
      </trkpt>
      <trkpt lat="44.67031" lon="5.06878">
        <ele>374.3</ele>
        <time>2024-05-17T13:19:14Z</time>
      </trkpt>
      <trkpt lat="44.67028" lon="5.06878">
        <ele>374.5</ele>
        <time>2024-05-17T13:19:15Z</time>
      </trkpt>
      <trkpt lat="44.67026" lon="5.06879">
        <ele>374.7</ele>
        <time>2024-05-17T13:19:16Z</time>
      </trkpt>
      <trkpt lat="44.67024" lon="5.0688">
        <ele>374.9</ele>
        <time>2024-05-17T13:19:17Z</time>
      </trkpt>
      <trkpt lat="44.67021" lon="5.06881">
        <ele>375.1</ele>
        <time>2024-05-17T13:19:18Z</time>
      </trkpt>
      <trkpt lat="44.67019" lon="5.06881">
        <ele>375.3</ele>
        <time>2024-05-17T13:19:19Z</time>
      </trkpt>
      <trkpt lat="44.67017" lon="5.06882">
        <ele>375.5</ele>
        <time>2024-05-17T13:19:20Z</time>
      </trkpt>
      <trkpt lat="44.67014" lon="5.06882">
        <ele>375.7</ele>
        <time>2024-05-17T13:19:21Z</time>
      </trkpt>
      <trkpt lat="44.67012" lon="5.06882">
        <ele>375.9</ele>
        <time>2024-05-17T13:19:22Z</time>
      </trkpt>
      <trkpt lat="44.6701" lon="5.06883">
        <ele>376.1</ele>
        <time>2024-05-17T13:19:23Z</time>
      </trkpt>
      <trkpt lat="44.67008" lon="5.06884">
        <ele>376.3</ele>
        <time>2024-05-17T13:19:24Z</time>
      </trkpt>
      <trkpt lat="44.67005" lon="5.06885">
        <ele>376.6</ele>
        <time>2024-05-17T13:19:25Z</time>
      </trkpt>
      <trkpt lat="44.67004" lon="5.06885">
        <ele>376.7</ele>
        <time>2024-05-17T13:19:26Z</time>
      </trkpt>
      <trkpt lat="44.67" lon="5.06885">
        <ele>377</ele>
        <time>2024-05-17T13:19:27Z</time>
      </trkpt>
      <trkpt lat="44.66999" lon="5.06886">
        <ele>377.1</ele>
        <time>2024-05-17T13:19:28Z</time>
      </trkpt>
      <trkpt lat="44.66995" lon="5.06886">
        <ele>377.5</ele>
        <time>2024-05-17T13:19:29Z</time>
      </trkpt>
      <trkpt lat="44.66994" lon="5.06886">
        <ele>377.6</ele>
        <time>2024-05-17T13:19:30Z</time>
      </trkpt>
      <trkpt lat="44.66991" lon="5.06885">
        <ele>377.8</ele>
        <time>2024-05-17T13:19:31Z</time>
      </trkpt>
      <trkpt lat="44.66989" lon="5.06885">
        <ele>378</ele>
        <time>2024-05-17T13:19:32Z</time>
      </trkpt>
      <trkpt lat="44.66987" lon="5.06885">
        <ele>378.2</ele>
        <time>2024-05-17T13:19:33Z</time>
      </trkpt>
      <trkpt lat="44.66985" lon="5.06885">
        <ele>378.4</ele>
        <time>2024-05-17T13:19:34Z</time>
      </trkpt>
      <trkpt lat="44.66983" lon="5.06886">
        <ele>378.6</ele>
        <time>2024-05-17T13:19:35Z</time>
      </trkpt>
      <trkpt lat="44.66981" lon="5.06885">
        <ele>378.8</ele>
        <time>2024-05-17T13:19:36Z</time>
      </trkpt>
      <trkpt lat="44.66979" lon="5.06885">
        <ele>379</ele>
        <time>2024-05-17T13:19:37Z</time>
      </trkpt>
      <trkpt lat="44.66977" lon="5.06885">
        <ele>379.1</ele>
        <time>2024-05-17T13:19:38Z</time>
      </trkpt>
      <trkpt lat="44.66975" lon="5.06884">
        <ele>379.3</ele>
        <time>2024-05-17T13:19:39Z</time>
      </trkpt>
      <trkpt lat="44.66973" lon="5.06884">
        <ele>379.5</ele>
        <time>2024-05-17T13:19:40Z</time>
      </trkpt>
      <trkpt lat="44.66971" lon="5.06883">
        <ele>379.7</ele>
        <time>2024-05-17T13:19:41Z</time>
      </trkpt>
      <trkpt lat="44.66968" lon="5.06883">
        <ele>380</ele>
        <time>2024-05-17T13:19:42Z</time>
      </trkpt>
      <trkpt lat="44.66967" lon="5.06883">
        <ele>380.1</ele>
        <time>2024-05-17T13:19:43Z</time>
      </trkpt>
      <trkpt lat="44.66963" lon="5.06883">
        <ele>380.4</ele>
        <time>2024-05-17T13:19:44Z</time>
      </trkpt>
      <trkpt lat="44.66962" lon="5.06883">
        <ele>380.5</ele>
        <time>2024-05-17T13:19:45Z</time>
      </trkpt>
      <trkpt lat="44.66958" lon="5.06882">
        <ele>380.9</ele>
        <time>2024-05-17T13:19:46Z</time>
      </trkpt>
      <trkpt lat="44.66957" lon="5.06881">
        <ele>381</ele>
        <time>2024-05-17T13:19:47Z</time>
      </trkpt>
      <trkpt lat="44.66954" lon="5.06882">
        <ele>381.3</ele>
        <time>2024-05-17T13:19:48Z</time>
      </trkpt>
      <trkpt lat="44.66953" lon="5.06882">
        <ele>381.4</ele>
        <time>2024-05-17T13:19:49Z</time>
      </trkpt>
      <trkpt lat="44.66951" lon="5.06882">
        <ele>381.6</ele>
        <time>2024-05-17T13:19:50Z</time>
      </trkpt>
      <trkpt lat="44.66948" lon="5.06881">
        <ele>381.9</ele>
        <time>2024-05-17T13:19:51Z</time>
      </trkpt>
      <trkpt lat="44.66946" lon="5.06882">
        <ele>382.1</ele>
        <time>2024-05-17T13:19:52Z</time>
      </trkpt>
      <trkpt lat="44.66943" lon="5.06883">
        <ele>382.3</ele>
        <time>2024-05-17T13:19:53Z</time>
      </trkpt>
      <trkpt lat="44.66941" lon="5.06883">
        <ele>382.6</ele>
        <time>2024-05-17T13:19:54Z</time>
      </trkpt>
      <trkpt lat="44.66938" lon="5.06884">
        <ele>382.9</ele>
        <time>2024-05-17T13:19:55Z</time>
      </trkpt>
      <trkpt lat="44.66937" lon="5.06885">
        <ele>383</ele>
        <time>2024-05-17T13:19:56Z</time>
      </trkpt>
      <trkpt lat="44.66935" lon="5.06886">
        <ele>383.2</ele>
        <time>2024-05-17T13:19:57Z</time>
      </trkpt>
      <trkpt lat="44.66933" lon="5.06886">
        <ele>383.4</ele>
        <time>2024-05-17T13:19:58Z</time>
      </trkpt>
      <trkpt lat="44.66931" lon="5.06886">
        <ele>383.5</ele>
        <time>2024-05-17T13:19:59Z</time>
      </trkpt>
      <trkpt lat="44.66929" lon="5.06886">
        <ele>383.7</ele>
        <time>2024-05-17T13:20:00Z</time>
      </trkpt>
      <trkpt lat="44.66927" lon="5.06887">
        <ele>383.9</ele>
        <time>2024-05-17T13:20:01Z</time>
      </trkpt>
      <trkpt lat="44.66925" lon="5.06888">
        <ele>384.1</ele>
        <time>2024-05-17T13:20:02Z</time>
      </trkpt>
      <trkpt lat="44.66923" lon="5.06888">
        <ele>384.3</ele>
        <time>2024-05-17T13:20:03Z</time>
      </trkpt>
      <trkpt lat="44.66921" lon="5.06889">
        <ele>384.5</ele>
        <time>2024-05-17T13:20:04Z</time>
      </trkpt>
      <trkpt lat="44.66919" lon="5.0689">
        <ele>384.7</ele>
        <time>2024-05-17T13:20:05Z</time>
      </trkpt>
      <trkpt lat="44.66916" lon="5.06891">
        <ele>384.9</ele>
        <time>2024-05-17T13:20:06Z</time>
      </trkpt>
      <trkpt lat="44.66913" lon="5.06892">
        <ele>385.3</ele>
        <time>2024-05-17T13:20:07Z</time>
      </trkpt>
      <trkpt lat="44.66912" lon="5.06893">
        <ele>385.3</ele>
        <time>2024-05-17T13:20:08Z</time>
      </trkpt>
      <trkpt lat="44.6691" lon="5.06894">
        <ele>385.5</ele>
        <time>2024-05-17T13:20:09Z</time>
      </trkpt>
      <trkpt lat="44.66908" lon="5.06895">
        <ele>385.7</ele>
        <time>2024-05-17T13:20:10Z</time>
      </trkpt>
      <trkpt lat="44.66906" lon="5.06896">
        <ele>385.9</ele>
        <time>2024-05-17T13:20:11Z</time>
      </trkpt>
      <trkpt lat="44.66904" lon="5.06898">
        <ele>386.1</ele>
        <time>2024-05-17T13:20:12Z</time>
      </trkpt>
      <trkpt lat="44.669" lon="5.069">
        <ele>386.4</ele>
        <time>2024-05-17T13:20:13Z</time>
      </trkpt>
      <trkpt lat="44.66898" lon="5.069">
        <ele>386.5</ele>
        <time>2024-05-17T13:20:14Z</time>
      </trkpt>
      <trkpt lat="44.66896" lon="5.06902">
        <ele>386.7</ele>
        <time>2024-05-17T13:20:15Z</time>
      </trkpt>
      <trkpt lat="44.66893" lon="5.06904">
        <ele>387</ele>
        <time>2024-05-17T13:20:16Z</time>
      </trkpt>
      <trkpt lat="44.66892" lon="5.06904">
        <ele>387.1</ele>
        <time>2024-05-17T13:20:17Z</time>
      </trkpt>
      <trkpt lat="44.66888" lon="5.06906">
        <ele>387.4</ele>
        <time>2024-05-17T13:20:18Z</time>
      </trkpt>
      <trkpt lat="44.66887" lon="5.06907">
        <ele>387.5</ele>
        <time>2024-05-17T13:20:19Z</time>
      </trkpt>
      <trkpt lat="44.66884" lon="5.06908">
        <ele>387.7</ele>
        <time>2024-05-17T13:20:20Z</time>
      </trkpt>
      <trkpt lat="44.6688" lon="5.06909">
        <ele>388.1</ele>
        <time>2024-05-17T13:20:21Z</time>
      </trkpt>
      <trkpt lat="44.66879" lon="5.06909">
        <ele>388.1</ele>
        <time>2024-05-17T13:20:22Z</time>
      </trkpt>
      <trkpt lat="44.66877" lon="5.0691">
        <ele>388.3</ele>
        <time>2024-05-17T13:20:23Z</time>
      </trkpt>
      <trkpt lat="44.66874" lon="5.0691">
        <ele>388.6</ele>
        <time>2024-05-17T13:20:24Z</time>
      </trkpt>
      <trkpt lat="44.66872" lon="5.06911">
        <ele>388.8</ele>
        <time>2024-05-17T13:20:25Z</time>
      </trkpt>
      <trkpt lat="44.66869" lon="5.06911">
        <ele>389</ele>
        <time>2024-05-17T13:20:26Z</time>
      </trkpt>
      <trkpt lat="44.66867" lon="5.06911">
        <ele>389.1</ele>
        <time>2024-05-17T13:20:27Z</time>
      </trkpt>
      <trkpt lat="44.66865" lon="5.06911">
        <ele>389.3</ele>
        <time>2024-05-17T13:20:28Z</time>
      </trkpt>
      <trkpt lat="44.66863" lon="5.06912">
        <ele>389.5</ele>
        <time>2024-05-17T13:20:29Z</time>
      </trkpt>
      <trkpt lat="44.66861" lon="5.06911">
        <ele>389.7</ele>
        <time>2024-05-17T13:20:30Z</time>
      </trkpt>
      <trkpt lat="44.66859" lon="5.06911">
        <ele>389.8</ele>
        <time>2024-05-17T13:20:31Z</time>
      </trkpt>
      <trkpt lat="44.66857" lon="5.06911">
        <ele>390</ele>
        <time>2024-05-17T13:20:32Z</time>
      </trkpt>
      <trkpt lat="44.66854" lon="5.06912">
        <ele>390.3</ele>
        <time>2024-05-17T13:20:33Z</time>
      </trkpt>
      <trkpt lat="44.66853" lon="5.06912">
        <ele>390.4</ele>
        <time>2024-05-17T13:20:34Z</time>
      </trkpt>
      <trkpt lat="44.66851" lon="5.06913">
        <ele>390.6</ele>
        <time>2024-05-17T13:20:35Z</time>
      </trkpt>
      <trkpt lat="44.66848" lon="5.06913">
        <ele>390.8</ele>
        <time>2024-05-17T13:20:36Z</time>
      </trkpt>
      <trkpt lat="44.66846" lon="5.06913">
        <ele>391</ele>
        <time>2024-05-17T13:20:37Z</time>
      </trkpt>
      <trkpt lat="44.66844" lon="5.06913">
        <ele>391.2</ele>
        <time>2024-05-17T13:20:38Z</time>
      </trkpt>
      <trkpt lat="44.66842" lon="5.06913">
        <ele>391.3</ele>
        <time>2024-05-17T13:20:39Z</time>
      </trkpt>
      <trkpt lat="44.6684" lon="5.06913">
        <ele>391.5</ele>
        <time>2024-05-17T13:20:40Z</time>
      </trkpt>
      <trkpt lat="44.66839" lon="5.06913">
        <ele>391.6</ele>
        <time>2024-05-17T13:20:41Z</time>
      </trkpt>
      <trkpt lat="44.66837" lon="5.06914">
        <ele>391.8</ele>
        <time>2024-05-17T13:20:42Z</time>
      </trkpt>
      <trkpt lat="44.66835" lon="5.06914">
        <ele>392</ele>
        <time>2024-05-17T13:20:43Z</time>
      </trkpt>
      <trkpt lat="44.66833" lon="5.06915">
        <ele>392.2</ele>
        <time>2024-05-17T13:20:44Z</time>
      </trkpt>
      <trkpt lat="44.66831" lon="5.06915">
        <ele>392.3</ele>
        <time>2024-05-17T13:20:45Z</time>
      </trkpt>
      <trkpt lat="44.66829" lon="5.06916">
        <ele>392.5</ele>
        <time>2024-05-17T13:20:46Z</time>
      </trkpt>
      <trkpt lat="44.66828" lon="5.06916">
        <ele>392.6</ele>
        <time>2024-05-17T13:20:47Z</time>
      </trkpt>
      <trkpt lat="44.66826" lon="5.06917">
        <ele>392.8</ele>
        <time>2024-05-17T13:20:48Z</time>
      </trkpt>
      <trkpt lat="44.66822" lon="5.06917">
        <ele>393.1</ele>
        <time>2024-05-17T13:20:49Z</time>
      </trkpt>
      <trkpt lat="44.66821" lon="5.06916">
        <ele>393.2</ele>
        <time>2024-05-17T13:20:50Z</time>
      </trkpt>
      <trkpt lat="44.66819" lon="5.06917">
        <ele>393.4</ele>
        <time>2024-05-17T13:20:51Z</time>
      </trkpt>
      <trkpt lat="44.66817" lon="5.06917">
        <ele>393.6</ele>
        <time>2024-05-17T13:20:52Z</time>
      </trkpt>
      <trkpt lat="44.66815" lon="5.06918">
        <ele>393.9</ele>
        <time>2024-05-17T13:20:53Z</time>
      </trkpt>
      <trkpt lat="44.66812" lon="5.06918">
        <ele>394.1</ele>
        <time>2024-05-17T13:20:54Z</time>
      </trkpt>
      <trkpt lat="44.6681" lon="5.06918">
        <ele>394.3</ele>
        <time>2024-05-17T13:20:55Z</time>
      </trkpt>
      <trkpt lat="44.66808" lon="5.06919">
        <ele>394.5</ele>
        <time>2024-05-17T13:20:56Z</time>
      </trkpt>
      <trkpt lat="44.66806" lon="5.0692">
        <ele>394.6</ele>
        <time>2024-05-17T13:20:57Z</time>
      </trkpt>
      <trkpt lat="44.66804" lon="5.0692">
        <ele>394.8</ele>
        <time>2024-05-17T13:20:58Z</time>
      </trkpt>
      <trkpt lat="44.66802" lon="5.06921">
        <ele>395</ele>
        <time>2024-05-17T13:20:59Z</time>
      </trkpt>
      <trkpt lat="44.66801" lon="5.06922">
        <ele>395.1</ele>
        <time>2024-05-17T13:21:00Z</time>
      </trkpt>
      <trkpt lat="44.66798" lon="5.06923">
        <ele>395.4</ele>
        <time>2024-05-17T13:21:01Z</time>
      </trkpt>
      <trkpt lat="44.66797" lon="5.06924">
        <ele>395.5</ele>
        <time>2024-05-17T13:21:02Z</time>
      </trkpt>
      <trkpt lat="44.66795" lon="5.06925">
        <ele>395.7</ele>
        <time>2024-05-17T13:21:03Z</time>
      </trkpt>
      <trkpt lat="44.66793" lon="5.06925">
        <ele>395.9</ele>
        <time>2024-05-17T13:21:04Z</time>
      </trkpt>
      <trkpt lat="44.6679" lon="5.06926">
        <ele>396.1</ele>
        <time>2024-05-17T13:21:05Z</time>
      </trkpt>
      <trkpt lat="44.66788" lon="5.06926">
        <ele>396.3</ele>
        <time>2024-05-17T13:21:06Z</time>
      </trkpt>
      <trkpt lat="44.66787" lon="5.06927">
        <ele>396.4</ele>
        <time>2024-05-17T13:21:07Z</time>
      </trkpt>
      <trkpt lat="44.66784" lon="5.06928">
        <ele>396.7</ele>
        <time>2024-05-17T13:21:08Z</time>
      </trkpt>
      <trkpt lat="44.66784" lon="5.06928">
        <ele>396.7</ele>
        <time>2024-05-17T13:21:09Z</time>
      </trkpt>
      <trkpt lat="44.66779" lon="5.06929">
        <ele>397.1</ele>
        <time>2024-05-17T13:21:10Z</time>
      </trkpt>
      <trkpt lat="44.66778" lon="5.06929">
        <ele>397.2</ele>
        <time>2024-05-17T13:21:11Z</time>
      </trkpt>
      <trkpt lat="44.66775" lon="5.06931">
        <ele>397.5</ele>
        <time>2024-05-17T13:21:12Z</time>
      </trkpt>
      <trkpt lat="44.66773" lon="5.06933">
        <ele>397.7</ele>
        <time>2024-05-17T13:21:13Z</time>
      </trkpt>
      <trkpt lat="44.66771" lon="5.06935">
        <ele>398</ele>
        <time>2024-05-17T13:21:14Z</time>
      </trkpt>
      <trkpt lat="44.66766" lon="5.06936">
        <ele>398.4</ele>
        <time>2024-05-17T13:21:15Z</time>
      </trkpt>
      <trkpt lat="44.66765" lon="5.06936">
        <ele>398.6</ele>
        <time>2024-05-17T13:21:16Z</time>
      </trkpt>
      <trkpt lat="44.66761" lon="5.06937">
        <ele>399</ele>
        <time>2024-05-17T13:21:17Z</time>
      </trkpt>
      <trkpt lat="44.66759" lon="5.06937">
        <ele>399.1</ele>
        <time>2024-05-17T13:21:18Z</time>
      </trkpt>
      <trkpt lat="44.66756" lon="5.06939">
        <ele>399.5</ele>
        <time>2024-05-17T13:21:19Z</time>
      </trkpt>
      <trkpt lat="44.66755" lon="5.0694">
        <ele>399.6</ele>
        <time>2024-05-17T13:21:20Z</time>
      </trkpt>
      <trkpt lat="44.66752" lon="5.0694">
        <ele>399.9</ele>
        <time>2024-05-17T13:21:21Z</time>
      </trkpt>
      <trkpt lat="44.6675" lon="5.0694">
        <ele>400</ele>
        <time>2024-05-17T13:21:22Z</time>
      </trkpt>
      <trkpt lat="44.66747" lon="5.06941">
        <ele>400.4</ele>
        <time>2024-05-17T13:21:23Z</time>
      </trkpt>
      <trkpt lat="44.66746" lon="5.06941">
        <ele>400.5</ele>
        <time>2024-05-17T13:21:24Z</time>
      </trkpt>
      <trkpt lat="44.66744" lon="5.06942">
        <ele>400.7</ele>
        <time>2024-05-17T13:21:25Z</time>
      </trkpt>
      <trkpt lat="44.66742" lon="5.06943">
        <ele>400.9</ele>
        <time>2024-05-17T13:21:26Z</time>
      </trkpt>
      <trkpt lat="44.66739" lon="5.06944">
        <ele>401.1</ele>
        <time>2024-05-17T13:21:27Z</time>
      </trkpt>
      <trkpt lat="44.66737" lon="5.06945">
        <ele>401.3</ele>
        <time>2024-05-17T13:21:28Z</time>
      </trkpt>
      <trkpt lat="44.66735" lon="5.06947">
        <ele>401.5</ele>
        <time>2024-05-17T13:21:29Z</time>
      </trkpt>
      <trkpt lat="44.66733" lon="5.06947">
        <ele>401.7</ele>
        <time>2024-05-17T13:21:30Z</time>
      </trkpt>
      <trkpt lat="44.66731" lon="5.06947">
        <ele>401.9</ele>
        <time>2024-05-17T13:21:31Z</time>
      </trkpt>
      <trkpt lat="44.6673" lon="5.06949">
        <ele>402.1</ele>
        <time>2024-05-17T13:21:32Z</time>
      </trkpt>
      <trkpt lat="44.66726" lon="5.06951">
        <ele>402.4</ele>
        <time>2024-05-17T13:21:33Z</time>
      </trkpt>
      <trkpt lat="44.66725" lon="5.06951">
        <ele>402.6</ele>
        <time>2024-05-17T13:21:34Z</time>
      </trkpt>
      <trkpt lat="44.66723" lon="5.06952">
        <ele>402.8</ele>
        <time>2024-05-17T13:21:35Z</time>
      </trkpt>
      <trkpt lat="44.66721" lon="5.06953">
        <ele>402.9</ele>
        <time>2024-05-17T13:21:36Z</time>
      </trkpt>
      <trkpt lat="44.66719" lon="5.06954">
        <ele>403.2</ele>
        <time>2024-05-17T13:21:37Z</time>
      </trkpt>
      <trkpt lat="44.66717" lon="5.06955">
        <ele>403.4</ele>
        <time>2024-05-17T13:21:38Z</time>
      </trkpt>
      <trkpt lat="44.66714" lon="5.06956">
        <ele>403.6</ele>
        <time>2024-05-17T13:21:39Z</time>
      </trkpt>
      <trkpt lat="44.66712" lon="5.06957">
        <ele>403.8</ele>
        <time>2024-05-17T13:21:40Z</time>
      </trkpt>
      <trkpt lat="44.6671" lon="5.06958">
        <ele>404</ele>
        <time>2024-05-17T13:21:41Z</time>
      </trkpt>
      <trkpt lat="44.66707" lon="5.06958">
        <ele>404.2</ele>
        <time>2024-05-17T13:21:42Z</time>
      </trkpt>
      <trkpt lat="44.66704" lon="5.06959">
        <ele>404.5</ele>
        <time>2024-05-17T13:21:43Z</time>
      </trkpt>
      <trkpt lat="44.66703" lon="5.0696">
        <ele>404.6</ele>
        <time>2024-05-17T13:21:44Z</time>
      </trkpt>
      <trkpt lat="44.66701" lon="5.06961">
        <ele>404.8</ele>
        <time>2024-05-17T13:21:45Z</time>
      </trkpt>
      <trkpt lat="44.66699" lon="5.06961">
        <ele>404.9</ele>
        <time>2024-05-17T13:21:46Z</time>
      </trkpt>
      <trkpt lat="44.66696" lon="5.0696">
        <ele>405.2</ele>
        <time>2024-05-17T13:21:47Z</time>
      </trkpt>
      <trkpt lat="44.66694" lon="5.0696">
        <ele>405.3</ele>
        <time>2024-05-17T13:21:48Z</time>
      </trkpt>
      <trkpt lat="44.66693" lon="5.0696">
        <ele>405.4</ele>
        <time>2024-05-17T13:21:49Z</time>
      </trkpt>
      <trkpt lat="44.66692" lon="5.0696">
        <ele>405.5</ele>
        <time>2024-05-17T13:21:50Z</time>
      </trkpt>
      <trkpt lat="44.66691" lon="5.0696">
        <ele>405.6</ele>
        <time>2024-05-17T13:21:51Z</time>
      </trkpt>
      <trkpt lat="44.6669" lon="5.0696">
        <ele>405.7</ele>
        <time>2024-05-17T13:21:52Z</time>
      </trkpt>
      <trkpt lat="44.66689" lon="5.06959">
        <ele>405.8</ele>
        <time>2024-05-17T13:21:53Z</time>
      </trkpt>
      <trkpt lat="44.66688" lon="5.06959">
        <ele>405.9</ele>
        <time>2024-05-17T13:21:54Z</time>
      </trkpt>
      <trkpt lat="44.66687" lon="5.06958">
        <ele>406</ele>
        <time>2024-05-17T13:21:55Z</time>
      </trkpt>
      <trkpt lat="44.66687" lon="5.06956">
        <ele>406.1</ele>
        <time>2024-05-17T13:21:56Z</time>
      </trkpt>
      <trkpt lat="44.66686" lon="5.06954">
        <ele>406.3</ele>
        <time>2024-05-17T13:21:57Z</time>
      </trkpt>
      <trkpt lat="44.66685" lon="5.06954">
        <ele>406.4</ele>
        <time>2024-05-17T13:21:58Z</time>
      </trkpt>
      <trkpt lat="44.66683" lon="5.06954">
        <ele>406.4</ele>
        <time>2024-05-17T13:21:59Z</time>
      </trkpt>
      <trkpt lat="44.66682" lon="5.06954">
        <ele>406.5</ele>
        <time>2024-05-17T13:22:00Z</time>
      </trkpt>
      <trkpt lat="44.66681" lon="5.06953">
        <ele>406.6</ele>
        <time>2024-05-17T13:22:01Z</time>
      </trkpt>
      <trkpt lat="44.6668" lon="5.06953">
        <ele>406.7</ele>
        <time>2024-05-17T13:22:02Z</time>
      </trkpt>
      <trkpt lat="44.66678" lon="5.06955">
        <ele>406.9</ele>
        <time>2024-05-17T13:22:03Z</time>
      </trkpt>
      <trkpt lat="44.66677" lon="5.06955">
        <ele>407</ele>
        <time>2024-05-17T13:22:04Z</time>
      </trkpt>
      <trkpt lat="44.66675" lon="5.06956">
        <ele>407.2</ele>
        <time>2024-05-17T13:22:05Z</time>
      </trkpt>
      <trkpt lat="44.66674" lon="5.06957">
        <ele>407.3</ele>
        <time>2024-05-17T13:22:06Z</time>
      </trkpt>
      <trkpt lat="44.66672" lon="5.06958">
        <ele>407.5</ele>
        <time>2024-05-17T13:22:07Z</time>
      </trkpt>
      <trkpt lat="44.6667" lon="5.06957">
        <ele>407.7</ele>
        <time>2024-05-17T13:22:08Z</time>
      </trkpt>
      <trkpt lat="44.66668" lon="5.06954">
        <ele>407.9</ele>
        <time>2024-05-17T13:22:09Z</time>
      </trkpt>
      <trkpt lat="44.66668" lon="5.06953">
        <ele>408</ele>
        <time>2024-05-17T13:22:10Z</time>
      </trkpt>
      <trkpt lat="44.66666" lon="5.06951">
        <ele>408.2</ele>
        <time>2024-05-17T13:22:11Z</time>
      </trkpt>
      <trkpt lat="44.66664" lon="5.06951">
        <ele>408.4</ele>
        <time>2024-05-17T13:22:12Z</time>
      </trkpt>
      <trkpt lat="44.66661" lon="5.06951">
        <ele>408.7</ele>
        <time>2024-05-17T13:22:13Z</time>
      </trkpt>
      <trkpt lat="44.66658" lon="5.0695">
        <ele>409</ele>
        <time>2024-05-17T13:22:14Z</time>
      </trkpt>
      <trkpt lat="44.66656" lon="5.0695">
        <ele>409.1</ele>
        <time>2024-05-17T13:22:15Z</time>
      </trkpt>
      <trkpt lat="44.66655" lon="5.0695">
        <ele>409.3</ele>
        <time>2024-05-17T13:22:16Z</time>
      </trkpt>
      <trkpt lat="44.66649" lon="5.0695">
        <ele>409.8</ele>
        <time>2024-05-17T13:22:17Z</time>
      </trkpt>
      <trkpt lat="44.66647" lon="5.0695">
        <ele>410</ele>
        <time>2024-05-17T13:22:18Z</time>
      </trkpt>
      <trkpt lat="44.66645" lon="5.06949">
        <ele>410.2</ele>
        <time>2024-05-17T13:22:19Z</time>
      </trkpt>
      <trkpt lat="44.66642" lon="5.06949">
        <ele>410.5</ele>
        <time>2024-05-17T13:22:20Z</time>
      </trkpt>
      <trkpt lat="44.66641" lon="5.06946">
        <ele>410.7</ele>
        <time>2024-05-17T13:22:21Z</time>
      </trkpt>
      <trkpt lat="44.66641" lon="5.06944">
        <ele>410.8</ele>
        <time>2024-05-17T13:22:22Z</time>
      </trkpt>
      <trkpt lat="44.66639" lon="5.06941">
        <ele>411.1</ele>
        <time>2024-05-17T13:22:23Z</time>
      </trkpt>
      <trkpt lat="44.66638" lon="5.0694">
        <ele>411.2</ele>
        <time>2024-05-17T13:22:24Z</time>
      </trkpt>
      <trkpt lat="44.66636" lon="5.06938">
        <ele>411.3</ele>
        <time>2024-05-17T13:22:25Z</time>
      </trkpt>
      <trkpt lat="44.66632" lon="5.06938">
        <ele>411.8</ele>
        <time>2024-05-17T13:22:26Z</time>
      </trkpt>
      <trkpt lat="44.66631" lon="5.06938">
        <ele>412</ele>
        <time>2024-05-17T13:22:27Z</time>
      </trkpt>
      <trkpt lat="44.66628" lon="5.06937">
        <ele>412.3</ele>
        <time>2024-05-17T13:22:28Z</time>
      </trkpt>
      <trkpt lat="44.66625" lon="5.06936">
        <ele>412.6</ele>
        <time>2024-05-17T13:22:29Z</time>
      </trkpt>
      <trkpt lat="44.66623" lon="5.06934">
        <ele>412.9</ele>
        <time>2024-05-17T13:22:30Z</time>
      </trkpt>
      <trkpt lat="44.66621" lon="5.06932">
        <ele>413.2</ele>
        <time>2024-05-17T13:22:31Z</time>
      </trkpt>
      <trkpt lat="44.66618" lon="5.06932">
        <ele>413.4</ele>
        <time>2024-05-17T13:22:32Z</time>
      </trkpt>
      <trkpt lat="44.66616" lon="5.06931">
        <ele>413.7</ele>
        <time>2024-05-17T13:22:33Z</time>
      </trkpt>
      <trkpt lat="44.66613" lon="5.06929">
        <ele>414</ele>
        <time>2024-05-17T13:22:34Z</time>
      </trkpt>
      <trkpt lat="44.66613" lon="5.06928">
        <ele>414.1</ele>
        <time>2024-05-17T13:22:35Z</time>
      </trkpt>
      <trkpt lat="44.6661" lon="5.06927">
        <ele>414.5</ele>
        <time>2024-05-17T13:22:36Z</time>
      </trkpt>
      <trkpt lat="44.66609" lon="5.06927">
        <ele>414.6</ele>
        <time>2024-05-17T13:22:37Z</time>
      </trkpt>
      <trkpt lat="44.66607" lon="5.06924">
        <ele>414.9</ele>
        <time>2024-05-17T13:22:38Z</time>
      </trkpt>
      <trkpt lat="44.66606" lon="5.06924">
        <ele>415</ele>
        <time>2024-05-17T13:22:39Z</time>
      </trkpt>
      <trkpt lat="44.66604" lon="5.06924">
        <ele>415.3</ele>
        <time>2024-05-17T13:22:40Z</time>
      </trkpt>
      <trkpt lat="44.66602" lon="5.06925">
        <ele>415.5</ele>
        <time>2024-05-17T13:22:41Z</time>
      </trkpt>
      <trkpt lat="44.66603" lon="5.0692">
        <ele>415.8</ele>
        <time>2024-05-17T13:22:42Z</time>
      </trkpt>
      <trkpt lat="44.66604" lon="5.06916">
        <ele>416.2</ele>
        <time>2024-05-17T13:22:43Z</time>
      </trkpt>
      <trkpt lat="44.66602" lon="5.06915">
        <ele>416.4</ele>
        <time>2024-05-17T13:22:44Z</time>
      </trkpt>
      <trkpt lat="44.66601" lon="5.06913">
        <ele>416.6</ele>
        <time>2024-05-17T13:22:45Z</time>
      </trkpt>
      <trkpt lat="44.66601" lon="5.0691">
        <ele>416.8</ele>
        <time>2024-05-17T13:22:46Z</time>
      </trkpt>
      <trkpt lat="44.666" lon="5.06907">
        <ele>417.1</ele>
        <time>2024-05-17T13:22:47Z</time>
      </trkpt>
      <trkpt lat="44.66599" lon="5.06906">
        <ele>417.2</ele>
        <time>2024-05-17T13:22:48Z</time>
      </trkpt>
      <trkpt lat="44.66598" lon="5.06905">
        <ele>417.4</ele>
        <time>2024-05-17T13:22:49Z</time>
      </trkpt>
      <trkpt lat="44.66596" lon="5.06903">
        <ele>417.4</ele>
        <time>2024-05-17T13:22:50Z</time>
      </trkpt>
      <trkpt lat="44.66594" lon="5.06902">
        <ele>417.5</ele>
        <time>2024-05-17T13:22:51Z</time>
      </trkpt>
      <trkpt lat="44.66592" lon="5.069">
        <ele>417.7</ele>
        <time>2024-05-17T13:22:52Z</time>
      </trkpt>
      <trkpt lat="44.66591" lon="5.06899">
        <ele>417.7</ele>
        <time>2024-05-17T13:22:53Z</time>
      </trkpt>
      <trkpt lat="44.66588" lon="5.06898">
        <ele>417.9</ele>
        <time>2024-05-17T13:22:54Z</time>
      </trkpt>
      <trkpt lat="44.66585" lon="5.06897">
        <ele>418</ele>
        <time>2024-05-17T13:22:55Z</time>
      </trkpt>
      <trkpt lat="44.66583" lon="5.06897">
        <ele>418.2</ele>
        <time>2024-05-17T13:22:56Z</time>
      </trkpt>
      <trkpt lat="44.66579" lon="5.06897">
        <ele>418.4</ele>
        <time>2024-05-17T13:22:57Z</time>
      </trkpt>
      <trkpt lat="44.66576" lon="5.06897">
        <ele>418.6</ele>
        <time>2024-05-17T13:22:58Z</time>
      </trkpt>
      <trkpt lat="44.66567" lon="5.06901">
        <ele>419.1</ele>
        <time>2024-05-17T13:22:59Z</time>
      </trkpt>
      <trkpt lat="44.66565" lon="5.06903">
        <ele>419.3</ele>
        <time>2024-05-17T13:23:00Z</time>
      </trkpt>
      <trkpt lat="44.66557" lon="5.06906">
        <ele>419.9</ele>
        <time>2024-05-17T13:23:01Z</time>
      </trkpt>
      <trkpt lat="44.66555" lon="5.06907">
        <ele>420</ele>
        <time>2024-05-17T13:23:02Z</time>
      </trkpt>
      <trkpt lat="44.66551" lon="5.06909">
        <ele>420.4</ele>
        <time>2024-05-17T13:23:03Z</time>
      </trkpt>
      <trkpt lat="44.66549" lon="5.06909">
        <ele>420.5</ele>
        <time>2024-05-17T13:23:04Z</time>
      </trkpt>
      <trkpt lat="44.66547" lon="5.06911">
        <ele>420.7</ele>
        <time>2024-05-17T13:23:05Z</time>
      </trkpt>
      <trkpt lat="44.66545" lon="5.06912">
        <ele>420.9</ele>
        <time>2024-05-17T13:23:06Z</time>
      </trkpt>
      <trkpt lat="44.66542" lon="5.06912">
        <ele>421.1</ele>
        <time>2024-05-17T13:23:07Z</time>
      </trkpt>
      <trkpt lat="44.66539" lon="5.06913">
        <ele>421.3</ele>
        <time>2024-05-17T13:23:08Z</time>
      </trkpt>
      <trkpt lat="44.66537" lon="5.06914">
        <ele>421.5</ele>
        <time>2024-05-17T13:23:09Z</time>
      </trkpt>
      <trkpt lat="44.66534" lon="5.06914">
        <ele>421.7</ele>
        <time>2024-05-17T13:23:10Z</time>
      </trkpt>
      <trkpt lat="44.66532" lon="5.06915">
        <ele>421.9</ele>
        <time>2024-05-17T13:23:11Z</time>
      </trkpt>
      <trkpt lat="44.6653" lon="5.06915">
        <ele>422</ele>
        <time>2024-05-17T13:23:12Z</time>
      </trkpt>
      <trkpt lat="44.66528" lon="5.06916">
        <ele>422.2</ele>
        <time>2024-05-17T13:23:13Z</time>
      </trkpt>
      <trkpt lat="44.66526" lon="5.06916">
        <ele>422.4</ele>
        <time>2024-05-17T13:23:14Z</time>
      </trkpt>
      <trkpt lat="44.66524" lon="5.06916">
        <ele>422.5</ele>
        <time>2024-05-17T13:23:15Z</time>
      </trkpt>
      <trkpt lat="44.66521" lon="5.06916">
        <ele>422.8</ele>
        <time>2024-05-17T13:23:16Z</time>
      </trkpt>
      <trkpt lat="44.6652" lon="5.06916">
        <ele>422.9</ele>
        <time>2024-05-17T13:23:17Z</time>
      </trkpt>
      <trkpt lat="44.66517" lon="5.06916">
        <ele>423.1</ele>
        <time>2024-05-17T13:23:18Z</time>
      </trkpt>
      <trkpt lat="44.66516" lon="5.06916">
        <ele>423.2</ele>
        <time>2024-05-17T13:23:19Z</time>
      </trkpt>
      <trkpt lat="44.66513" lon="5.06915">
        <ele>423.5</ele>
        <time>2024-05-17T13:23:20Z</time>
      </trkpt>
      <trkpt lat="44.66512" lon="5.06915">
        <ele>423.6</ele>
        <time>2024-05-17T13:23:21Z</time>
      </trkpt>
      <trkpt lat="44.6651" lon="5.06914">
        <ele>423.8</ele>
        <time>2024-05-17T13:23:22Z</time>
      </trkpt>
      <trkpt lat="44.66508" lon="5.06914">
        <ele>424</ele>
        <time>2024-05-17T13:23:23Z</time>
      </trkpt>
      <trkpt lat="44.66506" lon="5.06914">
        <ele>424.1</ele>
        <time>2024-05-17T13:23:24Z</time>
      </trkpt>
      <trkpt lat="44.66504" lon="5.06914">
        <ele>424.3</ele>
        <time>2024-05-17T13:23:25Z</time>
      </trkpt>
      <trkpt lat="44.66502" lon="5.06914">
        <ele>424.4</ele>
        <time>2024-05-17T13:23:26Z</time>
      </trkpt>
      <trkpt lat="44.66501" lon="5.06913">
        <ele>424.6</ele>
        <time>2024-05-17T13:23:27Z</time>
      </trkpt>
      <trkpt lat="44.66499" lon="5.06913">
        <ele>424.8</ele>
        <time>2024-05-17T13:23:28Z</time>
      </trkpt>
      <trkpt lat="44.66496" lon="5.06912">
        <ele>425</ele>
        <time>2024-05-17T13:23:29Z</time>
      </trkpt>
      <trkpt lat="44.66495" lon="5.06912">
        <ele>425.1</ele>
        <time>2024-05-17T13:23:30Z</time>
      </trkpt>
      <trkpt lat="44.66493" lon="5.06911">
        <ele>425.3</ele>
        <time>2024-05-17T13:23:31Z</time>
      </trkpt>
      <trkpt lat="44.66491" lon="5.06911">
        <ele>425.4</ele>
        <time>2024-05-17T13:23:32Z</time>
      </trkpt>
      <trkpt lat="44.66489" lon="5.06911">
        <ele>425.6</ele>
        <time>2024-05-17T13:23:33Z</time>
      </trkpt>
      <trkpt lat="44.66487" lon="5.0691">
        <ele>425.8</ele>
        <time>2024-05-17T13:23:34Z</time>
      </trkpt>
      <trkpt lat="44.66485" lon="5.0691">
        <ele>426</ele>
        <time>2024-05-17T13:23:35Z</time>
      </trkpt>
      <trkpt lat="44.66483" lon="5.0691">
        <ele>426.2</ele>
        <time>2024-05-17T13:23:36Z</time>
      </trkpt>
      <trkpt lat="44.66481" lon="5.06911">
        <ele>426.3</ele>
        <time>2024-05-17T13:23:37Z</time>
      </trkpt>
      <trkpt lat="44.66479" lon="5.06911">
        <ele>426.5</ele>
        <time>2024-05-17T13:23:38Z</time>
      </trkpt>
      <trkpt lat="44.66476" lon="5.06911">
        <ele>426.7</ele>
        <time>2024-05-17T13:23:39Z</time>
      </trkpt>
      <trkpt lat="44.66474" lon="5.06912">
        <ele>426.9</ele>
        <time>2024-05-17T13:23:40Z</time>
      </trkpt>
      <trkpt lat="44.66471" lon="5.06914">
        <ele>427.2</ele>
        <time>2024-05-17T13:23:41Z</time>
      </trkpt>
      <trkpt lat="44.6647" lon="5.06915">
        <ele>427.3</ele>
        <time>2024-05-17T13:23:42Z</time>
      </trkpt>
      <trkpt lat="44.66469" lon="5.06916">
        <ele>427.4</ele>
        <time>2024-05-17T13:23:43Z</time>
      </trkpt>
      <trkpt lat="44.66467" lon="5.06918">
        <ele>427.6</ele>
        <time>2024-05-17T13:23:44Z</time>
      </trkpt>
      <trkpt lat="44.66465" lon="5.06918">
        <ele>427.8</ele>
        <time>2024-05-17T13:23:45Z</time>
      </trkpt>
      <trkpt lat="44.66464" lon="5.0692">
        <ele>427.9</ele>
        <time>2024-05-17T13:23:46Z</time>
      </trkpt>
      <trkpt lat="44.66462" lon="5.06921">
        <ele>428.1</ele>
        <time>2024-05-17T13:23:47Z</time>
      </trkpt>
      <trkpt lat="44.6646" lon="5.06922">
        <ele>428.2</ele>
        <time>2024-05-17T13:23:48Z</time>
      </trkpt>
      <trkpt lat="44.66458" lon="5.06923">
        <ele>428.4</ele>
        <time>2024-05-17T13:23:49Z</time>
      </trkpt>
      <trkpt lat="44.66455" lon="5.06924">
        <ele>428.6</ele>
        <time>2024-05-17T13:23:50Z</time>
      </trkpt>
      <trkpt lat="44.66454" lon="5.06925">
        <ele>428.7</ele>
        <time>2024-05-17T13:23:51Z</time>
      </trkpt>
      <trkpt lat="44.66452" lon="5.06926">
        <ele>428.9</ele>
        <time>2024-05-17T13:23:52Z</time>
      </trkpt>
      <trkpt lat="44.6645" lon="5.06927">
        <ele>429</ele>
        <time>2024-05-17T13:23:53Z</time>
      </trkpt>
      <trkpt lat="44.66449" lon="5.06927">
        <ele>429.1</ele>
        <time>2024-05-17T13:23:54Z</time>
      </trkpt>
      <trkpt lat="44.66447" lon="5.06929">
        <ele>429.3</ele>
        <time>2024-05-17T13:23:55Z</time>
      </trkpt>
      <trkpt lat="44.66445" lon="5.0693">
        <ele>429.4</ele>
        <time>2024-05-17T13:23:56Z</time>
      </trkpt>
      <trkpt lat="44.66443" lon="5.06931">
        <ele>429.6</ele>
        <time>2024-05-17T13:23:57Z</time>
      </trkpt>
      <trkpt lat="44.6644" lon="5.06933">
        <ele>429.8</ele>
        <time>2024-05-17T13:23:58Z</time>
      </trkpt>
      <trkpt lat="44.66439" lon="5.06933">
        <ele>429.9</ele>
        <time>2024-05-17T13:23:59Z</time>
      </trkpt>
      <trkpt lat="44.66436" lon="5.06934">
        <ele>430.1</ele>
        <time>2024-05-17T13:24:00Z</time>
      </trkpt>
      <trkpt lat="44.66435" lon="5.06934">
        <ele>430.2</ele>
        <time>2024-05-17T13:24:01Z</time>
      </trkpt>
      <trkpt lat="44.66431" lon="5.06935">
        <ele>430.5</ele>
        <time>2024-05-17T13:24:02Z</time>
      </trkpt>
      <trkpt lat="44.6643" lon="5.06935">
        <ele>430.6</ele>
        <time>2024-05-17T13:24:03Z</time>
      </trkpt>
      <trkpt lat="44.66427" lon="5.06936">
        <ele>430.8</ele>
        <time>2024-05-17T13:24:04Z</time>
      </trkpt>
      <trkpt lat="44.66426" lon="5.06937">
        <ele>430.9</ele>
        <time>2024-05-17T13:24:05Z</time>
      </trkpt>
      <trkpt lat="44.66424" lon="5.06938">
        <ele>431.1</ele>
        <time>2024-05-17T13:24:06Z</time>
      </trkpt>
      <trkpt lat="44.66422" lon="5.06939">
        <ele>431.2</ele>
        <time>2024-05-17T13:24:07Z</time>
      </trkpt>
      <trkpt lat="44.66421" lon="5.06941">
        <ele>431.4</ele>
        <time>2024-05-17T13:24:08Z</time>
      </trkpt>
      <trkpt lat="44.66419" lon="5.06942">
        <ele>431.5</ele>
        <time>2024-05-17T13:24:09Z</time>
      </trkpt>
      <trkpt lat="44.66417" lon="5.06944">
        <ele>431.7</ele>
        <time>2024-05-17T13:24:10Z</time>
      </trkpt>
      <trkpt lat="44.66415" lon="5.06947">
        <ele>432</ele>
        <time>2024-05-17T13:24:11Z</time>
      </trkpt>
      <trkpt lat="44.66414" lon="5.06948">
        <ele>432</ele>
        <time>2024-05-17T13:24:12Z</time>
      </trkpt>
      <trkpt lat="44.66413" lon="5.0695">
        <ele>432.2</ele>
        <time>2024-05-17T13:24:13Z</time>
      </trkpt>
      <trkpt lat="44.66411" lon="5.06952">
        <ele>432.4</ele>
        <time>2024-05-17T13:24:14Z</time>
      </trkpt>
      <trkpt lat="44.66409" lon="5.06953">
        <ele>432.6</ele>
        <time>2024-05-17T13:24:15Z</time>
      </trkpt>
      <trkpt lat="44.66408" lon="5.06955">
        <ele>432.7</ele>
        <time>2024-05-17T13:24:16Z</time>
      </trkpt>
      <trkpt lat="44.66406" lon="5.06956">
        <ele>432.9</ele>
        <time>2024-05-17T13:24:17Z</time>
      </trkpt>
      <trkpt lat="44.66404" lon="5.06958">
        <ele>433.1</ele>
        <time>2024-05-17T13:24:18Z</time>
      </trkpt>
      <trkpt lat="44.66403" lon="5.0696">
        <ele>433.2</ele>
        <time>2024-05-17T13:24:19Z</time>
      </trkpt>
      <trkpt lat="44.66402" lon="5.06962">
        <ele>433.4</ele>
        <time>2024-05-17T13:24:20Z</time>
      </trkpt>
      <trkpt lat="44.66401" lon="5.06964">
        <ele>433.6</ele>
        <time>2024-05-17T13:24:21Z</time>
      </trkpt>
      <trkpt lat="44.66401" lon="5.06965">
        <ele>433.7</ele>
        <time>2024-05-17T13:24:22Z</time>
      </trkpt>
      <trkpt lat="44.66401" lon="5.06967">
        <ele>433.8</ele>
        <time>2024-05-17T13:24:23Z</time>
      </trkpt>
      <trkpt lat="44.664" lon="5.06968">
        <ele>433.9</ele>
        <time>2024-05-17T13:24:24Z</time>
      </trkpt>
      <trkpt lat="44.66399" lon="5.0697">
        <ele>434</ele>
        <time>2024-05-17T13:24:25Z</time>
      </trkpt>
      <trkpt lat="44.66398" lon="5.06972">
        <ele>434.2</ele>
        <time>2024-05-17T13:24:26Z</time>
      </trkpt>
      <trkpt lat="44.66396" lon="5.06975">
        <ele>434.4</ele>
        <time>2024-05-17T13:24:27Z</time>
      </trkpt>
      <trkpt lat="44.66395" lon="5.06976">
        <ele>434.6</ele>
        <time>2024-05-17T13:24:28Z</time>
      </trkpt>
      <trkpt lat="44.66394" lon="5.06978">
        <ele>434.7</ele>
        <time>2024-05-17T13:24:29Z</time>
      </trkpt>
      <trkpt lat="44.66393" lon="5.0698">
        <ele>434.9</ele>
        <time>2024-05-17T13:24:30Z</time>
      </trkpt>
      <trkpt lat="44.66391" lon="5.06983">
        <ele>435.1</ele>
        <time>2024-05-17T13:24:31Z</time>
      </trkpt>
      <trkpt lat="44.6639" lon="5.06984">
        <ele>435.2</ele>
        <time>2024-05-17T13:24:32Z</time>
      </trkpt>
      <trkpt lat="44.6639" lon="5.06985">
        <ele>435.3</ele>
        <time>2024-05-17T13:24:33Z</time>
      </trkpt>
      <trkpt lat="44.66388" lon="5.06987">
        <ele>435.5</ele>
        <time>2024-05-17T13:24:34Z</time>
      </trkpt>
      <trkpt lat="44.66387" lon="5.06988">
        <ele>435.6</ele>
        <time>2024-05-17T13:24:35Z</time>
      </trkpt>
      <trkpt lat="44.66385" lon="5.06989">
        <ele>435.8</ele>
        <time>2024-05-17T13:24:36Z</time>
      </trkpt>
      <trkpt lat="44.66384" lon="5.06991">
        <ele>435.9</ele>
        <time>2024-05-17T13:24:37Z</time>
      </trkpt>
      <trkpt lat="44.66382" lon="5.06993">
        <ele>436.1</ele>
        <time>2024-05-17T13:24:38Z</time>
      </trkpt>
      <trkpt lat="44.6638" lon="5.06994">
        <ele>436.3</ele>
        <time>2024-05-17T13:24:39Z</time>
      </trkpt>
      <trkpt lat="44.66379" lon="5.06995">
        <ele>436.4</ele>
        <time>2024-05-17T13:24:40Z</time>
      </trkpt>
      <trkpt lat="44.66376" lon="5.06996">
        <ele>436.6</ele>
        <time>2024-05-17T13:24:41Z</time>
      </trkpt>
      <trkpt lat="44.66375" lon="5.06997">
        <ele>436.8</ele>
        <time>2024-05-17T13:24:42Z</time>
      </trkpt>
      <trkpt lat="44.66373" lon="5.06999">
        <ele>437</ele>
        <time>2024-05-17T13:24:43Z</time>
      </trkpt>
      <trkpt lat="44.66371" lon="5.07">
        <ele>437.1</ele>
        <time>2024-05-17T13:24:44Z</time>
      </trkpt>
      <trkpt lat="44.66369" lon="5.07001">
        <ele>437.3</ele>
        <time>2024-05-17T13:24:45Z</time>
      </trkpt>
      <trkpt lat="44.66368" lon="5.07003">
        <ele>437.4</ele>
        <time>2024-05-17T13:24:46Z</time>
      </trkpt>
      <trkpt lat="44.66366" lon="5.07003">
        <ele>437.6</ele>
        <time>2024-05-17T13:24:47Z</time>
      </trkpt>
      <trkpt lat="44.66364" lon="5.07004">
        <ele>437.8</ele>
        <time>2024-05-17T13:24:48Z</time>
      </trkpt>
      <trkpt lat="44.66362" lon="5.07005">
        <ele>438</ele>
        <time>2024-05-17T13:24:49Z</time>
      </trkpt>
      <trkpt lat="44.6636" lon="5.07006">
        <ele>438.2</ele>
        <time>2024-05-17T13:24:50Z</time>
      </trkpt>
      <trkpt lat="44.66357" lon="5.07008">
        <ele>438.5</ele>
        <time>2024-05-17T13:24:51Z</time>
      </trkpt>
      <trkpt lat="44.66355" lon="5.07008">
        <ele>438.6</ele>
        <time>2024-05-17T13:24:52Z</time>
      </trkpt>
      <trkpt lat="44.66352" lon="5.07009">
        <ele>438.9</ele>
        <time>2024-05-17T13:24:53Z</time>
      </trkpt>
      <trkpt lat="44.6635" lon="5.07009">
        <ele>439</ele>
        <time>2024-05-17T13:24:54Z</time>
      </trkpt>
      <trkpt lat="44.66345" lon="5.07009">
        <ele>439.4</ele>
        <time>2024-05-17T13:24:55Z</time>
      </trkpt>
      <trkpt lat="44.66344" lon="5.07009">
        <ele>439.5</ele>
        <time>2024-05-17T13:24:56Z</time>
      </trkpt>
      <trkpt lat="44.6634" lon="5.07011">
        <ele>439.8</ele>
        <time>2024-05-17T13:24:57Z</time>
      </trkpt>
      <trkpt lat="44.66339" lon="5.07011">
        <ele>439.9</ele>
        <time>2024-05-17T13:24:58Z</time>
      </trkpt>
      <trkpt lat="44.66336" lon="5.07011">
        <ele>440.1</ele>
        <time>2024-05-17T13:24:59Z</time>
      </trkpt>
      <trkpt lat="44.66334" lon="5.07011">
        <ele>440.3</ele>
        <time>2024-05-17T13:25:00Z</time>
      </trkpt>
      <trkpt lat="44.66331" lon="5.07011">
        <ele>440.5</ele>
        <time>2024-05-17T13:25:01Z</time>
      </trkpt>
      <trkpt lat="44.66328" lon="5.07011">
        <ele>440.8</ele>
        <time>2024-05-17T13:25:02Z</time>
      </trkpt>
      <trkpt lat="44.66325" lon="5.07011">
        <ele>441</ele>
        <time>2024-05-17T13:25:03Z</time>
      </trkpt>
      <trkpt lat="44.66323" lon="5.07011">
        <ele>441.2</ele>
        <time>2024-05-17T13:25:04Z</time>
      </trkpt>
      <trkpt lat="44.66319" lon="5.0701">
        <ele>441.5</ele>
        <time>2024-05-17T13:25:05Z</time>
      </trkpt>
      <trkpt lat="44.66318" lon="5.0701">
        <ele>441.6</ele>
        <time>2024-05-17T13:25:06Z</time>
      </trkpt>
      <trkpt lat="44.66315" lon="5.07008">
        <ele>441.8</ele>
        <time>2024-05-17T13:25:07Z</time>
      </trkpt>
      <trkpt lat="44.66314" lon="5.07008">
        <ele>441.9</ele>
        <time>2024-05-17T13:25:08Z</time>
      </trkpt>
      <trkpt lat="44.66311" lon="5.07007">
        <ele>442.2</ele>
        <time>2024-05-17T13:25:09Z</time>
      </trkpt>
      <trkpt lat="44.6631" lon="5.07007">
        <ele>442.3</ele>
        <time>2024-05-17T13:25:10Z</time>
      </trkpt>
      <trkpt lat="44.66307" lon="5.07007">
        <ele>442.6</ele>
        <time>2024-05-17T13:25:11Z</time>
      </trkpt>
      <trkpt lat="44.66306" lon="5.07007">
        <ele>442.6</ele>
        <time>2024-05-17T13:25:12Z</time>
      </trkpt>
      <trkpt lat="44.66303" lon="5.07006">
        <ele>442.9</ele>
        <time>2024-05-17T13:25:13Z</time>
      </trkpt>
      <trkpt lat="44.663" lon="5.07005">
        <ele>443.2</ele>
        <time>2024-05-17T13:25:14Z</time>
      </trkpt>
      <trkpt lat="44.66299" lon="5.07005">
        <ele>443.3</ele>
        <time>2024-05-17T13:25:15Z</time>
      </trkpt>
      <trkpt lat="44.66295" lon="5.07005">
        <ele>443.6</ele>
        <time>2024-05-17T13:25:16Z</time>
      </trkpt>
      <trkpt lat="44.66294" lon="5.07005">
        <ele>443.6</ele>
        <time>2024-05-17T13:25:17Z</time>
      </trkpt>
      <trkpt lat="44.66291" lon="5.07004">
        <ele>443.9</ele>
        <time>2024-05-17T13:25:18Z</time>
      </trkpt>
      <trkpt lat="44.6629" lon="5.07003">
        <ele>444</ele>
        <time>2024-05-17T13:25:19Z</time>
      </trkpt>
      <trkpt lat="44.6629" lon="5.07003">
        <ele>444.1</ele>
        <time>2024-05-17T13:25:20Z</time>
      </trkpt>
      <trkpt lat="44.66287" lon="5.07003">
        <ele>444.2</ele>
        <time>2024-05-17T13:25:21Z</time>
      </trkpt>
      <trkpt lat="44.66285" lon="5.07002">
        <ele>444.4</ele>
        <time>2024-05-17T13:25:22Z</time>
      </trkpt>
      <trkpt lat="44.66283" lon="5.07001">
        <ele>444.6</ele>
        <time>2024-05-17T13:25:23Z</time>
      </trkpt>
      <trkpt lat="44.66281" lon="5.07001">
        <ele>444.8</ele>
        <time>2024-05-17T13:25:24Z</time>
      </trkpt>
      <trkpt lat="44.6628" lon="5.07">
        <ele>444.9</ele>
        <time>2024-05-17T13:25:25Z</time>
      </trkpt>
      <trkpt lat="44.66276" lon="5.06999">
        <ele>445.2</ele>
        <time>2024-05-17T13:25:26Z</time>
      </trkpt>
      <trkpt lat="44.66274" lon="5.06999">
        <ele>445.3</ele>
        <time>2024-05-17T13:25:27Z</time>
      </trkpt>
      <trkpt lat="44.66272" lon="5.06998">
        <ele>445.5</ele>
        <time>2024-05-17T13:25:28Z</time>
      </trkpt>
      <trkpt lat="44.66271" lon="5.06998">
        <ele>445.6</ele>
        <time>2024-05-17T13:25:29Z</time>
      </trkpt>
      <trkpt lat="44.66269" lon="5.06997">
        <ele>445.8</ele>
        <time>2024-05-17T13:25:30Z</time>
      </trkpt>
      <trkpt lat="44.66267" lon="5.06997">
        <ele>446</ele>
        <time>2024-05-17T13:25:31Z</time>
      </trkpt>
      <trkpt lat="44.66264" lon="5.06999">
        <ele>446.2</ele>
        <time>2024-05-17T13:25:32Z</time>
      </trkpt>
      <trkpt lat="44.66261" lon="5.06999">
        <ele>446.5</ele>
        <time>2024-05-17T13:25:33Z</time>
      </trkpt>
      <trkpt lat="44.66259" lon="5.06998">
        <ele>446.7</ele>
        <time>2024-05-17T13:25:34Z</time>
      </trkpt>
      <trkpt lat="44.66255" lon="5.06997">
        <ele>447</ele>
        <time>2024-05-17T13:25:35Z</time>
      </trkpt>
      <trkpt lat="44.66252" lon="5.06996">
        <ele>447.3</ele>
        <time>2024-05-17T13:25:36Z</time>
      </trkpt>
      <trkpt lat="44.66249" lon="5.06996">
        <ele>447.6</ele>
        <time>2024-05-17T13:25:37Z</time>
      </trkpt>
      <trkpt lat="44.66248" lon="5.06997">
        <ele>447.7</ele>
        <time>2024-05-17T13:25:38Z</time>
      </trkpt>
      <trkpt lat="44.66245" lon="5.06996">
        <ele>447.9</ele>
        <time>2024-05-17T13:25:39Z</time>
      </trkpt>
      <trkpt lat="44.66242" lon="5.06994">
        <ele>448.2</ele>
        <time>2024-05-17T13:25:40Z</time>
      </trkpt>
      <trkpt lat="44.66241" lon="5.06994">
        <ele>448.3</ele>
        <time>2024-05-17T13:25:41Z</time>
      </trkpt>
      <trkpt lat="44.66237" lon="5.06994">
        <ele>448.7</ele>
        <time>2024-05-17T13:25:42Z</time>
      </trkpt>
      <trkpt lat="44.66236" lon="5.06994">
        <ele>448.8</ele>
        <time>2024-05-17T13:25:43Z</time>
      </trkpt>
      <trkpt lat="44.66231" lon="5.06992">
        <ele>449.3</ele>
        <time>2024-05-17T13:25:44Z</time>
      </trkpt>
      <trkpt lat="44.66229" lon="5.06991">
        <ele>449.6</ele>
        <time>2024-05-17T13:25:45Z</time>
      </trkpt>
      <trkpt lat="44.66226" lon="5.0699">
        <ele>450</ele>
        <time>2024-05-17T13:25:46Z</time>
      </trkpt>
      <trkpt lat="44.66223" lon="5.06991">
        <ele>450.3</ele>
        <time>2024-05-17T13:25:47Z</time>
      </trkpt>
      <trkpt lat="44.66222" lon="5.06993">
        <ele>450.5</ele>
        <time>2024-05-17T13:25:48Z</time>
      </trkpt>
      <trkpt lat="44.6622" lon="5.06994">
        <ele>450.7</ele>
        <time>2024-05-17T13:25:49Z</time>
      </trkpt>
      <trkpt lat="44.6622" lon="5.06996">
        <ele>450.8</ele>
        <time>2024-05-17T13:25:50Z</time>
      </trkpt>
      <trkpt lat="44.66221" lon="5.06997">
        <ele>450.9</ele>
        <time>2024-05-17T13:25:51Z</time>
      </trkpt>
      <trkpt lat="44.66223" lon="5.06996">
        <ele>451.1</ele>
        <time>2024-05-17T13:25:52Z</time>
      </trkpt>
      <trkpt lat="44.66224" lon="5.06996">
        <ele>451.2</ele>
        <time>2024-05-17T13:25:53Z</time>
      </trkpt>
      <trkpt lat="44.66227" lon="5.06997">
        <ele>451.4</ele>
        <time>2024-05-17T13:25:54Z</time>
      </trkpt>
      <trkpt lat="44.66228" lon="5.06998">
        <ele>451.5</ele>
        <time>2024-05-17T13:25:55Z</time>
      </trkpt>
      <trkpt lat="44.6623" lon="5.06998">
        <ele>451.6</ele>
        <time>2024-05-17T13:25:56Z</time>
      </trkpt>
      <trkpt lat="44.66233" lon="5.06999">
        <ele>451.9</ele>
        <time>2024-05-17T13:25:57Z</time>
      </trkpt>
      <trkpt lat="44.66234" lon="5.06999">
        <ele>452</ele>
        <time>2024-05-17T13:25:58Z</time>
      </trkpt>
      <trkpt lat="44.66237" lon="5.07">
        <ele>452.2</ele>
        <time>2024-05-17T13:25:59Z</time>
      </trkpt>
      <trkpt lat="44.66238" lon="5.07001">
        <ele>452.3</ele>
        <time>2024-05-17T13:26:00Z</time>
      </trkpt>
      <trkpt lat="44.66241" lon="5.07">
        <ele>452.4</ele>
        <time>2024-05-17T13:26:01Z</time>
      </trkpt>
      <trkpt lat="44.66242" lon="5.07001">
        <ele>452.5</ele>
        <time>2024-05-17T13:26:02Z</time>
      </trkpt>
      <trkpt lat="44.66245" lon="5.07001">
        <ele>452.7</ele>
        <time>2024-05-17T13:26:03Z</time>
      </trkpt>
      <trkpt lat="44.66248" lon="5.07002">
        <ele>452.9</ele>
        <time>2024-05-17T13:26:04Z</time>
      </trkpt>
      <trkpt lat="44.66252" lon="5.07004">
        <ele>453.2</ele>
        <time>2024-05-17T13:26:05Z</time>
      </trkpt>
      <trkpt lat="44.66253" lon="5.07005">
        <ele>453.3</ele>
        <time>2024-05-17T13:26:06Z</time>
      </trkpt>
      <trkpt lat="44.66256" lon="5.07006">
        <ele>453.5</ele>
        <time>2024-05-17T13:26:07Z</time>
      </trkpt>
      <trkpt lat="44.66256" lon="5.07007">
        <ele>453.6</ele>
        <time>2024-05-17T13:26:08Z</time>
      </trkpt>
      <trkpt lat="44.66257" lon="5.07007">
        <ele>453.7</ele>
        <time>2024-05-17T13:26:09Z</time>
      </trkpt>
      <trkpt lat="44.66261" lon="5.07009">
        <ele>454</ele>
        <time>2024-05-17T13:26:10Z</time>
      </trkpt>
      <trkpt lat="44.66262" lon="5.07009">
        <ele>454.1</ele>
        <time>2024-05-17T13:26:11Z</time>
      </trkpt>
      <trkpt lat="44.66263" lon="5.0701">
        <ele>454.2</ele>
        <time>2024-05-17T13:26:12Z</time>
      </trkpt>
      <trkpt lat="44.66266" lon="5.07011">
        <ele>454.4</ele>
        <time>2024-05-17T13:26:13Z</time>
      </trkpt>
      <trkpt lat="44.66269" lon="5.07012">
        <ele>454.7</ele>
        <time>2024-05-17T13:26:14Z</time>
      </trkpt>
      <trkpt lat="44.66273" lon="5.07014">
        <ele>455</ele>
        <time>2024-05-17T13:26:15Z</time>
      </trkpt>
      <trkpt lat="44.66275" lon="5.07015">
        <ele>455.2</ele>
        <time>2024-05-17T13:26:16Z</time>
      </trkpt>
      <trkpt lat="44.66278" lon="5.07016">
        <ele>455.5</ele>
        <time>2024-05-17T13:26:17Z</time>
      </trkpt>
      <trkpt lat="44.66279" lon="5.07017">
        <ele>455.7</ele>
        <time>2024-05-17T13:26:18Z</time>
      </trkpt>
      <trkpt lat="44.66282" lon="5.0702">
        <ele>456</ele>
        <time>2024-05-17T13:26:19Z</time>
      </trkpt>
      <trkpt lat="44.66285" lon="5.07023">
        <ele>456.3</ele>
        <time>2024-05-17T13:26:20Z</time>
      </trkpt>
      <trkpt lat="44.66286" lon="5.07024">
        <ele>456.4</ele>
        <time>2024-05-17T13:26:21Z</time>
      </trkpt>
      <trkpt lat="44.66288" lon="5.07026">
        <ele>456.7</ele>
        <time>2024-05-17T13:26:22Z</time>
      </trkpt>
      <trkpt lat="44.6629" lon="5.07027">
        <ele>456.9</ele>
        <time>2024-05-17T13:26:23Z</time>
      </trkpt>
      <trkpt lat="44.66292" lon="5.0703">
        <ele>457.2</ele>
        <time>2024-05-17T13:26:24Z</time>
      </trkpt>
      <trkpt lat="44.66294" lon="5.07031">
        <ele>457.4</ele>
        <time>2024-05-17T13:26:25Z</time>
      </trkpt>
      <trkpt lat="44.66296" lon="5.07033">
        <ele>457.6</ele>
        <time>2024-05-17T13:26:26Z</time>
      </trkpt>
      <trkpt lat="44.66297" lon="5.07035">
        <ele>457.9</ele>
        <time>2024-05-17T13:26:27Z</time>
      </trkpt>
      <trkpt lat="44.66299" lon="5.07037">
        <ele>458</ele>
        <time>2024-05-17T13:26:28Z</time>
      </trkpt>
      <trkpt lat="44.663" lon="5.07039">
        <ele>458.2</ele>
        <time>2024-05-17T13:26:29Z</time>
      </trkpt>
      <trkpt lat="44.66301" lon="5.07041">
        <ele>458.4</ele>
        <time>2024-05-17T13:26:30Z</time>
      </trkpt>
      <trkpt lat="44.66302" lon="5.07045">
        <ele>458.7</ele>
        <time>2024-05-17T13:26:31Z</time>
      </trkpt>
      <trkpt lat="44.66302" lon="5.07048">
        <ele>458.9</ele>
        <time>2024-05-17T13:26:32Z</time>
      </trkpt>
      <trkpt lat="44.663" lon="5.07053">
        <ele>459.3</ele>
        <time>2024-05-17T13:26:33Z</time>
      </trkpt>
      <trkpt lat="44.663" lon="5.07055">
        <ele>459.4</ele>
        <time>2024-05-17T13:26:34Z</time>
      </trkpt>
      <trkpt lat="44.66299" lon="5.07058">
        <ele>459.6</ele>
        <time>2024-05-17T13:26:35Z</time>
      </trkpt>
      <trkpt lat="44.66298" lon="5.07061">
        <ele>459.8</ele>
        <time>2024-05-17T13:26:36Z</time>
      </trkpt>
      <trkpt lat="44.66297" lon="5.07063">
        <ele>459.9</ele>
        <time>2024-05-17T13:26:37Z</time>
      </trkpt>
      <trkpt lat="44.66296" lon="5.07066">
        <ele>460.1</ele>
        <time>2024-05-17T13:26:38Z</time>
      </trkpt>
      <trkpt lat="44.66295" lon="5.07069">
        <ele>460.3</ele>
        <time>2024-05-17T13:26:39Z</time>
      </trkpt>
      <trkpt lat="44.66294" lon="5.07072">
        <ele>460.5</ele>
        <time>2024-05-17T13:26:40Z</time>
      </trkpt>
      <trkpt lat="44.66293" lon="5.07075">
        <ele>460.6</ele>
        <time>2024-05-17T13:26:41Z</time>
      </trkpt>
      <trkpt lat="44.66292" lon="5.07079">
        <ele>460.9</ele>
        <time>2024-05-17T13:26:42Z</time>
      </trkpt>
      <trkpt lat="44.66291" lon="5.0708">
        <ele>461</ele>
        <time>2024-05-17T13:26:43Z</time>
      </trkpt>
      <trkpt lat="44.6629" lon="5.07084">
        <ele>461.2</ele>
        <time>2024-05-17T13:26:44Z</time>
      </trkpt>
      <trkpt lat="44.66289" lon="5.07086">
        <ele>461.3</ele>
        <time>2024-05-17T13:26:45Z</time>
      </trkpt>
      <trkpt lat="44.66288" lon="5.0709">
        <ele>461.6</ele>
        <time>2024-05-17T13:26:46Z</time>
      </trkpt>
      <trkpt lat="44.66288" lon="5.07092">
        <ele>461.7</ele>
        <time>2024-05-17T13:26:47Z</time>
      </trkpt>
      <trkpt lat="44.66287" lon="5.07095">
        <ele>461.8</ele>
        <time>2024-05-17T13:26:48Z</time>
      </trkpt>
      <trkpt lat="44.66286" lon="5.07097">
        <ele>462</ele>
        <time>2024-05-17T13:26:49Z</time>
      </trkpt>
      <trkpt lat="44.66284" lon="5.071">
        <ele>462.2</ele>
        <time>2024-05-17T13:26:50Z</time>
      </trkpt>
      <trkpt lat="44.66282" lon="5.07102">
        <ele>462.4</ele>
        <time>2024-05-17T13:26:51Z</time>
      </trkpt>
      <trkpt lat="44.66281" lon="5.07105">
        <ele>462.6</ele>
        <time>2024-05-17T13:26:52Z</time>
      </trkpt>
      <trkpt lat="44.66281" lon="5.07106">
        <ele>462.7</ele>
        <time>2024-05-17T13:26:53Z</time>
      </trkpt>
      <trkpt lat="44.66279" lon="5.07109">
        <ele>462.8</ele>
        <time>2024-05-17T13:26:54Z</time>
      </trkpt>
      <trkpt lat="44.66278" lon="5.07112">
        <ele>463</ele>
        <time>2024-05-17T13:26:55Z</time>
      </trkpt>
      <trkpt lat="44.66277" lon="5.07114">
        <ele>463.2</ele>
        <time>2024-05-17T13:26:56Z</time>
      </trkpt>
      <trkpt lat="44.66276" lon="5.07117">
        <ele>463.4</ele>
        <time>2024-05-17T13:26:57Z</time>
      </trkpt>
      <trkpt lat="44.66274" lon="5.07119">
        <ele>463.6</ele>
        <time>2024-05-17T13:26:58Z</time>
      </trkpt>
      <trkpt lat="44.66273" lon="5.07122">
        <ele>463.7</ele>
        <time>2024-05-17T13:26:59Z</time>
      </trkpt>
      <trkpt lat="44.66273" lon="5.07125">
        <ele>463.9</ele>
        <time>2024-05-17T13:27:00Z</time>
      </trkpt>
      <trkpt lat="44.66272" lon="5.07127">
        <ele>464.1</ele>
        <time>2024-05-17T13:27:01Z</time>
      </trkpt>
      <trkpt lat="44.66271" lon="5.07131">
        <ele>464.3</ele>
        <time>2024-05-17T13:27:02Z</time>
      </trkpt>
      <trkpt lat="44.66271" lon="5.07133">
        <ele>464.4</ele>
        <time>2024-05-17T13:27:03Z</time>
      </trkpt>
      <trkpt lat="44.6627" lon="5.07135">
        <ele>464.6</ele>
        <time>2024-05-17T13:27:04Z</time>
      </trkpt>
      <trkpt lat="44.66269" lon="5.07137">
        <ele>464.7</ele>
        <time>2024-05-17T13:27:05Z</time>
      </trkpt>
      <trkpt lat="44.66269" lon="5.0714">
        <ele>464.8</ele>
        <time>2024-05-17T13:27:06Z</time>
      </trkpt>
      <trkpt lat="44.66268" lon="5.07142">
        <ele>465</ele>
        <time>2024-05-17T13:27:07Z</time>
      </trkpt>
      <trkpt lat="44.66268" lon="5.07144">
        <ele>465.1</ele>
        <time>2024-05-17T13:27:08Z</time>
      </trkpt>
      <trkpt lat="44.66267" lon="5.07146">
        <ele>465.3</ele>
        <time>2024-05-17T13:27:09Z</time>
      </trkpt>
      <trkpt lat="44.66266" lon="5.07149">
        <ele>465.4</ele>
        <time>2024-05-17T13:27:10Z</time>
      </trkpt>
      <trkpt lat="44.66265" lon="5.07151">
        <ele>465.5</ele>
        <time>2024-05-17T13:27:11Z</time>
      </trkpt>
      <trkpt lat="44.66264" lon="5.07152">
        <ele>465.7</ele>
        <time>2024-05-17T13:27:12Z</time>
      </trkpt>
      <trkpt lat="44.66262" lon="5.07154">
        <ele>465.9</ele>
        <time>2024-05-17T13:27:13Z</time>
      </trkpt>
      <trkpt lat="44.66261" lon="5.07157">
        <ele>466.1</ele>
        <time>2024-05-17T13:27:14Z</time>
      </trkpt>
      <trkpt lat="44.66259" lon="5.0716">
        <ele>466.3</ele>
        <time>2024-05-17T13:27:15Z</time>
      </trkpt>
      <trkpt lat="44.66258" lon="5.07163">
        <ele>466.5</ele>
        <time>2024-05-17T13:27:16Z</time>
      </trkpt>
      <trkpt lat="44.66257" lon="5.07166">
        <ele>466.7</ele>
        <time>2024-05-17T13:27:17Z</time>
      </trkpt>
      <trkpt lat="44.66257" lon="5.07169">
        <ele>466.9</ele>
        <time>2024-05-17T13:27:18Z</time>
      </trkpt>
      <trkpt lat="44.66255" lon="5.07171">
        <ele>467</ele>
        <time>2024-05-17T13:27:19Z</time>
      </trkpt>
      <trkpt lat="44.66254" lon="5.07173">
        <ele>467.2</ele>
        <time>2024-05-17T13:27:20Z</time>
      </trkpt>
      <trkpt lat="44.66254" lon="5.07177">
        <ele>467.4</ele>
        <time>2024-05-17T13:27:21Z</time>
      </trkpt>
      <trkpt lat="44.66253" lon="5.07178">
        <ele>467.5</ele>
        <time>2024-05-17T13:27:22Z</time>
      </trkpt>
      <trkpt lat="44.66253" lon="5.07181">
        <ele>467.7</ele>
        <time>2024-05-17T13:27:23Z</time>
      </trkpt>
      <trkpt lat="44.66252" lon="5.07186">
        <ele>468</ele>
        <time>2024-05-17T13:27:24Z</time>
      </trkpt>
      <trkpt lat="44.66252" lon="5.07188">
        <ele>468.1</ele>
        <time>2024-05-17T13:27:25Z</time>
      </trkpt>
      <trkpt lat="44.66252" lon="5.07192">
        <ele>468.4</ele>
        <time>2024-05-17T13:27:26Z</time>
      </trkpt>
      <trkpt lat="44.66252" lon="5.07193">
        <ele>468.5</ele>
        <time>2024-05-17T13:27:27Z</time>
      </trkpt>
      <trkpt lat="44.66251" lon="5.07196">
        <ele>468.6</ele>
        <time>2024-05-17T13:27:28Z</time>
      </trkpt>
      <trkpt lat="44.6625" lon="5.07198">
        <ele>468.8</ele>
        <time>2024-05-17T13:27:29Z</time>
      </trkpt>
      <trkpt lat="44.6625" lon="5.07202">
        <ele>469</ele>
        <time>2024-05-17T13:27:30Z</time>
      </trkpt>
      <trkpt lat="44.66249" lon="5.07206">
        <ele>469.4</ele>
        <time>2024-05-17T13:27:31Z</time>
      </trkpt>
      <trkpt lat="44.66249" lon="5.07208">
        <ele>469.5</ele>
        <time>2024-05-17T13:27:32Z</time>
      </trkpt>
      <trkpt lat="44.66247" lon="5.07211">
        <ele>469.7</ele>
        <time>2024-05-17T13:27:33Z</time>
      </trkpt>
      <trkpt lat="44.66244" lon="5.07215">
        <ele>470.1</ele>
        <time>2024-05-17T13:27:34Z</time>
      </trkpt>
      <trkpt lat="44.66243" lon="5.07216">
        <ele>470.2</ele>
        <time>2024-05-17T13:27:35Z</time>
      </trkpt>
      <trkpt lat="44.66242" lon="5.07218">
        <ele>470.4</ele>
        <time>2024-05-17T13:27:36Z</time>
      </trkpt>
      <trkpt lat="44.66241" lon="5.0722">
        <ele>470.6</ele>
        <time>2024-05-17T13:27:37Z</time>
      </trkpt>
      <trkpt lat="44.6624" lon="5.07222">
        <ele>470.8</ele>
        <time>2024-05-17T13:27:38Z</time>
      </trkpt>
      <trkpt lat="44.66239" lon="5.07223">
        <ele>470.9</ele>
        <time>2024-05-17T13:27:39Z</time>
      </trkpt>
      <trkpt lat="44.66237" lon="5.07224">
        <ele>471.1</ele>
        <time>2024-05-17T13:27:40Z</time>
      </trkpt>
      <trkpt lat="44.66235" lon="5.07225">
        <ele>471.2</ele>
        <time>2024-05-17T13:27:41Z</time>
      </trkpt>
      <trkpt lat="44.66233" lon="5.07225">
        <ele>471.5</ele>
        <time>2024-05-17T13:27:42Z</time>
      </trkpt>
      <trkpt lat="44.66229" lon="5.07226">
        <ele>471.8</ele>
        <time>2024-05-17T13:27:43Z</time>
      </trkpt>
      <trkpt lat="44.66226" lon="5.07226">
        <ele>472.1</ele>
        <time>2024-05-17T13:27:44Z</time>
      </trkpt>
      <trkpt lat="44.66223" lon="5.07227">
        <ele>472.3</ele>
        <time>2024-05-17T13:27:45Z</time>
      </trkpt>
      <trkpt lat="44.66221" lon="5.07228">
        <ele>472.5</ele>
        <time>2024-05-17T13:27:46Z</time>
      </trkpt>
      <trkpt lat="44.66219" lon="5.07229">
        <ele>472.7</ele>
        <time>2024-05-17T13:27:47Z</time>
      </trkpt>
      <trkpt lat="44.66218" lon="5.0723">
        <ele>472.8</ele>
        <time>2024-05-17T13:27:48Z</time>
      </trkpt>
      <trkpt lat="44.66216" lon="5.0723">
        <ele>473</ele>
        <time>2024-05-17T13:27:49Z</time>
      </trkpt>
      <trkpt lat="44.66214" lon="5.07231">
        <ele>473.1</ele>
        <time>2024-05-17T13:27:50Z</time>
      </trkpt>
      <trkpt lat="44.66214" lon="5.07232">
        <ele>473.2</ele>
        <time>2024-05-17T13:27:51Z</time>
      </trkpt>
      <trkpt lat="44.66212" lon="5.07233">
        <ele>473.4</ele>
        <time>2024-05-17T13:27:52Z</time>
      </trkpt>
      <trkpt lat="44.6621" lon="5.07234">
        <ele>473.5</ele>
        <time>2024-05-17T13:27:53Z</time>
      </trkpt>
      <trkpt lat="44.66208" lon="5.07235">
        <ele>473.7</ele>
        <time>2024-05-17T13:27:54Z</time>
      </trkpt>
      <trkpt lat="44.66205" lon="5.07235">
        <ele>473.9</ele>
        <time>2024-05-17T13:27:55Z</time>
      </trkpt>
      <trkpt lat="44.66204" lon="5.07236">
        <ele>474.1</ele>
        <time>2024-05-17T13:27:56Z</time>
      </trkpt>
      <trkpt lat="44.66202" lon="5.07237">
        <ele>474.2</ele>
        <time>2024-05-17T13:27:57Z</time>
      </trkpt>
      <trkpt lat="44.662" lon="5.07238">
        <ele>474.4</ele>
        <time>2024-05-17T13:27:58Z</time>
      </trkpt>
      <trkpt lat="44.66198" lon="5.07238">
        <ele>474.5</ele>
        <time>2024-05-17T13:27:59Z</time>
      </trkpt>
      <trkpt lat="44.66197" lon="5.07238">
        <ele>474.7</ele>
        <time>2024-05-17T13:28:00Z</time>
      </trkpt>
      <trkpt lat="44.66195" lon="5.07239">
        <ele>474.8</ele>
        <time>2024-05-17T13:28:01Z</time>
      </trkpt>
      <trkpt lat="44.66192" lon="5.0724">
        <ele>475</ele>
        <time>2024-05-17T13:28:02Z</time>
      </trkpt>
      <trkpt lat="44.66189" lon="5.07242">
        <ele>475.4</ele>
        <time>2024-05-17T13:28:03Z</time>
      </trkpt>
      <trkpt lat="44.66187" lon="5.07242">
        <ele>475.5</ele>
        <time>2024-05-17T13:28:04Z</time>
      </trkpt>
      <trkpt lat="44.66185" lon="5.07243">
        <ele>475.7</ele>
        <time>2024-05-17T13:28:05Z</time>
      </trkpt>
      <trkpt lat="44.66181" lon="5.07244">
        <ele>476.1</ele>
        <time>2024-05-17T13:28:06Z</time>
      </trkpt>
      <trkpt lat="44.6618" lon="5.07244">
        <ele>476.2</ele>
        <time>2024-05-17T13:28:07Z</time>
      </trkpt>
      <trkpt lat="44.66178" lon="5.07245">
        <ele>476.4</ele>
        <time>2024-05-17T13:28:08Z</time>
      </trkpt>
      <trkpt lat="44.66176" lon="5.07246">
        <ele>476.6</ele>
        <time>2024-05-17T13:28:09Z</time>
      </trkpt>
      <trkpt lat="44.66174" lon="5.07247">
        <ele>476.8</ele>
        <time>2024-05-17T13:28:10Z</time>
      </trkpt>
      <trkpt lat="44.66172" lon="5.07248">
        <ele>477</ele>
        <time>2024-05-17T13:28:11Z</time>
      </trkpt>
      <trkpt lat="44.6617" lon="5.07249">
        <ele>477.2</ele>
        <time>2024-05-17T13:28:12Z</time>
      </trkpt>
      <trkpt lat="44.66169" lon="5.07249">
        <ele>477.3</ele>
        <time>2024-05-17T13:28:13Z</time>
      </trkpt>
      <trkpt lat="44.66167" lon="5.07251">
        <ele>477.5</ele>
        <time>2024-05-17T13:28:14Z</time>
      </trkpt>
      <trkpt lat="44.66166" lon="5.07254">
        <ele>477.8</ele>
        <time>2024-05-17T13:28:15Z</time>
      </trkpt>
      <trkpt lat="44.66166" lon="5.07256">
        <ele>477.9</ele>
        <time>2024-05-17T13:28:16Z</time>
      </trkpt>
      <trkpt lat="44.66167" lon="5.0726">
        <ele>478.1</ele>
        <time>2024-05-17T13:28:17Z</time>
      </trkpt>
      <trkpt lat="44.66168" lon="5.07261">
        <ele>478.2</ele>
        <time>2024-05-17T13:28:18Z</time>
      </trkpt>
      <trkpt lat="44.66169" lon="5.07262">
        <ele>478.4</ele>
        <time>2024-05-17T13:28:19Z</time>
      </trkpt>
      <trkpt lat="44.66171" lon="5.07263">
        <ele>478.5</ele>
        <time>2024-05-17T13:28:20Z</time>
      </trkpt>
      <trkpt lat="44.66173" lon="5.07264">
        <ele>478.7</ele>
        <time>2024-05-17T13:28:21Z</time>
      </trkpt>
      <trkpt lat="44.66175" lon="5.07264">
        <ele>478.8</ele>
        <time>2024-05-17T13:28:22Z</time>
      </trkpt>
      <trkpt lat="44.66176" lon="5.07265">
        <ele>478.9</ele>
        <time>2024-05-17T13:28:23Z</time>
      </trkpt>
      <trkpt lat="44.66178" lon="5.07265">
        <ele>479</ele>
        <time>2024-05-17T13:28:24Z</time>
      </trkpt>
      <trkpt lat="44.6618" lon="5.07265">
        <ele>479.2</ele>
        <time>2024-05-17T13:28:25Z</time>
      </trkpt>
      <trkpt lat="44.66182" lon="5.07265">
        <ele>479.3</ele>
        <time>2024-05-17T13:28:26Z</time>
      </trkpt>
      <trkpt lat="44.66183" lon="5.07265">
        <ele>479.4</ele>
        <time>2024-05-17T13:28:27Z</time>
      </trkpt>
      <trkpt lat="44.66186" lon="5.07266">
        <ele>479.6</ele>
        <time>2024-05-17T13:28:28Z</time>
      </trkpt>
      <trkpt lat="44.66188" lon="5.07267">
        <ele>479.8</ele>
        <time>2024-05-17T13:28:29Z</time>
      </trkpt>
      <trkpt lat="44.66191" lon="5.07268">
        <ele>480</ele>
        <time>2024-05-17T13:28:30Z</time>
      </trkpt>
      <trkpt lat="44.66192" lon="5.07268">
        <ele>480.1</ele>
        <time>2024-05-17T13:28:31Z</time>
      </trkpt>
      <trkpt lat="44.66195" lon="5.07269">
        <ele>480.4</ele>
        <time>2024-05-17T13:28:32Z</time>
      </trkpt>
      <trkpt lat="44.66196" lon="5.0727">
        <ele>480.4</ele>
        <time>2024-05-17T13:28:33Z</time>
      </trkpt>
      <trkpt lat="44.66199" lon="5.07271">
        <ele>480.7</ele>
        <time>2024-05-17T13:28:34Z</time>
      </trkpt>
      <trkpt lat="44.66201" lon="5.07273">
        <ele>480.8</ele>
        <time>2024-05-17T13:28:35Z</time>
      </trkpt>
      <trkpt lat="44.66202" lon="5.07274">
        <ele>481</ele>
        <time>2024-05-17T13:28:36Z</time>
      </trkpt>
      <trkpt lat="44.66204" lon="5.07275">
        <ele>481.1</ele>
        <time>2024-05-17T13:28:37Z</time>
      </trkpt>
      <trkpt lat="44.66205" lon="5.07276">
        <ele>481.3</ele>
        <time>2024-05-17T13:28:38Z</time>
      </trkpt>
      <trkpt lat="44.66206" lon="5.07277">
        <ele>481.4</ele>
        <time>2024-05-17T13:28:39Z</time>
      </trkpt>
      <trkpt lat="44.66207" lon="5.07279">
        <ele>481.5</ele>
        <time>2024-05-17T13:28:40Z</time>
      </trkpt>
      <trkpt lat="44.66208" lon="5.07281">
        <ele>481.7</ele>
        <time>2024-05-17T13:28:41Z</time>
      </trkpt>
      <trkpt lat="44.66211" lon="5.07284">
        <ele>482</ele>
        <time>2024-05-17T13:28:42Z</time>
      </trkpt>
      <trkpt lat="44.66213" lon="5.07284">
        <ele>482.1</ele>
        <time>2024-05-17T13:28:43Z</time>
      </trkpt>
      <trkpt lat="44.66215" lon="5.07288">
        <ele>482.5</ele>
        <time>2024-05-17T13:28:44Z</time>
      </trkpt>
      <trkpt lat="44.66216" lon="5.0729">
        <ele>482.6</ele>
        <time>2024-05-17T13:28:45Z</time>
      </trkpt>
      <trkpt lat="44.66219" lon="5.07294">
        <ele>483</ele>
        <time>2024-05-17T13:28:46Z</time>
      </trkpt>
      <trkpt lat="44.6622" lon="5.07296">
        <ele>483.1</ele>
        <time>2024-05-17T13:28:47Z</time>
      </trkpt>
      <trkpt lat="44.66221" lon="5.07299">
        <ele>483.4</ele>
        <time>2024-05-17T13:28:48Z</time>
      </trkpt>
      <trkpt lat="44.66222" lon="5.07303">
        <ele>483.6</ele>
        <time>2024-05-17T13:28:49Z</time>
      </trkpt>
      <trkpt lat="44.66223" lon="5.07307">
        <ele>483.9</ele>
        <time>2024-05-17T13:28:50Z</time>
      </trkpt>
      <trkpt lat="44.66223" lon="5.07311">
        <ele>484.1</ele>
        <time>2024-05-17T13:28:51Z</time>
      </trkpt>
      <trkpt lat="44.66223" lon="5.07314">
        <ele>484.3</ele>
        <time>2024-05-17T13:28:52Z</time>
      </trkpt>
      <trkpt lat="44.66223" lon="5.07317">
        <ele>484.5</ele>
        <time>2024-05-17T13:28:53Z</time>
      </trkpt>
      <trkpt lat="44.66223" lon="5.07322">
        <ele>484.8</ele>
        <time>2024-05-17T13:28:54Z</time>
      </trkpt>
      <trkpt lat="44.66223" lon="5.07323">
        <ele>484.9</ele>
        <time>2024-05-17T13:28:55Z</time>
      </trkpt>
      <trkpt lat="44.66223" lon="5.07328">
        <ele>485.1</ele>
        <time>2024-05-17T13:28:56Z</time>
      </trkpt>
      <trkpt lat="44.66223" lon="5.07329">
        <ele>485.2</ele>
        <time>2024-05-17T13:28:57Z</time>
      </trkpt>
      <trkpt lat="44.66223" lon="5.07332">
        <ele>485.4</ele>
        <time>2024-05-17T13:28:58Z</time>
      </trkpt>
      <trkpt lat="44.66223" lon="5.07334">
        <ele>485.5</ele>
        <time>2024-05-17T13:28:59Z</time>
      </trkpt>
      <trkpt lat="44.66224" lon="5.07337">
        <ele>485.7</ele>
        <time>2024-05-17T13:29:00Z</time>
      </trkpt>
      <trkpt lat="44.66224" lon="5.07339">
        <ele>485.8</ele>
        <time>2024-05-17T13:29:01Z</time>
      </trkpt>
      <trkpt lat="44.66223" lon="5.07341">
        <ele>485.9</ele>
        <time>2024-05-17T13:29:02Z</time>
      </trkpt>
      <trkpt lat="44.66223" lon="5.07343">
        <ele>486.1</ele>
        <time>2024-05-17T13:29:03Z</time>
      </trkpt>
      <trkpt lat="44.66223" lon="5.07346">
        <ele>486.2</ele>
        <time>2024-05-17T13:29:04Z</time>
      </trkpt>
      <trkpt lat="44.66224" lon="5.07349">
        <ele>486.4</ele>
        <time>2024-05-17T13:29:05Z</time>
      </trkpt>
      <trkpt lat="44.66225" lon="5.07351">
        <ele>486.5</ele>
        <time>2024-05-17T13:29:06Z</time>
      </trkpt>
      <trkpt lat="44.66226" lon="5.07353">
        <ele>486.7</ele>
        <time>2024-05-17T13:29:07Z</time>
      </trkpt>
      <trkpt lat="44.66226" lon="5.07356">
        <ele>486.8</ele>
        <time>2024-05-17T13:29:08Z</time>
      </trkpt>
      <trkpt lat="44.66226" lon="5.07358">
        <ele>486.9</ele>
        <time>2024-05-17T13:29:09Z</time>
      </trkpt>
      <trkpt lat="44.66225" lon="5.0736">
        <ele>487.1</ele>
        <time>2024-05-17T13:29:10Z</time>
      </trkpt>
      <trkpt lat="44.66225" lon="5.07363">
        <ele>487.2</ele>
        <time>2024-05-17T13:29:11Z</time>
      </trkpt>
      <trkpt lat="44.66225" lon="5.07365">
        <ele>487.4</ele>
        <time>2024-05-17T13:29:12Z</time>
      </trkpt>
      <trkpt lat="44.66226" lon="5.07367">
        <ele>487.5</ele>
        <time>2024-05-17T13:29:13Z</time>
      </trkpt>
      <trkpt lat="44.66227" lon="5.07369">
        <ele>487.6</ele>
        <time>2024-05-17T13:29:14Z</time>
      </trkpt>
      <trkpt lat="44.66227" lon="5.07371">
        <ele>487.7</ele>
        <time>2024-05-17T13:29:15Z</time>
      </trkpt>
      <trkpt lat="44.66226" lon="5.07373">
        <ele>487.9</ele>
        <time>2024-05-17T13:29:16Z</time>
      </trkpt>
      <trkpt lat="44.66226" lon="5.07377">
        <ele>488</ele>
        <time>2024-05-17T13:29:17Z</time>
      </trkpt>
      <trkpt lat="44.66226" lon="5.0738">
        <ele>488.2</ele>
        <time>2024-05-17T13:29:18Z</time>
      </trkpt>
      <trkpt lat="44.66226" lon="5.07383">
        <ele>488.4</ele>
        <time>2024-05-17T13:29:19Z</time>
      </trkpt>
      <trkpt lat="44.66227" lon="5.07386">
        <ele>488.5</ele>
        <time>2024-05-17T13:29:20Z</time>
      </trkpt>
      <trkpt lat="44.66226" lon="5.07389">
        <ele>488.7</ele>
        <time>2024-05-17T13:29:21Z</time>
      </trkpt>
      <trkpt lat="44.66227" lon="5.07393">
        <ele>488.9</ele>
        <time>2024-05-17T13:29:22Z</time>
      </trkpt>
      <trkpt lat="44.66226" lon="5.07397">
        <ele>489.1</ele>
        <time>2024-05-17T13:29:23Z</time>
      </trkpt>
      <trkpt lat="44.66226" lon="5.074">
        <ele>489.3</ele>
        <time>2024-05-17T13:29:24Z</time>
      </trkpt>
      <trkpt lat="44.66226" lon="5.07405">
        <ele>489.6</ele>
        <time>2024-05-17T13:29:25Z</time>
      </trkpt>
      <trkpt lat="44.66226" lon="5.07407">
        <ele>489.7</ele>
        <time>2024-05-17T13:29:26Z</time>
      </trkpt>
      <trkpt lat="44.66226" lon="5.0741">
        <ele>489.9</ele>
        <time>2024-05-17T13:29:27Z</time>
      </trkpt>
      <trkpt lat="44.66226" lon="5.07414">
        <ele>490.1</ele>
        <time>2024-05-17T13:29:28Z</time>
      </trkpt>
      <trkpt lat="44.66226" lon="5.07417">
        <ele>490.3</ele>
        <time>2024-05-17T13:29:29Z</time>
      </trkpt>
      <trkpt lat="44.66227" lon="5.0742">
        <ele>490.5</ele>
        <time>2024-05-17T13:29:30Z</time>
      </trkpt>
      <trkpt lat="44.66227" lon="5.07424">
        <ele>490.7</ele>
        <time>2024-05-17T13:29:31Z</time>
      </trkpt>
      <trkpt lat="44.66228" lon="5.07427">
        <ele>490.9</ele>
        <time>2024-05-17T13:29:32Z</time>
      </trkpt>
      <trkpt lat="44.66228" lon="5.07431">
        <ele>491.1</ele>
        <time>2024-05-17T13:29:33Z</time>
      </trkpt>
      <trkpt lat="44.66228" lon="5.07434">
        <ele>491.2</ele>
        <time>2024-05-17T13:29:34Z</time>
      </trkpt>
      <trkpt lat="44.66229" lon="5.07437">
        <ele>491.4</ele>
        <time>2024-05-17T13:29:35Z</time>
      </trkpt>
      <trkpt lat="44.66229" lon="5.0744">
        <ele>491.6</ele>
        <time>2024-05-17T13:29:36Z</time>
      </trkpt>
      <trkpt lat="44.66228" lon="5.07443">
        <ele>491.8</ele>
        <time>2024-05-17T13:29:37Z</time>
      </trkpt>
      <trkpt lat="44.66229" lon="5.07446">
        <ele>491.9</ele>
        <time>2024-05-17T13:29:38Z</time>
      </trkpt>
      <trkpt lat="44.66229" lon="5.0745">
        <ele>492.2</ele>
        <time>2024-05-17T13:29:39Z</time>
      </trkpt>
      <trkpt lat="44.6623" lon="5.07452">
        <ele>492.3</ele>
        <time>2024-05-17T13:29:40Z</time>
      </trkpt>
      <trkpt lat="44.6623" lon="5.07455">
        <ele>492.5</ele>
        <time>2024-05-17T13:29:41Z</time>
      </trkpt>
      <trkpt lat="44.66231" lon="5.0746">
        <ele>492.8</ele>
        <time>2024-05-17T13:29:42Z</time>
      </trkpt>
      <trkpt lat="44.66231" lon="5.07461">
        <ele>492.9</ele>
        <time>2024-05-17T13:29:43Z</time>
      </trkpt>
      <trkpt lat="44.66231" lon="5.07464">
        <ele>493</ele>
        <time>2024-05-17T13:29:44Z</time>
      </trkpt>
      <trkpt lat="44.6623" lon="5.07465">
        <ele>493.1</ele>
        <time>2024-05-17T13:29:45Z</time>
      </trkpt>
      <trkpt lat="44.66231" lon="5.07467">
        <ele>493.3</ele>
        <time>2024-05-17T13:29:46Z</time>
      </trkpt>
      <trkpt lat="44.6623" lon="5.0747">
        <ele>493.4</ele>
        <time>2024-05-17T13:29:47Z</time>
      </trkpt>
      <trkpt lat="44.66231" lon="5.07473">
        <ele>493.6</ele>
        <time>2024-05-17T13:29:48Z</time>
      </trkpt>
      <trkpt lat="44.66231" lon="5.07475">
        <ele>493.8</ele>
        <time>2024-05-17T13:29:49Z</time>
      </trkpt>
      <trkpt lat="44.66231" lon="5.07478">
        <ele>494</ele>
        <time>2024-05-17T13:29:50Z</time>
      </trkpt>
      <trkpt lat="44.66231" lon="5.07481">
        <ele>494.1</ele>
        <time>2024-05-17T13:29:51Z</time>
      </trkpt>
      <trkpt lat="44.66232" lon="5.07484">
        <ele>494.3</ele>
        <time>2024-05-17T13:29:52Z</time>
      </trkpt>
      <trkpt lat="44.66233" lon="5.07486">
        <ele>494.5</ele>
        <time>2024-05-17T13:29:53Z</time>
      </trkpt>
      <trkpt lat="44.66233" lon="5.07489">
        <ele>494.6</ele>
        <time>2024-05-17T13:29:54Z</time>
      </trkpt>
      <trkpt lat="44.66234" lon="5.07492">
        <ele>494.8</ele>
        <time>2024-05-17T13:29:55Z</time>
      </trkpt>
      <trkpt lat="44.66236" lon="5.07495">
        <ele>495</ele>
        <time>2024-05-17T13:29:56Z</time>
      </trkpt>
      <trkpt lat="44.66236" lon="5.07498">
        <ele>495.1</ele>
        <time>2024-05-17T13:29:57Z</time>
      </trkpt>
      <trkpt lat="44.66236" lon="5.07501">
        <ele>495.3</ele>
        <time>2024-05-17T13:29:58Z</time>
      </trkpt>
      <trkpt lat="44.66236" lon="5.07504">
        <ele>495.4</ele>
        <time>2024-05-17T13:29:59Z</time>
      </trkpt>
      <trkpt lat="44.66237" lon="5.07507">
        <ele>495.6</ele>
        <time>2024-05-17T13:30:00Z</time>
      </trkpt>
      <trkpt lat="44.66237" lon="5.07511">
        <ele>495.8</ele>
        <time>2024-05-17T13:30:01Z</time>
      </trkpt>
      <trkpt lat="44.66238" lon="5.07514">
        <ele>495.9</ele>
        <time>2024-05-17T13:30:02Z</time>
      </trkpt>
      <trkpt lat="44.66238" lon="5.07518">
        <ele>496.1</ele>
        <time>2024-05-17T13:30:03Z</time>
      </trkpt>
      <trkpt lat="44.66239" lon="5.07521">
        <ele>496.2</ele>
        <time>2024-05-17T13:30:04Z</time>
      </trkpt>
      <trkpt lat="44.6624" lon="5.07525">
        <ele>496.4</ele>
        <time>2024-05-17T13:30:05Z</time>
      </trkpt>
      <trkpt lat="44.66241" lon="5.07528">
        <ele>496.5</ele>
        <time>2024-05-17T13:30:06Z</time>
      </trkpt>
      <trkpt lat="44.66241" lon="5.07534">
        <ele>496.8</ele>
        <time>2024-05-17T13:30:07Z</time>
      </trkpt>
      <trkpt lat="44.66242" lon="5.07536">
        <ele>496.8</ele>
        <time>2024-05-17T13:30:08Z</time>
      </trkpt>
      <trkpt lat="44.66242" lon="5.07541">
        <ele>497</ele>
        <time>2024-05-17T13:30:09Z</time>
      </trkpt>
      <trkpt lat="44.66243" lon="5.07542">
        <ele>497.1</ele>
        <time>2024-05-17T13:30:10Z</time>
      </trkpt>
      <trkpt lat="44.66244" lon="5.07547">
        <ele>497.3</ele>
        <time>2024-05-17T13:30:11Z</time>
      </trkpt>
      <trkpt lat="44.66244" lon="5.07549">
        <ele>497.4</ele>
        <time>2024-05-17T13:30:12Z</time>
      </trkpt>
      <trkpt lat="44.66245" lon="5.07553">
        <ele>497.5</ele>
        <time>2024-05-17T13:30:13Z</time>
      </trkpt>
      <trkpt lat="44.66246" lon="5.07555">
        <ele>497.6</ele>
        <time>2024-05-17T13:30:14Z</time>
      </trkpt>
      <trkpt lat="44.66246" lon="5.07558">
        <ele>497.7</ele>
        <time>2024-05-17T13:30:15Z</time>
      </trkpt>
      <trkpt lat="44.66246" lon="5.07562">
        <ele>497.7</ele>
        <time>2024-05-17T13:30:16Z</time>
      </trkpt>
      <trkpt lat="44.66246" lon="5.07565">
        <ele>497.8</ele>
        <time>2024-05-17T13:30:17Z</time>
      </trkpt>
      <trkpt lat="44.66247" lon="5.07569">
        <ele>497.9</ele>
        <time>2024-05-17T13:30:18Z</time>
      </trkpt>
      <trkpt lat="44.66248" lon="5.07572">
        <ele>498</ele>
        <time>2024-05-17T13:30:19Z</time>
      </trkpt>
      <trkpt lat="44.66248" lon="5.07575">
        <ele>498</ele>
        <time>2024-05-17T13:30:20Z</time>
      </trkpt>
      <trkpt lat="44.66249" lon="5.07581">
        <ele>498.2</ele>
        <time>2024-05-17T13:30:21Z</time>
      </trkpt>
      <trkpt lat="44.6625" lon="5.07582">
        <ele>498.3</ele>
        <time>2024-05-17T13:30:22Z</time>
      </trkpt>
      <trkpt lat="44.6625" lon="5.07586">
        <ele>498.5</ele>
        <time>2024-05-17T13:30:23Z</time>
      </trkpt>
      <trkpt lat="44.66251" lon="5.07592">
        <ele>498.7</ele>
        <time>2024-05-17T13:30:24Z</time>
      </trkpt>
      <trkpt lat="44.66251" lon="5.07594">
        <ele>498.8</ele>
        <time>2024-05-17T13:30:25Z</time>
      </trkpt>
      <trkpt lat="44.66251" lon="5.07597">
        <ele>498.9</ele>
        <time>2024-05-17T13:30:26Z</time>
      </trkpt>
      <trkpt lat="44.66252" lon="5.07601">
        <ele>499.1</ele>
        <time>2024-05-17T13:30:27Z</time>
      </trkpt>
      <trkpt lat="44.66252" lon="5.07604">
        <ele>499.2</ele>
        <time>2024-05-17T13:30:28Z</time>
      </trkpt>
      <trkpt lat="44.66253" lon="5.07608">
        <ele>499.4</ele>
        <time>2024-05-17T13:30:29Z</time>
      </trkpt>
      <trkpt lat="44.66253" lon="5.07613">
        <ele>499.6</ele>
        <time>2024-05-17T13:30:30Z</time>
      </trkpt>
      <trkpt lat="44.66254" lon="5.07615">
        <ele>499.7</ele>
        <time>2024-05-17T13:30:31Z</time>
      </trkpt>
      <trkpt lat="44.66254" lon="5.07619">
        <ele>499.8</ele>
        <time>2024-05-17T13:30:32Z</time>
      </trkpt>
      <trkpt lat="44.66255" lon="5.07624">
        <ele>500.1</ele>
        <time>2024-05-17T13:30:33Z</time>
      </trkpt>
      <trkpt lat="44.66255" lon="5.07626">
        <ele>500.1</ele>
        <time>2024-05-17T13:30:34Z</time>
      </trkpt>
      <trkpt lat="44.66256" lon="5.07629">
        <ele>500.3</ele>
        <time>2024-05-17T13:30:35Z</time>
      </trkpt>
      <trkpt lat="44.66256" lon="5.07633">
        <ele>500.5</ele>
        <time>2024-05-17T13:30:36Z</time>
      </trkpt>
      <trkpt lat="44.66256" lon="5.07637">
        <ele>500.7</ele>
        <time>2024-05-17T13:30:37Z</time>
      </trkpt>
      <trkpt lat="44.66256" lon="5.07641">
        <ele>500.8</ele>
        <time>2024-05-17T13:30:38Z</time>
      </trkpt>
      <trkpt lat="44.66256" lon="5.07647">
        <ele>501.1</ele>
        <time>2024-05-17T13:30:39Z</time>
      </trkpt>
      <trkpt lat="44.66256" lon="5.07648">
        <ele>501.1</ele>
        <time>2024-05-17T13:30:40Z</time>
      </trkpt>
      <trkpt lat="44.66255" lon="5.07653">
        <ele>501.3</ele>
        <time>2024-05-17T13:30:41Z</time>
      </trkpt>
      <trkpt lat="44.66255" lon="5.07655">
        <ele>501.4</ele>
        <time>2024-05-17T13:30:42Z</time>
      </trkpt>
      <trkpt lat="44.66254" lon="5.07659">
        <ele>501.5</ele>
        <time>2024-05-17T13:30:43Z</time>
      </trkpt>
      <trkpt lat="44.66254" lon="5.07662">
        <ele>501.7</ele>
        <time>2024-05-17T13:30:44Z</time>
      </trkpt>
      <trkpt lat="44.66254" lon="5.07665">
        <ele>501.8</ele>
        <time>2024-05-17T13:30:45Z</time>
      </trkpt>
      <trkpt lat="44.66253" lon="5.07668">
        <ele>501.9</ele>
        <time>2024-05-17T13:30:46Z</time>
      </trkpt>
      <trkpt lat="44.66253" lon="5.07672">
        <ele>502</ele>
        <time>2024-05-17T13:30:47Z</time>
      </trkpt>
      <trkpt lat="44.66252" lon="5.07675">
        <ele>502.1</ele>
        <time>2024-05-17T13:30:48Z</time>
      </trkpt>
      <trkpt lat="44.66252" lon="5.07678">
        <ele>502.1</ele>
        <time>2024-05-17T13:30:49Z</time>
      </trkpt>
      <trkpt lat="44.6625" lon="5.07681">
        <ele>502.2</ele>
        <time>2024-05-17T13:30:50Z</time>
      </trkpt>
      <trkpt lat="44.66249" lon="5.07683">
        <ele>502.2</ele>
        <time>2024-05-17T13:30:51Z</time>
      </trkpt>
      <trkpt lat="44.66249" lon="5.07685">
        <ele>502.2</ele>
        <time>2024-05-17T13:30:52Z</time>
      </trkpt>
      <trkpt lat="44.66248" lon="5.07687">
        <ele>502.3</ele>
        <time>2024-05-17T13:31:56Z</time>
      </trkpt>
      <trkpt lat="44.66247" lon="5.07689">
        <ele>502.3</ele>
        <time>2024-05-17T13:31:57Z</time>
      </trkpt>
      <trkpt lat="44.66246" lon="5.07691">
        <ele>502.3</ele>
        <time>2024-05-17T13:31:58Z</time>
      </trkpt>
      <trkpt lat="44.66245" lon="5.07693">
        <ele>502.3</ele>
        <time>2024-05-17T13:31:59Z</time>
      </trkpt>
      <trkpt lat="44.66243" lon="5.07697">
        <ele>502.3</ele>
        <time>2024-05-17T13:32:00Z</time>
      </trkpt>
      <trkpt lat="44.66242" lon="5.07699">
        <ele>502.2</ele>
        <time>2024-05-17T13:32:01Z</time>
      </trkpt>
      <trkpt lat="44.66241" lon="5.07702">
        <ele>502.2</ele>
        <time>2024-05-17T13:32:02Z</time>
      </trkpt>
      <trkpt lat="44.66239" lon="5.07706">
        <ele>502.2</ele>
        <time>2024-05-17T13:32:03Z</time>
      </trkpt>
      <trkpt lat="44.66239" lon="5.07708">
        <ele>502.1</ele>
        <time>2024-05-17T13:32:04Z</time>
      </trkpt>
      <trkpt lat="44.66236" lon="5.07713">
        <ele>502</ele>
        <time>2024-05-17T13:32:05Z</time>
      </trkpt>
      <trkpt lat="44.66235" lon="5.07715">
        <ele>502</ele>
        <time>2024-05-17T13:32:06Z</time>
      </trkpt>
      <trkpt lat="44.66233" lon="5.07719">
        <ele>501.8</ele>
        <time>2024-05-17T13:32:07Z</time>
      </trkpt>
      <trkpt lat="44.6623" lon="5.07725">
        <ele>501.6</ele>
        <time>2024-05-17T13:32:08Z</time>
      </trkpt>
      <trkpt lat="44.66229" lon="5.07728">
        <ele>501.5</ele>
        <time>2024-05-17T13:32:09Z</time>
      </trkpt>
      <trkpt lat="44.66225" lon="5.07735">
        <ele>501.1</ele>
        <time>2024-05-17T13:32:10Z</time>
      </trkpt>
      <trkpt lat="44.66223" lon="5.07737">
        <ele>500.9</ele>
        <time>2024-05-17T13:32:11Z</time>
      </trkpt>
      <trkpt lat="44.66221" lon="5.07742">
        <ele>500.7</ele>
        <time>2024-05-17T13:32:12Z</time>
      </trkpt>
      <trkpt lat="44.66219" lon="5.07744">
        <ele>500.5</ele>
        <time>2024-05-17T13:32:13Z</time>
      </trkpt>
      <trkpt lat="44.66218" lon="5.07747">
        <ele>500.3</ele>
        <time>2024-05-17T13:32:14Z</time>
      </trkpt>
      <trkpt lat="44.66217" lon="5.07749">
        <ele>500.2</ele>
        <time>2024-05-17T13:32:15Z</time>
      </trkpt>
      <trkpt lat="44.66216" lon="5.07751">
        <ele>500.1</ele>
        <time>2024-05-17T13:32:16Z</time>
      </trkpt>
      <trkpt lat="44.66215" lon="5.07753">
        <ele>499.9</ele>
        <time>2024-05-17T13:32:17Z</time>
      </trkpt>
      <trkpt lat="44.66215" lon="5.07755">
        <ele>499.8</ele>
        <time>2024-05-17T13:32:38Z</time>
      </trkpt>
      <trkpt lat="44.66214" lon="5.07757">
        <ele>499.7</ele>
        <time>2024-05-17T13:32:39Z</time>
      </trkpt>
      <trkpt lat="44.66213" lon="5.07759">
        <ele>499.6</ele>
        <time>2024-05-17T13:32:40Z</time>
      </trkpt>
      <trkpt lat="44.66209" lon="5.07765">
        <ele>499.2</ele>
        <time>2024-05-17T13:32:41Z</time>
      </trkpt>
      <trkpt lat="44.66208" lon="5.07767">
        <ele>499</ele>
        <time>2024-05-17T13:32:42Z</time>
      </trkpt>
      <trkpt lat="44.66205" lon="5.07772">
        <ele>498.7</ele>
        <time>2024-05-17T13:32:43Z</time>
      </trkpt>
      <trkpt lat="44.66201" lon="5.07777">
        <ele>498.2</ele>
        <time>2024-05-17T13:32:44Z</time>
      </trkpt>
      <trkpt lat="44.66196" lon="5.07783">
        <ele>497.7</ele>
        <time>2024-05-17T13:32:45Z</time>
      </trkpt>
      <trkpt lat="44.66191" lon="5.07787">
        <ele>497.1</ele>
        <time>2024-05-17T13:32:46Z</time>
      </trkpt>
      <trkpt lat="44.66184" lon="5.07792">
        <ele>496.5</ele>
        <time>2024-05-17T13:32:47Z</time>
      </trkpt>
      <trkpt lat="44.66178" lon="5.07797">
        <ele>495.8</ele>
        <time>2024-05-17T13:32:48Z</time>
      </trkpt>
      <trkpt lat="44.66171" lon="5.07802">
        <ele>495.1</ele>
        <time>2024-05-17T13:32:49Z</time>
      </trkpt>
      <trkpt lat="44.66163" lon="5.07808">
        <ele>494.4</ele>
        <time>2024-05-17T13:32:50Z</time>
      </trkpt>
      <trkpt lat="44.66151" lon="5.07818">
        <ele>493.3</ele>
        <time>2024-05-17T13:32:51Z</time>
      </trkpt>
      <trkpt lat="44.66147" lon="5.07821">
        <ele>493</ele>
        <time>2024-05-17T13:32:52Z</time>
      </trkpt>
      <trkpt lat="44.66136" lon="5.07833">
        <ele>491.9</ele>
        <time>2024-05-17T13:32:53Z</time>
      </trkpt>
      <trkpt lat="44.66132" lon="5.07838">
        <ele>491.5</ele>
        <time>2024-05-17T13:32:54Z</time>
      </trkpt>
      <trkpt lat="44.66124" lon="5.07847">
        <ele>490.7</ele>
        <time>2024-05-17T13:32:55Z</time>
      </trkpt>
      <trkpt lat="44.66116" lon="5.07858">
        <ele>489.9</ele>
        <time>2024-05-17T13:32:56Z</time>
      </trkpt>
      <trkpt lat="44.66104" lon="5.07872">
        <ele>488.7</ele>
        <time>2024-05-17T13:32:57Z</time>
      </trkpt>
      <trkpt lat="44.661" lon="5.07877">
        <ele>488.4</ele>
        <time>2024-05-17T13:32:58Z</time>
      </trkpt>
      <trkpt lat="44.66092" lon="5.07885">
        <ele>487.6</ele>
        <time>2024-05-17T13:32:59Z</time>
      </trkpt>
      <trkpt lat="44.66079" lon="5.07893">
        <ele>486.4</ele>
        <time>2024-05-17T13:33:00Z</time>
      </trkpt>
      <trkpt lat="44.66074" lon="5.07894">
        <ele>486</ele>
        <time>2024-05-17T13:33:01Z</time>
      </trkpt>
      <trkpt lat="44.66064" lon="5.07895">
        <ele>485.2</ele>
        <time>2024-05-17T13:33:02Z</time>
      </trkpt>
      <trkpt lat="44.66054" lon="5.07894">
        <ele>484.2</ele>
        <time>2024-05-17T13:33:03Z</time>
      </trkpt>
      <trkpt lat="44.66043" lon="5.07893">
        <ele>483.3</ele>
        <time>2024-05-17T13:33:04Z</time>
      </trkpt>
      <trkpt lat="44.66029" lon="5.07889">
        <ele>481.9</ele>
        <time>2024-05-17T13:33:05Z</time>
      </trkpt>
      <trkpt lat="44.66024" lon="5.07886">
        <ele>481.4</ele>
        <time>2024-05-17T13:33:06Z</time>
      </trkpt>
      <trkpt lat="44.66014" lon="5.07882">
        <ele>480.5</ele>
        <time>2024-05-17T13:33:07Z</time>
      </trkpt>
      <trkpt lat="44.66001" lon="5.07871">
        <ele>479</ele>
        <time>2024-05-17T13:33:08Z</time>
      </trkpt>
      <trkpt lat="44.65996" lon="5.07867">
        <ele>478.5</ele>
        <time>2024-05-17T13:33:09Z</time>
      </trkpt>
      <trkpt lat="44.65988" lon="5.07858">
        <ele>477.5</ele>
        <time>2024-05-17T13:33:10Z</time>
      </trkpt>
      <trkpt lat="44.65975" lon="5.07843">
        <ele>476.1</ele>
        <time>2024-05-17T13:33:11Z</time>
      </trkpt>
      <trkpt lat="44.65971" lon="5.07838">
        <ele>475.7</ele>
        <time>2024-05-17T13:33:12Z</time>
      </trkpt>
      <trkpt lat="44.65959" lon="5.07824">
        <ele>474.5</ele>
        <time>2024-05-17T13:33:13Z</time>
      </trkpt>
      <trkpt lat="44.65955" lon="5.07819">
        <ele>474.2</ele>
        <time>2024-05-17T13:33:14Z</time>
      </trkpt>
      <trkpt lat="44.65943" lon="5.07807">
        <ele>473.4</ele>
        <time>2024-05-17T13:33:15Z</time>
      </trkpt>
      <trkpt lat="44.6594" lon="5.07803">
        <ele>473.2</ele>
        <time>2024-05-17T13:33:16Z</time>
      </trkpt>
      <trkpt lat="44.65932" lon="5.07796">
        <ele>472.7</ele>
        <time>2024-05-17T13:33:17Z</time>
      </trkpt>
      <trkpt lat="44.65926" lon="5.0779">
        <ele>472.2</ele>
        <time>2024-05-17T13:33:18Z</time>
      </trkpt>
      <trkpt lat="44.65921" lon="5.07784">
        <ele>471.8</ele>
        <time>2024-05-17T13:33:19Z</time>
      </trkpt>
      <trkpt lat="44.65913" lon="5.07782">
        <ele>471.2</ele>
        <time>2024-05-17T13:33:20Z</time>
      </trkpt>
      <trkpt lat="44.65911" lon="5.07783">
        <ele>471</ele>
        <time>2024-05-17T13:33:21Z</time>
      </trkpt>
      <trkpt lat="44.65911" lon="5.07792">
        <ele>470.3</ele>
        <time>2024-05-17T13:33:22Z</time>
      </trkpt>
      <trkpt lat="44.65912" lon="5.07796">
        <ele>470</ele>
        <time>2024-05-17T13:33:23Z</time>
      </trkpt>
      <trkpt lat="44.65917" lon="5.07806">
        <ele>469</ele>
        <time>2024-05-17T13:33:24Z</time>
      </trkpt>
      <trkpt lat="44.65919" lon="5.07809">
        <ele>468.6</ele>
        <time>2024-05-17T13:33:25Z</time>
      </trkpt>
      <trkpt lat="44.65925" lon="5.07816">
        <ele>467.8</ele>
        <time>2024-05-17T13:33:26Z</time>
      </trkpt>
      <trkpt lat="44.6593" lon="5.07823">
        <ele>467</ele>
        <time>2024-05-17T13:33:27Z</time>
      </trkpt>
      <trkpt lat="44.65935" lon="5.07832">
        <ele>466.3</ele>
        <time>2024-05-17T13:33:28Z</time>
      </trkpt>
      <trkpt lat="44.65941" lon="5.0784">
        <ele>465.5</ele>
        <time>2024-05-17T13:33:29Z</time>
      </trkpt>
      <trkpt lat="44.65946" lon="5.0785">
        <ele>464.7</ele>
        <time>2024-05-17T13:33:30Z</time>
      </trkpt>
      <trkpt lat="44.65952" lon="5.07861">
        <ele>463.9</ele>
        <time>2024-05-17T13:33:31Z</time>
      </trkpt>
      <trkpt lat="44.65958" lon="5.07872">
        <ele>463</ele>
        <time>2024-05-17T13:33:32Z</time>
      </trkpt>
      <trkpt lat="44.65964" lon="5.07884">
        <ele>462.1</ele>
        <time>2024-05-17T13:33:33Z</time>
      </trkpt>
      <trkpt lat="44.65973" lon="5.07901">
        <ele>460.7</ele>
        <time>2024-05-17T13:33:34Z</time>
      </trkpt>
      <trkpt lat="44.65977" lon="5.07907">
        <ele>460.2</ele>
        <time>2024-05-17T13:33:35Z</time>
      </trkpt>
      <trkpt lat="44.65987" lon="5.07925">
        <ele>458.7</ele>
        <time>2024-05-17T13:33:36Z</time>
      </trkpt>
      <trkpt lat="44.6599" lon="5.07932">
        <ele>458.2</ele>
        <time>2024-05-17T13:33:37Z</time>
      </trkpt>
      <trkpt lat="44.65997" lon="5.07944">
        <ele>457.2</ele>
        <time>2024-05-17T13:33:38Z</time>
      </trkpt>
      <trkpt lat="44.66004" lon="5.07958">
        <ele>456.2</ele>
        <time>2024-05-17T13:33:39Z</time>
      </trkpt>
      <trkpt lat="44.66013" lon="5.07979">
        <ele>454.5</ele>
        <time>2024-05-17T13:33:40Z</time>
      </trkpt>
      <trkpt lat="44.66016" lon="5.07986">
        <ele>454</ele>
        <time>2024-05-17T13:33:41Z</time>
      </trkpt>
      <trkpt lat="44.66023" lon="5.08001">
        <ele>452.9</ele>
        <time>2024-05-17T13:33:42Z</time>
      </trkpt>
      <trkpt lat="44.66033" lon="5.08023">
        <ele>451.3</ele>
        <time>2024-05-17T13:33:43Z</time>
      </trkpt>
      <trkpt lat="44.66036" lon="5.0803">
        <ele>450.8</ele>
        <time>2024-05-17T13:33:44Z</time>
      </trkpt>
      <trkpt lat="44.66043" lon="5.08045">
        <ele>449.9</ele>
        <time>2024-05-17T13:33:45Z</time>
      </trkpt>
      <trkpt lat="44.66048" lon="5.08059">
        <ele>449</ele>
        <time>2024-05-17T13:33:46Z</time>
      </trkpt>
      <trkpt lat="44.66052" lon="5.08071">
        <ele>448.3</ele>
        <time>2024-05-17T13:33:47Z</time>
      </trkpt>
      <trkpt lat="44.66057" lon="5.08081">
        <ele>447.6</ele>
        <time>2024-05-17T13:33:48Z</time>
      </trkpt>
      <trkpt lat="44.66067" lon="5.08086">
        <ele>446.6</ele>
        <time>2024-05-17T13:33:49Z</time>
      </trkpt>
      <trkpt lat="44.6607" lon="5.08087">
        <ele>446.3</ele>
        <time>2024-05-17T13:33:50Z</time>
      </trkpt>
      <trkpt lat="44.66078" lon="5.08094">
        <ele>445.5</ele>
        <time>2024-05-17T13:33:51Z</time>
      </trkpt>
      <trkpt lat="44.66079" lon="5.08099">
        <ele>445.2</ele>
        <time>2024-05-17T13:33:52Z</time>
      </trkpt>
      <trkpt lat="44.66082" lon="5.08113">
        <ele>444</ele>
        <time>2024-05-17T13:33:53Z</time>
      </trkpt>
      <trkpt lat="44.66082" lon="5.08119">
        <ele>443.6</ele>
        <time>2024-05-17T13:33:54Z</time>
      </trkpt>
      <trkpt lat="44.66082" lon="5.08131">
        <ele>442.7</ele>
        <time>2024-05-17T13:33:55Z</time>
      </trkpt>
      <trkpt lat="44.66087" lon="5.08149">
        <ele>441.3</ele>
        <time>2024-05-17T13:33:56Z</time>
      </trkpt>
      <trkpt lat="44.6609" lon="5.08155">
        <ele>440.8</ele>
        <time>2024-05-17T13:33:57Z</time>
      </trkpt>
      <trkpt lat="44.66094" lon="5.08167">
        <ele>439.9</ele>
        <time>2024-05-17T13:33:58Z</time>
      </trkpt>
      <trkpt lat="44.66099" lon="5.08186">
        <ele>438.4</ele>
        <time>2024-05-17T13:33:59Z</time>
      </trkpt>
      <trkpt lat="44.66101" lon="5.08193">
        <ele>438</ele>
        <time>2024-05-17T13:34:00Z</time>
      </trkpt>
      <trkpt lat="44.66104" lon="5.08206">
        <ele>437.1</ele>
        <time>2024-05-17T13:34:01Z</time>
      </trkpt>
      <trkpt lat="44.66111" lon="5.08226">
        <ele>435.8</ele>
        <time>2024-05-17T13:34:02Z</time>
      </trkpt>
      <trkpt lat="44.66113" lon="5.08232">
        <ele>435.4</ele>
        <time>2024-05-17T13:34:03Z</time>
      </trkpt>
      <trkpt lat="44.66121" lon="5.08251">
        <ele>434.3</ele>
        <time>2024-05-17T13:34:04Z</time>
      </trkpt>
      <trkpt lat="44.66124" lon="5.08258">
        <ele>433.9</ele>
        <time>2024-05-17T13:34:05Z</time>
      </trkpt>
      <trkpt lat="44.66129" lon="5.08271">
        <ele>433.2</ele>
        <time>2024-05-17T13:34:06Z</time>
      </trkpt>
      <trkpt lat="44.66133" lon="5.08284">
        <ele>432.4</ele>
        <time>2024-05-17T13:34:07Z</time>
      </trkpt>
      <trkpt lat="44.66135" lon="5.08299">
        <ele>431.6</ele>
        <time>2024-05-17T13:34:08Z</time>
      </trkpt>
      <trkpt lat="44.66135" lon="5.08321">
        <ele>430.3</ele>
        <time>2024-05-17T13:34:09Z</time>
      </trkpt>
      <trkpt lat="44.66134" lon="5.08328">
        <ele>429.8</ele>
        <time>2024-05-17T13:34:10Z</time>
      </trkpt>
      <trkpt lat="44.66131" lon="5.08343">
        <ele>428.9</ele>
        <time>2024-05-17T13:34:11Z</time>
      </trkpt>
      <trkpt lat="44.66126" lon="5.08357">
        <ele>427.9</ele>
        <time>2024-05-17T13:34:12Z</time>
      </trkpt>
      <trkpt lat="44.66118" lon="5.08378">
        <ele>426.5</ele>
        <time>2024-05-17T13:34:13Z</time>
      </trkpt>
      <trkpt lat="44.66114" lon="5.08384">
        <ele>426</ele>
        <time>2024-05-17T13:34:14Z</time>
      </trkpt>
      <trkpt lat="44.66106" lon="5.08396">
        <ele>425.2</ele>
        <time>2024-05-17T13:34:15Z</time>
      </trkpt>
      <trkpt lat="44.66097" lon="5.08405">
        <ele>424.5</ele>
        <time>2024-05-17T13:34:16Z</time>
      </trkpt>
      <trkpt lat="44.66083" lon="5.08417">
        <ele>423.5</ele>
        <time>2024-05-17T13:34:17Z</time>
      </trkpt>
      <trkpt lat="44.66078" lon="5.08419">
        <ele>423.2</ele>
        <time>2024-05-17T13:34:18Z</time>
      </trkpt>
      <trkpt lat="44.66062" lon="5.08426">
        <ele>422.3</ele>
        <time>2024-05-17T13:34:19Z</time>
      </trkpt>
      <trkpt lat="44.66057" lon="5.08429">
        <ele>422.1</ele>
        <time>2024-05-17T13:34:20Z</time>
      </trkpt>
      <trkpt lat="44.66043" lon="5.08437">
        <ele>421.3</ele>
        <time>2024-05-17T13:34:21Z</time>
      </trkpt>
      <trkpt lat="44.66039" lon="5.08441">
        <ele>421</ele>
        <time>2024-05-17T13:34:22Z</time>
      </trkpt>
      <trkpt lat="44.66026" lon="5.08455">
        <ele>420.3</ele>
        <time>2024-05-17T13:34:23Z</time>
      </trkpt>
      <trkpt lat="44.66023" lon="5.0846">
        <ele>420.1</ele>
        <time>2024-05-17T13:34:24Z</time>
      </trkpt>
      <trkpt lat="44.66016" lon="5.08471">
        <ele>419.7</ele>
        <time>2024-05-17T13:34:25Z</time>
      </trkpt>
      <trkpt lat="44.66007" lon="5.08487">
        <ele>419.2</ele>
        <time>2024-05-17T13:34:26Z</time>
      </trkpt>
      <trkpt lat="44.66004" lon="5.08493">
        <ele>419</ele>
        <time>2024-05-17T13:34:27Z</time>
      </trkpt>
      <trkpt lat="44.65999" lon="5.08511">
        <ele>418.5</ele>
        <time>2024-05-17T13:34:28Z</time>
      </trkpt>
      <trkpt lat="44.65997" lon="5.08517">
        <ele>418.4</ele>
        <time>2024-05-17T13:34:29Z</time>
      </trkpt>
      <trkpt lat="44.65994" lon="5.08529">
        <ele>418.1</ele>
        <time>2024-05-17T13:34:30Z</time>
      </trkpt>
      <trkpt lat="44.65991" lon="5.08541">
        <ele>417.8</ele>
        <time>2024-05-17T13:34:31Z</time>
      </trkpt>
      <trkpt lat="44.65988" lon="5.08553">
        <ele>417.4</ele>
        <time>2024-05-17T13:34:32Z</time>
      </trkpt>
      <trkpt lat="44.65983" lon="5.08571">
        <ele>416.9</ele>
        <time>2024-05-17T13:34:33Z</time>
      </trkpt>
      <trkpt lat="44.65981" lon="5.08577">
        <ele>416.8</ele>
        <time>2024-05-17T13:34:34Z</time>
      </trkpt>
      <trkpt lat="44.65979" lon="5.08589">
        <ele>416.5</ele>
        <time>2024-05-17T13:34:35Z</time>
      </trkpt>
      <trkpt lat="44.65975" lon="5.08607">
        <ele>416.2</ele>
        <time>2024-05-17T13:34:36Z</time>
      </trkpt>
      <trkpt lat="44.65974" lon="5.08613">
        <ele>416</ele>
        <time>2024-05-17T13:34:37Z</time>
      </trkpt>
      <trkpt lat="44.65971" lon="5.08631">
        <ele>415.6</ele>
        <time>2024-05-17T13:34:38Z</time>
      </trkpt>
      <trkpt lat="44.6597" lon="5.08637">
        <ele>415.4</ele>
        <time>2024-05-17T13:34:39Z</time>
      </trkpt>
      <trkpt lat="44.65968" lon="5.08655">
        <ele>415</ele>
        <time>2024-05-17T13:34:40Z</time>
      </trkpt>
      <trkpt lat="44.65967" lon="5.08661">
        <ele>414.8</ele>
        <time>2024-05-17T13:34:41Z</time>
      </trkpt>
      <trkpt lat="44.65965" lon="5.08673">
        <ele>414.5</ele>
        <time>2024-05-17T13:34:42Z</time>
      </trkpt>
      <trkpt lat="44.65964" lon="5.08685">
        <ele>414.3</ele>
        <time>2024-05-17T13:34:43Z</time>
      </trkpt>
      <trkpt lat="44.65963" lon="5.08698">
        <ele>414</ele>
        <time>2024-05-17T13:34:44Z</time>
      </trkpt>
      <trkpt lat="44.65962" lon="5.0871">
        <ele>413.7</ele>
        <time>2024-05-17T13:34:45Z</time>
      </trkpt>
      <trkpt lat="44.65961" lon="5.08723">
        <ele>413.4</ele>
        <time>2024-05-17T13:34:46Z</time>
      </trkpt>
      <trkpt lat="44.6596" lon="5.08736">
        <ele>413.1</ele>
        <time>2024-05-17T13:34:47Z</time>
      </trkpt>
      <trkpt lat="44.65958" lon="5.08755">
        <ele>412.7</ele>
        <time>2024-05-17T13:34:48Z</time>
      </trkpt>
      <trkpt lat="44.65957" lon="5.08761">
        <ele>412.5</ele>
        <time>2024-05-17T13:34:49Z</time>
      </trkpt>
      <trkpt lat="44.65955" lon="5.0878">
        <ele>412.1</ele>
        <time>2024-05-17T13:34:50Z</time>
      </trkpt>
      <trkpt lat="44.65954" lon="5.08786">
        <ele>412</ele>
        <time>2024-05-17T13:34:51Z</time>
      </trkpt>
      <trkpt lat="44.65951" lon="5.08804">
        <ele>411.6</ele>
        <time>2024-05-17T13:34:52Z</time>
      </trkpt>
      <trkpt lat="44.6595" lon="5.08811">
        <ele>411.5</ele>
        <time>2024-05-17T13:34:53Z</time>
      </trkpt>
      <trkpt lat="44.65948" lon="5.08823">
        <ele>411.2</ele>
        <time>2024-05-17T13:34:54Z</time>
      </trkpt>
      <trkpt lat="44.65946" lon="5.08835">
        <ele>411</ele>
        <time>2024-05-17T13:34:55Z</time>
      </trkpt>
      <trkpt lat="44.65945" lon="5.08854">
        <ele>410.6</ele>
        <time>2024-05-17T13:34:56Z</time>
      </trkpt>
      <trkpt lat="44.65945" lon="5.0886">
        <ele>410.6</ele>
        <time>2024-05-17T13:34:57Z</time>
      </trkpt>
      <trkpt lat="44.65944" lon="5.08873">
        <ele>410.4</ele>
        <time>2024-05-17T13:34:58Z</time>
      </trkpt>
      <trkpt lat="44.65942" lon="5.08891">
        <ele>410.2</ele>
        <time>2024-05-17T13:34:59Z</time>
      </trkpt>
      <trkpt lat="44.65941" lon="5.08897">
        <ele>410.1</ele>
        <time>2024-05-17T13:35:00Z</time>
      </trkpt>
      <trkpt lat="44.65939" lon="5.08915">
        <ele>409.9</ele>
        <time>2024-05-17T13:35:01Z</time>
      </trkpt>
      <trkpt lat="44.65938" lon="5.08921">
        <ele>409.8</ele>
        <time>2024-05-17T13:35:02Z</time>
      </trkpt>
      <trkpt lat="44.65935" lon="5.08939">
        <ele>409.5</ele>
        <time>2024-05-17T13:35:03Z</time>
      </trkpt>
      <trkpt lat="44.65935" lon="5.08944">
        <ele>409.4</ele>
        <time>2024-05-17T13:35:04Z</time>
      </trkpt>
      <trkpt lat="44.65932" lon="5.08962">
        <ele>409.1</ele>
        <time>2024-05-17T13:35:05Z</time>
      </trkpt>
      <trkpt lat="44.65931" lon="5.08968">
        <ele>409</ele>
        <time>2024-05-17T13:35:06Z</time>
      </trkpt>
      <trkpt lat="44.65929" lon="5.08986">
        <ele>408.7</ele>
        <time>2024-05-17T13:35:07Z</time>
      </trkpt>
      <trkpt lat="44.65928" lon="5.08991">
        <ele>408.6</ele>
        <time>2024-05-17T13:35:08Z</time>
      </trkpt>
      <trkpt lat="44.65927" lon="5.09004">
        <ele>408.4</ele>
        <time>2024-05-17T13:35:09Z</time>
      </trkpt>
      <trkpt lat="44.65924" lon="5.09022">
        <ele>408.1</ele>
        <time>2024-05-17T13:35:10Z</time>
      </trkpt>
      <trkpt lat="44.65923" lon="5.09029">
        <ele>408</ele>
        <time>2024-05-17T13:35:11Z</time>
      </trkpt>
      <trkpt lat="44.65922" lon="5.09041">
        <ele>407.8</ele>
        <time>2024-05-17T13:35:12Z</time>
      </trkpt>
      <trkpt lat="44.6592" lon="5.09058">
        <ele>407.4</ele>
        <time>2024-05-17T13:35:13Z</time>
      </trkpt>
      <trkpt lat="44.65919" lon="5.09064">
        <ele>407.3</ele>
        <time>2024-05-17T13:35:14Z</time>
      </trkpt>
      <trkpt lat="44.65917" lon="5.09077">
        <ele>407</ele>
        <time>2024-05-17T13:35:15Z</time>
      </trkpt>
      <trkpt lat="44.65914" lon="5.09095">
        <ele>406.6</ele>
        <time>2024-05-17T13:35:16Z</time>
      </trkpt>
      <trkpt lat="44.65914" lon="5.09101">
        <ele>406.5</ele>
        <time>2024-05-17T13:35:17Z</time>
      </trkpt>
      <trkpt lat="44.65912" lon="5.09114">
        <ele>406.2</ele>
        <time>2024-05-17T13:35:18Z</time>
      </trkpt>
      <trkpt lat="44.6591" lon="5.09126">
        <ele>405.9</ele>
        <time>2024-05-17T13:35:19Z</time>
      </trkpt>
      <trkpt lat="44.65908" lon="5.09145">
        <ele>405.4</ele>
        <time>2024-05-17T13:35:20Z</time>
      </trkpt>
      <trkpt lat="44.65908" lon="5.09151">
        <ele>405.3</ele>
        <time>2024-05-17T13:35:21Z</time>
      </trkpt>
      <trkpt lat="44.65906" lon="5.0917">
        <ele>404.9</ele>
        <time>2024-05-17T13:35:22Z</time>
      </trkpt>
      <trkpt lat="44.65905" lon="5.09176">
        <ele>404.8</ele>
        <time>2024-05-17T13:35:23Z</time>
      </trkpt>
      <trkpt lat="44.65903" lon="5.09194">
        <ele>404.5</ele>
        <time>2024-05-17T13:35:24Z</time>
      </trkpt>
      <trkpt lat="44.65902" lon="5.092">
        <ele>404.4</ele>
        <time>2024-05-17T13:35:25Z</time>
      </trkpt>
      <trkpt lat="44.659" lon="5.09218">
        <ele>404</ele>
        <time>2024-05-17T13:35:26Z</time>
      </trkpt>
      <trkpt lat="44.65899" lon="5.09224">
        <ele>403.9</ele>
        <time>2024-05-17T13:35:27Z</time>
      </trkpt>
      <trkpt lat="44.65898" lon="5.09236">
        <ele>403.6</ele>
        <time>2024-05-17T13:35:28Z</time>
      </trkpt>
      <trkpt lat="44.65896" lon="5.09248">
        <ele>403.2</ele>
        <time>2024-05-17T13:35:29Z</time>
      </trkpt>
      <trkpt lat="44.65892" lon="5.09267">
        <ele>402.8</ele>
        <time>2024-05-17T13:35:30Z</time>
      </trkpt>
      <trkpt lat="44.65891" lon="5.09273">
        <ele>402.6</ele>
        <time>2024-05-17T13:35:31Z</time>
      </trkpt>
      <trkpt lat="44.65889" lon="5.09285">
        <ele>402.3</ele>
        <time>2024-05-17T13:35:32Z</time>
      </trkpt>
      <trkpt lat="44.65886" lon="5.09301">
        <ele>401.9</ele>
        <time>2024-05-17T13:35:33Z</time>
      </trkpt>
      <trkpt lat="44.65885" lon="5.09306">
        <ele>401.8</ele>
        <time>2024-05-17T13:35:34Z</time>
      </trkpt>
      <trkpt lat="44.65882" lon="5.09317">
        <ele>401.5</ele>
        <time>2024-05-17T13:35:35Z</time>
      </trkpt>
      <trkpt lat="44.6588" lon="5.09328">
        <ele>401.3</ele>
        <time>2024-05-17T13:35:36Z</time>
      </trkpt>
      <trkpt lat="44.65877" lon="5.09338">
        <ele>401.1</ele>
        <time>2024-05-17T13:35:37Z</time>
      </trkpt>
      <trkpt lat="44.65872" lon="5.09353">
        <ele>400.7</ele>
        <time>2024-05-17T13:35:38Z</time>
      </trkpt>
      <trkpt lat="44.6587" lon="5.09358">
        <ele>400.5</ele>
        <time>2024-05-17T13:35:39Z</time>
      </trkpt>
      <trkpt lat="44.65867" lon="5.09368">
        <ele>400.3</ele>
        <time>2024-05-17T13:35:40Z</time>
      </trkpt>
      <trkpt lat="44.65862" lon="5.09377">
        <ele>399.9</ele>
        <time>2024-05-17T13:35:41Z</time>
      </trkpt>
      <trkpt lat="44.65856" lon="5.0939">
        <ele>399.4</ele>
        <time>2024-05-17T13:35:42Z</time>
      </trkpt>
      <trkpt lat="44.65854" lon="5.09395">
        <ele>399.3</ele>
        <time>2024-05-17T13:35:43Z</time>
      </trkpt>
      <trkpt lat="44.65847" lon="5.09409">
        <ele>398.7</ele>
        <time>2024-05-17T13:35:44Z</time>
      </trkpt>
      <trkpt lat="44.65845" lon="5.09413">
        <ele>398.5</ele>
        <time>2024-05-17T13:35:45Z</time>
      </trkpt>
      <trkpt lat="44.65838" lon="5.09428">
        <ele>397.9</ele>
        <time>2024-05-17T13:35:46Z</time>
      </trkpt>
      <trkpt lat="44.65835" lon="5.09433">
        <ele>397.8</ele>
        <time>2024-05-17T13:35:47Z</time>
      </trkpt>
      <trkpt lat="44.65829" lon="5.09447">
        <ele>397.3</ele>
        <time>2024-05-17T13:35:48Z</time>
      </trkpt>
      <trkpt lat="44.65828" lon="5.09452">
        <ele>397.1</ele>
        <time>2024-05-17T13:35:49Z</time>
      </trkpt>
      <trkpt lat="44.65824" lon="5.09461">
        <ele>396.8</ele>
        <time>2024-05-17T13:35:50Z</time>
      </trkpt>
      <trkpt lat="44.65817" lon="5.09474">
        <ele>396.4</ele>
        <time>2024-05-17T13:35:51Z</time>
      </trkpt>
      <trkpt lat="44.65814" lon="5.09478">
        <ele>396.3</ele>
        <time>2024-05-17T13:35:52Z</time>
      </trkpt>
      <trkpt lat="44.65804" lon="5.09491">
        <ele>395.8</ele>
        <time>2024-05-17T13:35:53Z</time>
      </trkpt>
      <trkpt lat="44.65801" lon="5.09495">
        <ele>395.7</ele>
        <time>2024-05-17T13:35:54Z</time>
      </trkpt>
      <trkpt lat="44.65794" lon="5.09503">
        <ele>395.5</ele>
        <time>2024-05-17T13:35:55Z</time>
      </trkpt>
      <trkpt lat="44.65787" lon="5.0951">
        <ele>395.4</ele>
        <time>2024-05-17T13:35:56Z</time>
      </trkpt>
      <trkpt lat="44.65781" lon="5.09516">
        <ele>395.2</ele>
        <time>2024-05-17T13:35:57Z</time>
      </trkpt>
      <trkpt lat="44.6577" lon="5.09525">
        <ele>395</ele>
        <time>2024-05-17T13:35:58Z</time>
      </trkpt>
      <trkpt lat="44.65767" lon="5.09528">
        <ele>394.9</ele>
        <time>2024-05-17T13:35:59Z</time>
      </trkpt>
      <trkpt lat="44.6576" lon="5.09532">
        <ele>394.8</ele>
        <time>2024-05-17T13:36:00Z</time>
      </trkpt>
      <trkpt lat="44.65754" lon="5.09538">
        <ele>394.6</ele>
        <time>2024-05-17T13:36:01Z</time>
      </trkpt>
      <trkpt lat="44.65747" lon="5.09542">
        <ele>394.5</ele>
        <time>2024-05-17T13:36:02Z</time>
      </trkpt>
      <trkpt lat="44.65741" lon="5.09546">
        <ele>394.3</ele>
        <time>2024-05-17T13:36:03Z</time>
      </trkpt>
      <trkpt lat="44.65731" lon="5.09551">
        <ele>394.1</ele>
        <time>2024-05-17T13:36:04Z</time>
      </trkpt>
      <trkpt lat="44.65727" lon="5.09552">
        <ele>394</ele>
        <time>2024-05-17T13:36:05Z</time>
      </trkpt>
      <trkpt lat="44.65721" lon="5.09553">
        <ele>393.9</ele>
        <time>2024-05-17T13:36:06Z</time>
      </trkpt>
      <trkpt lat="44.65713" lon="5.09553">
        <ele>393.7</ele>
        <time>2024-05-17T13:36:07Z</time>
      </trkpt>
      <trkpt lat="44.65702" lon="5.09552">
        <ele>393.4</ele>
        <time>2024-05-17T13:36:08Z</time>
      </trkpt>
      <trkpt lat="44.65699" lon="5.09551">
        <ele>393.3</ele>
        <time>2024-05-17T13:36:09Z</time>
      </trkpt>
      <trkpt lat="44.65692" lon="5.0955">
        <ele>393.2</ele>
        <time>2024-05-17T13:36:10Z</time>
      </trkpt>
      <trkpt lat="44.65685" lon="5.0955">
        <ele>393</ele>
        <time>2024-05-17T13:36:11Z</time>
      </trkpt>
      <trkpt lat="44.65679" lon="5.0955">
        <ele>392.8</ele>
        <time>2024-05-17T13:36:12Z</time>
      </trkpt>
      <trkpt lat="44.65672" lon="5.09549">
        <ele>392.7</ele>
        <time>2024-05-17T13:36:13Z</time>
      </trkpt>
      <trkpt lat="44.65662" lon="5.09548">
        <ele>392.4</ele>
        <time>2024-05-17T13:36:14Z</time>
      </trkpt>
      <trkpt lat="44.65659" lon="5.09548">
        <ele>392.3</ele>
        <time>2024-05-17T13:36:15Z</time>
      </trkpt>
      <trkpt lat="44.65648" lon="5.09549">
        <ele>392</ele>
        <time>2024-05-17T13:36:16Z</time>
      </trkpt>
      <trkpt lat="44.65645" lon="5.09549">
        <ele>391.9</ele>
        <time>2024-05-17T13:36:17Z</time>
      </trkpt>
      <trkpt lat="44.65637" lon="5.09551">
        <ele>391.7</ele>
        <time>2024-05-17T13:36:18Z</time>
      </trkpt>
      <trkpt lat="44.6563" lon="5.09552">
        <ele>391.5</ele>
        <time>2024-05-17T13:36:19Z</time>
      </trkpt>
      <trkpt lat="44.6562" lon="5.09551">
        <ele>391.2</ele>
        <time>2024-05-17T13:36:20Z</time>
      </trkpt>
      <trkpt lat="44.65617" lon="5.09552">
        <ele>391.1</ele>
        <time>2024-05-17T13:36:21Z</time>
      </trkpt>
      <trkpt lat="44.65609" lon="5.09552">
        <ele>391</ele>
        <time>2024-05-17T13:36:22Z</time>
      </trkpt>
      <trkpt lat="44.65606" lon="5.09551">
        <ele>390.9</ele>
        <time>2024-05-17T13:36:23Z</time>
      </trkpt>
      <trkpt lat="44.656" lon="5.0955">
        <ele>390.8</ele>
        <time>2024-05-17T13:36:24Z</time>
      </trkpt>
      <trkpt lat="44.65593" lon="5.0955">
        <ele>390.7</ele>
        <time>2024-05-17T13:36:25Z</time>
      </trkpt>
      <trkpt lat="44.65585" lon="5.09548">
        <ele>390.5</ele>
        <time>2024-05-17T13:36:26Z</time>
      </trkpt>
      <trkpt lat="44.65582" lon="5.09547">
        <ele>390.5</ele>
        <time>2024-05-17T13:36:27Z</time>
      </trkpt>
      <trkpt lat="44.65574" lon="5.09544">
        <ele>390.3</ele>
        <time>2024-05-17T13:36:28Z</time>
      </trkpt>
      <trkpt lat="44.65572" lon="5.09543">
        <ele>390.3</ele>
        <time>2024-05-17T13:36:29Z</time>
      </trkpt>
      <trkpt lat="44.65567" lon="5.09542">
        <ele>390.2</ele>
        <time>2024-05-17T13:36:30Z</time>
      </trkpt>
      <trkpt lat="44.65561" lon="5.09541">
        <ele>390.1</ele>
        <time>2024-05-17T13:36:31Z</time>
      </trkpt>
      <trkpt lat="44.65551" lon="5.09542">
        <ele>389.9</ele>
        <time>2024-05-17T13:36:32Z</time>
      </trkpt>
      <trkpt lat="44.65549" lon="5.09543">
        <ele>389.9</ele>
        <time>2024-05-17T13:36:33Z</time>
      </trkpt>
      <trkpt lat="44.65545" lon="5.09546">
        <ele>389.7</ele>
        <time>2024-05-17T13:36:34Z</time>
      </trkpt>
      <trkpt lat="44.65535" lon="5.09543">
        <ele>389.5</ele>
        <time>2024-05-17T13:36:35Z</time>
      </trkpt>
      <trkpt lat="44.65533" lon="5.09541">
        <ele>389.5</ele>
        <time>2024-05-17T13:36:36Z</time>
      </trkpt>
      <trkpt lat="44.65528" lon="5.09537">
        <ele>389.3</ele>
        <time>2024-05-17T13:36:37Z</time>
      </trkpt>
      <trkpt lat="44.65522" lon="5.09526">
        <ele>389.1</ele>
        <time>2024-05-17T13:36:38Z</time>
      </trkpt>
      <trkpt lat="44.65519" lon="5.09522">
        <ele>389</ele>
        <time>2024-05-17T13:36:39Z</time>
      </trkpt>
      <trkpt lat="44.65512" lon="5.0951">
        <ele>388.7</ele>
        <time>2024-05-17T13:36:40Z</time>
      </trkpt>
      <trkpt lat="44.6551" lon="5.09507">
        <ele>388.6</ele>
        <time>2024-05-17T13:36:41Z</time>
      </trkpt>
      <trkpt lat="44.65504" lon="5.09503">
        <ele>388.4</ele>
        <time>2024-05-17T13:36:42Z</time>
      </trkpt>
      <trkpt lat="44.65497" lon="5.09498">
        <ele>388.2</ele>
        <time>2024-05-17T13:36:43Z</time>
      </trkpt>
      <trkpt lat="44.65492" lon="5.09493">
        <ele>388.1</ele>
        <time>2024-05-17T13:36:44Z</time>
      </trkpt>
      <trkpt lat="44.65487" lon="5.09488">
        <ele>388</ele>
        <time>2024-05-17T13:36:45Z</time>
      </trkpt>
      <trkpt lat="44.65482" lon="5.09484">
        <ele>387.9</ele>
        <time>2024-05-17T13:36:46Z</time>
      </trkpt>
      <trkpt lat="44.65478" lon="5.0948">
        <ele>387.8</ele>
        <time>2024-05-17T13:36:47Z</time>
      </trkpt>
      <trkpt lat="44.65474" lon="5.09476">
        <ele>387.8</ele>
        <time>2024-05-17T13:36:48Z</time>
      </trkpt>
      <trkpt lat="44.65469" lon="5.09472">
        <ele>387.7</ele>
        <time>2024-05-17T13:36:49Z</time>
      </trkpt>
      <trkpt lat="44.65465" lon="5.09471">
        <ele>387.6</ele>
        <time>2024-05-17T13:36:50Z</time>
      </trkpt>
      <trkpt lat="44.65461" lon="5.0947">
        <ele>387.6</ele>
        <time>2024-05-17T13:36:51Z</time>
      </trkpt>
      <trkpt lat="44.65457" lon="5.09468">
        <ele>387.5</ele>
        <time>2024-05-17T13:36:52Z</time>
      </trkpt>
      <trkpt lat="44.65456" lon="5.0946">
        <ele>387.4</ele>
        <time>2024-05-17T13:36:53Z</time>
      </trkpt>
      <trkpt lat="44.65455" lon="5.09453">
        <ele>387.3</ele>
        <time>2024-05-17T13:36:54Z</time>
      </trkpt>
      <trkpt lat="44.65453" lon="5.09444">
        <ele>387.2</ele>
        <time>2024-05-17T13:36:55Z</time>
      </trkpt>
      <trkpt lat="44.6545" lon="5.09436">
        <ele>387.1</ele>
        <time>2024-05-17T13:36:56Z</time>
      </trkpt>
      <trkpt lat="44.65449" lon="5.09433">
        <ele>387</ele>
        <time>2024-05-17T13:36:57Z</time>
      </trkpt>
      <trkpt lat="44.65444" lon="5.09425">
        <ele>387</ele>
        <time>2024-05-17T13:36:58Z</time>
      </trkpt>
      <trkpt lat="44.65442" lon="5.09423">
        <ele>387</ele>
        <time>2024-05-17T13:36:59Z</time>
      </trkpt>
      <trkpt lat="44.65438" lon="5.09418">
        <ele>386.9</ele>
        <time>2024-05-17T13:37:00Z</time>
      </trkpt>
      <trkpt lat="44.65433" lon="5.09411">
        <ele>386.9</ele>
        <time>2024-05-17T13:37:01Z</time>
      </trkpt>
      <trkpt lat="44.65428" lon="5.09399">
        <ele>386.8</ele>
        <time>2024-05-17T13:37:02Z</time>
      </trkpt>
      <trkpt lat="44.65427" lon="5.09395">
        <ele>386.8</ele>
        <time>2024-05-17T13:37:03Z</time>
      </trkpt>
      <trkpt lat="44.65423" lon="5.09388">
        <ele>386.8</ele>
        <time>2024-05-17T13:37:04Z</time>
      </trkpt>
      <trkpt lat="44.6542" lon="5.09381">
        <ele>386.7</ele>
        <time>2024-05-17T13:37:05Z</time>
      </trkpt>
      <trkpt lat="44.65418" lon="5.09374">
        <ele>386.7</ele>
        <time>2024-05-17T13:37:06Z</time>
      </trkpt>
      <trkpt lat="44.65416" lon="5.09366">
        <ele>386.7</ele>
        <time>2024-05-17T13:37:07Z</time>
      </trkpt>
      <trkpt lat="44.65414" lon="5.09355">
        <ele>386.6</ele>
        <time>2024-05-17T13:37:08Z</time>
      </trkpt>
      <trkpt lat="44.65413" lon="5.09351">
        <ele>386.6</ele>
        <time>2024-05-17T13:37:09Z</time>
      </trkpt>
      <trkpt lat="44.65411" lon="5.0934">
        <ele>386.6</ele>
        <time>2024-05-17T13:37:10Z</time>
      </trkpt>
      <trkpt lat="44.6541" lon="5.09337">
        <ele>386.6</ele>
        <time>2024-05-17T13:37:11Z</time>
      </trkpt>
      <trkpt lat="44.65409" lon="5.09329">
        <ele>386.5</ele>
        <time>2024-05-17T13:37:12Z</time>
      </trkpt>
      <trkpt lat="44.65409" lon="5.09321">
        <ele>386.5</ele>
        <time>2024-05-17T13:37:13Z</time>
      </trkpt>
      <trkpt lat="44.65408" lon="5.09313">
        <ele>386.5</ele>
        <time>2024-05-17T13:37:14Z</time>
      </trkpt>
      <trkpt lat="44.65408" lon="5.09306">
        <ele>386.4</ele>
        <time>2024-05-17T13:37:15Z</time>
      </trkpt>
      <trkpt lat="44.65408" lon="5.09298">
        <ele>386.4</ele>
        <time>2024-05-17T13:37:16Z</time>
      </trkpt>
      <trkpt lat="44.65408" lon="5.09287">
        <ele>386.2</ele>
        <time>2024-05-17T13:37:17Z</time>
      </trkpt>
      <trkpt lat="44.65408" lon="5.09283">
        <ele>386.1</ele>
        <time>2024-05-17T13:37:18Z</time>
      </trkpt>
      <trkpt lat="44.65407" lon="5.09271">
        <ele>385.9</ele>
        <time>2024-05-17T13:37:19Z</time>
      </trkpt>
      <trkpt lat="44.65407" lon="5.09267">
        <ele>385.8</ele>
        <time>2024-05-17T13:37:20Z</time>
      </trkpt>
      <trkpt lat="44.65407" lon="5.09258">
        <ele>385.6</ele>
        <time>2024-05-17T13:37:21Z</time>
      </trkpt>
      <trkpt lat="44.65406" lon="5.0925">
        <ele>385.4</ele>
        <time>2024-05-17T13:37:22Z</time>
      </trkpt>
      <trkpt lat="44.65405" lon="5.09241">
        <ele>385.1</ele>
        <time>2024-05-17T13:37:23Z</time>
      </trkpt>
      <trkpt lat="44.65405" lon="5.09232">
        <ele>384.8</ele>
        <time>2024-05-17T13:37:24Z</time>
      </trkpt>
      <trkpt lat="44.65404" lon="5.09218">
        <ele>384.4</ele>
        <time>2024-05-17T13:37:25Z</time>
      </trkpt>
      <trkpt lat="44.65404" lon="5.09213">
        <ele>384.2</ele>
        <time>2024-05-17T13:37:26Z</time>
      </trkpt>
      <trkpt lat="44.65402" lon="5.09199">
        <ele>383.7</ele>
        <time>2024-05-17T13:37:27Z</time>
      </trkpt>
      <trkpt lat="44.65401" lon="5.09194">
        <ele>383.6</ele>
        <time>2024-05-17T13:37:28Z</time>
      </trkpt>
      <trkpt lat="44.65399" lon="5.0918">
        <ele>383.1</ele>
        <time>2024-05-17T13:37:29Z</time>
      </trkpt>
      <trkpt lat="44.65397" lon="5.09175">
        <ele>382.9</ele>
        <time>2024-05-17T13:37:30Z</time>
      </trkpt>
      <trkpt lat="44.65395" lon="5.09166">
        <ele>382.6</ele>
        <time>2024-05-17T13:37:31Z</time>
      </trkpt>
      <trkpt lat="44.65392" lon="5.09151">
        <ele>382.2</ele>
        <time>2024-05-17T13:37:32Z</time>
      </trkpt>
      <trkpt lat="44.65391" lon="5.09146">
        <ele>382</ele>
        <time>2024-05-17T13:37:33Z</time>
      </trkpt>
      <trkpt lat="44.65388" lon="5.09136">
        <ele>381.7</ele>
        <time>2024-05-17T13:37:34Z</time>
      </trkpt>
      <trkpt lat="44.65386" lon="5.09126">
        <ele>381.5</ele>
        <time>2024-05-17T13:37:35Z</time>
      </trkpt>
      <trkpt lat="44.65385" lon="5.09116">
        <ele>381.2</ele>
        <time>2024-05-17T13:37:36Z</time>
      </trkpt>
      <trkpt lat="44.65383" lon="5.09106">
        <ele>380.9</ele>
        <time>2024-05-17T13:37:37Z</time>
      </trkpt>
      <trkpt lat="44.65382" lon="5.09096">
        <ele>380.7</ele>
        <time>2024-05-17T13:37:38Z</time>
      </trkpt>
      <trkpt lat="44.6538" lon="5.09087">
        <ele>380.4</ele>
        <time>2024-05-17T13:37:39Z</time>
      </trkpt>
      <trkpt lat="44.65378" lon="5.09072">
        <ele>380</ele>
        <time>2024-05-17T13:37:40Z</time>
      </trkpt>
      <trkpt lat="44.65377" lon="5.09067">
        <ele>379.9</ele>
        <time>2024-05-17T13:37:41Z</time>
      </trkpt>
      <trkpt lat="44.65375" lon="5.09053">
        <ele>379.7</ele>
        <time>2024-05-17T13:37:42Z</time>
      </trkpt>
      <trkpt lat="44.65374" lon="5.09048">
        <ele>379.6</ele>
        <time>2024-05-17T13:37:43Z</time>
      </trkpt>
      <trkpt lat="44.65373" lon="5.09039">
        <ele>379.5</ele>
        <time>2024-05-17T13:37:44Z</time>
      </trkpt>
      <trkpt lat="44.65372" lon="5.0903">
        <ele>379.4</ele>
        <time>2024-05-17T13:37:45Z</time>
      </trkpt>
      <trkpt lat="44.6537" lon="5.09021">
        <ele>379.4</ele>
        <time>2024-05-17T13:37:46Z</time>
      </trkpt>
      <trkpt lat="44.65369" lon="5.09012">
        <ele>379.3</ele>
        <time>2024-05-17T13:37:47Z</time>
      </trkpt>
      <trkpt lat="44.65367" lon="5.09003">
        <ele>379.3</ele>
        <time>2024-05-17T13:37:48Z</time>
      </trkpt>
      <trkpt lat="44.65366" lon="5.08994">
        <ele>379.2</ele>
        <time>2024-05-17T13:37:49Z</time>
      </trkpt>
      <trkpt lat="44.65364" lon="5.08986">
        <ele>379.2</ele>
        <time>2024-05-17T13:37:50Z</time>
      </trkpt>
      <trkpt lat="44.65363" lon="5.08977">
        <ele>379.2</ele>
        <time>2024-05-17T13:37:51Z</time>
      </trkpt>
      <trkpt lat="44.6536" lon="5.08965">
        <ele>379.1</ele>
        <time>2024-05-17T13:37:52Z</time>
      </trkpt>
      <trkpt lat="44.65359" lon="5.08961">
        <ele>379.1</ele>
        <time>2024-05-17T13:37:53Z</time>
      </trkpt>
      <trkpt lat="44.65357" lon="5.08949">
        <ele>379.1</ele>
        <time>2024-05-17T13:37:54Z</time>
      </trkpt>
      <trkpt lat="44.65356" lon="5.08945">
        <ele>379.1</ele>
        <time>2024-05-17T13:37:55Z</time>
      </trkpt>
      <trkpt lat="44.65354" lon="5.08933">
        <ele>379.1</ele>
        <time>2024-05-17T13:37:56Z</time>
      </trkpt>
      <trkpt lat="44.65353" lon="5.08929">
        <ele>379.1</ele>
        <time>2024-05-17T13:37:57Z</time>
      </trkpt>
      <trkpt lat="44.65352" lon="5.0892">
        <ele>379.1</ele>
        <time>2024-05-17T13:37:58Z</time>
      </trkpt>
      <trkpt lat="44.6535" lon="5.08912">
        <ele>379.1</ele>
        <time>2024-05-17T13:37:59Z</time>
      </trkpt>
      <trkpt lat="44.65349" lon="5.08899">
        <ele>379</ele>
        <time>2024-05-17T13:38:00Z</time>
      </trkpt>
      <trkpt lat="44.65348" lon="5.08895">
        <ele>379</ele>
        <time>2024-05-17T13:38:01Z</time>
      </trkpt>
      <trkpt lat="44.65346" lon="5.08883">
        <ele>378.9</ele>
        <time>2024-05-17T13:38:02Z</time>
      </trkpt>
      <trkpt lat="44.65345" lon="5.08879">
        <ele>378.8</ele>
        <time>2024-05-17T13:38:03Z</time>
      </trkpt>
      <trkpt lat="44.65343" lon="5.08871">
        <ele>378.8</ele>
        <time>2024-05-17T13:38:04Z</time>
      </trkpt>
      <trkpt lat="44.65341" lon="5.08863">
        <ele>378.7</ele>
        <time>2024-05-17T13:38:05Z</time>
      </trkpt>
      <trkpt lat="44.65339" lon="5.08856">
        <ele>378.6</ele>
        <time>2024-05-17T13:38:06Z</time>
      </trkpt>
      <trkpt lat="44.65336" lon="5.08844">
        <ele>378.5</ele>
        <time>2024-05-17T13:38:07Z</time>
      </trkpt>
      <trkpt lat="44.65334" lon="5.0884">
        <ele>378.4</ele>
        <time>2024-05-17T13:38:08Z</time>
      </trkpt>
      <trkpt lat="44.65332" lon="5.08833">
        <ele>378.3</ele>
        <time>2024-05-17T13:38:09Z</time>
      </trkpt>
      <trkpt lat="44.65329" lon="5.08825">
        <ele>378.2</ele>
        <time>2024-05-17T13:38:10Z</time>
      </trkpt>
      <trkpt lat="44.65326" lon="5.08817">
        <ele>378.1</ele>
        <time>2024-05-17T13:38:11Z</time>
      </trkpt>
      <trkpt lat="44.65323" lon="5.08809">
        <ele>378</ele>
        <time>2024-05-17T13:38:12Z</time>
      </trkpt>
      <trkpt lat="44.6532" lon="5.08801">
        <ele>377.8</ele>
        <time>2024-05-17T13:38:13Z</time>
      </trkpt>
      <trkpt lat="44.65317" lon="5.08792">
        <ele>377.7</ele>
        <time>2024-05-17T13:38:14Z</time>
      </trkpt>
      <trkpt lat="44.65313" lon="5.08784">
        <ele>377.5</ele>
        <time>2024-05-17T13:38:15Z</time>
      </trkpt>
      <trkpt lat="44.65309" lon="5.08772">
        <ele>377.4</ele>
        <time>2024-05-17T13:38:16Z</time>
      </trkpt>
      <trkpt lat="44.65307" lon="5.08768">
        <ele>377.3</ele>
        <time>2024-05-17T13:38:17Z</time>
      </trkpt>
      <trkpt lat="44.65304" lon="5.0876">
        <ele>377.2</ele>
        <time>2024-05-17T13:38:18Z</time>
      </trkpt>
      <trkpt lat="44.65301" lon="5.08753">
        <ele>377.1</ele>
        <time>2024-05-17T13:38:19Z</time>
      </trkpt>
      <trkpt lat="44.65298" lon="5.08745">
        <ele>377</ele>
        <time>2024-05-17T13:38:20Z</time>
      </trkpt>
      <trkpt lat="44.65294" lon="5.08733">
        <ele>376.8</ele>
        <time>2024-05-17T13:38:21Z</time>
      </trkpt>
      <trkpt lat="44.65292" lon="5.08729">
        <ele>376.8</ele>
        <time>2024-05-17T13:38:22Z</time>
      </trkpt>
      <trkpt lat="44.65288" lon="5.08718">
        <ele>376.6</ele>
        <time>2024-05-17T13:38:23Z</time>
      </trkpt>
      <trkpt lat="44.65286" lon="5.08714">
        <ele>376.6</ele>
        <time>2024-05-17T13:38:24Z</time>
      </trkpt>
      <trkpt lat="44.65281" lon="5.08702">
        <ele>376.5</ele>
        <time>2024-05-17T13:38:25Z</time>
      </trkpt>
      <trkpt lat="44.6528" lon="5.08699">
        <ele>376.4</ele>
        <time>2024-05-17T13:38:26Z</time>
      </trkpt>
      <trkpt lat="44.65277" lon="5.08691">
        <ele>376.3</ele>
        <time>2024-05-17T13:38:27Z</time>
      </trkpt>
      <trkpt lat="44.65274" lon="5.08683">
        <ele>376.2</ele>
        <time>2024-05-17T13:38:28Z</time>
      </trkpt>
      <trkpt lat="44.65271" lon="5.08676">
        <ele>376.1</ele>
        <time>2024-05-17T13:38:29Z</time>
      </trkpt>
      <trkpt lat="44.65267" lon="5.08664">
        <ele>376</ele>
        <time>2024-05-17T13:38:30Z</time>
      </trkpt>
      <trkpt lat="44.65266" lon="5.0866">
        <ele>375.9</ele>
        <time>2024-05-17T13:38:31Z</time>
      </trkpt>
      <trkpt lat="44.65262" lon="5.08648">
        <ele>375.8</ele>
        <time>2024-05-17T13:38:32Z</time>
      </trkpt>
      <trkpt lat="44.6526" lon="5.08644">
        <ele>375.8</ele>
        <time>2024-05-17T13:38:33Z</time>
      </trkpt>
      <trkpt lat="44.65256" lon="5.08632">
        <ele>375.6</ele>
        <time>2024-05-17T13:38:34Z</time>
      </trkpt>
      <trkpt lat="44.65255" lon="5.08628">
        <ele>375.6</ele>
        <time>2024-05-17T13:38:35Z</time>
      </trkpt>
      <trkpt lat="44.65252" lon="5.08616">
        <ele>375.5</ele>
        <time>2024-05-17T13:38:36Z</time>
      </trkpt>
      <trkpt lat="44.65251" lon="5.08612">
        <ele>375.4</ele>
        <time>2024-05-17T13:38:37Z</time>
      </trkpt>
      <trkpt lat="44.65248" lon="5.086">
        <ele>375.3</ele>
        <time>2024-05-17T13:38:38Z</time>
      </trkpt>
      <trkpt lat="44.65247" lon="5.08596">
        <ele>375.3</ele>
        <time>2024-05-17T13:38:39Z</time>
      </trkpt>
      <trkpt lat="44.65244" lon="5.08585">
        <ele>375.2</ele>
        <time>2024-05-17T13:38:40Z</time>
      </trkpt>
      <trkpt lat="44.65243" lon="5.08581">
        <ele>375.1</ele>
        <time>2024-05-17T13:38:41Z</time>
      </trkpt>
      <trkpt lat="44.6524" lon="5.08569">
        <ele>375</ele>
        <time>2024-05-17T13:38:42Z</time>
      </trkpt>
      <trkpt lat="44.65239" lon="5.08566">
        <ele>375</ele>
        <time>2024-05-17T13:38:43Z</time>
      </trkpt>
      <trkpt lat="44.65237" lon="5.08558">
        <ele>374.9</ele>
        <time>2024-05-17T13:38:44Z</time>
      </trkpt>
      <trkpt lat="44.65235" lon="5.0855">
        <ele>374.8</ele>
        <time>2024-05-17T13:38:45Z</time>
      </trkpt>
      <trkpt lat="44.65233" lon="5.08543">
        <ele>374.8</ele>
        <time>2024-05-17T13:38:46Z</time>
      </trkpt>
      <trkpt lat="44.65231" lon="5.08536">
        <ele>374.7</ele>
        <time>2024-05-17T13:38:47Z</time>
      </trkpt>
      <trkpt lat="44.65227" lon="5.08525">
        <ele>374.6</ele>
        <time>2024-05-17T13:38:48Z</time>
      </trkpt>
      <trkpt lat="44.65225" lon="5.08521">
        <ele>374.6</ele>
        <time>2024-05-17T13:38:49Z</time>
      </trkpt>
      <trkpt lat="44.65221" lon="5.0851">
        <ele>374.5</ele>
        <time>2024-05-17T13:38:50Z</time>
      </trkpt>
      <trkpt lat="44.65219" lon="5.08507">
        <ele>374.4</ele>
        <time>2024-05-17T13:38:51Z</time>
      </trkpt>
      <trkpt lat="44.65215" lon="5.08496">
        <ele>374.3</ele>
        <time>2024-05-17T13:38:52Z</time>
      </trkpt>
      <trkpt lat="44.65213" lon="5.08492">
        <ele>374.3</ele>
        <time>2024-05-17T13:38:53Z</time>
      </trkpt>
      <trkpt lat="44.65211" lon="5.08485">
        <ele>374.2</ele>
        <time>2024-05-17T13:38:54Z</time>
      </trkpt>
      <trkpt lat="44.65209" lon="5.08478">
        <ele>374.1</ele>
        <time>2024-05-17T13:38:55Z</time>
      </trkpt>
      <trkpt lat="44.65207" lon="5.08471">
        <ele>374</ele>
        <time>2024-05-17T13:38:56Z</time>
      </trkpt>
      <trkpt lat="44.65204" lon="5.08465">
        <ele>374</ele>
        <time>2024-05-17T13:38:57Z</time>
      </trkpt>
      <trkpt lat="44.65203" lon="5.08459">
        <ele>373.9</ele>
        <time>2024-05-17T13:38:58Z</time>
      </trkpt>
      <trkpt lat="44.65201" lon="5.08453">
        <ele>373.8</ele>
        <time>2024-05-17T13:38:59Z</time>
      </trkpt>
      <trkpt lat="44.65199" lon="5.08447">
        <ele>373.7</ele>
        <time>2024-05-17T13:39:00Z</time>
      </trkpt>
      <trkpt lat="44.65198" lon="5.0844">
        <ele>373.7</ele>
        <time>2024-05-17T13:39:01Z</time>
      </trkpt>
      <trkpt lat="44.65196" lon="5.08433">
        <ele>373.6</ele>
        <time>2024-05-17T13:39:02Z</time>
      </trkpt>
      <trkpt lat="44.65195" lon="5.08426">
        <ele>373.5</ele>
        <time>2024-05-17T13:39:03Z</time>
      </trkpt>
      <trkpt lat="44.65195" lon="5.08419">
        <ele>373.4</ele>
        <time>2024-05-17T13:39:04Z</time>
      </trkpt>
      <trkpt lat="44.65194" lon="5.08411">
        <ele>373.3</ele>
        <time>2024-05-17T13:39:05Z</time>
      </trkpt>
      <trkpt lat="44.65192" lon="5.084">
        <ele>373.1</ele>
        <time>2024-05-17T13:39:06Z</time>
      </trkpt>
      <trkpt lat="44.65191" lon="5.08396">
        <ele>373</ele>
        <time>2024-05-17T13:39:07Z</time>
      </trkpt>
      <trkpt lat="44.65189" lon="5.08385">
        <ele>372.8</ele>
        <time>2024-05-17T13:39:08Z</time>
      </trkpt>
      <trkpt lat="44.65188" lon="5.08381">
        <ele>372.8</ele>
        <time>2024-05-17T13:39:09Z</time>
      </trkpt>
      <trkpt lat="44.65187" lon="5.0837">
        <ele>372.6</ele>
        <time>2024-05-17T13:39:10Z</time>
      </trkpt>
      <trkpt lat="44.65186" lon="5.08366">
        <ele>372.5</ele>
        <time>2024-05-17T13:39:11Z</time>
      </trkpt>
      <trkpt lat="44.65184" lon="5.08354">
        <ele>372.3</ele>
        <time>2024-05-17T13:39:12Z</time>
      </trkpt>
      <trkpt lat="44.65184" lon="5.0835">
        <ele>372.2</ele>
        <time>2024-05-17T13:39:13Z</time>
      </trkpt>
      <trkpt lat="44.65183" lon="5.08343">
        <ele>372.1</ele>
        <time>2024-05-17T13:39:14Z</time>
      </trkpt>
      <trkpt lat="44.65181" lon="5.08335">
        <ele>371.9</ele>
        <time>2024-05-17T13:39:15Z</time>
      </trkpt>
      <trkpt lat="44.6518" lon="5.08327">
        <ele>371.8</ele>
        <time>2024-05-17T13:39:16Z</time>
      </trkpt>
      <trkpt lat="44.65178" lon="5.08315">
        <ele>371.6</ele>
        <time>2024-05-17T13:39:17Z</time>
      </trkpt>
      <trkpt lat="44.65178" lon="5.08311">
        <ele>371.5</ele>
        <time>2024-05-17T13:39:18Z</time>
      </trkpt>
      <trkpt lat="44.65176" lon="5.083">
        <ele>371.2</ele>
        <time>2024-05-17T13:39:19Z</time>
      </trkpt>
      <trkpt lat="44.65175" lon="5.08296">
        <ele>371.2</ele>
        <time>2024-05-17T13:39:20Z</time>
      </trkpt>
      <trkpt lat="44.65173" lon="5.08284">
        <ele>370.9</ele>
        <time>2024-05-17T13:39:21Z</time>
      </trkpt>
      <trkpt lat="44.65172" lon="5.0828">
        <ele>370.8</ele>
        <time>2024-05-17T13:39:22Z</time>
      </trkpt>
      <trkpt lat="44.65171" lon="5.08272">
        <ele>370.7</ele>
        <time>2024-05-17T13:39:23Z</time>
      </trkpt>
      <trkpt lat="44.65167" lon="5.0826">
        <ele>370.4</ele>
        <time>2024-05-17T13:39:24Z</time>
      </trkpt>
      <trkpt lat="44.65166" lon="5.08256">
        <ele>370.3</ele>
        <time>2024-05-17T13:39:25Z</time>
      </trkpt>
      <trkpt lat="44.65164" lon="5.08248">
        <ele>370.1</ele>
        <time>2024-05-17T13:39:26Z</time>
      </trkpt>
      <trkpt lat="44.65162" lon="5.0824">
        <ele>370</ele>
        <time>2024-05-17T13:39:27Z</time>
      </trkpt>
      <trkpt lat="44.6516" lon="5.08232">
        <ele>369.8</ele>
        <time>2024-05-17T13:39:28Z</time>
      </trkpt>
      <trkpt lat="44.65157" lon="5.08224">
        <ele>369.7</ele>
        <time>2024-05-17T13:39:29Z</time>
      </trkpt>
      <trkpt lat="44.65155" lon="5.08215">
        <ele>369.6</ele>
        <time>2024-05-17T13:39:30Z</time>
      </trkpt>
      <trkpt lat="44.65152" lon="5.08208">
        <ele>369.5</ele>
        <time>2024-05-17T13:39:31Z</time>
      </trkpt>
      <trkpt lat="44.65148" lon="5.08196">
        <ele>369.3</ele>
        <time>2024-05-17T13:39:32Z</time>
      </trkpt>
      <trkpt lat="44.65147" lon="5.08192">
        <ele>369.2</ele>
        <time>2024-05-17T13:39:33Z</time>
      </trkpt>
      <trkpt lat="44.65144" lon="5.08185">
        <ele>369.1</ele>
        <time>2024-05-17T13:39:34Z</time>
      </trkpt>
      <trkpt lat="44.65142" lon="5.08177">
        <ele>369.1</ele>
        <time>2024-05-17T13:39:35Z</time>
      </trkpt>
      <trkpt lat="44.65139" lon="5.0817">
        <ele>369</ele>
        <time>2024-05-17T13:39:36Z</time>
      </trkpt>
      <trkpt lat="44.65137" lon="5.08163">
        <ele>368.9</ele>
        <time>2024-05-17T13:39:37Z</time>
      </trkpt>
      <trkpt lat="44.65135" lon="5.08156">
        <ele>368.8</ele>
        <time>2024-05-17T13:39:38Z</time>
      </trkpt>
      <trkpt lat="44.65132" lon="5.08149">
        <ele>368.7</ele>
        <time>2024-05-17T13:39:39Z</time>
      </trkpt>
      <trkpt lat="44.65129" lon="5.08142">
        <ele>368.6</ele>
        <time>2024-05-17T13:39:40Z</time>
      </trkpt>
      <trkpt lat="44.65127" lon="5.08135">
        <ele>368.5</ele>
        <time>2024-05-17T13:39:41Z</time>
      </trkpt>
      <trkpt lat="44.65125" lon="5.08129">
        <ele>368.4</ele>
        <time>2024-05-17T13:39:42Z</time>
      </trkpt>
      <trkpt lat="44.65122" lon="5.08122">
        <ele>368.3</ele>
        <time>2024-05-17T13:39:43Z</time>
      </trkpt>
      <trkpt lat="44.6512" lon="5.08116">
        <ele>368.2</ele>
        <time>2024-05-17T13:39:44Z</time>
      </trkpt>
      <trkpt lat="44.65118" lon="5.0811">
        <ele>368.1</ele>
        <time>2024-05-17T13:39:45Z</time>
      </trkpt>
      <trkpt lat="44.65116" lon="5.08104">
        <ele>368</ele>
        <time>2024-05-17T13:39:46Z</time>
      </trkpt>
      <trkpt lat="44.65114" lon="5.08097">
        <ele>367.9</ele>
        <time>2024-05-17T13:39:47Z</time>
      </trkpt>
      <trkpt lat="44.65111" lon="5.08087">
        <ele>367.7</ele>
        <time>2024-05-17T13:39:48Z</time>
      </trkpt>
      <trkpt lat="44.6511" lon="5.08084">
        <ele>367.6</ele>
        <time>2024-05-17T13:39:49Z</time>
      </trkpt>
      <trkpt lat="44.65107" lon="5.08074">
        <ele>367.4</ele>
        <time>2024-05-17T13:39:50Z</time>
      </trkpt>
      <trkpt lat="44.65106" lon="5.08071">
        <ele>367.4</ele>
        <time>2024-05-17T13:39:51Z</time>
      </trkpt>
      <trkpt lat="44.65102" lon="5.08061">
        <ele>367.2</ele>
        <time>2024-05-17T13:39:52Z</time>
      </trkpt>
      <trkpt lat="44.651" lon="5.08058">
        <ele>367.1</ele>
        <time>2024-05-17T13:39:53Z</time>
      </trkpt>
      <trkpt lat="44.65097" lon="5.08051">
        <ele>367</ele>
        <time>2024-05-17T13:39:54Z</time>
      </trkpt>
      <trkpt lat="44.65093" lon="5.08041">
        <ele>366.8</ele>
        <time>2024-05-17T13:39:55Z</time>
      </trkpt>
      <trkpt lat="44.65091" lon="5.08038">
        <ele>366.7</ele>
        <time>2024-05-17T13:39:56Z</time>
      </trkpt>
      <trkpt lat="44.65088" lon="5.08031">
        <ele>366.6</ele>
        <time>2024-05-17T13:39:57Z</time>
      </trkpt>
      <trkpt lat="44.65085" lon="5.08024">
        <ele>366.5</ele>
        <time>2024-05-17T13:39:58Z</time>
      </trkpt>
      <trkpt lat="44.6508" lon="5.08013">
        <ele>366.3</ele>
        <time>2024-05-17T13:39:59Z</time>
      </trkpt>
      <trkpt lat="44.65078" lon="5.0801">
        <ele>366.2</ele>
        <time>2024-05-17T13:40:00Z</time>
      </trkpt>
      <trkpt lat="44.65073" lon="5.07999">
        <ele>366</ele>
        <time>2024-05-17T13:40:01Z</time>
      </trkpt>
      <trkpt lat="44.65072" lon="5.07996">
        <ele>366</ele>
        <time>2024-05-17T13:40:02Z</time>
      </trkpt>
      <trkpt lat="44.65067" lon="5.07986">
        <ele>365.8</ele>
        <time>2024-05-17T13:40:03Z</time>
      </trkpt>
      <trkpt lat="44.65065" lon="5.07983">
        <ele>365.7</ele>
        <time>2024-05-17T13:40:04Z</time>
      </trkpt>
      <trkpt lat="44.65061" lon="5.07974">
        <ele>365.6</ele>
        <time>2024-05-17T13:40:05Z</time>
      </trkpt>
      <trkpt lat="44.6506" lon="5.07972">
        <ele>365.6</ele>
        <time>2024-05-17T13:40:06Z</time>
      </trkpt>
      <trkpt lat="44.65057" lon="5.07968">
        <ele>365.5</ele>
        <time>2024-05-17T13:40:07Z</time>
      </trkpt>
      <trkpt lat="44.65055" lon="5.07965">
        <ele>365.5</ele>
        <time>2024-05-17T13:40:08Z</time>
      </trkpt>
      <trkpt lat="44.65053" lon="5.07964">
        <ele>365.4</ele>
        <time>2024-05-17T13:40:09Z</time>
      </trkpt>
      <trkpt lat="44.65052" lon="5.07962">
        <ele>365.4</ele>
        <time>2024-05-17T13:40:10Z</time>
      </trkpt>
      <trkpt lat="44.65051" lon="5.0796">
        <ele>365.4</ele>
        <time>2024-05-17T13:40:11Z</time>
      </trkpt>
      <trkpt lat="44.6505" lon="5.07957">
        <ele>365.3</ele>
        <time>2024-05-17T13:40:12Z</time>
      </trkpt>
      <trkpt lat="44.65048" lon="5.07954">
        <ele>365.3</ele>
        <time>2024-05-17T13:40:13Z</time>
      </trkpt>
      <trkpt lat="44.65046" lon="5.0795">
        <ele>365.2</ele>
        <time>2024-05-17T13:40:14Z</time>
      </trkpt>
      <trkpt lat="44.65046" lon="5.07949">
        <ele>365.2</ele>
        <time>2024-05-17T13:40:15Z</time>
      </trkpt>
      <trkpt lat="44.65044" lon="5.07946">
        <ele>365.1</ele>
        <time>2024-05-17T13:40:16Z</time>
      </trkpt>
      <trkpt lat="44.65043" lon="5.07943">
        <ele>365.1</ele>
        <time>2024-05-17T13:40:17Z</time>
      </trkpt>
      <trkpt lat="44.65041" lon="5.07941">
        <ele>365.1</ele>
        <time>2024-05-17T13:40:18Z</time>
      </trkpt>
      <trkpt lat="44.6504" lon="5.07939">
        <ele>365</ele>
        <time>2024-05-17T13:40:19Z</time>
      </trkpt>
      <trkpt lat="44.6504" lon="5.07939">
        <ele>365</ele>
        <time>2024-05-17T13:40:20Z</time>
      </trkpt>
      <trkpt lat="44.6504" lon="5.07939">
        <ele>365</ele>
        <time>2024-05-17T13:40:21Z</time>
      </trkpt>
      <trkpt lat="44.6504" lon="5.07939">
        <ele>365</ele>
        <time>2024-05-17T13:40:22Z</time>
      </trkpt>
      <trkpt lat="44.65038" lon="5.07931">
        <ele>364.9</ele>
        <time>2024-05-17T13:40:37Z</time>
      </trkpt>
      <trkpt lat="44.65037" lon="5.07928">
        <ele>364.8</ele>
        <time>2024-05-17T13:40:38Z</time>
      </trkpt>
      <trkpt lat="44.65035" lon="5.07926">
        <ele>364.8</ele>
        <time>2024-05-17T13:40:39Z</time>
      </trkpt>
      <trkpt lat="44.65033" lon="5.07923">
        <ele>364.7</ele>
        <time>2024-05-17T13:40:40Z</time>
      </trkpt>
      <trkpt lat="44.65032" lon="5.07919">
        <ele>364.7</ele>
        <time>2024-05-17T13:40:41Z</time>
      </trkpt>
      <trkpt lat="44.65029" lon="5.07914">
        <ele>364.6</ele>
        <time>2024-05-17T13:40:42Z</time>
      </trkpt>
      <trkpt lat="44.65028" lon="5.07913">
        <ele>364.6</ele>
        <time>2024-05-17T13:40:43Z</time>
      </trkpt>
      <trkpt lat="44.65026" lon="5.07908">
        <ele>364.5</ele>
        <time>2024-05-17T13:40:44Z</time>
      </trkpt>
      <trkpt lat="44.65025" lon="5.07906">
        <ele>364.4</ele>
        <time>2024-05-17T13:40:45Z</time>
      </trkpt>
      <trkpt lat="44.65023" lon="5.07903">
        <ele>364.4</ele>
        <time>2024-05-17T13:40:46Z</time>
      </trkpt>
      <trkpt lat="44.65021" lon="5.079">
        <ele>364.3</ele>
        <time>2024-05-17T13:40:47Z</time>
      </trkpt>
      <trkpt lat="44.65019" lon="5.07896">
        <ele>364.2</ele>
        <time>2024-05-17T13:40:48Z</time>
      </trkpt>
      <trkpt lat="44.65017" lon="5.07892">
        <ele>364.2</ele>
        <time>2024-05-17T13:40:49Z</time>
      </trkpt>
      <trkpt lat="44.65016" lon="5.0789">
        <ele>364.1</ele>
        <time>2024-05-17T13:40:50Z</time>
      </trkpt>
      <trkpt lat="44.65014" lon="5.07885">
        <ele>364</ele>
        <time>2024-05-17T13:40:51Z</time>
      </trkpt>
      <trkpt lat="44.65013" lon="5.07884">
        <ele>364</ele>
        <time>2024-05-17T13:40:52Z</time>
      </trkpt>
      <trkpt lat="44.6501" lon="5.07879">
        <ele>363.9</ele>
        <time>2024-05-17T13:40:53Z</time>
      </trkpt>
      <trkpt lat="44.65009" lon="5.07877">
        <ele>363.9</ele>
        <time>2024-05-17T13:40:54Z</time>
      </trkpt>
      <trkpt lat="44.65007" lon="5.07873">
        <ele>363.8</ele>
        <time>2024-05-17T13:40:55Z</time>
      </trkpt>
      <trkpt lat="44.65006" lon="5.07871">
        <ele>363.8</ele>
        <time>2024-05-17T13:40:56Z</time>
      </trkpt>
      <trkpt lat="44.65004" lon="5.07866">
        <ele>363.7</ele>
        <time>2024-05-17T13:40:57Z</time>
      </trkpt>
      <trkpt lat="44.65004" lon="5.07864">
        <ele>363.7</ele>
        <time>2024-05-17T13:40:58Z</time>
      </trkpt>
      <trkpt lat="44.65002" lon="5.07859">
        <ele>363.6</ele>
        <time>2024-05-17T13:40:59Z</time>
      </trkpt>
      <trkpt lat="44.65001" lon="5.07857">
        <ele>363.6</ele>
        <time>2024-05-17T13:41:00Z</time>
      </trkpt>
      <trkpt lat="44.64999" lon="5.07854">
        <ele>363.5</ele>
        <time>2024-05-17T13:41:01Z</time>
      </trkpt>
      <trkpt lat="44.64998" lon="5.07851">
        <ele>363.5</ele>
        <time>2024-05-17T13:41:02Z</time>
      </trkpt>
      <trkpt lat="44.64997" lon="5.07848">
        <ele>363.4</ele>
        <time>2024-05-17T13:41:03Z</time>
      </trkpt>
      <trkpt lat="44.64996" lon="5.07845">
        <ele>363.4</ele>
        <time>2024-05-17T13:41:04Z</time>
      </trkpt>
      <trkpt lat="44.64994" lon="5.07842">
        <ele>363.3</ele>
        <time>2024-05-17T13:41:05Z</time>
      </trkpt>
      <trkpt lat="44.64994" lon="5.07841">
        <ele>363.3</ele>
        <time>2024-05-17T13:41:06Z</time>
      </trkpt>
      <trkpt lat="44.64993" lon="5.0784">
        <ele>363.3</ele>
        <time>2024-05-17T13:41:07Z</time>
      </trkpt>
      <trkpt lat="44.64993" lon="5.0784">
        <ele>363.3</ele>
        <time>2024-05-17T13:41:08Z</time>
      </trkpt>
      <trkpt lat="44.64993" lon="5.0784">
        <ele>363.3</ele>
        <time>2024-05-17T13:41:09Z</time>
      </trkpt>
      <trkpt lat="44.64991" lon="5.0784">
        <ele>363.3</ele>
        <time>2024-05-17T13:41:12Z</time>
      </trkpt>
      <trkpt lat="44.64991" lon="5.0784">
        <ele>363.3</ele>
        <time>2024-05-17T13:41:13Z</time>
      </trkpt>
      <trkpt lat="44.64991" lon="5.0784">
        <ele>363.3</ele>
        <time>2024-05-17T13:41:14Z</time>
      </trkpt>
      <trkpt lat="44.64991" lon="5.0784">
        <ele>363.3</ele>
        <time>2024-05-17T13:41:15Z</time>
      </trkpt>
      <trkpt lat="44.64992" lon="5.07833">
        <ele>363.2</ele>
        <time>2024-05-17T13:46:34Z</time>
      </trkpt>
      <trkpt lat="44.64992" lon="5.0783">
        <ele>363.2</ele>
        <time>2024-05-17T13:46:35Z</time>
      </trkpt>
      <trkpt lat="44.64991" lon="5.07826">
        <ele>363.2</ele>
        <time>2024-05-17T13:46:36Z</time>
      </trkpt>
      <trkpt lat="44.6499" lon="5.07823">
        <ele>363.1</ele>
        <time>2024-05-17T13:46:37Z</time>
      </trkpt>
      <trkpt lat="44.6499" lon="5.07818">
        <ele>363.1</ele>
        <time>2024-05-17T13:46:38Z</time>
      </trkpt>
      <trkpt lat="44.64988" lon="5.07811">
        <ele>363</ele>
        <time>2024-05-17T13:46:39Z</time>
      </trkpt>
      <trkpt lat="44.64988" lon="5.07809">
        <ele>363</ele>
        <time>2024-05-17T13:46:40Z</time>
      </trkpt>
      <trkpt lat="44.64986" lon="5.07801">
        <ele>362.9</ele>
        <time>2024-05-17T13:46:41Z</time>
      </trkpt>
      <trkpt lat="44.64986" lon="5.07798">
        <ele>362.9</ele>
        <time>2024-05-17T13:46:42Z</time>
      </trkpt>
      <trkpt lat="44.64984" lon="5.07789">
        <ele>362.8</ele>
        <time>2024-05-17T13:46:43Z</time>
      </trkpt>
      <trkpt lat="44.64984" lon="5.07786">
        <ele>362.8</ele>
        <time>2024-05-17T13:46:44Z</time>
      </trkpt>
      <trkpt lat="44.64982" lon="5.07777">
        <ele>362.6</ele>
        <time>2024-05-17T13:46:45Z</time>
      </trkpt>
      <trkpt lat="44.64981" lon="5.07774">
        <ele>362.6</ele>
        <time>2024-05-17T13:46:46Z</time>
      </trkpt>
      <trkpt lat="44.64981" lon="5.07764">
        <ele>362.5</ele>
        <time>2024-05-17T13:46:47Z</time>
      </trkpt>
      <trkpt lat="44.64981" lon="5.07761">
        <ele>362.4</ele>
        <time>2024-05-17T13:46:48Z</time>
      </trkpt>
      <trkpt lat="44.64981" lon="5.07755">
        <ele>362.3</ele>
        <time>2024-05-17T13:46:49Z</time>
      </trkpt>
      <trkpt lat="44.6498" lon="5.07744">
        <ele>362.1</ele>
        <time>2024-05-17T13:46:50Z</time>
      </trkpt>
      <trkpt lat="44.6498" lon="5.07741">
        <ele>362</ele>
        <time>2024-05-17T13:46:51Z</time>
      </trkpt>
      <trkpt lat="44.64979" lon="5.0773">
        <ele>361.8</ele>
        <time>2024-05-17T13:46:52Z</time>
      </trkpt>
      <trkpt lat="44.64979" lon="5.07726">
        <ele>361.7</ele>
        <time>2024-05-17T13:46:53Z</time>
      </trkpt>
      <trkpt lat="44.64979" lon="5.07718">
        <ele>361.6</ele>
        <time>2024-05-17T13:46:54Z</time>
      </trkpt>
      <trkpt lat="44.64978" lon="5.0771">
        <ele>361.4</ele>
        <time>2024-05-17T13:46:55Z</time>
      </trkpt>
      <trkpt lat="44.64977" lon="5.07702">
        <ele>361.2</ele>
        <time>2024-05-17T13:46:56Z</time>
      </trkpt>
      <trkpt lat="44.64976" lon="5.07694">
        <ele>361.1</ele>
        <time>2024-05-17T13:46:57Z</time>
      </trkpt>
      <trkpt lat="44.64975" lon="5.07683">
        <ele>360.8</ele>
        <time>2024-05-17T13:46:58Z</time>
      </trkpt>
      <trkpt lat="44.64974" lon="5.07679">
        <ele>360.7</ele>
        <time>2024-05-17T13:46:59Z</time>
      </trkpt>
      <trkpt lat="44.64972" lon="5.07667">
        <ele>360.4</ele>
        <time>2024-05-17T13:47:00Z</time>
      </trkpt>
      <trkpt lat="44.64972" lon="5.07663">
        <ele>360.3</ele>
        <time>2024-05-17T13:47:01Z</time>
      </trkpt>
      <trkpt lat="44.64971" lon="5.07655">
        <ele>360.1</ele>
        <time>2024-05-17T13:47:02Z</time>
      </trkpt>
      <trkpt lat="44.6497" lon="5.07647">
        <ele>359.8</ele>
        <time>2024-05-17T13:47:03Z</time>
      </trkpt>
      <trkpt lat="44.64969" lon="5.07639">
        <ele>359.6</ele>
        <time>2024-05-17T13:47:04Z</time>
      </trkpt>
      <trkpt lat="44.64967" lon="5.07631">
        <ele>359.4</ele>
        <time>2024-05-17T13:47:05Z</time>
      </trkpt>
      <trkpt lat="44.64966" lon="5.07623">
        <ele>359.1</ele>
        <time>2024-05-17T13:47:06Z</time>
      </trkpt>
      <trkpt lat="44.64964" lon="5.07614">
        <ele>358.9</ele>
        <time>2024-05-17T13:47:07Z</time>
      </trkpt>
      <trkpt lat="44.64963" lon="5.07606">
        <ele>358.6</ele>
        <time>2024-05-17T13:47:08Z</time>
      </trkpt>
      <trkpt lat="44.64962" lon="5.07598">
        <ele>358.3</ele>
        <time>2024-05-17T13:47:09Z</time>
      </trkpt>
      <trkpt lat="44.6496" lon="5.0759">
        <ele>358</ele>
        <time>2024-05-17T13:47:10Z</time>
      </trkpt>
      <trkpt lat="44.64959" lon="5.07582">
        <ele>357.7</ele>
        <time>2024-05-17T13:47:11Z</time>
      </trkpt>
      <trkpt lat="44.64958" lon="5.07573">
        <ele>357.4</ele>
        <time>2024-05-17T13:47:12Z</time>
      </trkpt>
      <trkpt lat="44.64957" lon="5.07565">
        <ele>357.1</ele>
        <time>2024-05-17T13:47:13Z</time>
      </trkpt>
      <trkpt lat="44.64955" lon="5.07552">
        <ele>356.7</ele>
        <time>2024-05-17T13:47:14Z</time>
      </trkpt>
      <trkpt lat="44.64954" lon="5.07548">
        <ele>356.5</ele>
        <time>2024-05-17T13:47:15Z</time>
      </trkpt>
      <trkpt lat="44.64952" lon="5.07535">
        <ele>356.1</ele>
        <time>2024-05-17T13:47:16Z</time>
      </trkpt>
      <trkpt lat="44.64951" lon="5.07531">
        <ele>355.9</ele>
        <time>2024-05-17T13:47:17Z</time>
      </trkpt>
      <trkpt lat="44.64949" lon="5.07517">
        <ele>355.4</ele>
        <time>2024-05-17T13:47:18Z</time>
      </trkpt>
      <trkpt lat="44.64948" lon="5.07512">
        <ele>355.2</ele>
        <time>2024-05-17T13:47:19Z</time>
      </trkpt>
      <trkpt lat="44.64946" lon="5.07499">
        <ele>354.6</ele>
        <time>2024-05-17T13:47:20Z</time>
      </trkpt>
      <trkpt lat="44.64945" lon="5.07494">
        <ele>354.4</ele>
        <time>2024-05-17T13:47:21Z</time>
      </trkpt>
      <trkpt lat="44.64944" lon="5.07485">
        <ele>354.1</ele>
        <time>2024-05-17T13:47:22Z</time>
      </trkpt>
      <trkpt lat="44.64942" lon="5.07472">
        <ele>353.6</ele>
        <time>2024-05-17T13:47:23Z</time>
      </trkpt>
      <trkpt lat="44.64941" lon="5.07467">
        <ele>353.4</ele>
        <time>2024-05-17T13:47:24Z</time>
      </trkpt>
      <trkpt lat="44.64939" lon="5.07454">
        <ele>352.9</ele>
        <time>2024-05-17T13:47:25Z</time>
      </trkpt>
      <trkpt lat="44.64938" lon="5.07449">
        <ele>352.7</ele>
        <time>2024-05-17T13:47:26Z</time>
      </trkpt>
      <trkpt lat="44.64936" lon="5.07434">
        <ele>352.1</ele>
        <time>2024-05-17T13:47:27Z</time>
      </trkpt>
      <trkpt lat="44.64935" lon="5.07429">
        <ele>352</ele>
        <time>2024-05-17T13:47:28Z</time>
      </trkpt>
      <trkpt lat="44.64933" lon="5.07414">
        <ele>351.4</ele>
        <time>2024-05-17T13:47:29Z</time>
      </trkpt>
      <trkpt lat="44.64932" lon="5.07409">
        <ele>351.3</ele>
        <time>2024-05-17T13:47:30Z</time>
      </trkpt>
      <trkpt lat="44.64929" lon="5.07393">
        <ele>350.8</ele>
        <time>2024-05-17T13:47:31Z</time>
      </trkpt>
      <trkpt lat="44.64928" lon="5.07387">
        <ele>350.6</ele>
        <time>2024-05-17T13:47:32Z</time>
      </trkpt>
      <trkpt lat="44.64926" lon="5.07371">
        <ele>350.1</ele>
        <time>2024-05-17T13:47:33Z</time>
      </trkpt>
      <trkpt lat="44.64925" lon="5.07366">
        <ele>350</ele>
        <time>2024-05-17T13:47:34Z</time>
      </trkpt>
      <trkpt lat="44.64923" lon="5.07355">
        <ele>349.8</ele>
        <time>2024-05-17T13:47:35Z</time>
      </trkpt>
      <trkpt lat="44.64919" lon="5.0734">
        <ele>349.5</ele>
        <time>2024-05-17T13:47:36Z</time>
      </trkpt>
      <trkpt lat="44.64918" lon="5.07335">
        <ele>349.4</ele>
        <time>2024-05-17T13:47:37Z</time>
      </trkpt>
      <trkpt lat="44.64914" lon="5.07326">
        <ele>349.3</ele>
        <time>2024-05-17T13:47:38Z</time>
      </trkpt>
      <trkpt lat="44.6491" lon="5.07316">
        <ele>349.1</ele>
        <time>2024-05-17T13:47:39Z</time>
      </trkpt>
      <trkpt lat="44.64906" lon="5.07308">
        <ele>349</ele>
        <time>2024-05-17T13:47:40Z</time>
      </trkpt>
      <trkpt lat="44.64902" lon="5.07299">
        <ele>348.9</ele>
        <time>2024-05-17T13:47:41Z</time>
      </trkpt>
      <trkpt lat="44.64895" lon="5.07286">
        <ele>348.7</ele>
        <time>2024-05-17T13:47:42Z</time>
      </trkpt>
      <trkpt lat="44.64893" lon="5.07282">
        <ele>348.6</ele>
        <time>2024-05-17T13:47:43Z</time>
      </trkpt>
      <trkpt lat="44.64887" lon="5.0727">
        <ele>348.5</ele>
        <time>2024-05-17T13:47:44Z</time>
      </trkpt>
      <trkpt lat="44.64885" lon="5.07266">
        <ele>348.5</ele>
        <time>2024-05-17T13:47:45Z</time>
      </trkpt>
      <trkpt lat="44.64882" lon="5.07258">
        <ele>348.4</ele>
        <time>2024-05-17T13:47:46Z</time>
      </trkpt>
      <trkpt lat="44.64877" lon="5.07251">
        <ele>348.3</ele>
        <time>2024-05-17T13:47:47Z</time>
      </trkpt>
      <trkpt lat="44.64874" lon="5.07244">
        <ele>348.3</ele>
        <time>2024-05-17T13:47:48Z</time>
      </trkpt>
      <trkpt lat="44.6487" lon="5.07237">
        <ele>348.2</ele>
        <time>2024-05-17T13:47:49Z</time>
      </trkpt>
      <trkpt lat="44.64866" lon="5.0723">
        <ele>348.2</ele>
        <time>2024-05-17T13:47:50Z</time>
      </trkpt>
      <trkpt lat="44.64863" lon="5.07223">
        <ele>348.1</ele>
        <time>2024-05-17T13:47:51Z</time>
      </trkpt>
      <trkpt lat="44.64859" lon="5.07216">
        <ele>348.1</ele>
        <time>2024-05-17T13:47:52Z</time>
      </trkpt>
      <trkpt lat="44.64856" lon="5.07209">
        <ele>348</ele>
        <time>2024-05-17T13:47:53Z</time>
      </trkpt>
      <trkpt lat="44.64852" lon="5.07203">
        <ele>348</ele>
        <time>2024-05-17T13:47:54Z</time>
      </trkpt>
      <trkpt lat="44.64849" lon="5.07196">
        <ele>347.9</ele>
        <time>2024-05-17T13:47:55Z</time>
      </trkpt>
      <trkpt lat="44.64845" lon="5.0719">
        <ele>347.9</ele>
        <time>2024-05-17T13:47:56Z</time>
      </trkpt>
      <trkpt lat="44.64842" lon="5.07184">
        <ele>347.8</ele>
        <time>2024-05-17T13:47:57Z</time>
      </trkpt>
      <trkpt lat="44.64839" lon="5.07177">
        <ele>347.8</ele>
        <time>2024-05-17T13:47:58Z</time>
      </trkpt>
      <trkpt lat="44.64836" lon="5.0717">
        <ele>347.7</ele>
        <time>2024-05-17T13:47:59Z</time>
      </trkpt>
      <trkpt lat="44.64832" lon="5.0716">
        <ele>347.6</ele>
        <time>2024-05-17T13:48:00Z</time>
      </trkpt>
      <trkpt lat="44.64831" lon="5.07156">
        <ele>347.5</ele>
        <time>2024-05-17T13:48:01Z</time>
      </trkpt>
      <trkpt lat="44.64827" lon="5.07145">
        <ele>347.4</ele>
        <time>2024-05-17T13:48:02Z</time>
      </trkpt>
      <trkpt lat="44.64826" lon="5.07141">
        <ele>347.3</ele>
        <time>2024-05-17T13:48:03Z</time>
      </trkpt>
      <trkpt lat="44.64823" lon="5.0713">
        <ele>347.1</ele>
        <time>2024-05-17T13:48:04Z</time>
      </trkpt>
      <trkpt lat="44.64822" lon="5.07126">
        <ele>347.1</ele>
        <time>2024-05-17T13:48:05Z</time>
      </trkpt>
      <trkpt lat="44.64819" lon="5.07114">
        <ele>346.9</ele>
        <time>2024-05-17T13:48:06Z</time>
      </trkpt>
      <trkpt lat="44.64818" lon="5.0711">
        <ele>346.8</ele>
        <time>2024-05-17T13:48:07Z</time>
      </trkpt>
      <trkpt lat="44.64815" lon="5.07099">
        <ele>346.7</ele>
        <time>2024-05-17T13:48:08Z</time>
      </trkpt>
      <trkpt lat="44.64815" lon="5.07095">
        <ele>346.6</ele>
        <time>2024-05-17T13:48:09Z</time>
      </trkpt>
      <trkpt lat="44.64812" lon="5.07084">
        <ele>346.5</ele>
        <time>2024-05-17T13:48:10Z</time>
      </trkpt>
      <trkpt lat="44.64811" lon="5.0708">
        <ele>346.4</ele>
        <time>2024-05-17T13:48:11Z</time>
      </trkpt>
      <trkpt lat="44.6481" lon="5.07073">
        <ele>346.3</ele>
        <time>2024-05-17T13:48:12Z</time>
      </trkpt>
      <trkpt lat="44.64808" lon="5.07061">
        <ele>346.2</ele>
        <time>2024-05-17T13:48:13Z</time>
      </trkpt>
      <trkpt lat="44.64807" lon="5.07057">
        <ele>346.1</ele>
        <time>2024-05-17T13:48:14Z</time>
      </trkpt>
      <trkpt lat="44.64805" lon="5.07045">
        <ele>345.9</ele>
        <time>2024-05-17T13:48:15Z</time>
      </trkpt>
      <trkpt lat="44.64804" lon="5.07041">
        <ele>345.9</ele>
        <time>2024-05-17T13:48:16Z</time>
      </trkpt>
      <trkpt lat="44.64802" lon="5.07029">
        <ele>345.7</ele>
        <time>2024-05-17T13:48:17Z</time>
      </trkpt>
      <trkpt lat="44.64801" lon="5.07025">
        <ele>345.6</ele>
        <time>2024-05-17T13:48:18Z</time>
      </trkpt>
      <trkpt lat="44.64799" lon="5.07013">
        <ele>345.4</ele>
        <time>2024-05-17T13:48:19Z</time>
      </trkpt>
      <trkpt lat="44.64798" lon="5.07009">
        <ele>345.3</ele>
        <time>2024-05-17T13:48:20Z</time>
      </trkpt>
      <trkpt lat="44.64797" lon="5.07">
        <ele>345.1</ele>
        <time>2024-05-17T13:48:21Z</time>
      </trkpt>
      <trkpt lat="44.64796" lon="5.06991">
        <ele>345</ele>
        <time>2024-05-17T13:48:22Z</time>
      </trkpt>
      <trkpt lat="44.64795" lon="5.06982">
        <ele>344.8</ele>
        <time>2024-05-17T13:48:23Z</time>
      </trkpt>
      <trkpt lat="44.64794" lon="5.06973">
        <ele>344.7</ele>
        <time>2024-05-17T13:48:24Z</time>
      </trkpt>
      <trkpt lat="44.64794" lon="5.0696">
        <ele>344.5</ele>
        <time>2024-05-17T13:48:25Z</time>
      </trkpt>
      <trkpt lat="44.64794" lon="5.06955">
        <ele>344.4</ele>
        <time>2024-05-17T13:48:26Z</time>
      </trkpt>
      <trkpt lat="44.64794" lon="5.06946">
        <ele>344.2</ele>
        <time>2024-05-17T13:48:27Z</time>
      </trkpt>
      <trkpt lat="44.64794" lon="5.06937">
        <ele>344.1</ele>
        <time>2024-05-17T13:48:28Z</time>
      </trkpt>
      <trkpt lat="44.64794" lon="5.06924">
        <ele>344</ele>
        <time>2024-05-17T13:48:29Z</time>
      </trkpt>
      <trkpt lat="44.64794" lon="5.06919">
        <ele>344</ele>
        <time>2024-05-17T13:48:30Z</time>
      </trkpt>
      <trkpt lat="44.64794" lon="5.0691">
        <ele>343.8</ele>
        <time>2024-05-17T13:48:31Z</time>
      </trkpt>
      <trkpt lat="44.64794" lon="5.06901">
        <ele>343.7</ele>
        <time>2024-05-17T13:48:32Z</time>
      </trkpt>
      <trkpt lat="44.64794" lon="5.06892">
        <ele>343.5</ele>
        <time>2024-05-17T13:48:33Z</time>
      </trkpt>
      <trkpt lat="44.64793" lon="5.06883">
        <ele>343.4</ele>
        <time>2024-05-17T13:48:34Z</time>
      </trkpt>
      <trkpt lat="44.64793" lon="5.06875">
        <ele>343.3</ele>
        <time>2024-05-17T13:48:35Z</time>
      </trkpt>
      <trkpt lat="44.64793" lon="5.06866">
        <ele>343.2</ele>
        <time>2024-05-17T13:48:36Z</time>
      </trkpt>
      <trkpt lat="44.64792" lon="5.06857">
        <ele>343.1</ele>
        <time>2024-05-17T13:48:37Z</time>
      </trkpt>
      <trkpt lat="44.64791" lon="5.06848">
        <ele>343</ele>
        <time>2024-05-17T13:48:38Z</time>
      </trkpt>
      <trkpt lat="44.64791" lon="5.06839">
        <ele>342.9</ele>
        <time>2024-05-17T13:48:39Z</time>
      </trkpt>
      <trkpt lat="44.64791" lon="5.0683">
        <ele>342.8</ele>
        <time>2024-05-17T13:48:40Z</time>
      </trkpt>
      <trkpt lat="44.6479" lon="5.06818">
        <ele>342.7</ele>
        <time>2024-05-17T13:48:41Z</time>
      </trkpt>
      <trkpt lat="44.64789" lon="5.06813">
        <ele>342.6</ele>
        <time>2024-05-17T13:48:42Z</time>
      </trkpt>
      <trkpt lat="44.64788" lon="5.06801">
        <ele>342.5</ele>
        <time>2024-05-17T13:48:43Z</time>
      </trkpt>
      <trkpt lat="44.64787" lon="5.06797">
        <ele>342.5</ele>
        <time>2024-05-17T13:48:44Z</time>
      </trkpt>
      <trkpt lat="44.64785" lon="5.06785">
        <ele>342.3</ele>
        <time>2024-05-17T13:48:45Z</time>
      </trkpt>
      <trkpt lat="44.64784" lon="5.06781">
        <ele>342.2</ele>
        <time>2024-05-17T13:48:46Z</time>
      </trkpt>
      <trkpt lat="44.64783" lon="5.06773">
        <ele>342.1</ele>
        <time>2024-05-17T13:48:47Z</time>
      </trkpt>
      <trkpt lat="44.64781" lon="5.06765">
        <ele>341.9</ele>
        <time>2024-05-17T13:48:48Z</time>
      </trkpt>
      <trkpt lat="44.64779" lon="5.06752">
        <ele>341.7</ele>
        <time>2024-05-17T13:48:49Z</time>
      </trkpt>
      <trkpt lat="44.64778" lon="5.06748">
        <ele>341.6</ele>
        <time>2024-05-17T13:48:50Z</time>
      </trkpt>
      <trkpt lat="44.64775" lon="5.06736">
        <ele>341.3</ele>
        <time>2024-05-17T13:48:51Z</time>
      </trkpt>
      <trkpt lat="44.64774" lon="5.06732">
        <ele>341.2</ele>
        <time>2024-05-17T13:48:52Z</time>
      </trkpt>
      <trkpt lat="44.64771" lon="5.06719">
        <ele>340.8</ele>
        <time>2024-05-17T13:48:53Z</time>
      </trkpt>
      <trkpt lat="44.6477" lon="5.06715">
        <ele>340.6</ele>
        <time>2024-05-17T13:48:54Z</time>
      </trkpt>
      <trkpt lat="44.64767" lon="5.06701">
        <ele>340.2</ele>
        <time>2024-05-17T13:48:55Z</time>
      </trkpt>
      <trkpt lat="44.64766" lon="5.06697">
        <ele>340</ele>
        <time>2024-05-17T13:48:56Z</time>
      </trkpt>
      <trkpt lat="44.64762" lon="5.06683">
        <ele>339.5</ele>
        <time>2024-05-17T13:48:57Z</time>
      </trkpt>
      <trkpt lat="44.64761" lon="5.06678">
        <ele>339.4</ele>
        <time>2024-05-17T13:48:58Z</time>
      </trkpt>
      <trkpt lat="44.64757" lon="5.06663">
        <ele>338.9</ele>
        <time>2024-05-17T13:48:59Z</time>
      </trkpt>
      <trkpt lat="44.64756" lon="5.06658">
        <ele>338.7</ele>
        <time>2024-05-17T13:49:00Z</time>
      </trkpt>
      <trkpt lat="44.64754" lon="5.06648">
        <ele>338.3</ele>
        <time>2024-05-17T13:49:01Z</time>
      </trkpt>
      <trkpt lat="44.6475" lon="5.06633">
        <ele>337.9</ele>
        <time>2024-05-17T13:49:02Z</time>
      </trkpt>
      <trkpt lat="44.64749" lon="5.06628">
        <ele>337.7</ele>
        <time>2024-05-17T13:49:03Z</time>
      </trkpt>
      <trkpt lat="44.64746" lon="5.06618">
        <ele>337.4</ele>
        <time>2024-05-17T13:49:04Z</time>
      </trkpt>
      <trkpt lat="44.64743" lon="5.06608">
        <ele>337.2</ele>
        <time>2024-05-17T13:49:05Z</time>
      </trkpt>
      <trkpt lat="44.64741" lon="5.06598">
        <ele>336.9</ele>
        <time>2024-05-17T13:49:06Z</time>
      </trkpt>
      <trkpt lat="44.64738" lon="5.06588">
        <ele>336.7</ele>
        <time>2024-05-17T13:49:07Z</time>
      </trkpt>
      <trkpt lat="44.64734" lon="5.06573">
        <ele>336.3</ele>
        <time>2024-05-17T13:49:08Z</time>
      </trkpt>
      <trkpt lat="44.64733" lon="5.06568">
        <ele>336.2</ele>
        <time>2024-05-17T13:49:09Z</time>
      </trkpt>
      <trkpt lat="44.64729" lon="5.06553">
        <ele>335.8</ele>
        <time>2024-05-17T13:49:10Z</time>
      </trkpt>
      <trkpt lat="44.64728" lon="5.06549">
        <ele>335.7</ele>
        <time>2024-05-17T13:49:11Z</time>
      </trkpt>
      <trkpt lat="44.64724" lon="5.06539">
        <ele>335.4</ele>
        <time>2024-05-17T13:49:12Z</time>
      </trkpt>
      <trkpt lat="44.6472" lon="5.0653">
        <ele>335.2</ele>
        <time>2024-05-17T13:49:13Z</time>
      </trkpt>
      <trkpt lat="44.64716" lon="5.06522">
        <ele>334.9</ele>
        <time>2024-05-17T13:49:14Z</time>
      </trkpt>
      <trkpt lat="44.6471" lon="5.06514">
        <ele>334.6</ele>
        <time>2024-05-17T13:49:15Z</time>
      </trkpt>
      <trkpt lat="44.64705" lon="5.06506">
        <ele>334.4</ele>
        <time>2024-05-17T13:49:16Z</time>
      </trkpt>
      <trkpt lat="44.647" lon="5.06498">
        <ele>334.1</ele>
        <time>2024-05-17T13:49:17Z</time>
      </trkpt>
      <trkpt lat="44.64694" lon="5.0649">
        <ele>333.9</ele>
        <time>2024-05-17T13:49:18Z</time>
      </trkpt>
      <trkpt lat="44.64689" lon="5.06482">
        <ele>333.7</ele>
        <time>2024-05-17T13:49:19Z</time>
      </trkpt>
      <trkpt lat="44.64684" lon="5.06476">
        <ele>333.5</ele>
        <time>2024-05-17T13:49:20Z</time>
      </trkpt>
      <trkpt lat="44.64681" lon="5.06471">
        <ele>333.4</ele>
        <time>2024-05-17T13:49:21Z</time>
      </trkpt>
      <trkpt lat="44.64679" lon="5.06467">
        <ele>333.3</ele>
        <time>2024-05-17T13:49:22Z</time>
      </trkpt>
      <trkpt lat="44.64676" lon="5.06463">
        <ele>333.2</ele>
        <time>2024-05-17T13:49:23Z</time>
      </trkpt>
      <trkpt lat="44.64673" lon="5.06457">
        <ele>333.1</ele>
        <time>2024-05-17T13:49:24Z</time>
      </trkpt>
      <trkpt lat="44.64671" lon="5.06456">
        <ele>333</ele>
        <time>2024-05-17T13:49:25Z</time>
      </trkpt>
      <trkpt lat="44.64667" lon="5.06451">
        <ele>332.9</ele>
        <time>2024-05-17T13:49:26Z</time>
      </trkpt>
      <trkpt lat="44.64666" lon="5.06449">
        <ele>332.8</ele>
        <time>2024-05-17T13:49:27Z</time>
      </trkpt>
      <trkpt lat="44.64663" lon="5.06446">
        <ele>332.7</ele>
        <time>2024-05-17T13:49:28Z</time>
      </trkpt>
      <trkpt lat="44.6466" lon="5.06442">
        <ele>332.6</ele>
        <time>2024-05-17T13:49:29Z</time>
      </trkpt>
      <trkpt lat="44.64656" lon="5.06436">
        <ele>332.5</ele>
        <time>2024-05-17T13:49:30Z</time>
      </trkpt>
      <trkpt lat="44.64655" lon="5.06434">
        <ele>332.4</ele>
        <time>2024-05-17T13:49:31Z</time>
      </trkpt>
      <trkpt lat="44.64651" lon="5.06428">
        <ele>332.3</ele>
        <time>2024-05-17T13:49:32Z</time>
      </trkpt>
      <trkpt lat="44.6465" lon="5.06426">
        <ele>332.2</ele>
        <time>2024-05-17T13:49:33Z</time>
      </trkpt>
      <trkpt lat="44.64646" lon="5.0642">
        <ele>332.2</ele>
        <time>2024-05-17T13:49:34Z</time>
      </trkpt>
      <trkpt lat="44.64645" lon="5.06418">
        <ele>332.1</ele>
        <time>2024-05-17T13:49:35Z</time>
      </trkpt>
      <trkpt lat="44.64641" lon="5.06412">
        <ele>332.1</ele>
        <time>2024-05-17T13:49:36Z</time>
      </trkpt>
      <trkpt lat="44.64639" lon="5.0641">
        <ele>332.1</ele>
        <time>2024-05-17T13:49:37Z</time>
      </trkpt>
      <trkpt lat="44.64636" lon="5.06405">
        <ele>332</ele>
        <time>2024-05-17T13:49:38Z</time>
      </trkpt>
      <trkpt lat="44.64635" lon="5.06403">
        <ele>332</ele>
        <time>2024-05-17T13:49:39Z</time>
      </trkpt>
      <trkpt lat="44.64631" lon="5.06398">
        <ele>332</ele>
        <time>2024-05-17T13:49:40Z</time>
      </trkpt>
      <trkpt lat="44.6463" lon="5.06397">
        <ele>332</ele>
        <time>2024-05-17T13:49:41Z</time>
      </trkpt>
      <trkpt lat="44.64626" lon="5.06391">
        <ele>331.9</ele>
        <time>2024-05-17T13:49:42Z</time>
      </trkpt>
      <trkpt lat="44.64625" lon="5.0639">
        <ele>331.9</ele>
        <time>2024-05-17T13:49:43Z</time>
      </trkpt>
      <trkpt lat="44.64621" lon="5.06383">
        <ele>331.8</ele>
        <time>2024-05-17T13:49:44Z</time>
      </trkpt>
      <trkpt lat="44.6462" lon="5.06381">
        <ele>331.8</ele>
        <time>2024-05-17T13:49:45Z</time>
      </trkpt>
      <trkpt lat="44.64616" lon="5.06375">
        <ele>331.6</ele>
        <time>2024-05-17T13:49:46Z</time>
      </trkpt>
      <trkpt lat="44.64615" lon="5.06373">
        <ele>331.6</ele>
        <time>2024-05-17T13:49:47Z</time>
      </trkpt>
      <trkpt lat="44.64612" lon="5.06369">
        <ele>331.5</ele>
        <time>2024-05-17T13:49:48Z</time>
      </trkpt>
      <trkpt lat="44.64609" lon="5.06364">
        <ele>331.4</ele>
        <time>2024-05-17T13:49:49Z</time>
      </trkpt>
      <trkpt lat="44.64607" lon="5.06359">
        <ele>331.3</ele>
        <time>2024-05-17T13:49:50Z</time>
      </trkpt>
      <trkpt lat="44.64604" lon="5.06355">
        <ele>331.2</ele>
        <time>2024-05-17T13:49:51Z</time>
      </trkpt>
      <trkpt lat="44.646" lon="5.06347">
        <ele>331</ele>
        <time>2024-05-17T13:49:52Z</time>
      </trkpt>
      <trkpt lat="44.64598" lon="5.06344">
        <ele>330.9</ele>
        <time>2024-05-17T13:49:53Z</time>
      </trkpt>
      <trkpt lat="44.64596" lon="5.06334">
        <ele>330.7</ele>
        <time>2024-05-17T13:49:54Z</time>
      </trkpt>
      <trkpt lat="44.64595" lon="5.06331">
        <ele>330.6</ele>
        <time>2024-05-17T13:49:55Z</time>
      </trkpt>
      <trkpt lat="44.64594" lon="5.06323">
        <ele>330.4</ele>
        <time>2024-05-17T13:49:56Z</time>
      </trkpt>
      <trkpt lat="44.64593" lon="5.06316">
        <ele>330.3</ele>
        <time>2024-05-17T13:49:57Z</time>
      </trkpt>
      <trkpt lat="44.64592" lon="5.06309">
        <ele>330.3</ele>
        <time>2024-05-17T13:49:58Z</time>
      </trkpt>
      <trkpt lat="44.64592" lon="5.06303">
        <ele>330.2</ele>
        <time>2024-05-17T13:49:59Z</time>
      </trkpt>
      <trkpt lat="44.64591" lon="5.06297">
        <ele>330.1</ele>
        <time>2024-05-17T13:50:00Z</time>
      </trkpt>
      <trkpt lat="44.64591" lon="5.06291">
        <ele>330.1</ele>
        <time>2024-05-17T13:50:01Z</time>
      </trkpt>
      <trkpt lat="44.64591" lon="5.06286">
        <ele>330</ele>
        <time>2024-05-17T13:50:02Z</time>
      </trkpt>
      <trkpt lat="44.64589" lon="5.06281">
        <ele>330</ele>
        <time>2024-05-17T13:50:03Z</time>
      </trkpt>
      <trkpt lat="44.64587" lon="5.06276">
        <ele>329.9</ele>
        <time>2024-05-17T13:50:04Z</time>
      </trkpt>
      <trkpt lat="44.64585" lon="5.06271">
        <ele>329.9</ele>
        <time>2024-05-17T13:50:05Z</time>
      </trkpt>
      <trkpt lat="44.64583" lon="5.06266">
        <ele>329.8</ele>
        <time>2024-05-17T13:50:06Z</time>
      </trkpt>
      <trkpt lat="44.64581" lon="5.06262">
        <ele>329.7</ele>
        <time>2024-05-17T13:50:07Z</time>
      </trkpt>
      <trkpt lat="44.64577" lon="5.06255">
        <ele>329.6</ele>
        <time>2024-05-17T13:50:08Z</time>
      </trkpt>
      <trkpt lat="44.64575" lon="5.06253">
        <ele>329.6</ele>
        <time>2024-05-17T13:50:09Z</time>
      </trkpt>
      <trkpt lat="44.64572" lon="5.06246">
        <ele>329.5</ele>
        <time>2024-05-17T13:50:10Z</time>
      </trkpt>
      <trkpt lat="44.64571" lon="5.06244">
        <ele>329.4</ele>
        <time>2024-05-17T13:50:11Z</time>
      </trkpt>
      <trkpt lat="44.64569" lon="5.06237">
        <ele>329.4</ele>
        <time>2024-05-17T13:50:12Z</time>
      </trkpt>
      <trkpt lat="44.64568" lon="5.06235">
        <ele>329.3</ele>
        <time>2024-05-17T13:50:13Z</time>
      </trkpt>
      <trkpt lat="44.64567" lon="5.06227">
        <ele>329.3</ele>
        <time>2024-05-17T13:50:14Z</time>
      </trkpt>
      <trkpt lat="44.64566" lon="5.06224">
        <ele>329.2</ele>
        <time>2024-05-17T13:50:15Z</time>
      </trkpt>
      <trkpt lat="44.64565" lon="5.06214">
        <ele>329.2</ele>
        <time>2024-05-17T13:50:16Z</time>
      </trkpt>
      <trkpt lat="44.64565" lon="5.06211">
        <ele>329.2</ele>
        <time>2024-05-17T13:50:17Z</time>
      </trkpt>
      <trkpt lat="44.64567" lon="5.06204">
        <ele>329.1</ele>
        <time>2024-05-17T13:50:18Z</time>
      </trkpt>
      <trkpt lat="44.64568" lon="5.06202">
        <ele>329.1</ele>
        <time>2024-05-17T13:50:19Z</time>
      </trkpt>
      <trkpt lat="44.64571" lon="5.06196">
        <ele>329.1</ele>
        <time>2024-05-17T13:50:20Z</time>
      </trkpt>
      <trkpt lat="44.64572" lon="5.06193">
        <ele>329.1</ele>
        <time>2024-05-17T13:50:21Z</time>
      </trkpt>
      <trkpt lat="44.64575" lon="5.06186">
        <ele>329.1</ele>
        <time>2024-05-17T13:50:22Z</time>
      </trkpt>
      <trkpt lat="44.64576" lon="5.06184">
        <ele>329.1</ele>
        <time>2024-05-17T13:50:23Z</time>
      </trkpt>
      <trkpt lat="44.64578" lon="5.06177">
        <ele>329.2</ele>
        <time>2024-05-17T13:50:24Z</time>
      </trkpt>
      <trkpt lat="44.64579" lon="5.06175">
        <ele>329.2</ele>
        <time>2024-05-17T13:50:25Z</time>
      </trkpt>
      <trkpt lat="44.64581" lon="5.06168">
        <ele>329.2</ele>
        <time>2024-05-17T13:50:26Z</time>
      </trkpt>
      <trkpt lat="44.64582" lon="5.06166">
        <ele>329.2</ele>
        <time>2024-05-17T13:50:27Z</time>
      </trkpt>
      <trkpt lat="44.64585" lon="5.06159">
        <ele>329.2</ele>
        <time>2024-05-17T13:50:28Z</time>
      </trkpt>
      <trkpt lat="44.64585" lon="5.06157">
        <ele>329.3</ele>
        <time>2024-05-17T13:50:29Z</time>
      </trkpt>
      <trkpt lat="44.64587" lon="5.06152">
        <ele>329.3</ele>
        <time>2024-05-17T13:50:30Z</time>
      </trkpt>
      <trkpt lat="44.64588" lon="5.06146">
        <ele>329.3</ele>
        <time>2024-05-17T13:50:31Z</time>
      </trkpt>
      <trkpt lat="44.64589" lon="5.06139">
        <ele>329.3</ele>
        <time>2024-05-17T13:50:32Z</time>
      </trkpt>
      <trkpt lat="44.64589" lon="5.06133">
        <ele>329.3</ele>
        <time>2024-05-17T13:50:33Z</time>
      </trkpt>
      <trkpt lat="44.64588" lon="5.06124">
        <ele>329.3</ele>
        <time>2024-05-17T13:50:34Z</time>
      </trkpt>
      <trkpt lat="44.64588" lon="5.06121">
        <ele>329.3</ele>
        <time>2024-05-17T13:50:35Z</time>
      </trkpt>
      <trkpt lat="44.64587" lon="5.06112">
        <ele>329.3</ele>
        <time>2024-05-17T13:50:36Z</time>
      </trkpt>
      <trkpt lat="44.64586" lon="5.0611">
        <ele>329.3</ele>
        <time>2024-05-17T13:50:37Z</time>
      </trkpt>
      <trkpt lat="44.64585" lon="5.06104">
        <ele>329.4</ele>
        <time>2024-05-17T13:50:38Z</time>
      </trkpt>
      <trkpt lat="44.64584" lon="5.06098">
        <ele>329.4</ele>
        <time>2024-05-17T13:50:39Z</time>
      </trkpt>
      <trkpt lat="44.64582" lon="5.06092">
        <ele>329.4</ele>
        <time>2024-05-17T13:50:40Z</time>
      </trkpt>
      <trkpt lat="44.64581" lon="5.06087">
        <ele>329.4</ele>
        <time>2024-05-17T13:50:41Z</time>
      </trkpt>
      <trkpt lat="44.6458" lon="5.06082">
        <ele>329.4</ele>
        <time>2024-05-17T13:50:42Z</time>
      </trkpt>
      <trkpt lat="44.6458" lon="5.06078">
        <ele>329.4</ele>
        <time>2024-05-17T13:50:43Z</time>
      </trkpt>
      <trkpt lat="44.64581" lon="5.06076">
        <ele>329.4</ele>
        <time>2024-05-17T13:50:44Z</time>
      </trkpt>
      <trkpt lat="44.64584" lon="5.06076">
        <ele>329.4</ele>
        <time>2024-05-17T13:50:45Z</time>
      </trkpt>
      <trkpt lat="44.64586" lon="5.06076">
        <ele>329.5</ele>
        <time>2024-05-17T13:50:46Z</time>
      </trkpt>
      <trkpt lat="44.64588" lon="5.06078">
        <ele>329.5</ele>
        <time>2024-05-17T13:50:47Z</time>
      </trkpt>
      <trkpt lat="44.64591" lon="5.06078">
        <ele>329.5</ele>
        <time>2024-05-17T13:50:48Z</time>
      </trkpt>
      <trkpt lat="44.64593" lon="5.06077">
        <ele>329.5</ele>
        <time>2024-05-17T13:50:49Z</time>
      </trkpt>
      <trkpt lat="44.64595" lon="5.06076">
        <ele>329.5</ele>
        <time>2024-05-17T13:50:50Z</time>
      </trkpt>
      <trkpt lat="44.64597" lon="5.06076">
        <ele>329.6</ele>
        <time>2024-05-17T13:50:51Z</time>
      </trkpt>
      <trkpt lat="44.64599" lon="5.06075">
        <ele>329.6</ele>
        <time>2024-05-17T13:50:52Z</time>
      </trkpt>
      <trkpt lat="44.64601" lon="5.06074">
        <ele>329.6</ele>
        <time>2024-05-17T13:50:53Z</time>
      </trkpt>
      <trkpt lat="44.64604" lon="5.06073">
        <ele>329.6</ele>
        <time>2024-05-17T13:50:54Z</time>
      </trkpt>
      <trkpt lat="44.64605" lon="5.06072">
        <ele>329.6</ele>
        <time>2024-05-17T13:50:55Z</time>
      </trkpt>
      <trkpt lat="44.64607" lon="5.06071">
        <ele>329.6</ele>
        <time>2024-05-17T13:50:56Z</time>
      </trkpt>
      <trkpt lat="44.64608" lon="5.0607">
        <ele>329.6</ele>
        <time>2024-05-17T13:50:57Z</time>
      </trkpt>
      <trkpt lat="44.64607" lon="5.06071">
        <ele>329.7</ele>
        <time>2024-05-17T13:50:58Z</time>
      </trkpt>
      <trkpt lat="44.64606" lon="5.06072">
        <ele>329.7</ele>
        <time>2024-05-17T13:50:59Z</time>
      </trkpt>
      <trkpt lat="44.64604" lon="5.06073">
        <ele>329.7</ele>
        <time>2024-05-17T13:51:00Z</time>
      </trkpt>
      <trkpt lat="44.64603" lon="5.06073">
        <ele>329.7</ele>
        <time>2024-05-17T13:51:01Z</time>
      </trkpt>
      <trkpt lat="44.64601" lon="5.06074">
        <ele>329.7</ele>
        <time>2024-05-17T13:51:59Z</time>
      </trkpt>
      <trkpt lat="44.646" lon="5.06075">
        <ele>329.7</ele>
        <time>2024-05-17T13:52:00Z</time>
      </trkpt>
      <trkpt lat="44.64598" lon="5.06076">
        <ele>329.7</ele>
        <time>2024-05-17T13:52:01Z</time>
      </trkpt>
      <trkpt lat="44.64596" lon="5.06076">
        <ele>329.8</ele>
        <time>2024-05-17T13:52:02Z</time>
      </trkpt>
      <trkpt lat="44.64595" lon="5.06077">
        <ele>329.8</ele>
        <time>2024-05-17T13:52:03Z</time>
      </trkpt>
      <trkpt lat="44.64593" lon="5.06078">
        <ele>329.8</ele>
        <time>2024-05-17T13:53:01Z</time>
      </trkpt>
      <trkpt lat="44.64592" lon="5.06079">
        <ele>329.8</ele>
        <time>2024-05-17T13:53:02Z</time>
      </trkpt>
      <trkpt lat="44.6459" lon="5.06079">
        <ele>329.8</ele>
        <time>2024-05-17T13:53:03Z</time>
      </trkpt>
      <trkpt lat="44.64587" lon="5.06079">
        <ele>329.6</ele>
        <time>2024-05-17T13:53:04Z</time>
      </trkpt>
      <trkpt lat="44.64584" lon="5.06077">
        <ele>329.5</ele>
        <time>2024-05-17T13:53:05Z</time>
      </trkpt>
      <trkpt lat="44.64581" lon="5.06074">
        <ele>329.4</ele>
        <time>2024-05-17T13:53:06Z</time>
      </trkpt>
      <trkpt lat="44.64579" lon="5.0607">
        <ele>329.3</ele>
        <time>2024-05-17T13:53:07Z</time>
      </trkpt>
      <trkpt lat="44.64578" lon="5.06065">
        <ele>329.3</ele>
        <time>2024-05-17T13:53:08Z</time>
      </trkpt>
      <trkpt lat="44.64577" lon="5.0606">
        <ele>329.3</ele>
        <time>2024-05-17T13:53:09Z</time>
      </trkpt>
      <trkpt lat="44.64576" lon="5.06055">
        <ele>329.3</ele>
        <time>2024-05-17T13:53:10Z</time>
      </trkpt>
      <trkpt lat="44.64575" lon="5.0605">
        <ele>329.3</ele>
        <time>2024-05-17T13:53:11Z</time>
      </trkpt>
      <trkpt lat="44.64574" lon="5.06044">
        <ele>329.3</ele>
        <time>2024-05-17T13:53:12Z</time>
      </trkpt>
      <trkpt lat="44.64573" lon="5.06039">
        <ele>329.3</ele>
        <time>2024-05-17T13:53:13Z</time>
      </trkpt>
      <trkpt lat="44.64571" lon="5.06033">
        <ele>329.3</ele>
        <time>2024-05-17T13:53:14Z</time>
      </trkpt>
      <trkpt lat="44.6457" lon="5.06027">
        <ele>329.2</ele>
        <time>2024-05-17T13:53:15Z</time>
      </trkpt>
      <trkpt lat="44.64568" lon="5.06022">
        <ele>329.2</ele>
        <time>2024-05-17T13:53:16Z</time>
      </trkpt>
      <trkpt lat="44.64567" lon="5.06016">
        <ele>329.2</ele>
        <time>2024-05-17T13:53:17Z</time>
      </trkpt>
      <trkpt lat="44.64566" lon="5.0601">
        <ele>329.2</ele>
        <time>2024-05-17T13:53:18Z</time>
      </trkpt>
      <trkpt lat="44.64565" lon="5.06004">
        <ele>329.2</ele>
        <time>2024-05-17T13:53:19Z</time>
      </trkpt>
      <trkpt lat="44.64563" lon="5.05996">
        <ele>329.2</ele>
        <time>2024-05-17T13:53:20Z</time>
      </trkpt>
      <trkpt lat="44.64562" lon="5.05993">
        <ele>329.2</ele>
        <time>2024-05-17T13:53:21Z</time>
      </trkpt>
      <trkpt lat="44.6456" lon="5.05984">
        <ele>329.2</ele>
        <time>2024-05-17T13:53:22Z</time>
      </trkpt>
      <trkpt lat="44.6456" lon="5.05981">
        <ele>329.2</ele>
        <time>2024-05-17T13:53:23Z</time>
      </trkpt>
      <trkpt lat="44.64558" lon="5.05971">
        <ele>329.2</ele>
        <time>2024-05-17T13:53:24Z</time>
      </trkpt>
      <trkpt lat="44.64557" lon="5.05968">
        <ele>329.2</ele>
        <time>2024-05-17T13:53:25Z</time>
      </trkpt>
      <trkpt lat="44.64555" lon="5.05962">
        <ele>329.2</ele>
        <time>2024-05-17T13:53:26Z</time>
      </trkpt>
      <trkpt lat="44.64553" lon="5.05953">
        <ele>329.2</ele>
        <time>2024-05-17T13:53:27Z</time>
      </trkpt>
      <trkpt lat="44.64552" lon="5.0595">
        <ele>329.2</ele>
        <time>2024-05-17T13:53:28Z</time>
      </trkpt>
      <trkpt lat="44.6455" lon="5.0594">
        <ele>329.2</ele>
        <time>2024-05-17T13:53:29Z</time>
      </trkpt>
      <trkpt lat="44.64549" lon="5.05937">
        <ele>329.2</ele>
        <time>2024-05-17T13:53:30Z</time>
      </trkpt>
      <trkpt lat="44.64547" lon="5.05928">
        <ele>329.1</ele>
        <time>2024-05-17T13:53:31Z</time>
      </trkpt>
      <trkpt lat="44.64546" lon="5.05925">
        <ele>329.1</ele>
        <time>2024-05-17T13:53:32Z</time>
      </trkpt>
      <trkpt lat="44.64544" lon="5.05915">
        <ele>329.1</ele>
        <time>2024-05-17T13:53:33Z</time>
      </trkpt>
      <trkpt lat="44.64543" lon="5.05911">
        <ele>329.1</ele>
        <time>2024-05-17T13:53:34Z</time>
      </trkpt>
      <trkpt lat="44.6454" lon="5.05901">
        <ele>329.1</ele>
        <time>2024-05-17T13:53:35Z</time>
      </trkpt>
      <trkpt lat="44.64539" lon="5.05898">
        <ele>329.1</ele>
        <time>2024-05-17T13:53:36Z</time>
      </trkpt>
      <trkpt lat="44.64537" lon="5.05888">
        <ele>329.1</ele>
        <time>2024-05-17T13:53:37Z</time>
      </trkpt>
      <trkpt lat="44.64536" lon="5.05885">
        <ele>329.1</ele>
        <time>2024-05-17T13:53:38Z</time>
      </trkpt>
      <trkpt lat="44.64534" lon="5.05879">
        <ele>329.1</ele>
        <time>2024-05-17T13:53:39Z</time>
      </trkpt>
      <trkpt lat="44.64533" lon="5.05872">
        <ele>329.1</ele>
        <time>2024-05-17T13:53:40Z</time>
      </trkpt>
      <trkpt lat="44.64531" lon="5.05865">
        <ele>329.1</ele>
        <time>2024-05-17T13:53:41Z</time>
      </trkpt>
      <trkpt lat="44.6453" lon="5.05858">
        <ele>329.1</ele>
        <time>2024-05-17T13:53:42Z</time>
      </trkpt>
      <trkpt lat="44.64528" lon="5.05851">
        <ele>329.1</ele>
        <time>2024-05-17T13:53:43Z</time>
      </trkpt>
      <trkpt lat="44.64526" lon="5.05844">
        <ele>329.1</ele>
        <time>2024-05-17T13:53:44Z</time>
      </trkpt>
      <trkpt lat="44.64524" lon="5.05837">
        <ele>329</ele>
        <time>2024-05-17T13:53:45Z</time>
      </trkpt>
      <trkpt lat="44.64521" lon="5.05826">
        <ele>329</ele>
        <time>2024-05-17T13:53:46Z</time>
      </trkpt>
      <trkpt lat="44.64521" lon="5.05823">
        <ele>329</ele>
        <time>2024-05-17T13:53:47Z</time>
      </trkpt>
      <trkpt lat="44.64519" lon="5.05813">
        <ele>329</ele>
        <time>2024-05-17T13:53:48Z</time>
      </trkpt>
      <trkpt lat="44.64518" lon="5.0581">
        <ele>329</ele>
        <time>2024-05-17T13:53:49Z</time>
      </trkpt>
      <trkpt lat="44.64517" lon="5.05803">
        <ele>329</ele>
        <time>2024-05-17T13:53:50Z</time>
      </trkpt>
      <trkpt lat="44.64515" lon="5.05797">
        <ele>329</ele>
        <time>2024-05-17T13:53:51Z</time>
      </trkpt>
      <trkpt lat="44.64513" lon="5.0579">
        <ele>329</ele>
        <time>2024-05-17T13:53:52Z</time>
      </trkpt>
      <trkpt lat="44.64512" lon="5.05783">
        <ele>329</ele>
        <time>2024-05-17T13:53:53Z</time>
      </trkpt>
      <trkpt lat="44.6451" lon="5.05777">
        <ele>329</ele>
        <time>2024-05-17T13:53:54Z</time>
      </trkpt>
      <trkpt lat="44.64509" lon="5.05771">
        <ele>329</ele>
        <time>2024-05-17T13:53:55Z</time>
      </trkpt>
      <trkpt lat="44.64508" lon="5.05765">
        <ele>329</ele>
        <time>2024-05-17T13:53:56Z</time>
      </trkpt>
      <trkpt lat="44.64506" lon="5.05759">
        <ele>329.1</ele>
        <time>2024-05-17T13:53:57Z</time>
      </trkpt>
      <trkpt lat="44.64505" lon="5.05753">
        <ele>329.1</ele>
        <time>2024-05-17T13:53:58Z</time>
      </trkpt>
      <trkpt lat="44.64504" lon="5.05747">
        <ele>329.1</ele>
        <time>2024-05-17T13:53:59Z</time>
      </trkpt>
      <trkpt lat="44.64503" lon="5.05741">
        <ele>329.1</ele>
        <time>2024-05-17T13:54:00Z</time>
      </trkpt>
      <trkpt lat="44.64502" lon="5.05735">
        <ele>329.1</ele>
        <time>2024-05-17T13:54:01Z</time>
      </trkpt>
      <trkpt lat="44.645" lon="5.05726">
        <ele>329.1</ele>
        <time>2024-05-17T13:54:02Z</time>
      </trkpt>
      <trkpt lat="44.645" lon="5.05723">
        <ele>329.1</ele>
        <time>2024-05-17T13:54:03Z</time>
      </trkpt>
      <trkpt lat="44.64499" lon="5.05714">
        <ele>329.1</ele>
        <time>2024-05-17T13:54:04Z</time>
      </trkpt>
      <trkpt lat="44.64499" lon="5.05711">
        <ele>329.1</ele>
        <time>2024-05-17T13:54:05Z</time>
      </trkpt>
      <trkpt lat="44.64499" lon="5.05702">
        <ele>329.1</ele>
        <time>2024-05-17T13:54:06Z</time>
      </trkpt>
      <trkpt lat="44.645" lon="5.05699">
        <ele>329.1</ele>
        <time>2024-05-17T13:54:07Z</time>
      </trkpt>
      <trkpt lat="44.64502" lon="5.0569">
        <ele>329.1</ele>
        <time>2024-05-17T13:54:08Z</time>
      </trkpt>
      <trkpt lat="44.64503" lon="5.05688">
        <ele>329.1</ele>
        <time>2024-05-17T13:54:09Z</time>
      </trkpt>
      <trkpt lat="44.64504" lon="5.0568">
        <ele>329.1</ele>
        <time>2024-05-17T13:54:10Z</time>
      </trkpt>
      <trkpt lat="44.64504" lon="5.05677">
        <ele>329.1</ele>
        <time>2024-05-17T13:54:11Z</time>
      </trkpt>
      <trkpt lat="44.64502" lon="5.05668">
        <ele>329.2</ele>
        <time>2024-05-17T13:54:12Z</time>
      </trkpt>
      <trkpt lat="44.64501" lon="5.05666">
        <ele>329.2</ele>
        <time>2024-05-17T13:54:13Z</time>
      </trkpt>
      <trkpt lat="44.64497" lon="5.05659">
        <ele>329.2</ele>
        <time>2024-05-17T13:54:14Z</time>
      </trkpt>
      <trkpt lat="44.64495" lon="5.05657">
        <ele>329.2</ele>
        <time>2024-05-17T13:54:15Z</time>
      </trkpt>
      <trkpt lat="44.6449" lon="5.05649">
        <ele>329.1</ele>
        <time>2024-05-17T13:54:16Z</time>
      </trkpt>
      <trkpt lat="44.64488" lon="5.05646">
        <ele>329.1</ele>
        <time>2024-05-17T13:54:17Z</time>
      </trkpt>
      <trkpt lat="44.64484" lon="5.05637">
        <ele>329</ele>
        <time>2024-05-17T13:54:18Z</time>
      </trkpt>
      <trkpt lat="44.64483" lon="5.05633">
        <ele>329</ele>
        <time>2024-05-17T13:54:19Z</time>
      </trkpt>
      <trkpt lat="44.6448" lon="5.05623">
        <ele>329</ele>
        <time>2024-05-17T13:54:20Z</time>
      </trkpt>
      <trkpt lat="44.64479" lon="5.05619">
        <ele>329</ele>
        <time>2024-05-17T13:54:21Z</time>
      </trkpt>
      <trkpt lat="44.64476" lon="5.05612">
        <ele>329</ele>
        <time>2024-05-17T13:54:22Z</time>
      </trkpt>
      <trkpt lat="44.64473" lon="5.05602">
        <ele>329</ele>
        <time>2024-05-17T13:54:23Z</time>
      </trkpt>
      <trkpt lat="44.64472" lon="5.05598">
        <ele>329</ele>
        <time>2024-05-17T13:54:24Z</time>
      </trkpt>
      <trkpt lat="44.64469" lon="5.05591">
        <ele>329</ele>
        <time>2024-05-17T13:54:25Z</time>
      </trkpt>
      <trkpt lat="44.64467" lon="5.05584">
        <ele>329</ele>
        <time>2024-05-17T13:54:26Z</time>
      </trkpt>
      <trkpt lat="44.64465" lon="5.05577">
        <ele>329</ele>
        <time>2024-05-17T13:54:27Z</time>
      </trkpt>
      <trkpt lat="44.64464" lon="5.0557">
        <ele>329</ele>
        <time>2024-05-17T13:54:28Z</time>
      </trkpt>
      <trkpt lat="44.64461" lon="5.05561">
        <ele>329</ele>
        <time>2024-05-17T13:54:29Z</time>
      </trkpt>
      <trkpt lat="44.64459" lon="5.05557">
        <ele>329</ele>
        <time>2024-05-17T13:54:30Z</time>
      </trkpt>
      <trkpt lat="44.64456" lon="5.05548">
        <ele>329</ele>
        <time>2024-05-17T13:54:31Z</time>
      </trkpt>
      <trkpt lat="44.64455" lon="5.05544">
        <ele>329</ele>
        <time>2024-05-17T13:54:32Z</time>
      </trkpt>
      <trkpt lat="44.64453" lon="5.05538">
        <ele>328.9</ele>
        <time>2024-05-17T13:54:33Z</time>
      </trkpt>
      <trkpt lat="44.64451" lon="5.05531">
        <ele>328.8</ele>
        <time>2024-05-17T13:54:34Z</time>
      </trkpt>
      <trkpt lat="44.64449" lon="5.05524">
        <ele>328.8</ele>
        <time>2024-05-17T13:54:35Z</time>
      </trkpt>
      <trkpt lat="44.64446" lon="5.05517">
        <ele>328.7</ele>
        <time>2024-05-17T13:54:36Z</time>
      </trkpt>
      <trkpt lat="44.64444" lon="5.0551">
        <ele>328.7</ele>
        <time>2024-05-17T13:54:37Z</time>
      </trkpt>
      <trkpt lat="44.64442" lon="5.05503">
        <ele>328.6</ele>
        <time>2024-05-17T13:54:38Z</time>
      </trkpt>
      <trkpt lat="44.64439" lon="5.05496">
        <ele>328.6</ele>
        <time>2024-05-17T13:54:39Z</time>
      </trkpt>
      <trkpt lat="44.64437" lon="5.05489">
        <ele>328.5</ele>
        <time>2024-05-17T13:54:40Z</time>
      </trkpt>
      <trkpt lat="44.64434" lon="5.05482">
        <ele>328.5</ele>
        <time>2024-05-17T13:54:41Z</time>
      </trkpt>
      <trkpt lat="44.64431" lon="5.05472">
        <ele>328.5</ele>
        <time>2024-05-17T13:54:42Z</time>
      </trkpt>
      <trkpt lat="44.64429" lon="5.05468">
        <ele>328.4</ele>
        <time>2024-05-17T13:54:43Z</time>
      </trkpt>
      <trkpt lat="44.64427" lon="5.05461">
        <ele>328.4</ele>
        <time>2024-05-17T13:54:44Z</time>
      </trkpt>
      <trkpt lat="44.64423" lon="5.05451">
        <ele>328.4</ele>
        <time>2024-05-17T13:54:45Z</time>
      </trkpt>
      <trkpt lat="44.64422" lon="5.05447">
        <ele>328.3</ele>
        <time>2024-05-17T13:54:46Z</time>
      </trkpt>
      <trkpt lat="44.64418" lon="5.05436">
        <ele>328.3</ele>
        <time>2024-05-17T13:54:47Z</time>
      </trkpt>
      <trkpt lat="44.64417" lon="5.05433">
        <ele>328.3</ele>
        <time>2024-05-17T13:54:48Z</time>
      </trkpt>
      <trkpt lat="44.64413" lon="5.05423">
        <ele>328.3</ele>
        <time>2024-05-17T13:54:49Z</time>
      </trkpt>
      <trkpt lat="44.64412" lon="5.05419">
        <ele>328.3</ele>
        <time>2024-05-17T13:54:50Z</time>
      </trkpt>
      <trkpt lat="44.64409" lon="5.05409">
        <ele>328.3</ele>
        <time>2024-05-17T13:54:51Z</time>
      </trkpt>
      <trkpt lat="44.64407" lon="5.05406">
        <ele>328.3</ele>
        <time>2024-05-17T13:54:52Z</time>
      </trkpt>
      <trkpt lat="44.64404" lon="5.05395">
        <ele>328.3</ele>
        <time>2024-05-17T13:54:53Z</time>
      </trkpt>
      <trkpt lat="44.64402" lon="5.05392">
        <ele>328.3</ele>
        <time>2024-05-17T13:54:54Z</time>
      </trkpt>
      <trkpt lat="44.644" lon="5.05385">
        <ele>328.3</ele>
        <time>2024-05-17T13:54:55Z</time>
      </trkpt>
      <trkpt lat="44.64396" lon="5.05375">
        <ele>328.3</ele>
        <time>2024-05-17T13:54:56Z</time>
      </trkpt>
      <trkpt lat="44.64395" lon="5.05372">
        <ele>328.3</ele>
        <time>2024-05-17T13:54:57Z</time>
      </trkpt>
      <trkpt lat="44.64393" lon="5.05366">
        <ele>328.4</ele>
        <time>2024-05-17T13:54:58Z</time>
      </trkpt>
      <trkpt lat="44.6439" lon="5.05356">
        <ele>328.4</ele>
        <time>2024-05-17T13:54:59Z</time>
      </trkpt>
      <trkpt lat="44.64388" lon="5.05353">
        <ele>328.4</ele>
        <time>2024-05-17T13:55:00Z</time>
      </trkpt>
      <trkpt lat="44.64385" lon="5.05343">
        <ele>328.5</ele>
        <time>2024-05-17T13:55:01Z</time>
      </trkpt>
      <trkpt lat="44.64384" lon="5.0534">
        <ele>328.5</ele>
        <time>2024-05-17T13:55:02Z</time>
      </trkpt>
      <trkpt lat="44.64381" lon="5.0533">
        <ele>328.6</ele>
        <time>2024-05-17T13:55:03Z</time>
      </trkpt>
      <trkpt lat="44.6438" lon="5.05327">
        <ele>328.7</ele>
        <time>2024-05-17T13:55:04Z</time>
      </trkpt>
      <trkpt lat="44.64377" lon="5.05318">
        <ele>328.8</ele>
        <time>2024-05-17T13:55:05Z</time>
      </trkpt>
      <trkpt lat="44.64377" lon="5.05315">
        <ele>328.8</ele>
        <time>2024-05-17T13:55:06Z</time>
      </trkpt>
      <trkpt lat="44.64375" lon="5.05308">
        <ele>328.9</ele>
        <time>2024-05-17T13:55:07Z</time>
      </trkpt>
      <trkpt lat="44.64375" lon="5.05303">
        <ele>329</ele>
        <time>2024-05-17T13:55:08Z</time>
      </trkpt>
      <trkpt lat="44.64374" lon="5.05297">
        <ele>329.1</ele>
        <time>2024-05-17T13:55:09Z</time>
      </trkpt>
      <trkpt lat="44.64373" lon="5.05291">
        <ele>329.1</ele>
        <time>2024-05-17T13:55:10Z</time>
      </trkpt>
      <trkpt lat="44.64372" lon="5.05283">
        <ele>329.2</ele>
        <time>2024-05-17T13:55:11Z</time>
      </trkpt>
      <trkpt lat="44.64372" lon="5.0528">
        <ele>329.2</ele>
        <time>2024-05-17T13:55:12Z</time>
      </trkpt>
      <trkpt lat="44.64371" lon="5.05271">
        <ele>329.2</ele>
        <time>2024-05-17T13:55:13Z</time>
      </trkpt>
      <trkpt lat="44.64371" lon="5.05268">
        <ele>329.2</ele>
        <time>2024-05-17T13:55:14Z</time>
      </trkpt>
      <trkpt lat="44.64371" lon="5.05262">
        <ele>329.2</ele>
        <time>2024-05-17T13:55:15Z</time>
      </trkpt>
      <trkpt lat="44.6437" lon="5.05252">
        <ele>329.2</ele>
        <time>2024-05-17T13:55:16Z</time>
      </trkpt>
      <trkpt lat="44.6437" lon="5.05249">
        <ele>329.2</ele>
        <time>2024-05-17T13:55:17Z</time>
      </trkpt>
      <trkpt lat="44.64369" lon="5.05242">
        <ele>329.2</ele>
        <time>2024-05-17T13:55:18Z</time>
      </trkpt>
      <trkpt lat="44.64368" lon="5.05236">
        <ele>329.1</ele>
        <time>2024-05-17T13:55:19Z</time>
      </trkpt>
      <trkpt lat="44.64368" lon="5.0523">
        <ele>329.1</ele>
        <time>2024-05-17T13:55:20Z</time>
      </trkpt>
      <trkpt lat="44.64368" lon="5.05223">
        <ele>329.2</ele>
        <time>2024-05-17T13:55:21Z</time>
      </trkpt>
      <trkpt lat="44.64367" lon="5.05217">
        <ele>329.2</ele>
        <time>2024-05-17T13:55:22Z</time>
      </trkpt>
      <trkpt lat="44.64367" lon="5.0521">
        <ele>329.2</ele>
        <time>2024-05-17T13:55:23Z</time>
      </trkpt>
      <trkpt lat="44.64366" lon="5.05204">
        <ele>329.3</ele>
        <time>2024-05-17T13:55:24Z</time>
      </trkpt>
      <trkpt lat="44.64366" lon="5.05198">
        <ele>329.3</ele>
        <time>2024-05-17T13:55:25Z</time>
      </trkpt>
      <trkpt lat="44.64365" lon="5.05192">
        <ele>329.4</ele>
        <time>2024-05-17T13:55:26Z</time>
      </trkpt>
      <trkpt lat="44.64365" lon="5.05186">
        <ele>329.5</ele>
        <time>2024-05-17T13:55:27Z</time>
      </trkpt>
      <trkpt lat="44.64364" lon="5.0518">
        <ele>329.6</ele>
        <time>2024-05-17T13:55:28Z</time>
      </trkpt>
      <trkpt lat="44.64364" lon="5.05171">
        <ele>329.7</ele>
        <time>2024-05-17T13:55:29Z</time>
      </trkpt>
      <trkpt lat="44.64363" lon="5.05168">
        <ele>329.7</ele>
        <time>2024-05-17T13:55:30Z</time>
      </trkpt>
      <trkpt lat="44.64363" lon="5.05162">
        <ele>329.8</ele>
        <time>2024-05-17T13:55:31Z</time>
      </trkpt>
      <trkpt lat="44.64362" lon="5.05156">
        <ele>329.8</ele>
        <time>2024-05-17T13:55:32Z</time>
      </trkpt>
      <trkpt lat="44.64361" lon="5.05148">
        <ele>329.9</ele>
        <time>2024-05-17T13:55:33Z</time>
      </trkpt>
      <trkpt lat="44.64361" lon="5.05145">
        <ele>330</ele>
        <time>2024-05-17T13:55:34Z</time>
      </trkpt>
      <trkpt lat="44.64361" lon="5.05136">
        <ele>330.1</ele>
        <time>2024-05-17T13:55:35Z</time>
      </trkpt>
      <trkpt lat="44.6436" lon="5.05133">
        <ele>330.1</ele>
        <time>2024-05-17T13:55:36Z</time>
      </trkpt>
      <trkpt lat="44.6436" lon="5.05125">
        <ele>330.2</ele>
        <time>2024-05-17T13:55:37Z</time>
      </trkpt>
      <trkpt lat="44.64359" lon="5.05122">
        <ele>330.3</ele>
        <time>2024-05-17T13:55:38Z</time>
      </trkpt>
      <trkpt lat="44.64359" lon="5.05113">
        <ele>330.4</ele>
        <time>2024-05-17T13:55:39Z</time>
      </trkpt>
      <trkpt lat="44.64359" lon="5.0511">
        <ele>330.4</ele>
        <time>2024-05-17T13:55:40Z</time>
      </trkpt>
      <trkpt lat="44.64358" lon="5.05102">
        <ele>330.6</ele>
        <time>2024-05-17T13:55:41Z</time>
      </trkpt>
      <trkpt lat="44.64357" lon="5.05099">
        <ele>330.6</ele>
        <time>2024-05-17T13:55:42Z</time>
      </trkpt>
      <trkpt lat="44.64356" lon="5.05091">
        <ele>330.7</ele>
        <time>2024-05-17T13:55:43Z</time>
      </trkpt>
      <trkpt lat="44.64356" lon="5.05088">
        <ele>330.8</ele>
        <time>2024-05-17T13:55:44Z</time>
      </trkpt>
      <trkpt lat="44.64355" lon="5.05079">
        <ele>330.9</ele>
        <time>2024-05-17T13:55:45Z</time>
      </trkpt>
      <trkpt lat="44.64355" lon="5.05076">
        <ele>331</ele>
        <time>2024-05-17T13:55:46Z</time>
      </trkpt>
      <trkpt lat="44.64354" lon="5.05071">
        <ele>331</ele>
        <time>2024-05-17T13:55:47Z</time>
      </trkpt>
      <trkpt lat="44.64353" lon="5.05063">
        <ele>331.2</ele>
        <time>2024-05-17T13:55:48Z</time>
      </trkpt>
      <trkpt lat="44.64353" lon="5.0506">
        <ele>331.2</ele>
        <time>2024-05-17T13:55:49Z</time>
      </trkpt>
      <trkpt lat="44.64353" lon="5.05052">
        <ele>331.4</ele>
        <time>2024-05-17T13:55:50Z</time>
      </trkpt>
      <trkpt lat="44.64352" lon="5.05049">
        <ele>331.4</ele>
        <time>2024-05-17T13:55:51Z</time>
      </trkpt>
      <trkpt lat="44.64352" lon="5.05045">
        <ele>331.5</ele>
        <time>2024-05-17T13:55:52Z</time>
      </trkpt>
      <trkpt lat="44.64352" lon="5.0504">
        <ele>331.6</ele>
        <time>2024-05-17T13:55:53Z</time>
      </trkpt>
      <trkpt lat="44.64351" lon="5.05033">
        <ele>331.8</ele>
        <time>2024-05-17T13:55:54Z</time>
      </trkpt>
      <trkpt lat="44.64351" lon="5.0503">
        <ele>331.8</ele>
        <time>2024-05-17T13:55:55Z</time>
      </trkpt>
      <trkpt lat="44.64351" lon="5.05026">
        <ele>331.9</ele>
        <time>2024-05-17T13:55:56Z</time>
      </trkpt>
      <trkpt lat="44.64351" lon="5.05021">
        <ele>332.1</ele>
        <time>2024-05-17T13:55:57Z</time>
      </trkpt>
      <trkpt lat="44.64351" lon="5.05016">
        <ele>332.2</ele>
        <time>2024-05-17T13:55:58Z</time>
      </trkpt>
      <trkpt lat="44.64351" lon="5.05012">
        <ele>332.3</ele>
        <time>2024-05-17T13:55:59Z</time>
      </trkpt>
      <trkpt lat="44.64352" lon="5.05007">
        <ele>332.4</ele>
        <time>2024-05-17T13:56:00Z</time>
      </trkpt>
      <trkpt lat="44.64353" lon="5.05002">
        <ele>332.5</ele>
        <time>2024-05-17T13:56:01Z</time>
      </trkpt>
      <trkpt lat="44.64354" lon="5.04998">
        <ele>332.7</ele>
        <time>2024-05-17T13:56:02Z</time>
      </trkpt>
      <trkpt lat="44.64355" lon="5.04994">
        <ele>332.8</ele>
        <time>2024-05-17T13:56:03Z</time>
      </trkpt>
      <trkpt lat="44.64356" lon="5.04991">
        <ele>332.9</ele>
        <time>2024-05-17T13:56:04Z</time>
      </trkpt>
      <trkpt lat="44.64357" lon="5.04987">
        <ele>333</ele>
        <time>2024-05-17T13:56:05Z</time>
      </trkpt>
      <trkpt lat="44.64359" lon="5.04983">
        <ele>333.1</ele>
        <time>2024-05-17T13:56:06Z</time>
      </trkpt>
      <trkpt lat="44.64361" lon="5.04979">
        <ele>333.2</ele>
        <time>2024-05-17T13:56:07Z</time>
      </trkpt>
      <trkpt lat="44.64363" lon="5.04975">
        <ele>333.4</ele>
        <time>2024-05-17T13:56:08Z</time>
      </trkpt>
      <trkpt lat="44.64365" lon="5.04972">
        <ele>333.5</ele>
        <time>2024-05-17T13:56:09Z</time>
      </trkpt>
      <trkpt lat="44.64367" lon="5.04968">
        <ele>333.6</ele>
        <time>2024-05-17T13:56:10Z</time>
      </trkpt>
      <trkpt lat="44.6437" lon="5.04965">
        <ele>333.8</ele>
        <time>2024-05-17T13:56:11Z</time>
      </trkpt>
      <trkpt lat="44.64374" lon="5.04959">
        <ele>334</ele>
        <time>2024-05-17T13:56:12Z</time>
      </trkpt>
      <trkpt lat="44.64375" lon="5.04958">
        <ele>334</ele>
        <time>2024-05-17T13:56:13Z</time>
      </trkpt>
      <trkpt lat="44.64379" lon="5.04953">
        <ele>334.2</ele>
        <time>2024-05-17T13:56:14Z</time>
      </trkpt>
      <trkpt lat="44.6438" lon="5.04951">
        <ele>334.3</ele>
        <time>2024-05-17T13:56:15Z</time>
      </trkpt>
      <trkpt lat="44.64385" lon="5.04946">
        <ele>334.5</ele>
        <time>2024-05-17T13:56:16Z</time>
      </trkpt>
      <trkpt lat="44.64386" lon="5.04945">
        <ele>334.6</ele>
        <time>2024-05-17T13:56:17Z</time>
      </trkpt>
      <trkpt lat="44.64391" lon="5.0494">
        <ele>334.8</ele>
        <time>2024-05-17T13:56:18Z</time>
      </trkpt>
      <trkpt lat="44.64392" lon="5.04938">
        <ele>334.9</ele>
        <time>2024-05-17T13:56:19Z</time>
      </trkpt>
      <trkpt lat="44.64396" lon="5.04934">
        <ele>335</ele>
        <time>2024-05-17T13:56:20Z</time>
      </trkpt>
      <trkpt lat="44.64398" lon="5.04932">
        <ele>335.1</ele>
        <time>2024-05-17T13:56:21Z</time>
      </trkpt>
      <trkpt lat="44.64402" lon="5.04928">
        <ele>335.3</ele>
        <time>2024-05-17T13:56:22Z</time>
      </trkpt>
      <trkpt lat="44.64404" lon="5.04926">
        <ele>335.4</ele>
        <time>2024-05-17T13:56:23Z</time>
      </trkpt>
      <trkpt lat="44.64408" lon="5.04922">
        <ele>335.5</ele>
        <time>2024-05-17T13:56:24Z</time>
      </trkpt>
      <trkpt lat="44.64409" lon="5.0492">
        <ele>335.6</ele>
        <time>2024-05-17T13:56:25Z</time>
      </trkpt>
      <trkpt lat="44.64414" lon="5.04915">
        <ele>335.8</ele>
        <time>2024-05-17T13:56:26Z</time>
      </trkpt>
      <trkpt lat="44.64415" lon="5.04914">
        <ele>335.9</ele>
        <time>2024-05-17T13:56:27Z</time>
      </trkpt>
      <trkpt lat="44.6442" lon="5.0491">
        <ele>336.1</ele>
        <time>2024-05-17T13:56:28Z</time>
      </trkpt>
      <trkpt lat="44.64421" lon="5.04908">
        <ele>336.2</ele>
        <time>2024-05-17T13:56:29Z</time>
      </trkpt>
      <trkpt lat="44.64426" lon="5.04904">
        <ele>336.4</ele>
        <time>2024-05-17T13:56:30Z</time>
      </trkpt>
      <trkpt lat="44.64427" lon="5.04902">
        <ele>336.5</ele>
        <time>2024-05-17T13:56:31Z</time>
      </trkpt>
      <trkpt lat="44.64432" lon="5.04898">
        <ele>336.7</ele>
        <time>2024-05-17T13:56:32Z</time>
      </trkpt>
      <trkpt lat="44.64433" lon="5.04897">
        <ele>336.8</ele>
        <time>2024-05-17T13:56:33Z</time>
      </trkpt>
      <trkpt lat="44.64436" lon="5.04895">
        <ele>336.9</ele>
        <time>2024-05-17T13:56:34Z</time>
      </trkpt>
      <trkpt lat="44.64438" lon="5.04892">
        <ele>337.1</ele>
        <time>2024-05-17T13:56:35Z</time>
      </trkpt>
      <trkpt lat="44.64441" lon="5.04889">
        <ele>337.2</ele>
        <time>2024-05-17T13:56:36Z</time>
      </trkpt>
      <trkpt lat="44.64444" lon="5.04886">
        <ele>337.4</ele>
        <time>2024-05-17T13:56:37Z</time>
      </trkpt>
      <trkpt lat="44.6445" lon="5.04883">
        <ele>337.6</ele>
        <time>2024-05-17T13:56:38Z</time>
      </trkpt>
      <trkpt lat="44.64451" lon="5.04882">
        <ele>337.7</ele>
        <time>2024-05-17T13:56:39Z</time>
      </trkpt>
      <trkpt lat="44.64456" lon="5.04877">
        <ele>337.9</ele>
        <time>2024-05-17T13:56:40Z</time>
      </trkpt>
      <trkpt lat="44.64457" lon="5.04876">
        <ele>338</ele>
        <time>2024-05-17T13:56:41Z</time>
      </trkpt>
      <trkpt lat="44.6446" lon="5.04873">
        <ele>338.1</ele>
        <time>2024-05-17T13:56:42Z</time>
      </trkpt>
      <trkpt lat="44.64463" lon="5.04871">
        <ele>338.2</ele>
        <time>2024-05-17T13:56:43Z</time>
      </trkpt>
      <trkpt lat="44.64467" lon="5.04868">
        <ele>338.4</ele>
        <time>2024-05-17T13:56:44Z</time>
      </trkpt>
      <trkpt lat="44.64469" lon="5.04866">
        <ele>338.5</ele>
        <time>2024-05-17T13:56:45Z</time>
      </trkpt>
      <trkpt lat="44.64472" lon="5.04863">
        <ele>338.7</ele>
        <time>2024-05-17T13:56:46Z</time>
      </trkpt>
      <trkpt lat="44.64475" lon="5.04861">
        <ele>338.8</ele>
        <time>2024-05-17T13:56:47Z</time>
      </trkpt>
      <trkpt lat="44.64478" lon="5.04859">
        <ele>338.9</ele>
        <time>2024-05-17T13:56:48Z</time>
      </trkpt>
      <trkpt lat="44.6448" lon="5.04857">
        <ele>339.1</ele>
        <time>2024-05-17T13:56:49Z</time>
      </trkpt>
      <trkpt lat="44.64483" lon="5.04855">
        <ele>339.2</ele>
        <time>2024-05-17T13:56:50Z</time>
      </trkpt>
      <trkpt lat="44.64486" lon="5.04852">
        <ele>339.3</ele>
        <time>2024-05-17T13:56:51Z</time>
      </trkpt>
      <trkpt lat="44.64488" lon="5.0485">
        <ele>339.5</ele>
        <time>2024-05-17T13:56:52Z</time>
      </trkpt>
      <trkpt lat="44.64491" lon="5.04847">
        <ele>339.6</ele>
        <time>2024-05-17T13:56:53Z</time>
      </trkpt>
      <trkpt lat="44.64495" lon="5.04843">
        <ele>339.8</ele>
        <time>2024-05-17T13:56:54Z</time>
      </trkpt>
      <trkpt lat="44.64496" lon="5.04842">
        <ele>339.9</ele>
        <time>2024-05-17T13:56:55Z</time>
      </trkpt>
      <trkpt lat="44.645" lon="5.04838">
        <ele>340.1</ele>
        <time>2024-05-17T13:56:56Z</time>
      </trkpt>
      <trkpt lat="44.64501" lon="5.04836">
        <ele>340.2</ele>
        <time>2024-05-17T13:56:57Z</time>
      </trkpt>
      <trkpt lat="44.64504" lon="5.04832">
        <ele>340.4</ele>
        <time>2024-05-17T13:56:58Z</time>
      </trkpt>
      <trkpt lat="44.64505" lon="5.0483">
        <ele>340.5</ele>
        <time>2024-05-17T13:56:59Z</time>
      </trkpt>
      <trkpt lat="44.64508" lon="5.04825">
        <ele>340.7</ele>
        <time>2024-05-17T13:57:00Z</time>
      </trkpt>
      <trkpt lat="44.64509" lon="5.04823">
        <ele>340.8</ele>
        <time>2024-05-17T13:57:01Z</time>
      </trkpt>
      <trkpt lat="44.64512" lon="5.04818">
        <ele>341</ele>
        <time>2024-05-17T13:57:02Z</time>
      </trkpt>
      <trkpt lat="44.64513" lon="5.04817">
        <ele>341.1</ele>
        <time>2024-05-17T13:57:03Z</time>
      </trkpt>
      <trkpt lat="44.64516" lon="5.04812">
        <ele>341.3</ele>
        <time>2024-05-17T13:57:04Z</time>
      </trkpt>
      <trkpt lat="44.64516" lon="5.0481">
        <ele>341.3</ele>
        <time>2024-05-17T13:57:05Z</time>
      </trkpt>
      <trkpt lat="44.64519" lon="5.04804">
        <ele>341.5</ele>
        <time>2024-05-17T13:57:06Z</time>
      </trkpt>
      <trkpt lat="44.64519" lon="5.04802">
        <ele>341.6</ele>
        <time>2024-05-17T13:57:07Z</time>
      </trkpt>
      <trkpt lat="44.64522" lon="5.04796">
        <ele>341.8</ele>
        <time>2024-05-17T13:57:08Z</time>
      </trkpt>
      <trkpt lat="44.64523" lon="5.04794">
        <ele>341.9</ele>
        <time>2024-05-17T13:57:09Z</time>
      </trkpt>
      <trkpt lat="44.64525" lon="5.04788">
        <ele>342.1</ele>
        <time>2024-05-17T13:57:10Z</time>
      </trkpt>
      <trkpt lat="44.64526" lon="5.04786">
        <ele>342.2</ele>
        <time>2024-05-17T13:57:11Z</time>
      </trkpt>
      <trkpt lat="44.64528" lon="5.04781">
        <ele>342.3</ele>
        <time>2024-05-17T13:57:12Z</time>
      </trkpt>
      <trkpt lat="44.64529" lon="5.04779">
        <ele>342.4</ele>
        <time>2024-05-17T13:57:13Z</time>
      </trkpt>
      <trkpt lat="44.6453" lon="5.04775">
        <ele>342.5</ele>
        <time>2024-05-17T13:57:14Z</time>
      </trkpt>
      <trkpt lat="44.64532" lon="5.04771">
        <ele>342.7</ele>
        <time>2024-05-17T13:57:15Z</time>
      </trkpt>
      <trkpt lat="44.64533" lon="5.04767">
        <ele>342.8</ele>
        <time>2024-05-17T13:57:16Z</time>
      </trkpt>
      <trkpt lat="44.64534" lon="5.04763">
        <ele>342.9</ele>
        <time>2024-05-17T13:57:17Z</time>
      </trkpt>
      <trkpt lat="44.64535" lon="5.04759">
        <ele>343</ele>
        <time>2024-05-17T13:57:18Z</time>
      </trkpt>
      <trkpt lat="44.64537" lon="5.04755">
        <ele>343.1</ele>
        <time>2024-05-17T13:57:19Z</time>
      </trkpt>
      <trkpt lat="44.64538" lon="5.04748">
        <ele>343.2</ele>
        <time>2024-05-17T13:57:20Z</time>
      </trkpt>
      <trkpt lat="44.64539" lon="5.04746">
        <ele>343.3</ele>
        <time>2024-05-17T13:57:21Z</time>
      </trkpt>
      <trkpt lat="44.64541" lon="5.04739">
        <ele>343.4</ele>
        <time>2024-05-17T13:57:22Z</time>
      </trkpt>
      <trkpt lat="44.64542" lon="5.04736">
        <ele>343.5</ele>
        <time>2024-05-17T13:57:23Z</time>
      </trkpt>
      <trkpt lat="44.64543" lon="5.04731">
        <ele>343.6</ele>
        <time>2024-05-17T13:57:24Z</time>
      </trkpt>
      <trkpt lat="44.64545" lon="5.04726">
        <ele>343.7</ele>
        <time>2024-05-17T13:57:25Z</time>
      </trkpt>
      <trkpt lat="44.64546" lon="5.04721">
        <ele>343.8</ele>
        <time>2024-05-17T13:57:26Z</time>
      </trkpt>
      <trkpt lat="44.64548" lon="5.04716">
        <ele>343.9</ele>
        <time>2024-05-17T13:57:27Z</time>
      </trkpt>
      <trkpt lat="44.64549" lon="5.04711">
        <ele>344.1</ele>
        <time>2024-05-17T13:57:28Z</time>
      </trkpt>
      <trkpt lat="44.64551" lon="5.04706">
        <ele>344.2</ele>
        <time>2024-05-17T13:57:29Z</time>
      </trkpt>
      <trkpt lat="44.64552" lon="5.04701">
        <ele>344.3</ele>
        <time>2024-05-17T13:57:30Z</time>
      </trkpt>
      <trkpt lat="44.64554" lon="5.04697">
        <ele>344.4</ele>
        <time>2024-05-17T13:57:31Z</time>
      </trkpt>
      <trkpt lat="44.64556" lon="5.04692">
        <ele>344.5</ele>
        <time>2024-05-17T13:57:32Z</time>
      </trkpt>
      <trkpt lat="44.64558" lon="5.04688">
        <ele>344.7</ele>
        <time>2024-05-17T13:57:33Z</time>
      </trkpt>
      <trkpt lat="44.6456" lon="5.04684">
        <ele>344.8</ele>
        <time>2024-05-17T13:57:34Z</time>
      </trkpt>
      <trkpt lat="44.64561" lon="5.0468">
        <ele>344.9</ele>
        <time>2024-05-17T13:57:35Z</time>
      </trkpt>
      <trkpt lat="44.64563" lon="5.04676">
        <ele>345</ele>
        <time>2024-05-17T13:57:36Z</time>
      </trkpt>
      <trkpt lat="44.64564" lon="5.04672">
        <ele>345.1</ele>
        <time>2024-05-17T13:57:37Z</time>
      </trkpt>
      <trkpt lat="44.64567" lon="5.04666">
        <ele>345.2</ele>
        <time>2024-05-17T13:57:38Z</time>
      </trkpt>
      <trkpt lat="44.64568" lon="5.04664">
        <ele>345.2</ele>
        <time>2024-05-17T13:57:39Z</time>
      </trkpt>
      <trkpt lat="44.64571" lon="5.04658">
        <ele>345.4</ele>
        <time>2024-05-17T13:57:40Z</time>
      </trkpt>
      <trkpt lat="44.64572" lon="5.04655">
        <ele>345.4</ele>
        <time>2024-05-17T13:57:41Z</time>
      </trkpt>
      <trkpt lat="44.64575" lon="5.04649">
        <ele>345.5</ele>
        <time>2024-05-17T13:57:42Z</time>
      </trkpt>
      <trkpt lat="44.64576" lon="5.04647">
        <ele>345.5</ele>
        <time>2024-05-17T13:57:43Z</time>
      </trkpt>
      <trkpt lat="44.64578" lon="5.04641">
        <ele>345.6</ele>
        <time>2024-05-17T13:57:44Z</time>
      </trkpt>
      <trkpt lat="44.64579" lon="5.04639">
        <ele>345.7</ele>
        <time>2024-05-17T13:57:45Z</time>
      </trkpt>
      <trkpt lat="44.64581" lon="5.04632">
        <ele>345.7</ele>
        <time>2024-05-17T13:57:46Z</time>
      </trkpt>
      <trkpt lat="44.64582" lon="5.0463">
        <ele>345.8</ele>
        <time>2024-05-17T13:57:47Z</time>
      </trkpt>
      <trkpt lat="44.64585" lon="5.04623">
        <ele>345.8</ele>
        <time>2024-05-17T13:57:48Z</time>
      </trkpt>
      <trkpt lat="44.64585" lon="5.0462">
        <ele>345.8</ele>
        <time>2024-05-17T13:57:49Z</time>
      </trkpt>
      <trkpt lat="44.64586" lon="5.04611">
        <ele>345.9</ele>
        <time>2024-05-17T13:57:50Z</time>
      </trkpt>
      <trkpt lat="44.64587" lon="5.04608">
        <ele>345.9</ele>
        <time>2024-05-17T13:57:51Z</time>
      </trkpt>
      <trkpt lat="44.64588" lon="5.04599">
        <ele>345.9</ele>
        <time>2024-05-17T13:57:52Z</time>
      </trkpt>
      <trkpt lat="44.64588" lon="5.04596">
        <ele>345.9</ele>
        <time>2024-05-17T13:57:53Z</time>
      </trkpt>
      <trkpt lat="44.64589" lon="5.04587">
        <ele>346</ele>
        <time>2024-05-17T13:57:54Z</time>
      </trkpt>
      <trkpt lat="44.64589" lon="5.04584">
        <ele>346</ele>
        <time>2024-05-17T13:57:55Z</time>
      </trkpt>
      <trkpt lat="44.6459" lon="5.04574">
        <ele>346</ele>
        <time>2024-05-17T13:57:56Z</time>
      </trkpt>
      <trkpt lat="44.6459" lon="5.04571">
        <ele>346</ele>
        <time>2024-05-17T13:57:57Z</time>
      </trkpt>
      <trkpt lat="44.64592" lon="5.04561">
        <ele>346</ele>
        <time>2024-05-17T13:57:58Z</time>
      </trkpt>
      <trkpt lat="44.64592" lon="5.04558">
        <ele>346</ele>
        <time>2024-05-17T13:57:59Z</time>
      </trkpt>
      <trkpt lat="44.64593" lon="5.04552">
        <ele>346.1</ele>
        <time>2024-05-17T13:58:00Z</time>
      </trkpt>
      <trkpt lat="44.64594" lon="5.04542">
        <ele>346.1</ele>
        <time>2024-05-17T13:58:01Z</time>
      </trkpt>
      <trkpt lat="44.64595" lon="5.04539">
        <ele>346.1</ele>
        <time>2024-05-17T13:58:02Z</time>
      </trkpt>
      <trkpt lat="44.64595" lon="5.04533">
        <ele>346.1</ele>
        <time>2024-05-17T13:58:03Z</time>
      </trkpt>
      <trkpt lat="44.64596" lon="5.04524">
        <ele>346.2</ele>
        <time>2024-05-17T13:58:04Z</time>
      </trkpt>
      <trkpt lat="44.64596" lon="5.04521">
        <ele>346.2</ele>
        <time>2024-05-17T13:58:05Z</time>
      </trkpt>
      <trkpt lat="44.64597" lon="5.04512">
        <ele>346.3</ele>
        <time>2024-05-17T13:58:06Z</time>
      </trkpt>
      <trkpt lat="44.64598" lon="5.04509">
        <ele>346.3</ele>
        <time>2024-05-17T13:58:07Z</time>
      </trkpt>
      <trkpt lat="44.64599" lon="5.04504">
        <ele>346.3</ele>
        <time>2024-05-17T13:58:08Z</time>
      </trkpt>
      <trkpt lat="44.64601" lon="5.04499">
        <ele>346.4</ele>
        <time>2024-05-17T13:58:09Z</time>
      </trkpt>
      <trkpt lat="44.64602" lon="5.04493">
        <ele>346.5</ele>
        <time>2024-05-17T13:58:10Z</time>
      </trkpt>
      <trkpt lat="44.64603" lon="5.04487">
        <ele>346.6</ele>
        <time>2024-05-17T13:58:11Z</time>
      </trkpt>
      <trkpt lat="44.64604" lon="5.04482">
        <ele>346.7</ele>
        <time>2024-05-17T13:58:12Z</time>
      </trkpt>
      <trkpt lat="44.64605" lon="5.04476">
        <ele>346.8</ele>
        <time>2024-05-17T13:58:13Z</time>
      </trkpt>
      <trkpt lat="44.64606" lon="5.04471">
        <ele>346.9</ele>
        <time>2024-05-17T13:58:14Z</time>
      </trkpt>
      <trkpt lat="44.64607" lon="5.04465">
        <ele>347</ele>
        <time>2024-05-17T13:58:15Z</time>
      </trkpt>
      <trkpt lat="44.64608" lon="5.0446">
        <ele>347.1</ele>
        <time>2024-05-17T13:58:16Z</time>
      </trkpt>
      <trkpt lat="44.64609" lon="5.04454">
        <ele>347.2</ele>
        <time>2024-05-17T13:58:17Z</time>
      </trkpt>
      <trkpt lat="44.64611" lon="5.04449">
        <ele>347.4</ele>
        <time>2024-05-17T13:58:18Z</time>
      </trkpt>
      <trkpt lat="44.64612" lon="5.04444">
        <ele>347.5</ele>
        <time>2024-05-17T13:58:19Z</time>
      </trkpt>
      <trkpt lat="44.64613" lon="5.04435">
        <ele>347.7</ele>
        <time>2024-05-17T13:58:20Z</time>
      </trkpt>
      <trkpt lat="44.64614" lon="5.04432">
        <ele>347.8</ele>
        <time>2024-05-17T13:58:21Z</time>
      </trkpt>
      <trkpt lat="44.64616" lon="5.04424">
        <ele>348</ele>
        <time>2024-05-17T13:58:22Z</time>
      </trkpt>
      <trkpt lat="44.64616" lon="5.04421">
        <ele>348.1</ele>
        <time>2024-05-17T13:58:23Z</time>
      </trkpt>
      <trkpt lat="44.64618" lon="5.04413">
        <ele>348.3</ele>
        <time>2024-05-17T13:58:24Z</time>
      </trkpt>
      <trkpt lat="44.64619" lon="5.04411">
        <ele>348.4</ele>
        <time>2024-05-17T13:58:25Z</time>
      </trkpt>
      <trkpt lat="44.64621" lon="5.04402">
        <ele>348.6</ele>
        <time>2024-05-17T13:58:26Z</time>
      </trkpt>
      <trkpt lat="44.64621" lon="5.044">
        <ele>348.7</ele>
        <time>2024-05-17T13:58:27Z</time>
      </trkpt>
      <trkpt lat="44.64623" lon="5.04392">
        <ele>348.9</ele>
        <time>2024-05-17T13:58:28Z</time>
      </trkpt>
      <trkpt lat="44.64623" lon="5.0439">
        <ele>349</ele>
        <time>2024-05-17T13:58:29Z</time>
      </trkpt>
      <trkpt lat="44.64625" lon="5.04382">
        <ele>349.1</ele>
        <time>2024-05-17T13:58:30Z</time>
      </trkpt>
      <trkpt lat="44.64626" lon="5.0438">
        <ele>349.2</ele>
        <time>2024-05-17T13:58:31Z</time>
      </trkpt>
      <trkpt lat="44.64628" lon="5.04372">
        <ele>349.4</ele>
        <time>2024-05-17T13:58:32Z</time>
      </trkpt>
      <trkpt lat="44.64628" lon="5.0437">
        <ele>349.5</ele>
        <time>2024-05-17T13:58:33Z</time>
      </trkpt>
      <trkpt lat="44.64629" lon="5.04361">
        <ele>349.7</ele>
        <time>2024-05-17T13:58:34Z</time>
      </trkpt>
      <trkpt lat="44.6463" lon="5.04358">
        <ele>349.7</ele>
        <time>2024-05-17T13:58:35Z</time>
      </trkpt>
      <trkpt lat="44.64631" lon="5.04349">
        <ele>350</ele>
        <time>2024-05-17T13:58:36Z</time>
      </trkpt>
      <trkpt lat="44.64631" lon="5.04346">
        <ele>350</ele>
        <time>2024-05-17T13:58:37Z</time>
      </trkpt>
      <trkpt lat="44.64632" lon="5.04338">
        <ele>350.3</ele>
        <time>2024-05-17T13:58:38Z</time>
      </trkpt>
      <trkpt lat="44.64633" lon="5.04335">
        <ele>350.3</ele>
        <time>2024-05-17T13:58:39Z</time>
      </trkpt>
      <trkpt lat="44.64634" lon="5.04327">
        <ele>350.6</ele>
        <time>2024-05-17T13:58:40Z</time>
      </trkpt>
      <trkpt lat="44.64635" lon="5.04324">
        <ele>350.6</ele>
        <time>2024-05-17T13:58:41Z</time>
      </trkpt>
      <trkpt lat="44.64636" lon="5.04316">
        <ele>350.9</ele>
        <time>2024-05-17T13:58:42Z</time>
      </trkpt>
      <trkpt lat="44.64637" lon="5.04313">
        <ele>351</ele>
        <time>2024-05-17T13:58:43Z</time>
      </trkpt>
      <trkpt lat="44.64638" lon="5.04308">
        <ele>351.2</ele>
        <time>2024-05-17T13:58:44Z</time>
      </trkpt>
      <trkpt lat="44.64639" lon="5.04302">
        <ele>351.4</ele>
        <time>2024-05-17T13:58:45Z</time>
      </trkpt>
      <trkpt lat="44.64641" lon="5.04296">
        <ele>351.6</ele>
        <time>2024-05-17T13:58:46Z</time>
      </trkpt>
      <trkpt lat="44.64643" lon="5.0429">
        <ele>351.7</ele>
        <time>2024-05-17T13:58:47Z</time>
      </trkpt>
      <trkpt lat="44.64644" lon="5.04282">
        <ele>352</ele>
        <time>2024-05-17T13:58:48Z</time>
      </trkpt>
      <trkpt lat="44.64645" lon="5.0428">
        <ele>352</ele>
        <time>2024-05-17T13:58:49Z</time>
      </trkpt>
      <trkpt lat="44.64646" lon="5.04275">
        <ele>352.2</ele>
        <time>2024-05-17T13:58:50Z</time>
      </trkpt>
      <trkpt lat="44.64648" lon="5.0427">
        <ele>352.3</ele>
        <time>2024-05-17T13:58:51Z</time>
      </trkpt>
      <trkpt lat="44.64649" lon="5.04266">
        <ele>352.5</ele>
        <time>2024-05-17T13:58:52Z</time>
      </trkpt>
      <trkpt lat="44.6465" lon="5.04261">
        <ele>352.6</ele>
        <time>2024-05-17T13:58:53Z</time>
      </trkpt>
      <trkpt lat="44.64652" lon="5.04257">
        <ele>352.7</ele>
        <time>2024-05-17T13:58:54Z</time>
      </trkpt>
      <trkpt lat="44.64653" lon="5.04253">
        <ele>352.9</ele>
        <time>2024-05-17T13:58:55Z</time>
      </trkpt>
      <trkpt lat="44.64654" lon="5.04249">
        <ele>353</ele>
        <time>2024-05-17T13:58:56Z</time>
      </trkpt>
      <trkpt lat="44.64655" lon="5.04244">
        <ele>353.1</ele>
        <time>2024-05-17T13:58:57Z</time>
      </trkpt>
      <trkpt lat="44.64657" lon="5.0424">
        <ele>353.3</ele>
        <time>2024-05-17T13:58:58Z</time>
      </trkpt>
      <trkpt lat="44.64658" lon="5.04236">
        <ele>353.4</ele>
        <time>2024-05-17T13:58:59Z</time>
      </trkpt>
      <trkpt lat="44.6466" lon="5.04232">
        <ele>353.5</ele>
        <time>2024-05-17T13:59:00Z</time>
      </trkpt>
      <trkpt lat="44.64661" lon="5.04228">
        <ele>353.6</ele>
        <time>2024-05-17T13:59:01Z</time>
      </trkpt>
      <trkpt lat="44.64662" lon="5.04224">
        <ele>353.8</ele>
        <time>2024-05-17T13:59:02Z</time>
      </trkpt>
      <trkpt lat="44.64664" lon="5.04219">
        <ele>353.9</ele>
        <time>2024-05-17T13:59:03Z</time>
      </trkpt>
      <trkpt lat="44.64666" lon="5.04212">
        <ele>354.1</ele>
        <time>2024-05-17T13:59:04Z</time>
      </trkpt>
      <trkpt lat="44.64666" lon="5.0421">
        <ele>354.2</ele>
        <time>2024-05-17T13:59:05Z</time>
      </trkpt>
      <trkpt lat="44.64668" lon="5.04204">
        <ele>354.4</ele>
        <time>2024-05-17T13:59:06Z</time>
      </trkpt>
      <trkpt lat="44.64669" lon="5.04201">
        <ele>354.4</ele>
        <time>2024-05-17T13:59:07Z</time>
      </trkpt>
      <trkpt lat="44.64671" lon="5.04195">
        <ele>354.6</ele>
        <time>2024-05-17T13:59:08Z</time>
      </trkpt>
      <trkpt lat="44.64672" lon="5.04193">
        <ele>354.7</ele>
        <time>2024-05-17T13:59:09Z</time>
      </trkpt>
      <trkpt lat="44.64674" lon="5.04186">
        <ele>354.9</ele>
        <time>2024-05-17T13:59:10Z</time>
      </trkpt>
      <trkpt lat="44.64674" lon="5.04184">
        <ele>355</ele>
        <time>2024-05-17T13:59:11Z</time>
      </trkpt>
      <trkpt lat="44.64677" lon="5.04178">
        <ele>355.2</ele>
        <time>2024-05-17T13:59:12Z</time>
      </trkpt>
      <trkpt lat="44.64677" lon="5.04176">
        <ele>355.2</ele>
        <time>2024-05-17T13:59:13Z</time>
      </trkpt>
      <trkpt lat="44.64678" lon="5.04174">
        <ele>355.3</ele>
        <time>2024-05-17T13:59:14Z</time>
      </trkpt>
      <trkpt lat="44.64679" lon="5.04172">
        <ele>355.4</ele>
        <time>2024-05-17T13:59:15Z</time>
      </trkpt>
      <trkpt lat="44.64679" lon="5.04171">
        <ele>355.4</ele>
        <time>2024-05-17T13:59:16Z</time>
      </trkpt>
      <trkpt lat="44.64679" lon="5.04171">
        <ele>355.4</ele>
        <time>2024-05-17T13:59:17Z</time>
      </trkpt>
      <trkpt lat="44.64681" lon="5.04159">
        <ele>355.8</ele>
        <time>2024-05-17T14:00:20Z</time>
      </trkpt>
      <trkpt lat="44.64681" lon="5.04155">
        <ele>355.9</ele>
        <time>2024-05-17T14:00:21Z</time>
      </trkpt>
      <trkpt lat="44.64682" lon="5.04152">
        <ele>356</ele>
        <time>2024-05-17T14:00:22Z</time>
      </trkpt>
      <trkpt lat="44.64682" lon="5.04147">
        <ele>356.2</ele>
        <time>2024-05-17T14:00:23Z</time>
      </trkpt>
      <trkpt lat="44.64681" lon="5.0414">
        <ele>356.4</ele>
        <time>2024-05-17T14:00:24Z</time>
      </trkpt>
      <trkpt lat="44.64681" lon="5.04138">
        <ele>356.4</ele>
        <time>2024-05-17T14:00:25Z</time>
      </trkpt>
      <trkpt lat="44.64681" lon="5.04133">
        <ele>356.6</ele>
        <time>2024-05-17T14:00:26Z</time>
      </trkpt>
      <trkpt lat="44.64681" lon="5.04128">
        <ele>356.7</ele>
        <time>2024-05-17T14:00:27Z</time>
      </trkpt>
      <trkpt lat="44.6468" lon="5.04123">
        <ele>356.9</ele>
        <time>2024-05-17T14:00:28Z</time>
      </trkpt>
      <trkpt lat="44.64679" lon="5.04119">
        <ele>357</ele>
        <time>2024-05-17T14:00:29Z</time>
      </trkpt>
      <trkpt lat="44.64678" lon="5.04114">
        <ele>357.2</ele>
        <time>2024-05-17T14:00:30Z</time>
      </trkpt>
      <trkpt lat="44.64676" lon="5.04109">
        <ele>357.4</ele>
        <time>2024-05-17T14:00:31Z</time>
      </trkpt>
      <trkpt lat="44.64675" lon="5.04104">
        <ele>357.5</ele>
        <time>2024-05-17T14:00:32Z</time>
      </trkpt>
      <trkpt lat="44.64674" lon="5.04099">
        <ele>357.7</ele>
        <time>2024-05-17T14:00:33Z</time>
      </trkpt>
      <trkpt lat="44.64672" lon="5.04095">
        <ele>357.9</ele>
        <time>2024-05-17T14:00:34Z</time>
      </trkpt>
      <trkpt lat="44.6467" lon="5.0409">
        <ele>358.1</ele>
        <time>2024-05-17T14:00:35Z</time>
      </trkpt>
      <trkpt lat="44.64668" lon="5.04086">
        <ele>358.3</ele>
        <time>2024-05-17T14:00:36Z</time>
      </trkpt>
      <trkpt lat="44.64666" lon="5.04082">
        <ele>358.4</ele>
        <time>2024-05-17T14:00:37Z</time>
      </trkpt>
      <trkpt lat="44.64665" lon="5.04077">
        <ele>358.6</ele>
        <time>2024-05-17T14:00:38Z</time>
      </trkpt>
      <trkpt lat="44.64663" lon="5.04073">
        <ele>358.8</ele>
        <time>2024-05-17T14:00:39Z</time>
      </trkpt>
      <trkpt lat="44.64661" lon="5.04069">
        <ele>359</ele>
        <time>2024-05-17T14:00:40Z</time>
      </trkpt>
      <trkpt lat="44.64659" lon="5.04065">
        <ele>359.1</ele>
        <time>2024-05-17T14:00:41Z</time>
      </trkpt>
      <trkpt lat="44.64657" lon="5.04061">
        <ele>359.3</ele>
        <time>2024-05-17T14:00:42Z</time>
      </trkpt>
      <trkpt lat="44.64656" lon="5.04057">
        <ele>359.5</ele>
        <time>2024-05-17T14:00:43Z</time>
      </trkpt>
      <trkpt lat="44.64653" lon="5.04053">
        <ele>359.6</ele>
        <time>2024-05-17T14:00:44Z</time>
      </trkpt>
      <trkpt lat="44.64651" lon="5.04049">
        <ele>359.8</ele>
        <time>2024-05-17T14:00:45Z</time>
      </trkpt>
      <trkpt lat="44.6465" lon="5.04045">
        <ele>359.9</ele>
        <time>2024-05-17T14:00:46Z</time>
      </trkpt>
      <trkpt lat="44.64648" lon="5.04041">
        <ele>360.1</ele>
        <time>2024-05-17T14:00:47Z</time>
      </trkpt>
      <trkpt lat="44.64645" lon="5.04035">
        <ele>360.3</ele>
        <time>2024-05-17T14:00:48Z</time>
      </trkpt>
      <trkpt lat="44.64644" lon="5.04033">
        <ele>360.4</ele>
        <time>2024-05-17T14:00:49Z</time>
      </trkpt>
      <trkpt lat="44.64642" lon="5.04027">
        <ele>360.6</ele>
        <time>2024-05-17T14:00:50Z</time>
      </trkpt>
      <trkpt lat="44.64641" lon="5.04025">
        <ele>360.7</ele>
        <time>2024-05-17T14:00:51Z</time>
      </trkpt>
      <trkpt lat="44.64638" lon="5.04019">
        <ele>360.9</ele>
        <time>2024-05-17T14:00:52Z</time>
      </trkpt>
      <trkpt lat="44.64637" lon="5.04017">
        <ele>361</ele>
        <time>2024-05-17T14:00:53Z</time>
      </trkpt>
      <trkpt lat="44.64635" lon="5.04012">
        <ele>361.2</ele>
        <time>2024-05-17T14:00:54Z</time>
      </trkpt>
      <trkpt lat="44.64634" lon="5.0401">
        <ele>361.3</ele>
        <time>2024-05-17T14:00:55Z</time>
      </trkpt>
      <trkpt lat="44.64631" lon="5.04005">
        <ele>361.5</ele>
        <time>2024-05-17T14:00:56Z</time>
      </trkpt>
      <trkpt lat="44.6463" lon="5.04003">
        <ele>361.6</ele>
        <time>2024-05-17T14:00:57Z</time>
      </trkpt>
      <trkpt lat="44.64628" lon="5.03999">
        <ele>361.8</ele>
        <time>2024-05-17T14:00:58Z</time>
      </trkpt>
      <trkpt lat="44.64627" lon="5.03996">
        <ele>361.9</ele>
        <time>2024-05-17T14:00:59Z</time>
      </trkpt>
      <trkpt lat="44.64625" lon="5.03992">
        <ele>362.1</ele>
        <time>2024-05-17T14:01:00Z</time>
      </trkpt>
      <trkpt lat="44.64623" lon="5.03988">
        <ele>362.2</ele>
        <time>2024-05-17T14:01:01Z</time>
      </trkpt>
      <trkpt lat="44.64622" lon="5.03985">
        <ele>362.3</ele>
        <time>2024-05-17T14:01:02Z</time>
      </trkpt>
      <trkpt lat="44.6462" lon="5.03981">
        <ele>362.5</ele>
        <time>2024-05-17T14:01:03Z</time>
      </trkpt>
      <trkpt lat="44.64618" lon="5.03978">
        <ele>362.6</ele>
        <time>2024-05-17T14:01:04Z</time>
      </trkpt>
      <trkpt lat="44.64616" lon="5.03972">
        <ele>362.9</ele>
        <time>2024-05-17T14:01:05Z</time>
      </trkpt>
      <trkpt lat="44.64615" lon="5.0397">
        <ele>363</ele>
        <time>2024-05-17T14:01:06Z</time>
      </trkpt>
      <trkpt lat="44.64613" lon="5.03965">
        <ele>363.2</ele>
        <time>2024-05-17T14:01:07Z</time>
      </trkpt>
      <trkpt lat="44.64612" lon="5.03963">
        <ele>363.3</ele>
        <time>2024-05-17T14:01:08Z</time>
      </trkpt>
      <trkpt lat="44.64611" lon="5.03959">
        <ele>363.4</ele>
        <time>2024-05-17T14:01:09Z</time>
      </trkpt>
      <trkpt lat="44.64609" lon="5.03955">
        <ele>363.6</ele>
        <time>2024-05-17T14:01:10Z</time>
      </trkpt>
      <trkpt lat="44.64607" lon="5.03952">
        <ele>363.8</ele>
        <time>2024-05-17T14:01:11Z</time>
      </trkpt>
      <trkpt lat="44.64605" lon="5.03948">
        <ele>363.9</ele>
        <time>2024-05-17T14:01:12Z</time>
      </trkpt>
      <trkpt lat="44.64604" lon="5.03944">
        <ele>364.1</ele>
        <time>2024-05-17T14:01:13Z</time>
      </trkpt>
      <trkpt lat="44.64602" lon="5.0394">
        <ele>364.2</ele>
        <time>2024-05-17T14:01:14Z</time>
      </trkpt>
      <trkpt lat="44.64601" lon="5.03936">
        <ele>364.4</ele>
        <time>2024-05-17T14:01:15Z</time>
      </trkpt>
      <trkpt lat="44.646" lon="5.03932">
        <ele>364.6</ele>
        <time>2024-05-17T14:01:16Z</time>
      </trkpt>
      <trkpt lat="44.64599" lon="5.03927">
        <ele>364.8</ele>
        <time>2024-05-17T14:01:17Z</time>
      </trkpt>
      <trkpt lat="44.64597" lon="5.03923">
        <ele>365</ele>
        <time>2024-05-17T14:01:18Z</time>
      </trkpt>
      <trkpt lat="44.64596" lon="5.03919">
        <ele>365.2</ele>
        <time>2024-05-17T14:01:19Z</time>
      </trkpt>
      <trkpt lat="44.64596" lon="5.03914">
        <ele>365.4</ele>
        <time>2024-05-17T14:01:20Z</time>
      </trkpt>
      <trkpt lat="44.64595" lon="5.0391">
        <ele>365.6</ele>
        <time>2024-05-17T14:01:21Z</time>
      </trkpt>
      <trkpt lat="44.64595" lon="5.03905">
        <ele>365.8</ele>
        <time>2024-05-17T14:01:22Z</time>
      </trkpt>
      <trkpt lat="44.64594" lon="5.03898">
        <ele>366.1</ele>
        <time>2024-05-17T14:01:23Z</time>
      </trkpt>
      <trkpt lat="44.64594" lon="5.03896">
        <ele>366.2</ele>
        <time>2024-05-17T14:01:24Z</time>
      </trkpt>
      <trkpt lat="44.64594" lon="5.03889">
        <ele>366.4</ele>
        <time>2024-05-17T14:01:25Z</time>
      </trkpt>
      <trkpt lat="44.64594" lon="5.03887">
        <ele>366.5</ele>
        <time>2024-05-17T14:01:26Z</time>
      </trkpt>
      <trkpt lat="44.64595" lon="5.0388">
        <ele>366.8</ele>
        <time>2024-05-17T14:01:27Z</time>
      </trkpt>
      <trkpt lat="44.64595" lon="5.03878">
        <ele>366.9</ele>
        <time>2024-05-17T14:01:28Z</time>
      </trkpt>
      <trkpt lat="44.64597" lon="5.03872">
        <ele>367.1</ele>
        <time>2024-05-17T14:01:29Z</time>
      </trkpt>
      <trkpt lat="44.64597" lon="5.0387">
        <ele>367.2</ele>
        <time>2024-05-17T14:01:30Z</time>
      </trkpt>
      <trkpt lat="44.64599" lon="5.03864">
        <ele>367.5</ele>
        <time>2024-05-17T14:01:31Z</time>
      </trkpt>
      <trkpt lat="44.646" lon="5.03862">
        <ele>367.5</ele>
        <time>2024-05-17T14:01:32Z</time>
      </trkpt>
      <trkpt lat="44.64602" lon="5.03856">
        <ele>367.8</ele>
        <time>2024-05-17T14:01:33Z</time>
      </trkpt>
      <trkpt lat="44.64603" lon="5.03854">
        <ele>367.9</ele>
        <time>2024-05-17T14:01:34Z</time>
      </trkpt>
      <trkpt lat="44.64606" lon="5.03849">
        <ele>368.2</ele>
        <time>2024-05-17T14:01:35Z</time>
      </trkpt>
      <trkpt lat="44.64606" lon="5.03847">
        <ele>368.3</ele>
        <time>2024-05-17T14:01:36Z</time>
      </trkpt>
      <trkpt lat="44.6461" lon="5.03842">
        <ele>368.5</ele>
        <time>2024-05-17T14:01:37Z</time>
      </trkpt>
      <trkpt lat="44.64611" lon="5.03841">
        <ele>368.6</ele>
        <time>2024-05-17T14:01:38Z</time>
      </trkpt>
      <trkpt lat="44.64615" lon="5.03836">
        <ele>368.9</ele>
        <time>2024-05-17T14:01:39Z</time>
      </trkpt>
      <trkpt lat="44.64616" lon="5.03835">
        <ele>369</ele>
        <time>2024-05-17T14:01:40Z</time>
      </trkpt>
      <trkpt lat="44.6462" lon="5.0383">
        <ele>369.3</ele>
        <time>2024-05-17T14:01:41Z</time>
      </trkpt>
      <trkpt lat="44.64621" lon="5.03829">
        <ele>369.4</ele>
        <time>2024-05-17T14:01:42Z</time>
      </trkpt>
      <trkpt lat="44.64625" lon="5.03825">
        <ele>369.7</ele>
        <time>2024-05-17T14:01:43Z</time>
      </trkpt>
      <trkpt lat="44.64626" lon="5.03824">
        <ele>369.8</ele>
        <time>2024-05-17T14:01:44Z</time>
      </trkpt>
      <trkpt lat="44.64629" lon="5.03821">
        <ele>369.9</ele>
        <time>2024-05-17T14:01:45Z</time>
      </trkpt>
      <trkpt lat="44.64632" lon="5.03819">
        <ele>370.1</ele>
        <time>2024-05-17T14:01:46Z</time>
      </trkpt>
      <trkpt lat="44.64635" lon="5.03817">
        <ele>370.3</ele>
        <time>2024-05-17T14:01:47Z</time>
      </trkpt>
      <trkpt lat="44.64638" lon="5.03815">
        <ele>370.4</ele>
        <time>2024-05-17T14:01:48Z</time>
      </trkpt>
      <trkpt lat="44.64641" lon="5.03813">
        <ele>370.6</ele>
        <time>2024-05-17T14:01:49Z</time>
      </trkpt>
      <trkpt lat="44.64644" lon="5.03811">
        <ele>370.8</ele>
        <time>2024-05-17T14:01:50Z</time>
      </trkpt>
      <trkpt lat="44.64649" lon="5.03808">
        <ele>371.1</ele>
        <time>2024-05-17T14:01:51Z</time>
      </trkpt>
      <trkpt lat="44.6465" lon="5.03807">
        <ele>371.1</ele>
        <time>2024-05-17T14:01:52Z</time>
      </trkpt>
      <trkpt lat="44.64653" lon="5.03805">
        <ele>371.3</ele>
        <time>2024-05-17T14:01:53Z</time>
      </trkpt>
      <trkpt lat="44.64657" lon="5.03803">
        <ele>371.5</ele>
        <time>2024-05-17T14:01:54Z</time>
      </trkpt>
      <trkpt lat="44.6466" lon="5.03801">
        <ele>371.7</ele>
        <time>2024-05-17T14:01:55Z</time>
      </trkpt>
      <trkpt lat="44.64663" lon="5.03799">
        <ele>371.8</ele>
        <time>2024-05-17T14:01:56Z</time>
      </trkpt>
      <trkpt lat="44.64666" lon="5.03797">
        <ele>372</ele>
        <time>2024-05-17T14:01:57Z</time>
      </trkpt>
      <trkpt lat="44.64669" lon="5.03795">
        <ele>372.1</ele>
        <time>2024-05-17T14:01:58Z</time>
      </trkpt>
      <trkpt lat="44.64672" lon="5.03793">
        <ele>372.3</ele>
        <time>2024-05-17T14:01:59Z</time>
      </trkpt>
      <trkpt lat="44.64675" lon="5.03791">
        <ele>372.4</ele>
        <time>2024-05-17T14:02:00Z</time>
      </trkpt>
      <trkpt lat="44.64678" lon="5.03789">
        <ele>372.6</ele>
        <time>2024-05-17T14:02:01Z</time>
      </trkpt>
      <trkpt lat="44.64681" lon="5.03787">
        <ele>372.7</ele>
        <time>2024-05-17T14:02:02Z</time>
      </trkpt>
      <trkpt lat="44.64684" lon="5.03785">
        <ele>372.9</ele>
        <time>2024-05-17T14:02:03Z</time>
      </trkpt>
      <trkpt lat="44.64687" lon="5.03783">
        <ele>373</ele>
        <time>2024-05-17T14:02:04Z</time>
      </trkpt>
      <trkpt lat="44.6469" lon="5.03781">
        <ele>373.2</ele>
        <time>2024-05-17T14:02:05Z</time>
      </trkpt>
      <trkpt lat="44.64693" lon="5.03779">
        <ele>373.4</ele>
        <time>2024-05-17T14:02:06Z</time>
      </trkpt>
      <trkpt lat="44.64697" lon="5.03776">
        <ele>373.6</ele>
        <time>2024-05-17T14:02:07Z</time>
      </trkpt>
      <trkpt lat="44.64699" lon="5.03775">
        <ele>373.7</ele>
        <time>2024-05-17T14:02:08Z</time>
      </trkpt>
      <trkpt lat="44.64703" lon="5.03772">
        <ele>373.9</ele>
        <time>2024-05-17T14:02:09Z</time>
      </trkpt>
      <trkpt lat="44.64705" lon="5.03771">
        <ele>374</ele>
        <time>2024-05-17T14:02:10Z</time>
      </trkpt>
      <trkpt lat="44.64709" lon="5.03768">
        <ele>374.2</ele>
        <time>2024-05-17T14:02:11Z</time>
      </trkpt>
      <trkpt lat="44.64711" lon="5.03767">
        <ele>374.2</ele>
        <time>2024-05-17T14:02:12Z</time>
      </trkpt>
      <trkpt lat="44.64715" lon="5.03764">
        <ele>374.4</ele>
        <time>2024-05-17T14:02:13Z</time>
      </trkpt>
      <trkpt lat="44.64717" lon="5.03763">
        <ele>374.5</ele>
        <time>2024-05-17T14:02:14Z</time>
      </trkpt>
      <trkpt lat="44.64721" lon="5.0376">
        <ele>374.7</ele>
        <time>2024-05-17T14:02:15Z</time>
      </trkpt>
      <trkpt lat="44.64723" lon="5.03759">
        <ele>374.8</ele>
        <time>2024-05-17T14:02:16Z</time>
      </trkpt>
      <trkpt lat="44.64727" lon="5.03755">
        <ele>374.9</ele>
        <time>2024-05-17T14:02:17Z</time>
      </trkpt>
      <trkpt lat="44.64729" lon="5.03754">
        <ele>375</ele>
        <time>2024-05-17T14:02:18Z</time>
      </trkpt>
      <trkpt lat="44.64733" lon="5.03751">
        <ele>375.2</ele>
        <time>2024-05-17T14:02:19Z</time>
      </trkpt>
      <trkpt lat="44.64735" lon="5.0375">
        <ele>375.2</ele>
        <time>2024-05-17T14:02:20Z</time>
      </trkpt>
      <trkpt lat="44.64739" lon="5.03746">
        <ele>375.4</ele>
        <time>2024-05-17T14:02:21Z</time>
      </trkpt>
      <trkpt lat="44.64741" lon="5.03745">
        <ele>375.4</ele>
        <time>2024-05-17T14:02:22Z</time>
      </trkpt>
      <trkpt lat="44.64745" lon="5.0374">
        <ele>375.5</ele>
        <time>2024-05-17T14:02:23Z</time>
      </trkpt>
      <trkpt lat="44.64747" lon="5.03739">
        <ele>375.6</ele>
        <time>2024-05-17T14:02:24Z</time>
      </trkpt>
      <trkpt lat="44.64752" lon="5.03735">
        <ele>375.7</ele>
        <time>2024-05-17T14:02:25Z</time>
      </trkpt>
      <trkpt lat="44.64754" lon="5.03733">
        <ele>375.7</ele>
        <time>2024-05-17T14:02:26Z</time>
      </trkpt>
      <trkpt lat="44.64757" lon="5.0373">
        <ele>375.8</ele>
        <time>2024-05-17T14:02:27Z</time>
      </trkpt>
      <trkpt lat="44.64761" lon="5.03727">
        <ele>375.9</ele>
        <time>2024-05-17T14:02:28Z</time>
      </trkpt>
      <trkpt lat="44.64764" lon="5.03724">
        <ele>375.9</ele>
        <time>2024-05-17T14:02:29Z</time>
      </trkpt>
      <trkpt lat="44.64768" lon="5.0372">
        <ele>376</ele>
        <time>2024-05-17T14:02:30Z</time>
      </trkpt>
      <trkpt lat="44.64772" lon="5.03717">
        <ele>376.1</ele>
        <time>2024-05-17T14:02:31Z</time>
      </trkpt>
      <trkpt lat="44.64775" lon="5.03713">
        <ele>376.1</ele>
        <time>2024-05-17T14:02:32Z</time>
      </trkpt>
      <trkpt lat="44.64779" lon="5.0371">
        <ele>376.2</ele>
        <time>2024-05-17T14:02:33Z</time>
      </trkpt>
      <trkpt lat="44.64783" lon="5.03707">
        <ele>376.3</ele>
        <time>2024-05-17T14:02:34Z</time>
      </trkpt>
      <trkpt lat="44.64789" lon="5.03701">
        <ele>376.4</ele>
        <time>2024-05-17T14:02:35Z</time>
      </trkpt>
      <trkpt lat="44.64791" lon="5.037">
        <ele>376.5</ele>
        <time>2024-05-17T14:02:36Z</time>
      </trkpt>
      <trkpt lat="44.64796" lon="5.03694">
        <ele>376.6</ele>
        <time>2024-05-17T14:02:37Z</time>
      </trkpt>
      <trkpt lat="44.64798" lon="5.03693">
        <ele>376.6</ele>
        <time>2024-05-17T14:02:38Z</time>
      </trkpt>
      <trkpt lat="44.64802" lon="5.03689">
        <ele>376.7</ele>
        <time>2024-05-17T14:02:39Z</time>
      </trkpt>
      <trkpt lat="44.64806" lon="5.03686">
        <ele>376.8</ele>
        <time>2024-05-17T14:02:40Z</time>
      </trkpt>
      <trkpt lat="44.6481" lon="5.03682">
        <ele>376.9</ele>
        <time>2024-05-17T14:02:41Z</time>
      </trkpt>
      <trkpt lat="44.64813" lon="5.03678">
        <ele>376.9</ele>
        <time>2024-05-17T14:02:42Z</time>
      </trkpt>
      <trkpt lat="44.64817" lon="5.03674">
        <ele>377</ele>
        <time>2024-05-17T14:02:43Z</time>
      </trkpt>
      <trkpt lat="44.64823" lon="5.03668">
        <ele>377.2</ele>
        <time>2024-05-17T14:02:44Z</time>
      </trkpt>
      <trkpt lat="44.64825" lon="5.03666">
        <ele>377.3</ele>
        <time>2024-05-17T14:02:45Z</time>
      </trkpt>
      <trkpt lat="44.64829" lon="5.03662">
        <ele>377.4</ele>
        <time>2024-05-17T14:02:46Z</time>
      </trkpt>
      <trkpt lat="44.64832" lon="5.03657">
        <ele>377.5</ele>
        <time>2024-05-17T14:02:47Z</time>
      </trkpt>
      <trkpt lat="44.64836" lon="5.03653">
        <ele>377.7</ele>
        <time>2024-05-17T14:02:48Z</time>
      </trkpt>
      <trkpt lat="44.64839" lon="5.03648">
        <ele>377.8</ele>
        <time>2024-05-17T14:02:49Z</time>
      </trkpt>
      <trkpt lat="44.64842" lon="5.03643">
        <ele>377.9</ele>
        <time>2024-05-17T14:02:50Z</time>
      </trkpt>
      <trkpt lat="44.64847" lon="5.03635">
        <ele>378.1</ele>
        <time>2024-05-17T14:02:51Z</time>
      </trkpt>
      <trkpt lat="44.64848" lon="5.03632">
        <ele>378.2</ele>
        <time>2024-05-17T14:02:52Z</time>
      </trkpt>
      <trkpt lat="44.64853" lon="5.03625">
        <ele>378.4</ele>
        <time>2024-05-17T14:02:53Z</time>
      </trkpt>
      <trkpt lat="44.64854" lon="5.03622">
        <ele>378.5</ele>
        <time>2024-05-17T14:02:54Z</time>
      </trkpt>
      <trkpt lat="44.64859" lon="5.03614">
        <ele>378.7</ele>
        <time>2024-05-17T14:02:55Z</time>
      </trkpt>
      <trkpt lat="44.6486" lon="5.03612">
        <ele>378.7</ele>
        <time>2024-05-17T14:02:56Z</time>
      </trkpt>
      <trkpt lat="44.64863" lon="5.03607">
        <ele>378.9</ele>
        <time>2024-05-17T14:02:57Z</time>
      </trkpt>
      <trkpt lat="44.64866" lon="5.03602">
        <ele>379</ele>
        <time>2024-05-17T14:02:58Z</time>
      </trkpt>
      <trkpt lat="44.64871" lon="5.03595">
        <ele>379.2</ele>
        <time>2024-05-17T14:02:59Z</time>
      </trkpt>
      <trkpt lat="44.64872" lon="5.03592">
        <ele>379.3</ele>
        <time>2024-05-17T14:03:00Z</time>
      </trkpt>
      <trkpt lat="44.64877" lon="5.03585">
        <ele>379.4</ele>
        <time>2024-05-17T14:03:01Z</time>
      </trkpt>
      <trkpt lat="44.64878" lon="5.03583">
        <ele>379.5</ele>
        <time>2024-05-17T14:03:02Z</time>
      </trkpt>
      <trkpt lat="44.64883" lon="5.03574">
        <ele>379.7</ele>
        <time>2024-05-17T14:03:03Z</time>
      </trkpt>
      <trkpt lat="44.64884" lon="5.03572">
        <ele>379.8</ele>
        <time>2024-05-17T14:03:04Z</time>
      </trkpt>
      <trkpt lat="44.64888" lon="5.03564">
        <ele>380</ele>
        <time>2024-05-17T14:03:05Z</time>
      </trkpt>
      <trkpt lat="44.6489" lon="5.03561">
        <ele>380.1</ele>
        <time>2024-05-17T14:03:06Z</time>
      </trkpt>
      <trkpt lat="44.64893" lon="5.03553">
        <ele>380.3</ele>
        <time>2024-05-17T14:03:07Z</time>
      </trkpt>
      <trkpt lat="44.64895" lon="5.03551">
        <ele>380.3</ele>
        <time>2024-05-17T14:03:08Z</time>
      </trkpt>
      <trkpt lat="44.64898" lon="5.03543">
        <ele>380.5</ele>
        <time>2024-05-17T14:03:09Z</time>
      </trkpt>
      <trkpt lat="44.649" lon="5.03541">
        <ele>380.6</ele>
        <time>2024-05-17T14:03:10Z</time>
      </trkpt>
      <trkpt lat="44.64903" lon="5.03533">
        <ele>380.8</ele>
        <time>2024-05-17T14:03:11Z</time>
      </trkpt>
      <trkpt lat="44.64905" lon="5.03531">
        <ele>380.8</ele>
        <time>2024-05-17T14:03:12Z</time>
      </trkpt>
      <trkpt lat="44.64907" lon="5.03526">
        <ele>381</ele>
        <time>2024-05-17T14:03:13Z</time>
      </trkpt>
      <trkpt lat="44.6491" lon="5.03521">
        <ele>381.1</ele>
        <time>2024-05-17T14:03:14Z</time>
      </trkpt>
      <trkpt lat="44.64913" lon="5.03517">
        <ele>381.2</ele>
        <time>2024-05-17T14:03:15Z</time>
      </trkpt>
      <trkpt lat="44.64916" lon="5.03512">
        <ele>381.3</ele>
        <time>2024-05-17T14:03:16Z</time>
      </trkpt>
      <trkpt lat="44.6492" lon="5.03505">
        <ele>381.5</ele>
        <time>2024-05-17T14:03:17Z</time>
      </trkpt>
      <trkpt lat="44.64922" lon="5.03503">
        <ele>381.6</ele>
        <time>2024-05-17T14:03:18Z</time>
      </trkpt>
      <trkpt lat="44.64926" lon="5.03495">
        <ele>381.8</ele>
        <time>2024-05-17T14:03:19Z</time>
      </trkpt>
      <trkpt lat="44.64928" lon="5.03493">
        <ele>381.9</ele>
        <time>2024-05-17T14:03:20Z</time>
      </trkpt>
      <trkpt lat="44.64931" lon="5.03488">
        <ele>382</ele>
        <time>2024-05-17T14:03:21Z</time>
      </trkpt>
      <trkpt lat="44.64934" lon="5.03484">
        <ele>382.1</ele>
        <time>2024-05-17T14:03:22Z</time>
      </trkpt>
      <trkpt lat="44.64937" lon="5.03479">
        <ele>382.2</ele>
        <time>2024-05-17T14:03:23Z</time>
      </trkpt>
      <trkpt lat="44.6494" lon="5.03474">
        <ele>382.4</ele>
        <time>2024-05-17T14:03:24Z</time>
      </trkpt>
      <trkpt lat="44.64944" lon="5.0347">
        <ele>382.5</ele>
        <time>2024-05-17T14:03:25Z</time>
      </trkpt>
      <trkpt lat="44.64947" lon="5.03465">
        <ele>382.6</ele>
        <time>2024-05-17T14:03:26Z</time>
      </trkpt>
      <trkpt lat="44.6495" lon="5.0346">
        <ele>382.7</ele>
        <time>2024-05-17T14:03:27Z</time>
      </trkpt>
      <trkpt lat="44.64953" lon="5.03456">
        <ele>382.8</ele>
        <time>2024-05-17T14:03:28Z</time>
      </trkpt>
      <trkpt lat="44.64957" lon="5.03452">
        <ele>382.9</ele>
        <time>2024-05-17T14:03:29Z</time>
      </trkpt>
      <trkpt lat="44.6496" lon="5.03448">
        <ele>383</ele>
        <time>2024-05-17T14:03:30Z</time>
      </trkpt>
      <trkpt lat="44.64963" lon="5.03444">
        <ele>383.1</ele>
        <time>2024-05-17T14:03:31Z</time>
      </trkpt>
      <trkpt lat="44.64967" lon="5.0344">
        <ele>383.2</ele>
        <time>2024-05-17T14:03:32Z</time>
      </trkpt>
      <trkpt lat="44.6497" lon="5.03437">
        <ele>383.3</ele>
        <time>2024-05-17T14:03:33Z</time>
      </trkpt>
      <trkpt lat="44.64974" lon="5.03433">
        <ele>383.3</ele>
        <time>2024-05-17T14:03:34Z</time>
      </trkpt>
      <trkpt lat="44.64979" lon="5.03428">
        <ele>383.5</ele>
        <time>2024-05-17T14:03:35Z</time>
      </trkpt>
      <trkpt lat="44.64981" lon="5.03426">
        <ele>383.5</ele>
        <time>2024-05-17T14:03:36Z</time>
      </trkpt>
      <trkpt lat="44.64986" lon="5.03421">
        <ele>383.7</ele>
        <time>2024-05-17T14:03:37Z</time>
      </trkpt>
      <trkpt lat="44.64988" lon="5.03419">
        <ele>383.7</ele>
        <time>2024-05-17T14:03:38Z</time>
      </trkpt>
      <trkpt lat="44.64994" lon="5.03414">
        <ele>383.9</ele>
        <time>2024-05-17T14:03:39Z</time>
      </trkpt>
      <trkpt lat="44.64996" lon="5.03412">
        <ele>384</ele>
        <time>2024-05-17T14:03:40Z</time>
      </trkpt>
      <trkpt lat="44.64999" lon="5.03409">
        <ele>384.1</ele>
        <time>2024-05-17T14:03:41Z</time>
      </trkpt>
      <trkpt lat="44.65005" lon="5.03403">
        <ele>384.2</ele>
        <time>2024-05-17T14:03:42Z</time>
      </trkpt>
      <trkpt lat="44.65007" lon="5.03402">
        <ele>384.3</ele>
        <time>2024-05-17T14:03:43Z</time>
      </trkpt>
      <trkpt lat="44.65011" lon="5.03398">
        <ele>384.4</ele>
        <time>2024-05-17T14:03:44Z</time>
      </trkpt>
      <trkpt lat="44.65015" lon="5.03394">
        <ele>384.5</ele>
        <time>2024-05-17T14:03:45Z</time>
      </trkpt>
      <trkpt lat="44.6502" lon="5.03388">
        <ele>384.6</ele>
        <time>2024-05-17T14:03:46Z</time>
      </trkpt>
      <trkpt lat="44.65022" lon="5.03387">
        <ele>384.7</ele>
        <time>2024-05-17T14:03:47Z</time>
      </trkpt>
      <trkpt lat="44.65028" lon="5.03381">
        <ele>384.9</ele>
        <time>2024-05-17T14:03:48Z</time>
      </trkpt>
      <trkpt lat="44.65029" lon="5.03379">
        <ele>384.9</ele>
        <time>2024-05-17T14:03:49Z</time>
      </trkpt>
      <trkpt lat="44.65035" lon="5.03373">
        <ele>385.1</ele>
        <time>2024-05-17T14:03:50Z</time>
      </trkpt>
      <trkpt lat="44.65037" lon="5.03372">
        <ele>385.2</ele>
        <time>2024-05-17T14:03:51Z</time>
      </trkpt>
      <trkpt lat="44.65042" lon="5.03367">
        <ele>385.4</ele>
        <time>2024-05-17T14:03:52Z</time>
      </trkpt>
      <trkpt lat="44.65044" lon="5.03365">
        <ele>385.5</ele>
        <time>2024-05-17T14:03:53Z</time>
      </trkpt>
      <trkpt lat="44.6505" lon="5.03361">
        <ele>385.7</ele>
        <time>2024-05-17T14:03:54Z</time>
      </trkpt>
      <trkpt lat="44.65052" lon="5.03359">
        <ele>385.8</ele>
        <time>2024-05-17T14:03:55Z</time>
      </trkpt>
      <trkpt lat="44.65055" lon="5.03356">
        <ele>385.9</ele>
        <time>2024-05-17T14:03:56Z</time>
      </trkpt>
      <trkpt lat="44.65059" lon="5.03353">
        <ele>386.1</ele>
        <time>2024-05-17T14:03:57Z</time>
      </trkpt>
      <trkpt lat="44.65063" lon="5.0335">
        <ele>386.2</ele>
        <time>2024-05-17T14:03:58Z</time>
      </trkpt>
      <trkpt lat="44.65068" lon="5.03347">
        <ele>386.4</ele>
        <time>2024-05-17T14:03:59Z</time>
      </trkpt>
      <trkpt lat="44.6507" lon="5.03345">
        <ele>386.5</ele>
        <time>2024-05-17T14:04:00Z</time>
      </trkpt>
      <trkpt lat="44.65076" lon="5.03342">
        <ele>386.7</ele>
        <time>2024-05-17T14:04:01Z</time>
      </trkpt>
      <trkpt lat="44.65078" lon="5.03341">
        <ele>386.7</ele>
        <time>2024-05-17T14:04:02Z</time>
      </trkpt>
      <trkpt lat="44.65083" lon="5.03338">
        <ele>386.9</ele>
        <time>2024-05-17T14:04:03Z</time>
      </trkpt>
      <trkpt lat="44.65085" lon="5.03337">
        <ele>387</ele>
        <time>2024-05-17T14:04:04Z</time>
      </trkpt>
      <trkpt lat="44.65089" lon="5.03335">
        <ele>387.1</ele>
        <time>2024-05-17T14:04:05Z</time>
      </trkpt>
      <trkpt lat="44.65093" lon="5.03333">
        <ele>387.3</ele>
        <time>2024-05-17T14:04:06Z</time>
      </trkpt>
      <trkpt lat="44.65097" lon="5.03331">
        <ele>387.4</ele>
        <time>2024-05-17T14:04:07Z</time>
      </trkpt>
      <trkpt lat="44.65101" lon="5.03329">
        <ele>387.5</ele>
        <time>2024-05-17T14:04:08Z</time>
      </trkpt>
      <trkpt lat="44.65105" lon="5.03327">
        <ele>387.7</ele>
        <time>2024-05-17T14:04:09Z</time>
      </trkpt>
      <trkpt lat="44.65109" lon="5.03326">
        <ele>387.8</ele>
        <time>2024-05-17T14:04:10Z</time>
      </trkpt>
      <trkpt lat="44.65113" lon="5.03325">
        <ele>387.9</ele>
        <time>2024-05-17T14:04:11Z</time>
      </trkpt>
      <trkpt lat="44.65117" lon="5.03324">
        <ele>388.1</ele>
        <time>2024-05-17T14:04:12Z</time>
      </trkpt>
      <trkpt lat="44.65123" lon="5.03321">
        <ele>388.3</ele>
        <time>2024-05-17T14:04:13Z</time>
      </trkpt>
      <trkpt lat="44.65125" lon="5.0332">
        <ele>388.4</ele>
        <time>2024-05-17T14:04:14Z</time>
      </trkpt>
      <trkpt lat="44.65129" lon="5.03319">
        <ele>388.5</ele>
        <time>2024-05-17T14:04:15Z</time>
      </trkpt>
      <trkpt lat="44.65134" lon="5.03318">
        <ele>388.7</ele>
        <time>2024-05-17T14:04:16Z</time>
      </trkpt>
      <trkpt lat="44.65138" lon="5.03316">
        <ele>388.8</ele>
        <time>2024-05-17T14:04:17Z</time>
      </trkpt>
      <trkpt lat="44.65142" lon="5.03313">
        <ele>389</ele>
        <time>2024-05-17T14:04:18Z</time>
      </trkpt>
      <trkpt lat="44.65147" lon="5.0331">
        <ele>389.2</ele>
        <time>2024-05-17T14:04:19Z</time>
      </trkpt>
      <trkpt lat="44.65149" lon="5.03309">
        <ele>389.3</ele>
        <time>2024-05-17T14:04:20Z</time>
      </trkpt>
      <trkpt lat="44.65155" lon="5.03307">
        <ele>389.5</ele>
        <time>2024-05-17T14:04:21Z</time>
      </trkpt>
      <trkpt lat="44.65158" lon="5.03306">
        <ele>389.6</ele>
        <time>2024-05-17T14:04:22Z</time>
      </trkpt>
      <trkpt lat="44.65164" lon="5.03303">
        <ele>389.8</ele>
        <time>2024-05-17T14:04:23Z</time>
      </trkpt>
      <trkpt lat="44.65166" lon="5.03302">
        <ele>389.9</ele>
        <time>2024-05-17T14:04:24Z</time>
      </trkpt>
      <trkpt lat="44.65173" lon="5.03299">
        <ele>390.1</ele>
        <time>2024-05-17T14:04:25Z</time>
      </trkpt>
      <trkpt lat="44.65175" lon="5.03299">
        <ele>390.1</ele>
        <time>2024-05-17T14:04:26Z</time>
      </trkpt>
      <trkpt lat="44.65182" lon="5.03296">
        <ele>390.3</ele>
        <time>2024-05-17T14:04:27Z</time>
      </trkpt>
      <trkpt lat="44.65184" lon="5.03295">
        <ele>390.4</ele>
        <time>2024-05-17T14:04:28Z</time>
      </trkpt>
      <trkpt lat="44.65191" lon="5.03292">
        <ele>390.6</ele>
        <time>2024-05-17T14:04:29Z</time>
      </trkpt>
      <trkpt lat="44.65193" lon="5.03291">
        <ele>390.7</ele>
        <time>2024-05-17T14:04:30Z</time>
      </trkpt>
      <trkpt lat="44.652" lon="5.03287">
        <ele>390.8</ele>
        <time>2024-05-17T14:04:31Z</time>
      </trkpt>
      <trkpt lat="44.65202" lon="5.03285">
        <ele>390.9</ele>
        <time>2024-05-17T14:04:32Z</time>
      </trkpt>
      <trkpt lat="44.65208" lon="5.03281">
        <ele>391</ele>
        <time>2024-05-17T14:04:33Z</time>
      </trkpt>
      <trkpt lat="44.65211" lon="5.03279">
        <ele>391.1</ele>
        <time>2024-05-17T14:04:34Z</time>
      </trkpt>
      <trkpt lat="44.65217" lon="5.03273">
        <ele>391.2</ele>
        <time>2024-05-17T14:04:35Z</time>
      </trkpt>
      <trkpt lat="44.65219" lon="5.03271">
        <ele>391.2</ele>
        <time>2024-05-17T14:04:36Z</time>
      </trkpt>
      <trkpt lat="44.65222" lon="5.03267">
        <ele>391.3</ele>
        <time>2024-05-17T14:04:37Z</time>
      </trkpt>
      <trkpt lat="44.65226" lon="5.03262">
        <ele>391.4</ele>
        <time>2024-05-17T14:04:38Z</time>
      </trkpt>
      <trkpt lat="44.65229" lon="5.03256">
        <ele>391.4</ele>
        <time>2024-05-17T14:04:39Z</time>
      </trkpt>
      <trkpt lat="44.65233" lon="5.03251">
        <ele>391.5</ele>
        <time>2024-05-17T14:04:40Z</time>
      </trkpt>
      <trkpt lat="44.65236" lon="5.03247">
        <ele>391.6</ele>
        <time>2024-05-17T14:04:41Z</time>
      </trkpt>
      <trkpt lat="44.6524" lon="5.03242">
        <ele>391.7</ele>
        <time>2024-05-17T14:04:42Z</time>
      </trkpt>
      <trkpt lat="44.65245" lon="5.03235">
        <ele>391.9</ele>
        <time>2024-05-17T14:04:43Z</time>
      </trkpt>
      <trkpt lat="44.65247" lon="5.03233">
        <ele>391.9</ele>
        <time>2024-05-17T14:04:44Z</time>
      </trkpt>
      <trkpt lat="44.65252" lon="5.03226">
        <ele>392.1</ele>
        <time>2024-05-17T14:04:45Z</time>
      </trkpt>
      <trkpt lat="44.65254" lon="5.03224">
        <ele>392.2</ele>
        <time>2024-05-17T14:04:46Z</time>
      </trkpt>
      <trkpt lat="44.65257" lon="5.0322">
        <ele>392.4</ele>
        <time>2024-05-17T14:04:47Z</time>
      </trkpt>
      <trkpt lat="44.65261" lon="5.03215">
        <ele>392.5</ele>
        <time>2024-05-17T14:04:48Z</time>
      </trkpt>
      <trkpt lat="44.65264" lon="5.0321">
        <ele>392.7</ele>
        <time>2024-05-17T14:04:49Z</time>
      </trkpt>
      <trkpt lat="44.65269" lon="5.03203">
        <ele>392.9</ele>
        <time>2024-05-17T14:04:50Z</time>
      </trkpt>
      <trkpt lat="44.6527" lon="5.03201">
        <ele>392.9</ele>
        <time>2024-05-17T14:04:51Z</time>
      </trkpt>
      <trkpt lat="44.65273" lon="5.03196">
        <ele>393.1</ele>
        <time>2024-05-17T14:04:52Z</time>
      </trkpt>
      <trkpt lat="44.65276" lon="5.0319">
        <ele>393.2</ele>
        <time>2024-05-17T14:04:53Z</time>
      </trkpt>
      <trkpt lat="44.65279" lon="5.03184">
        <ele>393.3</ele>
        <time>2024-05-17T14:04:54Z</time>
      </trkpt>
      <trkpt lat="44.65282" lon="5.03179">
        <ele>393.4</ele>
        <time>2024-05-17T14:04:55Z</time>
      </trkpt>
      <trkpt lat="44.65284" lon="5.03173">
        <ele>393.5</ele>
        <time>2024-05-17T14:04:56Z</time>
      </trkpt>
      <trkpt lat="44.65287" lon="5.03164">
        <ele>393.7</ele>
        <time>2024-05-17T14:04:57Z</time>
      </trkpt>
      <trkpt lat="44.65288" lon="5.03161">
        <ele>393.7</ele>
        <time>2024-05-17T14:04:58Z</time>
      </trkpt>
      <trkpt lat="44.65292" lon="5.03153">
        <ele>393.8</ele>
        <time>2024-05-17T14:04:59Z</time>
      </trkpt>
      <trkpt lat="44.65293" lon="5.0315">
        <ele>393.9</ele>
        <time>2024-05-17T14:05:00Z</time>
      </trkpt>
      <trkpt lat="44.65295" lon="5.0314">
        <ele>394</ele>
        <time>2024-05-17T14:05:01Z</time>
      </trkpt>
      <trkpt lat="44.65296" lon="5.03137">
        <ele>394.1</ele>
        <time>2024-05-17T14:05:02Z</time>
      </trkpt>
      <trkpt lat="44.65298" lon="5.03128">
        <ele>394.2</ele>
        <time>2024-05-17T14:05:03Z</time>
      </trkpt>
      <trkpt lat="44.65298" lon="5.03125">
        <ele>394.2</ele>
        <time>2024-05-17T14:05:04Z</time>
      </trkpt>
      <trkpt lat="44.653" lon="5.03115">
        <ele>394.4</ele>
        <time>2024-05-17T14:05:05Z</time>
      </trkpt>
      <trkpt lat="44.653" lon="5.03112">
        <ele>394.5</ele>
        <time>2024-05-17T14:05:06Z</time>
      </trkpt>
      <trkpt lat="44.65301" lon="5.03102">
        <ele>394.6</ele>
        <time>2024-05-17T14:05:07Z</time>
      </trkpt>
      <trkpt lat="44.65302" lon="5.03099">
        <ele>394.7</ele>
        <time>2024-05-17T14:05:08Z</time>
      </trkpt>
      <trkpt lat="44.65302" lon="5.0309">
        <ele>394.8</ele>
        <time>2024-05-17T14:05:09Z</time>
      </trkpt>
      <trkpt lat="44.65302" lon="5.03087">
        <ele>394.9</ele>
        <time>2024-05-17T14:05:10Z</time>
      </trkpt>
      <trkpt lat="44.65303" lon="5.03077">
        <ele>395.1</ele>
        <time>2024-05-17T14:05:11Z</time>
      </trkpt>
      <trkpt lat="44.65303" lon="5.03074">
        <ele>395.2</ele>
        <time>2024-05-17T14:05:12Z</time>
      </trkpt>
      <trkpt lat="44.65303" lon="5.03064">
        <ele>395.4</ele>
        <time>2024-05-17T14:05:13Z</time>
      </trkpt>
      <trkpt lat="44.65303" lon="5.03061">
        <ele>395.4</ele>
        <time>2024-05-17T14:05:14Z</time>
      </trkpt>
      <trkpt lat="44.65303" lon="5.03051">
        <ele>395.6</ele>
        <time>2024-05-17T14:05:15Z</time>
      </trkpt>
      <trkpt lat="44.65303" lon="5.03048">
        <ele>395.7</ele>
        <time>2024-05-17T14:05:16Z</time>
      </trkpt>
      <trkpt lat="44.65302" lon="5.03037">
        <ele>395.8</ele>
        <time>2024-05-17T14:05:17Z</time>
      </trkpt>
      <trkpt lat="44.65302" lon="5.03034">
        <ele>395.9</ele>
        <time>2024-05-17T14:05:18Z</time>
      </trkpt>
      <trkpt lat="44.653" lon="5.03024">
        <ele>396.1</ele>
        <time>2024-05-17T14:05:19Z</time>
      </trkpt>
      <trkpt lat="44.65299" lon="5.0302">
        <ele>396.1</ele>
        <time>2024-05-17T14:05:20Z</time>
      </trkpt>
      <trkpt lat="44.65297" lon="5.0301">
        <ele>396.3</ele>
        <time>2024-05-17T14:05:21Z</time>
      </trkpt>
      <trkpt lat="44.65296" lon="5.03007">
        <ele>396.4</ele>
        <time>2024-05-17T14:05:22Z</time>
      </trkpt>
      <trkpt lat="44.65294" lon="5.03001">
        <ele>396.5</ele>
        <time>2024-05-17T14:05:23Z</time>
      </trkpt>
      <trkpt lat="44.65292" lon="5.02994">
        <ele>396.7</ele>
        <time>2024-05-17T14:05:24Z</time>
      </trkpt>
      <trkpt lat="44.65289" lon="5.02989">
        <ele>396.8</ele>
        <time>2024-05-17T14:05:25Z</time>
      </trkpt>
      <trkpt lat="44.65286" lon="5.02983">
        <ele>396.9</ele>
        <time>2024-05-17T14:05:26Z</time>
      </trkpt>
      <trkpt lat="44.65281" lon="5.02975">
        <ele>397.1</ele>
        <time>2024-05-17T14:05:27Z</time>
      </trkpt>
      <trkpt lat="44.65279" lon="5.02973">
        <ele>397.1</ele>
        <time>2024-05-17T14:05:28Z</time>
      </trkpt>
      <trkpt lat="44.65273" lon="5.02966">
        <ele>397.3</ele>
        <time>2024-05-17T14:05:29Z</time>
      </trkpt>
      <trkpt lat="44.65272" lon="5.02964">
        <ele>397.3</ele>
        <time>2024-05-17T14:05:30Z</time>
      </trkpt>
      <trkpt lat="44.65268" lon="5.02959">
        <ele>397.4</ele>
        <time>2024-05-17T14:05:31Z</time>
      </trkpt>
      <trkpt lat="44.65264" lon="5.02955">
        <ele>397.5</ele>
        <time>2024-05-17T14:05:32Z</time>
      </trkpt>
      <trkpt lat="44.6526" lon="5.02951">
        <ele>397.6</ele>
        <time>2024-05-17T14:05:33Z</time>
      </trkpt>
      <trkpt lat="44.65256" lon="5.02947">
        <ele>397.6</ele>
        <time>2024-05-17T14:05:34Z</time>
      </trkpt>
      <trkpt lat="44.65252" lon="5.02943">
        <ele>397.7</ele>
        <time>2024-05-17T14:05:35Z</time>
      </trkpt>
      <trkpt lat="44.65247" lon="5.02939">
        <ele>397.8</ele>
        <time>2024-05-17T14:05:36Z</time>
      </trkpt>
      <trkpt lat="44.65243" lon="5.02935">
        <ele>397.9</ele>
        <time>2024-05-17T14:05:37Z</time>
      </trkpt>
      <trkpt lat="44.6524" lon="5.0293">
        <ele>397.9</ele>
        <time>2024-05-17T14:05:38Z</time>
      </trkpt>
      <trkpt lat="44.65236" lon="5.02925">
        <ele>398</ele>
        <time>2024-05-17T14:05:39Z</time>
      </trkpt>
      <trkpt lat="44.6523" lon="5.02918">
        <ele>398.1</ele>
        <time>2024-05-17T14:05:40Z</time>
      </trkpt>
      <trkpt lat="44.65228" lon="5.02916">
        <ele>398.2</ele>
        <time>2024-05-17T14:05:41Z</time>
      </trkpt>
      <trkpt lat="44.65223" lon="5.0291">
        <ele>398.3</ele>
        <time>2024-05-17T14:05:42Z</time>
      </trkpt>
      <trkpt lat="44.65221" lon="5.02909">
        <ele>398.3</ele>
        <time>2024-05-17T14:05:43Z</time>
      </trkpt>
      <trkpt lat="44.65217" lon="5.02905">
        <ele>398.4</ele>
        <time>2024-05-17T14:05:44Z</time>
      </trkpt>
      <trkpt lat="44.65214" lon="5.02901">
        <ele>398.4</ele>
        <time>2024-05-17T14:05:45Z</time>
      </trkpt>
      <trkpt lat="44.65208" lon="5.02894">
        <ele>398.6</ele>
        <time>2024-05-17T14:05:46Z</time>
      </trkpt>
      <trkpt lat="44.65207" lon="5.02892">
        <ele>398.6</ele>
        <time>2024-05-17T14:05:47Z</time>
      </trkpt>
      <trkpt lat="44.65202" lon="5.02885">
        <ele>398.7</ele>
        <time>2024-05-17T14:05:48Z</time>
      </trkpt>
      <trkpt lat="44.652" lon="5.02883">
        <ele>398.7</ele>
        <time>2024-05-17T14:05:49Z</time>
      </trkpt>
      <trkpt lat="44.65198" lon="5.02878">
        <ele>398.8</ele>
        <time>2024-05-17T14:05:50Z</time>
      </trkpt>
      <trkpt lat="44.65194" lon="5.02871">
        <ele>399</ele>
        <time>2024-05-17T14:05:51Z</time>
      </trkpt>
      <trkpt lat="44.65193" lon="5.02868">
        <ele>399</ele>
        <time>2024-05-17T14:05:52Z</time>
      </trkpt>
      <trkpt lat="44.65189" lon="5.02861">
        <ele>399.2</ele>
        <time>2024-05-17T14:05:53Z</time>
      </trkpt>
      <trkpt lat="44.65187" lon="5.02859">
        <ele>399.2</ele>
        <time>2024-05-17T14:05:54Z</time>
      </trkpt>
      <trkpt lat="44.65183" lon="5.02851">
        <ele>399.4</ele>
        <time>2024-05-17T14:05:55Z</time>
      </trkpt>
      <trkpt lat="44.65182" lon="5.02849">
        <ele>399.5</ele>
        <time>2024-05-17T14:05:56Z</time>
      </trkpt>
      <trkpt lat="44.65179" lon="5.02841">
        <ele>399.6</ele>
        <time>2024-05-17T14:05:57Z</time>
      </trkpt>
      <trkpt lat="44.65177" lon="5.02839">
        <ele>399.7</ele>
        <time>2024-05-17T14:05:58Z</time>
      </trkpt>
      <trkpt lat="44.65174" lon="5.02832">
        <ele>399.8</ele>
        <time>2024-05-17T14:05:59Z</time>
      </trkpt>
      <trkpt lat="44.65173" lon="5.0283">
        <ele>399.9</ele>
        <time>2024-05-17T14:06:00Z</time>
      </trkpt>
      <trkpt lat="44.6517" lon="5.02822">
        <ele>399.9</ele>
        <time>2024-05-17T14:06:01Z</time>
      </trkpt>
      <trkpt lat="44.65169" lon="5.02819">
        <ele>399.9</ele>
        <time>2024-05-17T14:06:02Z</time>
      </trkpt>
      <trkpt lat="44.65167" lon="5.02814">
        <ele>399.9</ele>
        <time>2024-05-17T14:06:03Z</time>
      </trkpt>
      <trkpt lat="44.65165" lon="5.02808">
        <ele>399.9</ele>
        <time>2024-05-17T14:06:04Z</time>
      </trkpt>
      <trkpt lat="44.65162" lon="5.02804">
        <ele>399.9</ele>
        <time>2024-05-17T14:06:05Z</time>
      </trkpt>
      <trkpt lat="44.6516" lon="5.02799">
        <ele>399.9</ele>
        <time>2024-05-17T14:06:06Z</time>
      </trkpt>
      <trkpt lat="44.65158" lon="5.02795">
        <ele>399.9</ele>
        <time>2024-05-17T14:06:07Z</time>
      </trkpt>
      <trkpt lat="44.65156" lon="5.0279">
        <ele>400</ele>
        <time>2024-05-17T14:06:08Z</time>
      </trkpt>
      <trkpt lat="44.65153" lon="5.02783">
        <ele>400</ele>
        <time>2024-05-17T14:06:09Z</time>
      </trkpt>
      <trkpt lat="44.65152" lon="5.02781">
        <ele>400.1</ele>
        <time>2024-05-17T14:06:10Z</time>
      </trkpt>
      <trkpt lat="44.65149" lon="5.02774">
        <ele>400.2</ele>
        <time>2024-05-17T14:06:11Z</time>
      </trkpt>
      <trkpt lat="44.65148" lon="5.02772">
        <ele>400.2</ele>
        <time>2024-05-17T14:06:12Z</time>
      </trkpt>
      <trkpt lat="44.65147" lon="5.02767">
        <ele>400.3</ele>
        <time>2024-05-17T14:06:13Z</time>
      </trkpt>
      <trkpt lat="44.65145" lon="5.02762">
        <ele>400.4</ele>
        <time>2024-05-17T14:06:14Z</time>
      </trkpt>
      <trkpt lat="44.65143" lon="5.02757">
        <ele>400.4</ele>
        <time>2024-05-17T14:06:15Z</time>
      </trkpt>
      <trkpt lat="44.65141" lon="5.02753">
        <ele>400.5</ele>
        <time>2024-05-17T14:06:16Z</time>
      </trkpt>
      <trkpt lat="44.6514" lon="5.02748">
        <ele>400.6</ele>
        <time>2024-05-17T14:06:17Z</time>
      </trkpt>
      <trkpt lat="44.65139" lon="5.02743">
        <ele>400.7</ele>
        <time>2024-05-17T14:06:18Z</time>
      </trkpt>
      <trkpt lat="44.65138" lon="5.02738">
        <ele>400.7</ele>
        <time>2024-05-17T14:06:19Z</time>
      </trkpt>
      <trkpt lat="44.65137" lon="5.02733">
        <ele>400.8</ele>
        <time>2024-05-17T14:06:20Z</time>
      </trkpt>
      <trkpt lat="44.65137" lon="5.02728">
        <ele>400.9</ele>
        <time>2024-05-17T14:06:21Z</time>
      </trkpt>
      <trkpt lat="44.65136" lon="5.02722">
        <ele>401</ele>
        <time>2024-05-17T14:06:22Z</time>
      </trkpt>
      <trkpt lat="44.65135" lon="5.02717">
        <ele>401</ele>
        <time>2024-05-17T14:06:23Z</time>
      </trkpt>
      <trkpt lat="44.65133" lon="5.02712">
        <ele>401.1</ele>
        <time>2024-05-17T14:06:24Z</time>
      </trkpt>
      <trkpt lat="44.65132" lon="5.02707">
        <ele>401.2</ele>
        <time>2024-05-17T14:06:25Z</time>
      </trkpt>
      <trkpt lat="44.65131" lon="5.02702">
        <ele>401.3</ele>
        <time>2024-05-17T14:06:26Z</time>
      </trkpt>
      <trkpt lat="44.65129" lon="5.02694">
        <ele>401.5</ele>
        <time>2024-05-17T14:06:27Z</time>
      </trkpt>
      <trkpt lat="44.65128" lon="5.02691">
        <ele>401.5</ele>
        <time>2024-05-17T14:06:28Z</time>
      </trkpt>
      <trkpt lat="44.65125" lon="5.02683">
        <ele>401.7</ele>
        <time>2024-05-17T14:06:29Z</time>
      </trkpt>
      <trkpt lat="44.65124" lon="5.02681">
        <ele>401.7</ele>
        <time>2024-05-17T14:06:30Z</time>
      </trkpt>
      <trkpt lat="44.6512" lon="5.02674">
        <ele>401.9</ele>
        <time>2024-05-17T14:06:31Z</time>
      </trkpt>
      <trkpt lat="44.65119" lon="5.02672">
        <ele>401.9</ele>
        <time>2024-05-17T14:06:32Z</time>
      </trkpt>
      <trkpt lat="44.65115" lon="5.02666">
        <ele>402.1</ele>
        <time>2024-05-17T14:06:33Z</time>
      </trkpt>
      <trkpt lat="44.65114" lon="5.02664">
        <ele>402.2</ele>
        <time>2024-05-17T14:06:34Z</time>
      </trkpt>
      <trkpt lat="44.6511" lon="5.02658">
        <ele>402.3</ele>
        <time>2024-05-17T14:06:35Z</time>
      </trkpt>
      <trkpt lat="44.65109" lon="5.02657">
        <ele>402.4</ele>
        <time>2024-05-17T14:06:36Z</time>
      </trkpt>
      <trkpt lat="44.65105" lon="5.02652">
        <ele>402.5</ele>
        <time>2024-05-17T14:06:37Z</time>
      </trkpt>
      <trkpt lat="44.65103" lon="5.0265">
        <ele>402.6</ele>
        <time>2024-05-17T14:06:38Z</time>
      </trkpt>
      <trkpt lat="44.65099" lon="5.02646">
        <ele>402.8</ele>
        <time>2024-05-17T14:06:39Z</time>
      </trkpt>
      <trkpt lat="44.65097" lon="5.02644">
        <ele>402.8</ele>
        <time>2024-05-17T14:06:40Z</time>
      </trkpt>
      <trkpt lat="44.65093" lon="5.02639">
        <ele>403</ele>
        <time>2024-05-17T14:06:41Z</time>
      </trkpt>
      <trkpt lat="44.65091" lon="5.02638">
        <ele>403</ele>
        <time>2024-05-17T14:06:42Z</time>
      </trkpt>
      <trkpt lat="44.65087" lon="5.02633">
        <ele>403.2</ele>
        <time>2024-05-17T14:06:43Z</time>
      </trkpt>
      <trkpt lat="44.65086" lon="5.02631">
        <ele>403.2</ele>
        <time>2024-05-17T14:06:44Z</time>
      </trkpt>
      <trkpt lat="44.65081" lon="5.02626">
        <ele>403.4</ele>
        <time>2024-05-17T14:06:45Z</time>
      </trkpt>
      <trkpt lat="44.6508" lon="5.02625">
        <ele>403.5</ele>
        <time>2024-05-17T14:06:46Z</time>
      </trkpt>
      <trkpt lat="44.65077" lon="5.02621">
        <ele>403.6</ele>
        <time>2024-05-17T14:06:47Z</time>
      </trkpt>
      <trkpt lat="44.65074" lon="5.02618">
        <ele>403.7</ele>
        <time>2024-05-17T14:06:48Z</time>
      </trkpt>
      <trkpt lat="44.65071" lon="5.02614">
        <ele>403.8</ele>
        <time>2024-05-17T14:06:49Z</time>
      </trkpt>
      <trkpt lat="44.65068" lon="5.0261">
        <ele>404</ele>
        <time>2024-05-17T14:06:50Z</time>
      </trkpt>
      <trkpt lat="44.65065" lon="5.02605">
        <ele>404.1</ele>
        <time>2024-05-17T14:06:51Z</time>
      </trkpt>
      <trkpt lat="44.65063" lon="5.02601">
        <ele>404.2</ele>
        <time>2024-05-17T14:06:52Z</time>
      </trkpt>
      <trkpt lat="44.65058" lon="5.02594">
        <ele>404.4</ele>
        <time>2024-05-17T14:06:53Z</time>
      </trkpt>
      <trkpt lat="44.65057" lon="5.02592">
        <ele>404.5</ele>
        <time>2024-05-17T14:06:54Z</time>
      </trkpt>
      <trkpt lat="44.65053" lon="5.02586">
        <ele>404.7</ele>
        <time>2024-05-17T14:06:55Z</time>
      </trkpt>
      <trkpt lat="44.65052" lon="5.02583">
        <ele>404.7</ele>
        <time>2024-05-17T14:06:56Z</time>
      </trkpt>
      <trkpt lat="44.6505" lon="5.02578">
        <ele>404.9</ele>
        <time>2024-05-17T14:06:57Z</time>
      </trkpt>
      <trkpt lat="44.65048" lon="5.02573">
        <ele>405</ele>
        <time>2024-05-17T14:06:58Z</time>
      </trkpt>
      <trkpt lat="44.65047" lon="5.02568">
        <ele>405.1</ele>
        <time>2024-05-17T14:06:59Z</time>
      </trkpt>
      <trkpt lat="44.65045" lon="5.02563">
        <ele>405.3</ele>
        <time>2024-05-17T14:07:00Z</time>
      </trkpt>
      <trkpt lat="44.65044" lon="5.02558">
        <ele>405.4</ele>
        <time>2024-05-17T14:07:01Z</time>
      </trkpt>
      <trkpt lat="44.65044" lon="5.02553">
        <ele>405.5</ele>
        <time>2024-05-17T14:07:02Z</time>
      </trkpt>
      <trkpt lat="44.65043" lon="5.02549">
        <ele>405.6</ele>
        <time>2024-05-17T14:07:03Z</time>
      </trkpt>
      <trkpt lat="44.65042" lon="5.02544">
        <ele>405.7</ele>
        <time>2024-05-17T14:07:04Z</time>
      </trkpt>
      <trkpt lat="44.65042" lon="5.02539">
        <ele>405.8</ele>
        <time>2024-05-17T14:07:05Z</time>
      </trkpt>
      <trkpt lat="44.65041" lon="5.02534">
        <ele>406</ele>
        <time>2024-05-17T14:07:06Z</time>
      </trkpt>
      <trkpt lat="44.65041" lon="5.02529">
        <ele>406.1</ele>
        <time>2024-05-17T14:07:07Z</time>
      </trkpt>
      <trkpt lat="44.6504" lon="5.02523">
        <ele>406.2</ele>
        <time>2024-05-17T14:07:08Z</time>
      </trkpt>
      <trkpt lat="44.6504" lon="5.02518">
        <ele>406.3</ele>
        <time>2024-05-17T14:07:09Z</time>
      </trkpt>
      <trkpt lat="44.6504" lon="5.02512">
        <ele>406.4</ele>
        <time>2024-05-17T14:07:10Z</time>
      </trkpt>
      <trkpt lat="44.65041" lon="5.02504">
        <ele>406.6</ele>
        <time>2024-05-17T14:07:11Z</time>
      </trkpt>
      <trkpt lat="44.65041" lon="5.02501">
        <ele>406.6</ele>
        <time>2024-05-17T14:07:12Z</time>
      </trkpt>
      <trkpt lat="44.65042" lon="5.02493">
        <ele>406.8</ele>
        <time>2024-05-17T14:07:13Z</time>
      </trkpt>
      <trkpt lat="44.65042" lon="5.0249">
        <ele>406.8</ele>
        <time>2024-05-17T14:07:14Z</time>
      </trkpt>
      <trkpt lat="44.65043" lon="5.02482">
        <ele>407</ele>
        <time>2024-05-17T14:07:15Z</time>
      </trkpt>
      <trkpt lat="44.65043" lon="5.02479">
        <ele>407</ele>
        <time>2024-05-17T14:07:16Z</time>
      </trkpt>
      <trkpt lat="44.65044" lon="5.0247">
        <ele>407.2</ele>
        <time>2024-05-17T14:07:17Z</time>
      </trkpt>
      <trkpt lat="44.65044" lon="5.02468">
        <ele>407.2</ele>
        <time>2024-05-17T14:07:18Z</time>
      </trkpt>
      <trkpt lat="44.65045" lon="5.02459">
        <ele>407.3</ele>
        <time>2024-05-17T14:07:19Z</time>
      </trkpt>
      <trkpt lat="44.65045" lon="5.02455">
        <ele>407.4</ele>
        <time>2024-05-17T14:07:20Z</time>
      </trkpt>
      <trkpt lat="44.65047" lon="5.02446">
        <ele>407.5</ele>
        <time>2024-05-17T14:07:21Z</time>
      </trkpt>
      <trkpt lat="44.65047" lon="5.02443">
        <ele>407.6</ele>
        <time>2024-05-17T14:07:22Z</time>
      </trkpt>
      <trkpt lat="44.65048" lon="5.02433">
        <ele>407.7</ele>
        <time>2024-05-17T14:07:23Z</time>
      </trkpt>
      <trkpt lat="44.65048" lon="5.0243">
        <ele>407.7</ele>
        <time>2024-05-17T14:07:24Z</time>
      </trkpt>
      <trkpt lat="44.6505" lon="5.02422">
        <ele>407.8</ele>
        <time>2024-05-17T14:07:25Z</time>
      </trkpt>
      <trkpt lat="44.6505" lon="5.02419">
        <ele>407.8</ele>
        <time>2024-05-17T14:07:26Z</time>
      </trkpt>
      <trkpt lat="44.65053" lon="5.0241">
        <ele>407.9</ele>
        <time>2024-05-17T14:07:27Z</time>
      </trkpt>
      <trkpt lat="44.65054" lon="5.02407">
        <ele>408</ele>
        <time>2024-05-17T14:07:28Z</time>
      </trkpt>
      <trkpt lat="44.65057" lon="5.02397">
        <ele>408</ele>
        <time>2024-05-17T14:07:29Z</time>
      </trkpt>
      <trkpt lat="44.65059" lon="5.02394">
        <ele>408.1</ele>
        <time>2024-05-17T14:07:30Z</time>
      </trkpt>
      <trkpt lat="44.65062" lon="5.02389">
        <ele>408.1</ele>
        <time>2024-05-17T14:07:31Z</time>
      </trkpt>
      <trkpt lat="44.65065" lon="5.02383">
        <ele>408.1</ele>
        <time>2024-05-17T14:07:32Z</time>
      </trkpt>
      <trkpt lat="44.65069" lon="5.02379">
        <ele>408.1</ele>
        <time>2024-05-17T14:07:33Z</time>
      </trkpt>
      <trkpt lat="44.65073" lon="5.02374">
        <ele>408</ele>
        <time>2024-05-17T14:07:34Z</time>
      </trkpt>
      <trkpt lat="44.65078" lon="5.0237">
        <ele>408</ele>
        <time>2024-05-17T14:07:35Z</time>
      </trkpt>
      <trkpt lat="44.65082" lon="5.02365">
        <ele>407.9</ele>
        <time>2024-05-17T14:07:36Z</time>
      </trkpt>
      <trkpt lat="44.65086" lon="5.02361">
        <ele>407.8</ele>
        <time>2024-05-17T14:07:37Z</time>
      </trkpt>
      <trkpt lat="44.65093" lon="5.02353">
        <ele>407.5</ele>
        <time>2024-05-17T14:07:38Z</time>
      </trkpt>
      <trkpt lat="44.65096" lon="5.0235">
        <ele>407.4</ele>
        <time>2024-05-17T14:07:39Z</time>
      </trkpt>
      <trkpt lat="44.65101" lon="5.02344">
        <ele>407.1</ele>
        <time>2024-05-17T14:07:40Z</time>
      </trkpt>
      <trkpt lat="44.65106" lon="5.02338">
        <ele>406.9</ele>
        <time>2024-05-17T14:07:41Z</time>
      </trkpt>
      <trkpt lat="44.65111" lon="5.02331">
        <ele>406.6</ele>
        <time>2024-05-17T14:07:42Z</time>
      </trkpt>
      <trkpt lat="44.65116" lon="5.02324">
        <ele>406.4</ele>
        <time>2024-05-17T14:07:43Z</time>
      </trkpt>
      <trkpt lat="44.65121" lon="5.02318">
        <ele>406.1</ele>
        <time>2024-05-17T14:07:44Z</time>
      </trkpt>
      <trkpt lat="44.65129" lon="5.02306">
        <ele>405.7</ele>
        <time>2024-05-17T14:07:45Z</time>
      </trkpt>
      <trkpt lat="44.65132" lon="5.02302">
        <ele>405.5</ele>
        <time>2024-05-17T14:07:46Z</time>
      </trkpt>
      <trkpt lat="44.65136" lon="5.02293">
        <ele>405.3</ele>
        <time>2024-05-17T14:07:47Z</time>
      </trkpt>
      <trkpt lat="44.65141" lon="5.02284">
        <ele>405</ele>
        <time>2024-05-17T14:07:48Z</time>
      </trkpt>
      <trkpt lat="44.65148" lon="5.0227">
        <ele>404.6</ele>
        <time>2024-05-17T14:07:49Z</time>
      </trkpt>
      <trkpt lat="44.6515" lon="5.02265">
        <ele>404.5</ele>
        <time>2024-05-17T14:07:50Z</time>
      </trkpt>
      <trkpt lat="44.65155" lon="5.02256">
        <ele>404.2</ele>
        <time>2024-05-17T14:07:51Z</time>
      </trkpt>
      <trkpt lat="44.65159" lon="5.02247">
        <ele>403.9</ele>
        <time>2024-05-17T14:07:52Z</time>
      </trkpt>
      <trkpt lat="44.65165" lon="5.02238">
        <ele>403.6</ele>
        <time>2024-05-17T14:07:53Z</time>
      </trkpt>
      <trkpt lat="44.65171" lon="5.02231">
        <ele>403.3</ele>
        <time>2024-05-17T14:07:54Z</time>
      </trkpt>
      <trkpt lat="44.65181" lon="5.02221">
        <ele>402.9</ele>
        <time>2024-05-17T14:07:55Z</time>
      </trkpt>
      <trkpt lat="44.65185" lon="5.02218">
        <ele>402.7</ele>
        <time>2024-05-17T14:07:56Z</time>
      </trkpt>
      <trkpt lat="44.65192" lon="5.02213">
        <ele>402.4</ele>
        <time>2024-05-17T14:07:57Z</time>
      </trkpt>
      <trkpt lat="44.652" lon="5.02208">
        <ele>402.2</ele>
        <time>2024-05-17T14:07:58Z</time>
      </trkpt>
      <trkpt lat="44.65211" lon="5.02202">
        <ele>401.8</ele>
        <time>2024-05-17T14:07:59Z</time>
      </trkpt>
      <trkpt lat="44.65215" lon="5.022">
        <ele>401.7</ele>
        <time>2024-05-17T14:08:00Z</time>
      </trkpt>
      <trkpt lat="44.65227" lon="5.02194">
        <ele>401.3</ele>
        <time>2024-05-17T14:08:01Z</time>
      </trkpt>
      <trkpt lat="44.65231" lon="5.02191">
        <ele>401.2</ele>
        <time>2024-05-17T14:08:02Z</time>
      </trkpt>
      <trkpt lat="44.65239" lon="5.02187">
        <ele>401</ele>
        <time>2024-05-17T14:08:03Z</time>
      </trkpt>
      <trkpt lat="44.65246" lon="5.02183">
        <ele>400.7</ele>
        <time>2024-05-17T14:08:04Z</time>
      </trkpt>
      <trkpt lat="44.65254" lon="5.02179">
        <ele>400.5</ele>
        <time>2024-05-17T14:08:05Z</time>
      </trkpt>
      <trkpt lat="44.65261" lon="5.02175">
        <ele>400.3</ele>
        <time>2024-05-17T14:08:06Z</time>
      </trkpt>
      <trkpt lat="44.65272" lon="5.02165">
        <ele>399.9</ele>
        <time>2024-05-17T14:08:07Z</time>
      </trkpt>
      <trkpt lat="44.65275" lon="5.02161">
        <ele>399.8</ele>
        <time>2024-05-17T14:08:08Z</time>
      </trkpt>
      <trkpt lat="44.65284" lon="5.02148">
        <ele>399.6</ele>
        <time>2024-05-17T14:08:09Z</time>
      </trkpt>
      <trkpt lat="44.65286" lon="5.02143">
        <ele>399.5</ele>
        <time>2024-05-17T14:08:10Z</time>
      </trkpt>
      <trkpt lat="44.65293" lon="5.02128">
        <ele>399.3</ele>
        <time>2024-05-17T14:08:11Z</time>
      </trkpt>
      <trkpt lat="44.65294" lon="5.02123">
        <ele>399.2</ele>
        <time>2024-05-17T14:08:12Z</time>
      </trkpt>
      <trkpt lat="44.65296" lon="5.02111">
        <ele>399</ele>
        <time>2024-05-17T14:08:13Z</time>
      </trkpt>
      <trkpt lat="44.65298" lon="5.02099">
        <ele>398.9</ele>
        <time>2024-05-17T14:08:14Z</time>
      </trkpt>
      <trkpt lat="44.65298" lon="5.02087">
        <ele>398.7</ele>
        <time>2024-05-17T14:08:15Z</time>
      </trkpt>
      <trkpt lat="44.65298" lon="5.02074">
        <ele>398.5</ele>
        <time>2024-05-17T14:08:16Z</time>
      </trkpt>
      <trkpt lat="44.65297" lon="5.02062">
        <ele>398.3</ele>
        <time>2024-05-17T14:08:17Z</time>
      </trkpt>
      <trkpt lat="44.65296" lon="5.02049">
        <ele>398.2</ele>
        <time>2024-05-17T14:08:18Z</time>
      </trkpt>
      <trkpt lat="44.65293" lon="5.02031">
        <ele>397.8</ele>
        <time>2024-05-17T14:08:19Z</time>
      </trkpt>
      <trkpt lat="44.65293" lon="5.02025">
        <ele>397.7</ele>
        <time>2024-05-17T14:08:20Z</time>
      </trkpt>
      <trkpt lat="44.65291" lon="5.02006">
        <ele>397.3</ele>
        <time>2024-05-17T14:08:21Z</time>
      </trkpt>
      <trkpt lat="44.65291" lon="5.02">
        <ele>397.1</ele>
        <time>2024-05-17T14:08:22Z</time>
      </trkpt>
      <trkpt lat="44.6529" lon="5.01981">
        <ele>396.7</ele>
        <time>2024-05-17T14:08:23Z</time>
      </trkpt>
      <trkpt lat="44.6529" lon="5.01974">
        <ele>396.5</ele>
        <time>2024-05-17T14:08:24Z</time>
      </trkpt>
      <trkpt lat="44.65291" lon="5.01962">
        <ele>396.2</ele>
        <time>2024-05-17T14:08:25Z</time>
      </trkpt>
      <trkpt lat="44.65292" lon="5.01949">
        <ele>395.8</ele>
        <time>2024-05-17T14:08:26Z</time>
      </trkpt>
      <trkpt lat="44.65295" lon="5.01938">
        <ele>395.4</ele>
        <time>2024-05-17T14:08:27Z</time>
      </trkpt>
      <trkpt lat="44.65299" lon="5.01926">
        <ele>394.9</ele>
        <time>2024-05-17T14:08:28Z</time>
      </trkpt>
      <trkpt lat="44.65304" lon="5.01916">
        <ele>394.5</ele>
        <time>2024-05-17T14:08:29Z</time>
      </trkpt>
      <trkpt lat="44.6531" lon="5.01906">
        <ele>394</ele>
        <time>2024-05-17T14:08:30Z</time>
      </trkpt>
      <trkpt lat="44.65319" lon="5.01891">
        <ele>393.4</ele>
        <time>2024-05-17T14:08:31Z</time>
      </trkpt>
      <trkpt lat="44.65323" lon="5.01886">
        <ele>393.1</ele>
        <time>2024-05-17T14:08:32Z</time>
      </trkpt>
      <trkpt lat="44.6533" lon="5.01876">
        <ele>392.7</ele>
        <time>2024-05-17T14:08:33Z</time>
      </trkpt>
      <trkpt lat="44.65337" lon="5.01867">
        <ele>392.2</ele>
        <time>2024-05-17T14:08:34Z</time>
      </trkpt>
      <trkpt lat="44.65344" lon="5.01857">
        <ele>391.7</ele>
        <time>2024-05-17T14:08:35Z</time>
      </trkpt>
      <trkpt lat="44.65352" lon="5.01848">
        <ele>391.2</ele>
        <time>2024-05-17T14:08:36Z</time>
      </trkpt>
      <trkpt lat="44.65363" lon="5.01834">
        <ele>390.5</ele>
        <time>2024-05-17T14:08:37Z</time>
      </trkpt>
      <trkpt lat="44.65367" lon="5.0183">
        <ele>390.3</ele>
        <time>2024-05-17T14:08:38Z</time>
      </trkpt>
      <trkpt lat="44.65378" lon="5.01816">
        <ele>389.7</ele>
        <time>2024-05-17T14:08:39Z</time>
      </trkpt>
      <trkpt lat="44.65382" lon="5.01811">
        <ele>389.5</ele>
        <time>2024-05-17T14:08:40Z</time>
      </trkpt>
      <trkpt lat="44.65392" lon="5.01798">
        <ele>388.8</ele>
        <time>2024-05-17T14:08:41Z</time>
      </trkpt>
      <trkpt lat="44.65396" lon="5.01793">
        <ele>388.6</ele>
        <time>2024-05-17T14:08:42Z</time>
      </trkpt>
      <trkpt lat="44.65407" lon="5.01779">
        <ele>388.1</ele>
        <time>2024-05-17T14:08:43Z</time>
      </trkpt>
      <trkpt lat="44.6541" lon="5.01774">
        <ele>388</ele>
        <time>2024-05-17T14:08:44Z</time>
      </trkpt>
      <trkpt lat="44.65417" lon="5.01765">
        <ele>387.6</ele>
        <time>2024-05-17T14:08:45Z</time>
      </trkpt>
      <trkpt lat="44.65424" lon="5.01756">
        <ele>387.2</ele>
        <time>2024-05-17T14:08:46Z</time>
      </trkpt>
      <trkpt lat="44.65435" lon="5.01742">
        <ele>386.7</ele>
        <time>2024-05-17T14:08:47Z</time>
      </trkpt>
      <trkpt lat="44.65439" lon="5.01738">
        <ele>386.5</ele>
        <time>2024-05-17T14:08:48Z</time>
      </trkpt>
      <trkpt lat="44.6545" lon="5.01725">
        <ele>386</ele>
        <time>2024-05-17T14:08:49Z</time>
      </trkpt>
      <trkpt lat="44.65454" lon="5.01721">
        <ele>385.8</ele>
        <time>2024-05-17T14:08:50Z</time>
      </trkpt>
      <trkpt lat="44.65466" lon="5.01709">
        <ele>385.3</ele>
        <time>2024-05-17T14:08:51Z</time>
      </trkpt>
      <trkpt lat="44.65469" lon="5.01706">
        <ele>385.2</ele>
        <time>2024-05-17T14:08:52Z</time>
      </trkpt>
      <trkpt lat="44.65481" lon="5.01695">
        <ele>384.8</ele>
        <time>2024-05-17T14:08:53Z</time>
      </trkpt>
      <trkpt lat="44.65485" lon="5.01691">
        <ele>384.7</ele>
        <time>2024-05-17T14:08:54Z</time>
      </trkpt>
      <trkpt lat="44.65497" lon="5.0168">
        <ele>384.3</ele>
        <time>2024-05-17T14:08:55Z</time>
      </trkpt>
      <trkpt lat="44.655" lon="5.01676">
        <ele>384.2</ele>
        <time>2024-05-17T14:08:56Z</time>
      </trkpt>
      <trkpt lat="44.65508" lon="5.01669">
        <ele>383.9</ele>
        <time>2024-05-17T14:08:57Z</time>
      </trkpt>
      <trkpt lat="44.65516" lon="5.01661">
        <ele>383.7</ele>
        <time>2024-05-17T14:08:58Z</time>
      </trkpt>
      <trkpt lat="44.65523" lon="5.01654">
        <ele>383.4</ele>
        <time>2024-05-17T14:08:59Z</time>
      </trkpt>
      <trkpt lat="44.65531" lon="5.01647">
        <ele>383.2</ele>
        <time>2024-05-17T14:09:00Z</time>
      </trkpt>
      <trkpt lat="44.65538" lon="5.01639">
        <ele>382.9</ele>
        <time>2024-05-17T14:09:01Z</time>
      </trkpt>
      <trkpt lat="44.65547" lon="5.01632">
        <ele>382.6</ele>
        <time>2024-05-17T14:09:02Z</time>
      </trkpt>
      <trkpt lat="44.65559" lon="5.01626">
        <ele>382.2</ele>
        <time>2024-05-17T14:09:03Z</time>
      </trkpt>
      <trkpt lat="44.65564" lon="5.01624">
        <ele>382.1</ele>
        <time>2024-05-17T14:09:04Z</time>
      </trkpt>
      <trkpt lat="44.65574" lon="5.01621">
        <ele>381.8</ele>
        <time>2024-05-17T14:09:05Z</time>
      </trkpt>
      <trkpt lat="44.65587" lon="5.01617">
        <ele>381.4</ele>
        <time>2024-05-17T14:09:06Z</time>
      </trkpt>
      <trkpt lat="44.65592" lon="5.01616">
        <ele>381.3</ele>
        <time>2024-05-17T14:09:07Z</time>
      </trkpt>
      <trkpt lat="44.65601" lon="5.01615">
        <ele>381</ele>
        <time>2024-05-17T14:09:08Z</time>
      </trkpt>
      <trkpt lat="44.65611" lon="5.01614">
        <ele>380.8</ele>
        <time>2024-05-17T14:09:09Z</time>
      </trkpt>
      <trkpt lat="44.6562" lon="5.01614">
        <ele>380.5</ele>
        <time>2024-05-17T14:09:10Z</time>
      </trkpt>
      <trkpt lat="44.65634" lon="5.01616">
        <ele>380.1</ele>
        <time>2024-05-17T14:09:11Z</time>
      </trkpt>
      <trkpt lat="44.65639" lon="5.01617">
        <ele>380</ele>
        <time>2024-05-17T14:09:12Z</time>
      </trkpt>
      <trkpt lat="44.65648" lon="5.01618">
        <ele>379.7</ele>
        <time>2024-05-17T14:09:13Z</time>
      </trkpt>
      <trkpt lat="44.65657" lon="5.01619">
        <ele>379.5</ele>
        <time>2024-05-17T14:09:14Z</time>
      </trkpt>
      <trkpt lat="44.6567" lon="5.01618">
        <ele>379.1</ele>
        <time>2024-05-17T14:09:15Z</time>
      </trkpt>
      <trkpt lat="44.65674" lon="5.01617">
        <ele>378.9</ele>
        <time>2024-05-17T14:09:16Z</time>
      </trkpt>
      <trkpt lat="44.65682" lon="5.01615">
        <ele>378.6</ele>
        <time>2024-05-17T14:09:17Z</time>
      </trkpt>
      <trkpt lat="44.65691" lon="5.01614">
        <ele>378.3</ele>
        <time>2024-05-17T14:09:18Z</time>
      </trkpt>
      <trkpt lat="44.65704" lon="5.01611">
        <ele>377.9</ele>
        <time>2024-05-17T14:09:19Z</time>
      </trkpt>
      <trkpt lat="44.65708" lon="5.01611">
        <ele>377.7</ele>
        <time>2024-05-17T14:09:20Z</time>
      </trkpt>
      <trkpt lat="44.65721" lon="5.01611">
        <ele>377.3</ele>
        <time>2024-05-17T14:09:21Z</time>
      </trkpt>
      <trkpt lat="44.65726" lon="5.01612">
        <ele>377.2</ele>
        <time>2024-05-17T14:09:22Z</time>
      </trkpt>
      <trkpt lat="44.65739" lon="5.01617">
        <ele>376.7</ele>
        <time>2024-05-17T14:09:23Z</time>
      </trkpt>
      <trkpt lat="44.65743" lon="5.0162">
        <ele>376.6</ele>
        <time>2024-05-17T14:09:24Z</time>
      </trkpt>
      <trkpt lat="44.65755" lon="5.01629">
        <ele>376.1</ele>
        <time>2024-05-17T14:09:25Z</time>
      </trkpt>
      <trkpt lat="44.65759" lon="5.01632">
        <ele>376</ele>
        <time>2024-05-17T14:09:26Z</time>
      </trkpt>
      <trkpt lat="44.65771" lon="5.01644">
        <ele>375.6</ele>
        <time>2024-05-17T14:09:27Z</time>
      </trkpt>
      <trkpt lat="44.65774" lon="5.01649">
        <ele>375.5</ele>
        <time>2024-05-17T14:09:28Z</time>
      </trkpt>
      <trkpt lat="44.65785" lon="5.01663">
        <ele>375.2</ele>
        <time>2024-05-17T14:09:29Z</time>
      </trkpt>
      <trkpt lat="44.65788" lon="5.01668">
        <ele>375.1</ele>
        <time>2024-05-17T14:09:30Z</time>
      </trkpt>
      <trkpt lat="44.65797" lon="5.01684">
        <ele>374.7</ele>
        <time>2024-05-17T14:09:31Z</time>
      </trkpt>
      <trkpt lat="44.65799" lon="5.01689">
        <ele>374.6</ele>
        <time>2024-05-17T14:09:32Z</time>
      </trkpt>
      <trkpt lat="44.65807" lon="5.01706">
        <ele>374.3</ele>
        <time>2024-05-17T14:09:33Z</time>
      </trkpt>
      <trkpt lat="44.65809" lon="5.01712">
        <ele>374.2</ele>
        <time>2024-05-17T14:09:34Z</time>
      </trkpt>
      <trkpt lat="44.65814" lon="5.01729">
        <ele>374</ele>
        <time>2024-05-17T14:09:35Z</time>
      </trkpt>
      <trkpt lat="44.65816" lon="5.01735">
        <ele>373.9</ele>
        <time>2024-05-17T14:09:36Z</time>
      </trkpt>
      <trkpt lat="44.65821" lon="5.01752">
        <ele>373.6</ele>
        <time>2024-05-17T14:09:37Z</time>
      </trkpt>
      <trkpt lat="44.65822" lon="5.01759">
        <ele>373.5</ele>
        <time>2024-05-17T14:09:38Z</time>
      </trkpt>
      <trkpt lat="44.65827" lon="5.01777">
        <ele>373.1</ele>
        <time>2024-05-17T14:09:39Z</time>
      </trkpt>
      <trkpt lat="44.65828" lon="5.01783">
        <ele>373</ele>
        <time>2024-05-17T14:09:40Z</time>
      </trkpt>
      <trkpt lat="44.65831" lon="5.01796">
        <ele>372.7</ele>
        <time>2024-05-17T14:09:41Z</time>
      </trkpt>
      <trkpt lat="44.65834" lon="5.01808">
        <ele>372.5</ele>
        <time>2024-05-17T14:09:42Z</time>
      </trkpt>
      <trkpt lat="44.65837" lon="5.0182">
        <ele>372.3</ele>
        <time>2024-05-17T14:09:43Z</time>
      </trkpt>
      <trkpt lat="44.6584" lon="5.01832">
        <ele>372</ele>
        <time>2024-05-17T14:09:44Z</time>
      </trkpt>
      <trkpt lat="44.65842" lon="5.01852">
        <ele>371.5</ele>
        <time>2024-05-17T14:09:45Z</time>
      </trkpt>
      <trkpt lat="44.65842" lon="5.01858">
        <ele>371.4</ele>
        <time>2024-05-17T14:09:46Z</time>
      </trkpt>
      <trkpt lat="44.65843" lon="5.01872">
        <ele>371</ele>
        <time>2024-05-17T14:09:47Z</time>
      </trkpt>
      <trkpt lat="44.65844" lon="5.01885">
        <ele>370.7</ele>
        <time>2024-05-17T14:09:48Z</time>
      </trkpt>
      <trkpt lat="44.65843" lon="5.01905">
        <ele>370.3</ele>
        <time>2024-05-17T14:09:49Z</time>
      </trkpt>
      <trkpt lat="44.65843" lon="5.01912">
        <ele>370.2</ele>
        <time>2024-05-17T14:09:50Z</time>
      </trkpt>
      <trkpt lat="44.65843" lon="5.01926">
        <ele>369.9</ele>
        <time>2024-05-17T14:09:51Z</time>
      </trkpt>
      <trkpt lat="44.65844" lon="5.01939">
        <ele>369.6</ele>
        <time>2024-05-17T14:09:52Z</time>
      </trkpt>
      <trkpt lat="44.65844" lon="5.01952">
        <ele>369.4</ele>
        <time>2024-05-17T14:09:53Z</time>
      </trkpt>
      <trkpt lat="44.65846" lon="5.01965">
        <ele>369.1</ele>
        <time>2024-05-17T14:09:54Z</time>
      </trkpt>
      <trkpt lat="44.65848" lon="5.01978">
        <ele>368.9</ele>
        <time>2024-05-17T14:09:55Z</time>
      </trkpt>
      <trkpt lat="44.65851" lon="5.01991">
        <ele>368.6</ele>
        <time>2024-05-17T14:09:56Z</time>
      </trkpt>
      <trkpt lat="44.65855" lon="5.02004">
        <ele>368.3</ele>
        <time>2024-05-17T14:09:57Z</time>
      </trkpt>
      <trkpt lat="44.65859" lon="5.02015">
        <ele>368.1</ele>
        <time>2024-05-17T14:09:58Z</time>
      </trkpt>
      <trkpt lat="44.65867" lon="5.02031">
        <ele>367.7</ele>
        <time>2024-05-17T14:09:59Z</time>
      </trkpt>
      <trkpt lat="44.6587" lon="5.02036">
        <ele>367.6</ele>
        <time>2024-05-17T14:10:00Z</time>
      </trkpt>
      <trkpt lat="44.65876" lon="5.02045">
        <ele>367.3</ele>
        <time>2024-05-17T14:10:01Z</time>
      </trkpt>
      <trkpt lat="44.65883" lon="5.02054">
        <ele>367</ele>
        <time>2024-05-17T14:10:02Z</time>
      </trkpt>
      <trkpt lat="44.65893" lon="5.02065">
        <ele>366.5</ele>
        <time>2024-05-17T14:10:03Z</time>
      </trkpt>
      <trkpt lat="44.65897" lon="5.02069">
        <ele>366.4</ele>
        <time>2024-05-17T14:10:04Z</time>
      </trkpt>
      <trkpt lat="44.65904" lon="5.02075">
        <ele>366.1</ele>
        <time>2024-05-17T14:10:05Z</time>
      </trkpt>
      <trkpt lat="44.65916" lon="5.02083">
        <ele>365.6</ele>
        <time>2024-05-17T14:10:06Z</time>
      </trkpt>
      <trkpt lat="44.6592" lon="5.02085">
        <ele>365.4</ele>
        <time>2024-05-17T14:10:07Z</time>
      </trkpt>
      <trkpt lat="44.65929" lon="5.0209">
        <ele>365.1</ele>
        <time>2024-05-17T14:10:08Z</time>
      </trkpt>
      <trkpt lat="44.65941" lon="5.02094">
        <ele>364.5</ele>
        <time>2024-05-17T14:10:09Z</time>
      </trkpt>
      <trkpt lat="44.65946" lon="5.02096">
        <ele>364.4</ele>
        <time>2024-05-17T14:10:10Z</time>
      </trkpt>
      <trkpt lat="44.65954" lon="5.02098">
        <ele>364</ele>
        <time>2024-05-17T14:10:11Z</time>
      </trkpt>
      <trkpt lat="44.65963" lon="5.021">
        <ele>363.6</ele>
        <time>2024-05-17T14:10:12Z</time>
      </trkpt>
      <trkpt lat="44.65976" lon="5.021">
        <ele>363.1</ele>
        <time>2024-05-17T14:10:13Z</time>
      </trkpt>
      <trkpt lat="44.6598" lon="5.021">
        <ele>363</ele>
        <time>2024-05-17T14:10:14Z</time>
      </trkpt>
      <trkpt lat="44.65993" lon="5.02098">
        <ele>362.5</ele>
        <time>2024-05-17T14:10:15Z</time>
      </trkpt>
      <trkpt lat="44.65998" lon="5.02097">
        <ele>362.3</ele>
        <time>2024-05-17T14:10:16Z</time>
      </trkpt>
      <trkpt lat="44.66011" lon="5.02092">
        <ele>361.9</ele>
        <time>2024-05-17T14:10:17Z</time>
      </trkpt>
      <trkpt lat="44.66015" lon="5.0209">
        <ele>361.7</ele>
        <time>2024-05-17T14:10:18Z</time>
      </trkpt>
      <trkpt lat="44.66027" lon="5.02083">
        <ele>361.3</ele>
        <time>2024-05-17T14:10:19Z</time>
      </trkpt>
      <trkpt lat="44.66031" lon="5.0208">
        <ele>361.1</ele>
        <time>2024-05-17T14:10:20Z</time>
      </trkpt>
      <trkpt lat="44.66043" lon="5.02071">
        <ele>360.7</ele>
        <time>2024-05-17T14:10:21Z</time>
      </trkpt>
      <trkpt lat="44.66047" lon="5.02068">
        <ele>360.5</ele>
        <time>2024-05-17T14:10:22Z</time>
      </trkpt>
      <trkpt lat="44.66058" lon="5.02059">
        <ele>360.1</ele>
        <time>2024-05-17T14:10:23Z</time>
      </trkpt>
      <trkpt lat="44.66062" lon="5.02056">
        <ele>360</ele>
        <time>2024-05-17T14:10:24Z</time>
      </trkpt>
      <trkpt lat="44.6607" lon="5.0205">
        <ele>359.7</ele>
        <time>2024-05-17T14:10:25Z</time>
      </trkpt>
      <trkpt lat="44.66078" lon="5.02044">
        <ele>359.3</ele>
        <time>2024-05-17T14:10:26Z</time>
      </trkpt>
      <trkpt lat="44.66086" lon="5.02037">
        <ele>359</ele>
        <time>2024-05-17T14:10:27Z</time>
      </trkpt>
      <trkpt lat="44.66094" lon="5.02031">
        <ele>358.7</ele>
        <time>2024-05-17T14:10:28Z</time>
      </trkpt>
      <trkpt lat="44.66105" lon="5.0202">
        <ele>358.1</ele>
        <time>2024-05-17T14:10:29Z</time>
      </trkpt>
      <trkpt lat="44.66109" lon="5.02016">
        <ele>357.9</ele>
        <time>2024-05-17T14:10:30Z</time>
      </trkpt>
      <trkpt lat="44.6612" lon="5.02005">
        <ele>357.3</ele>
        <time>2024-05-17T14:10:31Z</time>
      </trkpt>
      <trkpt lat="44.66124" lon="5.02002">
        <ele>357.1</ele>
        <time>2024-05-17T14:10:32Z</time>
      </trkpt>
      <trkpt lat="44.66131" lon="5.01995">
        <ele>356.6</ele>
        <time>2024-05-17T14:10:33Z</time>
      </trkpt>
      <trkpt lat="44.66139" lon="5.01987">
        <ele>356.1</ele>
        <time>2024-05-17T14:10:34Z</time>
      </trkpt>
      <trkpt lat="44.66146" lon="5.0198">
        <ele>355.9</ele>
        <time>2024-05-17T14:10:35Z</time>
      </trkpt>
      <trkpt lat="44.66154" lon="5.01973">
        <ele>355.5</ele>
        <time>2024-05-17T14:10:36Z</time>
      </trkpt>
      <trkpt lat="44.66161" lon="5.01966">
        <ele>355.1</ele>
        <time>2024-05-17T14:10:37Z</time>
      </trkpt>
      <trkpt lat="44.66169" lon="5.01958">
        <ele>354.6</ele>
        <time>2024-05-17T14:10:38Z</time>
      </trkpt>
      <trkpt lat="44.66177" lon="5.0195">
        <ele>354.2</ele>
        <time>2024-05-17T14:10:39Z</time>
      </trkpt>
      <trkpt lat="44.66185" lon="5.01943">
        <ele>353.7</ele>
        <time>2024-05-17T14:10:40Z</time>
      </trkpt>
      <trkpt lat="44.66198" lon="5.01932">
        <ele>353</ele>
        <time>2024-05-17T14:10:41Z</time>
      </trkpt>
      <trkpt lat="44.66202" lon="5.01928">
        <ele>352.8</ele>
        <time>2024-05-17T14:10:42Z</time>
      </trkpt>
      <trkpt lat="44.66214" lon="5.01916">
        <ele>352.1</ele>
        <time>2024-05-17T14:10:43Z</time>
      </trkpt>
      <trkpt lat="44.66218" lon="5.01913">
        <ele>351.8</ele>
        <time>2024-05-17T14:10:44Z</time>
      </trkpt>
      <trkpt lat="44.6623" lon="5.01901">
        <ele>351.1</ele>
        <time>2024-05-17T14:10:45Z</time>
      </trkpt>
      <trkpt lat="44.66234" lon="5.01897">
        <ele>350.8</ele>
        <time>2024-05-17T14:10:46Z</time>
      </trkpt>
      <trkpt lat="44.66247" lon="5.01885">
        <ele>350.1</ele>
        <time>2024-05-17T14:10:47Z</time>
      </trkpt>
      <trkpt lat="44.66251" lon="5.01881">
        <ele>349.8</ele>
        <time>2024-05-17T14:10:48Z</time>
      </trkpt>
      <trkpt lat="44.66263" lon="5.0187">
        <ele>349.2</ele>
        <time>2024-05-17T14:10:49Z</time>
      </trkpt>
      <trkpt lat="44.66267" lon="5.01866">
        <ele>348.9</ele>
        <time>2024-05-17T14:10:50Z</time>
      </trkpt>
      <trkpt lat="44.66279" lon="5.01854">
        <ele>348.3</ele>
        <time>2024-05-17T14:10:51Z</time>
      </trkpt>
      <trkpt lat="44.66283" lon="5.0185">
        <ele>348.1</ele>
        <time>2024-05-17T14:10:52Z</time>
      </trkpt>
      <trkpt lat="44.66295" lon="5.01839">
        <ele>347.3</ele>
        <time>2024-05-17T14:10:53Z</time>
      </trkpt>
      <trkpt lat="44.663" lon="5.01835">
        <ele>347.1</ele>
        <time>2024-05-17T14:10:54Z</time>
      </trkpt>
      <trkpt lat="44.66312" lon="5.01824">
        <ele>346.3</ele>
        <time>2024-05-17T14:10:55Z</time>
      </trkpt>
      <trkpt lat="44.66316" lon="5.0182">
        <ele>346.1</ele>
        <time>2024-05-17T14:10:56Z</time>
      </trkpt>
      <trkpt lat="44.66329" lon="5.01808">
        <ele>345.3</ele>
        <time>2024-05-17T14:10:57Z</time>
      </trkpt>
      <trkpt lat="44.66333" lon="5.01804">
        <ele>345</ele>
        <time>2024-05-17T14:10:58Z</time>
      </trkpt>
      <trkpt lat="44.66346" lon="5.01792">
        <ele>344.2</ele>
        <time>2024-05-17T14:10:59Z</time>
      </trkpt>
      <trkpt lat="44.6635" lon="5.01788">
        <ele>343.9</ele>
        <time>2024-05-17T14:11:00Z</time>
      </trkpt>
      <trkpt lat="44.66358" lon="5.0178">
        <ele>343.5</ele>
        <time>2024-05-17T14:11:01Z</time>
      </trkpt>
      <trkpt lat="44.66371" lon="5.01768">
        <ele>342.7</ele>
        <time>2024-05-17T14:11:02Z</time>
      </trkpt>
      <trkpt lat="44.66376" lon="5.01764">
        <ele>342.5</ele>
        <time>2024-05-17T14:11:03Z</time>
      </trkpt>
      <trkpt lat="44.66389" lon="5.01752">
        <ele>341.8</ele>
        <time>2024-05-17T14:11:04Z</time>
      </trkpt>
      <trkpt lat="44.66393" lon="5.01748">
        <ele>341.6</ele>
        <time>2024-05-17T14:11:05Z</time>
      </trkpt>
      <trkpt lat="44.66401" lon="5.0174">
        <ele>341.1</ele>
        <time>2024-05-17T14:11:06Z</time>
      </trkpt>
      <trkpt lat="44.6641" lon="5.01732">
        <ele>340.7</ele>
        <time>2024-05-17T14:11:07Z</time>
      </trkpt>
      <trkpt lat="44.66419" lon="5.01724">
        <ele>340.2</ele>
        <time>2024-05-17T14:11:08Z</time>
      </trkpt>
      <trkpt lat="44.66427" lon="5.01716">
        <ele>339.8</ele>
        <time>2024-05-17T14:11:09Z</time>
      </trkpt>
      <trkpt lat="44.66436" lon="5.01708">
        <ele>339.4</ele>
        <time>2024-05-17T14:11:10Z</time>
      </trkpt>
      <trkpt lat="44.66444" lon="5.017">
        <ele>338.9</ele>
        <time>2024-05-17T14:11:11Z</time>
      </trkpt>
      <trkpt lat="44.66457" lon="5.01688">
        <ele>338.3</ele>
        <time>2024-05-17T14:11:12Z</time>
      </trkpt>
      <trkpt lat="44.66461" lon="5.01684">
        <ele>338</ele>
        <time>2024-05-17T14:11:13Z</time>
      </trkpt>
      <trkpt lat="44.66474" lon="5.01672">
        <ele>337.3</ele>
        <time>2024-05-17T14:11:14Z</time>
      </trkpt>
      <trkpt lat="44.66479" lon="5.01667">
        <ele>337.1</ele>
        <time>2024-05-17T14:11:15Z</time>
      </trkpt>
      <trkpt lat="44.66488" lon="5.01659">
        <ele>336.7</ele>
        <time>2024-05-17T14:11:16Z</time>
      </trkpt>
      <trkpt lat="44.66496" lon="5.01651">
        <ele>336.4</ele>
        <time>2024-05-17T14:11:17Z</time>
      </trkpt>
      <trkpt lat="44.66505" lon="5.01642">
        <ele>336</ele>
        <time>2024-05-17T14:11:18Z</time>
      </trkpt>
      <trkpt lat="44.66514" lon="5.01634">
        <ele>335.8</ele>
        <time>2024-05-17T14:11:19Z</time>
      </trkpt>
      <trkpt lat="44.66522" lon="5.01626">
        <ele>335.6</ele>
        <time>2024-05-17T14:11:20Z</time>
      </trkpt>
      <trkpt lat="44.66531" lon="5.01618">
        <ele>335.5</ele>
        <time>2024-05-17T14:11:21Z</time>
      </trkpt>
      <trkpt lat="44.66539" lon="5.01611">
        <ele>335.4</ele>
        <time>2024-05-17T14:11:22Z</time>
      </trkpt>
      <trkpt lat="44.66552" lon="5.016">
        <ele>335</ele>
        <time>2024-05-17T14:11:23Z</time>
      </trkpt>
      <trkpt lat="44.66556" lon="5.01596">
        <ele>334.9</ele>
        <time>2024-05-17T14:11:24Z</time>
      </trkpt>
      <trkpt lat="44.66568" lon="5.01585">
        <ele>334.5</ele>
        <time>2024-05-17T14:11:25Z</time>
      </trkpt>
      <trkpt lat="44.66572" lon="5.01582">
        <ele>334.4</ele>
        <time>2024-05-17T14:11:26Z</time>
      </trkpt>
      <trkpt lat="44.6658" lon="5.01574">
        <ele>334.2</ele>
        <time>2024-05-17T14:11:27Z</time>
      </trkpt>
      <trkpt lat="44.66588" lon="5.01567">
        <ele>333.9</ele>
        <time>2024-05-17T14:11:28Z</time>
      </trkpt>
      <trkpt lat="44.666" lon="5.01556">
        <ele>333.4</ele>
        <time>2024-05-17T14:11:29Z</time>
      </trkpt>
      <trkpt lat="44.66604" lon="5.01553">
        <ele>333.3</ele>
        <time>2024-05-17T14:11:30Z</time>
      </trkpt>
      <trkpt lat="44.66615" lon="5.01542">
        <ele>332.8</ele>
        <time>2024-05-17T14:11:31Z</time>
      </trkpt>
      <trkpt lat="44.66619" lon="5.01538">
        <ele>332.6</ele>
        <time>2024-05-17T14:11:32Z</time>
      </trkpt>
      <trkpt lat="44.6663" lon="5.01527">
        <ele>332.1</ele>
        <time>2024-05-17T14:11:33Z</time>
      </trkpt>
      <trkpt lat="44.66633" lon="5.01523">
        <ele>331.9</ele>
        <time>2024-05-17T14:11:34Z</time>
      </trkpt>
      <trkpt lat="44.6664" lon="5.01515">
        <ele>331.6</ele>
        <time>2024-05-17T14:11:35Z</time>
      </trkpt>
      <trkpt lat="44.66646" lon="5.01507">
        <ele>331.2</ele>
        <time>2024-05-17T14:11:36Z</time>
      </trkpt>
      <trkpt lat="44.66655" lon="5.01493">
        <ele>330.7</ele>
        <time>2024-05-17T14:11:37Z</time>
      </trkpt>
      <trkpt lat="44.66658" lon="5.01489">
        <ele>330.5</ele>
        <time>2024-05-17T14:11:38Z</time>
      </trkpt>
      <trkpt lat="44.66667" lon="5.01474">
        <ele>330</ele>
        <time>2024-05-17T14:11:39Z</time>
      </trkpt>
      <trkpt lat="44.66669" lon="5.01469">
        <ele>329.8</ele>
        <time>2024-05-17T14:11:40Z</time>
      </trkpt>
      <trkpt lat="44.66678" lon="5.01455">
        <ele>329.3</ele>
        <time>2024-05-17T14:11:41Z</time>
      </trkpt>
      <trkpt lat="44.66681" lon="5.0145">
        <ele>329.1</ele>
        <time>2024-05-17T14:11:42Z</time>
      </trkpt>
      <trkpt lat="44.66689" lon="5.01436">
        <ele>328.6</ele>
        <time>2024-05-17T14:11:43Z</time>
      </trkpt>
      <trkpt lat="44.66692" lon="5.01431">
        <ele>328.4</ele>
        <time>2024-05-17T14:11:44Z</time>
      </trkpt>
      <trkpt lat="44.667" lon="5.01416">
        <ele>327.9</ele>
        <time>2024-05-17T14:11:45Z</time>
      </trkpt>
      <trkpt lat="44.66703" lon="5.01411">
        <ele>327.7</ele>
        <time>2024-05-17T14:11:46Z</time>
      </trkpt>
      <trkpt lat="44.66709" lon="5.01402">
        <ele>327.4</ele>
        <time>2024-05-17T14:11:47Z</time>
      </trkpt>
      <trkpt lat="44.66714" lon="5.01392">
        <ele>327</ele>
        <time>2024-05-17T14:11:48Z</time>
      </trkpt>
      <trkpt lat="44.66719" lon="5.01382">
        <ele>326.7</ele>
        <time>2024-05-17T14:11:49Z</time>
      </trkpt>
      <trkpt lat="44.66725" lon="5.01372">
        <ele>326.3</ele>
        <time>2024-05-17T14:11:50Z</time>
      </trkpt>
      <trkpt lat="44.6673" lon="5.01363">
        <ele>326</ele>
        <time>2024-05-17T14:11:51Z</time>
      </trkpt>
      <trkpt lat="44.66736" lon="5.01353">
        <ele>325.6</ele>
        <time>2024-05-17T14:11:52Z</time>
      </trkpt>
      <trkpt lat="44.66742" lon="5.01344">
        <ele>325.2</ele>
        <time>2024-05-17T14:11:53Z</time>
      </trkpt>
      <trkpt lat="44.66748" lon="5.01335">
        <ele>324.9</ele>
        <time>2024-05-17T14:11:54Z</time>
      </trkpt>
      <trkpt lat="44.66759" lon="5.01323">
        <ele>324.3</ele>
        <time>2024-05-17T14:11:55Z</time>
      </trkpt>
      <trkpt lat="44.66762" lon="5.0132">
        <ele>324.1</ele>
        <time>2024-05-17T14:11:56Z</time>
      </trkpt>
      <trkpt lat="44.66774" lon="5.01311">
        <ele>323.5</ele>
        <time>2024-05-17T14:11:57Z</time>
      </trkpt>
      <trkpt lat="44.66778" lon="5.01308">
        <ele>323.3</ele>
        <time>2024-05-17T14:11:58Z</time>
      </trkpt>
      <trkpt lat="44.66787" lon="5.01304">
        <ele>322.9</ele>
        <time>2024-05-17T14:11:59Z</time>
      </trkpt>
      <trkpt lat="44.66795" lon="5.013">
        <ele>322.4</ele>
        <time>2024-05-17T14:12:00Z</time>
      </trkpt>
      <trkpt lat="44.66804" lon="5.01296">
        <ele>322</ele>
        <time>2024-05-17T14:12:01Z</time>
      </trkpt>
      <trkpt lat="44.66813" lon="5.01292">
        <ele>321.6</ele>
        <time>2024-05-17T14:12:02Z</time>
      </trkpt>
      <trkpt lat="44.66822" lon="5.01289">
        <ele>321.2</ele>
        <time>2024-05-17T14:12:03Z</time>
      </trkpt>
      <trkpt lat="44.66832" lon="5.01284">
        <ele>320.7</ele>
        <time>2024-05-17T14:12:04Z</time>
      </trkpt>
      <trkpt lat="44.66841" lon="5.0128">
        <ele>320.3</ele>
        <time>2024-05-17T14:12:05Z</time>
      </trkpt>
      <trkpt lat="44.66851" lon="5.01276">
        <ele>319.8</ele>
        <time>2024-05-17T14:12:06Z</time>
      </trkpt>
      <trkpt lat="44.66861" lon="5.01272">
        <ele>319.4</ele>
        <time>2024-05-17T14:12:07Z</time>
      </trkpt>
      <trkpt lat="44.6687" lon="5.01268">
        <ele>319</ele>
        <time>2024-05-17T14:12:08Z</time>
      </trkpt>
      <trkpt lat="44.66885" lon="5.01262">
        <ele>318.4</ele>
        <time>2024-05-17T14:12:09Z</time>
      </trkpt>
      <trkpt lat="44.6689" lon="5.01261">
        <ele>318.2</ele>
        <time>2024-05-17T14:12:10Z</time>
      </trkpt>
      <trkpt lat="44.66904" lon="5.01256">
        <ele>317.6</ele>
        <time>2024-05-17T14:12:11Z</time>
      </trkpt>
      <trkpt lat="44.66909" lon="5.01255">
        <ele>317.4</ele>
        <time>2024-05-17T14:12:12Z</time>
      </trkpt>
      <trkpt lat="44.66924" lon="5.01252">
        <ele>317</ele>
        <time>2024-05-17T14:12:13Z</time>
      </trkpt>
      <trkpt lat="44.66929" lon="5.01251">
        <ele>316.8</ele>
        <time>2024-05-17T14:12:14Z</time>
      </trkpt>
      <trkpt lat="44.66944" lon="5.01251">
        <ele>316.2</ele>
        <time>2024-05-17T14:12:15Z</time>
      </trkpt>
      <trkpt lat="44.66949" lon="5.01252">
        <ele>315.9</ele>
        <time>2024-05-17T14:12:16Z</time>
      </trkpt>
      <trkpt lat="44.66963" lon="5.01256">
        <ele>315.2</ele>
        <time>2024-05-17T14:12:17Z</time>
      </trkpt>
      <trkpt lat="44.66967" lon="5.01259">
        <ele>315</ele>
        <time>2024-05-17T14:12:18Z</time>
      </trkpt>
      <trkpt lat="44.66975" lon="5.01267">
        <ele>314.5</ele>
        <time>2024-05-17T14:12:19Z</time>
      </trkpt>
      <trkpt lat="44.66986" lon="5.0128">
        <ele>313.9</ele>
        <time>2024-05-17T14:12:20Z</time>
      </trkpt>
      <trkpt lat="44.6699" lon="5.01285">
        <ele>313.7</ele>
        <time>2024-05-17T14:12:21Z</time>
      </trkpt>
      <trkpt lat="44.67001" lon="5.01298">
        <ele>313.1</ele>
        <time>2024-05-17T14:12:22Z</time>
      </trkpt>
      <trkpt lat="44.67005" lon="5.01302">
        <ele>312.9</ele>
        <time>2024-05-17T14:12:23Z</time>
      </trkpt>
      <trkpt lat="44.67016" lon="5.01315">
        <ele>312.2</ele>
        <time>2024-05-17T14:12:24Z</time>
      </trkpt>
      <trkpt lat="44.6702" lon="5.01319">
        <ele>312</ele>
        <time>2024-05-17T14:12:25Z</time>
      </trkpt>
      <trkpt lat="44.67033" lon="5.01332">
        <ele>311.3</ele>
        <time>2024-05-17T14:12:26Z</time>
      </trkpt>
      <trkpt lat="44.67037" lon="5.01337">
        <ele>311</ele>
        <time>2024-05-17T14:12:27Z</time>
      </trkpt>
      <trkpt lat="44.6705" lon="5.0135">
        <ele>310.4</ele>
        <time>2024-05-17T14:12:28Z</time>
      </trkpt>
      <trkpt lat="44.67054" lon="5.01354">
        <ele>310.1</ele>
        <time>2024-05-17T14:12:29Z</time>
      </trkpt>
      <trkpt lat="44.67067" lon="5.01368">
        <ele>309.4</ele>
        <time>2024-05-17T14:12:30Z</time>
      </trkpt>
      <trkpt lat="44.67071" lon="5.01373">
        <ele>309.2</ele>
        <time>2024-05-17T14:12:31Z</time>
      </trkpt>
      <trkpt lat="44.67079" lon="5.01382">
        <ele>308.7</ele>
        <time>2024-05-17T14:12:32Z</time>
      </trkpt>
      <trkpt lat="44.67092" lon="5.01396">
        <ele>308.1</ele>
        <time>2024-05-17T14:12:33Z</time>
      </trkpt>
      <trkpt lat="44.67096" lon="5.014">
        <ele>307.8</ele>
        <time>2024-05-17T14:12:34Z</time>
      </trkpt>
      <trkpt lat="44.67105" lon="5.01409">
        <ele>307.4</ele>
        <time>2024-05-17T14:12:35Z</time>
      </trkpt>
      <trkpt lat="44.67118" lon="5.01423">
        <ele>306.6</ele>
        <time>2024-05-17T14:12:36Z</time>
      </trkpt>
      <trkpt lat="44.67123" lon="5.01427">
        <ele>306.4</ele>
        <time>2024-05-17T14:12:37Z</time>
      </trkpt>
      <trkpt lat="44.67136" lon="5.01439">
        <ele>305.7</ele>
        <time>2024-05-17T14:12:38Z</time>
      </trkpt>
      <trkpt lat="44.67141" lon="5.01443">
        <ele>305.5</ele>
        <time>2024-05-17T14:12:39Z</time>
      </trkpt>
      <trkpt lat="44.67155" lon="5.01455">
        <ele>304.8</ele>
        <time>2024-05-17T14:12:40Z</time>
      </trkpt>
      <trkpt lat="44.6716" lon="5.01459">
        <ele>304.6</ele>
        <time>2024-05-17T14:12:41Z</time>
      </trkpt>
      <trkpt lat="44.6717" lon="5.01468">
        <ele>304.2</ele>
        <time>2024-05-17T14:12:42Z</time>
      </trkpt>
      <trkpt lat="44.67179" lon="5.01476">
        <ele>303.7</ele>
        <time>2024-05-17T14:12:43Z</time>
      </trkpt>
      <trkpt lat="44.67188" lon="5.01484">
        <ele>303.2</ele>
        <time>2024-05-17T14:12:44Z</time>
      </trkpt>
      <trkpt lat="44.67198" lon="5.01492">
        <ele>302.7</ele>
        <time>2024-05-17T14:12:45Z</time>
      </trkpt>
      <trkpt lat="44.67207" lon="5.015">
        <ele>302.3</ele>
        <time>2024-05-17T14:12:46Z</time>
      </trkpt>
      <trkpt lat="44.67222" lon="5.01512">
        <ele>301.6</ele>
        <time>2024-05-17T14:12:47Z</time>
      </trkpt>
      <trkpt lat="44.67226" lon="5.01516">
        <ele>301.4</ele>
        <time>2024-05-17T14:12:48Z</time>
      </trkpt>
      <trkpt lat="44.67235" lon="5.01523">
        <ele>300.9</ele>
        <time>2024-05-17T14:12:49Z</time>
      </trkpt>
      <trkpt lat="44.67244" lon="5.01531">
        <ele>300.5</ele>
        <time>2024-05-17T14:12:50Z</time>
      </trkpt>
      <trkpt lat="44.67257" lon="5.01543">
        <ele>299.8</ele>
        <time>2024-05-17T14:12:51Z</time>
      </trkpt>
      <trkpt lat="44.67262" lon="5.01547">
        <ele>299.6</ele>
        <time>2024-05-17T14:12:52Z</time>
      </trkpt>
      <trkpt lat="44.6727" lon="5.01555">
        <ele>299.2</ele>
        <time>2024-05-17T14:12:53Z</time>
      </trkpt>
      <trkpt lat="44.67279" lon="5.01563">
        <ele>298.8</ele>
        <time>2024-05-17T14:12:54Z</time>
      </trkpt>
      <trkpt lat="44.67292" lon="5.01574">
        <ele>298.1</ele>
        <time>2024-05-17T14:12:55Z</time>
      </trkpt>
      <trkpt lat="44.67296" lon="5.01578">
        <ele>297.9</ele>
        <time>2024-05-17T14:12:56Z</time>
      </trkpt>
      <trkpt lat="44.67309" lon="5.01587">
        <ele>297.2</ele>
        <time>2024-05-17T14:12:57Z</time>
      </trkpt>
      <trkpt lat="44.67313" lon="5.01589">
        <ele>297</ele>
        <time>2024-05-17T14:12:58Z</time>
      </trkpt>
      <trkpt lat="44.67326" lon="5.01595">
        <ele>296.3</ele>
        <time>2024-05-17T14:12:59Z</time>
      </trkpt>
      <trkpt lat="44.67331" lon="5.01596">
        <ele>296.1</ele>
        <time>2024-05-17T14:13:00Z</time>
      </trkpt>
      <trkpt lat="44.67345" lon="5.01599">
        <ele>295.5</ele>
        <time>2024-05-17T14:13:01Z</time>
      </trkpt>
      <trkpt lat="44.6735" lon="5.016">
        <ele>295.3</ele>
        <time>2024-05-17T14:13:02Z</time>
      </trkpt>
      <trkpt lat="44.67359" lon="5.01601">
        <ele>294.9</ele>
        <time>2024-05-17T14:13:03Z</time>
      </trkpt>
      <trkpt lat="44.67369" lon="5.01602">
        <ele>294.5</ele>
        <time>2024-05-17T14:13:04Z</time>
      </trkpt>
      <trkpt lat="44.67384" lon="5.01604">
        <ele>293.8</ele>
        <time>2024-05-17T14:13:05Z</time>
      </trkpt>
      <trkpt lat="44.67389" lon="5.01604">
        <ele>293.6</ele>
        <time>2024-05-17T14:13:06Z</time>
      </trkpt>
      <trkpt lat="44.67399" lon="5.01605">
        <ele>293.2</ele>
        <time>2024-05-17T14:13:07Z</time>
      </trkpt>
      <trkpt lat="44.67414" lon="5.01607">
        <ele>292.5</ele>
        <time>2024-05-17T14:13:08Z</time>
      </trkpt>
      <trkpt lat="44.67419" lon="5.01607">
        <ele>292.3</ele>
        <time>2024-05-17T14:13:09Z</time>
      </trkpt>
      <trkpt lat="44.67434" lon="5.01606">
        <ele>291.6</ele>
        <time>2024-05-17T14:13:10Z</time>
      </trkpt>
      <trkpt lat="44.67439" lon="5.01605">
        <ele>291.4</ele>
        <time>2024-05-17T14:13:11Z</time>
      </trkpt>
      <trkpt lat="44.67454" lon="5.01601">
        <ele>290.7</ele>
        <time>2024-05-17T14:13:12Z</time>
      </trkpt>
      <trkpt lat="44.67459" lon="5.01598">
        <ele>290.5</ele>
        <time>2024-05-17T14:13:13Z</time>
      </trkpt>
      <trkpt lat="44.67469" lon="5.01593">
        <ele>290.1</ele>
        <time>2024-05-17T14:13:14Z</time>
      </trkpt>
      <trkpt lat="44.67483" lon="5.01584">
        <ele>289.3</ele>
        <time>2024-05-17T14:13:15Z</time>
      </trkpt>
      <trkpt lat="44.67488" lon="5.01581">
        <ele>289</ele>
        <time>2024-05-17T14:13:16Z</time>
      </trkpt>
      <trkpt lat="44.67498" lon="5.01575">
        <ele>288.5</ele>
        <time>2024-05-17T14:13:17Z</time>
      </trkpt>
      <trkpt lat="44.67507" lon="5.01568">
        <ele>288.1</ele>
        <time>2024-05-17T14:13:18Z</time>
      </trkpt>
      <trkpt lat="44.67522" lon="5.01558">
        <ele>287.4</ele>
        <time>2024-05-17T14:13:19Z</time>
      </trkpt>
      <trkpt lat="44.67527" lon="5.01555">
        <ele>287.2</ele>
        <time>2024-05-17T14:13:20Z</time>
      </trkpt>
      <trkpt lat="44.67541" lon="5.01545">
        <ele>286.5</ele>
        <time>2024-05-17T14:13:21Z</time>
      </trkpt>
      <trkpt lat="44.67546" lon="5.01541">
        <ele>286.2</ele>
        <time>2024-05-17T14:13:22Z</time>
      </trkpt>
      <trkpt lat="44.67561" lon="5.01531">
        <ele>285.4</ele>
        <time>2024-05-17T14:13:23Z</time>
      </trkpt>
      <trkpt lat="44.67566" lon="5.01528">
        <ele>285.2</ele>
        <time>2024-05-17T14:13:24Z</time>
      </trkpt>
      <trkpt lat="44.67575" lon="5.01521">
        <ele>284.7</ele>
        <time>2024-05-17T14:13:25Z</time>
      </trkpt>
      <trkpt lat="44.67585" lon="5.01515">
        <ele>284.3</ele>
        <time>2024-05-17T14:13:26Z</time>
      </trkpt>
      <trkpt lat="44.67594" lon="5.01508">
        <ele>283.9</ele>
        <time>2024-05-17T14:13:27Z</time>
      </trkpt>
      <trkpt lat="44.67604" lon="5.01502">
        <ele>283.4</ele>
        <time>2024-05-17T14:13:28Z</time>
      </trkpt>
      <trkpt lat="44.67613" lon="5.01495">
        <ele>283</ele>
        <time>2024-05-17T14:13:29Z</time>
      </trkpt>
      <trkpt lat="44.67623" lon="5.01489">
        <ele>282.5</ele>
        <time>2024-05-17T14:13:30Z</time>
      </trkpt>
      <trkpt lat="44.67633" lon="5.01484">
        <ele>282.1</ele>
        <time>2024-05-17T14:13:31Z</time>
      </trkpt>
      <trkpt lat="44.67643" lon="5.0148">
        <ele>281.6</ele>
        <time>2024-05-17T14:13:32Z</time>
      </trkpt>
      <trkpt lat="44.67654" lon="5.01478">
        <ele>281.2</ele>
        <time>2024-05-17T14:13:33Z</time>
      </trkpt>
      <trkpt lat="44.67665" lon="5.01479">
        <ele>280.8</ele>
        <time>2024-05-17T14:13:34Z</time>
      </trkpt>
      <trkpt lat="44.67681" lon="5.0148">
        <ele>280.2</ele>
        <time>2024-05-17T14:13:35Z</time>
      </trkpt>
      <trkpt lat="44.67686" lon="5.01482">
        <ele>280.1</ele>
        <time>2024-05-17T14:13:36Z</time>
      </trkpt>
      <trkpt lat="44.67701" lon="5.01486">
        <ele>279.8</ele>
        <time>2024-05-17T14:13:37Z</time>
      </trkpt>
      <trkpt lat="44.67706" lon="5.01487">
        <ele>279.8</ele>
        <time>2024-05-17T14:13:38Z</time>
      </trkpt>
      <trkpt lat="44.6772" lon="5.01492">
        <ele>279.7</ele>
        <time>2024-05-17T14:13:39Z</time>
      </trkpt>
      <trkpt lat="44.67725" lon="5.01493">
        <ele>279.7</ele>
        <time>2024-05-17T14:13:40Z</time>
      </trkpt>
      <trkpt lat="44.67734" lon="5.01495">
        <ele>279.8</ele>
        <time>2024-05-17T14:13:41Z</time>
      </trkpt>
      <trkpt lat="44.67743" lon="5.01495">
        <ele>279.8</ele>
        <time>2024-05-17T14:13:42Z</time>
      </trkpt>
      <trkpt lat="44.67756" lon="5.01492">
        <ele>279.8</ele>
        <time>2024-05-17T14:13:43Z</time>
      </trkpt>
      <trkpt lat="44.6776" lon="5.0149">
        <ele>279.8</ele>
        <time>2024-05-17T14:13:44Z</time>
      </trkpt>
      <trkpt lat="44.67769" lon="5.01486">
        <ele>279.8</ele>
        <time>2024-05-17T14:13:45Z</time>
      </trkpt>
      <trkpt lat="44.67777" lon="5.01482">
        <ele>279.8</ele>
        <time>2024-05-17T14:13:46Z</time>
      </trkpt>
      <trkpt lat="44.67789" lon="5.01475">
        <ele>279.7</ele>
        <time>2024-05-17T14:13:47Z</time>
      </trkpt>
      <trkpt lat="44.67793" lon="5.01472">
        <ele>279.6</ele>
        <time>2024-05-17T14:13:48Z</time>
      </trkpt>
      <trkpt lat="44.67805" lon="5.01465">
        <ele>279.5</ele>
        <time>2024-05-17T14:13:49Z</time>
      </trkpt>
      <trkpt lat="44.67809" lon="5.01462">
        <ele>279.5</ele>
        <time>2024-05-17T14:13:50Z</time>
      </trkpt>
      <trkpt lat="44.6782" lon="5.01455">
        <ele>279.4</ele>
        <time>2024-05-17T14:13:51Z</time>
      </trkpt>
      <trkpt lat="44.67823" lon="5.01453">
        <ele>279.4</ele>
        <time>2024-05-17T14:13:52Z</time>
      </trkpt>
      <trkpt lat="44.67833" lon="5.01446">
        <ele>279.4</ele>
        <time>2024-05-17T14:13:53Z</time>
      </trkpt>
      <trkpt lat="44.67837" lon="5.01443">
        <ele>279.4</ele>
        <time>2024-05-17T14:13:54Z</time>
      </trkpt>
      <trkpt lat="44.67842" lon="5.01438">
        <ele>279.4</ele>
        <time>2024-05-17T14:13:55Z</time>
      </trkpt>
      <trkpt lat="44.67848" lon="5.01433">
        <ele>279.5</ele>
        <time>2024-05-17T14:13:56Z</time>
      </trkpt>
      <trkpt lat="44.67853" lon="5.01427">
        <ele>279.5</ele>
        <time>2024-05-17T14:13:57Z</time>
      </trkpt>
      <trkpt lat="44.67857" lon="5.01421">
        <ele>279.5</ele>
        <time>2024-05-17T14:13:58Z</time>
      </trkpt>
      <trkpt lat="44.67862" lon="5.01415">
        <ele>279.5</ele>
        <time>2024-05-17T14:13:59Z</time>
      </trkpt>
      <trkpt lat="44.67866" lon="5.01408">
        <ele>279.5</ele>
        <time>2024-05-17T14:14:00Z</time>
      </trkpt>
      <trkpt lat="44.67872" lon="5.01396">
        <ele>279.5</ele>
        <time>2024-05-17T14:14:01Z</time>
      </trkpt>
      <trkpt lat="44.67874" lon="5.01392">
        <ele>279.5</ele>
        <time>2024-05-17T14:14:02Z</time>
      </trkpt>
      <trkpt lat="44.6788" lon="5.01381">
        <ele>279.5</ele>
        <time>2024-05-17T14:14:03Z</time>
      </trkpt>
      <trkpt lat="44.67881" lon="5.01377">
        <ele>279.5</ele>
        <time>2024-05-17T14:14:04Z</time>
      </trkpt>
      <trkpt lat="44.67887" lon="5.01365">
        <ele>279.4</ele>
        <time>2024-05-17T14:14:05Z</time>
      </trkpt>
      <trkpt lat="44.67889" lon="5.01361">
        <ele>279.4</ele>
        <time>2024-05-17T14:14:06Z</time>
      </trkpt>
      <trkpt lat="44.67893" lon="5.01353">
        <ele>279.4</ele>
        <time>2024-05-17T14:14:07Z</time>
      </trkpt>
      <trkpt lat="44.67897" lon="5.01345">
        <ele>279.5</ele>
        <time>2024-05-17T14:14:08Z</time>
      </trkpt>
      <trkpt lat="44.67902" lon="5.01333">
        <ele>279.5</ele>
        <time>2024-05-17T14:14:09Z</time>
      </trkpt>
      <trkpt lat="44.67904" lon="5.0133">
        <ele>279.5</ele>
        <time>2024-05-17T14:14:10Z</time>
      </trkpt>
      <trkpt lat="44.67908" lon="5.01322">
        <ele>279.5</ele>
        <time>2024-05-17T14:14:11Z</time>
      </trkpt>
      <trkpt lat="44.67911" lon="5.01314">
        <ele>279.6</ele>
        <time>2024-05-17T14:14:12Z</time>
      </trkpt>
      <trkpt lat="44.67915" lon="5.01307">
        <ele>279.6</ele>
        <time>2024-05-17T14:14:13Z</time>
      </trkpt>
      <trkpt lat="44.67919" lon="5.01298">
        <ele>279.5</ele>
        <time>2024-05-17T14:14:14Z</time>
      </trkpt>
      <trkpt lat="44.67926" lon="5.01287">
        <ele>279.5</ele>
        <time>2024-05-17T14:14:15Z</time>
      </trkpt>
      <trkpt lat="44.67928" lon="5.01284">
        <ele>279.5</ele>
        <time>2024-05-17T14:14:16Z</time>
      </trkpt>
      <trkpt lat="44.67936" lon="5.01274">
        <ele>279.4</ele>
        <time>2024-05-17T14:14:17Z</time>
      </trkpt>
      <trkpt lat="44.67939" lon="5.01271">
        <ele>279.4</ele>
        <time>2024-05-17T14:14:18Z</time>
      </trkpt>
      <trkpt lat="44.67949" lon="5.01264">
        <ele>279.3</ele>
        <time>2024-05-17T14:14:19Z</time>
      </trkpt>
      <trkpt lat="44.67952" lon="5.01262">
        <ele>279.3</ele>
        <time>2024-05-17T14:14:20Z</time>
      </trkpt>
      <trkpt lat="44.67962" lon="5.01257">
        <ele>279.2</ele>
        <time>2024-05-17T14:14:21Z</time>
      </trkpt>
      <trkpt lat="44.67965" lon="5.01257">
        <ele>279.1</ele>
        <time>2024-05-17T14:14:22Z</time>
      </trkpt>
      <trkpt lat="44.67976" lon="5.01254">
        <ele>279</ele>
        <time>2024-05-17T14:14:23Z</time>
      </trkpt>
      <trkpt lat="44.6798" lon="5.01254">
        <ele>278.9</ele>
        <time>2024-05-17T14:14:24Z</time>
      </trkpt>
      <trkpt lat="44.67991" lon="5.01253">
        <ele>278.7</ele>
        <time>2024-05-17T14:14:25Z</time>
      </trkpt>
      <trkpt lat="44.67995" lon="5.01253">
        <ele>278.6</ele>
        <time>2024-05-17T14:14:26Z</time>
      </trkpt>
      <trkpt lat="44.68002" lon="5.01252">
        <ele>278.4</ele>
        <time>2024-05-17T14:14:27Z</time>
      </trkpt>
      <trkpt lat="44.68014" lon="5.01253">
        <ele>278</ele>
        <time>2024-05-17T14:14:28Z</time>
      </trkpt>
      <trkpt lat="44.68018" lon="5.01253">
        <ele>277.9</ele>
        <time>2024-05-17T14:14:29Z</time>
      </trkpt>
      <trkpt lat="44.6803" lon="5.01256">
        <ele>277.5</ele>
        <time>2024-05-17T14:14:30Z</time>
      </trkpt>
      <trkpt lat="44.68034" lon="5.01258">
        <ele>277.4</ele>
        <time>2024-05-17T14:14:31Z</time>
      </trkpt>
      <trkpt lat="44.68045" lon="5.01266">
        <ele>277</ele>
        <time>2024-05-17T14:14:32Z</time>
      </trkpt>
      <trkpt lat="44.68048" lon="5.01269">
        <ele>276.8</ele>
        <time>2024-05-17T14:14:33Z</time>
      </trkpt>
      <trkpt lat="44.68058" lon="5.01279">
        <ele>276.4</ele>
        <time>2024-05-17T14:14:34Z</time>
      </trkpt>
      <trkpt lat="44.68062" lon="5.01283">
        <ele>276.3</ele>
        <time>2024-05-17T14:14:35Z</time>
      </trkpt>
      <trkpt lat="44.68072" lon="5.01294">
        <ele>275.8</ele>
        <time>2024-05-17T14:14:36Z</time>
      </trkpt>
      <trkpt lat="44.68075" lon="5.01298">
        <ele>275.7</ele>
        <time>2024-05-17T14:14:37Z</time>
      </trkpt>
      <trkpt lat="44.68082" lon="5.01303">
        <ele>275.4</ele>
        <time>2024-05-17T14:14:38Z</time>
      </trkpt>
      <trkpt lat="44.6809" lon="5.01308">
        <ele>275.1</ele>
        <time>2024-05-17T14:14:39Z</time>
      </trkpt>
      <trkpt lat="44.68102" lon="5.01312">
        <ele>274.7</ele>
        <time>2024-05-17T14:14:40Z</time>
      </trkpt>
      <trkpt lat="44.68106" lon="5.01313">
        <ele>274.5</ele>
        <time>2024-05-17T14:14:41Z</time>
      </trkpt>
      <trkpt lat="44.68119" lon="5.01315">
        <ele>274</ele>
        <time>2024-05-17T14:14:42Z</time>
      </trkpt>
      <trkpt lat="44.68123" lon="5.01316">
        <ele>273.9</ele>
        <time>2024-05-17T14:14:43Z</time>
      </trkpt>
      <trkpt lat="44.68136" lon="5.01316">
        <ele>273.3</ele>
        <time>2024-05-17T14:14:44Z</time>
      </trkpt>
      <trkpt lat="44.68141" lon="5.01316">
        <ele>273.2</ele>
        <time>2024-05-17T14:14:45Z</time>
      </trkpt>
      <trkpt lat="44.68155" lon="5.01317">
        <ele>272.7</ele>
        <time>2024-05-17T14:14:46Z</time>
      </trkpt>
      <trkpt lat="44.68159" lon="5.01317">
        <ele>272.5</ele>
        <time>2024-05-17T14:14:47Z</time>
      </trkpt>
      <trkpt lat="44.68169" lon="5.01317">
        <ele>272.2</ele>
        <time>2024-05-17T14:14:48Z</time>
      </trkpt>
      <trkpt lat="44.68178" lon="5.01317">
        <ele>271.8</ele>
        <time>2024-05-17T14:14:49Z</time>
      </trkpt>
      <trkpt lat="44.68188" lon="5.01317">
        <ele>271.5</ele>
        <time>2024-05-17T14:14:50Z</time>
      </trkpt>
      <trkpt lat="44.68198" lon="5.01317">
        <ele>271.2</ele>
        <time>2024-05-17T14:14:51Z</time>
      </trkpt>
      <trkpt lat="44.68207" lon="5.01317">
        <ele>270.9</ele>
        <time>2024-05-17T14:14:52Z</time>
      </trkpt>
      <trkpt lat="44.68217" lon="5.01317">
        <ele>270.6</ele>
        <time>2024-05-17T14:14:53Z</time>
      </trkpt>
      <trkpt lat="44.68227" lon="5.01317">
        <ele>270.3</ele>
        <time>2024-05-17T14:14:54Z</time>
      </trkpt>
      <trkpt lat="44.68237" lon="5.01315">
        <ele>270</ele>
        <time>2024-05-17T14:14:55Z</time>
      </trkpt>
      <trkpt lat="44.68246" lon="5.01313">
        <ele>269.7</ele>
        <time>2024-05-17T14:14:56Z</time>
      </trkpt>
      <trkpt lat="44.68256" lon="5.0131">
        <ele>269.5</ele>
        <time>2024-05-17T14:14:57Z</time>
      </trkpt>
      <trkpt lat="44.68271" lon="5.01305">
        <ele>269.1</ele>
        <time>2024-05-17T14:14:58Z</time>
      </trkpt>
      <trkpt lat="44.68276" lon="5.01303">
        <ele>268.9</ele>
        <time>2024-05-17T14:14:59Z</time>
      </trkpt>
      <trkpt lat="44.68291" lon="5.01295">
        <ele>268.5</ele>
        <time>2024-05-17T14:15:00Z</time>
      </trkpt>
      <trkpt lat="44.68296" lon="5.01293">
        <ele>268.3</ele>
        <time>2024-05-17T14:15:01Z</time>
      </trkpt>
      <trkpt lat="44.6831" lon="5.01285">
        <ele>267.9</ele>
        <time>2024-05-17T14:15:02Z</time>
      </trkpt>
      <trkpt lat="44.68315" lon="5.01282">
        <ele>267.8</ele>
        <time>2024-05-17T14:15:03Z</time>
      </trkpt>
      <trkpt lat="44.68329" lon="5.01274">
        <ele>267.3</ele>
        <time>2024-05-17T14:15:04Z</time>
      </trkpt>
      <trkpt lat="44.68334" lon="5.01272">
        <ele>267.1</ele>
        <time>2024-05-17T14:15:05Z</time>
      </trkpt>
      <trkpt lat="44.68343" lon="5.01267">
        <ele>266.7</ele>
        <time>2024-05-17T14:15:06Z</time>
      </trkpt>
      <trkpt lat="44.68358" lon="5.01259">
        <ele>266.2</ele>
        <time>2024-05-17T14:15:07Z</time>
      </trkpt>
      <trkpt lat="44.68362" lon="5.01257">
        <ele>266.1</ele>
        <time>2024-05-17T14:15:08Z</time>
      </trkpt>
      <trkpt lat="44.68372" lon="5.01252">
        <ele>265.7</ele>
        <time>2024-05-17T14:15:09Z</time>
      </trkpt>
      <trkpt lat="44.68385" lon="5.01245">
        <ele>265.2</ele>
        <time>2024-05-17T14:15:10Z</time>
      </trkpt>
      <trkpt lat="44.6839" lon="5.01242">
        <ele>265.1</ele>
        <time>2024-05-17T14:15:11Z</time>
      </trkpt>
      <trkpt lat="44.68403" lon="5.01235">
        <ele>264.6</ele>
        <time>2024-05-17T14:15:12Z</time>
      </trkpt>
      <trkpt lat="44.68408" lon="5.01233">
        <ele>264.4</ele>
        <time>2024-05-17T14:15:13Z</time>
      </trkpt>
      <trkpt lat="44.68421" lon="5.01225">
        <ele>263.9</ele>
        <time>2024-05-17T14:15:14Z</time>
      </trkpt>
      <trkpt lat="44.68426" lon="5.01223">
        <ele>263.7</ele>
        <time>2024-05-17T14:15:15Z</time>
      </trkpt>
      <trkpt lat="44.68439" lon="5.01216">
        <ele>263.2</ele>
        <time>2024-05-17T14:15:16Z</time>
      </trkpt>
      <trkpt lat="44.68444" lon="5.01214">
        <ele>263.1</ele>
        <time>2024-05-17T14:15:17Z</time>
      </trkpt>
      <trkpt lat="44.68453" lon="5.01209">
        <ele>262.8</ele>
        <time>2024-05-17T14:15:18Z</time>
      </trkpt>
      <trkpt lat="44.68466" lon="5.01201">
        <ele>262.3</ele>
        <time>2024-05-17T14:15:19Z</time>
      </trkpt>
      <trkpt lat="44.68471" lon="5.01199">
        <ele>262.2</ele>
        <time>2024-05-17T14:15:20Z</time>
      </trkpt>
      <trkpt lat="44.68479" lon="5.01193">
        <ele>261.9</ele>
        <time>2024-05-17T14:15:21Z</time>
      </trkpt>
      <trkpt lat="44.68487" lon="5.01187">
        <ele>261.6</ele>
        <time>2024-05-17T14:15:22Z</time>
      </trkpt>
      <trkpt lat="44.68495" lon="5.0118">
        <ele>261.3</ele>
        <time>2024-05-17T14:15:23Z</time>
      </trkpt>
      <trkpt lat="44.68503" lon="5.01172">
        <ele>261.1</ele>
        <time>2024-05-17T14:15:24Z</time>
      </trkpt>
      <trkpt lat="44.6851" lon="5.01163">
        <ele>260.9</ele>
        <time>2024-05-17T14:15:25Z</time>
      </trkpt>
      <trkpt lat="44.68517" lon="5.01154">
        <ele>260.6</ele>
        <time>2024-05-17T14:15:26Z</time>
      </trkpt>
      <trkpt lat="44.68526" lon="5.01139">
        <ele>260.2</ele>
        <time>2024-05-17T14:15:27Z</time>
      </trkpt>
      <trkpt lat="44.68529" lon="5.01133">
        <ele>260</ele>
        <time>2024-05-17T14:15:28Z</time>
      </trkpt>
      <trkpt lat="44.68539" lon="5.01118">
        <ele>259.5</ele>
        <time>2024-05-17T14:15:29Z</time>
      </trkpt>
      <trkpt lat="44.68542" lon="5.01113">
        <ele>259.4</ele>
        <time>2024-05-17T14:15:30Z</time>
      </trkpt>
      <trkpt lat="44.68548" lon="5.01102">
        <ele>259.1</ele>
        <time>2024-05-17T14:15:31Z</time>
      </trkpt>
      <trkpt lat="44.68554" lon="5.01091">
        <ele>258.9</ele>
        <time>2024-05-17T14:15:32Z</time>
      </trkpt>
      <trkpt lat="44.68561" lon="5.0108">
        <ele>258.6</ele>
        <time>2024-05-17T14:15:33Z</time>
      </trkpt>
      <trkpt lat="44.68567" lon="5.01069">
        <ele>258.3</ele>
        <time>2024-05-17T14:15:34Z</time>
      </trkpt>
      <trkpt lat="44.68573" lon="5.01059">
        <ele>258</ele>
        <time>2024-05-17T14:15:35Z</time>
      </trkpt>
      <trkpt lat="44.68579" lon="5.01048">
        <ele>257.7</ele>
        <time>2024-05-17T14:15:36Z</time>
      </trkpt>
      <trkpt lat="44.68586" lon="5.01037">
        <ele>257.4</ele>
        <time>2024-05-17T14:15:37Z</time>
      </trkpt>
      <trkpt lat="44.68592" lon="5.01026">
        <ele>257.1</ele>
        <time>2024-05-17T14:15:38Z</time>
      </trkpt>
      <trkpt lat="44.68601" lon="5.0101">
        <ele>256.6</ele>
        <time>2024-05-17T14:15:39Z</time>
      </trkpt>
      <trkpt lat="44.68605" lon="5.01004">
        <ele>256.5</ele>
        <time>2024-05-17T14:15:40Z</time>
      </trkpt>
      <trkpt lat="44.68614" lon="5.00988">
        <ele>256.1</ele>
        <time>2024-05-17T14:15:41Z</time>
      </trkpt>
      <trkpt lat="44.68617" lon="5.00982">
        <ele>256</ele>
        <time>2024-05-17T14:15:42Z</time>
      </trkpt>
      <trkpt lat="44.68627" lon="5.00966">
        <ele>255.7</ele>
        <time>2024-05-17T14:15:43Z</time>
      </trkpt>
      <trkpt lat="44.6863" lon="5.00961">
        <ele>255.6</ele>
        <time>2024-05-17T14:15:44Z</time>
      </trkpt>
      <trkpt lat="44.68639" lon="5.00945">
        <ele>255.4</ele>
        <time>2024-05-17T14:15:45Z</time>
      </trkpt>
      <trkpt lat="44.68642" lon="5.0094">
        <ele>255.3</ele>
        <time>2024-05-17T14:15:46Z</time>
      </trkpt>
      <trkpt lat="44.68651" lon="5.00924">
        <ele>255</ele>
        <time>2024-05-17T14:15:47Z</time>
      </trkpt>
      <trkpt lat="44.68654" lon="5.00919">
        <ele>255</ele>
        <time>2024-05-17T14:15:48Z</time>
      </trkpt>
      <trkpt lat="44.68663" lon="5.00904">
        <ele>254.8</ele>
        <time>2024-05-17T14:15:49Z</time>
      </trkpt>
      <trkpt lat="44.68666" lon="5.00899">
        <ele>254.7</ele>
        <time>2024-05-17T14:15:50Z</time>
      </trkpt>
      <trkpt lat="44.68674" lon="5.00884">
        <ele>254.6</ele>
        <time>2024-05-17T14:15:51Z</time>
      </trkpt>
      <trkpt lat="44.68677" lon="5.00879">
        <ele>254.6</ele>
        <time>2024-05-17T14:15:52Z</time>
      </trkpt>
      <trkpt lat="44.68683" lon="5.00869">
        <ele>254.5</ele>
        <time>2024-05-17T14:15:53Z</time>
      </trkpt>
      <trkpt lat="44.68691" lon="5.00855">
        <ele>254.4</ele>
        <time>2024-05-17T14:15:54Z</time>
      </trkpt>
      <trkpt lat="44.68694" lon="5.00851">
        <ele>254.4</ele>
        <time>2024-05-17T14:15:55Z</time>
      </trkpt>
      <trkpt lat="44.68703" lon="5.00836">
        <ele>254.2</ele>
        <time>2024-05-17T14:15:56Z</time>
      </trkpt>
      <trkpt lat="44.68705" lon="5.00832">
        <ele>254.2</ele>
        <time>2024-05-17T14:15:57Z</time>
      </trkpt>
      <trkpt lat="44.68714" lon="5.00817">
        <ele>254</ele>
        <time>2024-05-17T14:15:58Z</time>
      </trkpt>
      <trkpt lat="44.68717" lon="5.00813">
        <ele>254</ele>
        <time>2024-05-17T14:15:59Z</time>
      </trkpt>
      <trkpt lat="44.68725" lon="5.00799">
        <ele>253.9</ele>
        <time>2024-05-17T14:16:00Z</time>
      </trkpt>
      <trkpt lat="44.68728" lon="5.00794">
        <ele>253.8</ele>
        <time>2024-05-17T14:16:01Z</time>
      </trkpt>
      <trkpt lat="44.68736" lon="5.0078">
        <ele>253.7</ele>
        <time>2024-05-17T14:16:02Z</time>
      </trkpt>
      <trkpt lat="44.68738" lon="5.00775">
        <ele>253.6</ele>
        <time>2024-05-17T14:16:03Z</time>
      </trkpt>
      <trkpt lat="44.68743" lon="5.00765">
        <ele>253.5</ele>
        <time>2024-05-17T14:16:04Z</time>
      </trkpt>
      <trkpt lat="44.68749" lon="5.00756">
        <ele>253.4</ele>
        <time>2024-05-17T14:16:05Z</time>
      </trkpt>
      <trkpt lat="44.68754" lon="5.00746">
        <ele>253.2</ele>
        <time>2024-05-17T14:16:06Z</time>
      </trkpt>
      <trkpt lat="44.6876" lon="5.00736">
        <ele>253.1</ele>
        <time>2024-05-17T14:16:07Z</time>
      </trkpt>
      <trkpt lat="44.68766" lon="5.00727">
        <ele>253</ele>
        <time>2024-05-17T14:16:08Z</time>
      </trkpt>
      <trkpt lat="44.68772" lon="5.00718">
        <ele>253</ele>
        <time>2024-05-17T14:16:09Z</time>
      </trkpt>
      <trkpt lat="44.68782" lon="5.00706">
        <ele>252.9</ele>
        <time>2024-05-17T14:16:10Z</time>
      </trkpt>
      <trkpt lat="44.68785" lon="5.00702">
        <ele>252.9</ele>
        <time>2024-05-17T14:16:11Z</time>
      </trkpt>
      <trkpt lat="44.68796" lon="5.00692">
        <ele>252.9</ele>
        <time>2024-05-17T14:16:12Z</time>
      </trkpt>
      <trkpt lat="44.688" lon="5.00689">
        <ele>252.9</ele>
        <time>2024-05-17T14:16:13Z</time>
      </trkpt>
      <trkpt lat="44.68808" lon="5.00683">
        <ele>252.8</ele>
        <time>2024-05-17T14:16:14Z</time>
      </trkpt>
      <trkpt lat="44.68816" lon="5.00679">
        <ele>252.7</ele>
        <time>2024-05-17T14:16:15Z</time>
      </trkpt>
      <trkpt lat="44.68824" lon="5.00674">
        <ele>252.6</ele>
        <time>2024-05-17T14:16:16Z</time>
      </trkpt>
      <trkpt lat="44.68833" lon="5.00671">
        <ele>252.6</ele>
        <time>2024-05-17T14:16:17Z</time>
      </trkpt>
      <trkpt lat="44.68841" lon="5.00668">
        <ele>252.5</ele>
        <time>2024-05-17T14:16:18Z</time>
      </trkpt>
      <trkpt lat="44.6885" lon="5.00665">
        <ele>252.5</ele>
        <time>2024-05-17T14:16:19Z</time>
      </trkpt>
      <trkpt lat="44.68862" lon="5.00664">
        <ele>252.4</ele>
        <time>2024-05-17T14:16:20Z</time>
      </trkpt>
      <trkpt lat="44.68867" lon="5.00664">
        <ele>252.3</ele>
        <time>2024-05-17T14:16:21Z</time>
      </trkpt>
      <trkpt lat="44.68879" lon="5.00665">
        <ele>252.2</ele>
        <time>2024-05-17T14:16:22Z</time>
      </trkpt>
      <trkpt lat="44.68883" lon="5.00666">
        <ele>252.2</ele>
        <time>2024-05-17T14:16:23Z</time>
      </trkpt>
      <trkpt lat="44.68896" lon="5.00668">
        <ele>252.1</ele>
        <time>2024-05-17T14:16:24Z</time>
      </trkpt>
      <trkpt lat="44.689" lon="5.00669">
        <ele>252.1</ele>
        <time>2024-05-17T14:16:25Z</time>
      </trkpt>
      <trkpt lat="44.68912" lon="5.00673">
        <ele>252</ele>
        <time>2024-05-17T14:16:26Z</time>
      </trkpt>
      <trkpt lat="44.68916" lon="5.00674">
        <ele>252</ele>
        <time>2024-05-17T14:16:27Z</time>
      </trkpt>
      <trkpt lat="44.68928" lon="5.00679">
        <ele>251.9</ele>
        <time>2024-05-17T14:16:28Z</time>
      </trkpt>
      <trkpt lat="44.68932" lon="5.0068">
        <ele>251.9</ele>
        <time>2024-05-17T14:16:29Z</time>
      </trkpt>
      <trkpt lat="44.68944" lon="5.00684">
        <ele>251.9</ele>
        <time>2024-05-17T14:16:30Z</time>
      </trkpt>
      <trkpt lat="44.68948" lon="5.00686">
        <ele>251.9</ele>
        <time>2024-05-17T14:16:31Z</time>
      </trkpt>
      <trkpt lat="44.6896" lon="5.00689">
        <ele>251.9</ele>
        <time>2024-05-17T14:16:32Z</time>
      </trkpt>
      <trkpt lat="44.68964" lon="5.0069">
        <ele>251.9</ele>
        <time>2024-05-17T14:16:33Z</time>
      </trkpt>
      <trkpt lat="44.68972" lon="5.00692">
        <ele>251.9</ele>
        <time>2024-05-17T14:16:34Z</time>
      </trkpt>
      <trkpt lat="44.68984" lon="5.00693">
        <ele>251.9</ele>
        <time>2024-05-17T14:16:35Z</time>
      </trkpt>
      <trkpt lat="44.68988" lon="5.00692">
        <ele>251.9</ele>
        <time>2024-05-17T14:16:36Z</time>
      </trkpt>
      <trkpt lat="44.68999" lon="5.00691">
        <ele>251.8</ele>
        <time>2024-05-17T14:16:37Z</time>
      </trkpt>
      <trkpt lat="44.69003" lon="5.0069">
        <ele>251.8</ele>
        <time>2024-05-17T14:16:38Z</time>
      </trkpt>
      <trkpt lat="44.69015" lon="5.00687">
        <ele>251.6</ele>
        <time>2024-05-17T14:16:39Z</time>
      </trkpt>
      <trkpt lat="44.69019" lon="5.00685">
        <ele>251.6</ele>
        <time>2024-05-17T14:16:40Z</time>
      </trkpt>
      <trkpt lat="44.6903" lon="5.0068">
        <ele>251.5</ele>
        <time>2024-05-17T14:16:41Z</time>
      </trkpt>
      <trkpt lat="44.69033" lon="5.00678">
        <ele>251.5</ele>
        <time>2024-05-17T14:16:42Z</time>
      </trkpt>
      <trkpt lat="44.69044" lon="5.00673">
        <ele>251.5</ele>
        <time>2024-05-17T14:16:43Z</time>
      </trkpt>
      <trkpt lat="44.69048" lon="5.00672">
        <ele>251.5</ele>
        <time>2024-05-17T14:16:44Z</time>
      </trkpt>
      <trkpt lat="44.69059" lon="5.00667">
        <ele>251.5</ele>
        <time>2024-05-17T14:16:45Z</time>
      </trkpt>
      <trkpt lat="44.69063" lon="5.00665">
        <ele>251.4</ele>
        <time>2024-05-17T14:16:46Z</time>
      </trkpt>
      <trkpt lat="44.6907" lon="5.00663">
        <ele>251.4</ele>
        <time>2024-05-17T14:16:47Z</time>
      </trkpt>
      <trkpt lat="44.69077" lon="5.0066">
        <ele>251.4</ele>
        <time>2024-05-17T14:16:48Z</time>
      </trkpt>
      <trkpt lat="44.69085" lon="5.00657">
        <ele>251.4</ele>
        <time>2024-05-17T14:16:49Z</time>
      </trkpt>
      <trkpt lat="44.69092" lon="5.00655">
        <ele>251.4</ele>
        <time>2024-05-17T14:16:50Z</time>
      </trkpt>
      <trkpt lat="44.691" lon="5.00654">
        <ele>251.3</ele>
        <time>2024-05-17T14:16:51Z</time>
      </trkpt>
      <trkpt lat="44.69108" lon="5.00653">
        <ele>251.3</ele>
        <time>2024-05-17T14:16:52Z</time>
      </trkpt>
      <trkpt lat="44.69119" lon="5.00651">
        <ele>251.2</ele>
        <time>2024-05-17T14:16:53Z</time>
      </trkpt>
      <trkpt lat="44.69123" lon="5.00651">
        <ele>251.1</ele>
        <time>2024-05-17T14:16:54Z</time>
      </trkpt>
      <trkpt lat="44.69134" lon="5.00649">
        <ele>251</ele>
        <time>2024-05-17T14:16:55Z</time>
      </trkpt>
      <trkpt lat="44.69138" lon="5.00649">
        <ele>251</ele>
        <time>2024-05-17T14:16:56Z</time>
      </trkpt>
      <trkpt lat="44.69149" lon="5.00647">
        <ele>250.9</ele>
        <time>2024-05-17T14:16:57Z</time>
      </trkpt>
      <trkpt lat="44.69153" lon="5.00647">
        <ele>250.9</ele>
        <time>2024-05-17T14:16:58Z</time>
      </trkpt>
      <trkpt lat="44.6916" lon="5.00645">
        <ele>250.8</ele>
        <time>2024-05-17T14:16:59Z</time>
      </trkpt>
      <trkpt lat="44.69167" lon="5.00644">
        <ele>250.8</ele>
        <time>2024-05-17T14:17:00Z</time>
      </trkpt>
      <trkpt lat="44.69174" lon="5.00643">
        <ele>250.7</ele>
        <time>2024-05-17T14:17:01Z</time>
      </trkpt>
      <trkpt lat="44.69181" lon="5.00641">
        <ele>250.7</ele>
        <time>2024-05-17T14:17:02Z</time>
      </trkpt>
      <trkpt lat="44.69188" lon="5.00639">
        <ele>250.7</ele>
        <time>2024-05-17T14:17:03Z</time>
      </trkpt>
      <trkpt lat="44.69195" lon="5.00636">
        <ele>250.7</ele>
        <time>2024-05-17T14:17:04Z</time>
      </trkpt>
      <trkpt lat="44.69206" lon="5.00631">
        <ele>250.6</ele>
        <time>2024-05-17T14:17:05Z</time>
      </trkpt>
      <trkpt lat="44.69209" lon="5.0063">
        <ele>250.6</ele>
        <time>2024-05-17T14:17:06Z</time>
      </trkpt>
      <trkpt lat="44.69219" lon="5.00624">
        <ele>250.6</ele>
        <time>2024-05-17T14:17:07Z</time>
      </trkpt>
      <trkpt lat="44.69222" lon="5.00621">
        <ele>250.6</ele>
        <time>2024-05-17T14:17:08Z</time>
      </trkpt>
      <trkpt lat="44.69232" lon="5.00614">
        <ele>250.6</ele>
        <time>2024-05-17T14:17:09Z</time>
      </trkpt>
      <trkpt lat="44.69235" lon="5.00611">
        <ele>250.6</ele>
        <time>2024-05-17T14:17:10Z</time>
      </trkpt>
      <trkpt lat="44.69245" lon="5.00603">
        <ele>250.6</ele>
        <time>2024-05-17T14:17:11Z</time>
      </trkpt>
      <trkpt lat="44.69248" lon="5.00601">
        <ele>250.6</ele>
        <time>2024-05-17T14:17:12Z</time>
      </trkpt>
      <trkpt lat="44.69258" lon="5.00593">
        <ele>250.6</ele>
        <time>2024-05-17T14:17:13Z</time>
      </trkpt>
      <trkpt lat="44.69261" lon="5.0059">
        <ele>250.6</ele>
        <time>2024-05-17T14:17:14Z</time>
      </trkpt>
      <trkpt lat="44.6927" lon="5.00581">
        <ele>250.6</ele>
        <time>2024-05-17T14:17:15Z</time>
      </trkpt>
      <trkpt lat="44.69273" lon="5.00578">
        <ele>250.6</ele>
        <time>2024-05-17T14:17:16Z</time>
      </trkpt>
      <trkpt lat="44.69279" lon="5.00573">
        <ele>250.6</ele>
        <time>2024-05-17T14:17:17Z</time>
      </trkpt>
      <trkpt lat="44.69287" lon="5.00566">
        <ele>250.6</ele>
        <time>2024-05-17T14:17:18Z</time>
      </trkpt>
      <trkpt lat="44.6929" lon="5.00563">
        <ele>250.6</ele>
        <time>2024-05-17T14:17:19Z</time>
      </trkpt>
      <trkpt lat="44.69299" lon="5.00555">
        <ele>250.6</ele>
        <time>2024-05-17T14:17:20Z</time>
      </trkpt>
      <trkpt lat="44.69302" lon="5.00552">
        <ele>250.6</ele>
        <time>2024-05-17T14:17:21Z</time>
      </trkpt>
      <trkpt lat="44.6931" lon="5.00545">
        <ele>250.6</ele>
        <time>2024-05-17T14:17:22Z</time>
      </trkpt>
      <trkpt lat="44.69313" lon="5.00542">
        <ele>250.6</ele>
        <time>2024-05-17T14:17:23Z</time>
      </trkpt>
      <trkpt lat="44.69322" lon="5.00534">
        <ele>250.5</ele>
        <time>2024-05-17T14:17:24Z</time>
      </trkpt>
      <trkpt lat="44.69326" lon="5.00532">
        <ele>250.5</ele>
        <time>2024-05-17T14:17:25Z</time>
      </trkpt>
      <trkpt lat="44.69335" lon="5.00524">
        <ele>250.4</ele>
        <time>2024-05-17T14:17:26Z</time>
      </trkpt>
      <trkpt lat="44.69338" lon="5.00522">
        <ele>250.4</ele>
        <time>2024-05-17T14:17:27Z</time>
      </trkpt>
      <trkpt lat="44.69344" lon="5.00517">
        <ele>250.1</ele>
        <time>2024-05-17T14:17:28Z</time>
      </trkpt>
      <trkpt lat="44.6935" lon="5.00512">
        <ele>249.9</ele>
        <time>2024-05-17T14:17:29Z</time>
      </trkpt>
      <trkpt lat="44.69357" lon="5.00508">
        <ele>249.7</ele>
        <time>2024-05-17T14:17:30Z</time>
      </trkpt>
      <trkpt lat="44.69364" lon="5.00504">
        <ele>249.6</ele>
        <time>2024-05-17T14:17:31Z</time>
      </trkpt>
      <trkpt lat="44.69371" lon="5.00501">
        <ele>249.4</ele>
        <time>2024-05-17T14:17:32Z</time>
      </trkpt>
      <trkpt lat="44.69378" lon="5.00497">
        <ele>249.2</ele>
        <time>2024-05-17T14:17:33Z</time>
      </trkpt>
      <trkpt lat="44.69389" lon="5.00492">
        <ele>248.9</ele>
        <time>2024-05-17T14:17:34Z</time>
      </trkpt>
      <trkpt lat="44.69393" lon="5.00491">
        <ele>248.8</ele>
        <time>2024-05-17T14:17:35Z</time>
      </trkpt>
      <trkpt lat="44.69401" lon="5.00488">
        <ele>248.6</ele>
        <time>2024-05-17T14:17:36Z</time>
      </trkpt>
      <trkpt lat="44.69408" lon="5.00484">
        <ele>248.4</ele>
        <time>2024-05-17T14:17:37Z</time>
      </trkpt>
      <trkpt lat="44.6942" lon="5.00479">
        <ele>248.1</ele>
        <time>2024-05-17T14:17:38Z</time>
      </trkpt>
      <trkpt lat="44.69424" lon="5.00478">
        <ele>248</ele>
        <time>2024-05-17T14:17:39Z</time>
      </trkpt>
      <trkpt lat="44.69433" lon="5.00475">
        <ele>247.8</ele>
        <time>2024-05-17T14:17:40Z</time>
      </trkpt>
      <trkpt lat="44.69441" lon="5.00473">
        <ele>247.5</ele>
        <time>2024-05-17T14:17:41Z</time>
      </trkpt>
      <trkpt lat="44.6945" lon="5.0047">
        <ele>247.3</ele>
        <time>2024-05-17T14:17:42Z</time>
      </trkpt>
      <trkpt lat="44.69458" lon="5.00468">
        <ele>247.1</ele>
        <time>2024-05-17T14:17:43Z</time>
      </trkpt>
      <trkpt lat="44.69467" lon="5.00466">
        <ele>246.9</ele>
        <time>2024-05-17T14:17:44Z</time>
      </trkpt>
      <trkpt lat="44.69476" lon="5.00463">
        <ele>246.7</ele>
        <time>2024-05-17T14:17:45Z</time>
      </trkpt>
      <trkpt lat="44.69484" lon="5.00461">
        <ele>246.5</ele>
        <time>2024-05-17T14:17:46Z</time>
      </trkpt>
      <trkpt lat="44.69497" lon="5.00458">
        <ele>246.1</ele>
        <time>2024-05-17T14:17:47Z</time>
      </trkpt>
      <trkpt lat="44.69501" lon="5.00457">
        <ele>246</ele>
        <time>2024-05-17T14:17:48Z</time>
      </trkpt>
      <trkpt lat="44.6951" lon="5.00454">
        <ele>245.8</ele>
        <time>2024-05-17T14:17:49Z</time>
      </trkpt>
      <trkpt lat="44.69523" lon="5.00451">
        <ele>245.7</ele>
        <time>2024-05-17T14:17:50Z</time>
      </trkpt>
      <trkpt lat="44.69527" lon="5.0045">
        <ele>245.6</ele>
        <time>2024-05-17T14:17:51Z</time>
      </trkpt>
      <trkpt lat="44.6954" lon="5.00446">
        <ele>245.7</ele>
        <time>2024-05-17T14:17:52Z</time>
      </trkpt>
      <trkpt lat="44.69544" lon="5.00445">
        <ele>245.7</ele>
        <time>2024-05-17T14:17:53Z</time>
      </trkpt>
      <trkpt lat="44.69553" lon="5.00443">
        <ele>245.9</ele>
        <time>2024-05-17T14:17:54Z</time>
      </trkpt>
      <trkpt lat="44.6956" lon="5.00441">
        <ele>246.1</ele>
        <time>2024-05-17T14:17:55Z</time>
      </trkpt>
      <trkpt lat="44.69572" lon="5.00438">
        <ele>246.4</ele>
        <time>2024-05-17T14:17:56Z</time>
      </trkpt>
      <trkpt lat="44.69575" lon="5.00437">
        <ele>246.5</ele>
        <time>2024-05-17T14:17:57Z</time>
      </trkpt>
      <trkpt lat="44.69583" lon="5.00436">
        <ele>246.8</ele>
        <time>2024-05-17T14:17:58Z</time>
      </trkpt>
      <trkpt lat="44.69593" lon="5.00433">
        <ele>247.2</ele>
        <time>2024-05-17T14:17:59Z</time>
      </trkpt>
      <trkpt lat="44.69597" lon="5.00433">
        <ele>247.4</ele>
        <time>2024-05-17T14:18:00Z</time>
      </trkpt>
      <trkpt lat="44.69607" lon="5.00431">
        <ele>247.8</ele>
        <time>2024-05-17T14:18:01Z</time>
      </trkpt>
      <trkpt lat="44.6961" lon="5.00431">
        <ele>247.9</ele>
        <time>2024-05-17T14:18:02Z</time>
      </trkpt>
      <trkpt lat="44.6962" lon="5.0043">
        <ele>248.3</ele>
        <time>2024-05-17T14:18:03Z</time>
      </trkpt>
      <trkpt lat="44.69623" lon="5.0043">
        <ele>248.4</ele>
        <time>2024-05-17T14:18:04Z</time>
      </trkpt>
      <trkpt lat="44.69633" lon="5.00431">
        <ele>248.8</ele>
        <time>2024-05-17T14:18:05Z</time>
      </trkpt>
      <trkpt lat="44.69636" lon="5.00431">
        <ele>249</ele>
        <time>2024-05-17T14:18:06Z</time>
      </trkpt>
      <trkpt lat="44.69645" lon="5.00432">
        <ele>249.3</ele>
        <time>2024-05-17T14:18:07Z</time>
      </trkpt>
      <trkpt lat="44.69648" lon="5.00432">
        <ele>249.3</ele>
        <time>2024-05-17T14:18:08Z</time>
      </trkpt>
      <trkpt lat="44.69656" lon="5.00432">
        <ele>249.5</ele>
        <time>2024-05-17T14:18:09Z</time>
      </trkpt>
      <trkpt lat="44.69659" lon="5.00433">
        <ele>249.6</ele>
        <time>2024-05-17T14:18:10Z</time>
      </trkpt>
      <trkpt lat="44.69664" lon="5.00434">
        <ele>249.6</ele>
        <time>2024-05-17T14:18:11Z</time>
      </trkpt>
      <trkpt lat="44.69669" lon="5.00435">
        <ele>249.7</ele>
        <time>2024-05-17T14:18:12Z</time>
      </trkpt>
      <trkpt lat="44.69675" lon="5.00437">
        <ele>249.8</ele>
        <time>2024-05-17T14:18:13Z</time>
      </trkpt>
      <trkpt lat="44.6968" lon="5.00437">
        <ele>249.8</ele>
        <time>2024-05-17T14:18:14Z</time>
      </trkpt>
      <trkpt lat="44.69686" lon="5.00439">
        <ele>249.8</ele>
        <time>2024-05-17T14:18:15Z</time>
      </trkpt>
      <trkpt lat="44.69695" lon="5.00441">
        <ele>249.9</ele>
        <time>2024-05-17T14:18:16Z</time>
      </trkpt>
      <trkpt lat="44.69698" lon="5.00442">
        <ele>249.9</ele>
        <time>2024-05-17T14:18:17Z</time>
      </trkpt>
      <trkpt lat="44.69707" lon="5.00444">
        <ele>249.9</ele>
        <time>2024-05-17T14:18:18Z</time>
      </trkpt>
      <trkpt lat="44.6971" lon="5.00444">
        <ele>249.9</ele>
        <time>2024-05-17T14:18:19Z</time>
      </trkpt>
      <trkpt lat="44.69719" lon="5.00446">
        <ele>249.9</ele>
        <time>2024-05-17T14:18:20Z</time>
      </trkpt>
      <trkpt lat="44.69722" lon="5.00447">
        <ele>250</ele>
        <time>2024-05-17T14:18:21Z</time>
      </trkpt>
      <trkpt lat="44.69728" lon="5.00448">
        <ele>250</ele>
        <time>2024-05-17T14:18:22Z</time>
      </trkpt>
      <trkpt lat="44.69734" lon="5.00449">
        <ele>250</ele>
        <time>2024-05-17T14:18:23Z</time>
      </trkpt>
      <trkpt lat="44.6974" lon="5.0045">
        <ele>250</ele>
        <time>2024-05-17T14:18:24Z</time>
      </trkpt>
      <trkpt lat="44.69747" lon="5.00451">
        <ele>250</ele>
        <time>2024-05-17T14:18:25Z</time>
      </trkpt>
      <trkpt lat="44.69753" lon="5.00453">
        <ele>250</ele>
        <time>2024-05-17T14:18:26Z</time>
      </trkpt>
      <trkpt lat="44.69758" lon="5.00454">
        <ele>250</ele>
        <time>2024-05-17T14:18:27Z</time>
      </trkpt>
      <trkpt lat="44.69764" lon="5.00454">
        <ele>250</ele>
        <time>2024-05-17T14:18:28Z</time>
      </trkpt>
      <trkpt lat="44.6977" lon="5.00455">
        <ele>250</ele>
        <time>2024-05-17T14:18:29Z</time>
      </trkpt>
      <trkpt lat="44.69779" lon="5.00457">
        <ele>250</ele>
        <time>2024-05-17T14:18:30Z</time>
      </trkpt>
      <trkpt lat="44.69782" lon="5.00458">
        <ele>250</ele>
        <time>2024-05-17T14:18:31Z</time>
      </trkpt>
      <trkpt lat="44.69792" lon="5.0046">
        <ele>250</ele>
        <time>2024-05-17T14:18:32Z</time>
      </trkpt>
      <trkpt lat="44.69795" lon="5.0046">
        <ele>250</ele>
        <time>2024-05-17T14:18:33Z</time>
      </trkpt>
      <trkpt lat="44.69804" lon="5.00461">
        <ele>249.9</ele>
        <time>2024-05-17T14:18:34Z</time>
      </trkpt>
      <trkpt lat="44.69807" lon="5.00462">
        <ele>249.9</ele>
        <time>2024-05-17T14:18:35Z</time>
      </trkpt>
      <trkpt lat="44.69817" lon="5.00463">
        <ele>249.9</ele>
        <time>2024-05-17T14:18:36Z</time>
      </trkpt>
      <trkpt lat="44.6982" lon="5.00463">
        <ele>249.9</ele>
        <time>2024-05-17T14:18:37Z</time>
      </trkpt>
      <trkpt lat="44.69829" lon="5.00465">
        <ele>249.8</ele>
        <time>2024-05-17T14:18:38Z</time>
      </trkpt>
      <trkpt lat="44.69833" lon="5.00466">
        <ele>249.8</ele>
        <time>2024-05-17T14:18:39Z</time>
      </trkpt>
      <trkpt lat="44.69842" lon="5.00468">
        <ele>249.7</ele>
        <time>2024-05-17T14:18:40Z</time>
      </trkpt>
      <trkpt lat="44.69845" lon="5.00469">
        <ele>249.7</ele>
        <time>2024-05-17T14:18:41Z</time>
      </trkpt>
      <trkpt lat="44.69855" lon="5.00472">
        <ele>249.6</ele>
        <time>2024-05-17T14:18:42Z</time>
      </trkpt>
      <trkpt lat="44.69858" lon="5.00473">
        <ele>249.5</ele>
        <time>2024-05-17T14:18:43Z</time>
      </trkpt>
      <trkpt lat="44.69868" lon="5.00476">
        <ele>249.4</ele>
        <time>2024-05-17T14:18:44Z</time>
      </trkpt>
      <trkpt lat="44.69871" lon="5.00477">
        <ele>249.4</ele>
        <time>2024-05-17T14:18:45Z</time>
      </trkpt>
      <trkpt lat="44.6988" lon="5.00482">
        <ele>249.2</ele>
        <time>2024-05-17T14:18:46Z</time>
      </trkpt>
      <trkpt lat="44.69884" lon="5.00483">
        <ele>249.1</ele>
        <time>2024-05-17T14:18:47Z</time>
      </trkpt>
      <trkpt lat="44.69893" lon="5.00488">
        <ele>248.9</ele>
        <time>2024-05-17T14:18:48Z</time>
      </trkpt>
      <trkpt lat="44.69896" lon="5.00491">
        <ele>248.9</ele>
        <time>2024-05-17T14:18:49Z</time>
      </trkpt>
      <trkpt lat="44.69905" lon="5.00497">
        <ele>248.6</ele>
        <time>2024-05-17T14:18:50Z</time>
      </trkpt>
      <trkpt lat="44.69908" lon="5.00499">
        <ele>248.6</ele>
        <time>2024-05-17T14:18:51Z</time>
      </trkpt>
      <trkpt lat="44.69915" lon="5.00504">
        <ele>248.4</ele>
        <time>2024-05-17T14:18:52Z</time>
      </trkpt>
      <trkpt lat="44.69921" lon="5.0051">
        <ele>248.2</ele>
        <time>2024-05-17T14:18:53Z</time>
      </trkpt>
      <trkpt lat="44.69927" lon="5.00516">
        <ele>248.1</ele>
        <time>2024-05-17T14:18:54Z</time>
      </trkpt>
      <trkpt lat="44.69934" lon="5.00523">
        <ele>247.9</ele>
        <time>2024-05-17T14:18:55Z</time>
      </trkpt>
      <trkpt lat="44.6994" lon="5.0053">
        <ele>247.7</ele>
        <time>2024-05-17T14:18:56Z</time>
      </trkpt>
      <trkpt lat="44.69946" lon="5.00537">
        <ele>247.5</ele>
        <time>2024-05-17T14:18:57Z</time>
      </trkpt>
      <trkpt lat="44.69952" lon="5.00544">
        <ele>247.3</ele>
        <time>2024-05-17T14:18:58Z</time>
      </trkpt>
      <trkpt lat="44.69958" lon="5.00552">
        <ele>247.1</ele>
        <time>2024-05-17T14:18:59Z</time>
      </trkpt>
      <trkpt lat="44.69967" lon="5.00565">
        <ele>246.8</ele>
        <time>2024-05-17T14:19:00Z</time>
      </trkpt>
      <trkpt lat="44.6997" lon="5.00569">
        <ele>246.7</ele>
        <time>2024-05-17T14:19:01Z</time>
      </trkpt>
      <trkpt lat="44.69978" lon="5.00582">
        <ele>246.3</ele>
        <time>2024-05-17T14:19:02Z</time>
      </trkpt>
      <trkpt lat="44.6998" lon="5.00586">
        <ele>246.2</ele>
        <time>2024-05-17T14:19:03Z</time>
      </trkpt>
      <trkpt lat="44.69986" lon="5.00595">
        <ele>245.9</ele>
        <time>2024-05-17T14:19:04Z</time>
      </trkpt>
      <trkpt lat="44.69991" lon="5.00605">
        <ele>245.5</ele>
        <time>2024-05-17T14:19:05Z</time>
      </trkpt>
      <trkpt lat="44.69999" lon="5.00619">
        <ele>245</ele>
        <time>2024-05-17T14:19:06Z</time>
      </trkpt>
      <trkpt lat="44.70001" lon="5.00624">
        <ele>244.8</ele>
        <time>2024-05-17T14:19:07Z</time>
      </trkpt>
      <trkpt lat="44.70009" lon="5.00638">
        <ele>244.2</ele>
        <time>2024-05-17T14:19:08Z</time>
      </trkpt>
      <trkpt lat="44.70012" lon="5.00643">
        <ele>244</ele>
        <time>2024-05-17T14:19:09Z</time>
      </trkpt>
      <trkpt lat="44.70018" lon="5.00653">
        <ele>243.6</ele>
        <time>2024-05-17T14:19:10Z</time>
      </trkpt>
      <trkpt lat="44.70026" lon="5.00668">
        <ele>243.1</ele>
        <time>2024-05-17T14:19:11Z</time>
      </trkpt>
      <trkpt lat="44.70028" lon="5.00673">
        <ele>242.9</ele>
        <time>2024-05-17T14:19:12Z</time>
      </trkpt>
      <trkpt lat="44.70036" lon="5.00688">
        <ele>242.3</ele>
        <time>2024-05-17T14:19:13Z</time>
      </trkpt>
      <trkpt lat="44.70039" lon="5.00693">
        <ele>242.1</ele>
        <time>2024-05-17T14:19:14Z</time>
      </trkpt>
      <trkpt lat="44.70047" lon="5.00709">
        <ele>241.5</ele>
        <time>2024-05-17T14:19:15Z</time>
      </trkpt>
      <trkpt lat="44.70049" lon="5.00714">
        <ele>241.3</ele>
        <time>2024-05-17T14:19:16Z</time>
      </trkpt>
      <trkpt lat="44.70057" lon="5.0073">
        <ele>240.7</ele>
        <time>2024-05-17T14:19:17Z</time>
      </trkpt>
      <trkpt lat="44.70059" lon="5.00736">
        <ele>240.5</ele>
        <time>2024-05-17T14:19:18Z</time>
      </trkpt>
      <trkpt lat="44.70065" lon="5.00753">
        <ele>240</ele>
        <time>2024-05-17T14:19:19Z</time>
      </trkpt>
      <trkpt lat="44.70067" lon="5.00759">
        <ele>239.8</ele>
        <time>2024-05-17T14:19:20Z</time>
      </trkpt>
      <trkpt lat="44.70072" lon="5.00776">
        <ele>239.3</ele>
        <time>2024-05-17T14:19:21Z</time>
      </trkpt>
      <trkpt lat="44.70074" lon="5.00782">
        <ele>239.1</ele>
        <time>2024-05-17T14:19:22Z</time>
      </trkpt>
      <trkpt lat="44.70079" lon="5.008">
        <ele>238.6</ele>
        <time>2024-05-17T14:19:23Z</time>
      </trkpt>
      <trkpt lat="44.70081" lon="5.00806">
        <ele>238.4</ele>
        <time>2024-05-17T14:19:24Z</time>
      </trkpt>
      <trkpt lat="44.70086" lon="5.00824">
        <ele>237.9</ele>
        <time>2024-05-17T14:19:25Z</time>
      </trkpt>
      <trkpt lat="44.70088" lon="5.0083">
        <ele>237.7</ele>
        <time>2024-05-17T14:19:26Z</time>
      </trkpt>
      <trkpt lat="44.70094" lon="5.00848">
        <ele>237.2</ele>
        <time>2024-05-17T14:19:27Z</time>
      </trkpt>
      <trkpt lat="44.70095" lon="5.00854">
        <ele>237</ele>
        <time>2024-05-17T14:19:28Z</time>
      </trkpt>
      <trkpt lat="44.70101" lon="5.00871">
        <ele>236.5</ele>
        <time>2024-05-17T14:19:29Z</time>
      </trkpt>
      <trkpt lat="44.70104" lon="5.00876">
        <ele>236.4</ele>
        <time>2024-05-17T14:19:30Z</time>
      </trkpt>
      <trkpt lat="44.70112" lon="5.00892">
        <ele>236</ele>
        <time>2024-05-17T14:19:31Z</time>
      </trkpt>
      <trkpt lat="44.70115" lon="5.00897">
        <ele>235.9</ele>
        <time>2024-05-17T14:19:32Z</time>
      </trkpt>
      <trkpt lat="44.70124" lon="5.0091">
        <ele>235.7</ele>
        <time>2024-05-17T14:19:33Z</time>
      </trkpt>
      <trkpt lat="44.70128" lon="5.00913">
        <ele>235.6</ele>
        <time>2024-05-17T14:19:34Z</time>
      </trkpt>
      <trkpt lat="44.7014" lon="5.00922">
        <ele>235.4</ele>
        <time>2024-05-17T14:19:35Z</time>
      </trkpt>
      <trkpt lat="44.70144" lon="5.00924">
        <ele>235.4</ele>
        <time>2024-05-17T14:19:36Z</time>
      </trkpt>
      <trkpt lat="44.70153" lon="5.00926">
        <ele>235.3</ele>
        <time>2024-05-17T14:19:37Z</time>
      </trkpt>
      <trkpt lat="44.70161" lon="5.00925">
        <ele>235.2</ele>
        <time>2024-05-17T14:19:38Z</time>
      </trkpt>
      <trkpt lat="44.7017" lon="5.00921">
        <ele>235.1</ele>
        <time>2024-05-17T14:19:39Z</time>
      </trkpt>
      <trkpt lat="44.70177" lon="5.00916">
        <ele>235.1</ele>
        <time>2024-05-17T14:19:40Z</time>
      </trkpt>
      <trkpt lat="44.70184" lon="5.00909">
        <ele>235.1</ele>
        <time>2024-05-17T14:19:41Z</time>
      </trkpt>
      <trkpt lat="44.70191" lon="5.00901">
        <ele>235.1</ele>
        <time>2024-05-17T14:19:42Z</time>
      </trkpt>
      <trkpt lat="44.70197" lon="5.00893">
        <ele>235.1</ele>
        <time>2024-05-17T14:19:43Z</time>
      </trkpt>
      <trkpt lat="44.70202" lon="5.00884">
        <ele>235</ele>
        <time>2024-05-17T14:19:44Z</time>
      </trkpt>
      <trkpt lat="44.7021" lon="5.00871">
        <ele>234.9</ele>
        <time>2024-05-17T14:19:45Z</time>
      </trkpt>
      <trkpt lat="44.70213" lon="5.00867">
        <ele>234.9</ele>
        <time>2024-05-17T14:19:46Z</time>
      </trkpt>
      <trkpt lat="44.70218" lon="5.00859">
        <ele>234.9</ele>
        <time>2024-05-17T14:19:47Z</time>
      </trkpt>
      <trkpt lat="44.70223" lon="5.00851">
        <ele>234.8</ele>
        <time>2024-05-17T14:19:48Z</time>
      </trkpt>
      <trkpt lat="44.70229" lon="5.00844">
        <ele>234.8</ele>
        <time>2024-05-17T14:19:49Z</time>
      </trkpt>
      <trkpt lat="44.70234" lon="5.00837">
        <ele>234.8</ele>
        <time>2024-05-17T14:19:50Z</time>
      </trkpt>
      <trkpt lat="44.7024" lon="5.00831">
        <ele>234.7</ele>
        <time>2024-05-17T14:19:51Z</time>
      </trkpt>
      <trkpt lat="44.70247" lon="5.00825">
        <ele>234.7</ele>
        <time>2024-05-17T14:19:52Z</time>
      </trkpt>
      <trkpt lat="44.70254" lon="5.00819">
        <ele>234.6</ele>
        <time>2024-05-17T14:19:53Z</time>
      </trkpt>
      <trkpt lat="44.70261" lon="5.00813">
        <ele>234.5</ele>
        <time>2024-05-17T14:19:54Z</time>
      </trkpt>
      <trkpt lat="44.70271" lon="5.00805">
        <ele>234.4</ele>
        <time>2024-05-17T14:19:55Z</time>
      </trkpt>
      <trkpt lat="44.70275" lon="5.00803">
        <ele>234.4</ele>
        <time>2024-05-17T14:19:56Z</time>
      </trkpt>
      <trkpt lat="44.70285" lon="5.00795">
        <ele>234.3</ele>
        <time>2024-05-17T14:19:57Z</time>
      </trkpt>
      <trkpt lat="44.70289" lon="5.00792">
        <ele>234.3</ele>
        <time>2024-05-17T14:19:58Z</time>
      </trkpt>
      <trkpt lat="44.70299" lon="5.00785">
        <ele>234.2</ele>
        <time>2024-05-17T14:19:59Z</time>
      </trkpt>
      <trkpt lat="44.70302" lon="5.00783">
        <ele>234.2</ele>
        <time>2024-05-17T14:20:00Z</time>
      </trkpt>
      <trkpt lat="44.70312" lon="5.00775">
        <ele>234.1</ele>
        <time>2024-05-17T14:20:01Z</time>
      </trkpt>
      <trkpt lat="44.70315" lon="5.00773">
        <ele>234.1</ele>
        <time>2024-05-17T14:20:02Z</time>
      </trkpt>
      <trkpt lat="44.70325" lon="5.00765">
        <ele>234</ele>
        <time>2024-05-17T14:20:03Z</time>
      </trkpt>
      <trkpt lat="44.70328" lon="5.00763">
        <ele>234</ele>
        <time>2024-05-17T14:20:04Z</time>
      </trkpt>
      <trkpt lat="44.70338" lon="5.00756">
        <ele>233.9</ele>
        <time>2024-05-17T14:20:05Z</time>
      </trkpt>
      <trkpt lat="44.70341" lon="5.00753">
        <ele>233.9</ele>
        <time>2024-05-17T14:20:06Z</time>
      </trkpt>
      <trkpt lat="44.70351" lon="5.00747">
        <ele>233.8</ele>
        <time>2024-05-17T14:20:07Z</time>
      </trkpt>
      <trkpt lat="44.70354" lon="5.00744">
        <ele>233.8</ele>
        <time>2024-05-17T14:20:08Z</time>
      </trkpt>
      <trkpt lat="44.70361" lon="5.0074">
        <ele>233.8</ele>
        <time>2024-05-17T14:20:09Z</time>
      </trkpt>
      <trkpt lat="44.7037" lon="5.00733">
        <ele>233.8</ele>
        <time>2024-05-17T14:20:10Z</time>
      </trkpt>
      <trkpt lat="44.70373" lon="5.00731">
        <ele>233.8</ele>
        <time>2024-05-17T14:20:11Z</time>
      </trkpt>
      <trkpt lat="44.70383" lon="5.00724">
        <ele>233.7</ele>
        <time>2024-05-17T14:20:12Z</time>
      </trkpt>
      <trkpt lat="44.70386" lon="5.00722">
        <ele>233.7</ele>
        <time>2024-05-17T14:20:13Z</time>
      </trkpt>
      <trkpt lat="44.70396" lon="5.00715">
        <ele>233.7</ele>
        <time>2024-05-17T14:20:14Z</time>
      </trkpt>
      <trkpt lat="44.70399" lon="5.00713">
        <ele>233.7</ele>
        <time>2024-05-17T14:20:15Z</time>
      </trkpt>
      <trkpt lat="44.70409" lon="5.00705">
        <ele>233.6</ele>
        <time>2024-05-17T14:20:16Z</time>
      </trkpt>
      <trkpt lat="44.70412" lon="5.00703">
        <ele>233.6</ele>
        <time>2024-05-17T14:20:17Z</time>
      </trkpt>
      <trkpt lat="44.70418" lon="5.00698">
        <ele>233.6</ele>
        <time>2024-05-17T14:20:18Z</time>
      </trkpt>
      <trkpt lat="44.70425" lon="5.00694">
        <ele>233.6</ele>
        <time>2024-05-17T14:20:19Z</time>
      </trkpt>
      <trkpt lat="44.70432" lon="5.00689">
        <ele>233.6</ele>
        <time>2024-05-17T14:20:20Z</time>
      </trkpt>
      <trkpt lat="44.70441" lon="5.00682">
        <ele>233.6</ele>
        <time>2024-05-17T14:20:21Z</time>
      </trkpt>
      <trkpt lat="44.70444" lon="5.0068">
        <ele>233.5</ele>
        <time>2024-05-17T14:20:22Z</time>
      </trkpt>
      <trkpt lat="44.70451" lon="5.00676">
        <ele>233.5</ele>
        <time>2024-05-17T14:20:23Z</time>
      </trkpt>
      <trkpt lat="44.7046" lon="5.00669">
        <ele>233.4</ele>
        <time>2024-05-17T14:20:24Z</time>
      </trkpt>
      <trkpt lat="44.70463" lon="5.00666">
        <ele>233.4</ele>
        <time>2024-05-17T14:20:25Z</time>
      </trkpt>
      <trkpt lat="44.70472" lon="5.0066">
        <ele>233.3</ele>
        <time>2024-05-17T14:20:26Z</time>
      </trkpt>
      <trkpt lat="44.70475" lon="5.00658">
        <ele>233.3</ele>
        <time>2024-05-17T14:20:27Z</time>
      </trkpt>
      <trkpt lat="44.70481" lon="5.00653">
        <ele>233.2</ele>
        <time>2024-05-17T14:20:28Z</time>
      </trkpt>
      <trkpt lat="44.70488" lon="5.00649">
        <ele>233.2</ele>
        <time>2024-05-17T14:20:29Z</time>
      </trkpt>
      <trkpt lat="44.70494" lon="5.00644">
        <ele>233.1</ele>
        <time>2024-05-17T14:20:30Z</time>
      </trkpt>
      <trkpt lat="44.705" lon="5.0064">
        <ele>233.1</ele>
        <time>2024-05-17T14:20:31Z</time>
      </trkpt>
      <trkpt lat="44.70506" lon="5.00635">
        <ele>233</ele>
        <time>2024-05-17T14:20:32Z</time>
      </trkpt>
      <trkpt lat="44.70512" lon="5.00631">
        <ele>233</ele>
        <time>2024-05-17T14:20:33Z</time>
      </trkpt>
      <trkpt lat="44.70519" lon="5.00627">
        <ele>232.9</ele>
        <time>2024-05-17T14:20:34Z</time>
      </trkpt>
      <trkpt lat="44.70525" lon="5.00623">
        <ele>232.8</ele>
        <time>2024-05-17T14:20:35Z</time>
      </trkpt>
      <trkpt lat="44.70535" lon="5.00619">
        <ele>232.7</ele>
        <time>2024-05-17T14:20:36Z</time>
      </trkpt>
      <trkpt lat="44.70539" lon="5.00617">
        <ele>232.6</ele>
        <time>2024-05-17T14:20:37Z</time>
      </trkpt>
      <trkpt lat="44.7055" lon="5.00614">
        <ele>232.3</ele>
        <time>2024-05-17T14:20:38Z</time>
      </trkpt>
      <trkpt lat="44.70554" lon="5.00614">
        <ele>232.3</ele>
        <time>2024-05-17T14:20:39Z</time>
      </trkpt>
      <trkpt lat="44.70565" lon="5.00612">
        <ele>232.1</ele>
        <time>2024-05-17T14:20:40Z</time>
      </trkpt>
      <trkpt lat="44.70569" lon="5.00612">
        <ele>232</ele>
        <time>2024-05-17T14:20:41Z</time>
      </trkpt>
      <trkpt lat="44.70581" lon="5.00611">
        <ele>231.8</ele>
        <time>2024-05-17T14:20:42Z</time>
      </trkpt>
      <trkpt lat="44.70585" lon="5.0061">
        <ele>231.7</ele>
        <time>2024-05-17T14:20:43Z</time>
      </trkpt>
      <trkpt lat="44.70593" lon="5.0061">
        <ele>231.5</ele>
        <time>2024-05-17T14:20:44Z</time>
      </trkpt>
      <trkpt lat="44.70601" lon="5.00609">
        <ele>231.4</ele>
        <time>2024-05-17T14:20:45Z</time>
      </trkpt>
      <trkpt lat="44.70609" lon="5.00609">
        <ele>231.2</ele>
        <time>2024-05-17T14:20:46Z</time>
      </trkpt>
      <trkpt lat="44.70617" lon="5.00609">
        <ele>231</ele>
        <time>2024-05-17T14:20:47Z</time>
      </trkpt>
      <trkpt lat="44.70625" lon="5.00609">
        <ele>230.8</ele>
        <time>2024-05-17T14:20:48Z</time>
      </trkpt>
      <trkpt lat="44.70633" lon="5.00608">
        <ele>230.6</ele>
        <time>2024-05-17T14:20:49Z</time>
      </trkpt>
      <trkpt lat="44.70645" lon="5.00608">
        <ele>230.4</ele>
        <time>2024-05-17T14:20:50Z</time>
      </trkpt>
      <trkpt lat="44.7065" lon="5.00608">
        <ele>230.3</ele>
        <time>2024-05-17T14:20:51Z</time>
      </trkpt>
      <trkpt lat="44.70662" lon="5.00609">
        <ele>230.1</ele>
        <time>2024-05-17T14:20:52Z</time>
      </trkpt>
      <trkpt lat="44.70667" lon="5.00609">
        <ele>230</ele>
        <time>2024-05-17T14:20:53Z</time>
      </trkpt>
      <trkpt lat="44.70679" lon="5.0061">
        <ele>229.9</ele>
        <time>2024-05-17T14:20:54Z</time>
      </trkpt>
      <trkpt lat="44.70684" lon="5.00611">
        <ele>229.9</ele>
        <time>2024-05-17T14:20:55Z</time>
      </trkpt>
      <trkpt lat="44.70696" lon="5.00614">
        <ele>229.9</ele>
        <time>2024-05-17T14:20:56Z</time>
      </trkpt>
      <trkpt lat="44.707" lon="5.00615">
        <ele>229.8</ele>
        <time>2024-05-17T14:20:57Z</time>
      </trkpt>
      <trkpt lat="44.70713" lon="5.00619">
        <ele>229.8</ele>
        <time>2024-05-17T14:20:58Z</time>
      </trkpt>
      <trkpt lat="44.70717" lon="5.0062">
        <ele>229.8</ele>
        <time>2024-05-17T14:20:59Z</time>
      </trkpt>
      <trkpt lat="44.70728" lon="5.00624">
        <ele>229.8</ele>
        <time>2024-05-17T14:21:00Z</time>
      </trkpt>
      <trkpt lat="44.70732" lon="5.00626">
        <ele>229.7</ele>
        <time>2024-05-17T14:21:01Z</time>
      </trkpt>
      <trkpt lat="44.7074" lon="5.00629">
        <ele>229.7</ele>
        <time>2024-05-17T14:21:02Z</time>
      </trkpt>
      <trkpt lat="44.70747" lon="5.00632">
        <ele>229.6</ele>
        <time>2024-05-17T14:21:03Z</time>
      </trkpt>
      <trkpt lat="44.70755" lon="5.00636">
        <ele>229.5</ele>
        <time>2024-05-17T14:21:04Z</time>
      </trkpt>
      <trkpt lat="44.70762" lon="5.00639">
        <ele>229.3</ele>
        <time>2024-05-17T14:21:05Z</time>
      </trkpt>
      <trkpt lat="44.70774" lon="5.00643">
        <ele>229.1</ele>
        <time>2024-05-17T14:21:06Z</time>
      </trkpt>
      <trkpt lat="44.70778" lon="5.00644">
        <ele>229.1</ele>
        <time>2024-05-17T14:21:07Z</time>
      </trkpt>
      <trkpt lat="44.70786" lon="5.00647">
        <ele>228.9</ele>
        <time>2024-05-17T14:21:08Z</time>
      </trkpt>
      <trkpt lat="44.70797" lon="5.00652">
        <ele>228.7</ele>
        <time>2024-05-17T14:21:09Z</time>
      </trkpt>
      <trkpt lat="44.70801" lon="5.00654">
        <ele>228.7</ele>
        <time>2024-05-17T14:21:10Z</time>
      </trkpt>
      <trkpt lat="44.70809" lon="5.00657">
        <ele>228.5</ele>
        <time>2024-05-17T14:21:11Z</time>
      </trkpt>
      <trkpt lat="44.70817" lon="5.0066">
        <ele>228.4</ele>
        <time>2024-05-17T14:21:12Z</time>
      </trkpt>
      <trkpt lat="44.70825" lon="5.00663">
        <ele>228.2</ele>
        <time>2024-05-17T14:21:13Z</time>
      </trkpt>
      <trkpt lat="44.70833" lon="5.00666">
        <ele>228</ele>
        <time>2024-05-17T14:21:14Z</time>
      </trkpt>
      <trkpt lat="44.70841" lon="5.00669">
        <ele>227.8</ele>
        <time>2024-05-17T14:21:15Z</time>
      </trkpt>
      <trkpt lat="44.7085" lon="5.00672">
        <ele>227.6</ele>
        <time>2024-05-17T14:21:16Z</time>
      </trkpt>
      <trkpt lat="44.70858" lon="5.00675">
        <ele>227.5</ele>
        <time>2024-05-17T14:21:17Z</time>
      </trkpt>
      <trkpt lat="44.70871" lon="5.0068">
        <ele>227.2</ele>
        <time>2024-05-17T14:21:18Z</time>
      </trkpt>
      <trkpt lat="44.70875" lon="5.00682">
        <ele>227.1</ele>
        <time>2024-05-17T14:21:19Z</time>
      </trkpt>
      <trkpt lat="44.70887" lon="5.00686">
        <ele>226.8</ele>
        <time>2024-05-17T14:21:20Z</time>
      </trkpt>
      <trkpt lat="44.70892" lon="5.00688">
        <ele>226.7</ele>
        <time>2024-05-17T14:21:21Z</time>
      </trkpt>
      <trkpt lat="44.70904" lon="5.00693">
        <ele>226.3</ele>
        <time>2024-05-17T14:21:22Z</time>
      </trkpt>
      <trkpt lat="44.70909" lon="5.00694">
        <ele>226.2</ele>
        <time>2024-05-17T14:21:23Z</time>
      </trkpt>
      <trkpt lat="44.70922" lon="5.00698">
        <ele>225.9</ele>
        <time>2024-05-17T14:21:24Z</time>
      </trkpt>
      <trkpt lat="44.70926" lon="5.00699">
        <ele>225.8</ele>
        <time>2024-05-17T14:21:25Z</time>
      </trkpt>
      <trkpt lat="44.7094" lon="5.00701">
        <ele>225.4</ele>
        <time>2024-05-17T14:21:26Z</time>
      </trkpt>
      <trkpt lat="44.70944" lon="5.00701">
        <ele>225.3</ele>
        <time>2024-05-17T14:21:27Z</time>
      </trkpt>
      <trkpt lat="44.70958" lon="5.00702">
        <ele>224.8</ele>
        <time>2024-05-17T14:21:28Z</time>
      </trkpt>
      <trkpt lat="44.70962" lon="5.00702">
        <ele>224.7</ele>
        <time>2024-05-17T14:21:29Z</time>
      </trkpt>
      <trkpt lat="44.70971" lon="5.00701">
        <ele>224.4</ele>
        <time>2024-05-17T14:21:30Z</time>
      </trkpt>
      <trkpt lat="44.7098" lon="5.007">
        <ele>224.1</ele>
        <time>2024-05-17T14:21:31Z</time>
      </trkpt>
      <trkpt lat="44.7099" lon="5.00699">
        <ele>223.8</ele>
        <time>2024-05-17T14:21:32Z</time>
      </trkpt>
      <trkpt lat="44.70999" lon="5.00699">
        <ele>223.5</ele>
        <time>2024-05-17T14:21:33Z</time>
      </trkpt>
      <trkpt lat="44.71013" lon="5.00697">
        <ele>223.1</ele>
        <time>2024-05-17T14:21:34Z</time>
      </trkpt>
      <trkpt lat="44.71018" lon="5.00696">
        <ele>222.9</ele>
        <time>2024-05-17T14:21:35Z</time>
      </trkpt>
      <trkpt lat="44.71027" lon="5.00695">
        <ele>222.7</ele>
        <time>2024-05-17T14:21:36Z</time>
      </trkpt>
      <trkpt lat="44.71041" lon="5.00693">
        <ele>222.4</ele>
        <time>2024-05-17T14:21:37Z</time>
      </trkpt>
      <trkpt lat="44.71046" lon="5.00693">
        <ele>222.3</ele>
        <time>2024-05-17T14:21:38Z</time>
      </trkpt>
      <trkpt lat="44.7106" lon="5.00692">
        <ele>221.9</ele>
        <time>2024-05-17T14:21:39Z</time>
      </trkpt>
      <trkpt lat="44.71065" lon="5.00691">
        <ele>221.8</ele>
        <time>2024-05-17T14:21:40Z</time>
      </trkpt>
      <trkpt lat="44.71079" lon="5.0069">
        <ele>221.4</ele>
        <time>2024-05-17T14:21:41Z</time>
      </trkpt>
      <trkpt lat="44.71084" lon="5.0069">
        <ele>221.3</ele>
        <time>2024-05-17T14:21:42Z</time>
      </trkpt>
      <trkpt lat="44.71093" lon="5.00689">
        <ele>221</ele>
        <time>2024-05-17T14:21:43Z</time>
      </trkpt>
      <trkpt lat="44.71103" lon="5.00688">
        <ele>220.7</ele>
        <time>2024-05-17T14:21:44Z</time>
      </trkpt>
      <trkpt lat="44.71112" lon="5.00687">
        <ele>220.4</ele>
        <time>2024-05-17T14:21:45Z</time>
      </trkpt>
      <trkpt lat="44.71122" lon="5.00686">
        <ele>220.1</ele>
        <time>2024-05-17T14:21:46Z</time>
      </trkpt>
      <trkpt lat="44.71132" lon="5.00685">
        <ele>219.8</ele>
        <time>2024-05-17T14:21:47Z</time>
      </trkpt>
      <trkpt lat="44.71142" lon="5.00685">
        <ele>219.6</ele>
        <time>2024-05-17T14:21:48Z</time>
      </trkpt>
      <trkpt lat="44.71157" lon="5.00685">
        <ele>219.3</ele>
        <time>2024-05-17T14:21:49Z</time>
      </trkpt>
      <trkpt lat="44.71162" lon="5.00686">
        <ele>219.2</ele>
        <time>2024-05-17T14:21:50Z</time>
      </trkpt>
      <trkpt lat="44.71177" lon="5.00688">
        <ele>219</ele>
        <time>2024-05-17T14:21:51Z</time>
      </trkpt>
      <trkpt lat="44.71182" lon="5.0069">
        <ele>218.9</ele>
        <time>2024-05-17T14:21:52Z</time>
      </trkpt>
      <trkpt lat="44.71192" lon="5.00693">
        <ele>218.7</ele>
        <time>2024-05-17T14:21:53Z</time>
      </trkpt>
      <trkpt lat="44.71202" lon="5.00697">
        <ele>218.6</ele>
        <time>2024-05-17T14:21:54Z</time>
      </trkpt>
      <trkpt lat="44.71211" lon="5.00701">
        <ele>218.5</ele>
        <time>2024-05-17T14:21:55Z</time>
      </trkpt>
      <trkpt lat="44.71221" lon="5.00706">
        <ele>218.4</ele>
        <time>2024-05-17T14:21:56Z</time>
      </trkpt>
      <trkpt lat="44.7123" lon="5.0071">
        <ele>218.3</ele>
        <time>2024-05-17T14:21:57Z</time>
      </trkpt>
      <trkpt lat="44.7124" lon="5.00715">
        <ele>218.3</ele>
        <time>2024-05-17T14:21:58Z</time>
      </trkpt>
      <trkpt lat="44.71249" lon="5.0072">
        <ele>218</ele>
        <time>2024-05-17T14:21:59Z</time>
      </trkpt>
      <trkpt lat="44.71259" lon="5.00725">
        <ele>217.9</ele>
        <time>2024-05-17T14:22:00Z</time>
      </trkpt>
      <trkpt lat="44.71268" lon="5.00729">
        <ele>217.7</ele>
        <time>2024-05-17T14:22:01Z</time>
      </trkpt>
      <trkpt lat="44.71278" lon="5.00734">
        <ele>217.5</ele>
        <time>2024-05-17T14:22:02Z</time>
      </trkpt>
      <trkpt lat="44.71292" lon="5.00741">
        <ele>217.4</ele>
        <time>2024-05-17T14:22:03Z</time>
      </trkpt>
      <trkpt lat="44.71296" lon="5.00743">
        <ele>217.3</ele>
        <time>2024-05-17T14:22:04Z</time>
      </trkpt>
      <trkpt lat="44.7131" lon="5.0075">
        <ele>217.1</ele>
        <time>2024-05-17T14:22:05Z</time>
      </trkpt>
      <trkpt lat="44.71314" lon="5.00752">
        <ele>217</ele>
        <time>2024-05-17T14:22:06Z</time>
      </trkpt>
      <trkpt lat="44.71327" lon="5.00759">
        <ele>216.8</ele>
        <time>2024-05-17T14:22:07Z</time>
      </trkpt>
      <trkpt lat="44.71332" lon="5.00761">
        <ele>216.7</ele>
        <time>2024-05-17T14:22:08Z</time>
      </trkpt>
      <trkpt lat="44.71345" lon="5.00768">
        <ele>216.5</ele>
        <time>2024-05-17T14:22:09Z</time>
      </trkpt>
      <trkpt lat="44.71349" lon="5.0077">
        <ele>216.4</ele>
        <time>2024-05-17T14:22:10Z</time>
      </trkpt>
      <trkpt lat="44.71357" lon="5.00774">
        <ele>216.3</ele>
        <time>2024-05-17T14:22:11Z</time>
      </trkpt>
      <trkpt lat="44.71366" lon="5.00778">
        <ele>216.3</ele>
        <time>2024-05-17T14:22:12Z</time>
      </trkpt>
      <trkpt lat="44.71374" lon="5.00782">
        <ele>216.2</ele>
        <time>2024-05-17T14:22:13Z</time>
      </trkpt>
      <trkpt lat="44.71382" lon="5.00787">
        <ele>216.2</ele>
        <time>2024-05-17T14:22:14Z</time>
      </trkpt>
      <trkpt lat="44.71394" lon="5.00793">
        <ele>216</ele>
        <time>2024-05-17T14:22:15Z</time>
      </trkpt>
      <trkpt lat="44.71398" lon="5.00795">
        <ele>216</ele>
        <time>2024-05-17T14:22:16Z</time>
      </trkpt>
      <trkpt lat="44.71411" lon="5.00802">
        <ele>215.8</ele>
        <time>2024-05-17T14:22:17Z</time>
      </trkpt>
      <trkpt lat="44.71415" lon="5.00804">
        <ele>215.8</ele>
        <time>2024-05-17T14:22:18Z</time>
      </trkpt>
      <trkpt lat="44.71428" lon="5.00811">
        <ele>215.6</ele>
        <time>2024-05-17T14:22:19Z</time>
      </trkpt>
      <trkpt lat="44.71432" lon="5.00813">
        <ele>215.5</ele>
        <time>2024-05-17T14:22:20Z</time>
      </trkpt>
      <trkpt lat="44.71445" lon="5.00821">
        <ele>215.4</ele>
        <time>2024-05-17T14:22:21Z</time>
      </trkpt>
      <trkpt lat="44.71449" lon="5.00824">
        <ele>215.3</ele>
        <time>2024-05-17T14:22:22Z</time>
      </trkpt>
      <trkpt lat="44.71461" lon="5.00833">
        <ele>215.2</ele>
        <time>2024-05-17T14:22:23Z</time>
      </trkpt>
      <trkpt lat="44.71465" lon="5.00836">
        <ele>215.1</ele>
        <time>2024-05-17T14:22:24Z</time>
      </trkpt>
      <trkpt lat="44.71476" lon="5.00846">
        <ele>215</ele>
        <time>2024-05-17T14:22:25Z</time>
      </trkpt>
      <trkpt lat="44.7148" lon="5.0085">
        <ele>215</ele>
        <time>2024-05-17T14:22:26Z</time>
      </trkpt>
      <trkpt lat="44.71487" lon="5.00857">
        <ele>214.9</ele>
        <time>2024-05-17T14:22:27Z</time>
      </trkpt>
      <trkpt lat="44.71497" lon="5.00867">
        <ele>214.8</ele>
        <time>2024-05-17T14:22:28Z</time>
      </trkpt>
      <trkpt lat="44.71501" lon="5.0087">
        <ele>214.8</ele>
        <time>2024-05-17T14:22:29Z</time>
      </trkpt>
      <trkpt lat="44.71507" lon="5.00877">
        <ele>214.7</ele>
        <time>2024-05-17T14:22:30Z</time>
      </trkpt>
      <trkpt lat="44.71516" lon="5.00887">
        <ele>214.7</ele>
        <time>2024-05-17T14:22:31Z</time>
      </trkpt>
      <trkpt lat="44.71519" lon="5.0089">
        <ele>214.7</ele>
        <time>2024-05-17T14:22:32Z</time>
      </trkpt>
      <trkpt lat="44.71529" lon="5.009">
        <ele>214.6</ele>
        <time>2024-05-17T14:22:33Z</time>
      </trkpt>
      <trkpt lat="44.71532" lon="5.00903">
        <ele>214.6</ele>
        <time>2024-05-17T14:22:34Z</time>
      </trkpt>
      <trkpt lat="44.71541" lon="5.00913">
        <ele>214.5</ele>
        <time>2024-05-17T14:22:35Z</time>
      </trkpt>
      <trkpt lat="44.71545" lon="5.00916">
        <ele>214.4</ele>
        <time>2024-05-17T14:22:36Z</time>
      </trkpt>
      <trkpt lat="44.71551" lon="5.00922">
        <ele>214.3</ele>
        <time>2024-05-17T14:22:37Z</time>
      </trkpt>
      <trkpt lat="44.71558" lon="5.00929">
        <ele>214.2</ele>
        <time>2024-05-17T14:22:38Z</time>
      </trkpt>
      <trkpt lat="44.71567" lon="5.00938">
        <ele>214.1</ele>
        <time>2024-05-17T14:22:39Z</time>
      </trkpt>
      <trkpt lat="44.7157" lon="5.00942">
        <ele>214.1</ele>
        <time>2024-05-17T14:22:40Z</time>
      </trkpt>
      <trkpt lat="44.71579" lon="5.00951">
        <ele>214</ele>
        <time>2024-05-17T14:22:41Z</time>
      </trkpt>
      <trkpt lat="44.71582" lon="5.00954">
        <ele>213.9</ele>
        <time>2024-05-17T14:22:42Z</time>
      </trkpt>
      <trkpt lat="44.71588" lon="5.00961">
        <ele>213.9</ele>
        <time>2024-05-17T14:22:43Z</time>
      </trkpt>
      <trkpt lat="44.71595" lon="5.00967">
        <ele>213.8</ele>
        <time>2024-05-17T14:22:44Z</time>
      </trkpt>
      <trkpt lat="44.71604" lon="5.00977">
        <ele>213.7</ele>
        <time>2024-05-17T14:22:45Z</time>
      </trkpt>
      <trkpt lat="44.71607" lon="5.00981">
        <ele>213.7</ele>
        <time>2024-05-17T14:22:46Z</time>
      </trkpt>
      <trkpt lat="44.71617" lon="5.00991">
        <ele>213.6</ele>
        <time>2024-05-17T14:22:47Z</time>
      </trkpt>
      <trkpt lat="44.7162" lon="5.00994">
        <ele>213.6</ele>
        <time>2024-05-17T14:22:48Z</time>
      </trkpt>
      <trkpt lat="44.71629" lon="5.01004">
        <ele>213.5</ele>
        <time>2024-05-17T14:22:49Z</time>
      </trkpt>
      <trkpt lat="44.71632" lon="5.01007">
        <ele>213.5</ele>
        <time>2024-05-17T14:22:50Z</time>
      </trkpt>
      <trkpt lat="44.71642" lon="5.01016">
        <ele>213.4</ele>
        <time>2024-05-17T14:22:51Z</time>
      </trkpt>
      <trkpt lat="44.71645" lon="5.01019">
        <ele>213.3</ele>
        <time>2024-05-17T14:22:52Z</time>
      </trkpt>
      <trkpt lat="44.71652" lon="5.01025">
        <ele>213.3</ele>
        <time>2024-05-17T14:22:53Z</time>
      </trkpt>
      <trkpt lat="44.71659" lon="5.01031">
        <ele>213.2</ele>
        <time>2024-05-17T14:22:54Z</time>
      </trkpt>
      <trkpt lat="44.71666" lon="5.01036">
        <ele>213.2</ele>
        <time>2024-05-17T14:22:55Z</time>
      </trkpt>
      <trkpt lat="44.71673" lon="5.01042">
        <ele>213.1</ele>
        <time>2024-05-17T14:22:56Z</time>
      </trkpt>
      <trkpt lat="44.71681" lon="5.01047">
        <ele>213</ele>
        <time>2024-05-17T14:22:57Z</time>
      </trkpt>
      <trkpt lat="44.71688" lon="5.01052">
        <ele>212.9</ele>
        <time>2024-05-17T14:22:58Z</time>
      </trkpt>
      <trkpt lat="44.71699" lon="5.0106">
        <ele>212.8</ele>
        <time>2024-05-17T14:22:59Z</time>
      </trkpt>
      <trkpt lat="44.71703" lon="5.01062">
        <ele>212.8</ele>
        <time>2024-05-17T14:23:00Z</time>
      </trkpt>
      <trkpt lat="44.71715" lon="5.01069">
        <ele>212.7</ele>
        <time>2024-05-17T14:23:01Z</time>
      </trkpt>
      <trkpt lat="44.71718" lon="5.01072">
        <ele>212.6</ele>
        <time>2024-05-17T14:23:02Z</time>
      </trkpt>
      <trkpt lat="44.7173" lon="5.01079">
        <ele>212.5</ele>
        <time>2024-05-17T14:23:03Z</time>
      </trkpt>
      <trkpt lat="44.71734" lon="5.01081">
        <ele>212.5</ele>
        <time>2024-05-17T14:23:04Z</time>
      </trkpt>
      <trkpt lat="44.71745" lon="5.01089">
        <ele>212.4</ele>
        <time>2024-05-17T14:23:05Z</time>
      </trkpt>
      <trkpt lat="44.71749" lon="5.01091">
        <ele>212.4</ele>
        <time>2024-05-17T14:23:06Z</time>
      </trkpt>
      <trkpt lat="44.7176" lon="5.01099">
        <ele>212.2</ele>
        <time>2024-05-17T14:23:07Z</time>
      </trkpt>
      <trkpt lat="44.71764" lon="5.01101">
        <ele>212.1</ele>
        <time>2024-05-17T14:23:08Z</time>
      </trkpt>
      <trkpt lat="44.71772" lon="5.01106">
        <ele>212</ele>
        <time>2024-05-17T14:23:09Z</time>
      </trkpt>
      <trkpt lat="44.7178" lon="5.01111">
        <ele>211.9</ele>
        <time>2024-05-17T14:23:10Z</time>
      </trkpt>
      <trkpt lat="44.71787" lon="5.01116">
        <ele>211.8</ele>
        <time>2024-05-17T14:23:11Z</time>
      </trkpt>
      <trkpt lat="44.71799" lon="5.01123">
        <ele>211.6</ele>
        <time>2024-05-17T14:23:12Z</time>
      </trkpt>
      <trkpt lat="44.71803" lon="5.01125">
        <ele>211.6</ele>
        <time>2024-05-17T14:23:13Z</time>
      </trkpt>
      <trkpt lat="44.71811" lon="5.0113">
        <ele>211.4</ele>
        <time>2024-05-17T14:23:14Z</time>
      </trkpt>
      <trkpt lat="44.71823" lon="5.01137">
        <ele>211.2</ele>
        <time>2024-05-17T14:23:15Z</time>
      </trkpt>
      <trkpt lat="44.71827" lon="5.0114">
        <ele>211.2</ele>
        <time>2024-05-17T14:23:16Z</time>
      </trkpt>
      <trkpt lat="44.71838" lon="5.01148">
        <ele>210.9</ele>
        <time>2024-05-17T14:23:17Z</time>
      </trkpt>
      <trkpt lat="44.71842" lon="5.01151">
        <ele>210.8</ele>
        <time>2024-05-17T14:23:18Z</time>
      </trkpt>
      <trkpt lat="44.7185" lon="5.01157">
        <ele>210.7</ele>
        <time>2024-05-17T14:23:19Z</time>
      </trkpt>
      <trkpt lat="44.71857" lon="5.01163">
        <ele>210.5</ele>
        <time>2024-05-17T14:23:20Z</time>
      </trkpt>
      <trkpt lat="44.71865" lon="5.0117">
        <ele>210.3</ele>
        <time>2024-05-17T14:23:21Z</time>
      </trkpt>
      <trkpt lat="44.71872" lon="5.01176">
        <ele>210.1</ele>
        <time>2024-05-17T14:23:22Z</time>
      </trkpt>
      <trkpt lat="44.71879" lon="5.01183">
        <ele>209.9</ele>
        <time>2024-05-17T14:23:23Z</time>
      </trkpt>
      <trkpt lat="44.71886" lon="5.01189">
        <ele>209.8</ele>
        <time>2024-05-17T14:23:24Z</time>
      </trkpt>
      <trkpt lat="44.71894" lon="5.01196">
        <ele>209.6</ele>
        <time>2024-05-17T14:23:25Z</time>
      </trkpt>
      <trkpt lat="44.719" lon="5.01202">
        <ele>209.4</ele>
        <time>2024-05-17T14:23:26Z</time>
      </trkpt>
      <trkpt lat="44.71911" lon="5.01211">
        <ele>209.1</ele>
        <time>2024-05-17T14:23:27Z</time>
      </trkpt>
      <trkpt lat="44.71914" lon="5.01215">
        <ele>209</ele>
        <time>2024-05-17T14:23:28Z</time>
      </trkpt>
      <trkpt lat="44.71925" lon="5.01224">
        <ele>208.8</ele>
        <time>2024-05-17T14:23:29Z</time>
      </trkpt>
      <trkpt lat="44.71928" lon="5.01228">
        <ele>208.6</ele>
        <time>2024-05-17T14:23:30Z</time>
      </trkpt>
      <trkpt lat="44.71939" lon="5.01238">
        <ele>208.3</ele>
        <time>2024-05-17T14:23:31Z</time>
      </trkpt>
      <trkpt lat="44.71943" lon="5.01241">
        <ele>208.2</ele>
        <time>2024-05-17T14:23:32Z</time>
      </trkpt>
      <trkpt lat="44.71954" lon="5.01252">
        <ele>207.9</ele>
        <time>2024-05-17T14:23:33Z</time>
      </trkpt>
      <trkpt lat="44.71957" lon="5.01255">
        <ele>207.8</ele>
        <time>2024-05-17T14:23:34Z</time>
      </trkpt>
      <trkpt lat="44.71965" lon="5.01262">
        <ele>207.6</ele>
        <time>2024-05-17T14:23:35Z</time>
      </trkpt>
      <trkpt lat="44.71972" lon="5.01269">
        <ele>207.3</ele>
        <time>2024-05-17T14:23:36Z</time>
      </trkpt>
      <trkpt lat="44.7198" lon="5.01276">
        <ele>207.1</ele>
        <time>2024-05-17T14:23:37Z</time>
      </trkpt>
      <trkpt lat="44.71991" lon="5.01288">
        <ele>206.8</ele>
        <time>2024-05-17T14:23:38Z</time>
      </trkpt>
      <trkpt lat="44.71995" lon="5.01292">
        <ele>206.7</ele>
        <time>2024-05-17T14:23:39Z</time>
      </trkpt>
      <trkpt lat="44.72002" lon="5.013">
        <ele>206.5</ele>
        <time>2024-05-17T14:23:40Z</time>
      </trkpt>
      <trkpt lat="44.7201" lon="5.01308">
        <ele>206.2</ele>
        <time>2024-05-17T14:23:41Z</time>
      </trkpt>
      <trkpt lat="44.72021" lon="5.01321">
        <ele>205.9</ele>
        <time>2024-05-17T14:23:42Z</time>
      </trkpt>
      <trkpt lat="44.72024" lon="5.01325">
        <ele>205.8</ele>
        <time>2024-05-17T14:23:43Z</time>
      </trkpt>
      <trkpt lat="44.72032" lon="5.01334">
        <ele>205.6</ele>
        <time>2024-05-17T14:23:44Z</time>
      </trkpt>
      <trkpt lat="44.72042" lon="5.01347">
        <ele>205.3</ele>
        <time>2024-05-17T14:23:45Z</time>
      </trkpt>
      <trkpt lat="44.72046" lon="5.01352">
        <ele>205.2</ele>
        <time>2024-05-17T14:23:46Z</time>
      </trkpt>
      <trkpt lat="44.72057" lon="5.01365">
        <ele>204.9</ele>
        <time>2024-05-17T14:23:47Z</time>
      </trkpt>
      <trkpt lat="44.72061" lon="5.01369">
        <ele>204.8</ele>
        <time>2024-05-17T14:23:48Z</time>
      </trkpt>
      <trkpt lat="44.72071" lon="5.01383">
        <ele>204.5</ele>
        <time>2024-05-17T14:23:49Z</time>
      </trkpt>
      <trkpt lat="44.72075" lon="5.01387">
        <ele>204.3</ele>
        <time>2024-05-17T14:23:50Z</time>
      </trkpt>
      <trkpt lat="44.72082" lon="5.01396">
        <ele>204</ele>
        <time>2024-05-17T14:23:51Z</time>
      </trkpt>
      <trkpt lat="44.72089" lon="5.01405">
        <ele>203.7</ele>
        <time>2024-05-17T14:23:52Z</time>
      </trkpt>
      <trkpt lat="44.72097" lon="5.01414">
        <ele>203.4</ele>
        <time>2024-05-17T14:23:53Z</time>
      </trkpt>
      <trkpt lat="44.72104" lon="5.01424">
        <ele>203.1</ele>
        <time>2024-05-17T14:23:54Z</time>
      </trkpt>
      <trkpt lat="44.72111" lon="5.01433">
        <ele>202.8</ele>
        <time>2024-05-17T14:23:55Z</time>
      </trkpt>
      <trkpt lat="44.72118" lon="5.01442">
        <ele>202.5</ele>
        <time>2024-05-17T14:23:56Z</time>
      </trkpt>
      <trkpt lat="44.72128" lon="5.01456">
        <ele>202</ele>
        <time>2024-05-17T14:23:57Z</time>
      </trkpt>
      <trkpt lat="44.72131" lon="5.01461">
        <ele>201.8</ele>
        <time>2024-05-17T14:23:58Z</time>
      </trkpt>
      <trkpt lat="44.72142" lon="5.01475">
        <ele>201.3</ele>
        <time>2024-05-17T14:23:59Z</time>
      </trkpt>
      <trkpt lat="44.72145" lon="5.01479">
        <ele>201.2</ele>
        <time>2024-05-17T14:24:00Z</time>
      </trkpt>
      <trkpt lat="44.72152" lon="5.01489">
        <ele>200.8</ele>
        <time>2024-05-17T14:24:01Z</time>
      </trkpt>
      <trkpt lat="44.72159" lon="5.01498">
        <ele>200.4</ele>
        <time>2024-05-17T14:24:02Z</time>
      </trkpt>
      <trkpt lat="44.72165" lon="5.01508">
        <ele>200</ele>
        <time>2024-05-17T14:24:03Z</time>
      </trkpt>
      <trkpt lat="44.72172" lon="5.01517">
        <ele>199.6</ele>
        <time>2024-05-17T14:24:04Z</time>
      </trkpt>
      <trkpt lat="44.72178" lon="5.01527">
        <ele>199.2</ele>
        <time>2024-05-17T14:24:05Z</time>
      </trkpt>
      <trkpt lat="44.72185" lon="5.01536">
        <ele>198.9</ele>
        <time>2024-05-17T14:24:06Z</time>
      </trkpt>
      <trkpt lat="44.72192" lon="5.01546">
        <ele>198.6</ele>
        <time>2024-05-17T14:24:07Z</time>
      </trkpt>
      <trkpt lat="44.72198" lon="5.01557">
        <ele>198.3</ele>
        <time>2024-05-17T14:24:08Z</time>
      </trkpt>
      <trkpt lat="44.72208" lon="5.01574">
        <ele>197.8</ele>
        <time>2024-05-17T14:24:09Z</time>
      </trkpt>
      <trkpt lat="44.72211" lon="5.01579">
        <ele>197.5</ele>
        <time>2024-05-17T14:24:10Z</time>
      </trkpt>
      <trkpt lat="44.72219" lon="5.01597">
        <ele>197.4</ele>
        <time>2024-05-17T14:24:11Z</time>
      </trkpt>
      <trkpt lat="44.72222" lon="5.01602">
        <ele>197.4</ele>
        <time>2024-05-17T14:24:12Z</time>
      </trkpt>
      <trkpt lat="44.72229" lon="5.01619">
        <ele>197.6</ele>
        <time>2024-05-17T14:24:13Z</time>
      </trkpt>
      <trkpt lat="44.72231" lon="5.01625">
        <ele>197.7</ele>
        <time>2024-05-17T14:24:14Z</time>
      </trkpt>
      <trkpt lat="44.72237" lon="5.01641">
        <ele>198.1</ele>
        <time>2024-05-17T14:24:15Z</time>
      </trkpt>
      <trkpt lat="44.72239" lon="5.01646">
        <ele>198.3</ele>
        <time>2024-05-17T14:24:16Z</time>
      </trkpt>
      <trkpt lat="44.72244" lon="5.0166">
        <ele>198.8</ele>
        <time>2024-05-17T14:24:17Z</time>
      </trkpt>
      <trkpt lat="44.72246" lon="5.01664">
        <ele>198.9</ele>
        <time>2024-05-17T14:24:18Z</time>
      </trkpt>
      <trkpt lat="44.72251" lon="5.01677">
        <ele>199.4</ele>
        <time>2024-05-17T14:24:19Z</time>
      </trkpt>
      <trkpt lat="44.72253" lon="5.01681">
        <ele>199.6</ele>
        <time>2024-05-17T14:24:20Z</time>
      </trkpt>
      <trkpt lat="44.72256" lon="5.01688">
        <ele>199.9</ele>
        <time>2024-05-17T14:24:21Z</time>
      </trkpt>
      <trkpt lat="44.72259" lon="5.01696">
        <ele>200.3</ele>
        <time>2024-05-17T14:24:22Z</time>
      </trkpt>
      <trkpt lat="44.72262" lon="5.01702">
        <ele>200.6</ele>
        <time>2024-05-17T14:24:23Z</time>
      </trkpt>
      <trkpt lat="44.72266" lon="5.01711">
        <ele>201.1</ele>
        <time>2024-05-17T14:24:24Z</time>
      </trkpt>
      <trkpt lat="44.72267" lon="5.01714">
        <ele>201.2</ele>
        <time>2024-05-17T14:24:25Z</time>
      </trkpt>
      <trkpt lat="44.72271" lon="5.01723">
        <ele>201.7</ele>
        <time>2024-05-17T14:24:26Z</time>
      </trkpt>
      <trkpt lat="44.72271" lon="5.01726">
        <ele>201.8</ele>
        <time>2024-05-17T14:24:27Z</time>
      </trkpt>
      <trkpt lat="44.72274" lon="5.01734">
        <ele>202.2</ele>
        <time>2024-05-17T14:24:28Z</time>
      </trkpt>
      <trkpt lat="44.72275" lon="5.01736">
        <ele>202.3</ele>
        <time>2024-05-17T14:24:29Z</time>
      </trkpt>
      <trkpt lat="44.72278" lon="5.01745">
        <ele>202.7</ele>
        <time>2024-05-17T14:24:30Z</time>
      </trkpt>
      <trkpt lat="44.72279" lon="5.01748">
        <ele>202.9</ele>
        <time>2024-05-17T14:24:31Z</time>
      </trkpt>
      <trkpt lat="44.72283" lon="5.01756">
        <ele>203.3</ele>
        <time>2024-05-17T14:24:32Z</time>
      </trkpt>
      <trkpt lat="44.72284" lon="5.01759">
        <ele>203.4</ele>
        <time>2024-05-17T14:24:33Z</time>
      </trkpt>
      <trkpt lat="44.72286" lon="5.01764">
        <ele>203.7</ele>
        <time>2024-05-17T14:24:34Z</time>
      </trkpt>
      <trkpt lat="44.72288" lon="5.01772">
        <ele>204.1</ele>
        <time>2024-05-17T14:24:35Z</time>
      </trkpt>
      <trkpt lat="44.72289" lon="5.01774">
        <ele>204.3</ele>
        <time>2024-05-17T14:24:36Z</time>
      </trkpt>
      <trkpt lat="44.72292" lon="5.01782">
        <ele>204.7</ele>
        <time>2024-05-17T14:24:37Z</time>
      </trkpt>
      <trkpt lat="44.72293" lon="5.01784">
        <ele>204.8</ele>
        <time>2024-05-17T14:24:38Z</time>
      </trkpt>
      <trkpt lat="44.72295" lon="5.0179">
        <ele>205.1</ele>
        <time>2024-05-17T14:24:39Z</time>
      </trkpt>
      <trkpt lat="44.72297" lon="5.01795">
        <ele>205.4</ele>
        <time>2024-05-17T14:24:40Z</time>
      </trkpt>
      <trkpt lat="44.72298" lon="5.01804">
        <ele>205.8</ele>
        <time>2024-05-17T14:24:41Z</time>
      </trkpt>
      <trkpt lat="44.72299" lon="5.01807">
        <ele>205.9</ele>
        <time>2024-05-17T14:24:42Z</time>
      </trkpt>
      <trkpt lat="44.723" lon="5.01812">
        <ele>206.1</ele>
        <time>2024-05-17T14:24:43Z</time>
      </trkpt>
      <trkpt lat="44.72301" lon="5.0182">
        <ele>206.5</ele>
        <time>2024-05-17T14:24:44Z</time>
      </trkpt>
      <trkpt lat="44.72301" lon="5.01823">
        <ele>206.6</ele>
        <time>2024-05-17T14:24:45Z</time>
      </trkpt>
      <trkpt lat="44.72302" lon="5.01829">
        <ele>206.9</ele>
        <time>2024-05-17T14:24:46Z</time>
      </trkpt>
      <trkpt lat="44.72303" lon="5.01838">
        <ele>207.2</ele>
        <time>2024-05-17T14:24:47Z</time>
      </trkpt>
      <trkpt lat="44.72304" lon="5.01841">
        <ele>207.3</ele>
        <time>2024-05-17T14:24:48Z</time>
      </trkpt>
      <trkpt lat="44.72304" lon="5.01846">
        <ele>207.6</ele>
        <time>2024-05-17T14:24:49Z</time>
      </trkpt>
      <trkpt lat="44.72304" lon="5.01852">
        <ele>207.8</ele>
        <time>2024-05-17T14:24:50Z</time>
      </trkpt>
      <trkpt lat="44.72304" lon="5.01857">
        <ele>208</ele>
        <time>2024-05-17T14:24:51Z</time>
      </trkpt>
      <trkpt lat="44.72304" lon="5.01862">
        <ele>208.2</ele>
        <time>2024-05-17T14:24:52Z</time>
      </trkpt>
      <trkpt lat="44.72304" lon="5.0187">
        <ele>208.5</ele>
        <time>2024-05-17T14:24:53Z</time>
      </trkpt>
      <trkpt lat="44.72304" lon="5.01873">
        <ele>208.6</ele>
        <time>2024-05-17T14:24:54Z</time>
      </trkpt>
      <trkpt lat="44.72304" lon="5.01881">
        <ele>208.8</ele>
        <time>2024-05-17T14:24:55Z</time>
      </trkpt>
      <trkpt lat="44.72304" lon="5.01884">
        <ele>208.9</ele>
        <time>2024-05-17T14:24:56Z</time>
      </trkpt>
      <trkpt lat="44.72304" lon="5.01892">
        <ele>209.2</ele>
        <time>2024-05-17T14:24:57Z</time>
      </trkpt>
      <trkpt lat="44.72304" lon="5.01894">
        <ele>209.3</ele>
        <time>2024-05-17T14:24:58Z</time>
      </trkpt>
      <trkpt lat="44.72303" lon="5.01902">
        <ele>209.5</ele>
        <time>2024-05-17T14:24:59Z</time>
      </trkpt>
      <trkpt lat="44.72303" lon="5.01905">
        <ele>209.6</ele>
        <time>2024-05-17T14:25:00Z</time>
      </trkpt>
      <trkpt lat="44.72302" lon="5.01913">
        <ele>209.8</ele>
        <time>2024-05-17T14:25:01Z</time>
      </trkpt>
      <trkpt lat="44.72302" lon="5.01915">
        <ele>209.9</ele>
        <time>2024-05-17T14:25:02Z</time>
      </trkpt>
      <trkpt lat="44.72301" lon="5.01923">
        <ele>210.1</ele>
        <time>2024-05-17T14:25:03Z</time>
      </trkpt>
      <trkpt lat="44.723" lon="5.01925">
        <ele>210.2</ele>
        <time>2024-05-17T14:25:04Z</time>
      </trkpt>
      <trkpt lat="44.723" lon="5.01931">
        <ele>210.4</ele>
        <time>2024-05-17T14:25:05Z</time>
      </trkpt>
      <trkpt lat="44.72299" lon="5.01936">
        <ele>210.5</ele>
        <time>2024-05-17T14:25:06Z</time>
      </trkpt>
      <trkpt lat="44.72297" lon="5.0194">
        <ele>210.7</ele>
        <time>2024-05-17T14:25:07Z</time>
      </trkpt>
      <trkpt lat="44.72296" lon="5.01948">
        <ele>210.9</ele>
        <time>2024-05-17T14:25:08Z</time>
      </trkpt>
      <trkpt lat="44.72295" lon="5.01951">
        <ele>210.9</ele>
        <time>2024-05-17T14:25:09Z</time>
      </trkpt>
      <trkpt lat="44.72293" lon="5.01958">
        <ele>211.1</ele>
        <time>2024-05-17T14:25:10Z</time>
      </trkpt>
      <trkpt lat="44.72292" lon="5.01961">
        <ele>211.2</ele>
        <time>2024-05-17T14:25:11Z</time>
      </trkpt>
      <trkpt lat="44.7229" lon="5.01969">
        <ele>211.4</ele>
        <time>2024-05-17T14:25:12Z</time>
      </trkpt>
      <trkpt lat="44.7229" lon="5.01971">
        <ele>211.4</ele>
        <time>2024-05-17T14:25:13Z</time>
      </trkpt>
      <trkpt lat="44.72288" lon="5.01979">
        <ele>211.6</ele>
        <time>2024-05-17T14:25:14Z</time>
      </trkpt>
      <trkpt lat="44.72287" lon="5.01982">
        <ele>211.6</ele>
        <time>2024-05-17T14:25:15Z</time>
      </trkpt>
      <trkpt lat="44.72284" lon="5.0199">
        <ele>211.7</ele>
        <time>2024-05-17T14:25:16Z</time>
      </trkpt>
      <trkpt lat="44.72283" lon="5.01992">
        <ele>211.8</ele>
        <time>2024-05-17T14:25:17Z</time>
      </trkpt>
      <trkpt lat="44.72279" lon="5.02">
        <ele>211.9</ele>
        <time>2024-05-17T14:25:18Z</time>
      </trkpt>
      <trkpt lat="44.72278" lon="5.02003">
        <ele>212</ele>
        <time>2024-05-17T14:25:19Z</time>
      </trkpt>
      <trkpt lat="44.72276" lon="5.02008">
        <ele>212</ele>
        <time>2024-05-17T14:25:20Z</time>
      </trkpt>
      <trkpt lat="44.72273" lon="5.02013">
        <ele>212.1</ele>
        <time>2024-05-17T14:25:21Z</time>
      </trkpt>
      <trkpt lat="44.72271" lon="5.02018">
        <ele>212.2</ele>
        <time>2024-05-17T14:25:22Z</time>
      </trkpt>
      <trkpt lat="44.72268" lon="5.02024">
        <ele>212.2</ele>
        <time>2024-05-17T14:25:23Z</time>
      </trkpt>
      <trkpt lat="44.72265" lon="5.02029">
        <ele>212.3</ele>
        <time>2024-05-17T14:25:24Z</time>
      </trkpt>
      <trkpt lat="44.72261" lon="5.02037">
        <ele>212.4</ele>
        <time>2024-05-17T14:25:25Z</time>
      </trkpt>
      <trkpt lat="44.7226" lon="5.02039">
        <ele>212.4</ele>
        <time>2024-05-17T14:25:26Z</time>
      </trkpt>
      <trkpt lat="44.72256" lon="5.02044">
        <ele>212.4</ele>
        <time>2024-05-17T14:25:27Z</time>
      </trkpt>
      <trkpt lat="44.72253" lon="5.02049">
        <ele>212.4</ele>
        <time>2024-05-17T14:25:28Z</time>
      </trkpt>
      <trkpt lat="44.72249" lon="5.02054">
        <ele>212.5</ele>
        <time>2024-05-17T14:25:29Z</time>
      </trkpt>
      <trkpt lat="44.72246" lon="5.0206">
        <ele>212.5</ele>
        <time>2024-05-17T14:25:30Z</time>
      </trkpt>
      <trkpt lat="44.72242" lon="5.02065">
        <ele>212.5</ele>
        <time>2024-05-17T14:25:31Z</time>
      </trkpt>
      <trkpt lat="44.72239" lon="5.0207">
        <ele>212.5</ele>
        <time>2024-05-17T14:25:32Z</time>
      </trkpt>
      <trkpt lat="44.72235" lon="5.02075">
        <ele>212.5</ele>
        <time>2024-05-17T14:25:33Z</time>
      </trkpt>
      <trkpt lat="44.7223" lon="5.0208">
        <ele>212.5</ele>
        <time>2024-05-17T14:25:34Z</time>
      </trkpt>
      <trkpt lat="44.72226" lon="5.02085">
        <ele>212.5</ele>
        <time>2024-05-17T14:25:35Z</time>
      </trkpt>
      <trkpt lat="44.72221" lon="5.0209">
        <ele>212.4</ele>
        <time>2024-05-17T14:25:36Z</time>
      </trkpt>
      <trkpt lat="44.72214" lon="5.02098">
        <ele>212.3</ele>
        <time>2024-05-17T14:25:37Z</time>
      </trkpt>
      <trkpt lat="44.72211" lon="5.021">
        <ele>212.3</ele>
        <time>2024-05-17T14:25:38Z</time>
      </trkpt>
      <trkpt lat="44.72204" lon="5.02108">
        <ele>212.2</ele>
        <time>2024-05-17T14:25:39Z</time>
      </trkpt>
      <trkpt lat="44.72201" lon="5.02111">
        <ele>212.2</ele>
        <time>2024-05-17T14:25:40Z</time>
      </trkpt>
      <trkpt lat="44.72196" lon="5.02116">
        <ele>212.1</ele>
        <time>2024-05-17T14:25:41Z</time>
      </trkpt>
      <trkpt lat="44.72188" lon="5.02125">
        <ele>211.9</ele>
        <time>2024-05-17T14:25:42Z</time>
      </trkpt>
      <trkpt lat="44.72186" lon="5.02128">
        <ele>211.8</ele>
        <time>2024-05-17T14:25:43Z</time>
      </trkpt>
      <trkpt lat="44.7218" lon="5.02134">
        <ele>211.6</ele>
        <time>2024-05-17T14:25:44Z</time>
      </trkpt>
      <trkpt lat="44.72175" lon="5.02139">
        <ele>211.5</ele>
        <time>2024-05-17T14:25:45Z</time>
      </trkpt>
      <trkpt lat="44.72169" lon="5.02145">
        <ele>211.2</ele>
        <time>2024-05-17T14:25:46Z</time>
      </trkpt>
      <trkpt lat="44.7216" lon="5.02155">
        <ele>210.9</ele>
        <time>2024-05-17T14:25:47Z</time>
      </trkpt>
      <trkpt lat="44.72157" lon="5.02158">
        <ele>210.8</ele>
        <time>2024-05-17T14:25:48Z</time>
      </trkpt>
      <trkpt lat="44.72148" lon="5.02167">
        <ele>210.5</ele>
        <time>2024-05-17T14:25:49Z</time>
      </trkpt>
      <trkpt lat="44.72145" lon="5.0217">
        <ele>210.3</ele>
        <time>2024-05-17T14:25:50Z</time>
      </trkpt>
      <trkpt lat="44.72136" lon="5.0218">
        <ele>210</ele>
        <time>2024-05-17T14:25:51Z</time>
      </trkpt>
      <trkpt lat="44.72133" lon="5.02183">
        <ele>209.9</ele>
        <time>2024-05-17T14:25:52Z</time>
      </trkpt>
      <trkpt lat="44.72124" lon="5.02194">
        <ele>209.4</ele>
        <time>2024-05-17T14:25:53Z</time>
      </trkpt>
      <trkpt lat="44.72121" lon="5.02197">
        <ele>209.2</ele>
        <time>2024-05-17T14:25:54Z</time>
      </trkpt>
      <trkpt lat="44.72111" lon="5.02208">
        <ele>208.7</ele>
        <time>2024-05-17T14:25:55Z</time>
      </trkpt>
      <trkpt lat="44.72108" lon="5.02211">
        <ele>208.6</ele>
        <time>2024-05-17T14:25:56Z</time>
      </trkpt>
      <trkpt lat="44.72101" lon="5.02219">
        <ele>208.2</ele>
        <time>2024-05-17T14:25:57Z</time>
      </trkpt>
      <trkpt lat="44.72092" lon="5.02231">
        <ele>207.6</ele>
        <time>2024-05-17T14:25:58Z</time>
      </trkpt>
      <trkpt lat="44.72089" lon="5.02235">
        <ele>207.5</ele>
        <time>2024-05-17T14:25:59Z</time>
      </trkpt>
      <trkpt lat="44.72082" lon="5.02244">
        <ele>207.1</ele>
        <time>2024-05-17T14:26:00Z</time>
      </trkpt>
      <trkpt lat="44.72076" lon="5.02253">
        <ele>206.8</ele>
        <time>2024-05-17T14:26:01Z</time>
      </trkpt>
      <trkpt lat="44.7207" lon="5.02262">
        <ele>206.4</ele>
        <time>2024-05-17T14:26:02Z</time>
      </trkpt>
      <trkpt lat="44.72065" lon="5.02271">
        <ele>206.1</ele>
        <time>2024-05-17T14:26:03Z</time>
      </trkpt>
      <trkpt lat="44.72057" lon="5.02287">
        <ele>205.6</ele>
        <time>2024-05-17T14:26:04Z</time>
      </trkpt>
      <trkpt lat="44.72055" lon="5.02292">
        <ele>205.4</ele>
        <time>2024-05-17T14:26:05Z</time>
      </trkpt>
      <trkpt lat="44.72048" lon="5.02309">
        <ele>204.9</ele>
        <time>2024-05-17T14:26:06Z</time>
      </trkpt>
      <trkpt lat="44.72046" lon="5.02315">
        <ele>204.7</ele>
        <time>2024-05-17T14:26:07Z</time>
      </trkpt>
      <trkpt lat="44.7204" lon="5.02333">
        <ele>204.2</ele>
        <time>2024-05-17T14:26:08Z</time>
      </trkpt>
      <trkpt lat="44.72038" lon="5.02339">
        <ele>204</ele>
        <time>2024-05-17T14:26:09Z</time>
      </trkpt>
      <trkpt lat="44.72036" lon="5.02352">
        <ele>203.7</ele>
        <time>2024-05-17T14:26:10Z</time>
      </trkpt>
      <trkpt lat="44.72034" lon="5.02365">
        <ele>203.3</ele>
        <time>2024-05-17T14:26:11Z</time>
      </trkpt>
      <trkpt lat="44.72031" lon="5.02384">
        <ele>202.9</ele>
        <time>2024-05-17T14:26:12Z</time>
      </trkpt>
      <trkpt lat="44.7203" lon="5.0239">
        <ele>202.7</ele>
        <time>2024-05-17T14:26:13Z</time>
      </trkpt>
      <trkpt lat="44.72028" lon="5.02403">
        <ele>202.3</ele>
        <time>2024-05-17T14:26:14Z</time>
      </trkpt>
      <trkpt lat="44.72026" lon="5.02422">
        <ele>201.7</ele>
        <time>2024-05-17T14:26:15Z</time>
      </trkpt>
      <trkpt lat="44.72025" lon="5.02429">
        <ele>201.5</ele>
        <time>2024-05-17T14:26:16Z</time>
      </trkpt>
      <trkpt lat="44.72024" lon="5.02442">
        <ele>201.1</ele>
        <time>2024-05-17T14:26:17Z</time>
      </trkpt>
      <trkpt lat="44.72024" lon="5.02455">
        <ele>200.7</ele>
        <time>2024-05-17T14:26:18Z</time>
      </trkpt>
      <trkpt lat="44.72023" lon="5.02467">
        <ele>200.3</ele>
        <time>2024-05-17T14:26:19Z</time>
      </trkpt>
      <trkpt lat="44.72022" lon="5.02486">
        <ele>199.8</ele>
        <time>2024-05-17T14:26:20Z</time>
      </trkpt>
      <trkpt lat="44.72021" lon="5.02492">
        <ele>199.7</ele>
        <time>2024-05-17T14:26:21Z</time>
      </trkpt>
      <trkpt lat="44.7202" lon="5.0251">
        <ele>199.2</ele>
        <time>2024-05-17T14:26:22Z</time>
      </trkpt>
      <trkpt lat="44.72019" lon="5.02516">
        <ele>199.1</ele>
        <time>2024-05-17T14:26:23Z</time>
      </trkpt>
      <trkpt lat="44.72017" lon="5.02533">
        <ele>198.7</ele>
        <time>2024-05-17T14:26:24Z</time>
      </trkpt>
      <trkpt lat="44.72017" lon="5.02539">
        <ele>198.6</ele>
        <time>2024-05-17T14:26:25Z</time>
      </trkpt>
      <trkpt lat="44.72016" lon="5.02553">
        <ele>198.3</ele>
        <time>2024-05-17T14:26:26Z</time>
      </trkpt>
      <trkpt lat="44.72016" lon="5.02557">
        <ele>198.3</ele>
        <time>2024-05-17T14:26:27Z</time>
      </trkpt>
      <trkpt lat="44.72015" lon="5.02562">
        <ele>198.2</ele>
        <time>2024-05-17T14:26:28Z</time>
      </trkpt>
      <trkpt lat="44.72015" lon="5.02564">
        <ele>198.2</ele>
        <time>2024-05-17T14:26:29Z</time>
      </trkpt>
      <trkpt lat="44.72015" lon="5.02567">
        <ele>198.2</ele>
        <time>2024-05-17T14:26:30Z</time>
      </trkpt>
      <trkpt lat="44.72015" lon="5.02569">
        <ele>198.2</ele>
        <time>2024-05-17T14:26:31Z</time>
      </trkpt>
      <trkpt lat="44.72015" lon="5.0257">
        <ele>198.2</ele>
        <time>2024-05-17T14:26:32Z</time>
      </trkpt>
      <trkpt lat="44.72016" lon="5.02571">
        <ele>198.2</ele>
        <time>2024-05-17T14:26:33Z</time>
      </trkpt>
      <trkpt lat="44.72016" lon="5.02573">
        <ele>198.2</ele>
        <time>2024-05-17T14:26:57Z</time>
      </trkpt>
      <trkpt lat="44.72016" lon="5.02574">
        <ele>198.2</ele>
        <time>2024-05-17T14:26:58Z</time>
      </trkpt>
      <trkpt lat="44.72016" lon="5.02575">
        <ele>198.2</ele>
        <time>2024-05-17T14:26:59Z</time>
      </trkpt>
      <trkpt lat="44.72017" lon="5.02579">
        <ele>198.2</ele>
        <time>2024-05-17T14:27:00Z</time>
      </trkpt>
      <trkpt lat="44.72019" lon="5.02584">
        <ele>198.2</ele>
        <time>2024-05-17T14:27:01Z</time>
      </trkpt>
      <trkpt lat="44.72021" lon="5.02588">
        <ele>198.2</ele>
        <time>2024-05-17T14:27:02Z</time>
      </trkpt>
      <trkpt lat="44.72024" lon="5.02592">
        <ele>198.1</ele>
        <time>2024-05-17T14:27:03Z</time>
      </trkpt>
      <trkpt lat="44.72028" lon="5.02595">
        <ele>198</ele>
        <time>2024-05-17T14:27:04Z</time>
      </trkpt>
      <trkpt lat="44.72033" lon="5.02596">
        <ele>197.8</ele>
        <time>2024-05-17T14:27:05Z</time>
      </trkpt>
      <trkpt lat="44.72037" lon="5.02594">
        <ele>197.7</ele>
        <time>2024-05-17T14:27:06Z</time>
      </trkpt>
      <trkpt lat="44.72044" lon="5.02589">
        <ele>197.5</ele>
        <time>2024-05-17T14:27:07Z</time>
      </trkpt>
      <trkpt lat="44.72046" lon="5.02587">
        <ele>197.4</ele>
        <time>2024-05-17T14:27:08Z</time>
      </trkpt>
      <trkpt lat="44.7205" lon="5.02584">
        <ele>197.3</ele>
        <time>2024-05-17T14:27:09Z</time>
      </trkpt>
      <trkpt lat="44.72057" lon="5.02578">
        <ele>197.2</ele>
        <time>2024-05-17T14:27:10Z</time>
      </trkpt>
      <trkpt lat="44.72059" lon="5.02577">
        <ele>197.2</ele>
        <time>2024-05-17T14:27:11Z</time>
      </trkpt>
      <trkpt lat="44.72066" lon="5.02573">
        <ele>197.2</ele>
        <time>2024-05-17T14:27:12Z</time>
      </trkpt>
      <trkpt lat="44.72069" lon="5.02572">
        <ele>197.2</ele>
        <time>2024-05-17T14:27:13Z</time>
      </trkpt>
      <trkpt lat="44.72073" lon="5.0257">
        <ele>197.2</ele>
        <time>2024-05-17T14:27:14Z</time>
      </trkpt>
      <trkpt lat="44.72079" lon="5.02568">
        <ele>197.1</ele>
        <time>2024-05-17T14:27:15Z</time>
      </trkpt>
      <trkpt lat="44.72081" lon="5.02569">
        <ele>197.1</ele>
        <time>2024-05-17T14:27:16Z</time>
      </trkpt>
      <trkpt lat="44.72083" lon="5.02573">
        <ele>197.1</ele>
        <time>2024-05-17T14:27:17Z</time>
      </trkpt>
      <trkpt lat="44.72082" lon="5.02578">
        <ele>197.1</ele>
        <time>2024-05-17T14:27:18Z</time>
      </trkpt>
      <trkpt lat="44.7208" lon="5.02581">
        <ele>197.1</ele>
        <time>2024-05-17T14:27:19Z</time>
      </trkpt>
      <trkpt lat="44.72078" lon="5.02585">
        <ele>197.1</ele>
        <time>2024-05-17T14:27:20Z</time>
      </trkpt>
      <trkpt lat="44.72075" lon="5.02589">
        <ele>197</ele>
        <time>2024-05-17T14:27:21Z</time>
      </trkpt>
      <trkpt lat="44.72074" lon="5.02593">
        <ele>197</ele>
        <time>2024-05-17T14:27:22Z</time>
      </trkpt>
      <trkpt lat="44.72074" lon="5.026">
        <ele>197</ele>
        <time>2024-05-17T14:27:23Z</time>
      </trkpt>
      <trkpt lat="44.72074" lon="5.02602">
        <ele>197</ele>
        <time>2024-05-17T14:27:24Z</time>
      </trkpt>
      <trkpt lat="44.72074" lon="5.02609">
        <ele>197</ele>
        <time>2024-05-17T14:27:25Z</time>
      </trkpt>
      <trkpt lat="44.72074" lon="5.02611">
        <ele>197</ele>
        <time>2024-05-17T14:27:26Z</time>
      </trkpt>
      <trkpt lat="44.72073" lon="5.02617">
        <ele>196.9</ele>
        <time>2024-05-17T14:27:27Z</time>
      </trkpt>
      <trkpt lat="44.72072" lon="5.02619">
        <ele>196.9</ele>
        <time>2024-05-17T14:27:28Z</time>
      </trkpt>
      <trkpt lat="44.72073" lon="5.02624">
        <ele>196.9</ele>
        <time>2024-05-17T14:27:29Z</time>
      </trkpt>
      <trkpt lat="44.72073" lon="5.02625">
        <ele>196.9</ele>
        <time>2024-05-17T14:27:30Z</time>
      </trkpt>
      <trkpt lat="44.72074" lon="5.02627">
        <ele>196.9</ele>
        <time>2024-05-17T14:27:31Z</time>
      </trkpt>
      <trkpt lat="44.72074" lon="5.02628">
        <ele>196.9</ele>
        <time>2024-05-17T14:27:32Z</time>
      </trkpt>
      <trkpt lat="44.72074" lon="5.02628">
        <ele>196.9</ele>
        <time>2024-05-17T14:27:33Z</time>
      </trkpt>
      <trkpt lat="44.72074" lon="5.02628">
        <ele>196.9</ele>
        <time>2024-05-17T14:27:34Z</time>
      </trkpt>
    </trkseg>
  </trk>
</gpx>